<?xml version="1.0" encoding="UTF-8" standalone="no" ?>
<gpx xmlns="http://www.topografix.com/GPX/1/1" xmlns:xsi="http://www.w3.org/2001/XMLSchema-instance" xsi:schemaLocation="http://www.topografix.com/GPX/1/1 http://www.topografix.com/GPX/1/1/gpx.xsd" version="1.1" creator="VisuGPX - https://www.visugpx.com">
  <metadata>
    <name>premiere partie voyage</name>
  </metadata>
  <trk>
    <name><![CDATA[Jour  4 - La Tranche / Saint Gilles Croix de vie]]></name>
    <trkseg>
      <trkpt lat="46.3469" lon="-1.41497">
        <ele>8.9</ele>
        <time>2020-06-03T08:14:51Z</time>
      </trkpt>
      <trkpt lat="46.3469" lon="-1.41496">
        <ele>8.9</ele>
        <time>2020-06-03T08:14:52Z</time>
      </trkpt>
      <trkpt lat="46.34691" lon="-1.41494">
        <ele>8.9</ele>
        <time>2020-06-03T08:14:53Z</time>
      </trkpt>
      <trkpt lat="46.3469" lon="-1.41494">
        <ele>8.9</ele>
        <time>2020-06-03T08:14:54Z</time>
      </trkpt>
      <trkpt lat="46.3469" lon="-1.41493">
        <ele>8.9</ele>
        <time>2020-06-03T08:14:55Z</time>
      </trkpt>
      <trkpt lat="46.34691" lon="-1.41492">
        <ele>8.9</ele>
        <time>2020-06-03T08:14:56Z</time>
      </trkpt>
      <trkpt lat="46.34691" lon="-1.41493">
        <ele>8.9</ele>
        <time>2020-06-03T08:14:57Z</time>
      </trkpt>
      <trkpt lat="46.34691" lon="-1.41493">
        <ele>8.9</ele>
        <time>2020-06-03T08:14:58Z</time>
      </trkpt>
      <trkpt lat="46.34691" lon="-1.41494">
        <ele>8.9</ele>
        <time>2020-06-03T08:14:59Z</time>
      </trkpt>
      <trkpt lat="46.34692" lon="-1.41495">
        <ele>8.9</ele>
        <time>2020-06-03T08:15:00Z</time>
      </trkpt>
      <trkpt lat="46.34692" lon="-1.41495">
        <ele>8.9</ele>
        <time>2020-06-03T08:15:01Z</time>
      </trkpt>
      <trkpt lat="46.34692" lon="-1.41496">
        <ele>8.9</ele>
        <time>2020-06-03T08:15:02Z</time>
      </trkpt>
      <trkpt lat="46.34693" lon="-1.41497">
        <ele>8.9</ele>
        <time>2020-06-03T08:15:03Z</time>
      </trkpt>
      <trkpt lat="46.34693" lon="-1.41497">
        <ele>8.9</ele>
        <time>2020-06-03T08:15:04Z</time>
      </trkpt>
      <trkpt lat="46.34693" lon="-1.41498">
        <ele>8.9</ele>
        <time>2020-06-03T08:15:05Z</time>
      </trkpt>
      <trkpt lat="46.34694" lon="-1.41502">
        <ele>8.9</ele>
        <time>2020-06-03T08:15:06Z</time>
      </trkpt>
      <trkpt lat="46.34696" lon="-1.41506">
        <ele>8.9</ele>
        <time>2020-06-03T08:15:07Z</time>
      </trkpt>
      <trkpt lat="46.34698" lon="-1.4151">
        <ele>8.9</ele>
        <time>2020-06-03T08:15:08Z</time>
      </trkpt>
      <trkpt lat="46.347" lon="-1.41515">
        <ele>8.9</ele>
        <time>2020-06-03T08:15:09Z</time>
      </trkpt>
      <trkpt lat="46.34702" lon="-1.4152">
        <ele>9</ele>
        <time>2020-06-03T08:15:10Z</time>
      </trkpt>
      <trkpt lat="46.34703" lon="-1.41523">
        <ele>8.9</ele>
        <time>2020-06-03T08:15:11Z</time>
      </trkpt>
      <trkpt lat="46.34704" lon="-1.41528">
        <ele>8.9</ele>
        <time>2020-06-03T08:15:12Z</time>
      </trkpt>
      <trkpt lat="46.34705" lon="-1.41534">
        <ele>8.9</ele>
        <time>2020-06-03T08:15:13Z</time>
      </trkpt>
      <trkpt lat="46.34707" lon="-1.41539">
        <ele>8.9</ele>
        <time>2020-06-03T08:15:14Z</time>
      </trkpt>
      <trkpt lat="46.34709" lon="-1.41545">
        <ele>8.9</ele>
        <time>2020-06-03T08:15:15Z</time>
      </trkpt>
      <trkpt lat="46.3471" lon="-1.41551">
        <ele>8.9</ele>
        <time>2020-06-03T08:15:16Z</time>
      </trkpt>
      <trkpt lat="46.34712" lon="-1.41557">
        <ele>8.9</ele>
        <time>2020-06-03T08:15:17Z</time>
      </trkpt>
      <trkpt lat="46.34714" lon="-1.41563">
        <ele>8.9</ele>
        <time>2020-06-03T08:15:18Z</time>
      </trkpt>
      <trkpt lat="46.34716" lon="-1.41569">
        <ele>8.9</ele>
        <time>2020-06-03T08:15:19Z</time>
      </trkpt>
      <trkpt lat="46.34718" lon="-1.41575">
        <ele>8.9</ele>
        <time>2020-06-03T08:15:20Z</time>
      </trkpt>
      <trkpt lat="46.3472" lon="-1.4158">
        <ele>8.9</ele>
        <time>2020-06-03T08:15:21Z</time>
      </trkpt>
      <trkpt lat="46.34722" lon="-1.41586">
        <ele>8.9</ele>
        <time>2020-06-03T08:15:22Z</time>
      </trkpt>
      <trkpt lat="46.34724" lon="-1.41591">
        <ele>8.9</ele>
        <time>2020-06-03T08:15:23Z</time>
      </trkpt>
      <trkpt lat="46.34725" lon="-1.41596">
        <ele>8.8</ele>
        <time>2020-06-03T08:15:24Z</time>
      </trkpt>
      <trkpt lat="46.34727" lon="-1.41601">
        <ele>8.8</ele>
        <time>2020-06-03T08:15:25Z</time>
      </trkpt>
      <trkpt lat="46.34729" lon="-1.41607">
        <ele>8.8</ele>
        <time>2020-06-03T08:15:26Z</time>
      </trkpt>
      <trkpt lat="46.3473" lon="-1.41612">
        <ele>8.8</ele>
        <time>2020-06-03T08:15:27Z</time>
      </trkpt>
      <trkpt lat="46.34732" lon="-1.41617">
        <ele>8.8</ele>
        <time>2020-06-03T08:15:28Z</time>
      </trkpt>
      <trkpt lat="46.34733" lon="-1.41624">
        <ele>8.8</ele>
        <time>2020-06-03T08:15:29Z</time>
      </trkpt>
      <trkpt lat="46.34735" lon="-1.41632">
        <ele>8.8</ele>
        <time>2020-06-03T08:15:30Z</time>
      </trkpt>
      <trkpt lat="46.34736" lon="-1.41639">
        <ele>8.8</ele>
        <time>2020-06-03T08:15:31Z</time>
      </trkpt>
      <trkpt lat="46.34738" lon="-1.41646">
        <ele>8.8</ele>
        <time>2020-06-03T08:15:32Z</time>
      </trkpt>
      <trkpt lat="46.34739" lon="-1.41652">
        <ele>8.8</ele>
        <time>2020-06-03T08:15:33Z</time>
      </trkpt>
      <trkpt lat="46.34741" lon="-1.41659">
        <ele>8.8</ele>
        <time>2020-06-03T08:15:34Z</time>
      </trkpt>
      <trkpt lat="46.34742" lon="-1.41664">
        <ele>8.8</ele>
        <time>2020-06-03T08:15:35Z</time>
      </trkpt>
      <trkpt lat="46.34744" lon="-1.4167">
        <ele>8.8</ele>
        <time>2020-06-03T08:15:36Z</time>
      </trkpt>
      <trkpt lat="46.34745" lon="-1.41676">
        <ele>8.7</ele>
        <time>2020-06-03T08:15:37Z</time>
      </trkpt>
      <trkpt lat="46.34746" lon="-1.41681">
        <ele>8.7</ele>
        <time>2020-06-03T08:15:38Z</time>
      </trkpt>
      <trkpt lat="46.34746" lon="-1.41686">
        <ele>8.7</ele>
        <time>2020-06-03T08:15:39Z</time>
      </trkpt>
      <trkpt lat="46.34748" lon="-1.41691">
        <ele>8.7</ele>
        <time>2020-06-03T08:15:40Z</time>
      </trkpt>
      <trkpt lat="46.34749" lon="-1.41696">
        <ele>8.7</ele>
        <time>2020-06-03T08:15:41Z</time>
      </trkpt>
      <trkpt lat="46.3475" lon="-1.41701">
        <ele>8.7</ele>
        <time>2020-06-03T08:15:42Z</time>
      </trkpt>
      <trkpt lat="46.34751" lon="-1.41706">
        <ele>8.7</ele>
        <time>2020-06-03T08:15:43Z</time>
      </trkpt>
      <trkpt lat="46.34752" lon="-1.41712">
        <ele>8.7</ele>
        <time>2020-06-03T08:15:44Z</time>
      </trkpt>
      <trkpt lat="46.34753" lon="-1.41719">
        <ele>8.7</ele>
        <time>2020-06-03T08:15:45Z</time>
      </trkpt>
      <trkpt lat="46.34754" lon="-1.41725">
        <ele>8.7</ele>
        <time>2020-06-03T08:15:46Z</time>
      </trkpt>
      <trkpt lat="46.34755" lon="-1.41731">
        <ele>8.7</ele>
        <time>2020-06-03T08:15:47Z</time>
      </trkpt>
      <trkpt lat="46.34756" lon="-1.41738">
        <ele>8.6</ele>
        <time>2020-06-03T08:15:48Z</time>
      </trkpt>
      <trkpt lat="46.34758" lon="-1.41744">
        <ele>8.6</ele>
        <time>2020-06-03T08:15:49Z</time>
      </trkpt>
      <trkpt lat="46.3476" lon="-1.41751">
        <ele>8.6</ele>
        <time>2020-06-03T08:15:50Z</time>
      </trkpt>
      <trkpt lat="46.34761" lon="-1.41757">
        <ele>8.7</ele>
        <time>2020-06-03T08:15:51Z</time>
      </trkpt>
      <trkpt lat="46.34762" lon="-1.41763">
        <ele>8.7</ele>
        <time>2020-06-03T08:15:52Z</time>
      </trkpt>
      <trkpt lat="46.34764" lon="-1.4177">
        <ele>8.7</ele>
        <time>2020-06-03T08:15:53Z</time>
      </trkpt>
      <trkpt lat="46.34765" lon="-1.41776">
        <ele>8.7</ele>
        <time>2020-06-03T08:15:54Z</time>
      </trkpt>
      <trkpt lat="46.34766" lon="-1.41783">
        <ele>8.7</ele>
        <time>2020-06-03T08:15:55Z</time>
      </trkpt>
      <trkpt lat="46.34768" lon="-1.41789">
        <ele>8.7</ele>
        <time>2020-06-03T08:15:56Z</time>
      </trkpt>
      <trkpt lat="46.3477" lon="-1.41796">
        <ele>8.7</ele>
        <time>2020-06-03T08:15:57Z</time>
      </trkpt>
      <trkpt lat="46.34771" lon="-1.41803">
        <ele>8.7</ele>
        <time>2020-06-03T08:15:58Z</time>
      </trkpt>
      <trkpt lat="46.34773" lon="-1.4181">
        <ele>8.7</ele>
        <time>2020-06-03T08:15:59Z</time>
      </trkpt>
      <trkpt lat="46.34774" lon="-1.41817">
        <ele>8.7</ele>
        <time>2020-06-03T08:16:00Z</time>
      </trkpt>
      <trkpt lat="46.34775" lon="-1.41824">
        <ele>8.7</ele>
        <time>2020-06-03T08:16:01Z</time>
      </trkpt>
      <trkpt lat="46.34777" lon="-1.41831">
        <ele>8.7</ele>
        <time>2020-06-03T08:16:02Z</time>
      </trkpt>
      <trkpt lat="46.34778" lon="-1.41838">
        <ele>8.7</ele>
        <time>2020-06-03T08:16:03Z</time>
      </trkpt>
      <trkpt lat="46.34779" lon="-1.41846">
        <ele>8.7</ele>
        <time>2020-06-03T08:16:04Z</time>
      </trkpt>
      <trkpt lat="46.34781" lon="-1.41852">
        <ele>8.7</ele>
        <time>2020-06-03T08:16:05Z</time>
      </trkpt>
      <trkpt lat="46.34782" lon="-1.41859">
        <ele>8.7</ele>
        <time>2020-06-03T08:16:06Z</time>
      </trkpt>
      <trkpt lat="46.34784" lon="-1.41865">
        <ele>8.7</ele>
        <time>2020-06-03T08:16:07Z</time>
      </trkpt>
      <trkpt lat="46.34785" lon="-1.41872">
        <ele>8.7</ele>
        <time>2020-06-03T08:16:08Z</time>
      </trkpt>
      <trkpt lat="46.34787" lon="-1.41878">
        <ele>8.8</ele>
        <time>2020-06-03T08:16:09Z</time>
      </trkpt>
      <trkpt lat="46.34789" lon="-1.41885">
        <ele>8.8</ele>
        <time>2020-06-03T08:16:10Z</time>
      </trkpt>
      <trkpt lat="46.3479" lon="-1.4189">
        <ele>8.8</ele>
        <time>2020-06-03T08:16:11Z</time>
      </trkpt>
      <trkpt lat="46.34791" lon="-1.41895">
        <ele>8.8</ele>
        <time>2020-06-03T08:16:12Z</time>
      </trkpt>
      <trkpt lat="46.34792" lon="-1.41901">
        <ele>8.8</ele>
        <time>2020-06-03T08:16:13Z</time>
      </trkpt>
      <trkpt lat="46.34794" lon="-1.41907">
        <ele>8.7</ele>
        <time>2020-06-03T08:16:14Z</time>
      </trkpt>
      <trkpt lat="46.34795" lon="-1.41912">
        <ele>8.7</ele>
        <time>2020-06-03T08:16:15Z</time>
      </trkpt>
      <trkpt lat="46.34796" lon="-1.41918">
        <ele>8.7</ele>
        <time>2020-06-03T08:16:16Z</time>
      </trkpt>
      <trkpt lat="46.34797" lon="-1.41925">
        <ele>8.7</ele>
        <time>2020-06-03T08:16:17Z</time>
      </trkpt>
      <trkpt lat="46.34797" lon="-1.41931">
        <ele>8.6</ele>
        <time>2020-06-03T08:16:18Z</time>
      </trkpt>
      <trkpt lat="46.34798" lon="-1.41937">
        <ele>8.6</ele>
        <time>2020-06-03T08:16:19Z</time>
      </trkpt>
      <trkpt lat="46.34799" lon="-1.41944">
        <ele>8.6</ele>
        <time>2020-06-03T08:16:20Z</time>
      </trkpt>
      <trkpt lat="46.34801" lon="-1.41951">
        <ele>8.5</ele>
        <time>2020-06-03T08:16:21Z</time>
      </trkpt>
      <trkpt lat="46.34802" lon="-1.41957">
        <ele>8.5</ele>
        <time>2020-06-03T08:16:22Z</time>
      </trkpt>
      <trkpt lat="46.34803" lon="-1.41964">
        <ele>8.5</ele>
        <time>2020-06-03T08:16:23Z</time>
      </trkpt>
      <trkpt lat="46.34804" lon="-1.41972">
        <ele>8.5</ele>
        <time>2020-06-03T08:16:24Z</time>
      </trkpt>
      <trkpt lat="46.34805" lon="-1.41979">
        <ele>8.5</ele>
        <time>2020-06-03T08:16:25Z</time>
      </trkpt>
      <trkpt lat="46.34807" lon="-1.41985">
        <ele>8.4</ele>
        <time>2020-06-03T08:16:26Z</time>
      </trkpt>
      <trkpt lat="46.34807" lon="-1.41991">
        <ele>8.4</ele>
        <time>2020-06-03T08:16:27Z</time>
      </trkpt>
      <trkpt lat="46.34808" lon="-1.41997">
        <ele>8.4</ele>
        <time>2020-06-03T08:16:28Z</time>
      </trkpt>
      <trkpt lat="46.34809" lon="-1.42003">
        <ele>8.4</ele>
        <time>2020-06-03T08:16:29Z</time>
      </trkpt>
      <trkpt lat="46.3481" lon="-1.4201">
        <ele>8.3</ele>
        <time>2020-06-03T08:16:30Z</time>
      </trkpt>
      <trkpt lat="46.34811" lon="-1.42017">
        <ele>8.3</ele>
        <time>2020-06-03T08:16:31Z</time>
      </trkpt>
      <trkpt lat="46.34812" lon="-1.42023">
        <ele>8.2</ele>
        <time>2020-06-03T08:16:32Z</time>
      </trkpt>
      <trkpt lat="46.34813" lon="-1.42029">
        <ele>8.2</ele>
        <time>2020-06-03T08:16:33Z</time>
      </trkpt>
      <trkpt lat="46.34813" lon="-1.42036">
        <ele>8.2</ele>
        <time>2020-06-03T08:16:34Z</time>
      </trkpt>
      <trkpt lat="46.34814" lon="-1.42042">
        <ele>8.1</ele>
        <time>2020-06-03T08:16:35Z</time>
      </trkpt>
      <trkpt lat="46.34815" lon="-1.42049">
        <ele>8.1</ele>
        <time>2020-06-03T08:16:36Z</time>
      </trkpt>
      <trkpt lat="46.34816" lon="-1.42055">
        <ele>8.1</ele>
        <time>2020-06-03T08:16:37Z</time>
      </trkpt>
      <trkpt lat="46.34817" lon="-1.42062">
        <ele>8.1</ele>
        <time>2020-06-03T08:16:38Z</time>
      </trkpt>
      <trkpt lat="46.34818" lon="-1.42069">
        <ele>8.1</ele>
        <time>2020-06-03T08:16:39Z</time>
      </trkpt>
      <trkpt lat="46.3482" lon="-1.42076">
        <ele>8.1</ele>
        <time>2020-06-03T08:16:40Z</time>
      </trkpt>
      <trkpt lat="46.34821" lon="-1.42083">
        <ele>8.1</ele>
        <time>2020-06-03T08:16:41Z</time>
      </trkpt>
      <trkpt lat="46.34821" lon="-1.42089">
        <ele>8.1</ele>
        <time>2020-06-03T08:16:42Z</time>
      </trkpt>
      <trkpt lat="46.34822" lon="-1.42095">
        <ele>8.1</ele>
        <time>2020-06-03T08:16:43Z</time>
      </trkpt>
      <trkpt lat="46.34824" lon="-1.42102">
        <ele>8.1</ele>
        <time>2020-06-03T08:16:44Z</time>
      </trkpt>
      <trkpt lat="46.34824" lon="-1.42108">
        <ele>8.2</ele>
        <time>2020-06-03T08:16:45Z</time>
      </trkpt>
      <trkpt lat="46.34825" lon="-1.42115">
        <ele>8.2</ele>
        <time>2020-06-03T08:16:46Z</time>
      </trkpt>
      <trkpt lat="46.34825" lon="-1.42122">
        <ele>8.1</ele>
        <time>2020-06-03T08:16:47Z</time>
      </trkpt>
      <trkpt lat="46.34825" lon="-1.42129">
        <ele>8.1</ele>
        <time>2020-06-03T08:16:48Z</time>
      </trkpt>
      <trkpt lat="46.34825" lon="-1.42135">
        <ele>8.1</ele>
        <time>2020-06-03T08:16:49Z</time>
      </trkpt>
      <trkpt lat="46.34825" lon="-1.42142">
        <ele>8.1</ele>
        <time>2020-06-03T08:16:50Z</time>
      </trkpt>
      <trkpt lat="46.34825" lon="-1.42148">
        <ele>8.1</ele>
        <time>2020-06-03T08:16:51Z</time>
      </trkpt>
      <trkpt lat="46.34825" lon="-1.42155">
        <ele>8</ele>
        <time>2020-06-03T08:16:52Z</time>
      </trkpt>
      <trkpt lat="46.34825" lon="-1.42162">
        <ele>8</ele>
        <time>2020-06-03T08:16:53Z</time>
      </trkpt>
      <trkpt lat="46.34825" lon="-1.42168">
        <ele>8</ele>
        <time>2020-06-03T08:16:54Z</time>
      </trkpt>
      <trkpt lat="46.34825" lon="-1.42174">
        <ele>7.9</ele>
        <time>2020-06-03T08:16:55Z</time>
      </trkpt>
      <trkpt lat="46.34825" lon="-1.4218">
        <ele>7.9</ele>
        <time>2020-06-03T08:16:56Z</time>
      </trkpt>
      <trkpt lat="46.34826" lon="-1.42186">
        <ele>7.9</ele>
        <time>2020-06-03T08:16:57Z</time>
      </trkpt>
      <trkpt lat="46.34826" lon="-1.42193">
        <ele>7.9</ele>
        <time>2020-06-03T08:16:58Z</time>
      </trkpt>
      <trkpt lat="46.34827" lon="-1.42199">
        <ele>7.8</ele>
        <time>2020-06-03T08:16:59Z</time>
      </trkpt>
      <trkpt lat="46.34829" lon="-1.42205">
        <ele>7.8</ele>
        <time>2020-06-03T08:17:00Z</time>
      </trkpt>
      <trkpt lat="46.34831" lon="-1.42211">
        <ele>7.8</ele>
        <time>2020-06-03T08:17:01Z</time>
      </trkpt>
      <trkpt lat="46.34833" lon="-1.42218">
        <ele>7.7</ele>
        <time>2020-06-03T08:17:02Z</time>
      </trkpt>
      <trkpt lat="46.34834" lon="-1.42225">
        <ele>7.7</ele>
        <time>2020-06-03T08:17:03Z</time>
      </trkpt>
      <trkpt lat="46.34834" lon="-1.42232">
        <ele>7.7</ele>
        <time>2020-06-03T08:17:04Z</time>
      </trkpt>
      <trkpt lat="46.34835" lon="-1.42241">
        <ele>7.6</ele>
        <time>2020-06-03T08:17:05Z</time>
      </trkpt>
      <trkpt lat="46.34835" lon="-1.42248">
        <ele>7.6</ele>
        <time>2020-06-03T08:17:06Z</time>
      </trkpt>
      <trkpt lat="46.34836" lon="-1.42255">
        <ele>7.6</ele>
        <time>2020-06-03T08:17:07Z</time>
      </trkpt>
      <trkpt lat="46.34836" lon="-1.42263">
        <ele>7.5</ele>
        <time>2020-06-03T08:17:08Z</time>
      </trkpt>
      <trkpt lat="46.34837" lon="-1.4227">
        <ele>7.5</ele>
        <time>2020-06-03T08:17:09Z</time>
      </trkpt>
      <trkpt lat="46.34838" lon="-1.42277">
        <ele>7.5</ele>
        <time>2020-06-03T08:17:10Z</time>
      </trkpt>
      <trkpt lat="46.34839" lon="-1.42284">
        <ele>7.4</ele>
        <time>2020-06-03T08:17:11Z</time>
      </trkpt>
      <trkpt lat="46.3484" lon="-1.42291">
        <ele>7.4</ele>
        <time>2020-06-03T08:17:12Z</time>
      </trkpt>
      <trkpt lat="46.34841" lon="-1.42298">
        <ele>7.3</ele>
        <time>2020-06-03T08:17:13Z</time>
      </trkpt>
      <trkpt lat="46.34842" lon="-1.42306">
        <ele>7.2</ele>
        <time>2020-06-03T08:17:14Z</time>
      </trkpt>
      <trkpt lat="46.34842" lon="-1.42313">
        <ele>7.2</ele>
        <time>2020-06-03T08:17:15Z</time>
      </trkpt>
      <trkpt lat="46.34843" lon="-1.4232">
        <ele>7.1</ele>
        <time>2020-06-03T08:17:16Z</time>
      </trkpt>
      <trkpt lat="46.34844" lon="-1.42326">
        <ele>7.1</ele>
        <time>2020-06-03T08:17:17Z</time>
      </trkpt>
      <trkpt lat="46.34844" lon="-1.42333">
        <ele>7</ele>
        <time>2020-06-03T08:17:18Z</time>
      </trkpt>
      <trkpt lat="46.34845" lon="-1.42339">
        <ele>7</ele>
        <time>2020-06-03T08:17:19Z</time>
      </trkpt>
      <trkpt lat="46.34846" lon="-1.42345">
        <ele>7</ele>
        <time>2020-06-03T08:17:20Z</time>
      </trkpt>
      <trkpt lat="46.34846" lon="-1.42352">
        <ele>6.9</ele>
        <time>2020-06-03T08:17:21Z</time>
      </trkpt>
      <trkpt lat="46.34846" lon="-1.42358">
        <ele>6.9</ele>
        <time>2020-06-03T08:17:22Z</time>
      </trkpt>
      <trkpt lat="46.34848" lon="-1.42364">
        <ele>6.9</ele>
        <time>2020-06-03T08:17:23Z</time>
      </trkpt>
      <trkpt lat="46.34848" lon="-1.4237">
        <ele>6.8</ele>
        <time>2020-06-03T08:17:24Z</time>
      </trkpt>
      <trkpt lat="46.34849" lon="-1.42376">
        <ele>6.8</ele>
        <time>2020-06-03T08:17:25Z</time>
      </trkpt>
      <trkpt lat="46.34849" lon="-1.42382">
        <ele>6.8</ele>
        <time>2020-06-03T08:17:26Z</time>
      </trkpt>
      <trkpt lat="46.34851" lon="-1.42389">
        <ele>6.7</ele>
        <time>2020-06-03T08:17:27Z</time>
      </trkpt>
      <trkpt lat="46.34852" lon="-1.42396">
        <ele>6.7</ele>
        <time>2020-06-03T08:17:28Z</time>
      </trkpt>
      <trkpt lat="46.34853" lon="-1.42403">
        <ele>6.6</ele>
        <time>2020-06-03T08:17:29Z</time>
      </trkpt>
      <trkpt lat="46.34854" lon="-1.42411">
        <ele>6.6</ele>
        <time>2020-06-03T08:17:30Z</time>
      </trkpt>
      <trkpt lat="46.34855" lon="-1.42418">
        <ele>6.5</ele>
        <time>2020-06-03T08:17:31Z</time>
      </trkpt>
      <trkpt lat="46.34856" lon="-1.42426">
        <ele>6.4</ele>
        <time>2020-06-03T08:17:32Z</time>
      </trkpt>
      <trkpt lat="46.34857" lon="-1.42433">
        <ele>6.3</ele>
        <time>2020-06-03T08:17:33Z</time>
      </trkpt>
      <trkpt lat="46.34858" lon="-1.42441">
        <ele>6.2</ele>
        <time>2020-06-03T08:17:34Z</time>
      </trkpt>
      <trkpt lat="46.34859" lon="-1.42448">
        <ele>6.1</ele>
        <time>2020-06-03T08:17:35Z</time>
      </trkpt>
      <trkpt lat="46.3486" lon="-1.42455">
        <ele>6</ele>
        <time>2020-06-03T08:17:36Z</time>
      </trkpt>
      <trkpt lat="46.34861" lon="-1.42462">
        <ele>5.9</ele>
        <time>2020-06-03T08:17:37Z</time>
      </trkpt>
      <trkpt lat="46.34861" lon="-1.42469">
        <ele>5.8</ele>
        <time>2020-06-03T08:17:38Z</time>
      </trkpt>
      <trkpt lat="46.34862" lon="-1.42477">
        <ele>5.8</ele>
        <time>2020-06-03T08:17:39Z</time>
      </trkpt>
      <trkpt lat="46.34863" lon="-1.42484">
        <ele>5.7</ele>
        <time>2020-06-03T08:17:40Z</time>
      </trkpt>
      <trkpt lat="46.34864" lon="-1.42489">
        <ele>5.7</ele>
        <time>2020-06-03T08:17:41Z</time>
      </trkpt>
      <trkpt lat="46.34864" lon="-1.42494">
        <ele>5.7</ele>
        <time>2020-06-03T08:17:42Z</time>
      </trkpt>
      <trkpt lat="46.34865" lon="-1.42499">
        <ele>5.6</ele>
        <time>2020-06-03T08:17:43Z</time>
      </trkpt>
      <trkpt lat="46.34865" lon="-1.42504">
        <ele>5.6</ele>
        <time>2020-06-03T08:17:44Z</time>
      </trkpt>
      <trkpt lat="46.34866" lon="-1.42509">
        <ele>5.6</ele>
        <time>2020-06-03T08:17:45Z</time>
      </trkpt>
      <trkpt lat="46.34867" lon="-1.42511">
        <ele>5.6</ele>
        <time>2020-06-03T08:17:46Z</time>
      </trkpt>
      <trkpt lat="46.34868" lon="-1.42511">
        <ele>5.6</ele>
        <time>2020-06-03T08:17:47Z</time>
      </trkpt>
      <trkpt lat="46.34869" lon="-1.42512">
        <ele>5.6</ele>
        <time>2020-06-03T08:17:48Z</time>
      </trkpt>
      <trkpt lat="46.3487" lon="-1.42513">
        <ele>5.6</ele>
        <time>2020-06-03T08:17:49Z</time>
      </trkpt>
      <trkpt lat="46.34871" lon="-1.42513">
        <ele>5.6</ele>
        <time>2020-06-03T08:17:50Z</time>
      </trkpt>
      <trkpt lat="46.34872" lon="-1.42514">
        <ele>5.6</ele>
        <time>2020-06-03T08:17:51Z</time>
      </trkpt>
      <trkpt lat="46.34873" lon="-1.42513">
        <ele>5.5</ele>
        <time>2020-06-03T08:17:52Z</time>
      </trkpt>
      <trkpt lat="46.34874" lon="-1.42512">
        <ele>5.5</ele>
        <time>2020-06-03T08:17:53Z</time>
      </trkpt>
      <trkpt lat="46.34875" lon="-1.42512">
        <ele>5.4</ele>
        <time>2020-06-03T08:17:54Z</time>
      </trkpt>
      <trkpt lat="46.34876" lon="-1.42512">
        <ele>5.4</ele>
        <time>2020-06-03T08:17:55Z</time>
      </trkpt>
      <trkpt lat="46.34877" lon="-1.42511">
        <ele>5.4</ele>
        <time>2020-06-03T08:17:56Z</time>
      </trkpt>
      <trkpt lat="46.34879" lon="-1.4251">
        <ele>5.3</ele>
        <time>2020-06-03T08:17:57Z</time>
      </trkpt>
      <trkpt lat="46.3488" lon="-1.42509">
        <ele>5.3</ele>
        <time>2020-06-03T08:17:58Z</time>
      </trkpt>
      <trkpt lat="46.34882" lon="-1.42508">
        <ele>5.3</ele>
        <time>2020-06-03T08:17:59Z</time>
      </trkpt>
      <trkpt lat="46.34885" lon="-1.42508">
        <ele>5.2</ele>
        <time>2020-06-03T08:18:00Z</time>
      </trkpt>
      <trkpt lat="46.34886" lon="-1.42507">
        <ele>5.2</ele>
        <time>2020-06-03T08:18:01Z</time>
      </trkpt>
      <trkpt lat="46.3489" lon="-1.42507">
        <ele>5.1</ele>
        <time>2020-06-03T08:18:02Z</time>
      </trkpt>
      <trkpt lat="46.34891" lon="-1.42506">
        <ele>5</ele>
        <time>2020-06-03T08:18:03Z</time>
      </trkpt>
      <trkpt lat="46.34894" lon="-1.42505">
        <ele>5</ele>
        <time>2020-06-03T08:18:04Z</time>
      </trkpt>
      <trkpt lat="46.34897" lon="-1.42503">
        <ele>4.9</ele>
        <time>2020-06-03T08:18:05Z</time>
      </trkpt>
      <trkpt lat="46.34898" lon="-1.42503">
        <ele>4.9</ele>
        <time>2020-06-03T08:18:06Z</time>
      </trkpt>
      <trkpt lat="46.349" lon="-1.42502">
        <ele>4.8</ele>
        <time>2020-06-03T08:18:07Z</time>
      </trkpt>
      <trkpt lat="46.34901" lon="-1.42502">
        <ele>4.8</ele>
        <time>2020-06-03T08:18:08Z</time>
      </trkpt>
      <trkpt lat="46.34903" lon="-1.42502">
        <ele>4.7</ele>
        <time>2020-06-03T08:18:09Z</time>
      </trkpt>
      <trkpt lat="46.34904" lon="-1.42502">
        <ele>4.7</ele>
        <time>2020-06-03T08:18:10Z</time>
      </trkpt>
      <trkpt lat="46.34905" lon="-1.42503">
        <ele>4.7</ele>
        <time>2020-06-03T08:18:11Z</time>
      </trkpt>
      <trkpt lat="46.34906" lon="-1.42503">
        <ele>4.6</ele>
        <time>2020-06-03T08:18:12Z</time>
      </trkpt>
      <trkpt lat="46.34907" lon="-1.42502">
        <ele>4.6</ele>
        <time>2020-06-03T08:18:13Z</time>
      </trkpt>
      <trkpt lat="46.34907" lon="-1.42503">
        <ele>4.6</ele>
        <time>2020-06-03T08:18:14Z</time>
      </trkpt>
      <trkpt lat="46.34908" lon="-1.42504">
        <ele>4.6</ele>
        <time>2020-06-03T08:18:15Z</time>
      </trkpt>
      <trkpt lat="46.3491" lon="-1.42508">
        <ele>4.6</ele>
        <time>2020-06-03T08:18:16Z</time>
      </trkpt>
      <trkpt lat="46.34911" lon="-1.4251">
        <ele>4.5</ele>
        <time>2020-06-03T08:18:17Z</time>
      </trkpt>
      <trkpt lat="46.34912" lon="-1.42516">
        <ele>4.5</ele>
        <time>2020-06-03T08:18:18Z</time>
      </trkpt>
      <trkpt lat="46.34913" lon="-1.42523">
        <ele>4.4</ele>
        <time>2020-06-03T08:18:19Z</time>
      </trkpt>
      <trkpt lat="46.34915" lon="-1.42531">
        <ele>4.3</ele>
        <time>2020-06-03T08:18:20Z</time>
      </trkpt>
      <trkpt lat="46.34917" lon="-1.42539">
        <ele>4.2</ele>
        <time>2020-06-03T08:18:21Z</time>
      </trkpt>
      <trkpt lat="46.34919" lon="-1.42546">
        <ele>4.1</ele>
        <time>2020-06-03T08:18:22Z</time>
      </trkpt>
      <trkpt lat="46.34921" lon="-1.42555">
        <ele>4</ele>
        <time>2020-06-03T08:18:23Z</time>
      </trkpt>
      <trkpt lat="46.34923" lon="-1.42562">
        <ele>3.9</ele>
        <time>2020-06-03T08:18:24Z</time>
      </trkpt>
      <trkpt lat="46.34925" lon="-1.42569">
        <ele>3.8</ele>
        <time>2020-06-03T08:18:25Z</time>
      </trkpt>
      <trkpt lat="46.34927" lon="-1.42574">
        <ele>3.7</ele>
        <time>2020-06-03T08:18:26Z</time>
      </trkpt>
      <trkpt lat="46.34929" lon="-1.4258">
        <ele>3.7</ele>
        <time>2020-06-03T08:18:27Z</time>
      </trkpt>
      <trkpt lat="46.34932" lon="-1.42585">
        <ele>3.6</ele>
        <time>2020-06-03T08:18:28Z</time>
      </trkpt>
      <trkpt lat="46.34935" lon="-1.42589">
        <ele>3.6</ele>
        <time>2020-06-03T08:18:29Z</time>
      </trkpt>
      <trkpt lat="46.34939" lon="-1.42591">
        <ele>3.5</ele>
        <time>2020-06-03T08:18:30Z</time>
      </trkpt>
      <trkpt lat="46.34944" lon="-1.42593">
        <ele>3.4</ele>
        <time>2020-06-03T08:18:31Z</time>
      </trkpt>
      <trkpt lat="46.34949" lon="-1.42595">
        <ele>3.3</ele>
        <time>2020-06-03T08:18:32Z</time>
      </trkpt>
      <trkpt lat="46.34955" lon="-1.42596">
        <ele>3.2</ele>
        <time>2020-06-03T08:18:33Z</time>
      </trkpt>
      <trkpt lat="46.34961" lon="-1.42596">
        <ele>3.1</ele>
        <time>2020-06-03T08:18:34Z</time>
      </trkpt>
      <trkpt lat="46.34966" lon="-1.42597">
        <ele>3.1</ele>
        <time>2020-06-03T08:18:35Z</time>
      </trkpt>
      <trkpt lat="46.34973" lon="-1.42597">
        <ele>3</ele>
        <time>2020-06-03T08:18:36Z</time>
      </trkpt>
      <trkpt lat="46.34979" lon="-1.42596">
        <ele>2.9</ele>
        <time>2020-06-03T08:18:37Z</time>
      </trkpt>
      <trkpt lat="46.34984" lon="-1.42594">
        <ele>2.8</ele>
        <time>2020-06-03T08:18:38Z</time>
      </trkpt>
      <trkpt lat="46.34989" lon="-1.42591">
        <ele>2.7</ele>
        <time>2020-06-03T08:18:39Z</time>
      </trkpt>
      <trkpt lat="46.34994" lon="-1.42592">
        <ele>2.7</ele>
        <time>2020-06-03T08:18:40Z</time>
      </trkpt>
      <trkpt lat="46.34999" lon="-1.42595">
        <ele>2.7</ele>
        <time>2020-06-03T08:18:41Z</time>
      </trkpt>
      <trkpt lat="46.35004" lon="-1.42597">
        <ele>2.7</ele>
        <time>2020-06-03T08:18:42Z</time>
      </trkpt>
      <trkpt lat="46.35009" lon="-1.42599">
        <ele>2.7</ele>
        <time>2020-06-03T08:18:43Z</time>
      </trkpt>
      <trkpt lat="46.35014" lon="-1.42602">
        <ele>2.7</ele>
        <time>2020-06-03T08:18:44Z</time>
      </trkpt>
      <trkpt lat="46.35018" lon="-1.42604">
        <ele>2.8</ele>
        <time>2020-06-03T08:18:45Z</time>
      </trkpt>
      <trkpt lat="46.35023" lon="-1.42607">
        <ele>2.8</ele>
        <time>2020-06-03T08:18:46Z</time>
      </trkpt>
      <trkpt lat="46.35027" lon="-1.42611">
        <ele>2.8</ele>
        <time>2020-06-03T08:18:47Z</time>
      </trkpt>
      <trkpt lat="46.35032" lon="-1.42617">
        <ele>2.8</ele>
        <time>2020-06-03T08:18:48Z</time>
      </trkpt>
      <trkpt lat="46.35037" lon="-1.42623">
        <ele>2.8</ele>
        <time>2020-06-03T08:18:49Z</time>
      </trkpt>
      <trkpt lat="46.35042" lon="-1.42628">
        <ele>2.8</ele>
        <time>2020-06-03T08:18:50Z</time>
      </trkpt>
      <trkpt lat="46.35047" lon="-1.42633">
        <ele>2.9</ele>
        <time>2020-06-03T08:18:51Z</time>
      </trkpt>
      <trkpt lat="46.35052" lon="-1.42638">
        <ele>2.9</ele>
        <time>2020-06-03T08:18:52Z</time>
      </trkpt>
      <trkpt lat="46.35056" lon="-1.42643">
        <ele>2.9</ele>
        <time>2020-06-03T08:18:53Z</time>
      </trkpt>
      <trkpt lat="46.3506" lon="-1.42648">
        <ele>2.9</ele>
        <time>2020-06-03T08:18:54Z</time>
      </trkpt>
      <trkpt lat="46.35063" lon="-1.42652">
        <ele>2.9</ele>
        <time>2020-06-03T08:18:55Z</time>
      </trkpt>
      <trkpt lat="46.35066" lon="-1.42657">
        <ele>2.9</ele>
        <time>2020-06-03T08:18:56Z</time>
      </trkpt>
      <trkpt lat="46.35069" lon="-1.42661">
        <ele>2.9</ele>
        <time>2020-06-03T08:18:57Z</time>
      </trkpt>
      <trkpt lat="46.35071" lon="-1.42665">
        <ele>2.9</ele>
        <time>2020-06-03T08:18:58Z</time>
      </trkpt>
      <trkpt lat="46.35074" lon="-1.42669">
        <ele>3</ele>
        <time>2020-06-03T08:18:59Z</time>
      </trkpt>
      <trkpt lat="46.35077" lon="-1.42673">
        <ele>3</ele>
        <time>2020-06-03T08:19:00Z</time>
      </trkpt>
      <trkpt lat="46.3508" lon="-1.42677">
        <ele>3</ele>
        <time>2020-06-03T08:19:01Z</time>
      </trkpt>
      <trkpt lat="46.35083" lon="-1.42683">
        <ele>3</ele>
        <time>2020-06-03T08:19:02Z</time>
      </trkpt>
      <trkpt lat="46.35086" lon="-1.42689">
        <ele>3</ele>
        <time>2020-06-03T08:19:03Z</time>
      </trkpt>
      <trkpt lat="46.35089" lon="-1.42695">
        <ele>3.1</ele>
        <time>2020-06-03T08:19:04Z</time>
      </trkpt>
      <trkpt lat="46.35092" lon="-1.42701">
        <ele>3.1</ele>
        <time>2020-06-03T08:19:05Z</time>
      </trkpt>
      <trkpt lat="46.35095" lon="-1.42706">
        <ele>3.1</ele>
        <time>2020-06-03T08:19:06Z</time>
      </trkpt>
      <trkpt lat="46.35099" lon="-1.42711">
        <ele>3.1</ele>
        <time>2020-06-03T08:19:07Z</time>
      </trkpt>
      <trkpt lat="46.35102" lon="-1.42717">
        <ele>3.1</ele>
        <time>2020-06-03T08:19:08Z</time>
      </trkpt>
      <trkpt lat="46.35106" lon="-1.42723">
        <ele>3.1</ele>
        <time>2020-06-03T08:19:09Z</time>
      </trkpt>
      <trkpt lat="46.35109" lon="-1.42729">
        <ele>3.1</ele>
        <time>2020-06-03T08:19:10Z</time>
      </trkpt>
      <trkpt lat="46.35111" lon="-1.42734">
        <ele>3.2</ele>
        <time>2020-06-03T08:19:11Z</time>
      </trkpt>
      <trkpt lat="46.35115" lon="-1.42741">
        <ele>3.2</ele>
        <time>2020-06-03T08:19:12Z</time>
      </trkpt>
      <trkpt lat="46.35119" lon="-1.42748">
        <ele>3.2</ele>
        <time>2020-06-03T08:19:13Z</time>
      </trkpt>
      <trkpt lat="46.35122" lon="-1.42754">
        <ele>3.2</ele>
        <time>2020-06-03T08:19:14Z</time>
      </trkpt>
      <trkpt lat="46.35126" lon="-1.42761">
        <ele>3.2</ele>
        <time>2020-06-03T08:19:15Z</time>
      </trkpt>
      <trkpt lat="46.35129" lon="-1.42768">
        <ele>3.2</ele>
        <time>2020-06-03T08:19:16Z</time>
      </trkpt>
      <trkpt lat="46.35132" lon="-1.42775">
        <ele>3.3</ele>
        <time>2020-06-03T08:19:17Z</time>
      </trkpt>
      <trkpt lat="46.35135" lon="-1.42782">
        <ele>3.3</ele>
        <time>2020-06-03T08:19:18Z</time>
      </trkpt>
      <trkpt lat="46.35139" lon="-1.42789">
        <ele>3.3</ele>
        <time>2020-06-03T08:19:19Z</time>
      </trkpt>
      <trkpt lat="46.35143" lon="-1.42796">
        <ele>3.3</ele>
        <time>2020-06-03T08:19:20Z</time>
      </trkpt>
      <trkpt lat="46.35146" lon="-1.42802">
        <ele>3.3</ele>
        <time>2020-06-03T08:19:21Z</time>
      </trkpt>
      <trkpt lat="46.35149" lon="-1.42807">
        <ele>3.3</ele>
        <time>2020-06-03T08:19:22Z</time>
      </trkpt>
      <trkpt lat="46.35153" lon="-1.42811">
        <ele>3.3</ele>
        <time>2020-06-03T08:19:23Z</time>
      </trkpt>
      <trkpt lat="46.35157" lon="-1.42816">
        <ele>3.3</ele>
        <time>2020-06-03T08:19:24Z</time>
      </trkpt>
      <trkpt lat="46.35161" lon="-1.4282">
        <ele>3.3</ele>
        <time>2020-06-03T08:19:25Z</time>
      </trkpt>
      <trkpt lat="46.35164" lon="-1.42825">
        <ele>3.3</ele>
        <time>2020-06-03T08:19:26Z</time>
      </trkpt>
      <trkpt lat="46.35167" lon="-1.42829">
        <ele>3.3</ele>
        <time>2020-06-03T08:19:27Z</time>
      </trkpt>
      <trkpt lat="46.35171" lon="-1.42834">
        <ele>3.3</ele>
        <time>2020-06-03T08:19:28Z</time>
      </trkpt>
      <trkpt lat="46.35175" lon="-1.42839">
        <ele>3.2</ele>
        <time>2020-06-03T08:19:29Z</time>
      </trkpt>
      <trkpt lat="46.35179" lon="-1.42843">
        <ele>3.2</ele>
        <time>2020-06-03T08:19:30Z</time>
      </trkpt>
      <trkpt lat="46.35183" lon="-1.42846">
        <ele>3.2</ele>
        <time>2020-06-03T08:19:31Z</time>
      </trkpt>
      <trkpt lat="46.35186" lon="-1.42849">
        <ele>3.2</ele>
        <time>2020-06-03T08:19:32Z</time>
      </trkpt>
      <trkpt lat="46.3519" lon="-1.42852">
        <ele>3.2</ele>
        <time>2020-06-03T08:19:33Z</time>
      </trkpt>
      <trkpt lat="46.35195" lon="-1.42855">
        <ele>3.2</ele>
        <time>2020-06-03T08:19:34Z</time>
      </trkpt>
      <trkpt lat="46.352" lon="-1.42859">
        <ele>3.1</ele>
        <time>2020-06-03T08:19:35Z</time>
      </trkpt>
      <trkpt lat="46.35205" lon="-1.42863">
        <ele>3</ele>
        <time>2020-06-03T08:19:36Z</time>
      </trkpt>
      <trkpt lat="46.3521" lon="-1.42867">
        <ele>2.9</ele>
        <time>2020-06-03T08:19:37Z</time>
      </trkpt>
      <trkpt lat="46.35215" lon="-1.42873">
        <ele>2.8</ele>
        <time>2020-06-03T08:19:38Z</time>
      </trkpt>
      <trkpt lat="46.35219" lon="-1.42879">
        <ele>2.7</ele>
        <time>2020-06-03T08:19:39Z</time>
      </trkpt>
      <trkpt lat="46.35222" lon="-1.42885">
        <ele>2.6</ele>
        <time>2020-06-03T08:19:40Z</time>
      </trkpt>
      <trkpt lat="46.35224" lon="-1.42892">
        <ele>2.6</ele>
        <time>2020-06-03T08:19:41Z</time>
      </trkpt>
      <trkpt lat="46.35225" lon="-1.42899">
        <ele>2.5</ele>
        <time>2020-06-03T08:19:42Z</time>
      </trkpt>
      <trkpt lat="46.35227" lon="-1.42906">
        <ele>2.5</ele>
        <time>2020-06-03T08:19:43Z</time>
      </trkpt>
      <trkpt lat="46.35227" lon="-1.42913">
        <ele>2.5</ele>
        <time>2020-06-03T08:19:44Z</time>
      </trkpt>
      <trkpt lat="46.35227" lon="-1.4292">
        <ele>2.5</ele>
        <time>2020-06-03T08:19:45Z</time>
      </trkpt>
      <trkpt lat="46.35227" lon="-1.42926">
        <ele>2.5</ele>
        <time>2020-06-03T08:19:46Z</time>
      </trkpt>
      <trkpt lat="46.35227" lon="-1.42933">
        <ele>2.6</ele>
        <time>2020-06-03T08:19:47Z</time>
      </trkpt>
      <trkpt lat="46.35228" lon="-1.42938">
        <ele>2.6</ele>
        <time>2020-06-03T08:19:48Z</time>
      </trkpt>
      <trkpt lat="46.35229" lon="-1.42945">
        <ele>2.6</ele>
        <time>2020-06-03T08:19:49Z</time>
      </trkpt>
      <trkpt lat="46.3523" lon="-1.42951">
        <ele>2.7</ele>
        <time>2020-06-03T08:19:50Z</time>
      </trkpt>
      <trkpt lat="46.35231" lon="-1.42957">
        <ele>2.7</ele>
        <time>2020-06-03T08:19:51Z</time>
      </trkpt>
      <trkpt lat="46.35232" lon="-1.42963">
        <ele>2.8</ele>
        <time>2020-06-03T08:19:52Z</time>
      </trkpt>
      <trkpt lat="46.35233" lon="-1.4297">
        <ele>2.8</ele>
        <time>2020-06-03T08:19:53Z</time>
      </trkpt>
      <trkpt lat="46.35235" lon="-1.42977">
        <ele>2.9</ele>
        <time>2020-06-03T08:19:54Z</time>
      </trkpt>
      <trkpt lat="46.35237" lon="-1.42983">
        <ele>2.9</ele>
        <time>2020-06-03T08:19:55Z</time>
      </trkpt>
      <trkpt lat="46.35238" lon="-1.42991">
        <ele>2.9</ele>
        <time>2020-06-03T08:19:56Z</time>
      </trkpt>
      <trkpt lat="46.35238" lon="-1.42998">
        <ele>2.9</ele>
        <time>2020-06-03T08:19:57Z</time>
      </trkpt>
      <trkpt lat="46.35239" lon="-1.43006">
        <ele>2.9</ele>
        <time>2020-06-03T08:19:58Z</time>
      </trkpt>
      <trkpt lat="46.3524" lon="-1.43013">
        <ele>2.9</ele>
        <time>2020-06-03T08:19:59Z</time>
      </trkpt>
      <trkpt lat="46.35241" lon="-1.43021">
        <ele>3</ele>
        <time>2020-06-03T08:20:00Z</time>
      </trkpt>
      <trkpt lat="46.35242" lon="-1.43029">
        <ele>3</ele>
        <time>2020-06-03T08:20:01Z</time>
      </trkpt>
      <trkpt lat="46.35243" lon="-1.43037">
        <ele>3</ele>
        <time>2020-06-03T08:20:02Z</time>
      </trkpt>
      <trkpt lat="46.35244" lon="-1.43044">
        <ele>3</ele>
        <time>2020-06-03T08:20:03Z</time>
      </trkpt>
      <trkpt lat="46.35246" lon="-1.4305">
        <ele>3</ele>
        <time>2020-06-03T08:20:04Z</time>
      </trkpt>
      <trkpt lat="46.35248" lon="-1.43057">
        <ele>3.1</ele>
        <time>2020-06-03T08:20:05Z</time>
      </trkpt>
      <trkpt lat="46.3525" lon="-1.43064">
        <ele>3.1</ele>
        <time>2020-06-03T08:20:06Z</time>
      </trkpt>
      <trkpt lat="46.35252" lon="-1.43069">
        <ele>3.1</ele>
        <time>2020-06-03T08:20:07Z</time>
      </trkpt>
      <trkpt lat="46.35252" lon="-1.43074">
        <ele>3.1</ele>
        <time>2020-06-03T08:20:08Z</time>
      </trkpt>
      <trkpt lat="46.35251" lon="-1.43074">
        <ele>3.1</ele>
        <time>2020-06-03T08:20:09Z</time>
      </trkpt>
      <trkpt lat="46.35251" lon="-1.43073">
        <ele>3.1</ele>
        <time>2020-06-03T08:20:10Z</time>
      </trkpt>
      <trkpt lat="46.35251" lon="-1.43072">
        <ele>3.1</ele>
        <time>2020-06-03T08:20:11Z</time>
      </trkpt>
      <trkpt lat="46.3525" lon="-1.43071">
        <ele>3.1</ele>
        <time>2020-06-03T08:20:12Z</time>
      </trkpt>
      <trkpt lat="46.35247" lon="-1.43073">
        <ele>3.1</ele>
        <time>2020-06-03T08:20:13Z</time>
      </trkpt>
      <trkpt lat="46.35246" lon="-1.43074">
        <ele>3.1</ele>
        <time>2020-06-03T08:20:14Z</time>
      </trkpt>
      <trkpt lat="46.35245" lon="-1.43077">
        <ele>3.1</ele>
        <time>2020-06-03T08:20:15Z</time>
      </trkpt>
      <trkpt lat="46.35244" lon="-1.43081">
        <ele>3.1</ele>
        <time>2020-06-03T08:20:16Z</time>
      </trkpt>
      <trkpt lat="46.35244" lon="-1.43087">
        <ele>3.1</ele>
        <time>2020-06-03T08:20:17Z</time>
      </trkpt>
      <trkpt lat="46.35245" lon="-1.43093">
        <ele>3.1</ele>
        <time>2020-06-03T08:20:18Z</time>
      </trkpt>
      <trkpt lat="46.35247" lon="-1.43099">
        <ele>3.1</ele>
        <time>2020-06-03T08:20:19Z</time>
      </trkpt>
      <trkpt lat="46.35248" lon="-1.43104">
        <ele>3.1</ele>
        <time>2020-06-03T08:20:20Z</time>
      </trkpt>
      <trkpt lat="46.35251" lon="-1.4311">
        <ele>3.1</ele>
        <time>2020-06-03T08:20:21Z</time>
      </trkpt>
      <trkpt lat="46.35254" lon="-1.43117">
        <ele>3.2</ele>
        <time>2020-06-03T08:20:22Z</time>
      </trkpt>
      <trkpt lat="46.35256" lon="-1.43123">
        <ele>3.2</ele>
        <time>2020-06-03T08:20:23Z</time>
      </trkpt>
      <trkpt lat="46.35259" lon="-1.4313">
        <ele>3.3</ele>
        <time>2020-06-03T08:20:24Z</time>
      </trkpt>
      <trkpt lat="46.35259" lon="-1.43137">
        <ele>3.3</ele>
        <time>2020-06-03T08:20:25Z</time>
      </trkpt>
      <trkpt lat="46.3526" lon="-1.43144">
        <ele>3.3</ele>
        <time>2020-06-03T08:20:26Z</time>
      </trkpt>
      <trkpt lat="46.35261" lon="-1.43148">
        <ele>3.3</ele>
        <time>2020-06-03T08:20:27Z</time>
      </trkpt>
      <trkpt lat="46.35264" lon="-1.43153">
        <ele>3.3</ele>
        <time>2020-06-03T08:20:28Z</time>
      </trkpt>
      <trkpt lat="46.35268" lon="-1.43158">
        <ele>3.3</ele>
        <time>2020-06-03T08:20:29Z</time>
      </trkpt>
      <trkpt lat="46.35272" lon="-1.43164">
        <ele>3.3</ele>
        <time>2020-06-03T08:20:30Z</time>
      </trkpt>
      <trkpt lat="46.35276" lon="-1.43171">
        <ele>3.3</ele>
        <time>2020-06-03T08:20:31Z</time>
      </trkpt>
      <trkpt lat="46.35278" lon="-1.43175">
        <ele>3.3</ele>
        <time>2020-06-03T08:20:32Z</time>
      </trkpt>
      <trkpt lat="46.35281" lon="-1.43181">
        <ele>3.4</ele>
        <time>2020-06-03T08:20:33Z</time>
      </trkpt>
      <trkpt lat="46.35284" lon="-1.43187">
        <ele>3.4</ele>
        <time>2020-06-03T08:20:34Z</time>
      </trkpt>
      <trkpt lat="46.35286" lon="-1.43194">
        <ele>3.4</ele>
        <time>2020-06-03T08:20:35Z</time>
      </trkpt>
      <trkpt lat="46.35289" lon="-1.432">
        <ele>3.5</ele>
        <time>2020-06-03T08:20:36Z</time>
      </trkpt>
      <trkpt lat="46.35292" lon="-1.43207">
        <ele>3.5</ele>
        <time>2020-06-03T08:20:37Z</time>
      </trkpt>
      <trkpt lat="46.35295" lon="-1.43214">
        <ele>3.5</ele>
        <time>2020-06-03T08:20:38Z</time>
      </trkpt>
      <trkpt lat="46.35299" lon="-1.43222">
        <ele>3.5</ele>
        <time>2020-06-03T08:20:39Z</time>
      </trkpt>
      <trkpt lat="46.35301" lon="-1.43228">
        <ele>3.6</ele>
        <time>2020-06-03T08:20:40Z</time>
      </trkpt>
      <trkpt lat="46.35304" lon="-1.43234">
        <ele>3.6</ele>
        <time>2020-06-03T08:20:41Z</time>
      </trkpt>
      <trkpt lat="46.35307" lon="-1.43239">
        <ele>3.6</ele>
        <time>2020-06-03T08:20:42Z</time>
      </trkpt>
      <trkpt lat="46.35309" lon="-1.43245">
        <ele>3.6</ele>
        <time>2020-06-03T08:20:43Z</time>
      </trkpt>
      <trkpt lat="46.35312" lon="-1.43251">
        <ele>3.6</ele>
        <time>2020-06-03T08:20:44Z</time>
      </trkpt>
      <trkpt lat="46.35314" lon="-1.43257">
        <ele>3.6</ele>
        <time>2020-06-03T08:20:45Z</time>
      </trkpt>
      <trkpt lat="46.35317" lon="-1.43263">
        <ele>3.6</ele>
        <time>2020-06-03T08:20:46Z</time>
      </trkpt>
      <trkpt lat="46.35319" lon="-1.43269">
        <ele>3.6</ele>
        <time>2020-06-03T08:20:47Z</time>
      </trkpt>
      <trkpt lat="46.35322" lon="-1.43277">
        <ele>3.6</ele>
        <time>2020-06-03T08:20:48Z</time>
      </trkpt>
      <trkpt lat="46.35324" lon="-1.43284">
        <ele>3.6</ele>
        <time>2020-06-03T08:20:49Z</time>
      </trkpt>
      <trkpt lat="46.35327" lon="-1.43292">
        <ele>3.6</ele>
        <time>2020-06-03T08:20:50Z</time>
      </trkpt>
      <trkpt lat="46.3533" lon="-1.43298">
        <ele>3.6</ele>
        <time>2020-06-03T08:20:51Z</time>
      </trkpt>
      <trkpt lat="46.35332" lon="-1.43305">
        <ele>3.6</ele>
        <time>2020-06-03T08:20:52Z</time>
      </trkpt>
      <trkpt lat="46.35335" lon="-1.43312">
        <ele>3.6</ele>
        <time>2020-06-03T08:20:53Z</time>
      </trkpt>
      <trkpt lat="46.35338" lon="-1.4332">
        <ele>3.6</ele>
        <time>2020-06-03T08:20:54Z</time>
      </trkpt>
      <trkpt lat="46.35341" lon="-1.43327">
        <ele>3.7</ele>
        <time>2020-06-03T08:20:55Z</time>
      </trkpt>
      <trkpt lat="46.35344" lon="-1.43333">
        <ele>3.7</ele>
        <time>2020-06-03T08:20:56Z</time>
      </trkpt>
      <trkpt lat="46.35347" lon="-1.43341">
        <ele>3.7</ele>
        <time>2020-06-03T08:20:57Z</time>
      </trkpt>
      <trkpt lat="46.3535" lon="-1.43347">
        <ele>3.7</ele>
        <time>2020-06-03T08:20:58Z</time>
      </trkpt>
      <trkpt lat="46.35353" lon="-1.43355">
        <ele>3.7</ele>
        <time>2020-06-03T08:20:59Z</time>
      </trkpt>
      <trkpt lat="46.35356" lon="-1.43362">
        <ele>3.7</ele>
        <time>2020-06-03T08:21:00Z</time>
      </trkpt>
      <trkpt lat="46.35358" lon="-1.43368">
        <ele>3.6</ele>
        <time>2020-06-03T08:21:01Z</time>
      </trkpt>
      <trkpt lat="46.35362" lon="-1.43375">
        <ele>3.6</ele>
        <time>2020-06-03T08:21:02Z</time>
      </trkpt>
      <trkpt lat="46.35365" lon="-1.43381">
        <ele>3.6</ele>
        <time>2020-06-03T08:21:03Z</time>
      </trkpt>
      <trkpt lat="46.35368" lon="-1.43386">
        <ele>3.6</ele>
        <time>2020-06-03T08:21:04Z</time>
      </trkpt>
      <trkpt lat="46.3537" lon="-1.43393">
        <ele>3.6</ele>
        <time>2020-06-03T08:21:05Z</time>
      </trkpt>
      <trkpt lat="46.35373" lon="-1.434">
        <ele>3.6</ele>
        <time>2020-06-03T08:21:06Z</time>
      </trkpt>
      <trkpt lat="46.35375" lon="-1.43406">
        <ele>3.6</ele>
        <time>2020-06-03T08:21:07Z</time>
      </trkpt>
      <trkpt lat="46.35377" lon="-1.43413">
        <ele>3.6</ele>
        <time>2020-06-03T08:21:08Z</time>
      </trkpt>
      <trkpt lat="46.3538" lon="-1.4342">
        <ele>3.6</ele>
        <time>2020-06-03T08:21:09Z</time>
      </trkpt>
      <trkpt lat="46.35383" lon="-1.43426">
        <ele>3.6</ele>
        <time>2020-06-03T08:21:10Z</time>
      </trkpt>
      <trkpt lat="46.35385" lon="-1.43433">
        <ele>3.6</ele>
        <time>2020-06-03T08:21:11Z</time>
      </trkpt>
      <trkpt lat="46.35388" lon="-1.4344">
        <ele>3.6</ele>
        <time>2020-06-03T08:21:12Z</time>
      </trkpt>
      <trkpt lat="46.35391" lon="-1.43447">
        <ele>3.6</ele>
        <time>2020-06-03T08:21:13Z</time>
      </trkpt>
      <trkpt lat="46.35394" lon="-1.43453">
        <ele>3.6</ele>
        <time>2020-06-03T08:21:14Z</time>
      </trkpt>
      <trkpt lat="46.35396" lon="-1.43459">
        <ele>3.6</ele>
        <time>2020-06-03T08:21:15Z</time>
      </trkpt>
      <trkpt lat="46.35398" lon="-1.43466">
        <ele>3.6</ele>
        <time>2020-06-03T08:21:16Z</time>
      </trkpt>
      <trkpt lat="46.35401" lon="-1.43471">
        <ele>3.6</ele>
        <time>2020-06-03T08:21:17Z</time>
      </trkpt>
      <trkpt lat="46.35404" lon="-1.43477">
        <ele>3.6</ele>
        <time>2020-06-03T08:21:18Z</time>
      </trkpt>
      <trkpt lat="46.35406" lon="-1.43483">
        <ele>3.6</ele>
        <time>2020-06-03T08:21:19Z</time>
      </trkpt>
      <trkpt lat="46.35409" lon="-1.4349">
        <ele>3.6</ele>
        <time>2020-06-03T08:21:20Z</time>
      </trkpt>
      <trkpt lat="46.3541" lon="-1.43496">
        <ele>3.6</ele>
        <time>2020-06-03T08:21:21Z</time>
      </trkpt>
      <trkpt lat="46.35413" lon="-1.43502">
        <ele>3.6</ele>
        <time>2020-06-03T08:21:22Z</time>
      </trkpt>
      <trkpt lat="46.35415" lon="-1.43509">
        <ele>3.6</ele>
        <time>2020-06-03T08:21:23Z</time>
      </trkpt>
      <trkpt lat="46.35416" lon="-1.43515">
        <ele>3.6</ele>
        <time>2020-06-03T08:21:24Z</time>
      </trkpt>
      <trkpt lat="46.35418" lon="-1.43522">
        <ele>3.6</ele>
        <time>2020-06-03T08:21:25Z</time>
      </trkpt>
      <trkpt lat="46.35422" lon="-1.43529">
        <ele>3.6</ele>
        <time>2020-06-03T08:21:26Z</time>
      </trkpt>
      <trkpt lat="46.35425" lon="-1.43536">
        <ele>3.6</ele>
        <time>2020-06-03T08:21:27Z</time>
      </trkpt>
      <trkpt lat="46.35426" lon="-1.43543">
        <ele>3.6</ele>
        <time>2020-06-03T08:21:28Z</time>
      </trkpt>
      <trkpt lat="46.35429" lon="-1.4355">
        <ele>3.6</ele>
        <time>2020-06-03T08:21:29Z</time>
      </trkpt>
      <trkpt lat="46.35431" lon="-1.43557">
        <ele>3.6</ele>
        <time>2020-06-03T08:21:30Z</time>
      </trkpt>
      <trkpt lat="46.35434" lon="-1.43564">
        <ele>3.6</ele>
        <time>2020-06-03T08:21:31Z</time>
      </trkpt>
      <trkpt lat="46.35436" lon="-1.4357">
        <ele>3.6</ele>
        <time>2020-06-03T08:21:32Z</time>
      </trkpt>
      <trkpt lat="46.3544" lon="-1.43577">
        <ele>3.6</ele>
        <time>2020-06-03T08:21:33Z</time>
      </trkpt>
      <trkpt lat="46.35442" lon="-1.43585">
        <ele>3.6</ele>
        <time>2020-06-03T08:21:34Z</time>
      </trkpt>
      <trkpt lat="46.35444" lon="-1.43591">
        <ele>3.6</ele>
        <time>2020-06-03T08:21:35Z</time>
      </trkpt>
      <trkpt lat="46.35446" lon="-1.43599">
        <ele>3.6</ele>
        <time>2020-06-03T08:21:36Z</time>
      </trkpt>
      <trkpt lat="46.35449" lon="-1.43606">
        <ele>3.6</ele>
        <time>2020-06-03T08:21:37Z</time>
      </trkpt>
      <trkpt lat="46.35452" lon="-1.43614">
        <ele>3.6</ele>
        <time>2020-06-03T08:21:38Z</time>
      </trkpt>
      <trkpt lat="46.35455" lon="-1.43621">
        <ele>3.6</ele>
        <time>2020-06-03T08:21:39Z</time>
      </trkpt>
      <trkpt lat="46.35457" lon="-1.43628">
        <ele>3.7</ele>
        <time>2020-06-03T08:21:40Z</time>
      </trkpt>
      <trkpt lat="46.35459" lon="-1.43636">
        <ele>3.7</ele>
        <time>2020-06-03T08:21:41Z</time>
      </trkpt>
      <trkpt lat="46.35462" lon="-1.43643">
        <ele>3.7</ele>
        <time>2020-06-03T08:21:42Z</time>
      </trkpt>
      <trkpt lat="46.35464" lon="-1.4365">
        <ele>3.7</ele>
        <time>2020-06-03T08:21:43Z</time>
      </trkpt>
      <trkpt lat="46.35467" lon="-1.43657">
        <ele>3.7</ele>
        <time>2020-06-03T08:21:44Z</time>
      </trkpt>
      <trkpt lat="46.3547" lon="-1.43664">
        <ele>3.7</ele>
        <time>2020-06-03T08:21:45Z</time>
      </trkpt>
      <trkpt lat="46.35472" lon="-1.43671">
        <ele>3.7</ele>
        <time>2020-06-03T08:21:46Z</time>
      </trkpt>
      <trkpt lat="46.35475" lon="-1.43678">
        <ele>3.7</ele>
        <time>2020-06-03T08:21:47Z</time>
      </trkpt>
      <trkpt lat="46.35478" lon="-1.43686">
        <ele>3.7</ele>
        <time>2020-06-03T08:21:48Z</time>
      </trkpt>
      <trkpt lat="46.35481" lon="-1.43694">
        <ele>3.7</ele>
        <time>2020-06-03T08:21:49Z</time>
      </trkpt>
      <trkpt lat="46.35483" lon="-1.43701">
        <ele>3.7</ele>
        <time>2020-06-03T08:21:50Z</time>
      </trkpt>
      <trkpt lat="46.35486" lon="-1.43708">
        <ele>3.7</ele>
        <time>2020-06-03T08:21:51Z</time>
      </trkpt>
      <trkpt lat="46.35489" lon="-1.43715">
        <ele>3.7</ele>
        <time>2020-06-03T08:21:52Z</time>
      </trkpt>
      <trkpt lat="46.35492" lon="-1.43723">
        <ele>3.7</ele>
        <time>2020-06-03T08:21:53Z</time>
      </trkpt>
      <trkpt lat="46.35494" lon="-1.43729">
        <ele>3.7</ele>
        <time>2020-06-03T08:21:54Z</time>
      </trkpt>
      <trkpt lat="46.35496" lon="-1.43736">
        <ele>3.7</ele>
        <time>2020-06-03T08:21:55Z</time>
      </trkpt>
      <trkpt lat="46.35499" lon="-1.43743">
        <ele>3.7</ele>
        <time>2020-06-03T08:21:56Z</time>
      </trkpt>
      <trkpt lat="46.35501" lon="-1.4375">
        <ele>3.7</ele>
        <time>2020-06-03T08:21:57Z</time>
      </trkpt>
      <trkpt lat="46.35503" lon="-1.43758">
        <ele>3.7</ele>
        <time>2020-06-03T08:21:58Z</time>
      </trkpt>
      <trkpt lat="46.35506" lon="-1.43766">
        <ele>3.7</ele>
        <time>2020-06-03T08:21:59Z</time>
      </trkpt>
      <trkpt lat="46.35509" lon="-1.43773">
        <ele>3.7</ele>
        <time>2020-06-03T08:22:00Z</time>
      </trkpt>
      <trkpt lat="46.35512" lon="-1.4378">
        <ele>3.7</ele>
        <time>2020-06-03T08:22:01Z</time>
      </trkpt>
      <trkpt lat="46.35514" lon="-1.43787">
        <ele>3.7</ele>
        <time>2020-06-03T08:22:02Z</time>
      </trkpt>
      <trkpt lat="46.35517" lon="-1.43794">
        <ele>3.7</ele>
        <time>2020-06-03T08:22:03Z</time>
      </trkpt>
      <trkpt lat="46.3552" lon="-1.43801">
        <ele>3.7</ele>
        <time>2020-06-03T08:22:04Z</time>
      </trkpt>
      <trkpt lat="46.35523" lon="-1.43809">
        <ele>3.7</ele>
        <time>2020-06-03T08:22:05Z</time>
      </trkpt>
      <trkpt lat="46.35525" lon="-1.43815">
        <ele>3.7</ele>
        <time>2020-06-03T08:22:06Z</time>
      </trkpt>
      <trkpt lat="46.35527" lon="-1.43822">
        <ele>3.7</ele>
        <time>2020-06-03T08:22:07Z</time>
      </trkpt>
      <trkpt lat="46.3553" lon="-1.4383">
        <ele>3.7</ele>
        <time>2020-06-03T08:22:08Z</time>
      </trkpt>
      <trkpt lat="46.35532" lon="-1.43837">
        <ele>3.7</ele>
        <time>2020-06-03T08:22:09Z</time>
      </trkpt>
      <trkpt lat="46.35535" lon="-1.43845">
        <ele>3.7</ele>
        <time>2020-06-03T08:22:10Z</time>
      </trkpt>
      <trkpt lat="46.35538" lon="-1.43852">
        <ele>3.7</ele>
        <time>2020-06-03T08:22:11Z</time>
      </trkpt>
      <trkpt lat="46.3554" lon="-1.43859">
        <ele>3.7</ele>
        <time>2020-06-03T08:22:12Z</time>
      </trkpt>
      <trkpt lat="46.35543" lon="-1.43867">
        <ele>3.7</ele>
        <time>2020-06-03T08:22:13Z</time>
      </trkpt>
      <trkpt lat="46.35545" lon="-1.43874">
        <ele>3.7</ele>
        <time>2020-06-03T08:22:14Z</time>
      </trkpt>
      <trkpt lat="46.35548" lon="-1.43882">
        <ele>3.7</ele>
        <time>2020-06-03T08:22:15Z</time>
      </trkpt>
      <trkpt lat="46.35551" lon="-1.43889">
        <ele>3.7</ele>
        <time>2020-06-03T08:22:16Z</time>
      </trkpt>
      <trkpt lat="46.35554" lon="-1.43897">
        <ele>3.7</ele>
        <time>2020-06-03T08:22:17Z</time>
      </trkpt>
      <trkpt lat="46.35556" lon="-1.43905">
        <ele>3.7</ele>
        <time>2020-06-03T08:22:18Z</time>
      </trkpt>
      <trkpt lat="46.35559" lon="-1.43912">
        <ele>3.7</ele>
        <time>2020-06-03T08:22:19Z</time>
      </trkpt>
      <trkpt lat="46.35562" lon="-1.4392">
        <ele>3.7</ele>
        <time>2020-06-03T08:22:20Z</time>
      </trkpt>
      <trkpt lat="46.35565" lon="-1.43928">
        <ele>3.7</ele>
        <time>2020-06-03T08:22:21Z</time>
      </trkpt>
      <trkpt lat="46.35569" lon="-1.43936">
        <ele>3.7</ele>
        <time>2020-06-03T08:22:22Z</time>
      </trkpt>
      <trkpt lat="46.35571" lon="-1.43943">
        <ele>3.7</ele>
        <time>2020-06-03T08:22:23Z</time>
      </trkpt>
      <trkpt lat="46.35574" lon="-1.4395">
        <ele>3.7</ele>
        <time>2020-06-03T08:22:24Z</time>
      </trkpt>
      <trkpt lat="46.35576" lon="-1.43957">
        <ele>3.8</ele>
        <time>2020-06-03T08:22:25Z</time>
      </trkpt>
      <trkpt lat="46.35579" lon="-1.43965">
        <ele>3.8</ele>
        <time>2020-06-03T08:22:26Z</time>
      </trkpt>
      <trkpt lat="46.35581" lon="-1.43972">
        <ele>3.8</ele>
        <time>2020-06-03T08:22:27Z</time>
      </trkpt>
      <trkpt lat="46.35583" lon="-1.43979">
        <ele>3.8</ele>
        <time>2020-06-03T08:22:28Z</time>
      </trkpt>
      <trkpt lat="46.35586" lon="-1.43987">
        <ele>3.8</ele>
        <time>2020-06-03T08:22:29Z</time>
      </trkpt>
      <trkpt lat="46.35589" lon="-1.43994">
        <ele>3.8</ele>
        <time>2020-06-03T08:22:30Z</time>
      </trkpt>
      <trkpt lat="46.35591" lon="-1.44001">
        <ele>3.8</ele>
        <time>2020-06-03T08:22:31Z</time>
      </trkpt>
      <trkpt lat="46.35593" lon="-1.44008">
        <ele>3.8</ele>
        <time>2020-06-03T08:22:32Z</time>
      </trkpt>
      <trkpt lat="46.35595" lon="-1.44016">
        <ele>3.8</ele>
        <time>2020-06-03T08:22:33Z</time>
      </trkpt>
      <trkpt lat="46.35598" lon="-1.44023">
        <ele>3.8</ele>
        <time>2020-06-03T08:22:34Z</time>
      </trkpt>
      <trkpt lat="46.35599" lon="-1.44031">
        <ele>3.8</ele>
        <time>2020-06-03T08:22:35Z</time>
      </trkpt>
      <trkpt lat="46.35602" lon="-1.44039">
        <ele>3.8</ele>
        <time>2020-06-03T08:22:36Z</time>
      </trkpt>
      <trkpt lat="46.35605" lon="-1.44047">
        <ele>3.8</ele>
        <time>2020-06-03T08:22:37Z</time>
      </trkpt>
      <trkpt lat="46.35607" lon="-1.44054">
        <ele>3.8</ele>
        <time>2020-06-03T08:22:38Z</time>
      </trkpt>
      <trkpt lat="46.3561" lon="-1.44062">
        <ele>3.8</ele>
        <time>2020-06-03T08:22:39Z</time>
      </trkpt>
      <trkpt lat="46.35612" lon="-1.44069">
        <ele>3.8</ele>
        <time>2020-06-03T08:22:40Z</time>
      </trkpt>
      <trkpt lat="46.35614" lon="-1.44076">
        <ele>3.8</ele>
        <time>2020-06-03T08:22:41Z</time>
      </trkpt>
      <trkpt lat="46.35617" lon="-1.44084">
        <ele>3.8</ele>
        <time>2020-06-03T08:22:42Z</time>
      </trkpt>
      <trkpt lat="46.3562" lon="-1.44091">
        <ele>3.8</ele>
        <time>2020-06-03T08:22:43Z</time>
      </trkpt>
      <trkpt lat="46.35622" lon="-1.44099">
        <ele>3.9</ele>
        <time>2020-06-03T08:22:44Z</time>
      </trkpt>
      <trkpt lat="46.35625" lon="-1.44106">
        <ele>3.9</ele>
        <time>2020-06-03T08:22:45Z</time>
      </trkpt>
      <trkpt lat="46.35627" lon="-1.44114">
        <ele>3.9</ele>
        <time>2020-06-03T08:22:46Z</time>
      </trkpt>
      <trkpt lat="46.35629" lon="-1.44121">
        <ele>3.9</ele>
        <time>2020-06-03T08:22:47Z</time>
      </trkpt>
      <trkpt lat="46.35632" lon="-1.44128">
        <ele>3.9</ele>
        <time>2020-06-03T08:22:48Z</time>
      </trkpt>
      <trkpt lat="46.35634" lon="-1.44135">
        <ele>3.9</ele>
        <time>2020-06-03T08:22:49Z</time>
      </trkpt>
      <trkpt lat="46.35636" lon="-1.44142">
        <ele>3.9</ele>
        <time>2020-06-03T08:22:50Z</time>
      </trkpt>
      <trkpt lat="46.35639" lon="-1.44149">
        <ele>3.9</ele>
        <time>2020-06-03T08:22:51Z</time>
      </trkpt>
      <trkpt lat="46.35641" lon="-1.44156">
        <ele>3.9</ele>
        <time>2020-06-03T08:22:52Z</time>
      </trkpt>
      <trkpt lat="46.35644" lon="-1.44162">
        <ele>3.9</ele>
        <time>2020-06-03T08:22:53Z</time>
      </trkpt>
      <trkpt lat="46.35646" lon="-1.44169">
        <ele>3.9</ele>
        <time>2020-06-03T08:22:54Z</time>
      </trkpt>
      <trkpt lat="46.35649" lon="-1.44176">
        <ele>3.9</ele>
        <time>2020-06-03T08:22:55Z</time>
      </trkpt>
      <trkpt lat="46.35652" lon="-1.44183">
        <ele>3.9</ele>
        <time>2020-06-03T08:22:56Z</time>
      </trkpt>
      <trkpt lat="46.35654" lon="-1.4419">
        <ele>3.9</ele>
        <time>2020-06-03T08:22:57Z</time>
      </trkpt>
      <trkpt lat="46.35656" lon="-1.44198">
        <ele>3.9</ele>
        <time>2020-06-03T08:22:58Z</time>
      </trkpt>
      <trkpt lat="46.35659" lon="-1.44205">
        <ele>3.9</ele>
        <time>2020-06-03T08:22:59Z</time>
      </trkpt>
      <trkpt lat="46.35662" lon="-1.44211">
        <ele>3.9</ele>
        <time>2020-06-03T08:23:00Z</time>
      </trkpt>
      <trkpt lat="46.35664" lon="-1.44218">
        <ele>3.9</ele>
        <time>2020-06-03T08:23:01Z</time>
      </trkpt>
      <trkpt lat="46.35667" lon="-1.44226">
        <ele>3.9</ele>
        <time>2020-06-03T08:23:02Z</time>
      </trkpt>
      <trkpt lat="46.3567" lon="-1.44233">
        <ele>3.9</ele>
        <time>2020-06-03T08:23:03Z</time>
      </trkpt>
      <trkpt lat="46.35672" lon="-1.44241">
        <ele>3.9</ele>
        <time>2020-06-03T08:23:04Z</time>
      </trkpt>
      <trkpt lat="46.35674" lon="-1.44249">
        <ele>3.9</ele>
        <time>2020-06-03T08:23:05Z</time>
      </trkpt>
      <trkpt lat="46.35676" lon="-1.44256">
        <ele>3.9</ele>
        <time>2020-06-03T08:23:06Z</time>
      </trkpt>
      <trkpt lat="46.35678" lon="-1.44264">
        <ele>3.9</ele>
        <time>2020-06-03T08:23:07Z</time>
      </trkpt>
      <trkpt lat="46.35681" lon="-1.44272">
        <ele>3.9</ele>
        <time>2020-06-03T08:23:08Z</time>
      </trkpt>
      <trkpt lat="46.35684" lon="-1.44279">
        <ele>4</ele>
        <time>2020-06-03T08:23:09Z</time>
      </trkpt>
      <trkpt lat="46.35687" lon="-1.44287">
        <ele>4</ele>
        <time>2020-06-03T08:23:10Z</time>
      </trkpt>
      <trkpt lat="46.3569" lon="-1.44294">
        <ele>4</ele>
        <time>2020-06-03T08:23:11Z</time>
      </trkpt>
      <trkpt lat="46.35693" lon="-1.443">
        <ele>4</ele>
        <time>2020-06-03T08:23:12Z</time>
      </trkpt>
      <trkpt lat="46.35695" lon="-1.44306">
        <ele>3.9</ele>
        <time>2020-06-03T08:23:13Z</time>
      </trkpt>
      <trkpt lat="46.35698" lon="-1.44314">
        <ele>3.9</ele>
        <time>2020-06-03T08:23:14Z</time>
      </trkpt>
      <trkpt lat="46.35701" lon="-1.44321">
        <ele>3.9</ele>
        <time>2020-06-03T08:23:15Z</time>
      </trkpt>
      <trkpt lat="46.35704" lon="-1.44328">
        <ele>3.9</ele>
        <time>2020-06-03T08:23:16Z</time>
      </trkpt>
      <trkpt lat="46.35707" lon="-1.44336">
        <ele>3.9</ele>
        <time>2020-06-03T08:23:17Z</time>
      </trkpt>
      <trkpt lat="46.3571" lon="-1.44343">
        <ele>3.9</ele>
        <time>2020-06-03T08:23:18Z</time>
      </trkpt>
      <trkpt lat="46.35713" lon="-1.44349">
        <ele>3.9</ele>
        <time>2020-06-03T08:23:19Z</time>
      </trkpt>
      <trkpt lat="46.35716" lon="-1.44355">
        <ele>3.9</ele>
        <time>2020-06-03T08:23:20Z</time>
      </trkpt>
      <trkpt lat="46.35719" lon="-1.44361">
        <ele>3.8</ele>
        <time>2020-06-03T08:23:21Z</time>
      </trkpt>
      <trkpt lat="46.35722" lon="-1.44367">
        <ele>3.8</ele>
        <time>2020-06-03T08:23:22Z</time>
      </trkpt>
      <trkpt lat="46.35725" lon="-1.44374">
        <ele>3.8</ele>
        <time>2020-06-03T08:23:23Z</time>
      </trkpt>
      <trkpt lat="46.35728" lon="-1.4438">
        <ele>3.8</ele>
        <time>2020-06-03T08:23:24Z</time>
      </trkpt>
      <trkpt lat="46.35732" lon="-1.44389">
        <ele>3.8</ele>
        <time>2020-06-03T08:23:25Z</time>
      </trkpt>
      <trkpt lat="46.35735" lon="-1.44397">
        <ele>3.8</ele>
        <time>2020-06-03T08:23:26Z</time>
      </trkpt>
      <trkpt lat="46.35739" lon="-1.44403">
        <ele>3.8</ele>
        <time>2020-06-03T08:23:27Z</time>
      </trkpt>
      <trkpt lat="46.35743" lon="-1.4441">
        <ele>3.8</ele>
        <time>2020-06-03T08:23:28Z</time>
      </trkpt>
      <trkpt lat="46.35746" lon="-1.44416">
        <ele>3.8</ele>
        <time>2020-06-03T08:23:29Z</time>
      </trkpt>
      <trkpt lat="46.3575" lon="-1.44422">
        <ele>3.8</ele>
        <time>2020-06-03T08:23:30Z</time>
      </trkpt>
      <trkpt lat="46.35753" lon="-1.44429">
        <ele>3.8</ele>
        <time>2020-06-03T08:23:31Z</time>
      </trkpt>
      <trkpt lat="46.35756" lon="-1.44433">
        <ele>3.8</ele>
        <time>2020-06-03T08:23:32Z</time>
      </trkpt>
      <trkpt lat="46.35759" lon="-1.44438">
        <ele>3.8</ele>
        <time>2020-06-03T08:23:33Z</time>
      </trkpt>
      <trkpt lat="46.35762" lon="-1.44442">
        <ele>3.8</ele>
        <time>2020-06-03T08:23:34Z</time>
      </trkpt>
      <trkpt lat="46.35765" lon="-1.44446">
        <ele>3.7</ele>
        <time>2020-06-03T08:23:35Z</time>
      </trkpt>
      <trkpt lat="46.35768" lon="-1.44452">
        <ele>3.7</ele>
        <time>2020-06-03T08:23:36Z</time>
      </trkpt>
      <trkpt lat="46.35771" lon="-1.44458">
        <ele>3.7</ele>
        <time>2020-06-03T08:23:37Z</time>
      </trkpt>
      <trkpt lat="46.35774" lon="-1.44464">
        <ele>3.6</ele>
        <time>2020-06-03T08:23:38Z</time>
      </trkpt>
      <trkpt lat="46.35777" lon="-1.4447">
        <ele>3.6</ele>
        <time>2020-06-03T08:23:39Z</time>
      </trkpt>
      <trkpt lat="46.35781" lon="-1.44478">
        <ele>3.5</ele>
        <time>2020-06-03T08:23:40Z</time>
      </trkpt>
      <trkpt lat="46.35785" lon="-1.44485">
        <ele>3.5</ele>
        <time>2020-06-03T08:23:41Z</time>
      </trkpt>
      <trkpt lat="46.3579" lon="-1.44491">
        <ele>3.4</ele>
        <time>2020-06-03T08:23:42Z</time>
      </trkpt>
      <trkpt lat="46.35793" lon="-1.44496">
        <ele>3.4</ele>
        <time>2020-06-03T08:23:43Z</time>
      </trkpt>
      <trkpt lat="46.35797" lon="-1.44503">
        <ele>3.3</ele>
        <time>2020-06-03T08:23:44Z</time>
      </trkpt>
      <trkpt lat="46.35801" lon="-1.44509">
        <ele>3.3</ele>
        <time>2020-06-03T08:23:45Z</time>
      </trkpt>
      <trkpt lat="46.35805" lon="-1.44517">
        <ele>3.3</ele>
        <time>2020-06-03T08:23:46Z</time>
      </trkpt>
      <trkpt lat="46.35809" lon="-1.44523">
        <ele>3.3</ele>
        <time>2020-06-03T08:23:47Z</time>
      </trkpt>
      <trkpt lat="46.35812" lon="-1.44529">
        <ele>3.3</ele>
        <time>2020-06-03T08:23:48Z</time>
      </trkpt>
      <trkpt lat="46.35816" lon="-1.44536">
        <ele>3.3</ele>
        <time>2020-06-03T08:23:49Z</time>
      </trkpt>
      <trkpt lat="46.3582" lon="-1.44543">
        <ele>3.3</ele>
        <time>2020-06-03T08:23:50Z</time>
      </trkpt>
      <trkpt lat="46.35824" lon="-1.4455">
        <ele>3.3</ele>
        <time>2020-06-03T08:23:51Z</time>
      </trkpt>
      <trkpt lat="46.35828" lon="-1.44556">
        <ele>3.3</ele>
        <time>2020-06-03T08:23:52Z</time>
      </trkpt>
      <trkpt lat="46.35833" lon="-1.44562">
        <ele>3.3</ele>
        <time>2020-06-03T08:23:53Z</time>
      </trkpt>
      <trkpt lat="46.35838" lon="-1.44568">
        <ele>3.3</ele>
        <time>2020-06-03T08:23:54Z</time>
      </trkpt>
      <trkpt lat="46.35841" lon="-1.44574">
        <ele>3.3</ele>
        <time>2020-06-03T08:23:55Z</time>
      </trkpt>
      <trkpt lat="46.35845" lon="-1.44581">
        <ele>3.3</ele>
        <time>2020-06-03T08:23:56Z</time>
      </trkpt>
      <trkpt lat="46.35849" lon="-1.44587">
        <ele>3.3</ele>
        <time>2020-06-03T08:23:57Z</time>
      </trkpt>
      <trkpt lat="46.35853" lon="-1.44594">
        <ele>3.4</ele>
        <time>2020-06-03T08:23:58Z</time>
      </trkpt>
      <trkpt lat="46.35857" lon="-1.44601">
        <ele>3.4</ele>
        <time>2020-06-03T08:23:59Z</time>
      </trkpt>
      <trkpt lat="46.35862" lon="-1.44608">
        <ele>3.3</ele>
        <time>2020-06-03T08:24:00Z</time>
      </trkpt>
      <trkpt lat="46.35866" lon="-1.44615">
        <ele>3.3</ele>
        <time>2020-06-03T08:24:01Z</time>
      </trkpt>
      <trkpt lat="46.3587" lon="-1.4462">
        <ele>3.3</ele>
        <time>2020-06-03T08:24:02Z</time>
      </trkpt>
      <trkpt lat="46.35873" lon="-1.44626">
        <ele>3.3</ele>
        <time>2020-06-03T08:24:03Z</time>
      </trkpt>
      <trkpt lat="46.35877" lon="-1.44632">
        <ele>3.3</ele>
        <time>2020-06-03T08:24:04Z</time>
      </trkpt>
      <trkpt lat="46.3588" lon="-1.44638">
        <ele>3.3</ele>
        <time>2020-06-03T08:24:05Z</time>
      </trkpt>
      <trkpt lat="46.35884" lon="-1.44644">
        <ele>3.2</ele>
        <time>2020-06-03T08:24:06Z</time>
      </trkpt>
      <trkpt lat="46.35887" lon="-1.44649">
        <ele>3.2</ele>
        <time>2020-06-03T08:24:07Z</time>
      </trkpt>
      <trkpt lat="46.35891" lon="-1.44655">
        <ele>3.2</ele>
        <time>2020-06-03T08:24:08Z</time>
      </trkpt>
      <trkpt lat="46.35894" lon="-1.4466">
        <ele>3.2</ele>
        <time>2020-06-03T08:24:09Z</time>
      </trkpt>
      <trkpt lat="46.35897" lon="-1.44666">
        <ele>3.2</ele>
        <time>2020-06-03T08:24:10Z</time>
      </trkpt>
      <trkpt lat="46.35901" lon="-1.44671">
        <ele>3.1</ele>
        <time>2020-06-03T08:24:11Z</time>
      </trkpt>
      <trkpt lat="46.35905" lon="-1.44677">
        <ele>3.1</ele>
        <time>2020-06-03T08:24:12Z</time>
      </trkpt>
      <trkpt lat="46.35909" lon="-1.44683">
        <ele>3.1</ele>
        <time>2020-06-03T08:24:13Z</time>
      </trkpt>
      <trkpt lat="46.35913" lon="-1.44689">
        <ele>3.1</ele>
        <time>2020-06-03T08:24:14Z</time>
      </trkpt>
      <trkpt lat="46.35916" lon="-1.44695">
        <ele>3.1</ele>
        <time>2020-06-03T08:24:15Z</time>
      </trkpt>
      <trkpt lat="46.3592" lon="-1.44701">
        <ele>3.1</ele>
        <time>2020-06-03T08:24:16Z</time>
      </trkpt>
      <trkpt lat="46.35923" lon="-1.44706">
        <ele>3.1</ele>
        <time>2020-06-03T08:24:17Z</time>
      </trkpt>
      <trkpt lat="46.35927" lon="-1.44712">
        <ele>3.1</ele>
        <time>2020-06-03T08:24:18Z</time>
      </trkpt>
      <trkpt lat="46.3593" lon="-1.44717">
        <ele>3.1</ele>
        <time>2020-06-03T08:24:19Z</time>
      </trkpt>
      <trkpt lat="46.35934" lon="-1.44722">
        <ele>3.1</ele>
        <time>2020-06-03T08:24:20Z</time>
      </trkpt>
      <trkpt lat="46.35937" lon="-1.44728">
        <ele>3.1</ele>
        <time>2020-06-03T08:24:21Z</time>
      </trkpt>
      <trkpt lat="46.3594" lon="-1.44735">
        <ele>3.1</ele>
        <time>2020-06-03T08:24:22Z</time>
      </trkpt>
      <trkpt lat="46.35944" lon="-1.4474">
        <ele>3.1</ele>
        <time>2020-06-03T08:24:23Z</time>
      </trkpt>
      <trkpt lat="46.35947" lon="-1.44746">
        <ele>3.1</ele>
        <time>2020-06-03T08:24:24Z</time>
      </trkpt>
      <trkpt lat="46.3595" lon="-1.44752">
        <ele>3.1</ele>
        <time>2020-06-03T08:24:25Z</time>
      </trkpt>
      <trkpt lat="46.35954" lon="-1.44759">
        <ele>3.1</ele>
        <time>2020-06-03T08:24:26Z</time>
      </trkpt>
      <trkpt lat="46.35957" lon="-1.44765">
        <ele>3.1</ele>
        <time>2020-06-03T08:24:27Z</time>
      </trkpt>
      <trkpt lat="46.35961" lon="-1.44772">
        <ele>3.1</ele>
        <time>2020-06-03T08:24:28Z</time>
      </trkpt>
      <trkpt lat="46.35965" lon="-1.44778">
        <ele>3.1</ele>
        <time>2020-06-03T08:24:29Z</time>
      </trkpt>
      <trkpt lat="46.35968" lon="-1.44785">
        <ele>3.2</ele>
        <time>2020-06-03T08:24:30Z</time>
      </trkpt>
      <trkpt lat="46.35972" lon="-1.44791">
        <ele>3.2</ele>
        <time>2020-06-03T08:24:31Z</time>
      </trkpt>
      <trkpt lat="46.35975" lon="-1.44797">
        <ele>3.2</ele>
        <time>2020-06-03T08:24:32Z</time>
      </trkpt>
      <trkpt lat="46.35979" lon="-1.44803">
        <ele>3.2</ele>
        <time>2020-06-03T08:24:33Z</time>
      </trkpt>
      <trkpt lat="46.35982" lon="-1.44809">
        <ele>3.3</ele>
        <time>2020-06-03T08:24:34Z</time>
      </trkpt>
      <trkpt lat="46.35986" lon="-1.44815">
        <ele>3.3</ele>
        <time>2020-06-03T08:24:35Z</time>
      </trkpt>
      <trkpt lat="46.3599" lon="-1.44821">
        <ele>3.3</ele>
        <time>2020-06-03T08:24:36Z</time>
      </trkpt>
      <trkpt lat="46.35994" lon="-1.44827">
        <ele>3.3</ele>
        <time>2020-06-03T08:24:37Z</time>
      </trkpt>
      <trkpt lat="46.35998" lon="-1.44833">
        <ele>3.4</ele>
        <time>2020-06-03T08:24:38Z</time>
      </trkpt>
      <trkpt lat="46.36002" lon="-1.44839">
        <ele>3.4</ele>
        <time>2020-06-03T08:24:39Z</time>
      </trkpt>
      <trkpt lat="46.36005" lon="-1.44845">
        <ele>3.4</ele>
        <time>2020-06-03T08:24:40Z</time>
      </trkpt>
      <trkpt lat="46.36009" lon="-1.44851">
        <ele>3.4</ele>
        <time>2020-06-03T08:24:41Z</time>
      </trkpt>
      <trkpt lat="46.36012" lon="-1.44858">
        <ele>3.4</ele>
        <time>2020-06-03T08:24:42Z</time>
      </trkpt>
      <trkpt lat="46.36016" lon="-1.44865">
        <ele>3.4</ele>
        <time>2020-06-03T08:24:43Z</time>
      </trkpt>
      <trkpt lat="46.3602" lon="-1.44871">
        <ele>3.4</ele>
        <time>2020-06-03T08:24:44Z</time>
      </trkpt>
      <trkpt lat="46.36024" lon="-1.44878">
        <ele>3.4</ele>
        <time>2020-06-03T08:24:45Z</time>
      </trkpt>
      <trkpt lat="46.36028" lon="-1.44884">
        <ele>3.4</ele>
        <time>2020-06-03T08:24:46Z</time>
      </trkpt>
      <trkpt lat="46.36031" lon="-1.44889">
        <ele>3.4</ele>
        <time>2020-06-03T08:24:47Z</time>
      </trkpt>
      <trkpt lat="46.36035" lon="-1.44895">
        <ele>3.4</ele>
        <time>2020-06-03T08:24:48Z</time>
      </trkpt>
      <trkpt lat="46.36038" lon="-1.449">
        <ele>3.4</ele>
        <time>2020-06-03T08:24:49Z</time>
      </trkpt>
      <trkpt lat="46.36042" lon="-1.44906">
        <ele>3.4</ele>
        <time>2020-06-03T08:24:50Z</time>
      </trkpt>
      <trkpt lat="46.36046" lon="-1.44913">
        <ele>3.4</ele>
        <time>2020-06-03T08:24:51Z</time>
      </trkpt>
      <trkpt lat="46.3605" lon="-1.4492">
        <ele>3.4</ele>
        <time>2020-06-03T08:24:52Z</time>
      </trkpt>
      <trkpt lat="46.36053" lon="-1.44926">
        <ele>3.4</ele>
        <time>2020-06-03T08:24:53Z</time>
      </trkpt>
      <trkpt lat="46.36057" lon="-1.44932">
        <ele>3.4</ele>
        <time>2020-06-03T08:24:54Z</time>
      </trkpt>
      <trkpt lat="46.3606" lon="-1.44939">
        <ele>3.4</ele>
        <time>2020-06-03T08:24:55Z</time>
      </trkpt>
      <trkpt lat="46.36063" lon="-1.44945">
        <ele>3.4</ele>
        <time>2020-06-03T08:24:56Z</time>
      </trkpt>
      <trkpt lat="46.36067" lon="-1.4495">
        <ele>3.4</ele>
        <time>2020-06-03T08:24:57Z</time>
      </trkpt>
      <trkpt lat="46.36071" lon="-1.44956">
        <ele>3.4</ele>
        <time>2020-06-03T08:24:58Z</time>
      </trkpt>
      <trkpt lat="46.36074" lon="-1.44961">
        <ele>3.4</ele>
        <time>2020-06-03T08:24:59Z</time>
      </trkpt>
      <trkpt lat="46.36078" lon="-1.44967">
        <ele>3.5</ele>
        <time>2020-06-03T08:25:00Z</time>
      </trkpt>
      <trkpt lat="46.36082" lon="-1.44973">
        <ele>3.5</ele>
        <time>2020-06-03T08:25:01Z</time>
      </trkpt>
      <trkpt lat="46.36086" lon="-1.44979">
        <ele>3.5</ele>
        <time>2020-06-03T08:25:02Z</time>
      </trkpt>
      <trkpt lat="46.3609" lon="-1.44985">
        <ele>3.5</ele>
        <time>2020-06-03T08:25:03Z</time>
      </trkpt>
      <trkpt lat="46.36094" lon="-1.4499">
        <ele>3.5</ele>
        <time>2020-06-03T08:25:04Z</time>
      </trkpt>
      <trkpt lat="46.36097" lon="-1.44997">
        <ele>3.5</ele>
        <time>2020-06-03T08:25:05Z</time>
      </trkpt>
      <trkpt lat="46.36102" lon="-1.45002">
        <ele>3.5</ele>
        <time>2020-06-03T08:25:06Z</time>
      </trkpt>
      <trkpt lat="46.36106" lon="-1.45009">
        <ele>3.5</ele>
        <time>2020-06-03T08:25:07Z</time>
      </trkpt>
      <trkpt lat="46.3611" lon="-1.45015">
        <ele>3.5</ele>
        <time>2020-06-03T08:25:08Z</time>
      </trkpt>
      <trkpt lat="46.36114" lon="-1.45022">
        <ele>3.5</ele>
        <time>2020-06-03T08:25:09Z</time>
      </trkpt>
      <trkpt lat="46.36117" lon="-1.45029">
        <ele>3.5</ele>
        <time>2020-06-03T08:25:10Z</time>
      </trkpt>
      <trkpt lat="46.36121" lon="-1.45035">
        <ele>3.5</ele>
        <time>2020-06-03T08:25:11Z</time>
      </trkpt>
      <trkpt lat="46.36125" lon="-1.4504">
        <ele>3.5</ele>
        <time>2020-06-03T08:25:12Z</time>
      </trkpt>
      <trkpt lat="46.36128" lon="-1.45047">
        <ele>3.5</ele>
        <time>2020-06-03T08:25:13Z</time>
      </trkpt>
      <trkpt lat="46.36132" lon="-1.45054">
        <ele>3.5</ele>
        <time>2020-06-03T08:25:14Z</time>
      </trkpt>
      <trkpt lat="46.36136" lon="-1.4506">
        <ele>3.5</ele>
        <time>2020-06-03T08:25:15Z</time>
      </trkpt>
      <trkpt lat="46.3614" lon="-1.45066">
        <ele>3.5</ele>
        <time>2020-06-03T08:25:16Z</time>
      </trkpt>
      <trkpt lat="46.36143" lon="-1.45072">
        <ele>3.4</ele>
        <time>2020-06-03T08:25:17Z</time>
      </trkpt>
      <trkpt lat="46.36145" lon="-1.45079">
        <ele>3.4</ele>
        <time>2020-06-03T08:25:18Z</time>
      </trkpt>
      <trkpt lat="46.36149" lon="-1.45085">
        <ele>3.3</ele>
        <time>2020-06-03T08:25:19Z</time>
      </trkpt>
      <trkpt lat="46.36152" lon="-1.4509">
        <ele>3.2</ele>
        <time>2020-06-03T08:25:20Z</time>
      </trkpt>
      <trkpt lat="46.36154" lon="-1.45094">
        <ele>3.1</ele>
        <time>2020-06-03T08:25:21Z</time>
      </trkpt>
      <trkpt lat="46.36157" lon="-1.45098">
        <ele>3</ele>
        <time>2020-06-03T08:25:22Z</time>
      </trkpt>
      <trkpt lat="46.36159" lon="-1.45102">
        <ele>3</ele>
        <time>2020-06-03T08:25:23Z</time>
      </trkpt>
      <trkpt lat="46.3616" lon="-1.45106">
        <ele>2.9</ele>
        <time>2020-06-03T08:25:24Z</time>
      </trkpt>
      <trkpt lat="46.36162" lon="-1.45109">
        <ele>2.9</ele>
        <time>2020-06-03T08:25:25Z</time>
      </trkpt>
      <trkpt lat="46.36163" lon="-1.4511">
        <ele>2.9</ele>
        <time>2020-06-03T08:25:26Z</time>
      </trkpt>
      <trkpt lat="46.36164" lon="-1.45114">
        <ele>2.9</ele>
        <time>2020-06-03T08:25:27Z</time>
      </trkpt>
      <trkpt lat="46.36164" lon="-1.45116">
        <ele>2.8</ele>
        <time>2020-06-03T08:25:28Z</time>
      </trkpt>
      <trkpt lat="46.36165" lon="-1.45121">
        <ele>2.8</ele>
        <time>2020-06-03T08:25:29Z</time>
      </trkpt>
      <trkpt lat="46.36166" lon="-1.45125">
        <ele>2.8</ele>
        <time>2020-06-03T08:25:30Z</time>
      </trkpt>
      <trkpt lat="46.36167" lon="-1.4513">
        <ele>2.8</ele>
        <time>2020-06-03T08:25:31Z</time>
      </trkpt>
      <trkpt lat="46.36168" lon="-1.45135">
        <ele>2.7</ele>
        <time>2020-06-03T08:25:32Z</time>
      </trkpt>
      <trkpt lat="46.36168" lon="-1.45139">
        <ele>2.7</ele>
        <time>2020-06-03T08:25:33Z</time>
      </trkpt>
      <trkpt lat="46.36167" lon="-1.45145">
        <ele>2.7</ele>
        <time>2020-06-03T08:25:34Z</time>
      </trkpt>
      <trkpt lat="46.36166" lon="-1.45147">
        <ele>2.7</ele>
        <time>2020-06-03T08:25:35Z</time>
      </trkpt>
      <trkpt lat="46.36164" lon="-1.45151">
        <ele>2.7</ele>
        <time>2020-06-03T08:25:36Z</time>
      </trkpt>
      <trkpt lat="46.36161" lon="-1.45152">
        <ele>2.7</ele>
        <time>2020-06-03T08:25:37Z</time>
      </trkpt>
      <trkpt lat="46.36159" lon="-1.45155">
        <ele>2.7</ele>
        <time>2020-06-03T08:25:38Z</time>
      </trkpt>
      <trkpt lat="46.36157" lon="-1.45156">
        <ele>2.7</ele>
        <time>2020-06-03T08:25:39Z</time>
      </trkpt>
      <trkpt lat="46.36156" lon="-1.45158">
        <ele>2.7</ele>
        <time>2020-06-03T08:25:40Z</time>
      </trkpt>
      <trkpt lat="46.36155" lon="-1.45159">
        <ele>2.7</ele>
        <time>2020-06-03T08:25:41Z</time>
      </trkpt>
      <trkpt lat="46.36155" lon="-1.45159">
        <ele>2.7</ele>
        <time>2020-06-03T08:25:42Z</time>
      </trkpt>
      <trkpt lat="46.36155" lon="-1.4516">
        <ele>2.7</ele>
        <time>2020-06-03T08:25:43Z</time>
      </trkpt>
      <trkpt lat="46.36154" lon="-1.45159">
        <ele>2.7</ele>
        <time>2020-06-03T08:25:44Z</time>
      </trkpt>
      <trkpt lat="46.36154" lon="-1.45158">
        <ele>2.7</ele>
        <time>2020-06-03T08:25:45Z</time>
      </trkpt>
      <trkpt lat="46.36154" lon="-1.45158">
        <ele>2.7</ele>
        <time>2020-06-03T08:25:46Z</time>
      </trkpt>
      <trkpt lat="46.36153" lon="-1.45159">
        <ele>2.7</ele>
        <time>2020-06-03T08:25:47Z</time>
      </trkpt>
      <trkpt lat="46.36153" lon="-1.45162">
        <ele>2.7</ele>
        <time>2020-06-03T08:25:48Z</time>
      </trkpt>
      <trkpt lat="46.36154" lon="-1.45163">
        <ele>2.7</ele>
        <time>2020-06-03T08:25:49Z</time>
      </trkpt>
      <trkpt lat="46.36154" lon="-1.45164">
        <ele>2.7</ele>
        <time>2020-06-03T08:25:50Z</time>
      </trkpt>
      <trkpt lat="46.36159" lon="-1.45165">
        <ele>2.7</ele>
        <time>2020-06-03T08:25:51Z</time>
      </trkpt>
      <trkpt lat="46.36161" lon="-1.45166">
        <ele>2.7</ele>
        <time>2020-06-03T08:25:52Z</time>
      </trkpt>
      <trkpt lat="46.36166" lon="-1.45166">
        <ele>2.7</ele>
        <time>2020-06-03T08:25:53Z</time>
      </trkpt>
      <trkpt lat="46.36172" lon="-1.45166">
        <ele>2.7</ele>
        <time>2020-06-03T08:25:54Z</time>
      </trkpt>
      <trkpt lat="46.36176" lon="-1.45166">
        <ele>2.7</ele>
        <time>2020-06-03T08:25:55Z</time>
      </trkpt>
      <trkpt lat="46.36181" lon="-1.45168">
        <ele>2.7</ele>
        <time>2020-06-03T08:25:56Z</time>
      </trkpt>
      <trkpt lat="46.36185" lon="-1.45169">
        <ele>2.8</ele>
        <time>2020-06-03T08:25:57Z</time>
      </trkpt>
      <trkpt lat="46.36189" lon="-1.4517">
        <ele>2.8</ele>
        <time>2020-06-03T08:25:58Z</time>
      </trkpt>
      <trkpt lat="46.36193" lon="-1.45172">
        <ele>2.8</ele>
        <time>2020-06-03T08:25:59Z</time>
      </trkpt>
      <trkpt lat="46.36197" lon="-1.45174">
        <ele>2.8</ele>
        <time>2020-06-03T08:26:00Z</time>
      </trkpt>
      <trkpt lat="46.36201" lon="-1.45177">
        <ele>2.8</ele>
        <time>2020-06-03T08:26:01Z</time>
      </trkpt>
      <trkpt lat="46.36205" lon="-1.4518">
        <ele>2.9</ele>
        <time>2020-06-03T08:26:02Z</time>
      </trkpt>
      <trkpt lat="46.36208" lon="-1.45184">
        <ele>2.9</ele>
        <time>2020-06-03T08:26:03Z</time>
      </trkpt>
      <trkpt lat="46.36211" lon="-1.45189">
        <ele>2.9</ele>
        <time>2020-06-03T08:26:04Z</time>
      </trkpt>
      <trkpt lat="46.36213" lon="-1.45193">
        <ele>2.9</ele>
        <time>2020-06-03T08:26:05Z</time>
      </trkpt>
      <trkpt lat="46.36216" lon="-1.45197">
        <ele>2.9</ele>
        <time>2020-06-03T08:26:06Z</time>
      </trkpt>
      <trkpt lat="46.36219" lon="-1.45202">
        <ele>2.9</ele>
        <time>2020-06-03T08:26:07Z</time>
      </trkpt>
      <trkpt lat="46.36222" lon="-1.45207">
        <ele>2.9</ele>
        <time>2020-06-03T08:26:08Z</time>
      </trkpt>
      <trkpt lat="46.36225" lon="-1.45212">
        <ele>2.9</ele>
        <time>2020-06-03T08:26:09Z</time>
      </trkpt>
      <trkpt lat="46.36228" lon="-1.45217">
        <ele>3</ele>
        <time>2020-06-03T08:26:10Z</time>
      </trkpt>
      <trkpt lat="46.36231" lon="-1.45221">
        <ele>3</ele>
        <time>2020-06-03T08:26:11Z</time>
      </trkpt>
      <trkpt lat="46.36235" lon="-1.45228">
        <ele>3</ele>
        <time>2020-06-03T08:26:12Z</time>
      </trkpt>
      <trkpt lat="46.36237" lon="-1.45233">
        <ele>3</ele>
        <time>2020-06-03T08:26:13Z</time>
      </trkpt>
      <trkpt lat="46.3624" lon="-1.45238">
        <ele>3.1</ele>
        <time>2020-06-03T08:26:14Z</time>
      </trkpt>
      <trkpt lat="46.36244" lon="-1.45244">
        <ele>3.1</ele>
        <time>2020-06-03T08:26:15Z</time>
      </trkpt>
      <trkpt lat="46.36247" lon="-1.45249">
        <ele>3.1</ele>
        <time>2020-06-03T08:26:16Z</time>
      </trkpt>
      <trkpt lat="46.36251" lon="-1.45253">
        <ele>3.1</ele>
        <time>2020-06-03T08:26:17Z</time>
      </trkpt>
      <trkpt lat="46.36254" lon="-1.45259">
        <ele>3.2</ele>
        <time>2020-06-03T08:26:18Z</time>
      </trkpt>
      <trkpt lat="46.36257" lon="-1.45264">
        <ele>3.2</ele>
        <time>2020-06-03T08:26:19Z</time>
      </trkpt>
      <trkpt lat="46.3626" lon="-1.45269">
        <ele>3.2</ele>
        <time>2020-06-03T08:26:20Z</time>
      </trkpt>
      <trkpt lat="46.36264" lon="-1.45275">
        <ele>3.3</ele>
        <time>2020-06-03T08:26:21Z</time>
      </trkpt>
      <trkpt lat="46.36267" lon="-1.45281">
        <ele>3.3</ele>
        <time>2020-06-03T08:26:22Z</time>
      </trkpt>
      <trkpt lat="46.36271" lon="-1.45287">
        <ele>3.3</ele>
        <time>2020-06-03T08:26:23Z</time>
      </trkpt>
      <trkpt lat="46.36274" lon="-1.45293">
        <ele>3.3</ele>
        <time>2020-06-03T08:26:24Z</time>
      </trkpt>
      <trkpt lat="46.36277" lon="-1.45298">
        <ele>3.3</ele>
        <time>2020-06-03T08:26:25Z</time>
      </trkpt>
      <trkpt lat="46.36281" lon="-1.45305">
        <ele>3.4</ele>
        <time>2020-06-03T08:26:26Z</time>
      </trkpt>
      <trkpt lat="46.36284" lon="-1.45311">
        <ele>3.4</ele>
        <time>2020-06-03T08:26:27Z</time>
      </trkpt>
      <trkpt lat="46.36288" lon="-1.45316">
        <ele>3.4</ele>
        <time>2020-06-03T08:26:28Z</time>
      </trkpt>
      <trkpt lat="46.36292" lon="-1.45322">
        <ele>3.4</ele>
        <time>2020-06-03T08:26:29Z</time>
      </trkpt>
      <trkpt lat="46.36296" lon="-1.45329">
        <ele>3.4</ele>
        <time>2020-06-03T08:26:30Z</time>
      </trkpt>
      <trkpt lat="46.36298" lon="-1.45335">
        <ele>3.4</ele>
        <time>2020-06-03T08:26:31Z</time>
      </trkpt>
      <trkpt lat="46.36301" lon="-1.45341">
        <ele>3.4</ele>
        <time>2020-06-03T08:26:32Z</time>
      </trkpt>
      <trkpt lat="46.36304" lon="-1.45347">
        <ele>3.4</ele>
        <time>2020-06-03T08:26:33Z</time>
      </trkpt>
      <trkpt lat="46.36309" lon="-1.45353">
        <ele>3.4</ele>
        <time>2020-06-03T08:26:34Z</time>
      </trkpt>
      <trkpt lat="46.36312" lon="-1.45358">
        <ele>3.4</ele>
        <time>2020-06-03T08:26:35Z</time>
      </trkpt>
      <trkpt lat="46.36315" lon="-1.45365">
        <ele>3.5</ele>
        <time>2020-06-03T08:26:36Z</time>
      </trkpt>
      <trkpt lat="46.36319" lon="-1.45371">
        <ele>3.5</ele>
        <time>2020-06-03T08:26:37Z</time>
      </trkpt>
      <trkpt lat="46.36323" lon="-1.45377">
        <ele>3.5</ele>
        <time>2020-06-03T08:26:38Z</time>
      </trkpt>
      <trkpt lat="46.36327" lon="-1.45383">
        <ele>3.5</ele>
        <time>2020-06-03T08:26:39Z</time>
      </trkpt>
      <trkpt lat="46.36331" lon="-1.45388">
        <ele>3.5</ele>
        <time>2020-06-03T08:26:40Z</time>
      </trkpt>
      <trkpt lat="46.36334" lon="-1.45394">
        <ele>3.5</ele>
        <time>2020-06-03T08:26:41Z</time>
      </trkpt>
      <trkpt lat="46.36338" lon="-1.454">
        <ele>3.5</ele>
        <time>2020-06-03T08:26:42Z</time>
      </trkpt>
      <trkpt lat="46.36342" lon="-1.45406">
        <ele>3.5</ele>
        <time>2020-06-03T08:26:43Z</time>
      </trkpt>
      <trkpt lat="46.36345" lon="-1.45412">
        <ele>3.6</ele>
        <time>2020-06-03T08:26:44Z</time>
      </trkpt>
      <trkpt lat="46.36348" lon="-1.45418">
        <ele>3.6</ele>
        <time>2020-06-03T08:26:45Z</time>
      </trkpt>
      <trkpt lat="46.36351" lon="-1.45422">
        <ele>3.6</ele>
        <time>2020-06-03T08:26:46Z</time>
      </trkpt>
      <trkpt lat="46.36355" lon="-1.45428">
        <ele>3.6</ele>
        <time>2020-06-03T08:26:47Z</time>
      </trkpt>
      <trkpt lat="46.36358" lon="-1.45434">
        <ele>3.6</ele>
        <time>2020-06-03T08:26:48Z</time>
      </trkpt>
      <trkpt lat="46.36363" lon="-1.4544">
        <ele>3.6</ele>
        <time>2020-06-03T08:26:49Z</time>
      </trkpt>
      <trkpt lat="46.36366" lon="-1.45445">
        <ele>3.6</ele>
        <time>2020-06-03T08:26:50Z</time>
      </trkpt>
      <trkpt lat="46.3637" lon="-1.45451">
        <ele>3.6</ele>
        <time>2020-06-03T08:26:51Z</time>
      </trkpt>
      <trkpt lat="46.36373" lon="-1.45458">
        <ele>3.7</ele>
        <time>2020-06-03T08:26:52Z</time>
      </trkpt>
      <trkpt lat="46.36377" lon="-1.45464">
        <ele>3.7</ele>
        <time>2020-06-03T08:26:53Z</time>
      </trkpt>
      <trkpt lat="46.3638" lon="-1.4547">
        <ele>3.7</ele>
        <time>2020-06-03T08:26:54Z</time>
      </trkpt>
      <trkpt lat="46.36382" lon="-1.45475">
        <ele>3.7</ele>
        <time>2020-06-03T08:26:55Z</time>
      </trkpt>
      <trkpt lat="46.36386" lon="-1.45482">
        <ele>3.7</ele>
        <time>2020-06-03T08:26:56Z</time>
      </trkpt>
      <trkpt lat="46.36388" lon="-1.45488">
        <ele>3.7</ele>
        <time>2020-06-03T08:26:57Z</time>
      </trkpt>
      <trkpt lat="46.36391" lon="-1.45494">
        <ele>3.7</ele>
        <time>2020-06-03T08:26:58Z</time>
      </trkpt>
      <trkpt lat="46.36395" lon="-1.45501">
        <ele>3.7</ele>
        <time>2020-06-03T08:26:59Z</time>
      </trkpt>
      <trkpt lat="46.36399" lon="-1.45507">
        <ele>3.7</ele>
        <time>2020-06-03T08:27:00Z</time>
      </trkpt>
      <trkpt lat="46.36402" lon="-1.45513">
        <ele>3.7</ele>
        <time>2020-06-03T08:27:01Z</time>
      </trkpt>
      <trkpt lat="46.36406" lon="-1.45519">
        <ele>3.7</ele>
        <time>2020-06-03T08:27:02Z</time>
      </trkpt>
      <trkpt lat="46.3641" lon="-1.45525">
        <ele>3.8</ele>
        <time>2020-06-03T08:27:03Z</time>
      </trkpt>
      <trkpt lat="46.36414" lon="-1.45531">
        <ele>3.8</ele>
        <time>2020-06-03T08:27:04Z</time>
      </trkpt>
      <trkpt lat="46.36417" lon="-1.45537">
        <ele>3.8</ele>
        <time>2020-06-03T08:27:05Z</time>
      </trkpt>
      <trkpt lat="46.36422" lon="-1.45542">
        <ele>3.8</ele>
        <time>2020-06-03T08:27:06Z</time>
      </trkpt>
      <trkpt lat="46.36426" lon="-1.45548">
        <ele>3.8</ele>
        <time>2020-06-03T08:27:07Z</time>
      </trkpt>
      <trkpt lat="46.36429" lon="-1.45553">
        <ele>3.9</ele>
        <time>2020-06-03T08:27:08Z</time>
      </trkpt>
      <trkpt lat="46.36433" lon="-1.45558">
        <ele>3.9</ele>
        <time>2020-06-03T08:27:09Z</time>
      </trkpt>
      <trkpt lat="46.36436" lon="-1.45565">
        <ele>4</ele>
        <time>2020-06-03T08:27:10Z</time>
      </trkpt>
      <trkpt lat="46.36439" lon="-1.45571">
        <ele>4</ele>
        <time>2020-06-03T08:27:11Z</time>
      </trkpt>
      <trkpt lat="46.36443" lon="-1.45576">
        <ele>4</ele>
        <time>2020-06-03T08:27:12Z</time>
      </trkpt>
      <trkpt lat="46.36446" lon="-1.45581">
        <ele>4</ele>
        <time>2020-06-03T08:27:13Z</time>
      </trkpt>
      <trkpt lat="46.3645" lon="-1.45586">
        <ele>4</ele>
        <time>2020-06-03T08:27:14Z</time>
      </trkpt>
      <trkpt lat="46.36453" lon="-1.45591">
        <ele>4.1</ele>
        <time>2020-06-03T08:27:15Z</time>
      </trkpt>
      <trkpt lat="46.36456" lon="-1.45596">
        <ele>4.1</ele>
        <time>2020-06-03T08:27:16Z</time>
      </trkpt>
      <trkpt lat="46.3646" lon="-1.45601">
        <ele>4.1</ele>
        <time>2020-06-03T08:27:17Z</time>
      </trkpt>
      <trkpt lat="46.36464" lon="-1.45606">
        <ele>4.1</ele>
        <time>2020-06-03T08:27:18Z</time>
      </trkpt>
      <trkpt lat="46.36469" lon="-1.45611">
        <ele>4.1</ele>
        <time>2020-06-03T08:27:19Z</time>
      </trkpt>
      <trkpt lat="46.36474" lon="-1.45615">
        <ele>4.1</ele>
        <time>2020-06-03T08:27:20Z</time>
      </trkpt>
      <trkpt lat="46.36478" lon="-1.4562">
        <ele>4.1</ele>
        <time>2020-06-03T08:27:21Z</time>
      </trkpt>
      <trkpt lat="46.36482" lon="-1.45626">
        <ele>4.1</ele>
        <time>2020-06-03T08:27:22Z</time>
      </trkpt>
      <trkpt lat="46.36486" lon="-1.45632">
        <ele>4.2</ele>
        <time>2020-06-03T08:27:23Z</time>
      </trkpt>
      <trkpt lat="46.3649" lon="-1.45638">
        <ele>4.2</ele>
        <time>2020-06-03T08:27:24Z</time>
      </trkpt>
      <trkpt lat="46.36494" lon="-1.45643">
        <ele>4.2</ele>
        <time>2020-06-03T08:27:25Z</time>
      </trkpt>
      <trkpt lat="46.36498" lon="-1.45648">
        <ele>4.2</ele>
        <time>2020-06-03T08:27:26Z</time>
      </trkpt>
      <trkpt lat="46.36502" lon="-1.45652">
        <ele>4.2</ele>
        <time>2020-06-03T08:27:27Z</time>
      </trkpt>
      <trkpt lat="46.36506" lon="-1.45657">
        <ele>4.2</ele>
        <time>2020-06-03T08:27:28Z</time>
      </trkpt>
      <trkpt lat="46.3651" lon="-1.4566">
        <ele>4.2</ele>
        <time>2020-06-03T08:27:29Z</time>
      </trkpt>
      <trkpt lat="46.36514" lon="-1.45665">
        <ele>4.2</ele>
        <time>2020-06-03T08:27:30Z</time>
      </trkpt>
      <trkpt lat="46.36519" lon="-1.45669">
        <ele>4.2</ele>
        <time>2020-06-03T08:27:31Z</time>
      </trkpt>
      <trkpt lat="46.36524" lon="-1.45673">
        <ele>4.2</ele>
        <time>2020-06-03T08:27:32Z</time>
      </trkpt>
      <trkpt lat="46.36529" lon="-1.45678">
        <ele>4.2</ele>
        <time>2020-06-03T08:27:33Z</time>
      </trkpt>
      <trkpt lat="46.36533" lon="-1.45681">
        <ele>4.2</ele>
        <time>2020-06-03T08:27:34Z</time>
      </trkpt>
      <trkpt lat="46.36538" lon="-1.45684">
        <ele>4.2</ele>
        <time>2020-06-03T08:27:35Z</time>
      </trkpt>
      <trkpt lat="46.36542" lon="-1.45688">
        <ele>4.2</ele>
        <time>2020-06-03T08:27:36Z</time>
      </trkpt>
      <trkpt lat="46.36546" lon="-1.45692">
        <ele>4.2</ele>
        <time>2020-06-03T08:27:37Z</time>
      </trkpt>
      <trkpt lat="46.36551" lon="-1.45697">
        <ele>4.2</ele>
        <time>2020-06-03T08:27:38Z</time>
      </trkpt>
      <trkpt lat="46.36555" lon="-1.457">
        <ele>4.2</ele>
        <time>2020-06-03T08:27:39Z</time>
      </trkpt>
      <trkpt lat="46.3656" lon="-1.45705">
        <ele>4.2</ele>
        <time>2020-06-03T08:27:40Z</time>
      </trkpt>
      <trkpt lat="46.36564" lon="-1.4571">
        <ele>4.2</ele>
        <time>2020-06-03T08:27:41Z</time>
      </trkpt>
      <trkpt lat="46.36569" lon="-1.45714">
        <ele>4.2</ele>
        <time>2020-06-03T08:27:42Z</time>
      </trkpt>
      <trkpt lat="46.36573" lon="-1.45718">
        <ele>4.2</ele>
        <time>2020-06-03T08:27:43Z</time>
      </trkpt>
      <trkpt lat="46.36579" lon="-1.45724">
        <ele>4.2</ele>
        <time>2020-06-03T08:27:44Z</time>
      </trkpt>
      <trkpt lat="46.36584" lon="-1.45728">
        <ele>4.3</ele>
        <time>2020-06-03T08:27:45Z</time>
      </trkpt>
      <trkpt lat="46.36589" lon="-1.45732">
        <ele>4.3</ele>
        <time>2020-06-03T08:27:46Z</time>
      </trkpt>
      <trkpt lat="46.36595" lon="-1.45736">
        <ele>4.4</ele>
        <time>2020-06-03T08:27:47Z</time>
      </trkpt>
      <trkpt lat="46.366" lon="-1.4574">
        <ele>4.5</ele>
        <time>2020-06-03T08:27:48Z</time>
      </trkpt>
      <trkpt lat="46.36604" lon="-1.45744">
        <ele>4.6</ele>
        <time>2020-06-03T08:27:49Z</time>
      </trkpt>
      <trkpt lat="46.36608" lon="-1.45747">
        <ele>4.6</ele>
        <time>2020-06-03T08:27:50Z</time>
      </trkpt>
      <trkpt lat="46.36613" lon="-1.4575">
        <ele>4.7</ele>
        <time>2020-06-03T08:27:51Z</time>
      </trkpt>
      <trkpt lat="46.36617" lon="-1.45753">
        <ele>4.8</ele>
        <time>2020-06-03T08:27:52Z</time>
      </trkpt>
      <trkpt lat="46.36621" lon="-1.45756">
        <ele>4.9</ele>
        <time>2020-06-03T08:27:53Z</time>
      </trkpt>
      <trkpt lat="46.36625" lon="-1.45759">
        <ele>4.9</ele>
        <time>2020-06-03T08:27:54Z</time>
      </trkpt>
      <trkpt lat="46.36629" lon="-1.45763">
        <ele>5</ele>
        <time>2020-06-03T08:27:55Z</time>
      </trkpt>
      <trkpt lat="46.36633" lon="-1.45766">
        <ele>5</ele>
        <time>2020-06-03T08:27:56Z</time>
      </trkpt>
      <trkpt lat="46.36638" lon="-1.45769">
        <ele>5.1</ele>
        <time>2020-06-03T08:27:57Z</time>
      </trkpt>
      <trkpt lat="46.36642" lon="-1.45772">
        <ele>5.1</ele>
        <time>2020-06-03T08:27:58Z</time>
      </trkpt>
      <trkpt lat="46.36647" lon="-1.45776">
        <ele>5.1</ele>
        <time>2020-06-03T08:27:59Z</time>
      </trkpt>
      <trkpt lat="46.36652" lon="-1.4578">
        <ele>5.2</ele>
        <time>2020-06-03T08:28:00Z</time>
      </trkpt>
      <trkpt lat="46.36657" lon="-1.45783">
        <ele>5.2</ele>
        <time>2020-06-03T08:28:01Z</time>
      </trkpt>
      <trkpt lat="46.36661" lon="-1.45787">
        <ele>5.2</ele>
        <time>2020-06-03T08:28:02Z</time>
      </trkpt>
      <trkpt lat="46.36665" lon="-1.4579">
        <ele>5.2</ele>
        <time>2020-06-03T08:28:03Z</time>
      </trkpt>
      <trkpt lat="46.3667" lon="-1.45794">
        <ele>5.2</ele>
        <time>2020-06-03T08:28:04Z</time>
      </trkpt>
      <trkpt lat="46.36674" lon="-1.45797">
        <ele>5.2</ele>
        <time>2020-06-03T08:28:05Z</time>
      </trkpt>
      <trkpt lat="46.36679" lon="-1.45801">
        <ele>5.2</ele>
        <time>2020-06-03T08:28:06Z</time>
      </trkpt>
      <trkpt lat="46.36684" lon="-1.45804">
        <ele>5.3</ele>
        <time>2020-06-03T08:28:07Z</time>
      </trkpt>
      <trkpt lat="46.36689" lon="-1.45807">
        <ele>5.3</ele>
        <time>2020-06-03T08:28:08Z</time>
      </trkpt>
      <trkpt lat="46.36694" lon="-1.4581">
        <ele>5.3</ele>
        <time>2020-06-03T08:28:09Z</time>
      </trkpt>
      <trkpt lat="46.36699" lon="-1.45813">
        <ele>5.4</ele>
        <time>2020-06-03T08:28:10Z</time>
      </trkpt>
      <trkpt lat="46.36704" lon="-1.45816">
        <ele>5.5</ele>
        <time>2020-06-03T08:28:11Z</time>
      </trkpt>
      <trkpt lat="46.36709" lon="-1.4582">
        <ele>5.5</ele>
        <time>2020-06-03T08:28:12Z</time>
      </trkpt>
      <trkpt lat="46.36714" lon="-1.45823">
        <ele>5.6</ele>
        <time>2020-06-03T08:28:13Z</time>
      </trkpt>
      <trkpt lat="46.36719" lon="-1.45826">
        <ele>5.6</ele>
        <time>2020-06-03T08:28:14Z</time>
      </trkpt>
      <trkpt lat="46.36724" lon="-1.45829">
        <ele>5.7</ele>
        <time>2020-06-03T08:28:15Z</time>
      </trkpt>
      <trkpt lat="46.36729" lon="-1.45832">
        <ele>5.7</ele>
        <time>2020-06-03T08:28:16Z</time>
      </trkpt>
      <trkpt lat="46.36733" lon="-1.45835">
        <ele>5.7</ele>
        <time>2020-06-03T08:28:17Z</time>
      </trkpt>
      <trkpt lat="46.36738" lon="-1.45838">
        <ele>5.7</ele>
        <time>2020-06-03T08:28:18Z</time>
      </trkpt>
      <trkpt lat="46.36742" lon="-1.45842">
        <ele>5.7</ele>
        <time>2020-06-03T08:28:19Z</time>
      </trkpt>
      <trkpt lat="46.36747" lon="-1.45845">
        <ele>5.8</ele>
        <time>2020-06-03T08:28:20Z</time>
      </trkpt>
      <trkpt lat="46.36752" lon="-1.45848">
        <ele>5.9</ele>
        <time>2020-06-03T08:28:21Z</time>
      </trkpt>
      <trkpt lat="46.36757" lon="-1.4585">
        <ele>6</ele>
        <time>2020-06-03T08:28:22Z</time>
      </trkpt>
      <trkpt lat="46.36762" lon="-1.45853">
        <ele>6</ele>
        <time>2020-06-03T08:28:23Z</time>
      </trkpt>
      <trkpt lat="46.36766" lon="-1.45855">
        <ele>6.1</ele>
        <time>2020-06-03T08:28:24Z</time>
      </trkpt>
      <trkpt lat="46.36772" lon="-1.45858">
        <ele>6.2</ele>
        <time>2020-06-03T08:28:25Z</time>
      </trkpt>
      <trkpt lat="46.36778" lon="-1.45861">
        <ele>6.4</ele>
        <time>2020-06-03T08:28:26Z</time>
      </trkpt>
      <trkpt lat="46.36782" lon="-1.45864">
        <ele>6.5</ele>
        <time>2020-06-03T08:28:27Z</time>
      </trkpt>
      <trkpt lat="46.36787" lon="-1.45867">
        <ele>6.6</ele>
        <time>2020-06-03T08:28:28Z</time>
      </trkpt>
      <trkpt lat="46.36792" lon="-1.4587">
        <ele>6.7</ele>
        <time>2020-06-03T08:28:29Z</time>
      </trkpt>
      <trkpt lat="46.36796" lon="-1.45872">
        <ele>6.8</ele>
        <time>2020-06-03T08:28:30Z</time>
      </trkpt>
      <trkpt lat="46.36801" lon="-1.45875">
        <ele>6.9</ele>
        <time>2020-06-03T08:28:31Z</time>
      </trkpt>
      <trkpt lat="46.36805" lon="-1.45878">
        <ele>6.9</ele>
        <time>2020-06-03T08:28:32Z</time>
      </trkpt>
      <trkpt lat="46.3681" lon="-1.4588">
        <ele>7</ele>
        <time>2020-06-03T08:28:33Z</time>
      </trkpt>
      <trkpt lat="46.36815" lon="-1.45883">
        <ele>7</ele>
        <time>2020-06-03T08:28:34Z</time>
      </trkpt>
      <trkpt lat="46.36819" lon="-1.45885">
        <ele>7.1</ele>
        <time>2020-06-03T08:28:35Z</time>
      </trkpt>
      <trkpt lat="46.36824" lon="-1.45888">
        <ele>7.1</ele>
        <time>2020-06-03T08:28:36Z</time>
      </trkpt>
      <trkpt lat="46.36827" lon="-1.45892">
        <ele>7.1</ele>
        <time>2020-06-03T08:28:37Z</time>
      </trkpt>
      <trkpt lat="46.36832" lon="-1.45894">
        <ele>7.2</ele>
        <time>2020-06-03T08:28:38Z</time>
      </trkpt>
      <trkpt lat="46.36836" lon="-1.45898">
        <ele>7.2</ele>
        <time>2020-06-03T08:28:39Z</time>
      </trkpt>
      <trkpt lat="46.3684" lon="-1.45901">
        <ele>7.2</ele>
        <time>2020-06-03T08:28:40Z</time>
      </trkpt>
      <trkpt lat="46.36845" lon="-1.45904">
        <ele>7.3</ele>
        <time>2020-06-03T08:28:41Z</time>
      </trkpt>
      <trkpt lat="46.3685" lon="-1.45909">
        <ele>7.3</ele>
        <time>2020-06-03T08:28:42Z</time>
      </trkpt>
      <trkpt lat="46.36855" lon="-1.45913">
        <ele>7.4</ele>
        <time>2020-06-03T08:28:43Z</time>
      </trkpt>
      <trkpt lat="46.36861" lon="-1.45917">
        <ele>7.4</ele>
        <time>2020-06-03T08:28:44Z</time>
      </trkpt>
      <trkpt lat="46.36866" lon="-1.45921">
        <ele>7.5</ele>
        <time>2020-06-03T08:28:45Z</time>
      </trkpt>
      <trkpt lat="46.36871" lon="-1.45925">
        <ele>7.6</ele>
        <time>2020-06-03T08:28:46Z</time>
      </trkpt>
      <trkpt lat="46.36875" lon="-1.45931">
        <ele>7.7</ele>
        <time>2020-06-03T08:28:47Z</time>
      </trkpt>
      <trkpt lat="46.36879" lon="-1.45936">
        <ele>7.8</ele>
        <time>2020-06-03T08:28:48Z</time>
      </trkpt>
      <trkpt lat="46.36883" lon="-1.45941">
        <ele>7.9</ele>
        <time>2020-06-03T08:28:49Z</time>
      </trkpt>
      <trkpt lat="46.36888" lon="-1.45946">
        <ele>8.1</ele>
        <time>2020-06-03T08:28:50Z</time>
      </trkpt>
      <trkpt lat="46.36892" lon="-1.4595">
        <ele>8.2</ele>
        <time>2020-06-03T08:28:51Z</time>
      </trkpt>
      <trkpt lat="46.36895" lon="-1.45954">
        <ele>8.4</ele>
        <time>2020-06-03T08:28:52Z</time>
      </trkpt>
      <trkpt lat="46.369" lon="-1.45958">
        <ele>8.5</ele>
        <time>2020-06-03T08:28:53Z</time>
      </trkpt>
      <trkpt lat="46.36904" lon="-1.45961">
        <ele>8.7</ele>
        <time>2020-06-03T08:28:54Z</time>
      </trkpt>
      <trkpt lat="46.36908" lon="-1.45964">
        <ele>8.9</ele>
        <time>2020-06-03T08:28:55Z</time>
      </trkpt>
      <trkpt lat="46.36911" lon="-1.45967">
        <ele>9.1</ele>
        <time>2020-06-03T08:28:56Z</time>
      </trkpt>
      <trkpt lat="46.36916" lon="-1.4597">
        <ele>9.3</ele>
        <time>2020-06-03T08:28:57Z</time>
      </trkpt>
      <trkpt lat="46.3692" lon="-1.45973">
        <ele>9.4</ele>
        <time>2020-06-03T08:28:58Z</time>
      </trkpt>
      <trkpt lat="46.36924" lon="-1.45975">
        <ele>9.6</ele>
        <time>2020-06-03T08:28:59Z</time>
      </trkpt>
      <trkpt lat="46.36927" lon="-1.45977">
        <ele>9.7</ele>
        <time>2020-06-03T08:29:00Z</time>
      </trkpt>
      <trkpt lat="46.36931" lon="-1.4598">
        <ele>9.9</ele>
        <time>2020-06-03T08:29:01Z</time>
      </trkpt>
      <trkpt lat="46.36935" lon="-1.45982">
        <ele>10</ele>
        <time>2020-06-03T08:29:02Z</time>
      </trkpt>
      <trkpt lat="46.36939" lon="-1.45984">
        <ele>10.1</ele>
        <time>2020-06-03T08:29:03Z</time>
      </trkpt>
      <trkpt lat="46.36942" lon="-1.45985">
        <ele>10.2</ele>
        <time>2020-06-03T08:29:04Z</time>
      </trkpt>
      <trkpt lat="46.36946" lon="-1.45985">
        <ele>10.3</ele>
        <time>2020-06-03T08:29:05Z</time>
      </trkpt>
      <trkpt lat="46.3695" lon="-1.45985">
        <ele>10.5</ele>
        <time>2020-06-03T08:29:06Z</time>
      </trkpt>
      <trkpt lat="46.36955" lon="-1.45986">
        <ele>10.6</ele>
        <time>2020-06-03T08:29:07Z</time>
      </trkpt>
      <trkpt lat="46.36959" lon="-1.45987">
        <ele>10.7</ele>
        <time>2020-06-03T08:29:08Z</time>
      </trkpt>
      <trkpt lat="46.36963" lon="-1.45988">
        <ele>10.8</ele>
        <time>2020-06-03T08:29:09Z</time>
      </trkpt>
      <trkpt lat="46.36969" lon="-1.45988">
        <ele>10.8</ele>
        <time>2020-06-03T08:29:10Z</time>
      </trkpt>
      <trkpt lat="46.36973" lon="-1.4599">
        <ele>10.9</ele>
        <time>2020-06-03T08:29:11Z</time>
      </trkpt>
      <trkpt lat="46.36978" lon="-1.45991">
        <ele>11</ele>
        <time>2020-06-03T08:29:12Z</time>
      </trkpt>
      <trkpt lat="46.36982" lon="-1.45994">
        <ele>11</ele>
        <time>2020-06-03T08:29:13Z</time>
      </trkpt>
      <trkpt lat="46.36987" lon="-1.45996">
        <ele>11.1</ele>
        <time>2020-06-03T08:29:14Z</time>
      </trkpt>
      <trkpt lat="46.36992" lon="-1.45998">
        <ele>11.1</ele>
        <time>2020-06-03T08:29:15Z</time>
      </trkpt>
      <trkpt lat="46.36997" lon="-1.46001">
        <ele>11.2</ele>
        <time>2020-06-03T08:29:16Z</time>
      </trkpt>
      <trkpt lat="46.37003" lon="-1.46003">
        <ele>11.2</ele>
        <time>2020-06-03T08:29:17Z</time>
      </trkpt>
      <trkpt lat="46.37008" lon="-1.46007">
        <ele>11.2</ele>
        <time>2020-06-03T08:29:18Z</time>
      </trkpt>
      <trkpt lat="46.37013" lon="-1.4601">
        <ele>11.3</ele>
        <time>2020-06-03T08:29:19Z</time>
      </trkpt>
      <trkpt lat="46.37018" lon="-1.46012">
        <ele>11.3</ele>
        <time>2020-06-03T08:29:20Z</time>
      </trkpt>
      <trkpt lat="46.37023" lon="-1.46015">
        <ele>11.3</ele>
        <time>2020-06-03T08:29:21Z</time>
      </trkpt>
      <trkpt lat="46.37028" lon="-1.46017">
        <ele>11.3</ele>
        <time>2020-06-03T08:29:22Z</time>
      </trkpt>
      <trkpt lat="46.37033" lon="-1.4602">
        <ele>11.4</ele>
        <time>2020-06-03T08:29:23Z</time>
      </trkpt>
      <trkpt lat="46.37038" lon="-1.46023">
        <ele>11.4</ele>
        <time>2020-06-03T08:29:24Z</time>
      </trkpt>
      <trkpt lat="46.37043" lon="-1.46026">
        <ele>11.4</ele>
        <time>2020-06-03T08:29:25Z</time>
      </trkpt>
      <trkpt lat="46.37048" lon="-1.46028">
        <ele>11.4</ele>
        <time>2020-06-03T08:29:26Z</time>
      </trkpt>
      <trkpt lat="46.37054" lon="-1.46031">
        <ele>11.4</ele>
        <time>2020-06-03T08:29:27Z</time>
      </trkpt>
      <trkpt lat="46.37058" lon="-1.46034">
        <ele>11.4</ele>
        <time>2020-06-03T08:29:28Z</time>
      </trkpt>
      <trkpt lat="46.37063" lon="-1.46038">
        <ele>11.4</ele>
        <time>2020-06-03T08:29:29Z</time>
      </trkpt>
      <trkpt lat="46.37068" lon="-1.46041">
        <ele>11.4</ele>
        <time>2020-06-03T08:29:30Z</time>
      </trkpt>
      <trkpt lat="46.37073" lon="-1.46045">
        <ele>11.4</ele>
        <time>2020-06-03T08:29:31Z</time>
      </trkpt>
      <trkpt lat="46.37079" lon="-1.46047">
        <ele>11.5</ele>
        <time>2020-06-03T08:29:32Z</time>
      </trkpt>
      <trkpt lat="46.37084" lon="-1.4605">
        <ele>11.5</ele>
        <time>2020-06-03T08:29:33Z</time>
      </trkpt>
      <trkpt lat="46.3709" lon="-1.46054">
        <ele>11.5</ele>
        <time>2020-06-03T08:29:34Z</time>
      </trkpt>
      <trkpt lat="46.37096" lon="-1.46057">
        <ele>11.5</ele>
        <time>2020-06-03T08:29:35Z</time>
      </trkpt>
      <trkpt lat="46.37101" lon="-1.46061">
        <ele>11.5</ele>
        <time>2020-06-03T08:29:36Z</time>
      </trkpt>
      <trkpt lat="46.37107" lon="-1.46064">
        <ele>11.5</ele>
        <time>2020-06-03T08:29:37Z</time>
      </trkpt>
      <trkpt lat="46.37112" lon="-1.46067">
        <ele>11.5</ele>
        <time>2020-06-03T08:29:38Z</time>
      </trkpt>
      <trkpt lat="46.37116" lon="-1.46071">
        <ele>11.5</ele>
        <time>2020-06-03T08:29:39Z</time>
      </trkpt>
      <trkpt lat="46.37121" lon="-1.46074">
        <ele>11.5</ele>
        <time>2020-06-03T08:29:40Z</time>
      </trkpt>
      <trkpt lat="46.37126" lon="-1.46077">
        <ele>11.4</ele>
        <time>2020-06-03T08:29:41Z</time>
      </trkpt>
      <trkpt lat="46.37131" lon="-1.4608">
        <ele>11.4</ele>
        <time>2020-06-03T08:29:42Z</time>
      </trkpt>
      <trkpt lat="46.37137" lon="-1.46083">
        <ele>11.4</ele>
        <time>2020-06-03T08:29:43Z</time>
      </trkpt>
      <trkpt lat="46.37142" lon="-1.46085">
        <ele>11.3</ele>
        <time>2020-06-03T08:29:44Z</time>
      </trkpt>
      <trkpt lat="46.37146" lon="-1.46091">
        <ele>11.3</ele>
        <time>2020-06-03T08:29:45Z</time>
      </trkpt>
      <trkpt lat="46.3715" lon="-1.46096">
        <ele>11.2</ele>
        <time>2020-06-03T08:29:46Z</time>
      </trkpt>
      <trkpt lat="46.37153" lon="-1.46101">
        <ele>11.2</ele>
        <time>2020-06-03T08:29:47Z</time>
      </trkpt>
      <trkpt lat="46.37157" lon="-1.46104">
        <ele>11.1</ele>
        <time>2020-06-03T08:29:48Z</time>
      </trkpt>
      <trkpt lat="46.3716" lon="-1.46108">
        <ele>11</ele>
        <time>2020-06-03T08:29:49Z</time>
      </trkpt>
      <trkpt lat="46.37165" lon="-1.46111">
        <ele>10.9</ele>
        <time>2020-06-03T08:29:50Z</time>
      </trkpt>
      <trkpt lat="46.37168" lon="-1.46114">
        <ele>10.8</ele>
        <time>2020-06-03T08:29:51Z</time>
      </trkpt>
      <trkpt lat="46.37171" lon="-1.46118">
        <ele>10.7</ele>
        <time>2020-06-03T08:29:52Z</time>
      </trkpt>
      <trkpt lat="46.37175" lon="-1.46122">
        <ele>10.5</ele>
        <time>2020-06-03T08:29:53Z</time>
      </trkpt>
      <trkpt lat="46.3718" lon="-1.46125">
        <ele>10.2</ele>
        <time>2020-06-03T08:29:54Z</time>
      </trkpt>
      <trkpt lat="46.37184" lon="-1.46129">
        <ele>10</ele>
        <time>2020-06-03T08:29:55Z</time>
      </trkpt>
      <trkpt lat="46.37189" lon="-1.46134">
        <ele>9.8</ele>
        <time>2020-06-03T08:29:56Z</time>
      </trkpt>
      <trkpt lat="46.37195" lon="-1.46139">
        <ele>9.5</ele>
        <time>2020-06-03T08:29:57Z</time>
      </trkpt>
      <trkpt lat="46.372" lon="-1.46145">
        <ele>9.3</ele>
        <time>2020-06-03T08:29:58Z</time>
      </trkpt>
      <trkpt lat="46.37206" lon="-1.4615">
        <ele>9</ele>
        <time>2020-06-03T08:29:59Z</time>
      </trkpt>
      <trkpt lat="46.37212" lon="-1.46158">
        <ele>8.7</ele>
        <time>2020-06-03T08:30:00Z</time>
      </trkpt>
      <trkpt lat="46.37217" lon="-1.46166">
        <ele>8.5</ele>
        <time>2020-06-03T08:30:01Z</time>
      </trkpt>
      <trkpt lat="46.37223" lon="-1.46174">
        <ele>8.3</ele>
        <time>2020-06-03T08:30:02Z</time>
      </trkpt>
      <trkpt lat="46.3723" lon="-1.46178">
        <ele>8.2</ele>
        <time>2020-06-03T08:30:03Z</time>
      </trkpt>
      <trkpt lat="46.37236" lon="-1.46183">
        <ele>8.2</ele>
        <time>2020-06-03T08:30:04Z</time>
      </trkpt>
      <trkpt lat="46.37242" lon="-1.46189">
        <ele>8.2</ele>
        <time>2020-06-03T08:30:05Z</time>
      </trkpt>
      <trkpt lat="46.37247" lon="-1.46194">
        <ele>8.3</ele>
        <time>2020-06-03T08:30:06Z</time>
      </trkpt>
      <trkpt lat="46.37254" lon="-1.46199">
        <ele>8.3</ele>
        <time>2020-06-03T08:30:07Z</time>
      </trkpt>
      <trkpt lat="46.3726" lon="-1.46203">
        <ele>8.4</ele>
        <time>2020-06-03T08:30:08Z</time>
      </trkpt>
      <trkpt lat="46.37267" lon="-1.46208">
        <ele>8.5</ele>
        <time>2020-06-03T08:30:09Z</time>
      </trkpt>
      <trkpt lat="46.37274" lon="-1.46214">
        <ele>8.5</ele>
        <time>2020-06-03T08:30:10Z</time>
      </trkpt>
      <trkpt lat="46.3728" lon="-1.46219">
        <ele>8.6</ele>
        <time>2020-06-03T08:30:11Z</time>
      </trkpt>
      <trkpt lat="46.37286" lon="-1.46224">
        <ele>8.7</ele>
        <time>2020-06-03T08:30:12Z</time>
      </trkpt>
      <trkpt lat="46.37291" lon="-1.46228">
        <ele>8.7</ele>
        <time>2020-06-03T08:30:13Z</time>
      </trkpt>
      <trkpt lat="46.37297" lon="-1.46231">
        <ele>8.8</ele>
        <time>2020-06-03T08:30:14Z</time>
      </trkpt>
      <trkpt lat="46.37304" lon="-1.46233">
        <ele>8.9</ele>
        <time>2020-06-03T08:30:15Z</time>
      </trkpt>
      <trkpt lat="46.3731" lon="-1.46236">
        <ele>9</ele>
        <time>2020-06-03T08:30:16Z</time>
      </trkpt>
      <trkpt lat="46.37316" lon="-1.46238">
        <ele>9.1</ele>
        <time>2020-06-03T08:30:17Z</time>
      </trkpt>
      <trkpt lat="46.37322" lon="-1.46239">
        <ele>9.2</ele>
        <time>2020-06-03T08:30:18Z</time>
      </trkpt>
      <trkpt lat="46.37327" lon="-1.4624">
        <ele>9.3</ele>
        <time>2020-06-03T08:30:19Z</time>
      </trkpt>
      <trkpt lat="46.37332" lon="-1.46241">
        <ele>9.4</ele>
        <time>2020-06-03T08:30:20Z</time>
      </trkpt>
      <trkpt lat="46.37335" lon="-1.46242">
        <ele>9.4</ele>
        <time>2020-06-03T08:30:21Z</time>
      </trkpt>
      <trkpt lat="46.37338" lon="-1.46245">
        <ele>9.5</ele>
        <time>2020-06-03T08:30:22Z</time>
      </trkpt>
      <trkpt lat="46.3734" lon="-1.4625">
        <ele>9.4</ele>
        <time>2020-06-03T08:30:23Z</time>
      </trkpt>
      <trkpt lat="46.37341" lon="-1.46259">
        <ele>9.3</ele>
        <time>2020-06-03T08:30:24Z</time>
      </trkpt>
      <trkpt lat="46.37341" lon="-1.46266">
        <ele>9.3</ele>
        <time>2020-06-03T08:30:25Z</time>
      </trkpt>
      <trkpt lat="46.37342" lon="-1.46274">
        <ele>9.2</ele>
        <time>2020-06-03T08:30:26Z</time>
      </trkpt>
      <trkpt lat="46.37342" lon="-1.46281">
        <ele>9.1</ele>
        <time>2020-06-03T08:30:27Z</time>
      </trkpt>
      <trkpt lat="46.37342" lon="-1.46289">
        <ele>9.1</ele>
        <time>2020-06-03T08:30:28Z</time>
      </trkpt>
      <trkpt lat="46.37343" lon="-1.46297">
        <ele>9</ele>
        <time>2020-06-03T08:30:29Z</time>
      </trkpt>
      <trkpt lat="46.37342" lon="-1.46305">
        <ele>9</ele>
        <time>2020-06-03T08:30:30Z</time>
      </trkpt>
      <trkpt lat="46.37343" lon="-1.46314">
        <ele>8.9</ele>
        <time>2020-06-03T08:30:31Z</time>
      </trkpt>
      <trkpt lat="46.37343" lon="-1.46322">
        <ele>8.9</ele>
        <time>2020-06-03T08:30:32Z</time>
      </trkpt>
      <trkpt lat="46.37345" lon="-1.46329">
        <ele>8.9</ele>
        <time>2020-06-03T08:30:33Z</time>
      </trkpt>
      <trkpt lat="46.37346" lon="-1.46337">
        <ele>8.8</ele>
        <time>2020-06-03T08:30:34Z</time>
      </trkpt>
      <trkpt lat="46.37348" lon="-1.46345">
        <ele>8.8</ele>
        <time>2020-06-03T08:30:35Z</time>
      </trkpt>
      <trkpt lat="46.37349" lon="-1.46353">
        <ele>8.7</ele>
        <time>2020-06-03T08:30:36Z</time>
      </trkpt>
      <trkpt lat="46.3735" lon="-1.4636">
        <ele>8.7</ele>
        <time>2020-06-03T08:30:37Z</time>
      </trkpt>
      <trkpt lat="46.3735" lon="-1.46366">
        <ele>8.7</ele>
        <time>2020-06-03T08:30:38Z</time>
      </trkpt>
      <trkpt lat="46.37351" lon="-1.46374">
        <ele>8.7</ele>
        <time>2020-06-03T08:30:39Z</time>
      </trkpt>
      <trkpt lat="46.37352" lon="-1.4638">
        <ele>8.7</ele>
        <time>2020-06-03T08:30:40Z</time>
      </trkpt>
      <trkpt lat="46.37354" lon="-1.46388">
        <ele>8.7</ele>
        <time>2020-06-03T08:30:41Z</time>
      </trkpt>
      <trkpt lat="46.37356" lon="-1.46394">
        <ele>8.7</ele>
        <time>2020-06-03T08:30:42Z</time>
      </trkpt>
      <trkpt lat="46.37358" lon="-1.46399">
        <ele>8.7</ele>
        <time>2020-06-03T08:30:43Z</time>
      </trkpt>
      <trkpt lat="46.3736" lon="-1.46405">
        <ele>8.6</ele>
        <time>2020-06-03T08:30:44Z</time>
      </trkpt>
      <trkpt lat="46.37363" lon="-1.4641">
        <ele>8.6</ele>
        <time>2020-06-03T08:30:45Z</time>
      </trkpt>
      <trkpt lat="46.37365" lon="-1.46415">
        <ele>8.6</ele>
        <time>2020-06-03T08:30:46Z</time>
      </trkpt>
      <trkpt lat="46.37367" lon="-1.46419">
        <ele>8.6</ele>
        <time>2020-06-03T08:30:47Z</time>
      </trkpt>
      <trkpt lat="46.37369" lon="-1.46425">
        <ele>8.6</ele>
        <time>2020-06-03T08:30:48Z</time>
      </trkpt>
      <trkpt lat="46.37369" lon="-1.46428">
        <ele>8.6</ele>
        <time>2020-06-03T08:30:49Z</time>
      </trkpt>
      <trkpt lat="46.37369" lon="-1.46432">
        <ele>8.6</ele>
        <time>2020-06-03T08:30:50Z</time>
      </trkpt>
      <trkpt lat="46.37369" lon="-1.46437">
        <ele>8.7</ele>
        <time>2020-06-03T08:30:51Z</time>
      </trkpt>
      <trkpt lat="46.37369" lon="-1.46441">
        <ele>8.7</ele>
        <time>2020-06-03T08:30:52Z</time>
      </trkpt>
      <trkpt lat="46.3737" lon="-1.46446">
        <ele>8.7</ele>
        <time>2020-06-03T08:30:53Z</time>
      </trkpt>
      <trkpt lat="46.3737" lon="-1.46452">
        <ele>8.7</ele>
        <time>2020-06-03T08:30:54Z</time>
      </trkpt>
      <trkpt lat="46.37371" lon="-1.46457">
        <ele>8.7</ele>
        <time>2020-06-03T08:30:55Z</time>
      </trkpt>
      <trkpt lat="46.37371" lon="-1.46462">
        <ele>8.7</ele>
        <time>2020-06-03T08:30:56Z</time>
      </trkpt>
      <trkpt lat="46.37372" lon="-1.46467">
        <ele>8.7</ele>
        <time>2020-06-03T08:30:57Z</time>
      </trkpt>
      <trkpt lat="46.37373" lon="-1.46472">
        <ele>8.6</ele>
        <time>2020-06-03T08:30:58Z</time>
      </trkpt>
      <trkpt lat="46.37373" lon="-1.46476">
        <ele>8.6</ele>
        <time>2020-06-03T08:30:59Z</time>
      </trkpt>
      <trkpt lat="46.37372" lon="-1.46483">
        <ele>8.6</ele>
        <time>2020-06-03T08:31:00Z</time>
      </trkpt>
      <trkpt lat="46.37372" lon="-1.46488">
        <ele>8.6</ele>
        <time>2020-06-03T08:31:01Z</time>
      </trkpt>
      <trkpt lat="46.37373" lon="-1.46493">
        <ele>8.6</ele>
        <time>2020-06-03T08:31:02Z</time>
      </trkpt>
      <trkpt lat="46.37374" lon="-1.46501">
        <ele>8.6</ele>
        <time>2020-06-03T08:31:03Z</time>
      </trkpt>
      <trkpt lat="46.37376" lon="-1.46508">
        <ele>8.6</ele>
        <time>2020-06-03T08:31:04Z</time>
      </trkpt>
      <trkpt lat="46.37377" lon="-1.46515">
        <ele>8.6</ele>
        <time>2020-06-03T08:31:05Z</time>
      </trkpt>
      <trkpt lat="46.37378" lon="-1.46522">
        <ele>8.6</ele>
        <time>2020-06-03T08:31:06Z</time>
      </trkpt>
      <trkpt lat="46.37378" lon="-1.4653">
        <ele>8.6</ele>
        <time>2020-06-03T08:31:07Z</time>
      </trkpt>
      <trkpt lat="46.37379" lon="-1.46536">
        <ele>8.5</ele>
        <time>2020-06-03T08:31:08Z</time>
      </trkpt>
      <trkpt lat="46.3738" lon="-1.46541">
        <ele>8.5</ele>
        <time>2020-06-03T08:31:09Z</time>
      </trkpt>
      <trkpt lat="46.37381" lon="-1.46547">
        <ele>8.5</ele>
        <time>2020-06-03T08:31:10Z</time>
      </trkpt>
      <trkpt lat="46.37382" lon="-1.46553">
        <ele>8.5</ele>
        <time>2020-06-03T08:31:11Z</time>
      </trkpt>
      <trkpt lat="46.37383" lon="-1.4656">
        <ele>8.4</ele>
        <time>2020-06-03T08:31:12Z</time>
      </trkpt>
      <trkpt lat="46.37383" lon="-1.46566">
        <ele>8.4</ele>
        <time>2020-06-03T08:31:13Z</time>
      </trkpt>
      <trkpt lat="46.37384" lon="-1.46573">
        <ele>8.3</ele>
        <time>2020-06-03T08:31:14Z</time>
      </trkpt>
      <trkpt lat="46.37384" lon="-1.4658">
        <ele>8.3</ele>
        <time>2020-06-03T08:31:15Z</time>
      </trkpt>
      <trkpt lat="46.37384" lon="-1.46586">
        <ele>8.3</ele>
        <time>2020-06-03T08:31:16Z</time>
      </trkpt>
      <trkpt lat="46.37384" lon="-1.46594">
        <ele>8.3</ele>
        <time>2020-06-03T08:31:17Z</time>
      </trkpt>
      <trkpt lat="46.37383" lon="-1.46602">
        <ele>8.2</ele>
        <time>2020-06-03T08:31:18Z</time>
      </trkpt>
      <trkpt lat="46.37382" lon="-1.46611">
        <ele>8.2</ele>
        <time>2020-06-03T08:31:19Z</time>
      </trkpt>
      <trkpt lat="46.37382" lon="-1.46618">
        <ele>8.2</ele>
        <time>2020-06-03T08:31:20Z</time>
      </trkpt>
      <trkpt lat="46.37381" lon="-1.46625">
        <ele>8.2</ele>
        <time>2020-06-03T08:31:21Z</time>
      </trkpt>
      <trkpt lat="46.3738" lon="-1.46631">
        <ele>8.1</ele>
        <time>2020-06-03T08:31:22Z</time>
      </trkpt>
      <trkpt lat="46.37379" lon="-1.46639">
        <ele>8.1</ele>
        <time>2020-06-03T08:31:23Z</time>
      </trkpt>
      <trkpt lat="46.37378" lon="-1.46646">
        <ele>8.1</ele>
        <time>2020-06-03T08:31:24Z</time>
      </trkpt>
      <trkpt lat="46.37378" lon="-1.46653">
        <ele>8</ele>
        <time>2020-06-03T08:31:25Z</time>
      </trkpt>
      <trkpt lat="46.37378" lon="-1.4666">
        <ele>8</ele>
        <time>2020-06-03T08:31:26Z</time>
      </trkpt>
      <trkpt lat="46.37379" lon="-1.46665">
        <ele>8</ele>
        <time>2020-06-03T08:31:27Z</time>
      </trkpt>
      <trkpt lat="46.37381" lon="-1.4667">
        <ele>7.9</ele>
        <time>2020-06-03T08:31:28Z</time>
      </trkpt>
      <trkpt lat="46.37382" lon="-1.46675">
        <ele>7.9</ele>
        <time>2020-06-03T08:31:29Z</time>
      </trkpt>
      <trkpt lat="46.37386" lon="-1.46677">
        <ele>7.9</ele>
        <time>2020-06-03T08:31:30Z</time>
      </trkpt>
      <trkpt lat="46.37387" lon="-1.46678">
        <ele>7.8</ele>
        <time>2020-06-03T08:31:31Z</time>
      </trkpt>
      <trkpt lat="46.37391" lon="-1.46679">
        <ele>7.8</ele>
        <time>2020-06-03T08:31:32Z</time>
      </trkpt>
      <trkpt lat="46.37395" lon="-1.4668">
        <ele>7.7</ele>
        <time>2020-06-03T08:31:33Z</time>
      </trkpt>
      <trkpt lat="46.37399" lon="-1.46682">
        <ele>7.6</ele>
        <time>2020-06-03T08:31:34Z</time>
      </trkpt>
      <trkpt lat="46.37405" lon="-1.46682">
        <ele>7.6</ele>
        <time>2020-06-03T08:31:35Z</time>
      </trkpt>
      <trkpt lat="46.3741" lon="-1.4668">
        <ele>7.5</ele>
        <time>2020-06-03T08:31:36Z</time>
      </trkpt>
      <trkpt lat="46.37416" lon="-1.46677">
        <ele>7.4</ele>
        <time>2020-06-03T08:31:37Z</time>
      </trkpt>
      <trkpt lat="46.37421" lon="-1.46675">
        <ele>7.4</ele>
        <time>2020-06-03T08:31:38Z</time>
      </trkpt>
      <trkpt lat="46.37425" lon="-1.46674">
        <ele>7.4</ele>
        <time>2020-06-03T08:31:39Z</time>
      </trkpt>
      <trkpt lat="46.37429" lon="-1.46672">
        <ele>7.4</ele>
        <time>2020-06-03T08:31:40Z</time>
      </trkpt>
      <trkpt lat="46.37434" lon="-1.46669">
        <ele>7.4</ele>
        <time>2020-06-03T08:31:41Z</time>
      </trkpt>
      <trkpt lat="46.3744" lon="-1.46666">
        <ele>7.4</ele>
        <time>2020-06-03T08:31:42Z</time>
      </trkpt>
      <trkpt lat="46.37445" lon="-1.46663">
        <ele>7.4</ele>
        <time>2020-06-03T08:31:43Z</time>
      </trkpt>
      <trkpt lat="46.3745" lon="-1.46661">
        <ele>7.4</ele>
        <time>2020-06-03T08:31:44Z</time>
      </trkpt>
      <trkpt lat="46.37454" lon="-1.46659">
        <ele>7.4</ele>
        <time>2020-06-03T08:31:45Z</time>
      </trkpt>
      <trkpt lat="46.37458" lon="-1.46657">
        <ele>7.4</ele>
        <time>2020-06-03T08:31:46Z</time>
      </trkpt>
      <trkpt lat="46.37463" lon="-1.46655">
        <ele>7.4</ele>
        <time>2020-06-03T08:31:47Z</time>
      </trkpt>
      <trkpt lat="46.37467" lon="-1.46653">
        <ele>7.4</ele>
        <time>2020-06-03T08:31:48Z</time>
      </trkpt>
      <trkpt lat="46.37473" lon="-1.46652">
        <ele>7.4</ele>
        <time>2020-06-03T08:31:49Z</time>
      </trkpt>
      <trkpt lat="46.37478" lon="-1.4665">
        <ele>7.4</ele>
        <time>2020-06-03T08:31:50Z</time>
      </trkpt>
      <trkpt lat="46.37484" lon="-1.46648">
        <ele>7.4</ele>
        <time>2020-06-03T08:31:51Z</time>
      </trkpt>
      <trkpt lat="46.37489" lon="-1.46646">
        <ele>7.4</ele>
        <time>2020-06-03T08:31:52Z</time>
      </trkpt>
      <trkpt lat="46.37494" lon="-1.46644">
        <ele>7.4</ele>
        <time>2020-06-03T08:31:53Z</time>
      </trkpt>
      <trkpt lat="46.37499" lon="-1.46641">
        <ele>7.4</ele>
        <time>2020-06-03T08:31:54Z</time>
      </trkpt>
      <trkpt lat="46.37505" lon="-1.46637">
        <ele>7.4</ele>
        <time>2020-06-03T08:31:55Z</time>
      </trkpt>
      <trkpt lat="46.37511" lon="-1.46634">
        <ele>7.4</ele>
        <time>2020-06-03T08:31:56Z</time>
      </trkpt>
      <trkpt lat="46.37514" lon="-1.4663">
        <ele>7.4</ele>
        <time>2020-06-03T08:31:57Z</time>
      </trkpt>
      <trkpt lat="46.37517" lon="-1.46625">
        <ele>7.4</ele>
        <time>2020-06-03T08:31:58Z</time>
      </trkpt>
      <trkpt lat="46.37521" lon="-1.46619">
        <ele>7.5</ele>
        <time>2020-06-03T08:31:59Z</time>
      </trkpt>
      <trkpt lat="46.37523" lon="-1.46613">
        <ele>7.5</ele>
        <time>2020-06-03T08:32:00Z</time>
      </trkpt>
      <trkpt lat="46.37525" lon="-1.46608">
        <ele>7.5</ele>
        <time>2020-06-03T08:32:01Z</time>
      </trkpt>
      <trkpt lat="46.37527" lon="-1.46604">
        <ele>7.5</ele>
        <time>2020-06-03T08:32:02Z</time>
      </trkpt>
      <trkpt lat="46.37529" lon="-1.46598">
        <ele>7.5</ele>
        <time>2020-06-03T08:32:03Z</time>
      </trkpt>
      <trkpt lat="46.37531" lon="-1.46593">
        <ele>7.5</ele>
        <time>2020-06-03T08:32:04Z</time>
      </trkpt>
      <trkpt lat="46.37533" lon="-1.46588">
        <ele>7.4</ele>
        <time>2020-06-03T08:32:05Z</time>
      </trkpt>
      <trkpt lat="46.37534" lon="-1.46584">
        <ele>7.4</ele>
        <time>2020-06-03T08:32:06Z</time>
      </trkpt>
      <trkpt lat="46.37537" lon="-1.46581">
        <ele>7.4</ele>
        <time>2020-06-03T08:32:07Z</time>
      </trkpt>
      <trkpt lat="46.37539" lon="-1.46578">
        <ele>7.4</ele>
        <time>2020-06-03T08:32:08Z</time>
      </trkpt>
      <trkpt lat="46.37543" lon="-1.46575">
        <ele>7.3</ele>
        <time>2020-06-03T08:32:09Z</time>
      </trkpt>
      <trkpt lat="46.37547" lon="-1.46573">
        <ele>7.3</ele>
        <time>2020-06-03T08:32:10Z</time>
      </trkpt>
      <trkpt lat="46.37552" lon="-1.4657">
        <ele>7.3</ele>
        <time>2020-06-03T08:32:11Z</time>
      </trkpt>
      <trkpt lat="46.37557" lon="-1.4657">
        <ele>7.3</ele>
        <time>2020-06-03T08:32:12Z</time>
      </trkpt>
      <trkpt lat="46.37562" lon="-1.46568">
        <ele>7.3</ele>
        <time>2020-06-03T08:32:13Z</time>
      </trkpt>
      <trkpt lat="46.37567" lon="-1.46567">
        <ele>7.3</ele>
        <time>2020-06-03T08:32:14Z</time>
      </trkpt>
      <trkpt lat="46.37572" lon="-1.46565">
        <ele>7.2</ele>
        <time>2020-06-03T08:32:15Z</time>
      </trkpt>
      <trkpt lat="46.37576" lon="-1.46563">
        <ele>7.2</ele>
        <time>2020-06-03T08:32:16Z</time>
      </trkpt>
      <trkpt lat="46.3758" lon="-1.46563">
        <ele>7.2</ele>
        <time>2020-06-03T08:32:17Z</time>
      </trkpt>
      <trkpt lat="46.37584" lon="-1.46562">
        <ele>7.2</ele>
        <time>2020-06-03T08:32:18Z</time>
      </trkpt>
      <trkpt lat="46.37589" lon="-1.46561">
        <ele>7.1</ele>
        <time>2020-06-03T08:32:19Z</time>
      </trkpt>
      <trkpt lat="46.37594" lon="-1.4656">
        <ele>7.1</ele>
        <time>2020-06-03T08:32:20Z</time>
      </trkpt>
      <trkpt lat="46.37599" lon="-1.46559">
        <ele>7.1</ele>
        <time>2020-06-03T08:32:21Z</time>
      </trkpt>
      <trkpt lat="46.37603" lon="-1.46558">
        <ele>7.1</ele>
        <time>2020-06-03T08:32:22Z</time>
      </trkpt>
      <trkpt lat="46.37608" lon="-1.46558">
        <ele>7.1</ele>
        <time>2020-06-03T08:32:23Z</time>
      </trkpt>
      <trkpt lat="46.37613" lon="-1.46556">
        <ele>7</ele>
        <time>2020-06-03T08:32:24Z</time>
      </trkpt>
      <trkpt lat="46.37618" lon="-1.46554">
        <ele>7</ele>
        <time>2020-06-03T08:32:25Z</time>
      </trkpt>
      <trkpt lat="46.37621" lon="-1.46552">
        <ele>7</ele>
        <time>2020-06-03T08:32:26Z</time>
      </trkpt>
      <trkpt lat="46.37627" lon="-1.46551">
        <ele>7</ele>
        <time>2020-06-03T08:32:27Z</time>
      </trkpt>
      <trkpt lat="46.37632" lon="-1.4655">
        <ele>7.1</ele>
        <time>2020-06-03T08:32:28Z</time>
      </trkpt>
      <trkpt lat="46.37637" lon="-1.4655">
        <ele>7.1</ele>
        <time>2020-06-03T08:32:29Z</time>
      </trkpt>
      <trkpt lat="46.37642" lon="-1.4655">
        <ele>7.2</ele>
        <time>2020-06-03T08:32:30Z</time>
      </trkpt>
      <trkpt lat="46.37648" lon="-1.46549">
        <ele>7.3</ele>
        <time>2020-06-03T08:32:31Z</time>
      </trkpt>
      <trkpt lat="46.37653" lon="-1.46549">
        <ele>7.5</ele>
        <time>2020-06-03T08:32:32Z</time>
      </trkpt>
      <trkpt lat="46.37658" lon="-1.46547">
        <ele>7.6</ele>
        <time>2020-06-03T08:32:33Z</time>
      </trkpt>
      <trkpt lat="46.37663" lon="-1.46545">
        <ele>7.7</ele>
        <time>2020-06-03T08:32:34Z</time>
      </trkpt>
      <trkpt lat="46.37668" lon="-1.46543">
        <ele>7.8</ele>
        <time>2020-06-03T08:32:35Z</time>
      </trkpt>
      <trkpt lat="46.37672" lon="-1.4654">
        <ele>7.8</ele>
        <time>2020-06-03T08:32:36Z</time>
      </trkpt>
      <trkpt lat="46.37676" lon="-1.46537">
        <ele>7.9</ele>
        <time>2020-06-03T08:32:37Z</time>
      </trkpt>
      <trkpt lat="46.3768" lon="-1.46534">
        <ele>8</ele>
        <time>2020-06-03T08:32:38Z</time>
      </trkpt>
      <trkpt lat="46.37683" lon="-1.46532">
        <ele>8.2</ele>
        <time>2020-06-03T08:32:39Z</time>
      </trkpt>
      <trkpt lat="46.37687" lon="-1.46529">
        <ele>8.2</ele>
        <time>2020-06-03T08:32:40Z</time>
      </trkpt>
      <trkpt lat="46.37691" lon="-1.46527">
        <ele>8.3</ele>
        <time>2020-06-03T08:32:41Z</time>
      </trkpt>
      <trkpt lat="46.37695" lon="-1.46522">
        <ele>8.4</ele>
        <time>2020-06-03T08:32:42Z</time>
      </trkpt>
      <trkpt lat="46.37699" lon="-1.46517">
        <ele>8.6</ele>
        <time>2020-06-03T08:32:43Z</time>
      </trkpt>
      <trkpt lat="46.37704" lon="-1.46511">
        <ele>8.8</ele>
        <time>2020-06-03T08:32:44Z</time>
      </trkpt>
      <trkpt lat="46.37708" lon="-1.46506">
        <ele>9</ele>
        <time>2020-06-03T08:32:45Z</time>
      </trkpt>
      <trkpt lat="46.37711" lon="-1.46504">
        <ele>9.1</ele>
        <time>2020-06-03T08:32:46Z</time>
      </trkpt>
      <trkpt lat="46.37714" lon="-1.46503">
        <ele>9.2</ele>
        <time>2020-06-03T08:32:47Z</time>
      </trkpt>
      <trkpt lat="46.37715" lon="-1.46503">
        <ele>9.3</ele>
        <time>2020-06-03T08:32:48Z</time>
      </trkpt>
      <trkpt lat="46.37719" lon="-1.46502">
        <ele>9.4</ele>
        <time>2020-06-03T08:32:49Z</time>
      </trkpt>
      <trkpt lat="46.37724" lon="-1.46503">
        <ele>9.6</ele>
        <time>2020-06-03T08:32:50Z</time>
      </trkpt>
      <trkpt lat="46.37728" lon="-1.46504">
        <ele>9.8</ele>
        <time>2020-06-03T08:32:51Z</time>
      </trkpt>
      <trkpt lat="46.37732" lon="-1.46504">
        <ele>9.8</ele>
        <time>2020-06-03T08:32:52Z</time>
      </trkpt>
      <trkpt lat="46.37735" lon="-1.46505">
        <ele>9.9</ele>
        <time>2020-06-03T08:32:53Z</time>
      </trkpt>
      <trkpt lat="46.37739" lon="-1.46504">
        <ele>10</ele>
        <time>2020-06-03T08:32:54Z</time>
      </trkpt>
      <trkpt lat="46.37741" lon="-1.46504">
        <ele>10.1</ele>
        <time>2020-06-03T08:32:55Z</time>
      </trkpt>
      <trkpt lat="46.37745" lon="-1.46504">
        <ele>10.1</ele>
        <time>2020-06-03T08:32:56Z</time>
      </trkpt>
      <trkpt lat="46.37746" lon="-1.46504">
        <ele>10.1</ele>
        <time>2020-06-03T08:32:57Z</time>
      </trkpt>
      <trkpt lat="46.3775" lon="-1.46505">
        <ele>10.2</ele>
        <time>2020-06-03T08:32:58Z</time>
      </trkpt>
      <trkpt lat="46.37751" lon="-1.46506">
        <ele>10.2</ele>
        <time>2020-06-03T08:32:59Z</time>
      </trkpt>
      <trkpt lat="46.37755" lon="-1.46508">
        <ele>10.2</ele>
        <time>2020-06-03T08:33:00Z</time>
      </trkpt>
      <trkpt lat="46.37757" lon="-1.4651">
        <ele>10.2</ele>
        <time>2020-06-03T08:33:01Z</time>
      </trkpt>
      <trkpt lat="46.37761" lon="-1.46511">
        <ele>10.2</ele>
        <time>2020-06-03T08:33:02Z</time>
      </trkpt>
      <trkpt lat="46.37765" lon="-1.46512">
        <ele>10.3</ele>
        <time>2020-06-03T08:33:03Z</time>
      </trkpt>
      <trkpt lat="46.37768" lon="-1.46514">
        <ele>10.3</ele>
        <time>2020-06-03T08:33:04Z</time>
      </trkpt>
      <trkpt lat="46.37771" lon="-1.46517">
        <ele>10.3</ele>
        <time>2020-06-03T08:33:05Z</time>
      </trkpt>
      <trkpt lat="46.37774" lon="-1.46519">
        <ele>10.4</ele>
        <time>2020-06-03T08:33:06Z</time>
      </trkpt>
      <trkpt lat="46.37777" lon="-1.4652">
        <ele>10.4</ele>
        <time>2020-06-03T08:33:07Z</time>
      </trkpt>
      <trkpt lat="46.3778" lon="-1.46523">
        <ele>10.4</ele>
        <time>2020-06-03T08:33:08Z</time>
      </trkpt>
      <trkpt lat="46.37784" lon="-1.46525">
        <ele>10.5</ele>
        <time>2020-06-03T08:33:09Z</time>
      </trkpt>
      <trkpt lat="46.37788" lon="-1.46529">
        <ele>10.5</ele>
        <time>2020-06-03T08:33:10Z</time>
      </trkpt>
      <trkpt lat="46.37793" lon="-1.46534">
        <ele>10.5</ele>
        <time>2020-06-03T08:33:11Z</time>
      </trkpt>
      <trkpt lat="46.37798" lon="-1.46539">
        <ele>10.5</ele>
        <time>2020-06-03T08:33:12Z</time>
      </trkpt>
      <trkpt lat="46.37801" lon="-1.46542">
        <ele>10.5</ele>
        <time>2020-06-03T08:33:13Z</time>
      </trkpt>
      <trkpt lat="46.37805" lon="-1.46545">
        <ele>10.6</ele>
        <time>2020-06-03T08:33:14Z</time>
      </trkpt>
      <trkpt lat="46.37809" lon="-1.4655">
        <ele>10.6</ele>
        <time>2020-06-03T08:33:15Z</time>
      </trkpt>
      <trkpt lat="46.37813" lon="-1.46556">
        <ele>10.6</ele>
        <time>2020-06-03T08:33:16Z</time>
      </trkpt>
      <trkpt lat="46.37817" lon="-1.46561">
        <ele>10.7</ele>
        <time>2020-06-03T08:33:17Z</time>
      </trkpt>
      <trkpt lat="46.37821" lon="-1.46565">
        <ele>10.8</ele>
        <time>2020-06-03T08:33:18Z</time>
      </trkpt>
      <trkpt lat="46.37826" lon="-1.46571">
        <ele>10.9</ele>
        <time>2020-06-03T08:33:19Z</time>
      </trkpt>
      <trkpt lat="46.37831" lon="-1.46578">
        <ele>11</ele>
        <time>2020-06-03T08:33:20Z</time>
      </trkpt>
      <trkpt lat="46.37834" lon="-1.46582">
        <ele>11</ele>
        <time>2020-06-03T08:33:21Z</time>
      </trkpt>
      <trkpt lat="46.37837" lon="-1.46586">
        <ele>11.1</ele>
        <time>2020-06-03T08:33:22Z</time>
      </trkpt>
      <trkpt lat="46.3784" lon="-1.46591">
        <ele>11.2</ele>
        <time>2020-06-03T08:33:23Z</time>
      </trkpt>
      <trkpt lat="46.37842" lon="-1.46593">
        <ele>11.2</ele>
        <time>2020-06-03T08:33:24Z</time>
      </trkpt>
      <trkpt lat="46.37845" lon="-1.46596">
        <ele>11.3</ele>
        <time>2020-06-03T08:33:25Z</time>
      </trkpt>
      <trkpt lat="46.37849" lon="-1.46599">
        <ele>11.3</ele>
        <time>2020-06-03T08:33:26Z</time>
      </trkpt>
      <trkpt lat="46.37853" lon="-1.46601">
        <ele>11.4</ele>
        <time>2020-06-03T08:33:27Z</time>
      </trkpt>
      <trkpt lat="46.37856" lon="-1.46603">
        <ele>11.4</ele>
        <time>2020-06-03T08:33:28Z</time>
      </trkpt>
      <trkpt lat="46.37858" lon="-1.46605">
        <ele>11.4</ele>
        <time>2020-06-03T08:33:29Z</time>
      </trkpt>
      <trkpt lat="46.37862" lon="-1.46606">
        <ele>11.5</ele>
        <time>2020-06-03T08:33:30Z</time>
      </trkpt>
      <trkpt lat="46.37865" lon="-1.46608">
        <ele>11.5</ele>
        <time>2020-06-03T08:33:31Z</time>
      </trkpt>
      <trkpt lat="46.37868" lon="-1.46608">
        <ele>11.5</ele>
        <time>2020-06-03T08:33:32Z</time>
      </trkpt>
      <trkpt lat="46.37872" lon="-1.46609">
        <ele>11.5</ele>
        <time>2020-06-03T08:33:33Z</time>
      </trkpt>
      <trkpt lat="46.37876" lon="-1.46609">
        <ele>11.5</ele>
        <time>2020-06-03T08:33:34Z</time>
      </trkpt>
      <trkpt lat="46.37881" lon="-1.46607">
        <ele>11.4</ele>
        <time>2020-06-03T08:33:35Z</time>
      </trkpt>
      <trkpt lat="46.37886" lon="-1.46604">
        <ele>11.4</ele>
        <time>2020-06-03T08:33:36Z</time>
      </trkpt>
      <trkpt lat="46.37891" lon="-1.46601">
        <ele>11.3</ele>
        <time>2020-06-03T08:33:37Z</time>
      </trkpt>
      <trkpt lat="46.37895" lon="-1.466">
        <ele>11.3</ele>
        <time>2020-06-03T08:33:38Z</time>
      </trkpt>
      <trkpt lat="46.37899" lon="-1.46599">
        <ele>11.3</ele>
        <time>2020-06-03T08:33:39Z</time>
      </trkpt>
      <trkpt lat="46.37904" lon="-1.46598">
        <ele>11.3</ele>
        <time>2020-06-03T08:33:40Z</time>
      </trkpt>
      <trkpt lat="46.37908" lon="-1.46598">
        <ele>11.2</ele>
        <time>2020-06-03T08:33:41Z</time>
      </trkpt>
      <trkpt lat="46.37913" lon="-1.46599">
        <ele>11.2</ele>
        <time>2020-06-03T08:33:42Z</time>
      </trkpt>
      <trkpt lat="46.37917" lon="-1.46599">
        <ele>11.2</ele>
        <time>2020-06-03T08:33:43Z</time>
      </trkpt>
      <trkpt lat="46.37921" lon="-1.466">
        <ele>11.1</ele>
        <time>2020-06-03T08:33:44Z</time>
      </trkpt>
      <trkpt lat="46.37924" lon="-1.466">
        <ele>11.1</ele>
        <time>2020-06-03T08:33:45Z</time>
      </trkpt>
      <trkpt lat="46.37929" lon="-1.46602">
        <ele>11</ele>
        <time>2020-06-03T08:33:46Z</time>
      </trkpt>
      <trkpt lat="46.37934" lon="-1.46604">
        <ele>10.8</ele>
        <time>2020-06-03T08:33:47Z</time>
      </trkpt>
      <trkpt lat="46.3794" lon="-1.46606">
        <ele>10.6</ele>
        <time>2020-06-03T08:33:48Z</time>
      </trkpt>
      <trkpt lat="46.37947" lon="-1.46607">
        <ele>10.2</ele>
        <time>2020-06-03T08:33:49Z</time>
      </trkpt>
      <trkpt lat="46.37952" lon="-1.46607">
        <ele>9.8</ele>
        <time>2020-06-03T08:33:50Z</time>
      </trkpt>
      <trkpt lat="46.37958" lon="-1.46607">
        <ele>9.4</ele>
        <time>2020-06-03T08:33:51Z</time>
      </trkpt>
      <trkpt lat="46.37965" lon="-1.46606">
        <ele>8.8</ele>
        <time>2020-06-03T08:33:52Z</time>
      </trkpt>
      <trkpt lat="46.37973" lon="-1.46603">
        <ele>8.1</ele>
        <time>2020-06-03T08:33:53Z</time>
      </trkpt>
      <trkpt lat="46.3798" lon="-1.466">
        <ele>7.7</ele>
        <time>2020-06-03T08:33:54Z</time>
      </trkpt>
      <trkpt lat="46.37985" lon="-1.46595">
        <ele>7.5</ele>
        <time>2020-06-03T08:33:55Z</time>
      </trkpt>
      <trkpt lat="46.37989" lon="-1.46589">
        <ele>7.2</ele>
        <time>2020-06-03T08:33:56Z</time>
      </trkpt>
      <trkpt lat="46.37994" lon="-1.46583">
        <ele>7</ele>
        <time>2020-06-03T08:33:57Z</time>
      </trkpt>
      <trkpt lat="46.37998" lon="-1.46578">
        <ele>6.8</ele>
        <time>2020-06-03T08:33:58Z</time>
      </trkpt>
      <trkpt lat="46.38002" lon="-1.46575">
        <ele>6.6</ele>
        <time>2020-06-03T08:33:59Z</time>
      </trkpt>
      <trkpt lat="46.38007" lon="-1.46575">
        <ele>6.5</ele>
        <time>2020-06-03T08:34:00Z</time>
      </trkpt>
      <trkpt lat="46.3801" lon="-1.46576">
        <ele>6.4</ele>
        <time>2020-06-03T08:34:01Z</time>
      </trkpt>
      <trkpt lat="46.38014" lon="-1.46576">
        <ele>6.3</ele>
        <time>2020-06-03T08:34:02Z</time>
      </trkpt>
      <trkpt lat="46.38018" lon="-1.46576">
        <ele>6.2</ele>
        <time>2020-06-03T08:34:03Z</time>
      </trkpt>
      <trkpt lat="46.38022" lon="-1.46577">
        <ele>6.1</ele>
        <time>2020-06-03T08:34:04Z</time>
      </trkpt>
      <trkpt lat="46.38027" lon="-1.46579">
        <ele>6</ele>
        <time>2020-06-03T08:34:05Z</time>
      </trkpt>
      <trkpt lat="46.38031" lon="-1.4658">
        <ele>6</ele>
        <time>2020-06-03T08:34:06Z</time>
      </trkpt>
      <trkpt lat="46.38034" lon="-1.46583">
        <ele>5.9</ele>
        <time>2020-06-03T08:34:07Z</time>
      </trkpt>
      <trkpt lat="46.38038" lon="-1.46587">
        <ele>5.9</ele>
        <time>2020-06-03T08:34:08Z</time>
      </trkpt>
      <trkpt lat="46.38043" lon="-1.4659">
        <ele>5.9</ele>
        <time>2020-06-03T08:34:09Z</time>
      </trkpt>
      <trkpt lat="46.38048" lon="-1.46592">
        <ele>6</ele>
        <time>2020-06-03T08:34:10Z</time>
      </trkpt>
      <trkpt lat="46.38053" lon="-1.46594">
        <ele>6</ele>
        <time>2020-06-03T08:34:11Z</time>
      </trkpt>
      <trkpt lat="46.38057" lon="-1.46597">
        <ele>6</ele>
        <time>2020-06-03T08:34:12Z</time>
      </trkpt>
      <trkpt lat="46.38063" lon="-1.46599">
        <ele>6.1</ele>
        <time>2020-06-03T08:34:13Z</time>
      </trkpt>
      <trkpt lat="46.38069" lon="-1.466">
        <ele>6.1</ele>
        <time>2020-06-03T08:34:14Z</time>
      </trkpt>
      <trkpt lat="46.38074" lon="-1.46603">
        <ele>6.2</ele>
        <time>2020-06-03T08:34:15Z</time>
      </trkpt>
      <trkpt lat="46.38078" lon="-1.46604">
        <ele>6.2</ele>
        <time>2020-06-03T08:34:16Z</time>
      </trkpt>
      <trkpt lat="46.38081" lon="-1.46606">
        <ele>6.2</ele>
        <time>2020-06-03T08:34:17Z</time>
      </trkpt>
      <trkpt lat="46.38085" lon="-1.46608">
        <ele>6.2</ele>
        <time>2020-06-03T08:34:18Z</time>
      </trkpt>
      <trkpt lat="46.38089" lon="-1.46609">
        <ele>6.2</ele>
        <time>2020-06-03T08:34:19Z</time>
      </trkpt>
      <trkpt lat="46.38093" lon="-1.46609">
        <ele>6.2</ele>
        <time>2020-06-03T08:34:20Z</time>
      </trkpt>
      <trkpt lat="46.38098" lon="-1.46608">
        <ele>6.2</ele>
        <time>2020-06-03T08:34:21Z</time>
      </trkpt>
      <trkpt lat="46.38104" lon="-1.46607">
        <ele>6.3</ele>
        <time>2020-06-03T08:34:22Z</time>
      </trkpt>
      <trkpt lat="46.38109" lon="-1.46607">
        <ele>6.3</ele>
        <time>2020-06-03T08:34:23Z</time>
      </trkpt>
      <trkpt lat="46.38115" lon="-1.46607">
        <ele>6.3</ele>
        <time>2020-06-03T08:34:24Z</time>
      </trkpt>
      <trkpt lat="46.3812" lon="-1.46608">
        <ele>6.3</ele>
        <time>2020-06-03T08:34:25Z</time>
      </trkpt>
      <trkpt lat="46.38125" lon="-1.46608">
        <ele>6.4</ele>
        <time>2020-06-03T08:34:26Z</time>
      </trkpt>
      <trkpt lat="46.3813" lon="-1.46609">
        <ele>6.4</ele>
        <time>2020-06-03T08:34:27Z</time>
      </trkpt>
      <trkpt lat="46.38135" lon="-1.46609">
        <ele>6.4</ele>
        <time>2020-06-03T08:34:28Z</time>
      </trkpt>
      <trkpt lat="46.3814" lon="-1.46608">
        <ele>6.4</ele>
        <time>2020-06-03T08:34:29Z</time>
      </trkpt>
      <trkpt lat="46.38144" lon="-1.46608">
        <ele>6.5</ele>
        <time>2020-06-03T08:34:30Z</time>
      </trkpt>
      <trkpt lat="46.38149" lon="-1.46608">
        <ele>6.5</ele>
        <time>2020-06-03T08:34:31Z</time>
      </trkpt>
      <trkpt lat="46.38153" lon="-1.46608">
        <ele>6.5</ele>
        <time>2020-06-03T08:34:32Z</time>
      </trkpt>
      <trkpt lat="46.38159" lon="-1.46608">
        <ele>6.6</ele>
        <time>2020-06-03T08:34:33Z</time>
      </trkpt>
      <trkpt lat="46.38164" lon="-1.46608">
        <ele>6.7</ele>
        <time>2020-06-03T08:34:34Z</time>
      </trkpt>
      <trkpt lat="46.3817" lon="-1.46608">
        <ele>6.8</ele>
        <time>2020-06-03T08:34:35Z</time>
      </trkpt>
      <trkpt lat="46.38174" lon="-1.46607">
        <ele>6.9</ele>
        <time>2020-06-03T08:34:36Z</time>
      </trkpt>
      <trkpt lat="46.38178" lon="-1.46608">
        <ele>7</ele>
        <time>2020-06-03T08:34:37Z</time>
      </trkpt>
      <trkpt lat="46.38182" lon="-1.46608">
        <ele>7</ele>
        <time>2020-06-03T08:34:38Z</time>
      </trkpt>
      <trkpt lat="46.38185" lon="-1.46608">
        <ele>7.1</ele>
        <time>2020-06-03T08:34:39Z</time>
      </trkpt>
      <trkpt lat="46.38188" lon="-1.46608">
        <ele>7.2</ele>
        <time>2020-06-03T08:34:40Z</time>
      </trkpt>
      <trkpt lat="46.38192" lon="-1.46608">
        <ele>7.3</ele>
        <time>2020-06-03T08:34:41Z</time>
      </trkpt>
      <trkpt lat="46.38197" lon="-1.46607">
        <ele>7.4</ele>
        <time>2020-06-03T08:34:42Z</time>
      </trkpt>
      <trkpt lat="46.382" lon="-1.46607">
        <ele>7.4</ele>
        <time>2020-06-03T08:34:43Z</time>
      </trkpt>
      <trkpt lat="46.38203" lon="-1.46608">
        <ele>7.5</ele>
        <time>2020-06-03T08:34:44Z</time>
      </trkpt>
      <trkpt lat="46.38206" lon="-1.4661">
        <ele>7.5</ele>
        <time>2020-06-03T08:34:45Z</time>
      </trkpt>
      <trkpt lat="46.38211" lon="-1.4661">
        <ele>7.5</ele>
        <time>2020-06-03T08:34:46Z</time>
      </trkpt>
      <trkpt lat="46.38216" lon="-1.4661">
        <ele>7.6</ele>
        <time>2020-06-03T08:34:47Z</time>
      </trkpt>
      <trkpt lat="46.3822" lon="-1.46611">
        <ele>7.5</ele>
        <time>2020-06-03T08:34:48Z</time>
      </trkpt>
      <trkpt lat="46.38224" lon="-1.46611">
        <ele>7.5</ele>
        <time>2020-06-03T08:34:49Z</time>
      </trkpt>
      <trkpt lat="46.38229" lon="-1.46613">
        <ele>7.5</ele>
        <time>2020-06-03T08:34:50Z</time>
      </trkpt>
      <trkpt lat="46.38235" lon="-1.46615">
        <ele>7.4</ele>
        <time>2020-06-03T08:34:51Z</time>
      </trkpt>
      <trkpt lat="46.38241" lon="-1.46617">
        <ele>7.4</ele>
        <time>2020-06-03T08:34:52Z</time>
      </trkpt>
      <trkpt lat="46.38246" lon="-1.4662">
        <ele>7.4</ele>
        <time>2020-06-03T08:34:53Z</time>
      </trkpt>
      <trkpt lat="46.38251" lon="-1.46624">
        <ele>7.4</ele>
        <time>2020-06-03T08:34:54Z</time>
      </trkpt>
      <trkpt lat="46.38255" lon="-1.46628">
        <ele>7.4</ele>
        <time>2020-06-03T08:34:55Z</time>
      </trkpt>
      <trkpt lat="46.38258" lon="-1.46634">
        <ele>7.4</ele>
        <time>2020-06-03T08:34:56Z</time>
      </trkpt>
      <trkpt lat="46.3826" lon="-1.46638">
        <ele>7.4</ele>
        <time>2020-06-03T08:34:57Z</time>
      </trkpt>
      <trkpt lat="46.38261" lon="-1.46642">
        <ele>7.5</ele>
        <time>2020-06-03T08:34:58Z</time>
      </trkpt>
      <trkpt lat="46.38263" lon="-1.46647">
        <ele>7.5</ele>
        <time>2020-06-03T08:34:59Z</time>
      </trkpt>
      <trkpt lat="46.38264" lon="-1.46648">
        <ele>7.5</ele>
        <time>2020-06-03T08:35:00Z</time>
      </trkpt>
      <trkpt lat="46.38266" lon="-1.46649">
        <ele>7.5</ele>
        <time>2020-06-03T08:35:01Z</time>
      </trkpt>
      <trkpt lat="46.38267" lon="-1.4665">
        <ele>7.5</ele>
        <time>2020-06-03T08:35:02Z</time>
      </trkpt>
      <trkpt lat="46.3827" lon="-1.46652">
        <ele>7.5</ele>
        <time>2020-06-03T08:35:03Z</time>
      </trkpt>
      <trkpt lat="46.38271" lon="-1.46653">
        <ele>7.5</ele>
        <time>2020-06-03T08:35:04Z</time>
      </trkpt>
      <trkpt lat="46.38272" lon="-1.46656">
        <ele>7.5</ele>
        <time>2020-06-03T08:35:05Z</time>
      </trkpt>
      <trkpt lat="46.38274" lon="-1.46659">
        <ele>7.5</ele>
        <time>2020-06-03T08:35:06Z</time>
      </trkpt>
      <trkpt lat="46.38275" lon="-1.46664">
        <ele>7.5</ele>
        <time>2020-06-03T08:35:07Z</time>
      </trkpt>
      <trkpt lat="46.38276" lon="-1.46669">
        <ele>7.5</ele>
        <time>2020-06-03T08:35:08Z</time>
      </trkpt>
      <trkpt lat="46.38277" lon="-1.46673">
        <ele>7.5</ele>
        <time>2020-06-03T08:35:09Z</time>
      </trkpt>
      <trkpt lat="46.38278" lon="-1.46677">
        <ele>7.5</ele>
        <time>2020-06-03T08:35:10Z</time>
      </trkpt>
      <trkpt lat="46.38281" lon="-1.46682">
        <ele>7.5</ele>
        <time>2020-06-03T08:35:11Z</time>
      </trkpt>
      <trkpt lat="46.38283" lon="-1.46688">
        <ele>7.5</ele>
        <time>2020-06-03T08:35:12Z</time>
      </trkpt>
      <trkpt lat="46.38285" lon="-1.46693">
        <ele>7.5</ele>
        <time>2020-06-03T08:35:13Z</time>
      </trkpt>
      <trkpt lat="46.38286" lon="-1.46696">
        <ele>7.5</ele>
        <time>2020-06-03T08:35:14Z</time>
      </trkpt>
      <trkpt lat="46.38288" lon="-1.46703">
        <ele>7.5</ele>
        <time>2020-06-03T08:35:15Z</time>
      </trkpt>
      <trkpt lat="46.3829" lon="-1.4671">
        <ele>7.6</ele>
        <time>2020-06-03T08:35:16Z</time>
      </trkpt>
      <trkpt lat="46.38292" lon="-1.46715">
        <ele>7.6</ele>
        <time>2020-06-03T08:35:17Z</time>
      </trkpt>
      <trkpt lat="46.38293" lon="-1.46719">
        <ele>7.6</ele>
        <time>2020-06-03T08:35:18Z</time>
      </trkpt>
      <trkpt lat="46.38295" lon="-1.46724">
        <ele>7.6</ele>
        <time>2020-06-03T08:35:19Z</time>
      </trkpt>
      <trkpt lat="46.38296" lon="-1.46728">
        <ele>7.6</ele>
        <time>2020-06-03T08:35:20Z</time>
      </trkpt>
      <trkpt lat="46.38296" lon="-1.46733">
        <ele>7.6</ele>
        <time>2020-06-03T08:35:21Z</time>
      </trkpt>
      <trkpt lat="46.38298" lon="-1.46739">
        <ele>7.6</ele>
        <time>2020-06-03T08:35:22Z</time>
      </trkpt>
      <trkpt lat="46.383" lon="-1.46746">
        <ele>7.6</ele>
        <time>2020-06-03T08:35:23Z</time>
      </trkpt>
      <trkpt lat="46.38302" lon="-1.46752">
        <ele>7.6</ele>
        <time>2020-06-03T08:35:24Z</time>
      </trkpt>
      <trkpt lat="46.38305" lon="-1.46758">
        <ele>7.6</ele>
        <time>2020-06-03T08:35:25Z</time>
      </trkpt>
      <trkpt lat="46.38308" lon="-1.46762">
        <ele>7.6</ele>
        <time>2020-06-03T08:35:26Z</time>
      </trkpt>
      <trkpt lat="46.3831" lon="-1.46766">
        <ele>7.6</ele>
        <time>2020-06-03T08:35:27Z</time>
      </trkpt>
      <trkpt lat="46.38313" lon="-1.46771">
        <ele>7.6</ele>
        <time>2020-06-03T08:35:28Z</time>
      </trkpt>
      <trkpt lat="46.38317" lon="-1.46776">
        <ele>7.7</ele>
        <time>2020-06-03T08:35:29Z</time>
      </trkpt>
      <trkpt lat="46.3832" lon="-1.46781">
        <ele>7.7</ele>
        <time>2020-06-03T08:35:30Z</time>
      </trkpt>
      <trkpt lat="46.38323" lon="-1.46785">
        <ele>7.7</ele>
        <time>2020-06-03T08:35:31Z</time>
      </trkpt>
      <trkpt lat="46.38326" lon="-1.4679">
        <ele>7.7</ele>
        <time>2020-06-03T08:35:32Z</time>
      </trkpt>
      <trkpt lat="46.38329" lon="-1.46795">
        <ele>7.7</ele>
        <time>2020-06-03T08:35:33Z</time>
      </trkpt>
      <trkpt lat="46.38331" lon="-1.468">
        <ele>7.7</ele>
        <time>2020-06-03T08:35:34Z</time>
      </trkpt>
      <trkpt lat="46.38333" lon="-1.46804">
        <ele>7.7</ele>
        <time>2020-06-03T08:35:35Z</time>
      </trkpt>
      <trkpt lat="46.38335" lon="-1.46809">
        <ele>7.7</ele>
        <time>2020-06-03T08:35:36Z</time>
      </trkpt>
      <trkpt lat="46.38338" lon="-1.46814">
        <ele>7.6</ele>
        <time>2020-06-03T08:35:37Z</time>
      </trkpt>
      <trkpt lat="46.38341" lon="-1.46819">
        <ele>7.6</ele>
        <time>2020-06-03T08:35:38Z</time>
      </trkpt>
      <trkpt lat="46.38344" lon="-1.46826">
        <ele>7.6</ele>
        <time>2020-06-03T08:35:39Z</time>
      </trkpt>
      <trkpt lat="46.38347" lon="-1.46832">
        <ele>7.6</ele>
        <time>2020-06-03T08:35:40Z</time>
      </trkpt>
      <trkpt lat="46.3835" lon="-1.46837">
        <ele>7.6</ele>
        <time>2020-06-03T08:35:41Z</time>
      </trkpt>
      <trkpt lat="46.38352" lon="-1.46842">
        <ele>7.6</ele>
        <time>2020-06-03T08:35:42Z</time>
      </trkpt>
      <trkpt lat="46.38355" lon="-1.46848">
        <ele>7.6</ele>
        <time>2020-06-03T08:35:43Z</time>
      </trkpt>
      <trkpt lat="46.38357" lon="-1.46852">
        <ele>7.6</ele>
        <time>2020-06-03T08:35:44Z</time>
      </trkpt>
      <trkpt lat="46.38359" lon="-1.46857">
        <ele>7.6</ele>
        <time>2020-06-03T08:35:45Z</time>
      </trkpt>
      <trkpt lat="46.3836" lon="-1.46862">
        <ele>7.6</ele>
        <time>2020-06-03T08:35:46Z</time>
      </trkpt>
      <trkpt lat="46.38361" lon="-1.46866">
        <ele>7.6</ele>
        <time>2020-06-03T08:35:47Z</time>
      </trkpt>
      <trkpt lat="46.38363" lon="-1.46872">
        <ele>7.5</ele>
        <time>2020-06-03T08:35:48Z</time>
      </trkpt>
      <trkpt lat="46.38365" lon="-1.46881">
        <ele>7.5</ele>
        <time>2020-06-03T08:35:49Z</time>
      </trkpt>
      <trkpt lat="46.38367" lon="-1.46888">
        <ele>7.5</ele>
        <time>2020-06-03T08:35:50Z</time>
      </trkpt>
      <trkpt lat="46.38368" lon="-1.46897">
        <ele>7.5</ele>
        <time>2020-06-03T08:35:51Z</time>
      </trkpt>
      <trkpt lat="46.3837" lon="-1.46905">
        <ele>7.5</ele>
        <time>2020-06-03T08:35:52Z</time>
      </trkpt>
      <trkpt lat="46.38372" lon="-1.46912">
        <ele>7.6</ele>
        <time>2020-06-03T08:35:53Z</time>
      </trkpt>
      <trkpt lat="46.38373" lon="-1.46919">
        <ele>7.6</ele>
        <time>2020-06-03T08:35:54Z</time>
      </trkpt>
      <trkpt lat="46.38375" lon="-1.46927">
        <ele>7.7</ele>
        <time>2020-06-03T08:35:55Z</time>
      </trkpt>
      <trkpt lat="46.38377" lon="-1.46934">
        <ele>7.8</ele>
        <time>2020-06-03T08:35:56Z</time>
      </trkpt>
      <trkpt lat="46.38378" lon="-1.4694">
        <ele>7.9</ele>
        <time>2020-06-03T08:35:57Z</time>
      </trkpt>
      <trkpt lat="46.38379" lon="-1.46948">
        <ele>8.1</ele>
        <time>2020-06-03T08:35:58Z</time>
      </trkpt>
      <trkpt lat="46.3838" lon="-1.46955">
        <ele>8.2</ele>
        <time>2020-06-03T08:35:59Z</time>
      </trkpt>
      <trkpt lat="46.38381" lon="-1.46962">
        <ele>8.4</ele>
        <time>2020-06-03T08:36:00Z</time>
      </trkpt>
      <trkpt lat="46.38381" lon="-1.46969">
        <ele>8.5</ele>
        <time>2020-06-03T08:36:01Z</time>
      </trkpt>
      <trkpt lat="46.38382" lon="-1.46976">
        <ele>8.6</ele>
        <time>2020-06-03T08:36:02Z</time>
      </trkpt>
      <trkpt lat="46.38382" lon="-1.46981">
        <ele>8.8</ele>
        <time>2020-06-03T08:36:03Z</time>
      </trkpt>
      <trkpt lat="46.38383" lon="-1.46986">
        <ele>8.9</ele>
        <time>2020-06-03T08:36:04Z</time>
      </trkpt>
      <trkpt lat="46.38382" lon="-1.46992">
        <ele>9</ele>
        <time>2020-06-03T08:36:05Z</time>
      </trkpt>
      <trkpt lat="46.38382" lon="-1.46998">
        <ele>9.1</ele>
        <time>2020-06-03T08:36:06Z</time>
      </trkpt>
      <trkpt lat="46.38382" lon="-1.47004">
        <ele>9.2</ele>
        <time>2020-06-03T08:36:07Z</time>
      </trkpt>
      <trkpt lat="46.38384" lon="-1.47009">
        <ele>9.4</ele>
        <time>2020-06-03T08:36:08Z</time>
      </trkpt>
      <trkpt lat="46.38385" lon="-1.47013">
        <ele>9.5</ele>
        <time>2020-06-03T08:36:09Z</time>
      </trkpt>
      <trkpt lat="46.38389" lon="-1.47016">
        <ele>9.6</ele>
        <time>2020-06-03T08:36:10Z</time>
      </trkpt>
      <trkpt lat="46.3839" lon="-1.47017">
        <ele>9.6</ele>
        <time>2020-06-03T08:36:11Z</time>
      </trkpt>
      <trkpt lat="46.38393" lon="-1.4702">
        <ele>9.7</ele>
        <time>2020-06-03T08:36:12Z</time>
      </trkpt>
      <trkpt lat="46.38394" lon="-1.47021">
        <ele>9.7</ele>
        <time>2020-06-03T08:36:13Z</time>
      </trkpt>
      <trkpt lat="46.38396" lon="-1.47023">
        <ele>9.8</ele>
        <time>2020-06-03T08:36:14Z</time>
      </trkpt>
      <trkpt lat="46.38399" lon="-1.47024">
        <ele>9.9</ele>
        <time>2020-06-03T08:36:15Z</time>
      </trkpt>
      <trkpt lat="46.38403" lon="-1.47026">
        <ele>9.9</ele>
        <time>2020-06-03T08:36:16Z</time>
      </trkpt>
      <trkpt lat="46.38406" lon="-1.47027">
        <ele>10</ele>
        <time>2020-06-03T08:36:17Z</time>
      </trkpt>
      <trkpt lat="46.38409" lon="-1.47029">
        <ele>10</ele>
        <time>2020-06-03T08:36:18Z</time>
      </trkpt>
      <trkpt lat="46.3841" lon="-1.47029">
        <ele>10</ele>
        <time>2020-06-03T08:36:19Z</time>
      </trkpt>
      <trkpt lat="46.38414" lon="-1.47029">
        <ele>10</ele>
        <time>2020-06-03T08:36:20Z</time>
      </trkpt>
      <trkpt lat="46.38415" lon="-1.47029">
        <ele>10</ele>
        <time>2020-06-03T08:36:21Z</time>
      </trkpt>
      <trkpt lat="46.38418" lon="-1.4703">
        <ele>10</ele>
        <time>2020-06-03T08:36:22Z</time>
      </trkpt>
      <trkpt lat="46.38421" lon="-1.47031">
        <ele>10</ele>
        <time>2020-06-03T08:36:23Z</time>
      </trkpt>
      <trkpt lat="46.38425" lon="-1.47032">
        <ele>9.9</ele>
        <time>2020-06-03T08:36:24Z</time>
      </trkpt>
      <trkpt lat="46.38433" lon="-1.47031">
        <ele>9.7</ele>
        <time>2020-06-03T08:36:25Z</time>
      </trkpt>
      <trkpt lat="46.38441" lon="-1.47032">
        <ele>9.5</ele>
        <time>2020-06-03T08:36:26Z</time>
      </trkpt>
      <trkpt lat="46.3845" lon="-1.47033">
        <ele>9.2</ele>
        <time>2020-06-03T08:36:27Z</time>
      </trkpt>
      <trkpt lat="46.38455" lon="-1.47035">
        <ele>9.1</ele>
        <time>2020-06-03T08:36:28Z</time>
      </trkpt>
      <trkpt lat="46.38461" lon="-1.47039">
        <ele>9.1</ele>
        <time>2020-06-03T08:36:29Z</time>
      </trkpt>
      <trkpt lat="46.38467" lon="-1.47044">
        <ele>9.1</ele>
        <time>2020-06-03T08:36:30Z</time>
      </trkpt>
      <trkpt lat="46.38474" lon="-1.47047">
        <ele>9</ele>
        <time>2020-06-03T08:36:31Z</time>
      </trkpt>
      <trkpt lat="46.3848" lon="-1.4705">
        <ele>9</ele>
        <time>2020-06-03T08:36:32Z</time>
      </trkpt>
      <trkpt lat="46.38485" lon="-1.47053">
        <ele>8.9</ele>
        <time>2020-06-03T08:36:33Z</time>
      </trkpt>
      <trkpt lat="46.3849" lon="-1.47056">
        <ele>8.9</ele>
        <time>2020-06-03T08:36:34Z</time>
      </trkpt>
      <trkpt lat="46.38495" lon="-1.4706">
        <ele>8.8</ele>
        <time>2020-06-03T08:36:35Z</time>
      </trkpt>
      <trkpt lat="46.38497" lon="-1.47064">
        <ele>8.8</ele>
        <time>2020-06-03T08:36:36Z</time>
      </trkpt>
      <trkpt lat="46.38498" lon="-1.4707">
        <ele>8.7</ele>
        <time>2020-06-03T08:36:37Z</time>
      </trkpt>
      <trkpt lat="46.38498" lon="-1.47077">
        <ele>8.7</ele>
        <time>2020-06-03T08:36:38Z</time>
      </trkpt>
      <trkpt lat="46.38498" lon="-1.47084">
        <ele>8.7</ele>
        <time>2020-06-03T08:36:39Z</time>
      </trkpt>
      <trkpt lat="46.38498" lon="-1.4709">
        <ele>8.6</ele>
        <time>2020-06-03T08:36:40Z</time>
      </trkpt>
      <trkpt lat="46.38498" lon="-1.47096">
        <ele>8.6</ele>
        <time>2020-06-03T08:36:41Z</time>
      </trkpt>
      <trkpt lat="46.38497" lon="-1.47103">
        <ele>8.6</ele>
        <time>2020-06-03T08:36:42Z</time>
      </trkpt>
      <trkpt lat="46.38497" lon="-1.47109">
        <ele>8.5</ele>
        <time>2020-06-03T08:36:43Z</time>
      </trkpt>
      <trkpt lat="46.38497" lon="-1.47114">
        <ele>8.5</ele>
        <time>2020-06-03T08:36:44Z</time>
      </trkpt>
      <trkpt lat="46.38498" lon="-1.4712">
        <ele>8.5</ele>
        <time>2020-06-03T08:36:45Z</time>
      </trkpt>
      <trkpt lat="46.38499" lon="-1.47127">
        <ele>8.5</ele>
        <time>2020-06-03T08:36:46Z</time>
      </trkpt>
      <trkpt lat="46.385" lon="-1.47132">
        <ele>8.4</ele>
        <time>2020-06-03T08:36:47Z</time>
      </trkpt>
      <trkpt lat="46.38501" lon="-1.47137">
        <ele>8.3</ele>
        <time>2020-06-03T08:36:48Z</time>
      </trkpt>
      <trkpt lat="46.38502" lon="-1.47142">
        <ele>8.2</ele>
        <time>2020-06-03T08:36:49Z</time>
      </trkpt>
      <trkpt lat="46.38504" lon="-1.47149">
        <ele>8.1</ele>
        <time>2020-06-03T08:36:50Z</time>
      </trkpt>
      <trkpt lat="46.38506" lon="-1.47154">
        <ele>8.1</ele>
        <time>2020-06-03T08:36:51Z</time>
      </trkpt>
      <trkpt lat="46.38507" lon="-1.47159">
        <ele>8.1</ele>
        <time>2020-06-03T08:36:52Z</time>
      </trkpt>
      <trkpt lat="46.3851" lon="-1.47164">
        <ele>8.1</ele>
        <time>2020-06-03T08:36:53Z</time>
      </trkpt>
      <trkpt lat="46.38512" lon="-1.4717">
        <ele>8.3</ele>
        <time>2020-06-03T08:36:54Z</time>
      </trkpt>
      <trkpt lat="46.38513" lon="-1.47175">
        <ele>8.4</ele>
        <time>2020-06-03T08:36:55Z</time>
      </trkpt>
      <trkpt lat="46.38514" lon="-1.47181">
        <ele>8.5</ele>
        <time>2020-06-03T08:36:56Z</time>
      </trkpt>
      <trkpt lat="46.38514" lon="-1.47188">
        <ele>8.7</ele>
        <time>2020-06-03T08:36:57Z</time>
      </trkpt>
      <trkpt lat="46.38514" lon="-1.47196">
        <ele>8.9</ele>
        <time>2020-06-03T08:36:58Z</time>
      </trkpt>
      <trkpt lat="46.38514" lon="-1.47204">
        <ele>9</ele>
        <time>2020-06-03T08:36:59Z</time>
      </trkpt>
      <trkpt lat="46.38514" lon="-1.47211">
        <ele>9.3</ele>
        <time>2020-06-03T08:37:00Z</time>
      </trkpt>
      <trkpt lat="46.38513" lon="-1.47217">
        <ele>9.4</ele>
        <time>2020-06-03T08:37:01Z</time>
      </trkpt>
      <trkpt lat="46.38513" lon="-1.47224">
        <ele>9.6</ele>
        <time>2020-06-03T08:37:02Z</time>
      </trkpt>
      <trkpt lat="46.38512" lon="-1.47232">
        <ele>9.8</ele>
        <time>2020-06-03T08:37:03Z</time>
      </trkpt>
      <trkpt lat="46.38512" lon="-1.47238">
        <ele>10</ele>
        <time>2020-06-03T08:37:04Z</time>
      </trkpt>
      <trkpt lat="46.38512" lon="-1.47244">
        <ele>10.2</ele>
        <time>2020-06-03T08:37:05Z</time>
      </trkpt>
      <trkpt lat="46.38512" lon="-1.47251">
        <ele>10.5</ele>
        <time>2020-06-03T08:37:06Z</time>
      </trkpt>
      <trkpt lat="46.38512" lon="-1.47258">
        <ele>10.8</ele>
        <time>2020-06-03T08:37:07Z</time>
      </trkpt>
      <trkpt lat="46.38512" lon="-1.47264">
        <ele>11.1</ele>
        <time>2020-06-03T08:37:08Z</time>
      </trkpt>
      <trkpt lat="46.38512" lon="-1.47269">
        <ele>11.3</ele>
        <time>2020-06-03T08:37:09Z</time>
      </trkpt>
      <trkpt lat="46.38512" lon="-1.47274">
        <ele>11.6</ele>
        <time>2020-06-03T08:37:10Z</time>
      </trkpt>
      <trkpt lat="46.38512" lon="-1.47279">
        <ele>11.8</ele>
        <time>2020-06-03T08:37:11Z</time>
      </trkpt>
      <trkpt lat="46.38512" lon="-1.47285">
        <ele>12.2</ele>
        <time>2020-06-03T08:37:12Z</time>
      </trkpt>
      <trkpt lat="46.38512" lon="-1.47291">
        <ele>12.5</ele>
        <time>2020-06-03T08:37:13Z</time>
      </trkpt>
      <trkpt lat="46.38511" lon="-1.47296">
        <ele>12.7</ele>
        <time>2020-06-03T08:37:14Z</time>
      </trkpt>
      <trkpt lat="46.38511" lon="-1.47301">
        <ele>13</ele>
        <time>2020-06-03T08:37:15Z</time>
      </trkpt>
      <trkpt lat="46.3851" lon="-1.47306">
        <ele>13.2</ele>
        <time>2020-06-03T08:37:16Z</time>
      </trkpt>
      <trkpt lat="46.3851" lon="-1.47312">
        <ele>13.5</ele>
        <time>2020-06-03T08:37:17Z</time>
      </trkpt>
      <trkpt lat="46.38509" lon="-1.47318">
        <ele>13.8</ele>
        <time>2020-06-03T08:37:18Z</time>
      </trkpt>
      <trkpt lat="46.38508" lon="-1.47322">
        <ele>14</ele>
        <time>2020-06-03T08:37:19Z</time>
      </trkpt>
      <trkpt lat="46.38507" lon="-1.47327">
        <ele>14.2</ele>
        <time>2020-06-03T08:37:20Z</time>
      </trkpt>
      <trkpt lat="46.38507" lon="-1.47332">
        <ele>14.4</ele>
        <time>2020-06-03T08:37:21Z</time>
      </trkpt>
      <trkpt lat="46.38506" lon="-1.47337">
        <ele>14.6</ele>
        <time>2020-06-03T08:37:22Z</time>
      </trkpt>
      <trkpt lat="46.38506" lon="-1.47342">
        <ele>14.8</ele>
        <time>2020-06-03T08:37:23Z</time>
      </trkpt>
      <trkpt lat="46.38507" lon="-1.47344">
        <ele>14.8</ele>
        <time>2020-06-03T08:37:24Z</time>
      </trkpt>
      <trkpt lat="46.38507" lon="-1.47348">
        <ele>15</ele>
        <time>2020-06-03T08:37:25Z</time>
      </trkpt>
      <trkpt lat="46.38507" lon="-1.47355">
        <ele>15.1</ele>
        <time>2020-06-03T08:37:26Z</time>
      </trkpt>
      <trkpt lat="46.38507" lon="-1.47361">
        <ele>15.3</ele>
        <time>2020-06-03T08:37:27Z</time>
      </trkpt>
      <trkpt lat="46.38506" lon="-1.47367">
        <ele>15.4</ele>
        <time>2020-06-03T08:37:28Z</time>
      </trkpt>
      <trkpt lat="46.38505" lon="-1.47372">
        <ele>15.4</ele>
        <time>2020-06-03T08:37:29Z</time>
      </trkpt>
      <trkpt lat="46.38504" lon="-1.47378">
        <ele>15.5</ele>
        <time>2020-06-03T08:37:30Z</time>
      </trkpt>
      <trkpt lat="46.38503" lon="-1.47383">
        <ele>15.5</ele>
        <time>2020-06-03T08:37:31Z</time>
      </trkpt>
      <trkpt lat="46.38503" lon="-1.47389">
        <ele>15.4</ele>
        <time>2020-06-03T08:37:32Z</time>
      </trkpt>
      <trkpt lat="46.38503" lon="-1.47391">
        <ele>15.4</ele>
        <time>2020-06-03T08:37:33Z</time>
      </trkpt>
      <trkpt lat="46.38503" lon="-1.47396">
        <ele>15.4</ele>
        <time>2020-06-03T08:37:34Z</time>
      </trkpt>
      <trkpt lat="46.38503" lon="-1.47402">
        <ele>15.2</ele>
        <time>2020-06-03T08:37:35Z</time>
      </trkpt>
      <trkpt lat="46.38503" lon="-1.47408">
        <ele>15.1</ele>
        <time>2020-06-03T08:37:36Z</time>
      </trkpt>
      <trkpt lat="46.38504" lon="-1.47414">
        <ele>14.9</ele>
        <time>2020-06-03T08:37:37Z</time>
      </trkpt>
      <trkpt lat="46.38505" lon="-1.47423">
        <ele>14.6</ele>
        <time>2020-06-03T08:37:38Z</time>
      </trkpt>
      <trkpt lat="46.38507" lon="-1.47428">
        <ele>14.4</ele>
        <time>2020-06-03T08:37:39Z</time>
      </trkpt>
      <trkpt lat="46.38507" lon="-1.47437">
        <ele>14</ele>
        <time>2020-06-03T08:37:40Z</time>
      </trkpt>
      <trkpt lat="46.38508" lon="-1.47447">
        <ele>13.6</ele>
        <time>2020-06-03T08:37:41Z</time>
      </trkpt>
      <trkpt lat="46.38509" lon="-1.47456">
        <ele>13.1</ele>
        <time>2020-06-03T08:37:42Z</time>
      </trkpt>
      <trkpt lat="46.38507" lon="-1.47466">
        <ele>12.7</ele>
        <time>2020-06-03T08:37:43Z</time>
      </trkpt>
      <trkpt lat="46.38506" lon="-1.47475">
        <ele>12.2</ele>
        <time>2020-06-03T08:37:44Z</time>
      </trkpt>
      <trkpt lat="46.38506" lon="-1.47486">
        <ele>11.7</ele>
        <time>2020-06-03T08:37:45Z</time>
      </trkpt>
      <trkpt lat="46.38506" lon="-1.47497">
        <ele>11.3</ele>
        <time>2020-06-03T08:37:46Z</time>
      </trkpt>
      <trkpt lat="46.38507" lon="-1.47509">
        <ele>10.9</ele>
        <time>2020-06-03T08:37:47Z</time>
      </trkpt>
      <trkpt lat="46.38506" lon="-1.47518">
        <ele>10.6</ele>
        <time>2020-06-03T08:37:48Z</time>
      </trkpt>
      <trkpt lat="46.38504" lon="-1.47528">
        <ele>10.2</ele>
        <time>2020-06-03T08:37:49Z</time>
      </trkpt>
      <trkpt lat="46.38503" lon="-1.47538">
        <ele>9.8</ele>
        <time>2020-06-03T08:37:50Z</time>
      </trkpt>
      <trkpt lat="46.38502" lon="-1.47551">
        <ele>9.4</ele>
        <time>2020-06-03T08:37:51Z</time>
      </trkpt>
      <trkpt lat="46.385" lon="-1.47564">
        <ele>9</ele>
        <time>2020-06-03T08:37:52Z</time>
      </trkpt>
      <trkpt lat="46.38498" lon="-1.47577">
        <ele>8.7</ele>
        <time>2020-06-03T08:37:53Z</time>
      </trkpt>
      <trkpt lat="46.38495" lon="-1.4759">
        <ele>8.5</ele>
        <time>2020-06-03T08:37:54Z</time>
      </trkpt>
      <trkpt lat="46.38493" lon="-1.47602">
        <ele>8.3</ele>
        <time>2020-06-03T08:37:55Z</time>
      </trkpt>
      <trkpt lat="46.38491" lon="-1.47614">
        <ele>8.1</ele>
        <time>2020-06-03T08:37:56Z</time>
      </trkpt>
      <trkpt lat="46.38488" lon="-1.47626">
        <ele>7.9</ele>
        <time>2020-06-03T08:37:57Z</time>
      </trkpt>
      <trkpt lat="46.38486" lon="-1.47637">
        <ele>7.8</ele>
        <time>2020-06-03T08:37:58Z</time>
      </trkpt>
      <trkpt lat="46.38484" lon="-1.47648">
        <ele>7.8</ele>
        <time>2020-06-03T08:37:59Z</time>
      </trkpt>
      <trkpt lat="46.38481" lon="-1.47658">
        <ele>7.7</ele>
        <time>2020-06-03T08:38:00Z</time>
      </trkpt>
      <trkpt lat="46.38479" lon="-1.47668">
        <ele>7.7</ele>
        <time>2020-06-03T08:38:01Z</time>
      </trkpt>
      <trkpt lat="46.38476" lon="-1.47677">
        <ele>7.7</ele>
        <time>2020-06-03T08:38:02Z</time>
      </trkpt>
      <trkpt lat="46.38473" lon="-1.47686">
        <ele>7.7</ele>
        <time>2020-06-03T08:38:03Z</time>
      </trkpt>
      <trkpt lat="46.3847" lon="-1.47697">
        <ele>7.7</ele>
        <time>2020-06-03T08:38:04Z</time>
      </trkpt>
      <trkpt lat="46.38467" lon="-1.47708">
        <ele>7.7</ele>
        <time>2020-06-03T08:38:05Z</time>
      </trkpt>
      <trkpt lat="46.38465" lon="-1.47718">
        <ele>7.7</ele>
        <time>2020-06-03T08:38:06Z</time>
      </trkpt>
      <trkpt lat="46.38462" lon="-1.47727">
        <ele>7.6</ele>
        <time>2020-06-03T08:38:07Z</time>
      </trkpt>
      <trkpt lat="46.3846" lon="-1.47735">
        <ele>7.6</ele>
        <time>2020-06-03T08:38:08Z</time>
      </trkpt>
      <trkpt lat="46.38458" lon="-1.47742">
        <ele>7.6</ele>
        <time>2020-06-03T08:38:09Z</time>
      </trkpt>
      <trkpt lat="46.38456" lon="-1.4775">
        <ele>7.6</ele>
        <time>2020-06-03T08:38:10Z</time>
      </trkpt>
      <trkpt lat="46.38455" lon="-1.47757">
        <ele>7.6</ele>
        <time>2020-06-03T08:38:11Z</time>
      </trkpt>
      <trkpt lat="46.38453" lon="-1.47763">
        <ele>7.6</ele>
        <time>2020-06-03T08:38:12Z</time>
      </trkpt>
      <trkpt lat="46.38453" lon="-1.4777">
        <ele>7.6</ele>
        <time>2020-06-03T08:38:13Z</time>
      </trkpt>
      <trkpt lat="46.38453" lon="-1.47777">
        <ele>7.6</ele>
        <time>2020-06-03T08:38:14Z</time>
      </trkpt>
      <trkpt lat="46.38453" lon="-1.47785">
        <ele>7.6</ele>
        <time>2020-06-03T08:38:15Z</time>
      </trkpt>
      <trkpt lat="46.38453" lon="-1.47792">
        <ele>7.6</ele>
        <time>2020-06-03T08:38:16Z</time>
      </trkpt>
      <trkpt lat="46.38453" lon="-1.47798">
        <ele>7.6</ele>
        <time>2020-06-03T08:38:17Z</time>
      </trkpt>
      <trkpt lat="46.38454" lon="-1.47805">
        <ele>7.6</ele>
        <time>2020-06-03T08:38:18Z</time>
      </trkpt>
      <trkpt lat="46.38453" lon="-1.47812">
        <ele>7.6</ele>
        <time>2020-06-03T08:38:19Z</time>
      </trkpt>
      <trkpt lat="46.38454" lon="-1.47818">
        <ele>7.7</ele>
        <time>2020-06-03T08:38:20Z</time>
      </trkpt>
      <trkpt lat="46.38453" lon="-1.47825">
        <ele>7.7</ele>
        <time>2020-06-03T08:38:21Z</time>
      </trkpt>
      <trkpt lat="46.38453" lon="-1.47832">
        <ele>7.7</ele>
        <time>2020-06-03T08:38:22Z</time>
      </trkpt>
      <trkpt lat="46.38453" lon="-1.47839">
        <ele>7.8</ele>
        <time>2020-06-03T08:38:23Z</time>
      </trkpt>
      <trkpt lat="46.38453" lon="-1.47846">
        <ele>7.8</ele>
        <time>2020-06-03T08:38:24Z</time>
      </trkpt>
      <trkpt lat="46.38454" lon="-1.47853">
        <ele>7.9</ele>
        <time>2020-06-03T08:38:25Z</time>
      </trkpt>
      <trkpt lat="46.38454" lon="-1.4786">
        <ele>8</ele>
        <time>2020-06-03T08:38:26Z</time>
      </trkpt>
      <trkpt lat="46.38454" lon="-1.47866">
        <ele>8</ele>
        <time>2020-06-03T08:38:27Z</time>
      </trkpt>
      <trkpt lat="46.38454" lon="-1.47872">
        <ele>8.1</ele>
        <time>2020-06-03T08:38:28Z</time>
      </trkpt>
      <trkpt lat="46.38453" lon="-1.47878">
        <ele>8.1</ele>
        <time>2020-06-03T08:38:29Z</time>
      </trkpt>
      <trkpt lat="46.38452" lon="-1.47884">
        <ele>8.2</ele>
        <time>2020-06-03T08:38:30Z</time>
      </trkpt>
      <trkpt lat="46.38451" lon="-1.47889">
        <ele>8.2</ele>
        <time>2020-06-03T08:38:31Z</time>
      </trkpt>
      <trkpt lat="46.38451" lon="-1.47893">
        <ele>8.3</ele>
        <time>2020-06-03T08:38:32Z</time>
      </trkpt>
      <trkpt lat="46.38451" lon="-1.47897">
        <ele>8.3</ele>
        <time>2020-06-03T08:38:33Z</time>
      </trkpt>
      <trkpt lat="46.38451" lon="-1.47903">
        <ele>8.4</ele>
        <time>2020-06-03T08:38:34Z</time>
      </trkpt>
      <trkpt lat="46.38452" lon="-1.47909">
        <ele>8.5</ele>
        <time>2020-06-03T08:38:35Z</time>
      </trkpt>
      <trkpt lat="46.38452" lon="-1.47916">
        <ele>8.6</ele>
        <time>2020-06-03T08:38:36Z</time>
      </trkpt>
      <trkpt lat="46.38451" lon="-1.47922">
        <ele>8.6</ele>
        <time>2020-06-03T08:38:37Z</time>
      </trkpt>
      <trkpt lat="46.38452" lon="-1.47928">
        <ele>8.7</ele>
        <time>2020-06-03T08:38:38Z</time>
      </trkpt>
      <trkpt lat="46.38452" lon="-1.47934">
        <ele>8.8</ele>
        <time>2020-06-03T08:38:39Z</time>
      </trkpt>
      <trkpt lat="46.38451" lon="-1.47939">
        <ele>8.8</ele>
        <time>2020-06-03T08:38:40Z</time>
      </trkpt>
      <trkpt lat="46.38451" lon="-1.47945">
        <ele>8.9</ele>
        <time>2020-06-03T08:38:41Z</time>
      </trkpt>
      <trkpt lat="46.38451" lon="-1.47951">
        <ele>9</ele>
        <time>2020-06-03T08:38:42Z</time>
      </trkpt>
      <trkpt lat="46.38451" lon="-1.47958">
        <ele>9</ele>
        <time>2020-06-03T08:38:43Z</time>
      </trkpt>
      <trkpt lat="46.38451" lon="-1.47965">
        <ele>9.1</ele>
        <time>2020-06-03T08:38:44Z</time>
      </trkpt>
      <trkpt lat="46.3845" lon="-1.47971">
        <ele>9.1</ele>
        <time>2020-06-03T08:38:45Z</time>
      </trkpt>
      <trkpt lat="46.3845" lon="-1.47977">
        <ele>9.2</ele>
        <time>2020-06-03T08:38:46Z</time>
      </trkpt>
      <trkpt lat="46.38451" lon="-1.47982">
        <ele>9.2</ele>
        <time>2020-06-03T08:38:47Z</time>
      </trkpt>
      <trkpt lat="46.3845" lon="-1.47987">
        <ele>9.2</ele>
        <time>2020-06-03T08:38:48Z</time>
      </trkpt>
      <trkpt lat="46.3845" lon="-1.47994">
        <ele>9.3</ele>
        <time>2020-06-03T08:38:49Z</time>
      </trkpt>
      <trkpt lat="46.3845" lon="-1.48001">
        <ele>9.3</ele>
        <time>2020-06-03T08:38:50Z</time>
      </trkpt>
      <trkpt lat="46.38451" lon="-1.48008">
        <ele>9.3</ele>
        <time>2020-06-03T08:38:51Z</time>
      </trkpt>
      <trkpt lat="46.38451" lon="-1.48015">
        <ele>9.4</ele>
        <time>2020-06-03T08:38:52Z</time>
      </trkpt>
      <trkpt lat="46.3845" lon="-1.48021">
        <ele>9.4</ele>
        <time>2020-06-03T08:38:53Z</time>
      </trkpt>
      <trkpt lat="46.3845" lon="-1.48028">
        <ele>9.4</ele>
        <time>2020-06-03T08:38:54Z</time>
      </trkpt>
      <trkpt lat="46.38449" lon="-1.48035">
        <ele>9.5</ele>
        <time>2020-06-03T08:38:55Z</time>
      </trkpt>
      <trkpt lat="46.38448" lon="-1.48042">
        <ele>9.5</ele>
        <time>2020-06-03T08:38:56Z</time>
      </trkpt>
      <trkpt lat="46.38448" lon="-1.48048">
        <ele>9.5</ele>
        <time>2020-06-03T08:38:57Z</time>
      </trkpt>
      <trkpt lat="46.38448" lon="-1.48054">
        <ele>9.6</ele>
        <time>2020-06-03T08:38:58Z</time>
      </trkpt>
      <trkpt lat="46.38448" lon="-1.4806">
        <ele>9.6</ele>
        <time>2020-06-03T08:38:59Z</time>
      </trkpt>
      <trkpt lat="46.38447" lon="-1.48065">
        <ele>9.7</ele>
        <time>2020-06-03T08:39:00Z</time>
      </trkpt>
      <trkpt lat="46.38446" lon="-1.48071">
        <ele>9.7</ele>
        <time>2020-06-03T08:39:01Z</time>
      </trkpt>
      <trkpt lat="46.38445" lon="-1.48076">
        <ele>9.7</ele>
        <time>2020-06-03T08:39:02Z</time>
      </trkpt>
      <trkpt lat="46.38444" lon="-1.48082">
        <ele>9.8</ele>
        <time>2020-06-03T08:39:03Z</time>
      </trkpt>
      <trkpt lat="46.38445" lon="-1.48087">
        <ele>9.8</ele>
        <time>2020-06-03T08:39:04Z</time>
      </trkpt>
      <trkpt lat="46.38445" lon="-1.48092">
        <ele>9.9</ele>
        <time>2020-06-03T08:39:05Z</time>
      </trkpt>
      <trkpt lat="46.38446" lon="-1.48096">
        <ele>9.9</ele>
        <time>2020-06-03T08:39:06Z</time>
      </trkpt>
      <trkpt lat="46.38447" lon="-1.481">
        <ele>10</ele>
        <time>2020-06-03T08:39:07Z</time>
      </trkpt>
      <trkpt lat="46.38449" lon="-1.48105">
        <ele>10</ele>
        <time>2020-06-03T08:39:08Z</time>
      </trkpt>
      <trkpt lat="46.38452" lon="-1.48109">
        <ele>10</ele>
        <time>2020-06-03T08:39:09Z</time>
      </trkpt>
      <trkpt lat="46.38452" lon="-1.48111">
        <ele>10</ele>
        <time>2020-06-03T08:39:10Z</time>
      </trkpt>
      <trkpt lat="46.38455" lon="-1.48114">
        <ele>10.1</ele>
        <time>2020-06-03T08:39:11Z</time>
      </trkpt>
      <trkpt lat="46.38457" lon="-1.48118">
        <ele>10.1</ele>
        <time>2020-06-03T08:39:12Z</time>
      </trkpt>
      <trkpt lat="46.38458" lon="-1.48123">
        <ele>10.1</ele>
        <time>2020-06-03T08:39:13Z</time>
      </trkpt>
      <trkpt lat="46.38459" lon="-1.48129">
        <ele>10</ele>
        <time>2020-06-03T08:39:14Z</time>
      </trkpt>
      <trkpt lat="46.38462" lon="-1.48133">
        <ele>9.9</ele>
        <time>2020-06-03T08:39:15Z</time>
      </trkpt>
      <trkpt lat="46.38462" lon="-1.48134">
        <ele>9.9</ele>
        <time>2020-06-03T08:39:16Z</time>
      </trkpt>
      <trkpt lat="46.38465" lon="-1.48136">
        <ele>9.9</ele>
        <time>2020-06-03T08:39:17Z</time>
      </trkpt>
      <trkpt lat="46.38468" lon="-1.48138">
        <ele>9.8</ele>
        <time>2020-06-03T08:39:18Z</time>
      </trkpt>
      <trkpt lat="46.38471" lon="-1.4814">
        <ele>9.7</ele>
        <time>2020-06-03T08:39:19Z</time>
      </trkpt>
      <trkpt lat="46.38475" lon="-1.48142">
        <ele>9.6</ele>
        <time>2020-06-03T08:39:20Z</time>
      </trkpt>
      <trkpt lat="46.38478" lon="-1.48144">
        <ele>9.6</ele>
        <time>2020-06-03T08:39:21Z</time>
      </trkpt>
      <trkpt lat="46.38483" lon="-1.48148">
        <ele>9.5</ele>
        <time>2020-06-03T08:39:22Z</time>
      </trkpt>
      <trkpt lat="46.38487" lon="-1.48151">
        <ele>9.4</ele>
        <time>2020-06-03T08:39:23Z</time>
      </trkpt>
      <trkpt lat="46.38492" lon="-1.48154">
        <ele>9.2</ele>
        <time>2020-06-03T08:39:24Z</time>
      </trkpt>
      <trkpt lat="46.38497" lon="-1.48157">
        <ele>9.1</ele>
        <time>2020-06-03T08:39:25Z</time>
      </trkpt>
      <trkpt lat="46.38502" lon="-1.48159">
        <ele>9.1</ele>
        <time>2020-06-03T08:39:26Z</time>
      </trkpt>
      <trkpt lat="46.38507" lon="-1.48162">
        <ele>8.9</ele>
        <time>2020-06-03T08:39:27Z</time>
      </trkpt>
      <trkpt lat="46.38513" lon="-1.48166">
        <ele>8.8</ele>
        <time>2020-06-03T08:39:28Z</time>
      </trkpt>
      <trkpt lat="46.38518" lon="-1.4817">
        <ele>8.7</ele>
        <time>2020-06-03T08:39:29Z</time>
      </trkpt>
      <trkpt lat="46.38522" lon="-1.48174">
        <ele>8.6</ele>
        <time>2020-06-03T08:39:30Z</time>
      </trkpt>
      <trkpt lat="46.38528" lon="-1.4818">
        <ele>8.4</ele>
        <time>2020-06-03T08:39:31Z</time>
      </trkpt>
      <trkpt lat="46.38536" lon="-1.48187">
        <ele>8.2</ele>
        <time>2020-06-03T08:39:32Z</time>
      </trkpt>
      <trkpt lat="46.38541" lon="-1.48192">
        <ele>8.1</ele>
        <time>2020-06-03T08:39:33Z</time>
      </trkpt>
      <trkpt lat="46.38546" lon="-1.48195">
        <ele>8.1</ele>
        <time>2020-06-03T08:39:34Z</time>
      </trkpt>
      <trkpt lat="46.38551" lon="-1.482">
        <ele>8</ele>
        <time>2020-06-03T08:39:35Z</time>
      </trkpt>
      <trkpt lat="46.38558" lon="-1.48205">
        <ele>8</ele>
        <time>2020-06-03T08:39:36Z</time>
      </trkpt>
      <trkpt lat="46.38563" lon="-1.48209">
        <ele>7.9</ele>
        <time>2020-06-03T08:39:37Z</time>
      </trkpt>
      <trkpt lat="46.38567" lon="-1.48213">
        <ele>7.9</ele>
        <time>2020-06-03T08:39:38Z</time>
      </trkpt>
      <trkpt lat="46.38573" lon="-1.48217">
        <ele>7.9</ele>
        <time>2020-06-03T08:39:39Z</time>
      </trkpt>
      <trkpt lat="46.3858" lon="-1.48222">
        <ele>7.9</ele>
        <time>2020-06-03T08:39:40Z</time>
      </trkpt>
      <trkpt lat="46.38585" lon="-1.48226">
        <ele>7.9</ele>
        <time>2020-06-03T08:39:41Z</time>
      </trkpt>
      <trkpt lat="46.38591" lon="-1.48233">
        <ele>7.9</ele>
        <time>2020-06-03T08:39:42Z</time>
      </trkpt>
      <trkpt lat="46.38597" lon="-1.48239">
        <ele>7.8</ele>
        <time>2020-06-03T08:39:43Z</time>
      </trkpt>
      <trkpt lat="46.38603" lon="-1.48245">
        <ele>7.8</ele>
        <time>2020-06-03T08:39:44Z</time>
      </trkpt>
      <trkpt lat="46.38609" lon="-1.48251">
        <ele>7.8</ele>
        <time>2020-06-03T08:39:45Z</time>
      </trkpt>
      <trkpt lat="46.38615" lon="-1.48256">
        <ele>7.8</ele>
        <time>2020-06-03T08:39:46Z</time>
      </trkpt>
      <trkpt lat="46.38621" lon="-1.48261">
        <ele>7.7</ele>
        <time>2020-06-03T08:39:47Z</time>
      </trkpt>
      <trkpt lat="46.38627" lon="-1.48265">
        <ele>7.7</ele>
        <time>2020-06-03T08:39:48Z</time>
      </trkpt>
      <trkpt lat="46.38633" lon="-1.4827">
        <ele>7.8</ele>
        <time>2020-06-03T08:39:49Z</time>
      </trkpt>
      <trkpt lat="46.38639" lon="-1.48274">
        <ele>7.8</ele>
        <time>2020-06-03T08:39:50Z</time>
      </trkpt>
      <trkpt lat="46.38643" lon="-1.48278">
        <ele>7.8</ele>
        <time>2020-06-03T08:39:51Z</time>
      </trkpt>
      <trkpt lat="46.38648" lon="-1.48282">
        <ele>7.8</ele>
        <time>2020-06-03T08:39:52Z</time>
      </trkpt>
      <trkpt lat="46.38653" lon="-1.48286">
        <ele>7.8</ele>
        <time>2020-06-03T08:39:53Z</time>
      </trkpt>
      <trkpt lat="46.38658" lon="-1.4829">
        <ele>7.8</ele>
        <time>2020-06-03T08:39:54Z</time>
      </trkpt>
      <trkpt lat="46.38662" lon="-1.48294">
        <ele>7.8</ele>
        <time>2020-06-03T08:39:55Z</time>
      </trkpt>
      <trkpt lat="46.38666" lon="-1.48297">
        <ele>7.9</ele>
        <time>2020-06-03T08:39:56Z</time>
      </trkpt>
      <trkpt lat="46.38669" lon="-1.48301">
        <ele>8.1</ele>
        <time>2020-06-03T08:39:57Z</time>
      </trkpt>
      <trkpt lat="46.38673" lon="-1.48304">
        <ele>8.2</ele>
        <time>2020-06-03T08:39:58Z</time>
      </trkpt>
      <trkpt lat="46.38676" lon="-1.48308">
        <ele>8.3</ele>
        <time>2020-06-03T08:39:59Z</time>
      </trkpt>
      <trkpt lat="46.38679" lon="-1.48312">
        <ele>8.4</ele>
        <time>2020-06-03T08:40:00Z</time>
      </trkpt>
      <trkpt lat="46.38683" lon="-1.48316">
        <ele>8.5</ele>
        <time>2020-06-03T08:40:01Z</time>
      </trkpt>
      <trkpt lat="46.38687" lon="-1.48321">
        <ele>8.6</ele>
        <time>2020-06-03T08:40:02Z</time>
      </trkpt>
      <trkpt lat="46.3869" lon="-1.48324">
        <ele>8.7</ele>
        <time>2020-06-03T08:40:03Z</time>
      </trkpt>
      <trkpt lat="46.38694" lon="-1.48329">
        <ele>8.7</ele>
        <time>2020-06-03T08:40:04Z</time>
      </trkpt>
      <trkpt lat="46.38698" lon="-1.48336">
        <ele>8.7</ele>
        <time>2020-06-03T08:40:05Z</time>
      </trkpt>
      <trkpt lat="46.38701" lon="-1.48343">
        <ele>8.7</ele>
        <time>2020-06-03T08:40:06Z</time>
      </trkpt>
      <trkpt lat="46.38703" lon="-1.4835">
        <ele>8.7</ele>
        <time>2020-06-03T08:40:07Z</time>
      </trkpt>
      <trkpt lat="46.38705" lon="-1.48357">
        <ele>8.6</ele>
        <time>2020-06-03T08:40:08Z</time>
      </trkpt>
      <trkpt lat="46.38707" lon="-1.48365">
        <ele>8.6</ele>
        <time>2020-06-03T08:40:09Z</time>
      </trkpt>
      <trkpt lat="46.3871" lon="-1.48372">
        <ele>8.5</ele>
        <time>2020-06-03T08:40:10Z</time>
      </trkpt>
      <trkpt lat="46.38713" lon="-1.4838">
        <ele>8.4</ele>
        <time>2020-06-03T08:40:11Z</time>
      </trkpt>
      <trkpt lat="46.38716" lon="-1.48388">
        <ele>8.4</ele>
        <time>2020-06-03T08:40:12Z</time>
      </trkpt>
      <trkpt lat="46.38719" lon="-1.48396">
        <ele>8.3</ele>
        <time>2020-06-03T08:40:13Z</time>
      </trkpt>
      <trkpt lat="46.38722" lon="-1.48403">
        <ele>8.2</ele>
        <time>2020-06-03T08:40:14Z</time>
      </trkpt>
      <trkpt lat="46.38725" lon="-1.48411">
        <ele>8.2</ele>
        <time>2020-06-03T08:40:15Z</time>
      </trkpt>
      <trkpt lat="46.38727" lon="-1.48419">
        <ele>8.2</ele>
        <time>2020-06-03T08:40:16Z</time>
      </trkpt>
      <trkpt lat="46.3873" lon="-1.48426">
        <ele>8.2</ele>
        <time>2020-06-03T08:40:17Z</time>
      </trkpt>
      <trkpt lat="46.38733" lon="-1.48433">
        <ele>8.2</ele>
        <time>2020-06-03T08:40:18Z</time>
      </trkpt>
      <trkpt lat="46.38736" lon="-1.48439">
        <ele>8.3</ele>
        <time>2020-06-03T08:40:19Z</time>
      </trkpt>
      <trkpt lat="46.38739" lon="-1.48445">
        <ele>8.3</ele>
        <time>2020-06-03T08:40:20Z</time>
      </trkpt>
      <trkpt lat="46.38741" lon="-1.48451">
        <ele>8.4</ele>
        <time>2020-06-03T08:40:21Z</time>
      </trkpt>
      <trkpt lat="46.38744" lon="-1.48455">
        <ele>8.4</ele>
        <time>2020-06-03T08:40:22Z</time>
      </trkpt>
      <trkpt lat="46.38747" lon="-1.4846">
        <ele>8.5</ele>
        <time>2020-06-03T08:40:23Z</time>
      </trkpt>
      <trkpt lat="46.38751" lon="-1.48463">
        <ele>8.5</ele>
        <time>2020-06-03T08:40:24Z</time>
      </trkpt>
      <trkpt lat="46.38754" lon="-1.48468">
        <ele>8.5</ele>
        <time>2020-06-03T08:40:25Z</time>
      </trkpt>
      <trkpt lat="46.38758" lon="-1.48472">
        <ele>8.5</ele>
        <time>2020-06-03T08:40:26Z</time>
      </trkpt>
      <trkpt lat="46.38761" lon="-1.48477">
        <ele>8.6</ele>
        <time>2020-06-03T08:40:27Z</time>
      </trkpt>
      <trkpt lat="46.38765" lon="-1.48482">
        <ele>8.6</ele>
        <time>2020-06-03T08:40:28Z</time>
      </trkpt>
      <trkpt lat="46.38769" lon="-1.48487">
        <ele>8.6</ele>
        <time>2020-06-03T08:40:29Z</time>
      </trkpt>
      <trkpt lat="46.38773" lon="-1.48492">
        <ele>8.7</ele>
        <time>2020-06-03T08:40:30Z</time>
      </trkpt>
      <trkpt lat="46.38778" lon="-1.48497">
        <ele>8.7</ele>
        <time>2020-06-03T08:40:31Z</time>
      </trkpt>
      <trkpt lat="46.38783" lon="-1.48502">
        <ele>8.8</ele>
        <time>2020-06-03T08:40:32Z</time>
      </trkpt>
      <trkpt lat="46.38787" lon="-1.48507">
        <ele>8.9</ele>
        <time>2020-06-03T08:40:33Z</time>
      </trkpt>
      <trkpt lat="46.38791" lon="-1.48512">
        <ele>9</ele>
        <time>2020-06-03T08:40:34Z</time>
      </trkpt>
      <trkpt lat="46.38795" lon="-1.48518">
        <ele>9.1</ele>
        <time>2020-06-03T08:40:35Z</time>
      </trkpt>
      <trkpt lat="46.38798" lon="-1.48523">
        <ele>9.2</ele>
        <time>2020-06-03T08:40:36Z</time>
      </trkpt>
      <trkpt lat="46.38802" lon="-1.48528">
        <ele>9.3</ele>
        <time>2020-06-03T08:40:37Z</time>
      </trkpt>
      <trkpt lat="46.38806" lon="-1.48532">
        <ele>9.4</ele>
        <time>2020-06-03T08:40:38Z</time>
      </trkpt>
      <trkpt lat="46.38809" lon="-1.48535">
        <ele>9.5</ele>
        <time>2020-06-03T08:40:39Z</time>
      </trkpt>
      <trkpt lat="46.38812" lon="-1.48538">
        <ele>9.6</ele>
        <time>2020-06-03T08:40:40Z</time>
      </trkpt>
      <trkpt lat="46.38815" lon="-1.48542">
        <ele>9.7</ele>
        <time>2020-06-03T08:40:41Z</time>
      </trkpt>
      <trkpt lat="46.38817" lon="-1.48546">
        <ele>9.8</ele>
        <time>2020-06-03T08:40:42Z</time>
      </trkpt>
      <trkpt lat="46.38819" lon="-1.48549">
        <ele>9.9</ele>
        <time>2020-06-03T08:40:43Z</time>
      </trkpt>
      <trkpt lat="46.38822" lon="-1.48552">
        <ele>9.9</ele>
        <time>2020-06-03T08:40:44Z</time>
      </trkpt>
      <trkpt lat="46.38824" lon="-1.48557">
        <ele>10</ele>
        <time>2020-06-03T08:40:45Z</time>
      </trkpt>
      <trkpt lat="46.38825" lon="-1.48562">
        <ele>10</ele>
        <time>2020-06-03T08:40:46Z</time>
      </trkpt>
      <trkpt lat="46.38826" lon="-1.48567">
        <ele>10</ele>
        <time>2020-06-03T08:40:47Z</time>
      </trkpt>
      <trkpt lat="46.38826" lon="-1.48573">
        <ele>10</ele>
        <time>2020-06-03T08:40:48Z</time>
      </trkpt>
      <trkpt lat="46.38826" lon="-1.48578">
        <ele>10</ele>
        <time>2020-06-03T08:40:49Z</time>
      </trkpt>
      <trkpt lat="46.38827" lon="-1.48584">
        <ele>10</ele>
        <time>2020-06-03T08:40:50Z</time>
      </trkpt>
      <trkpt lat="46.38829" lon="-1.4859">
        <ele>10</ele>
        <time>2020-06-03T08:40:51Z</time>
      </trkpt>
      <trkpt lat="46.38831" lon="-1.48597">
        <ele>9.9</ele>
        <time>2020-06-03T08:40:52Z</time>
      </trkpt>
      <trkpt lat="46.38833" lon="-1.48602">
        <ele>9.9</ele>
        <time>2020-06-03T08:40:53Z</time>
      </trkpt>
      <trkpt lat="46.38834" lon="-1.48609">
        <ele>9.9</ele>
        <time>2020-06-03T08:40:54Z</time>
      </trkpt>
      <trkpt lat="46.38834" lon="-1.48615">
        <ele>9.9</ele>
        <time>2020-06-03T08:40:55Z</time>
      </trkpt>
      <trkpt lat="46.38835" lon="-1.48622">
        <ele>9.9</ele>
        <time>2020-06-03T08:40:56Z</time>
      </trkpt>
      <trkpt lat="46.38835" lon="-1.48628">
        <ele>9.8</ele>
        <time>2020-06-03T08:40:57Z</time>
      </trkpt>
      <trkpt lat="46.38837" lon="-1.48634">
        <ele>9.7</ele>
        <time>2020-06-03T08:40:58Z</time>
      </trkpt>
      <trkpt lat="46.38838" lon="-1.48641">
        <ele>9.6</ele>
        <time>2020-06-03T08:40:59Z</time>
      </trkpt>
      <trkpt lat="46.3884" lon="-1.48649">
        <ele>9.4</ele>
        <time>2020-06-03T08:41:00Z</time>
      </trkpt>
      <trkpt lat="46.3884" lon="-1.48657">
        <ele>9.2</ele>
        <time>2020-06-03T08:41:01Z</time>
      </trkpt>
      <trkpt lat="46.3884" lon="-1.48664">
        <ele>9</ele>
        <time>2020-06-03T08:41:02Z</time>
      </trkpt>
      <trkpt lat="46.38841" lon="-1.48671">
        <ele>8.8</ele>
        <time>2020-06-03T08:41:03Z</time>
      </trkpt>
      <trkpt lat="46.38841" lon="-1.48679">
        <ele>8.5</ele>
        <time>2020-06-03T08:41:04Z</time>
      </trkpt>
      <trkpt lat="46.38842" lon="-1.48687">
        <ele>8.3</ele>
        <time>2020-06-03T08:41:05Z</time>
      </trkpt>
      <trkpt lat="46.38843" lon="-1.48696">
        <ele>8</ele>
        <time>2020-06-03T08:41:06Z</time>
      </trkpt>
      <trkpt lat="46.38844" lon="-1.48704">
        <ele>7.8</ele>
        <time>2020-06-03T08:41:07Z</time>
      </trkpt>
      <trkpt lat="46.38844" lon="-1.48713">
        <ele>7.6</ele>
        <time>2020-06-03T08:41:08Z</time>
      </trkpt>
      <trkpt lat="46.38845" lon="-1.48723">
        <ele>7.4</ele>
        <time>2020-06-03T08:41:09Z</time>
      </trkpt>
      <trkpt lat="46.38845" lon="-1.48732">
        <ele>7.2</ele>
        <time>2020-06-03T08:41:10Z</time>
      </trkpt>
      <trkpt lat="46.38844" lon="-1.48741">
        <ele>7</ele>
        <time>2020-06-03T08:41:11Z</time>
      </trkpt>
      <trkpt lat="46.38845" lon="-1.48751">
        <ele>6.8</ele>
        <time>2020-06-03T08:41:12Z</time>
      </trkpt>
      <trkpt lat="46.38847" lon="-1.48759">
        <ele>6.7</ele>
        <time>2020-06-03T08:41:13Z</time>
      </trkpt>
      <trkpt lat="46.38848" lon="-1.48768">
        <ele>6.6</ele>
        <time>2020-06-03T08:41:14Z</time>
      </trkpt>
      <trkpt lat="46.38848" lon="-1.48777">
        <ele>6.5</ele>
        <time>2020-06-03T08:41:15Z</time>
      </trkpt>
      <trkpt lat="46.38848" lon="-1.48786">
        <ele>6.5</ele>
        <time>2020-06-03T08:41:16Z</time>
      </trkpt>
      <trkpt lat="46.38848" lon="-1.48794">
        <ele>6.5</ele>
        <time>2020-06-03T08:41:17Z</time>
      </trkpt>
      <trkpt lat="46.38847" lon="-1.48802">
        <ele>6.5</ele>
        <time>2020-06-03T08:41:18Z</time>
      </trkpt>
      <trkpt lat="46.38847" lon="-1.4881">
        <ele>6.4</ele>
        <time>2020-06-03T08:41:19Z</time>
      </trkpt>
      <trkpt lat="46.38846" lon="-1.48817">
        <ele>6.4</ele>
        <time>2020-06-03T08:41:20Z</time>
      </trkpt>
      <trkpt lat="46.38846" lon="-1.48824">
        <ele>6.4</ele>
        <time>2020-06-03T08:41:21Z</time>
      </trkpt>
      <trkpt lat="46.38847" lon="-1.48831">
        <ele>6.4</ele>
        <time>2020-06-03T08:41:22Z</time>
      </trkpt>
      <trkpt lat="46.38847" lon="-1.48838">
        <ele>6.4</ele>
        <time>2020-06-03T08:41:23Z</time>
      </trkpt>
      <trkpt lat="46.38848" lon="-1.48844">
        <ele>6.4</ele>
        <time>2020-06-03T08:41:24Z</time>
      </trkpt>
      <trkpt lat="46.38849" lon="-1.48851">
        <ele>6.4</ele>
        <time>2020-06-03T08:41:25Z</time>
      </trkpt>
      <trkpt lat="46.38851" lon="-1.48858">
        <ele>6.4</ele>
        <time>2020-06-03T08:41:26Z</time>
      </trkpt>
      <trkpt lat="46.38853" lon="-1.48864">
        <ele>6.4</ele>
        <time>2020-06-03T08:41:27Z</time>
      </trkpt>
      <trkpt lat="46.38854" lon="-1.48871">
        <ele>6.4</ele>
        <time>2020-06-03T08:41:28Z</time>
      </trkpt>
      <trkpt lat="46.38855" lon="-1.48878">
        <ele>6.4</ele>
        <time>2020-06-03T08:41:29Z</time>
      </trkpt>
      <trkpt lat="46.38855" lon="-1.48884">
        <ele>6.4</ele>
        <time>2020-06-03T08:41:30Z</time>
      </trkpt>
      <trkpt lat="46.38855" lon="-1.4889">
        <ele>6.4</ele>
        <time>2020-06-03T08:41:31Z</time>
      </trkpt>
      <trkpt lat="46.38856" lon="-1.48896">
        <ele>6.4</ele>
        <time>2020-06-03T08:41:32Z</time>
      </trkpt>
      <trkpt lat="46.38855" lon="-1.48902">
        <ele>6.4</ele>
        <time>2020-06-03T08:41:33Z</time>
      </trkpt>
      <trkpt lat="46.38854" lon="-1.48908">
        <ele>6.4</ele>
        <time>2020-06-03T08:41:34Z</time>
      </trkpt>
      <trkpt lat="46.38853" lon="-1.48914">
        <ele>6.4</ele>
        <time>2020-06-03T08:41:35Z</time>
      </trkpt>
      <trkpt lat="46.38851" lon="-1.48921">
        <ele>6.4</ele>
        <time>2020-06-03T08:41:36Z</time>
      </trkpt>
      <trkpt lat="46.38852" lon="-1.48928">
        <ele>6.4</ele>
        <time>2020-06-03T08:41:37Z</time>
      </trkpt>
      <trkpt lat="46.38852" lon="-1.48934">
        <ele>6.4</ele>
        <time>2020-06-03T08:41:38Z</time>
      </trkpt>
      <trkpt lat="46.38852" lon="-1.48941">
        <ele>6.3</ele>
        <time>2020-06-03T08:41:39Z</time>
      </trkpt>
      <trkpt lat="46.38852" lon="-1.48949">
        <ele>6.3</ele>
        <time>2020-06-03T08:41:40Z</time>
      </trkpt>
      <trkpt lat="46.38852" lon="-1.48956">
        <ele>6.3</ele>
        <time>2020-06-03T08:41:41Z</time>
      </trkpt>
      <trkpt lat="46.38853" lon="-1.48964">
        <ele>6.3</ele>
        <time>2020-06-03T08:41:42Z</time>
      </trkpt>
      <trkpt lat="46.38854" lon="-1.48972">
        <ele>6.3</ele>
        <time>2020-06-03T08:41:43Z</time>
      </trkpt>
      <trkpt lat="46.38856" lon="-1.4898">
        <ele>6.3</ele>
        <time>2020-06-03T08:41:44Z</time>
      </trkpt>
      <trkpt lat="46.38858" lon="-1.48988">
        <ele>6.3</ele>
        <time>2020-06-03T08:41:45Z</time>
      </trkpt>
      <trkpt lat="46.38862" lon="-1.48994">
        <ele>6.3</ele>
        <time>2020-06-03T08:41:46Z</time>
      </trkpt>
      <trkpt lat="46.38865" lon="-1.49001">
        <ele>6.3</ele>
        <time>2020-06-03T08:41:47Z</time>
      </trkpt>
      <trkpt lat="46.38868" lon="-1.49007">
        <ele>6.4</ele>
        <time>2020-06-03T08:41:48Z</time>
      </trkpt>
      <trkpt lat="46.3887" lon="-1.49014">
        <ele>6.4</ele>
        <time>2020-06-03T08:41:49Z</time>
      </trkpt>
      <trkpt lat="46.38873" lon="-1.4902">
        <ele>6.4</ele>
        <time>2020-06-03T08:41:50Z</time>
      </trkpt>
      <trkpt lat="46.38875" lon="-1.49027">
        <ele>6.5</ele>
        <time>2020-06-03T08:41:51Z</time>
      </trkpt>
      <trkpt lat="46.38877" lon="-1.49033">
        <ele>6.5</ele>
        <time>2020-06-03T08:41:52Z</time>
      </trkpt>
      <trkpt lat="46.38879" lon="-1.4904">
        <ele>6.6</ele>
        <time>2020-06-03T08:41:53Z</time>
      </trkpt>
      <trkpt lat="46.38881" lon="-1.49047">
        <ele>6.6</ele>
        <time>2020-06-03T08:41:54Z</time>
      </trkpt>
      <trkpt lat="46.38884" lon="-1.49055">
        <ele>6.6</ele>
        <time>2020-06-03T08:41:55Z</time>
      </trkpt>
      <trkpt lat="46.38886" lon="-1.49062">
        <ele>6.7</ele>
        <time>2020-06-03T08:41:56Z</time>
      </trkpt>
      <trkpt lat="46.38889" lon="-1.49069">
        <ele>6.7</ele>
        <time>2020-06-03T08:41:57Z</time>
      </trkpt>
      <trkpt lat="46.38891" lon="-1.49076">
        <ele>6.7</ele>
        <time>2020-06-03T08:41:58Z</time>
      </trkpt>
      <trkpt lat="46.38894" lon="-1.49084">
        <ele>6.7</ele>
        <time>2020-06-03T08:41:59Z</time>
      </trkpt>
      <trkpt lat="46.38896" lon="-1.4909">
        <ele>6.7</ele>
        <time>2020-06-03T08:42:00Z</time>
      </trkpt>
      <trkpt lat="46.38899" lon="-1.49097">
        <ele>6.8</ele>
        <time>2020-06-03T08:42:01Z</time>
      </trkpt>
      <trkpt lat="46.38903" lon="-1.49103">
        <ele>6.8</ele>
        <time>2020-06-03T08:42:02Z</time>
      </trkpt>
      <trkpt lat="46.38906" lon="-1.49108">
        <ele>6.8</ele>
        <time>2020-06-03T08:42:03Z</time>
      </trkpt>
      <trkpt lat="46.38909" lon="-1.49112">
        <ele>6.8</ele>
        <time>2020-06-03T08:42:04Z</time>
      </trkpt>
      <trkpt lat="46.38913" lon="-1.4911">
        <ele>6.8</ele>
        <time>2020-06-03T08:42:05Z</time>
      </trkpt>
      <trkpt lat="46.38916" lon="-1.49106">
        <ele>6.8</ele>
        <time>2020-06-03T08:42:06Z</time>
      </trkpt>
      <trkpt lat="46.38917" lon="-1.49101">
        <ele>6.8</ele>
        <time>2020-06-03T08:42:07Z</time>
      </trkpt>
      <trkpt lat="46.38918" lon="-1.49096">
        <ele>6.9</ele>
        <time>2020-06-03T08:42:08Z</time>
      </trkpt>
      <trkpt lat="46.38919" lon="-1.49091">
        <ele>6.9</ele>
        <time>2020-06-03T08:42:09Z</time>
      </trkpt>
      <trkpt lat="46.38922" lon="-1.49086">
        <ele>6.9</ele>
        <time>2020-06-03T08:42:10Z</time>
      </trkpt>
      <trkpt lat="46.38924" lon="-1.4908">
        <ele>6.9</ele>
        <time>2020-06-03T08:42:11Z</time>
      </trkpt>
      <trkpt lat="46.38925" lon="-1.49076">
        <ele>6.9</ele>
        <time>2020-06-03T08:42:12Z</time>
      </trkpt>
      <trkpt lat="46.38927" lon="-1.49071">
        <ele>6.9</ele>
        <time>2020-06-03T08:42:13Z</time>
      </trkpt>
      <trkpt lat="46.38929" lon="-1.49066">
        <ele>6.9</ele>
        <time>2020-06-03T08:42:14Z</time>
      </trkpt>
      <trkpt lat="46.38932" lon="-1.49062">
        <ele>7</ele>
        <time>2020-06-03T08:42:15Z</time>
      </trkpt>
      <trkpt lat="46.38934" lon="-1.49057">
        <ele>7</ele>
        <time>2020-06-03T08:42:16Z</time>
      </trkpt>
      <trkpt lat="46.38935" lon="-1.49052">
        <ele>7</ele>
        <time>2020-06-03T08:42:17Z</time>
      </trkpt>
      <trkpt lat="46.38938" lon="-1.49048">
        <ele>7.1</ele>
        <time>2020-06-03T08:42:18Z</time>
      </trkpt>
      <trkpt lat="46.3894" lon="-1.49044">
        <ele>7.1</ele>
        <time>2020-06-03T08:42:19Z</time>
      </trkpt>
      <trkpt lat="46.38942" lon="-1.49038">
        <ele>7.2</ele>
        <time>2020-06-03T08:42:20Z</time>
      </trkpt>
      <trkpt lat="46.38944" lon="-1.49033">
        <ele>7.2</ele>
        <time>2020-06-03T08:42:21Z</time>
      </trkpt>
      <trkpt lat="46.38946" lon="-1.49028">
        <ele>7.2</ele>
        <time>2020-06-03T08:42:22Z</time>
      </trkpt>
      <trkpt lat="46.38948" lon="-1.49022">
        <ele>7.3</ele>
        <time>2020-06-03T08:42:23Z</time>
      </trkpt>
      <trkpt lat="46.3895" lon="-1.49017">
        <ele>7.3</ele>
        <time>2020-06-03T08:42:24Z</time>
      </trkpt>
      <trkpt lat="46.38953" lon="-1.49013">
        <ele>7.4</ele>
        <time>2020-06-03T08:42:25Z</time>
      </trkpt>
      <trkpt lat="46.38955" lon="-1.49007">
        <ele>7.5</ele>
        <time>2020-06-03T08:42:26Z</time>
      </trkpt>
      <trkpt lat="46.38958" lon="-1.49001">
        <ele>7.5</ele>
        <time>2020-06-03T08:42:27Z</time>
      </trkpt>
      <trkpt lat="46.3896" lon="-1.48994">
        <ele>7.6</ele>
        <time>2020-06-03T08:42:28Z</time>
      </trkpt>
      <trkpt lat="46.38962" lon="-1.48988">
        <ele>7.6</ele>
        <time>2020-06-03T08:42:29Z</time>
      </trkpt>
      <trkpt lat="46.38964" lon="-1.48981">
        <ele>7.7</ele>
        <time>2020-06-03T08:42:30Z</time>
      </trkpt>
      <trkpt lat="46.38966" lon="-1.48974">
        <ele>7.8</ele>
        <time>2020-06-03T08:42:31Z</time>
      </trkpt>
      <trkpt lat="46.38968" lon="-1.48967">
        <ele>7.8</ele>
        <time>2020-06-03T08:42:32Z</time>
      </trkpt>
      <trkpt lat="46.3897" lon="-1.48961">
        <ele>7.8</ele>
        <time>2020-06-03T08:42:33Z</time>
      </trkpt>
      <trkpt lat="46.38972" lon="-1.48955">
        <ele>7.9</ele>
        <time>2020-06-03T08:42:34Z</time>
      </trkpt>
      <trkpt lat="46.38974" lon="-1.48949">
        <ele>7.9</ele>
        <time>2020-06-03T08:42:35Z</time>
      </trkpt>
      <trkpt lat="46.38976" lon="-1.48943">
        <ele>7.9</ele>
        <time>2020-06-03T08:42:36Z</time>
      </trkpt>
      <trkpt lat="46.38979" lon="-1.48937">
        <ele>7.9</ele>
        <time>2020-06-03T08:42:37Z</time>
      </trkpt>
      <trkpt lat="46.38981" lon="-1.48932">
        <ele>8</ele>
        <time>2020-06-03T08:42:38Z</time>
      </trkpt>
      <trkpt lat="46.38984" lon="-1.48927">
        <ele>8</ele>
        <time>2020-06-03T08:42:39Z</time>
      </trkpt>
      <trkpt lat="46.38986" lon="-1.48922">
        <ele>8</ele>
        <time>2020-06-03T08:42:40Z</time>
      </trkpt>
      <trkpt lat="46.38988" lon="-1.48917">
        <ele>8.1</ele>
        <time>2020-06-03T08:42:41Z</time>
      </trkpt>
      <trkpt lat="46.3899" lon="-1.48911">
        <ele>8.1</ele>
        <time>2020-06-03T08:42:42Z</time>
      </trkpt>
      <trkpt lat="46.38991" lon="-1.48906">
        <ele>8.2</ele>
        <time>2020-06-03T08:42:43Z</time>
      </trkpt>
      <trkpt lat="46.38993" lon="-1.48901">
        <ele>8.2</ele>
        <time>2020-06-03T08:42:44Z</time>
      </trkpt>
      <trkpt lat="46.38996" lon="-1.48896">
        <ele>8.3</ele>
        <time>2020-06-03T08:42:45Z</time>
      </trkpt>
      <trkpt lat="46.38998" lon="-1.4889">
        <ele>8.4</ele>
        <time>2020-06-03T08:42:46Z</time>
      </trkpt>
      <trkpt lat="46.38999" lon="-1.48885">
        <ele>8.5</ele>
        <time>2020-06-03T08:42:47Z</time>
      </trkpt>
      <trkpt lat="46.39001" lon="-1.48879">
        <ele>8.6</ele>
        <time>2020-06-03T08:42:48Z</time>
      </trkpt>
      <trkpt lat="46.39002" lon="-1.48874">
        <ele>8.8</ele>
        <time>2020-06-03T08:42:49Z</time>
      </trkpt>
      <trkpt lat="46.39003" lon="-1.48868">
        <ele>8.9</ele>
        <time>2020-06-03T08:42:50Z</time>
      </trkpt>
      <trkpt lat="46.39004" lon="-1.48862">
        <ele>9.1</ele>
        <time>2020-06-03T08:42:51Z</time>
      </trkpt>
      <trkpt lat="46.39006" lon="-1.48856">
        <ele>9.3</ele>
        <time>2020-06-03T08:42:52Z</time>
      </trkpt>
      <trkpt lat="46.39007" lon="-1.48851">
        <ele>9.5</ele>
        <time>2020-06-03T08:42:53Z</time>
      </trkpt>
      <trkpt lat="46.39009" lon="-1.48846">
        <ele>9.7</ele>
        <time>2020-06-03T08:42:54Z</time>
      </trkpt>
      <trkpt lat="46.3901" lon="-1.48841">
        <ele>9.9</ele>
        <time>2020-06-03T08:42:55Z</time>
      </trkpt>
      <trkpt lat="46.39012" lon="-1.48836">
        <ele>10.1</ele>
        <time>2020-06-03T08:42:56Z</time>
      </trkpt>
      <trkpt lat="46.39013" lon="-1.48831">
        <ele>10.3</ele>
        <time>2020-06-03T08:42:57Z</time>
      </trkpt>
      <trkpt lat="46.39015" lon="-1.48825">
        <ele>10.5</ele>
        <time>2020-06-03T08:42:58Z</time>
      </trkpt>
      <trkpt lat="46.39016" lon="-1.4882">
        <ele>10.7</ele>
        <time>2020-06-03T08:42:59Z</time>
      </trkpt>
      <trkpt lat="46.39018" lon="-1.48816">
        <ele>10.8</ele>
        <time>2020-06-03T08:43:00Z</time>
      </trkpt>
      <trkpt lat="46.39021" lon="-1.48811">
        <ele>10.9</ele>
        <time>2020-06-03T08:43:01Z</time>
      </trkpt>
      <trkpt lat="46.39023" lon="-1.48806">
        <ele>11.1</ele>
        <time>2020-06-03T08:43:02Z</time>
      </trkpt>
      <trkpt lat="46.39026" lon="-1.488">
        <ele>11.4</ele>
        <time>2020-06-03T08:43:03Z</time>
      </trkpt>
      <trkpt lat="46.39028" lon="-1.48793">
        <ele>11.5</ele>
        <time>2020-06-03T08:43:04Z</time>
      </trkpt>
      <trkpt lat="46.3903" lon="-1.48787">
        <ele>11.5</ele>
        <time>2020-06-03T08:43:05Z</time>
      </trkpt>
      <trkpt lat="46.39032" lon="-1.48781">
        <ele>11.6</ele>
        <time>2020-06-03T08:43:06Z</time>
      </trkpt>
      <trkpt lat="46.39034" lon="-1.48775">
        <ele>11.6</ele>
        <time>2020-06-03T08:43:07Z</time>
      </trkpt>
      <trkpt lat="46.39036" lon="-1.48769">
        <ele>11.6</ele>
        <time>2020-06-03T08:43:08Z</time>
      </trkpt>
      <trkpt lat="46.39038" lon="-1.48763">
        <ele>11.5</ele>
        <time>2020-06-03T08:43:09Z</time>
      </trkpt>
      <trkpt lat="46.3904" lon="-1.48756">
        <ele>11.4</ele>
        <time>2020-06-03T08:43:10Z</time>
      </trkpt>
      <trkpt lat="46.39043" lon="-1.4875">
        <ele>11.2</ele>
        <time>2020-06-03T08:43:11Z</time>
      </trkpt>
      <trkpt lat="46.39046" lon="-1.48743">
        <ele>11</ele>
        <time>2020-06-03T08:43:12Z</time>
      </trkpt>
      <trkpt lat="46.39049" lon="-1.48737">
        <ele>10.8</ele>
        <time>2020-06-03T08:43:13Z</time>
      </trkpt>
      <trkpt lat="46.39052" lon="-1.4873">
        <ele>10.7</ele>
        <time>2020-06-03T08:43:14Z</time>
      </trkpt>
      <trkpt lat="46.39055" lon="-1.48724">
        <ele>10.6</ele>
        <time>2020-06-03T08:43:15Z</time>
      </trkpt>
      <trkpt lat="46.39058" lon="-1.48719">
        <ele>10.5</ele>
        <time>2020-06-03T08:43:16Z</time>
      </trkpt>
      <trkpt lat="46.3906" lon="-1.48715">
        <ele>10.5</ele>
        <time>2020-06-03T08:43:17Z</time>
      </trkpt>
      <trkpt lat="46.39062" lon="-1.4871">
        <ele>10.5</ele>
        <time>2020-06-03T08:43:18Z</time>
      </trkpt>
      <trkpt lat="46.39065" lon="-1.48706">
        <ele>10.5</ele>
        <time>2020-06-03T08:43:19Z</time>
      </trkpt>
      <trkpt lat="46.39066" lon="-1.48701">
        <ele>10.5</ele>
        <time>2020-06-03T08:43:20Z</time>
      </trkpt>
      <trkpt lat="46.39068" lon="-1.48697">
        <ele>10.6</ele>
        <time>2020-06-03T08:43:21Z</time>
      </trkpt>
      <trkpt lat="46.39071" lon="-1.48694">
        <ele>10.6</ele>
        <time>2020-06-03T08:43:22Z</time>
      </trkpt>
      <trkpt lat="46.39073" lon="-1.48693">
        <ele>10.7</ele>
        <time>2020-06-03T08:43:23Z</time>
      </trkpt>
      <trkpt lat="46.39075" lon="-1.4869">
        <ele>10.8</ele>
        <time>2020-06-03T08:43:24Z</time>
      </trkpt>
      <trkpt lat="46.39077" lon="-1.48686">
        <ele>10.9</ele>
        <time>2020-06-03T08:43:25Z</time>
      </trkpt>
      <trkpt lat="46.3908" lon="-1.48682">
        <ele>11.1</ele>
        <time>2020-06-03T08:43:26Z</time>
      </trkpt>
      <trkpt lat="46.39081" lon="-1.48681">
        <ele>11.2</ele>
        <time>2020-06-03T08:43:27Z</time>
      </trkpt>
      <trkpt lat="46.39083" lon="-1.48678">
        <ele>11.3</ele>
        <time>2020-06-03T08:43:28Z</time>
      </trkpt>
      <trkpt lat="46.39086" lon="-1.48674">
        <ele>11.5</ele>
        <time>2020-06-03T08:43:29Z</time>
      </trkpt>
      <trkpt lat="46.39089" lon="-1.48671">
        <ele>11.7</ele>
        <time>2020-06-03T08:43:30Z</time>
      </trkpt>
      <trkpt lat="46.39092" lon="-1.48667">
        <ele>11.9</ele>
        <time>2020-06-03T08:43:31Z</time>
      </trkpt>
      <trkpt lat="46.39095" lon="-1.48664">
        <ele>12</ele>
        <time>2020-06-03T08:43:32Z</time>
      </trkpt>
      <trkpt lat="46.39097" lon="-1.48661">
        <ele>12.2</ele>
        <time>2020-06-03T08:43:33Z</time>
      </trkpt>
      <trkpt lat="46.39099" lon="-1.48658">
        <ele>12.3</ele>
        <time>2020-06-03T08:43:34Z</time>
      </trkpt>
      <trkpt lat="46.39102" lon="-1.48654">
        <ele>12.5</ele>
        <time>2020-06-03T08:43:35Z</time>
      </trkpt>
      <trkpt lat="46.39103" lon="-1.48652">
        <ele>12.5</ele>
        <time>2020-06-03T08:43:36Z</time>
      </trkpt>
      <trkpt lat="46.39105" lon="-1.48649">
        <ele>12.6</ele>
        <time>2020-06-03T08:43:37Z</time>
      </trkpt>
      <trkpt lat="46.39107" lon="-1.48645">
        <ele>12.7</ele>
        <time>2020-06-03T08:43:38Z</time>
      </trkpt>
      <trkpt lat="46.39109" lon="-1.48641">
        <ele>12.9</ele>
        <time>2020-06-03T08:43:39Z</time>
      </trkpt>
      <trkpt lat="46.39111" lon="-1.48637">
        <ele>13</ele>
        <time>2020-06-03T08:43:40Z</time>
      </trkpt>
      <trkpt lat="46.39113" lon="-1.48633">
        <ele>13.1</ele>
        <time>2020-06-03T08:43:41Z</time>
      </trkpt>
      <trkpt lat="46.39116" lon="-1.48629">
        <ele>13.2</ele>
        <time>2020-06-03T08:43:42Z</time>
      </trkpt>
      <trkpt lat="46.39119" lon="-1.48627">
        <ele>13.3</ele>
        <time>2020-06-03T08:43:43Z</time>
      </trkpt>
      <trkpt lat="46.39122" lon="-1.48623">
        <ele>13.4</ele>
        <time>2020-06-03T08:43:44Z</time>
      </trkpt>
      <trkpt lat="46.39125" lon="-1.4862">
        <ele>13.5</ele>
        <time>2020-06-03T08:43:45Z</time>
      </trkpt>
      <trkpt lat="46.39127" lon="-1.48617">
        <ele>13.6</ele>
        <time>2020-06-03T08:43:46Z</time>
      </trkpt>
      <trkpt lat="46.3913" lon="-1.48614">
        <ele>13.7</ele>
        <time>2020-06-03T08:43:47Z</time>
      </trkpt>
      <trkpt lat="46.39133" lon="-1.48611">
        <ele>13.9</ele>
        <time>2020-06-03T08:43:48Z</time>
      </trkpt>
      <trkpt lat="46.39135" lon="-1.48607">
        <ele>14</ele>
        <time>2020-06-03T08:43:49Z</time>
      </trkpt>
      <trkpt lat="46.39136" lon="-1.48604">
        <ele>14</ele>
        <time>2020-06-03T08:43:50Z</time>
      </trkpt>
      <trkpt lat="46.39138" lon="-1.486">
        <ele>14.1</ele>
        <time>2020-06-03T08:43:51Z</time>
      </trkpt>
      <trkpt lat="46.3914" lon="-1.48597">
        <ele>14.2</ele>
        <time>2020-06-03T08:43:52Z</time>
      </trkpt>
      <trkpt lat="46.39143" lon="-1.48593">
        <ele>14.3</ele>
        <time>2020-06-03T08:43:53Z</time>
      </trkpt>
      <trkpt lat="46.39145" lon="-1.48589">
        <ele>14.4</ele>
        <time>2020-06-03T08:43:54Z</time>
      </trkpt>
      <trkpt lat="46.39147" lon="-1.48586">
        <ele>14.5</ele>
        <time>2020-06-03T08:43:55Z</time>
      </trkpt>
      <trkpt lat="46.39149" lon="-1.48582">
        <ele>14.6</ele>
        <time>2020-06-03T08:43:56Z</time>
      </trkpt>
      <trkpt lat="46.39151" lon="-1.48578">
        <ele>14.6</ele>
        <time>2020-06-03T08:43:57Z</time>
      </trkpt>
      <trkpt lat="46.39154" lon="-1.48574">
        <ele>14.7</ele>
        <time>2020-06-03T08:43:58Z</time>
      </trkpt>
      <trkpt lat="46.39157" lon="-1.48571">
        <ele>14.8</ele>
        <time>2020-06-03T08:43:59Z</time>
      </trkpt>
      <trkpt lat="46.3916" lon="-1.48569">
        <ele>14.8</ele>
        <time>2020-06-03T08:44:00Z</time>
      </trkpt>
      <trkpt lat="46.39163" lon="-1.48566">
        <ele>14.8</ele>
        <time>2020-06-03T08:44:01Z</time>
      </trkpt>
      <trkpt lat="46.39166" lon="-1.48563">
        <ele>14.8</ele>
        <time>2020-06-03T08:44:02Z</time>
      </trkpt>
      <trkpt lat="46.3917" lon="-1.48561">
        <ele>14.8</ele>
        <time>2020-06-03T08:44:03Z</time>
      </trkpt>
      <trkpt lat="46.39174" lon="-1.48558">
        <ele>14.7</ele>
        <time>2020-06-03T08:44:04Z</time>
      </trkpt>
      <trkpt lat="46.39178" lon="-1.48558">
        <ele>14.6</ele>
        <time>2020-06-03T08:44:05Z</time>
      </trkpt>
      <trkpt lat="46.39183" lon="-1.48556">
        <ele>14.5</ele>
        <time>2020-06-03T08:44:06Z</time>
      </trkpt>
      <trkpt lat="46.39187" lon="-1.48555">
        <ele>14.3</ele>
        <time>2020-06-03T08:44:07Z</time>
      </trkpt>
      <trkpt lat="46.39191" lon="-1.48553">
        <ele>14.1</ele>
        <time>2020-06-03T08:44:08Z</time>
      </trkpt>
      <trkpt lat="46.39195" lon="-1.48552">
        <ele>13.8</ele>
        <time>2020-06-03T08:44:09Z</time>
      </trkpt>
      <trkpt lat="46.39199" lon="-1.48552">
        <ele>13.5</ele>
        <time>2020-06-03T08:44:10Z</time>
      </trkpt>
      <trkpt lat="46.39204" lon="-1.4855">
        <ele>13.2</ele>
        <time>2020-06-03T08:44:11Z</time>
      </trkpt>
      <trkpt lat="46.39208" lon="-1.48549">
        <ele>12.9</ele>
        <time>2020-06-03T08:44:12Z</time>
      </trkpt>
      <trkpt lat="46.39212" lon="-1.4855">
        <ele>12.6</ele>
        <time>2020-06-03T08:44:13Z</time>
      </trkpt>
      <trkpt lat="46.39217" lon="-1.48549">
        <ele>12.2</ele>
        <time>2020-06-03T08:44:14Z</time>
      </trkpt>
      <trkpt lat="46.39221" lon="-1.48549">
        <ele>11.9</ele>
        <time>2020-06-03T08:44:15Z</time>
      </trkpt>
      <trkpt lat="46.39225" lon="-1.48548">
        <ele>11.5</ele>
        <time>2020-06-03T08:44:16Z</time>
      </trkpt>
      <trkpt lat="46.39229" lon="-1.48548">
        <ele>11.2</ele>
        <time>2020-06-03T08:44:17Z</time>
      </trkpt>
      <trkpt lat="46.39233" lon="-1.48547">
        <ele>10.9</ele>
        <time>2020-06-03T08:44:18Z</time>
      </trkpt>
      <trkpt lat="46.39238" lon="-1.48547">
        <ele>10.6</ele>
        <time>2020-06-03T08:44:19Z</time>
      </trkpt>
      <trkpt lat="46.39242" lon="-1.48548">
        <ele>10.3</ele>
        <time>2020-06-03T08:44:20Z</time>
      </trkpt>
      <trkpt lat="46.39245" lon="-1.4855">
        <ele>10.2</ele>
        <time>2020-06-03T08:44:21Z</time>
      </trkpt>
      <trkpt lat="46.39248" lon="-1.48554">
        <ele>10</ele>
        <time>2020-06-03T08:44:22Z</time>
      </trkpt>
      <trkpt lat="46.39251" lon="-1.48557">
        <ele>9.8</ele>
        <time>2020-06-03T08:44:23Z</time>
      </trkpt>
      <trkpt lat="46.39254" lon="-1.48561">
        <ele>9.7</ele>
        <time>2020-06-03T08:44:24Z</time>
      </trkpt>
      <trkpt lat="46.39256" lon="-1.48564">
        <ele>9.6</ele>
        <time>2020-06-03T08:44:25Z</time>
      </trkpt>
      <trkpt lat="46.39259" lon="-1.48569">
        <ele>9.5</ele>
        <time>2020-06-03T08:44:26Z</time>
      </trkpt>
      <trkpt lat="46.39261" lon="-1.48573">
        <ele>9.4</ele>
        <time>2020-06-03T08:44:27Z</time>
      </trkpt>
      <trkpt lat="46.39264" lon="-1.48578">
        <ele>9.3</ele>
        <time>2020-06-03T08:44:28Z</time>
      </trkpt>
      <trkpt lat="46.39266" lon="-1.48583">
        <ele>9.2</ele>
        <time>2020-06-03T08:44:29Z</time>
      </trkpt>
      <trkpt lat="46.39268" lon="-1.48589">
        <ele>9.1</ele>
        <time>2020-06-03T08:44:30Z</time>
      </trkpt>
      <trkpt lat="46.3927" lon="-1.48594">
        <ele>9.1</ele>
        <time>2020-06-03T08:44:31Z</time>
      </trkpt>
      <trkpt lat="46.39271" lon="-1.48601">
        <ele>9.1</ele>
        <time>2020-06-03T08:44:32Z</time>
      </trkpt>
      <trkpt lat="46.39272" lon="-1.48608">
        <ele>9.1</ele>
        <time>2020-06-03T08:44:33Z</time>
      </trkpt>
      <trkpt lat="46.39274" lon="-1.48615">
        <ele>9.1</ele>
        <time>2020-06-03T08:44:34Z</time>
      </trkpt>
      <trkpt lat="46.39276" lon="-1.48621">
        <ele>9.1</ele>
        <time>2020-06-03T08:44:35Z</time>
      </trkpt>
      <trkpt lat="46.39277" lon="-1.48628">
        <ele>9.2</ele>
        <time>2020-06-03T08:44:36Z</time>
      </trkpt>
      <trkpt lat="46.39278" lon="-1.48634">
        <ele>9.3</ele>
        <time>2020-06-03T08:44:37Z</time>
      </trkpt>
      <trkpt lat="46.39279" lon="-1.4864">
        <ele>9.3</ele>
        <time>2020-06-03T08:44:38Z</time>
      </trkpt>
      <trkpt lat="46.39279" lon="-1.48646">
        <ele>9.4</ele>
        <time>2020-06-03T08:44:39Z</time>
      </trkpt>
      <trkpt lat="46.3928" lon="-1.48652">
        <ele>9.5</ele>
        <time>2020-06-03T08:44:40Z</time>
      </trkpt>
      <trkpt lat="46.3928" lon="-1.48658">
        <ele>9.6</ele>
        <time>2020-06-03T08:44:41Z</time>
      </trkpt>
      <trkpt lat="46.3928" lon="-1.48663">
        <ele>9.7</ele>
        <time>2020-06-03T08:44:42Z</time>
      </trkpt>
      <trkpt lat="46.3928" lon="-1.48668">
        <ele>9.8</ele>
        <time>2020-06-03T08:44:43Z</time>
      </trkpt>
      <trkpt lat="46.39279" lon="-1.48673">
        <ele>9.9</ele>
        <time>2020-06-03T08:44:44Z</time>
      </trkpt>
      <trkpt lat="46.39278" lon="-1.48678">
        <ele>10</ele>
        <time>2020-06-03T08:44:45Z</time>
      </trkpt>
      <trkpt lat="46.39278" lon="-1.48683">
        <ele>10.2</ele>
        <time>2020-06-03T08:44:46Z</time>
      </trkpt>
      <trkpt lat="46.39277" lon="-1.48688">
        <ele>10.3</ele>
        <time>2020-06-03T08:44:47Z</time>
      </trkpt>
      <trkpt lat="46.39277" lon="-1.48694">
        <ele>10.5</ele>
        <time>2020-06-03T08:44:48Z</time>
      </trkpt>
      <trkpt lat="46.39276" lon="-1.48701">
        <ele>10.6</ele>
        <time>2020-06-03T08:44:49Z</time>
      </trkpt>
      <trkpt lat="46.39275" lon="-1.48706">
        <ele>10.8</ele>
        <time>2020-06-03T08:44:50Z</time>
      </trkpt>
      <trkpt lat="46.39274" lon="-1.48711">
        <ele>10.9</ele>
        <time>2020-06-03T08:44:51Z</time>
      </trkpt>
      <trkpt lat="46.39273" lon="-1.48717">
        <ele>11.1</ele>
        <time>2020-06-03T08:44:52Z</time>
      </trkpt>
      <trkpt lat="46.39272" lon="-1.48723">
        <ele>11.2</ele>
        <time>2020-06-03T08:44:53Z</time>
      </trkpt>
      <trkpt lat="46.39272" lon="-1.48728">
        <ele>11.3</ele>
        <time>2020-06-03T08:44:54Z</time>
      </trkpt>
      <trkpt lat="46.39273" lon="-1.48734">
        <ele>11.4</ele>
        <time>2020-06-03T08:44:55Z</time>
      </trkpt>
      <trkpt lat="46.39275" lon="-1.4874">
        <ele>11.5</ele>
        <time>2020-06-03T08:44:56Z</time>
      </trkpt>
      <trkpt lat="46.39277" lon="-1.48745">
        <ele>11.6</ele>
        <time>2020-06-03T08:44:57Z</time>
      </trkpt>
      <trkpt lat="46.39278" lon="-1.4875">
        <ele>11.7</ele>
        <time>2020-06-03T08:44:58Z</time>
      </trkpt>
      <trkpt lat="46.3928" lon="-1.48756">
        <ele>11.7</ele>
        <time>2020-06-03T08:44:59Z</time>
      </trkpt>
      <trkpt lat="46.39282" lon="-1.4876">
        <ele>11.7</ele>
        <time>2020-06-03T08:45:00Z</time>
      </trkpt>
      <trkpt lat="46.39285" lon="-1.48767">
        <ele>11.7</ele>
        <time>2020-06-03T08:45:01Z</time>
      </trkpt>
      <trkpt lat="46.39289" lon="-1.48773">
        <ele>11.7</ele>
        <time>2020-06-03T08:45:02Z</time>
      </trkpt>
      <trkpt lat="46.39292" lon="-1.48779">
        <ele>11.6</ele>
        <time>2020-06-03T08:45:03Z</time>
      </trkpt>
      <trkpt lat="46.39295" lon="-1.48785">
        <ele>11.4</ele>
        <time>2020-06-03T08:45:04Z</time>
      </trkpt>
      <trkpt lat="46.39298" lon="-1.48791">
        <ele>11.2</ele>
        <time>2020-06-03T08:45:05Z</time>
      </trkpt>
      <trkpt lat="46.39302" lon="-1.48796">
        <ele>11</ele>
        <time>2020-06-03T08:45:06Z</time>
      </trkpt>
      <trkpt lat="46.39304" lon="-1.48802">
        <ele>10.8</ele>
        <time>2020-06-03T08:45:07Z</time>
      </trkpt>
      <trkpt lat="46.39307" lon="-1.48807">
        <ele>10.6</ele>
        <time>2020-06-03T08:45:08Z</time>
      </trkpt>
      <trkpt lat="46.3931" lon="-1.48811">
        <ele>10.4</ele>
        <time>2020-06-03T08:45:09Z</time>
      </trkpt>
      <trkpt lat="46.39312" lon="-1.48815">
        <ele>10.2</ele>
        <time>2020-06-03T08:45:10Z</time>
      </trkpt>
      <trkpt lat="46.39315" lon="-1.48818">
        <ele>10.1</ele>
        <time>2020-06-03T08:45:11Z</time>
      </trkpt>
      <trkpt lat="46.39319" lon="-1.4882">
        <ele>9.9</ele>
        <time>2020-06-03T08:45:12Z</time>
      </trkpt>
      <trkpt lat="46.39323" lon="-1.4882">
        <ele>9.6</ele>
        <time>2020-06-03T08:45:13Z</time>
      </trkpt>
      <trkpt lat="46.39329" lon="-1.4882">
        <ele>9.4</ele>
        <time>2020-06-03T08:45:14Z</time>
      </trkpt>
      <trkpt lat="46.39334" lon="-1.48818">
        <ele>9.2</ele>
        <time>2020-06-03T08:45:15Z</time>
      </trkpt>
      <trkpt lat="46.39339" lon="-1.48817">
        <ele>9</ele>
        <time>2020-06-03T08:45:16Z</time>
      </trkpt>
      <trkpt lat="46.39345" lon="-1.48816">
        <ele>8.8</ele>
        <time>2020-06-03T08:45:17Z</time>
      </trkpt>
      <trkpt lat="46.39351" lon="-1.48816">
        <ele>8.7</ele>
        <time>2020-06-03T08:45:18Z</time>
      </trkpt>
      <trkpt lat="46.39357" lon="-1.48817">
        <ele>8.6</ele>
        <time>2020-06-03T08:45:19Z</time>
      </trkpt>
      <trkpt lat="46.39362" lon="-1.48817">
        <ele>8.5</ele>
        <time>2020-06-03T08:45:20Z</time>
      </trkpt>
      <trkpt lat="46.39366" lon="-1.48819">
        <ele>8.5</ele>
        <time>2020-06-03T08:45:21Z</time>
      </trkpt>
      <trkpt lat="46.39371" lon="-1.4882">
        <ele>8.4</ele>
        <time>2020-06-03T08:45:22Z</time>
      </trkpt>
      <trkpt lat="46.39375" lon="-1.48822">
        <ele>8.4</ele>
        <time>2020-06-03T08:45:23Z</time>
      </trkpt>
      <trkpt lat="46.39378" lon="-1.48826">
        <ele>8.4</ele>
        <time>2020-06-03T08:45:24Z</time>
      </trkpt>
      <trkpt lat="46.39381" lon="-1.48831">
        <ele>8.4</ele>
        <time>2020-06-03T08:45:25Z</time>
      </trkpt>
      <trkpt lat="46.39384" lon="-1.48836">
        <ele>8.3</ele>
        <time>2020-06-03T08:45:26Z</time>
      </trkpt>
      <trkpt lat="46.39388" lon="-1.4884">
        <ele>8.3</ele>
        <time>2020-06-03T08:45:27Z</time>
      </trkpt>
      <trkpt lat="46.39391" lon="-1.48844">
        <ele>8.4</ele>
        <time>2020-06-03T08:45:28Z</time>
      </trkpt>
      <trkpt lat="46.39394" lon="-1.48847">
        <ele>8.4</ele>
        <time>2020-06-03T08:45:29Z</time>
      </trkpt>
      <trkpt lat="46.39397" lon="-1.48851">
        <ele>8.4</ele>
        <time>2020-06-03T08:45:30Z</time>
      </trkpt>
      <trkpt lat="46.394" lon="-1.48854">
        <ele>8.5</ele>
        <time>2020-06-03T08:45:31Z</time>
      </trkpt>
      <trkpt lat="46.39402" lon="-1.48858">
        <ele>8.5</ele>
        <time>2020-06-03T08:45:32Z</time>
      </trkpt>
      <trkpt lat="46.39406" lon="-1.48862">
        <ele>8.6</ele>
        <time>2020-06-03T08:45:33Z</time>
      </trkpt>
      <trkpt lat="46.39409" lon="-1.48865">
        <ele>8.6</ele>
        <time>2020-06-03T08:45:34Z</time>
      </trkpt>
      <trkpt lat="46.39413" lon="-1.48866">
        <ele>8.7</ele>
        <time>2020-06-03T08:45:35Z</time>
      </trkpt>
      <trkpt lat="46.39416" lon="-1.48867">
        <ele>8.7</ele>
        <time>2020-06-03T08:45:36Z</time>
      </trkpt>
      <trkpt lat="46.39421" lon="-1.48866">
        <ele>8.7</ele>
        <time>2020-06-03T08:45:37Z</time>
      </trkpt>
      <trkpt lat="46.39425" lon="-1.48865">
        <ele>8.7</ele>
        <time>2020-06-03T08:45:38Z</time>
      </trkpt>
      <trkpt lat="46.39429" lon="-1.48864">
        <ele>8.7</ele>
        <time>2020-06-03T08:45:39Z</time>
      </trkpt>
      <trkpt lat="46.39433" lon="-1.48864">
        <ele>8.6</ele>
        <time>2020-06-03T08:45:40Z</time>
      </trkpt>
      <trkpt lat="46.39435" lon="-1.48863">
        <ele>8.6</ele>
        <time>2020-06-03T08:45:41Z</time>
      </trkpt>
      <trkpt lat="46.39438" lon="-1.48862">
        <ele>8.6</ele>
        <time>2020-06-03T08:45:42Z</time>
      </trkpt>
      <trkpt lat="46.39442" lon="-1.4886">
        <ele>8.6</ele>
        <time>2020-06-03T08:45:43Z</time>
      </trkpt>
      <trkpt lat="46.39447" lon="-1.48859">
        <ele>8.5</ele>
        <time>2020-06-03T08:45:44Z</time>
      </trkpt>
      <trkpt lat="46.39452" lon="-1.48858">
        <ele>8.5</ele>
        <time>2020-06-03T08:45:45Z</time>
      </trkpt>
      <trkpt lat="46.39456" lon="-1.48857">
        <ele>8.5</ele>
        <time>2020-06-03T08:45:46Z</time>
      </trkpt>
      <trkpt lat="46.3946" lon="-1.48857">
        <ele>8.5</ele>
        <time>2020-06-03T08:45:47Z</time>
      </trkpt>
      <trkpt lat="46.39463" lon="-1.48857">
        <ele>8.5</ele>
        <time>2020-06-03T08:45:48Z</time>
      </trkpt>
      <trkpt lat="46.39468" lon="-1.48857">
        <ele>8.6</ele>
        <time>2020-06-03T08:45:49Z</time>
      </trkpt>
      <trkpt lat="46.39471" lon="-1.48858">
        <ele>8.6</ele>
        <time>2020-06-03T08:45:50Z</time>
      </trkpt>
      <trkpt lat="46.39475" lon="-1.48858">
        <ele>8.6</ele>
        <time>2020-06-03T08:45:51Z</time>
      </trkpt>
      <trkpt lat="46.39479" lon="-1.48858">
        <ele>8.7</ele>
        <time>2020-06-03T08:45:52Z</time>
      </trkpt>
      <trkpt lat="46.39483" lon="-1.48858">
        <ele>8.7</ele>
        <time>2020-06-03T08:45:53Z</time>
      </trkpt>
      <trkpt lat="46.39487" lon="-1.48857">
        <ele>8.8</ele>
        <time>2020-06-03T08:45:54Z</time>
      </trkpt>
      <trkpt lat="46.3949" lon="-1.48857">
        <ele>8.9</ele>
        <time>2020-06-03T08:45:55Z</time>
      </trkpt>
      <trkpt lat="46.39494" lon="-1.48857">
        <ele>8.9</ele>
        <time>2020-06-03T08:45:56Z</time>
      </trkpt>
      <trkpt lat="46.39498" lon="-1.48857">
        <ele>9</ele>
        <time>2020-06-03T08:45:57Z</time>
      </trkpt>
      <trkpt lat="46.39502" lon="-1.48859">
        <ele>9.1</ele>
        <time>2020-06-03T08:45:58Z</time>
      </trkpt>
      <trkpt lat="46.39506" lon="-1.48862">
        <ele>9.2</ele>
        <time>2020-06-03T08:45:59Z</time>
      </trkpt>
      <trkpt lat="46.39509" lon="-1.48866">
        <ele>9.3</ele>
        <time>2020-06-03T08:46:00Z</time>
      </trkpt>
      <trkpt lat="46.39513" lon="-1.4887">
        <ele>9.4</ele>
        <time>2020-06-03T08:46:01Z</time>
      </trkpt>
      <trkpt lat="46.39516" lon="-1.48877">
        <ele>9.5</ele>
        <time>2020-06-03T08:46:02Z</time>
      </trkpt>
      <trkpt lat="46.39518" lon="-1.48884">
        <ele>9.6</ele>
        <time>2020-06-03T08:46:03Z</time>
      </trkpt>
      <trkpt lat="46.39519" lon="-1.4889">
        <ele>9.6</ele>
        <time>2020-06-03T08:46:04Z</time>
      </trkpt>
      <trkpt lat="46.39521" lon="-1.48897">
        <ele>9.7</ele>
        <time>2020-06-03T08:46:05Z</time>
      </trkpt>
      <trkpt lat="46.39522" lon="-1.48903">
        <ele>9.7</ele>
        <time>2020-06-03T08:46:06Z</time>
      </trkpt>
      <trkpt lat="46.39523" lon="-1.48909">
        <ele>9.7</ele>
        <time>2020-06-03T08:46:07Z</time>
      </trkpt>
      <trkpt lat="46.39526" lon="-1.48915">
        <ele>9.7</ele>
        <time>2020-06-03T08:46:08Z</time>
      </trkpt>
      <trkpt lat="46.39528" lon="-1.4892">
        <ele>9.7</ele>
        <time>2020-06-03T08:46:09Z</time>
      </trkpt>
      <trkpt lat="46.3953" lon="-1.48925">
        <ele>9.7</ele>
        <time>2020-06-03T08:46:10Z</time>
      </trkpt>
      <trkpt lat="46.39532" lon="-1.48932">
        <ele>9.6</ele>
        <time>2020-06-03T08:46:11Z</time>
      </trkpt>
      <trkpt lat="46.39535" lon="-1.48938">
        <ele>9.5</ele>
        <time>2020-06-03T08:46:12Z</time>
      </trkpt>
      <trkpt lat="46.39537" lon="-1.48942">
        <ele>9.5</ele>
        <time>2020-06-03T08:46:13Z</time>
      </trkpt>
      <trkpt lat="46.3954" lon="-1.48946">
        <ele>9.4</ele>
        <time>2020-06-03T08:46:14Z</time>
      </trkpt>
      <trkpt lat="46.39543" lon="-1.48947">
        <ele>9.3</ele>
        <time>2020-06-03T08:46:15Z</time>
      </trkpt>
      <trkpt lat="46.39548" lon="-1.48949">
        <ele>9.2</ele>
        <time>2020-06-03T08:46:16Z</time>
      </trkpt>
      <trkpt lat="46.39553" lon="-1.48952">
        <ele>9</ele>
        <time>2020-06-03T08:46:17Z</time>
      </trkpt>
      <trkpt lat="46.39558" lon="-1.48955">
        <ele>8.8</ele>
        <time>2020-06-03T08:46:18Z</time>
      </trkpt>
      <trkpt lat="46.39564" lon="-1.48959">
        <ele>8.6</ele>
        <time>2020-06-03T08:46:19Z</time>
      </trkpt>
      <trkpt lat="46.3957" lon="-1.48963">
        <ele>8.4</ele>
        <time>2020-06-03T08:46:20Z</time>
      </trkpt>
      <trkpt lat="46.39575" lon="-1.48967">
        <ele>8.3</ele>
        <time>2020-06-03T08:46:21Z</time>
      </trkpt>
      <trkpt lat="46.39581" lon="-1.4897">
        <ele>8.1</ele>
        <time>2020-06-03T08:46:22Z</time>
      </trkpt>
      <trkpt lat="46.39587" lon="-1.48971">
        <ele>8</ele>
        <time>2020-06-03T08:46:23Z</time>
      </trkpt>
      <trkpt lat="46.39593" lon="-1.4897">
        <ele>8</ele>
        <time>2020-06-03T08:46:24Z</time>
      </trkpt>
      <trkpt lat="46.39599" lon="-1.48967">
        <ele>7.9</ele>
        <time>2020-06-03T08:46:25Z</time>
      </trkpt>
      <trkpt lat="46.39604" lon="-1.48965">
        <ele>7.9</ele>
        <time>2020-06-03T08:46:26Z</time>
      </trkpt>
      <trkpt lat="46.39609" lon="-1.48962">
        <ele>7.9</ele>
        <time>2020-06-03T08:46:27Z</time>
      </trkpt>
      <trkpt lat="46.39613" lon="-1.4896">
        <ele>7.9</ele>
        <time>2020-06-03T08:46:28Z</time>
      </trkpt>
      <trkpt lat="46.39617" lon="-1.48958">
        <ele>7.9</ele>
        <time>2020-06-03T08:46:29Z</time>
      </trkpt>
      <trkpt lat="46.3962" lon="-1.48956">
        <ele>7.9</ele>
        <time>2020-06-03T08:46:30Z</time>
      </trkpt>
      <trkpt lat="46.39623" lon="-1.48953">
        <ele>7.8</ele>
        <time>2020-06-03T08:46:31Z</time>
      </trkpt>
      <trkpt lat="46.39625" lon="-1.48951">
        <ele>7.8</ele>
        <time>2020-06-03T08:46:32Z</time>
      </trkpt>
      <trkpt lat="46.39628" lon="-1.48949">
        <ele>7.8</ele>
        <time>2020-06-03T08:46:33Z</time>
      </trkpt>
      <trkpt lat="46.39632" lon="-1.48946">
        <ele>7.8</ele>
        <time>2020-06-03T08:46:34Z</time>
      </trkpt>
      <trkpt lat="46.39636" lon="-1.48942">
        <ele>7.7</ele>
        <time>2020-06-03T08:46:35Z</time>
      </trkpt>
      <trkpt lat="46.3964" lon="-1.48939">
        <ele>7.7</ele>
        <time>2020-06-03T08:46:36Z</time>
      </trkpt>
      <trkpt lat="46.39643" lon="-1.48936">
        <ele>7.6</ele>
        <time>2020-06-03T08:46:37Z</time>
      </trkpt>
      <trkpt lat="46.39646" lon="-1.48934">
        <ele>7.6</ele>
        <time>2020-06-03T08:46:38Z</time>
      </trkpt>
      <trkpt lat="46.39649" lon="-1.4893">
        <ele>7.5</ele>
        <time>2020-06-03T08:46:39Z</time>
      </trkpt>
      <trkpt lat="46.39652" lon="-1.48927">
        <ele>7.5</ele>
        <time>2020-06-03T08:46:40Z</time>
      </trkpt>
      <trkpt lat="46.39655" lon="-1.48924">
        <ele>7.4</ele>
        <time>2020-06-03T08:46:41Z</time>
      </trkpt>
      <trkpt lat="46.39658" lon="-1.4892">
        <ele>7.4</ele>
        <time>2020-06-03T08:46:42Z</time>
      </trkpt>
      <trkpt lat="46.39661" lon="-1.48917">
        <ele>7.3</ele>
        <time>2020-06-03T08:46:43Z</time>
      </trkpt>
      <trkpt lat="46.39664" lon="-1.48915">
        <ele>7.3</ele>
        <time>2020-06-03T08:46:44Z</time>
      </trkpt>
      <trkpt lat="46.39668" lon="-1.48912">
        <ele>7.3</ele>
        <time>2020-06-03T08:46:45Z</time>
      </trkpt>
      <trkpt lat="46.39671" lon="-1.48909">
        <ele>7.3</ele>
        <time>2020-06-03T08:46:46Z</time>
      </trkpt>
      <trkpt lat="46.39674" lon="-1.48904">
        <ele>7.2</ele>
        <time>2020-06-03T08:46:47Z</time>
      </trkpt>
      <trkpt lat="46.39676" lon="-1.489">
        <ele>7.2</ele>
        <time>2020-06-03T08:46:48Z</time>
      </trkpt>
      <trkpt lat="46.39679" lon="-1.48897">
        <ele>7.2</ele>
        <time>2020-06-03T08:46:49Z</time>
      </trkpt>
      <trkpt lat="46.39682" lon="-1.48892">
        <ele>7.2</ele>
        <time>2020-06-03T08:46:50Z</time>
      </trkpt>
      <trkpt lat="46.39687" lon="-1.48889">
        <ele>7.1</ele>
        <time>2020-06-03T08:46:51Z</time>
      </trkpt>
      <trkpt lat="46.3969" lon="-1.48885">
        <ele>7.1</ele>
        <time>2020-06-03T08:46:52Z</time>
      </trkpt>
      <trkpt lat="46.39695" lon="-1.48878">
        <ele>7.1</ele>
        <time>2020-06-03T08:46:53Z</time>
      </trkpt>
      <trkpt lat="46.397" lon="-1.48872">
        <ele>7.1</ele>
        <time>2020-06-03T08:46:54Z</time>
      </trkpt>
      <trkpt lat="46.39705" lon="-1.48866">
        <ele>7.1</ele>
        <time>2020-06-03T08:46:55Z</time>
      </trkpt>
      <trkpt lat="46.3971" lon="-1.48859">
        <ele>7.2</ele>
        <time>2020-06-03T08:46:56Z</time>
      </trkpt>
      <trkpt lat="46.39716" lon="-1.48854">
        <ele>7.3</ele>
        <time>2020-06-03T08:46:57Z</time>
      </trkpt>
      <trkpt lat="46.3972" lon="-1.48851">
        <ele>7.3</ele>
        <time>2020-06-03T08:46:58Z</time>
      </trkpt>
      <trkpt lat="46.39725" lon="-1.48848">
        <ele>7.5</ele>
        <time>2020-06-03T08:46:59Z</time>
      </trkpt>
      <trkpt lat="46.39729" lon="-1.48845">
        <ele>7.5</ele>
        <time>2020-06-03T08:47:00Z</time>
      </trkpt>
      <trkpt lat="46.39731" lon="-1.48842">
        <ele>7.6</ele>
        <time>2020-06-03T08:47:01Z</time>
      </trkpt>
      <trkpt lat="46.39735" lon="-1.48839">
        <ele>7.7</ele>
        <time>2020-06-03T08:47:02Z</time>
      </trkpt>
      <trkpt lat="46.39738" lon="-1.48838">
        <ele>7.7</ele>
        <time>2020-06-03T08:47:03Z</time>
      </trkpt>
      <trkpt lat="46.39741" lon="-1.48836">
        <ele>7.8</ele>
        <time>2020-06-03T08:47:04Z</time>
      </trkpt>
      <trkpt lat="46.39745" lon="-1.48835">
        <ele>7.8</ele>
        <time>2020-06-03T08:47:05Z</time>
      </trkpt>
      <trkpt lat="46.39749" lon="-1.48835">
        <ele>7.8</ele>
        <time>2020-06-03T08:47:06Z</time>
      </trkpt>
      <trkpt lat="46.39753" lon="-1.48834">
        <ele>7.8</ele>
        <time>2020-06-03T08:47:07Z</time>
      </trkpt>
      <trkpt lat="46.39756" lon="-1.48833">
        <ele>7.8</ele>
        <time>2020-06-03T08:47:08Z</time>
      </trkpt>
      <trkpt lat="46.3976" lon="-1.48832">
        <ele>7.8</ele>
        <time>2020-06-03T08:47:09Z</time>
      </trkpt>
      <trkpt lat="46.39764" lon="-1.48832">
        <ele>7.8</ele>
        <time>2020-06-03T08:47:10Z</time>
      </trkpt>
      <trkpt lat="46.39767" lon="-1.48832">
        <ele>7.8</ele>
        <time>2020-06-03T08:47:11Z</time>
      </trkpt>
      <trkpt lat="46.3977" lon="-1.48832">
        <ele>7.8</ele>
        <time>2020-06-03T08:47:12Z</time>
      </trkpt>
      <trkpt lat="46.39774" lon="-1.48833">
        <ele>7.8</ele>
        <time>2020-06-03T08:47:13Z</time>
      </trkpt>
      <trkpt lat="46.39777" lon="-1.48833">
        <ele>7.8</ele>
        <time>2020-06-03T08:47:14Z</time>
      </trkpt>
      <trkpt lat="46.39781" lon="-1.48834">
        <ele>7.8</ele>
        <time>2020-06-03T08:47:15Z</time>
      </trkpt>
      <trkpt lat="46.39782" lon="-1.48834">
        <ele>7.8</ele>
        <time>2020-06-03T08:47:16Z</time>
      </trkpt>
      <trkpt lat="46.39786" lon="-1.48835">
        <ele>7.8</ele>
        <time>2020-06-03T08:47:17Z</time>
      </trkpt>
      <trkpt lat="46.3979" lon="-1.48835">
        <ele>7.8</ele>
        <time>2020-06-03T08:47:18Z</time>
      </trkpt>
      <trkpt lat="46.39794" lon="-1.48836">
        <ele>7.8</ele>
        <time>2020-06-03T08:47:19Z</time>
      </trkpt>
      <trkpt lat="46.39798" lon="-1.48836">
        <ele>7.8</ele>
        <time>2020-06-03T08:47:20Z</time>
      </trkpt>
      <trkpt lat="46.39802" lon="-1.48835">
        <ele>7.8</ele>
        <time>2020-06-03T08:47:21Z</time>
      </trkpt>
      <trkpt lat="46.39806" lon="-1.48834">
        <ele>7.8</ele>
        <time>2020-06-03T08:47:22Z</time>
      </trkpt>
      <trkpt lat="46.3981" lon="-1.48832">
        <ele>7.8</ele>
        <time>2020-06-03T08:47:23Z</time>
      </trkpt>
      <trkpt lat="46.39814" lon="-1.48828">
        <ele>7.7</ele>
        <time>2020-06-03T08:47:24Z</time>
      </trkpt>
      <trkpt lat="46.39817" lon="-1.48825">
        <ele>7.7</ele>
        <time>2020-06-03T08:47:25Z</time>
      </trkpt>
      <trkpt lat="46.39822" lon="-1.48821">
        <ele>7.7</ele>
        <time>2020-06-03T08:47:26Z</time>
      </trkpt>
      <trkpt lat="46.39826" lon="-1.48818">
        <ele>7.7</ele>
        <time>2020-06-03T08:47:27Z</time>
      </trkpt>
      <trkpt lat="46.39829" lon="-1.48814">
        <ele>7.7</ele>
        <time>2020-06-03T08:47:28Z</time>
      </trkpt>
      <trkpt lat="46.39833" lon="-1.4881">
        <ele>7.7</ele>
        <time>2020-06-03T08:47:29Z</time>
      </trkpt>
      <trkpt lat="46.39836" lon="-1.48807">
        <ele>7.8</ele>
        <time>2020-06-03T08:47:30Z</time>
      </trkpt>
      <trkpt lat="46.39838" lon="-1.48803">
        <ele>7.8</ele>
        <time>2020-06-03T08:47:31Z</time>
      </trkpt>
      <trkpt lat="46.39841" lon="-1.488">
        <ele>7.8</ele>
        <time>2020-06-03T08:47:32Z</time>
      </trkpt>
      <trkpt lat="46.39844" lon="-1.48797">
        <ele>7.8</ele>
        <time>2020-06-03T08:47:33Z</time>
      </trkpt>
      <trkpt lat="46.39847" lon="-1.48793">
        <ele>7.8</ele>
        <time>2020-06-03T08:47:34Z</time>
      </trkpt>
      <trkpt lat="46.39851" lon="-1.48788">
        <ele>7.8</ele>
        <time>2020-06-03T08:47:35Z</time>
      </trkpt>
      <trkpt lat="46.39855" lon="-1.48785">
        <ele>7.8</ele>
        <time>2020-06-03T08:47:36Z</time>
      </trkpt>
      <trkpt lat="46.39859" lon="-1.4878">
        <ele>7.8</ele>
        <time>2020-06-03T08:47:37Z</time>
      </trkpt>
      <trkpt lat="46.39863" lon="-1.48774">
        <ele>7.7</ele>
        <time>2020-06-03T08:47:38Z</time>
      </trkpt>
      <trkpt lat="46.39867" lon="-1.48768">
        <ele>7.7</ele>
        <time>2020-06-03T08:47:39Z</time>
      </trkpt>
      <trkpt lat="46.3987" lon="-1.48759">
        <ele>7.7</ele>
        <time>2020-06-03T08:47:40Z</time>
      </trkpt>
      <trkpt lat="46.39873" lon="-1.48754">
        <ele>7.7</ele>
        <time>2020-06-03T08:47:41Z</time>
      </trkpt>
      <trkpt lat="46.39875" lon="-1.48747">
        <ele>7.7</ele>
        <time>2020-06-03T08:47:42Z</time>
      </trkpt>
      <trkpt lat="46.39878" lon="-1.48741">
        <ele>7.7</ele>
        <time>2020-06-03T08:47:43Z</time>
      </trkpt>
      <trkpt lat="46.39881" lon="-1.48734">
        <ele>7.7</ele>
        <time>2020-06-03T08:47:44Z</time>
      </trkpt>
      <trkpt lat="46.39884" lon="-1.48727">
        <ele>7.7</ele>
        <time>2020-06-03T08:47:45Z</time>
      </trkpt>
      <trkpt lat="46.39886" lon="-1.48722">
        <ele>7.7</ele>
        <time>2020-06-03T08:47:46Z</time>
      </trkpt>
      <trkpt lat="46.39889" lon="-1.48717">
        <ele>7.7</ele>
        <time>2020-06-03T08:47:47Z</time>
      </trkpt>
      <trkpt lat="46.39891" lon="-1.48712">
        <ele>7.7</ele>
        <time>2020-06-03T08:47:48Z</time>
      </trkpt>
      <trkpt lat="46.39895" lon="-1.48707">
        <ele>7.7</ele>
        <time>2020-06-03T08:47:49Z</time>
      </trkpt>
      <trkpt lat="46.39898" lon="-1.48703">
        <ele>7.7</ele>
        <time>2020-06-03T08:47:50Z</time>
      </trkpt>
      <trkpt lat="46.39901" lon="-1.48699">
        <ele>7.7</ele>
        <time>2020-06-03T08:47:51Z</time>
      </trkpt>
      <trkpt lat="46.39904" lon="-1.48696">
        <ele>7.7</ele>
        <time>2020-06-03T08:47:52Z</time>
      </trkpt>
      <trkpt lat="46.39908" lon="-1.48692">
        <ele>7.7</ele>
        <time>2020-06-03T08:47:53Z</time>
      </trkpt>
      <trkpt lat="46.39911" lon="-1.48689">
        <ele>7.7</ele>
        <time>2020-06-03T08:47:54Z</time>
      </trkpt>
      <trkpt lat="46.39913" lon="-1.48687">
        <ele>7.8</ele>
        <time>2020-06-03T08:47:55Z</time>
      </trkpt>
      <trkpt lat="46.39917" lon="-1.48684">
        <ele>7.8</ele>
        <time>2020-06-03T08:47:56Z</time>
      </trkpt>
      <trkpt lat="46.39919" lon="-1.48681">
        <ele>7.8</ele>
        <time>2020-06-03T08:47:57Z</time>
      </trkpt>
      <trkpt lat="46.39922" lon="-1.48675">
        <ele>7.8</ele>
        <time>2020-06-03T08:47:58Z</time>
      </trkpt>
      <trkpt lat="46.39923" lon="-1.48673">
        <ele>7.9</ele>
        <time>2020-06-03T08:47:59Z</time>
      </trkpt>
      <trkpt lat="46.39927" lon="-1.48668">
        <ele>7.9</ele>
        <time>2020-06-03T08:48:00Z</time>
      </trkpt>
      <trkpt lat="46.39931" lon="-1.48664">
        <ele>8</ele>
        <time>2020-06-03T08:48:01Z</time>
      </trkpt>
      <trkpt lat="46.39934" lon="-1.48659">
        <ele>8</ele>
        <time>2020-06-03T08:48:02Z</time>
      </trkpt>
      <trkpt lat="46.39938" lon="-1.48654">
        <ele>8</ele>
        <time>2020-06-03T08:48:03Z</time>
      </trkpt>
      <trkpt lat="46.39941" lon="-1.48649">
        <ele>8.1</ele>
        <time>2020-06-03T08:48:04Z</time>
      </trkpt>
      <trkpt lat="46.39943" lon="-1.48645">
        <ele>8.1</ele>
        <time>2020-06-03T08:48:05Z</time>
      </trkpt>
      <trkpt lat="46.39946" lon="-1.4864">
        <ele>8.2</ele>
        <time>2020-06-03T08:48:06Z</time>
      </trkpt>
      <trkpt lat="46.39948" lon="-1.48635">
        <ele>8.2</ele>
        <time>2020-06-03T08:48:07Z</time>
      </trkpt>
      <trkpt lat="46.3995" lon="-1.48631">
        <ele>8.3</ele>
        <time>2020-06-03T08:48:08Z</time>
      </trkpt>
      <trkpt lat="46.39953" lon="-1.48628">
        <ele>8.4</ele>
        <time>2020-06-03T08:48:09Z</time>
      </trkpt>
      <trkpt lat="46.39956" lon="-1.48624">
        <ele>8.5</ele>
        <time>2020-06-03T08:48:10Z</time>
      </trkpt>
      <trkpt lat="46.39959" lon="-1.4862">
        <ele>8.6</ele>
        <time>2020-06-03T08:48:11Z</time>
      </trkpt>
      <trkpt lat="46.39962" lon="-1.48616">
        <ele>8.7</ele>
        <time>2020-06-03T08:48:12Z</time>
      </trkpt>
      <trkpt lat="46.39965" lon="-1.48613">
        <ele>8.8</ele>
        <time>2020-06-03T08:48:13Z</time>
      </trkpt>
      <trkpt lat="46.39967" lon="-1.4861">
        <ele>8.9</ele>
        <time>2020-06-03T08:48:14Z</time>
      </trkpt>
      <trkpt lat="46.39971" lon="-1.48607">
        <ele>9.1</ele>
        <time>2020-06-03T08:48:15Z</time>
      </trkpt>
      <trkpt lat="46.39974" lon="-1.48605">
        <ele>9.2</ele>
        <time>2020-06-03T08:48:16Z</time>
      </trkpt>
      <trkpt lat="46.39978" lon="-1.48604">
        <ele>9.3</ele>
        <time>2020-06-03T08:48:17Z</time>
      </trkpt>
      <trkpt lat="46.39982" lon="-1.48602">
        <ele>9.4</ele>
        <time>2020-06-03T08:48:18Z</time>
      </trkpt>
      <trkpt lat="46.39985" lon="-1.48601">
        <ele>9.5</ele>
        <time>2020-06-03T08:48:19Z</time>
      </trkpt>
      <trkpt lat="46.39988" lon="-1.486">
        <ele>9.5</ele>
        <time>2020-06-03T08:48:20Z</time>
      </trkpt>
      <trkpt lat="46.39992" lon="-1.486">
        <ele>9.5</ele>
        <time>2020-06-03T08:48:21Z</time>
      </trkpt>
      <trkpt lat="46.39997" lon="-1.486">
        <ele>9.5</ele>
        <time>2020-06-03T08:48:22Z</time>
      </trkpt>
      <trkpt lat="46.40002" lon="-1.48599">
        <ele>9.4</ele>
        <time>2020-06-03T08:48:23Z</time>
      </trkpt>
      <trkpt lat="46.40007" lon="-1.48598">
        <ele>9.3</ele>
        <time>2020-06-03T08:48:24Z</time>
      </trkpt>
      <trkpt lat="46.40014" lon="-1.48596">
        <ele>9</ele>
        <time>2020-06-03T08:48:25Z</time>
      </trkpt>
      <trkpt lat="46.4002" lon="-1.48595">
        <ele>8.7</ele>
        <time>2020-06-03T08:48:26Z</time>
      </trkpt>
      <trkpt lat="46.40026" lon="-1.48594">
        <ele>8.3</ele>
        <time>2020-06-03T08:48:27Z</time>
      </trkpt>
      <trkpt lat="46.40033" lon="-1.48592">
        <ele>8</ele>
        <time>2020-06-03T08:48:28Z</time>
      </trkpt>
      <trkpt lat="46.4004" lon="-1.48591">
        <ele>7.7</ele>
        <time>2020-06-03T08:48:29Z</time>
      </trkpt>
      <trkpt lat="46.40047" lon="-1.48589">
        <ele>7.4</ele>
        <time>2020-06-03T08:48:30Z</time>
      </trkpt>
      <trkpt lat="46.40054" lon="-1.48587">
        <ele>7.2</ele>
        <time>2020-06-03T08:48:31Z</time>
      </trkpt>
      <trkpt lat="46.4006" lon="-1.48587">
        <ele>7.2</ele>
        <time>2020-06-03T08:48:32Z</time>
      </trkpt>
      <trkpt lat="46.40067" lon="-1.48589">
        <ele>7.1</ele>
        <time>2020-06-03T08:48:33Z</time>
      </trkpt>
      <trkpt lat="46.40073" lon="-1.48592">
        <ele>7.1</ele>
        <time>2020-06-03T08:48:34Z</time>
      </trkpt>
      <trkpt lat="46.40079" lon="-1.48598">
        <ele>7.1</ele>
        <time>2020-06-03T08:48:35Z</time>
      </trkpt>
      <trkpt lat="46.40084" lon="-1.48602">
        <ele>7</ele>
        <time>2020-06-03T08:48:36Z</time>
      </trkpt>
      <trkpt lat="46.40089" lon="-1.48608">
        <ele>7</ele>
        <time>2020-06-03T08:48:37Z</time>
      </trkpt>
      <trkpt lat="46.40093" lon="-1.48613">
        <ele>6.9</ele>
        <time>2020-06-03T08:48:38Z</time>
      </trkpt>
      <trkpt lat="46.40096" lon="-1.48616">
        <ele>6.9</ele>
        <time>2020-06-03T08:48:39Z</time>
      </trkpt>
      <trkpt lat="46.40098" lon="-1.48619">
        <ele>6.9</ele>
        <time>2020-06-03T08:48:40Z</time>
      </trkpt>
      <trkpt lat="46.40099" lon="-1.4862">
        <ele>6.8</ele>
        <time>2020-06-03T08:48:41Z</time>
      </trkpt>
      <trkpt lat="46.40102" lon="-1.48622">
        <ele>6.8</ele>
        <time>2020-06-03T08:48:42Z</time>
      </trkpt>
      <trkpt lat="46.40106" lon="-1.48628">
        <ele>6.8</ele>
        <time>2020-06-03T08:48:43Z</time>
      </trkpt>
      <trkpt lat="46.40109" lon="-1.48633">
        <ele>6.7</ele>
        <time>2020-06-03T08:48:44Z</time>
      </trkpt>
      <trkpt lat="46.40112" lon="-1.48638">
        <ele>6.7</ele>
        <time>2020-06-03T08:48:45Z</time>
      </trkpt>
      <trkpt lat="46.40115" lon="-1.48642">
        <ele>6.7</ele>
        <time>2020-06-03T08:48:46Z</time>
      </trkpt>
      <trkpt lat="46.40118" lon="-1.48644">
        <ele>6.7</ele>
        <time>2020-06-03T08:48:47Z</time>
      </trkpt>
      <trkpt lat="46.40122" lon="-1.48646">
        <ele>6.6</ele>
        <time>2020-06-03T08:48:48Z</time>
      </trkpt>
      <trkpt lat="46.40126" lon="-1.48647">
        <ele>6.7</ele>
        <time>2020-06-03T08:48:49Z</time>
      </trkpt>
      <trkpt lat="46.40132" lon="-1.48652">
        <ele>6.9</ele>
        <time>2020-06-03T08:48:50Z</time>
      </trkpt>
      <trkpt lat="46.40138" lon="-1.4866">
        <ele>7.2</ele>
        <time>2020-06-03T08:48:51Z</time>
      </trkpt>
      <trkpt lat="46.40141" lon="-1.48666">
        <ele>7.4</ele>
        <time>2020-06-03T08:48:52Z</time>
      </trkpt>
      <trkpt lat="46.40144" lon="-1.48672">
        <ele>7.7</ele>
        <time>2020-06-03T08:48:53Z</time>
      </trkpt>
      <trkpt lat="46.40146" lon="-1.48677">
        <ele>8.1</ele>
        <time>2020-06-03T08:48:54Z</time>
      </trkpt>
      <trkpt lat="46.40148" lon="-1.4868">
        <ele>8.3</ele>
        <time>2020-06-03T08:48:55Z</time>
      </trkpt>
      <trkpt lat="46.4015" lon="-1.48684">
        <ele>8.6</ele>
        <time>2020-06-03T08:48:56Z</time>
      </trkpt>
      <trkpt lat="46.4015" lon="-1.48685">
        <ele>8.6</ele>
        <time>2020-06-03T08:48:57Z</time>
      </trkpt>
      <trkpt lat="46.40152" lon="-1.48686">
        <ele>8.8</ele>
        <time>2020-06-03T08:48:58Z</time>
      </trkpt>
      <trkpt lat="46.40153" lon="-1.48688">
        <ele>8.9</ele>
        <time>2020-06-03T08:48:59Z</time>
      </trkpt>
      <trkpt lat="46.40154" lon="-1.4869">
        <ele>9</ele>
        <time>2020-06-03T08:49:00Z</time>
      </trkpt>
      <trkpt lat="46.40154" lon="-1.48691">
        <ele>9.1</ele>
        <time>2020-06-03T08:49:01Z</time>
      </trkpt>
      <trkpt lat="46.40155" lon="-1.48691">
        <ele>9.2</ele>
        <time>2020-06-03T08:49:02Z</time>
      </trkpt>
      <trkpt lat="46.40155" lon="-1.48691">
        <ele>9.2</ele>
        <time>2020-06-03T08:49:03Z</time>
      </trkpt>
      <trkpt lat="46.40156" lon="-1.48691">
        <ele>9.3</ele>
        <time>2020-06-03T08:49:04Z</time>
      </trkpt>
      <trkpt lat="46.40157" lon="-1.48693">
        <ele>9.4</ele>
        <time>2020-06-03T08:49:05Z</time>
      </trkpt>
      <trkpt lat="46.40158" lon="-1.48694">
        <ele>9.5</ele>
        <time>2020-06-03T08:49:06Z</time>
      </trkpt>
      <trkpt lat="46.40159" lon="-1.48694">
        <ele>9.5</ele>
        <time>2020-06-03T08:49:07Z</time>
      </trkpt>
      <trkpt lat="46.4016" lon="-1.48696">
        <ele>9.7</ele>
        <time>2020-06-03T08:49:08Z</time>
      </trkpt>
      <trkpt lat="46.40161" lon="-1.48697">
        <ele>9.8</ele>
        <time>2020-06-03T08:49:09Z</time>
      </trkpt>
      <trkpt lat="46.40162" lon="-1.48702">
        <ele>10</ele>
        <time>2020-06-03T08:49:10Z</time>
      </trkpt>
      <trkpt lat="46.40162" lon="-1.48703">
        <ele>10.1</ele>
        <time>2020-06-03T08:49:11Z</time>
      </trkpt>
      <trkpt lat="46.40162" lon="-1.48706">
        <ele>10.3</ele>
        <time>2020-06-03T08:49:12Z</time>
      </trkpt>
      <trkpt lat="46.40162" lon="-1.48708">
        <ele>10.4</ele>
        <time>2020-06-03T08:49:13Z</time>
      </trkpt>
      <trkpt lat="46.40163" lon="-1.48714">
        <ele>10.7</ele>
        <time>2020-06-03T08:49:14Z</time>
      </trkpt>
      <trkpt lat="46.40164" lon="-1.48716">
        <ele>10.8</ele>
        <time>2020-06-03T08:49:15Z</time>
      </trkpt>
      <trkpt lat="46.40165" lon="-1.48721">
        <ele>11.1</ele>
        <time>2020-06-03T08:49:16Z</time>
      </trkpt>
      <trkpt lat="46.40167" lon="-1.48726">
        <ele>11.3</ele>
        <time>2020-06-03T08:49:17Z</time>
      </trkpt>
      <trkpt lat="46.40169" lon="-1.4873">
        <ele>11.5</ele>
        <time>2020-06-03T08:49:18Z</time>
      </trkpt>
      <trkpt lat="46.40171" lon="-1.48734">
        <ele>11.7</ele>
        <time>2020-06-03T08:49:19Z</time>
      </trkpt>
      <trkpt lat="46.40173" lon="-1.48738">
        <ele>11.8</ele>
        <time>2020-06-03T08:49:20Z</time>
      </trkpt>
      <trkpt lat="46.40176" lon="-1.48741">
        <ele>12</ele>
        <time>2020-06-03T08:49:21Z</time>
      </trkpt>
      <trkpt lat="46.40177" lon="-1.48742">
        <ele>12</ele>
        <time>2020-06-03T08:49:22Z</time>
      </trkpt>
      <trkpt lat="46.4018" lon="-1.48745">
        <ele>12.1</ele>
        <time>2020-06-03T08:49:23Z</time>
      </trkpt>
      <trkpt lat="46.40181" lon="-1.48746">
        <ele>12.1</ele>
        <time>2020-06-03T08:49:24Z</time>
      </trkpt>
      <trkpt lat="46.40184" lon="-1.48747">
        <ele>12.2</ele>
        <time>2020-06-03T08:49:25Z</time>
      </trkpt>
      <trkpt lat="46.40188" lon="-1.48748">
        <ele>12.2</ele>
        <time>2020-06-03T08:49:26Z</time>
      </trkpt>
      <trkpt lat="46.40192" lon="-1.48749">
        <ele>12.2</ele>
        <time>2020-06-03T08:49:27Z</time>
      </trkpt>
      <trkpt lat="46.40196" lon="-1.48751">
        <ele>12.1</ele>
        <time>2020-06-03T08:49:28Z</time>
      </trkpt>
      <trkpt lat="46.402" lon="-1.48751">
        <ele>12</ele>
        <time>2020-06-03T08:49:29Z</time>
      </trkpt>
      <trkpt lat="46.40203" lon="-1.48752">
        <ele>12</ele>
        <time>2020-06-03T08:49:30Z</time>
      </trkpt>
      <trkpt lat="46.40207" lon="-1.48752">
        <ele>11.9</ele>
        <time>2020-06-03T08:49:31Z</time>
      </trkpt>
      <trkpt lat="46.40212" lon="-1.48753">
        <ele>11.8</ele>
        <time>2020-06-03T08:49:32Z</time>
      </trkpt>
      <trkpt lat="46.40218" lon="-1.48754">
        <ele>11.6</ele>
        <time>2020-06-03T08:49:33Z</time>
      </trkpt>
      <trkpt lat="46.40224" lon="-1.48758">
        <ele>11.4</ele>
        <time>2020-06-03T08:49:34Z</time>
      </trkpt>
      <trkpt lat="46.40229" lon="-1.48762">
        <ele>11.3</ele>
        <time>2020-06-03T08:49:35Z</time>
      </trkpt>
      <trkpt lat="46.40234" lon="-1.48767">
        <ele>11.2</ele>
        <time>2020-06-03T08:49:36Z</time>
      </trkpt>
      <trkpt lat="46.40239" lon="-1.48772">
        <ele>11.1</ele>
        <time>2020-06-03T08:49:37Z</time>
      </trkpt>
      <trkpt lat="46.40244" lon="-1.48778">
        <ele>11.1</ele>
        <time>2020-06-03T08:49:38Z</time>
      </trkpt>
      <trkpt lat="46.40248" lon="-1.48786">
        <ele>11</ele>
        <time>2020-06-03T08:49:39Z</time>
      </trkpt>
      <trkpt lat="46.40253" lon="-1.48794">
        <ele>11</ele>
        <time>2020-06-03T08:49:40Z</time>
      </trkpt>
      <trkpt lat="46.40258" lon="-1.488">
        <ele>10.9</ele>
        <time>2020-06-03T08:49:41Z</time>
      </trkpt>
      <trkpt lat="46.40262" lon="-1.48807">
        <ele>10.9</ele>
        <time>2020-06-03T08:49:42Z</time>
      </trkpt>
      <trkpt lat="46.40266" lon="-1.48814">
        <ele>10.9</ele>
        <time>2020-06-03T08:49:43Z</time>
      </trkpt>
      <trkpt lat="46.4027" lon="-1.48821">
        <ele>10.8</ele>
        <time>2020-06-03T08:49:44Z</time>
      </trkpt>
      <trkpt lat="46.40274" lon="-1.48829">
        <ele>10.7</ele>
        <time>2020-06-03T08:49:45Z</time>
      </trkpt>
      <trkpt lat="46.40277" lon="-1.48837">
        <ele>10.5</ele>
        <time>2020-06-03T08:49:46Z</time>
      </trkpt>
      <trkpt lat="46.40279" lon="-1.48844">
        <ele>10.3</ele>
        <time>2020-06-03T08:49:47Z</time>
      </trkpt>
      <trkpt lat="46.40282" lon="-1.48851">
        <ele>10</ele>
        <time>2020-06-03T08:49:48Z</time>
      </trkpt>
      <trkpt lat="46.40285" lon="-1.4886">
        <ele>9.6</ele>
        <time>2020-06-03T08:49:49Z</time>
      </trkpt>
      <trkpt lat="46.40287" lon="-1.48871">
        <ele>9.1</ele>
        <time>2020-06-03T08:49:50Z</time>
      </trkpt>
      <trkpt lat="46.40289" lon="-1.4888">
        <ele>8.7</ele>
        <time>2020-06-03T08:49:51Z</time>
      </trkpt>
      <trkpt lat="46.40291" lon="-1.4889">
        <ele>8.3</ele>
        <time>2020-06-03T08:49:52Z</time>
      </trkpt>
      <trkpt lat="46.40294" lon="-1.48901">
        <ele>7.9</ele>
        <time>2020-06-03T08:49:53Z</time>
      </trkpt>
      <trkpt lat="46.40296" lon="-1.48911">
        <ele>7.6</ele>
        <time>2020-06-03T08:49:54Z</time>
      </trkpt>
      <trkpt lat="46.40299" lon="-1.4892">
        <ele>7.4</ele>
        <time>2020-06-03T08:49:55Z</time>
      </trkpt>
      <trkpt lat="46.40302" lon="-1.48928">
        <ele>7.3</ele>
        <time>2020-06-03T08:49:56Z</time>
      </trkpt>
      <trkpt lat="46.40306" lon="-1.48935">
        <ele>7.3</ele>
        <time>2020-06-03T08:49:57Z</time>
      </trkpt>
      <trkpt lat="46.40311" lon="-1.48941">
        <ele>7.2</ele>
        <time>2020-06-03T08:49:58Z</time>
      </trkpt>
      <trkpt lat="46.40315" lon="-1.48947">
        <ele>7.2</ele>
        <time>2020-06-03T08:49:59Z</time>
      </trkpt>
      <trkpt lat="46.40319" lon="-1.48952">
        <ele>7.2</ele>
        <time>2020-06-03T08:50:00Z</time>
      </trkpt>
      <trkpt lat="46.40322" lon="-1.48956">
        <ele>7.2</ele>
        <time>2020-06-03T08:50:01Z</time>
      </trkpt>
      <trkpt lat="46.40325" lon="-1.4896">
        <ele>7.2</ele>
        <time>2020-06-03T08:50:02Z</time>
      </trkpt>
      <trkpt lat="46.4033" lon="-1.48965">
        <ele>7.2</ele>
        <time>2020-06-03T08:50:03Z</time>
      </trkpt>
      <trkpt lat="46.40335" lon="-1.48972">
        <ele>7.1</ele>
        <time>2020-06-03T08:50:04Z</time>
      </trkpt>
      <trkpt lat="46.40339" lon="-1.4898">
        <ele>7.1</ele>
        <time>2020-06-03T08:50:05Z</time>
      </trkpt>
      <trkpt lat="46.40343" lon="-1.48989">
        <ele>7</ele>
        <time>2020-06-03T08:50:06Z</time>
      </trkpt>
      <trkpt lat="46.40347" lon="-1.48999">
        <ele>7</ele>
        <time>2020-06-03T08:50:07Z</time>
      </trkpt>
      <trkpt lat="46.40351" lon="-1.49008">
        <ele>6.9</ele>
        <time>2020-06-03T08:50:08Z</time>
      </trkpt>
      <trkpt lat="46.40354" lon="-1.49017">
        <ele>6.9</ele>
        <time>2020-06-03T08:50:09Z</time>
      </trkpt>
      <trkpt lat="46.40357" lon="-1.49025">
        <ele>6.8</ele>
        <time>2020-06-03T08:50:10Z</time>
      </trkpt>
      <trkpt lat="46.40361" lon="-1.49033">
        <ele>6.8</ele>
        <time>2020-06-03T08:50:11Z</time>
      </trkpt>
      <trkpt lat="46.40364" lon="-1.49041">
        <ele>6.8</ele>
        <time>2020-06-03T08:50:12Z</time>
      </trkpt>
      <trkpt lat="46.40367" lon="-1.49048">
        <ele>6.7</ele>
        <time>2020-06-03T08:50:13Z</time>
      </trkpt>
      <trkpt lat="46.40371" lon="-1.49054">
        <ele>6.7</ele>
        <time>2020-06-03T08:50:14Z</time>
      </trkpt>
      <trkpt lat="46.40374" lon="-1.49061">
        <ele>6.7</ele>
        <time>2020-06-03T08:50:15Z</time>
      </trkpt>
      <trkpt lat="46.40379" lon="-1.49066">
        <ele>6.6</ele>
        <time>2020-06-03T08:50:16Z</time>
      </trkpt>
      <trkpt lat="46.40383" lon="-1.4907">
        <ele>6.6</ele>
        <time>2020-06-03T08:50:17Z</time>
      </trkpt>
      <trkpt lat="46.40388" lon="-1.49074">
        <ele>6.5</ele>
        <time>2020-06-03T08:50:18Z</time>
      </trkpt>
      <trkpt lat="46.40392" lon="-1.49075">
        <ele>6.4</ele>
        <time>2020-06-03T08:50:19Z</time>
      </trkpt>
      <trkpt lat="46.40395" lon="-1.49076">
        <ele>6.4</ele>
        <time>2020-06-03T08:50:20Z</time>
      </trkpt>
      <trkpt lat="46.40398" lon="-1.49075">
        <ele>6.3</ele>
        <time>2020-06-03T08:50:21Z</time>
      </trkpt>
      <trkpt lat="46.40402" lon="-1.49072">
        <ele>6.3</ele>
        <time>2020-06-03T08:50:22Z</time>
      </trkpt>
      <trkpt lat="46.40407" lon="-1.49068">
        <ele>6.2</ele>
        <time>2020-06-03T08:50:23Z</time>
      </trkpt>
      <trkpt lat="46.40411" lon="-1.49064">
        <ele>6.1</ele>
        <time>2020-06-03T08:50:24Z</time>
      </trkpt>
      <trkpt lat="46.40416" lon="-1.4906">
        <ele>6.1</ele>
        <time>2020-06-03T08:50:25Z</time>
      </trkpt>
      <trkpt lat="46.4042" lon="-1.49057">
        <ele>6</ele>
        <time>2020-06-03T08:50:26Z</time>
      </trkpt>
      <trkpt lat="46.40423" lon="-1.49053">
        <ele>6</ele>
        <time>2020-06-03T08:50:27Z</time>
      </trkpt>
      <trkpt lat="46.40427" lon="-1.49047">
        <ele>6</ele>
        <time>2020-06-03T08:50:28Z</time>
      </trkpt>
      <trkpt lat="46.4043" lon="-1.49041">
        <ele>5.9</ele>
        <time>2020-06-03T08:50:29Z</time>
      </trkpt>
      <trkpt lat="46.40433" lon="-1.49035">
        <ele>5.9</ele>
        <time>2020-06-03T08:50:30Z</time>
      </trkpt>
      <trkpt lat="46.40436" lon="-1.49029">
        <ele>5.9</ele>
        <time>2020-06-03T08:50:31Z</time>
      </trkpt>
      <trkpt lat="46.40439" lon="-1.49021">
        <ele>5.9</ele>
        <time>2020-06-03T08:50:32Z</time>
      </trkpt>
      <trkpt lat="46.40443" lon="-1.4901">
        <ele>5.9</ele>
        <time>2020-06-03T08:50:33Z</time>
      </trkpt>
      <trkpt lat="46.40446" lon="-1.49002">
        <ele>5.8</ele>
        <time>2020-06-03T08:50:34Z</time>
      </trkpt>
      <trkpt lat="46.40447" lon="-1.48992">
        <ele>5.8</ele>
        <time>2020-06-03T08:50:35Z</time>
      </trkpt>
      <trkpt lat="46.40449" lon="-1.48982">
        <ele>5.8</ele>
        <time>2020-06-03T08:50:36Z</time>
      </trkpt>
      <trkpt lat="46.40451" lon="-1.48974">
        <ele>5.8</ele>
        <time>2020-06-03T08:50:37Z</time>
      </trkpt>
      <trkpt lat="46.40453" lon="-1.48969">
        <ele>5.8</ele>
        <time>2020-06-03T08:50:38Z</time>
      </trkpt>
      <trkpt lat="46.40456" lon="-1.48966">
        <ele>5.8</ele>
        <time>2020-06-03T08:50:39Z</time>
      </trkpt>
      <trkpt lat="46.4046" lon="-1.48962">
        <ele>5.8</ele>
        <time>2020-06-03T08:50:40Z</time>
      </trkpt>
      <trkpt lat="46.40463" lon="-1.4896">
        <ele>5.7</ele>
        <time>2020-06-03T08:50:41Z</time>
      </trkpt>
      <trkpt lat="46.40466" lon="-1.48958">
        <ele>5.7</ele>
        <time>2020-06-03T08:50:42Z</time>
      </trkpt>
      <trkpt lat="46.40468" lon="-1.48956">
        <ele>5.7</ele>
        <time>2020-06-03T08:50:43Z</time>
      </trkpt>
      <trkpt lat="46.40469" lon="-1.48955">
        <ele>5.7</ele>
        <time>2020-06-03T08:50:44Z</time>
      </trkpt>
      <trkpt lat="46.40468" lon="-1.48953">
        <ele>5.7</ele>
        <time>2020-06-03T08:50:45Z</time>
      </trkpt>
      <trkpt lat="46.40467" lon="-1.48952">
        <ele>5.7</ele>
        <time>2020-06-03T08:50:46Z</time>
      </trkpt>
      <trkpt lat="46.40467" lon="-1.48951">
        <ele>5.7</ele>
        <time>2020-06-03T08:50:47Z</time>
      </trkpt>
      <trkpt lat="46.40466" lon="-1.4895">
        <ele>5.7</ele>
        <time>2020-06-03T08:50:48Z</time>
      </trkpt>
      <trkpt lat="46.40466" lon="-1.4895">
        <ele>5.7</ele>
        <time>2020-06-03T08:50:49Z</time>
      </trkpt>
      <trkpt lat="46.40467" lon="-1.4895">
        <ele>5.7</ele>
        <time>2020-06-03T08:50:50Z</time>
      </trkpt>
      <trkpt lat="46.40468" lon="-1.48949">
        <ele>5.7</ele>
        <time>2020-06-03T08:50:51Z</time>
      </trkpt>
      <trkpt lat="46.40468" lon="-1.4895">
        <ele>5.7</ele>
        <time>2020-06-03T08:50:52Z</time>
      </trkpt>
      <trkpt lat="46.40469" lon="-1.4895">
        <ele>5.7</ele>
        <time>2020-06-03T08:50:53Z</time>
      </trkpt>
      <trkpt lat="46.4047" lon="-1.48952">
        <ele>5.7</ele>
        <time>2020-06-03T08:50:54Z</time>
      </trkpt>
      <trkpt lat="46.40471" lon="-1.48954">
        <ele>5.7</ele>
        <time>2020-06-03T08:50:55Z</time>
      </trkpt>
      <trkpt lat="46.40473" lon="-1.48957">
        <ele>5.7</ele>
        <time>2020-06-03T08:50:56Z</time>
      </trkpt>
      <trkpt lat="46.40475" lon="-1.48961">
        <ele>5.7</ele>
        <time>2020-06-03T08:50:57Z</time>
      </trkpt>
      <trkpt lat="46.40477" lon="-1.48964">
        <ele>5.7</ele>
        <time>2020-06-03T08:50:58Z</time>
      </trkpt>
      <trkpt lat="46.40479" lon="-1.48967">
        <ele>5.7</ele>
        <time>2020-06-03T08:50:59Z</time>
      </trkpt>
      <trkpt lat="46.40483" lon="-1.48972">
        <ele>5.7</ele>
        <time>2020-06-03T08:51:00Z</time>
      </trkpt>
      <trkpt lat="46.40484" lon="-1.48974">
        <ele>5.7</ele>
        <time>2020-06-03T08:51:01Z</time>
      </trkpt>
      <trkpt lat="46.40488" lon="-1.48978">
        <ele>5.7</ele>
        <time>2020-06-03T08:51:02Z</time>
      </trkpt>
      <trkpt lat="46.40492" lon="-1.48984">
        <ele>5.7</ele>
        <time>2020-06-03T08:51:03Z</time>
      </trkpt>
      <trkpt lat="46.40496" lon="-1.4899">
        <ele>5.7</ele>
        <time>2020-06-03T08:51:04Z</time>
      </trkpt>
      <trkpt lat="46.405" lon="-1.48996">
        <ele>5.7</ele>
        <time>2020-06-03T08:51:05Z</time>
      </trkpt>
      <trkpt lat="46.40505" lon="-1.49002">
        <ele>5.7</ele>
        <time>2020-06-03T08:51:06Z</time>
      </trkpt>
      <trkpt lat="46.4051" lon="-1.49008">
        <ele>5.7</ele>
        <time>2020-06-03T08:51:07Z</time>
      </trkpt>
      <trkpt lat="46.40514" lon="-1.49015">
        <ele>5.7</ele>
        <time>2020-06-03T08:51:08Z</time>
      </trkpt>
      <trkpt lat="46.40517" lon="-1.4902">
        <ele>5.7</ele>
        <time>2020-06-03T08:51:09Z</time>
      </trkpt>
      <trkpt lat="46.4052" lon="-1.49025">
        <ele>5.7</ele>
        <time>2020-06-03T08:51:10Z</time>
      </trkpt>
      <trkpt lat="46.40525" lon="-1.49029">
        <ele>5.7</ele>
        <time>2020-06-03T08:51:11Z</time>
      </trkpt>
      <trkpt lat="46.4053" lon="-1.49031">
        <ele>5.7</ele>
        <time>2020-06-03T08:51:12Z</time>
      </trkpt>
      <trkpt lat="46.40536" lon="-1.49034">
        <ele>5.8</ele>
        <time>2020-06-03T08:51:13Z</time>
      </trkpt>
      <trkpt lat="46.40543" lon="-1.49035">
        <ele>5.8</ele>
        <time>2020-06-03T08:51:14Z</time>
      </trkpt>
      <trkpt lat="46.4055" lon="-1.49037">
        <ele>5.9</ele>
        <time>2020-06-03T08:51:15Z</time>
      </trkpt>
      <trkpt lat="46.40556" lon="-1.49039">
        <ele>5.9</ele>
        <time>2020-06-03T08:51:16Z</time>
      </trkpt>
      <trkpt lat="46.40563" lon="-1.4904">
        <ele>5.9</ele>
        <time>2020-06-03T08:51:17Z</time>
      </trkpt>
      <trkpt lat="46.40568" lon="-1.49042">
        <ele>5.9</ele>
        <time>2020-06-03T08:51:18Z</time>
      </trkpt>
      <trkpt lat="46.40572" lon="-1.49046">
        <ele>5.9</ele>
        <time>2020-06-03T08:51:19Z</time>
      </trkpt>
      <trkpt lat="46.40575" lon="-1.49051">
        <ele>5.9</ele>
        <time>2020-06-03T08:51:20Z</time>
      </trkpt>
      <trkpt lat="46.40578" lon="-1.49055">
        <ele>5.9</ele>
        <time>2020-06-03T08:51:21Z</time>
      </trkpt>
      <trkpt lat="46.40581" lon="-1.49059">
        <ele>5.9</ele>
        <time>2020-06-03T08:51:22Z</time>
      </trkpt>
      <trkpt lat="46.40584" lon="-1.49061">
        <ele>5.9</ele>
        <time>2020-06-03T08:51:23Z</time>
      </trkpt>
      <trkpt lat="46.40586" lon="-1.49065">
        <ele>5.9</ele>
        <time>2020-06-03T08:51:24Z</time>
      </trkpt>
      <trkpt lat="46.4059" lon="-1.4907">
        <ele>6</ele>
        <time>2020-06-03T08:51:25Z</time>
      </trkpt>
      <trkpt lat="46.40594" lon="-1.49075">
        <ele>6</ele>
        <time>2020-06-03T08:51:26Z</time>
      </trkpt>
      <trkpt lat="46.40599" lon="-1.49079">
        <ele>6</ele>
        <time>2020-06-03T08:51:27Z</time>
      </trkpt>
      <trkpt lat="46.40605" lon="-1.49084">
        <ele>6</ele>
        <time>2020-06-03T08:51:28Z</time>
      </trkpt>
      <trkpt lat="46.40611" lon="-1.4909">
        <ele>6.1</ele>
        <time>2020-06-03T08:51:29Z</time>
      </trkpt>
      <trkpt lat="46.40616" lon="-1.49095">
        <ele>6.1</ele>
        <time>2020-06-03T08:51:30Z</time>
      </trkpt>
      <trkpt lat="46.40621" lon="-1.491">
        <ele>6.1</ele>
        <time>2020-06-03T08:51:31Z</time>
      </trkpt>
      <trkpt lat="46.40626" lon="-1.49104">
        <ele>6.2</ele>
        <time>2020-06-03T08:51:32Z</time>
      </trkpt>
      <trkpt lat="46.40631" lon="-1.49109">
        <ele>6.2</ele>
        <time>2020-06-03T08:51:33Z</time>
      </trkpt>
      <trkpt lat="46.40636" lon="-1.49113">
        <ele>6.3</ele>
        <time>2020-06-03T08:51:34Z</time>
      </trkpt>
      <trkpt lat="46.40641" lon="-1.49117">
        <ele>6.3</ele>
        <time>2020-06-03T08:51:35Z</time>
      </trkpt>
      <trkpt lat="46.40646" lon="-1.49121">
        <ele>6.3</ele>
        <time>2020-06-03T08:51:36Z</time>
      </trkpt>
      <trkpt lat="46.40651" lon="-1.49129">
        <ele>6.4</ele>
        <time>2020-06-03T08:51:37Z</time>
      </trkpt>
      <trkpt lat="46.40657" lon="-1.49136">
        <ele>6.5</ele>
        <time>2020-06-03T08:51:38Z</time>
      </trkpt>
      <trkpt lat="46.40661" lon="-1.49143">
        <ele>6.6</ele>
        <time>2020-06-03T08:51:39Z</time>
      </trkpt>
      <trkpt lat="46.40666" lon="-1.49149">
        <ele>6.6</ele>
        <time>2020-06-03T08:51:40Z</time>
      </trkpt>
      <trkpt lat="46.40671" lon="-1.49155">
        <ele>6.7</ele>
        <time>2020-06-03T08:51:41Z</time>
      </trkpt>
      <trkpt lat="46.40674" lon="-1.49159">
        <ele>6.7</ele>
        <time>2020-06-03T08:51:42Z</time>
      </trkpt>
      <trkpt lat="46.40676" lon="-1.49163">
        <ele>6.7</ele>
        <time>2020-06-03T08:51:43Z</time>
      </trkpt>
      <trkpt lat="46.40679" lon="-1.49168">
        <ele>6.7</ele>
        <time>2020-06-03T08:51:44Z</time>
      </trkpt>
      <trkpt lat="46.40684" lon="-1.49174">
        <ele>6.7</ele>
        <time>2020-06-03T08:51:45Z</time>
      </trkpt>
      <trkpt lat="46.40689" lon="-1.4918">
        <ele>6.7</ele>
        <time>2020-06-03T08:51:46Z</time>
      </trkpt>
      <trkpt lat="46.40694" lon="-1.49187">
        <ele>6.7</ele>
        <time>2020-06-03T08:51:47Z</time>
      </trkpt>
      <trkpt lat="46.40698" lon="-1.49194">
        <ele>6.8</ele>
        <time>2020-06-03T08:51:48Z</time>
      </trkpt>
      <trkpt lat="46.40703" lon="-1.492">
        <ele>6.9</ele>
        <time>2020-06-03T08:51:49Z</time>
      </trkpt>
      <trkpt lat="46.40707" lon="-1.49206">
        <ele>7</ele>
        <time>2020-06-03T08:51:50Z</time>
      </trkpt>
      <trkpt lat="46.40711" lon="-1.49211">
        <ele>7.1</ele>
        <time>2020-06-03T08:51:51Z</time>
      </trkpt>
      <trkpt lat="46.40716" lon="-1.49214">
        <ele>7.3</ele>
        <time>2020-06-03T08:51:52Z</time>
      </trkpt>
      <trkpt lat="46.40722" lon="-1.49216">
        <ele>7.5</ele>
        <time>2020-06-03T08:51:53Z</time>
      </trkpt>
      <trkpt lat="46.40729" lon="-1.49215">
        <ele>7.8</ele>
        <time>2020-06-03T08:51:54Z</time>
      </trkpt>
      <trkpt lat="46.40734" lon="-1.49213">
        <ele>8</ele>
        <time>2020-06-03T08:51:55Z</time>
      </trkpt>
      <trkpt lat="46.40739" lon="-1.49212">
        <ele>8.2</ele>
        <time>2020-06-03T08:51:56Z</time>
      </trkpt>
      <trkpt lat="46.40744" lon="-1.49212">
        <ele>8.3</ele>
        <time>2020-06-03T08:51:57Z</time>
      </trkpt>
      <trkpt lat="46.40748" lon="-1.49213">
        <ele>8.4</ele>
        <time>2020-06-03T08:51:58Z</time>
      </trkpt>
      <trkpt lat="46.40751" lon="-1.49216">
        <ele>8.5</ele>
        <time>2020-06-03T08:51:59Z</time>
      </trkpt>
      <trkpt lat="46.40754" lon="-1.49221">
        <ele>8.6</ele>
        <time>2020-06-03T08:52:00Z</time>
      </trkpt>
      <trkpt lat="46.40757" lon="-1.49226">
        <ele>8.7</ele>
        <time>2020-06-03T08:52:01Z</time>
      </trkpt>
      <trkpt lat="46.40759" lon="-1.49232">
        <ele>8.8</ele>
        <time>2020-06-03T08:52:02Z</time>
      </trkpt>
      <trkpt lat="46.40762" lon="-1.49236">
        <ele>9</ele>
        <time>2020-06-03T08:52:03Z</time>
      </trkpt>
      <trkpt lat="46.40764" lon="-1.4924">
        <ele>9.1</ele>
        <time>2020-06-03T08:52:04Z</time>
      </trkpt>
      <trkpt lat="46.40765" lon="-1.49245">
        <ele>9.2</ele>
        <time>2020-06-03T08:52:05Z</time>
      </trkpt>
      <trkpt lat="46.40767" lon="-1.49251">
        <ele>9.4</ele>
        <time>2020-06-03T08:52:06Z</time>
      </trkpt>
      <trkpt lat="46.40768" lon="-1.49258">
        <ele>9.6</ele>
        <time>2020-06-03T08:52:07Z</time>
      </trkpt>
      <trkpt lat="46.40768" lon="-1.49264">
        <ele>9.7</ele>
        <time>2020-06-03T08:52:08Z</time>
      </trkpt>
      <trkpt lat="46.40769" lon="-1.4927">
        <ele>9.9</ele>
        <time>2020-06-03T08:52:09Z</time>
      </trkpt>
      <trkpt lat="46.40769" lon="-1.49272">
        <ele>10</ele>
        <time>2020-06-03T08:52:10Z</time>
      </trkpt>
      <trkpt lat="46.40769" lon="-1.49278">
        <ele>10.1</ele>
        <time>2020-06-03T08:52:11Z</time>
      </trkpt>
      <trkpt lat="46.40768" lon="-1.49283">
        <ele>10.2</ele>
        <time>2020-06-03T08:52:12Z</time>
      </trkpt>
      <trkpt lat="46.40766" lon="-1.4929">
        <ele>10.4</ele>
        <time>2020-06-03T08:52:13Z</time>
      </trkpt>
      <trkpt lat="46.40765" lon="-1.49296">
        <ele>10.4</ele>
        <time>2020-06-03T08:52:14Z</time>
      </trkpt>
      <trkpt lat="46.40764" lon="-1.49301">
        <ele>10.5</ele>
        <time>2020-06-03T08:52:15Z</time>
      </trkpt>
      <trkpt lat="46.40764" lon="-1.49307">
        <ele>10.5</ele>
        <time>2020-06-03T08:52:16Z</time>
      </trkpt>
      <trkpt lat="46.40764" lon="-1.49312">
        <ele>10.6</ele>
        <time>2020-06-03T08:52:17Z</time>
      </trkpt>
      <trkpt lat="46.40764" lon="-1.49317">
        <ele>10.6</ele>
        <time>2020-06-03T08:52:18Z</time>
      </trkpt>
      <trkpt lat="46.40765" lon="-1.49322">
        <ele>10.6</ele>
        <time>2020-06-03T08:52:19Z</time>
      </trkpt>
      <trkpt lat="46.40766" lon="-1.49326">
        <ele>10.7</ele>
        <time>2020-06-03T08:52:20Z</time>
      </trkpt>
      <trkpt lat="46.40767" lon="-1.49331">
        <ele>10.7</ele>
        <time>2020-06-03T08:52:21Z</time>
      </trkpt>
      <trkpt lat="46.40768" lon="-1.49333">
        <ele>10.7</ele>
        <time>2020-06-03T08:52:22Z</time>
      </trkpt>
      <trkpt lat="46.40768" lon="-1.49337">
        <ele>10.7</ele>
        <time>2020-06-03T08:52:23Z</time>
      </trkpt>
      <trkpt lat="46.40768" lon="-1.49339">
        <ele>10.7</ele>
        <time>2020-06-03T08:52:24Z</time>
      </trkpt>
      <trkpt lat="46.40768" lon="-1.49343">
        <ele>10.7</ele>
        <time>2020-06-03T08:52:25Z</time>
      </trkpt>
      <trkpt lat="46.40769" lon="-1.49346">
        <ele>10.7</ele>
        <time>2020-06-03T08:52:26Z</time>
      </trkpt>
      <trkpt lat="46.40769" lon="-1.49347">
        <ele>10.7</ele>
        <time>2020-06-03T08:52:27Z</time>
      </trkpt>
      <trkpt lat="46.40769" lon="-1.49349">
        <ele>10.7</ele>
        <time>2020-06-03T08:52:28Z</time>
      </trkpt>
      <trkpt lat="46.40769" lon="-1.49351">
        <ele>10.7</ele>
        <time>2020-06-03T08:52:29Z</time>
      </trkpt>
      <trkpt lat="46.40768" lon="-1.49352">
        <ele>10.7</ele>
        <time>2020-06-03T08:52:30Z</time>
      </trkpt>
      <trkpt lat="46.40765" lon="-1.49354">
        <ele>10.7</ele>
        <time>2020-06-03T08:52:31Z</time>
      </trkpt>
      <trkpt lat="46.40763" lon="-1.49356">
        <ele>10.8</ele>
        <time>2020-06-03T08:52:32Z</time>
      </trkpt>
      <trkpt lat="46.4076" lon="-1.49358">
        <ele>10.8</ele>
        <time>2020-06-03T08:52:33Z</time>
      </trkpt>
      <trkpt lat="46.40757" lon="-1.4936">
        <ele>10.8</ele>
        <time>2020-06-03T08:52:34Z</time>
      </trkpt>
      <trkpt lat="46.40754" lon="-1.49363">
        <ele>10.8</ele>
        <time>2020-06-03T08:52:35Z</time>
      </trkpt>
      <trkpt lat="46.40753" lon="-1.49363">
        <ele>10.8</ele>
        <time>2020-06-03T08:52:36Z</time>
      </trkpt>
      <trkpt lat="46.4075" lon="-1.49365">
        <ele>10.9</ele>
        <time>2020-06-03T08:52:37Z</time>
      </trkpt>
      <trkpt lat="46.40746" lon="-1.49367">
        <ele>10.9</ele>
        <time>2020-06-03T08:52:38Z</time>
      </trkpt>
      <trkpt lat="46.40742" lon="-1.4937">
        <ele>10.9</ele>
        <time>2020-06-03T08:52:39Z</time>
      </trkpt>
      <trkpt lat="46.40738" lon="-1.49373">
        <ele>10.9</ele>
        <time>2020-06-03T08:52:40Z</time>
      </trkpt>
      <trkpt lat="46.40734" lon="-1.49375">
        <ele>10.8</ele>
        <time>2020-06-03T08:52:41Z</time>
      </trkpt>
      <trkpt lat="46.40729" lon="-1.49377">
        <ele>10.8</ele>
        <time>2020-06-03T08:52:42Z</time>
      </trkpt>
      <trkpt lat="46.40726" lon="-1.49379">
        <ele>10.7</ele>
        <time>2020-06-03T08:52:43Z</time>
      </trkpt>
      <trkpt lat="46.40722" lon="-1.49382">
        <ele>10.6</ele>
        <time>2020-06-03T08:52:44Z</time>
      </trkpt>
      <trkpt lat="46.40718" lon="-1.49386">
        <ele>10.4</ele>
        <time>2020-06-03T08:52:45Z</time>
      </trkpt>
      <trkpt lat="46.40713" lon="-1.4939">
        <ele>10.2</ele>
        <time>2020-06-03T08:52:46Z</time>
      </trkpt>
      <trkpt lat="46.40709" lon="-1.49393">
        <ele>10.1</ele>
        <time>2020-06-03T08:52:47Z</time>
      </trkpt>
      <trkpt lat="46.40705" lon="-1.49397">
        <ele>9.9</ele>
        <time>2020-06-03T08:52:48Z</time>
      </trkpt>
      <trkpt lat="46.407" lon="-1.49401">
        <ele>9.8</ele>
        <time>2020-06-03T08:52:49Z</time>
      </trkpt>
      <trkpt lat="46.40694" lon="-1.49407">
        <ele>9.6</ele>
        <time>2020-06-03T08:52:50Z</time>
      </trkpt>
      <trkpt lat="46.40688" lon="-1.49412">
        <ele>9.4</ele>
        <time>2020-06-03T08:52:51Z</time>
      </trkpt>
      <trkpt lat="46.40682" lon="-1.49417">
        <ele>9.3</ele>
        <time>2020-06-03T08:52:52Z</time>
      </trkpt>
      <trkpt lat="46.40677" lon="-1.49422">
        <ele>9.2</ele>
        <time>2020-06-03T08:52:53Z</time>
      </trkpt>
      <trkpt lat="46.4067" lon="-1.49426">
        <ele>9.1</ele>
        <time>2020-06-03T08:52:54Z</time>
      </trkpt>
      <trkpt lat="46.40665" lon="-1.4943">
        <ele>9</ele>
        <time>2020-06-03T08:52:55Z</time>
      </trkpt>
      <trkpt lat="46.40659" lon="-1.49433">
        <ele>9</ele>
        <time>2020-06-03T08:52:56Z</time>
      </trkpt>
      <trkpt lat="46.40654" lon="-1.49437">
        <ele>8.9</ele>
        <time>2020-06-03T08:52:57Z</time>
      </trkpt>
      <trkpt lat="46.40649" lon="-1.49441">
        <ele>8.8</ele>
        <time>2020-06-03T08:52:58Z</time>
      </trkpt>
      <trkpt lat="46.40643" lon="-1.49446">
        <ele>8.7</ele>
        <time>2020-06-03T08:52:59Z</time>
      </trkpt>
      <trkpt lat="46.40639" lon="-1.49451">
        <ele>8.6</ele>
        <time>2020-06-03T08:53:00Z</time>
      </trkpt>
      <trkpt lat="46.40634" lon="-1.49456">
        <ele>8.6</ele>
        <time>2020-06-03T08:53:01Z</time>
      </trkpt>
      <trkpt lat="46.4063" lon="-1.49461">
        <ele>8.6</ele>
        <time>2020-06-03T08:53:02Z</time>
      </trkpt>
      <trkpt lat="46.40627" lon="-1.49466">
        <ele>8.5</ele>
        <time>2020-06-03T08:53:03Z</time>
      </trkpt>
      <trkpt lat="46.40623" lon="-1.49471">
        <ele>8.5</ele>
        <time>2020-06-03T08:53:04Z</time>
      </trkpt>
      <trkpt lat="46.40618" lon="-1.49475">
        <ele>8.4</ele>
        <time>2020-06-03T08:53:05Z</time>
      </trkpt>
      <trkpt lat="46.40612" lon="-1.49481">
        <ele>8.3</ele>
        <time>2020-06-03T08:53:06Z</time>
      </trkpt>
      <trkpt lat="46.40608" lon="-1.49487">
        <ele>8.2</ele>
        <time>2020-06-03T08:53:07Z</time>
      </trkpt>
      <trkpt lat="46.40603" lon="-1.49493">
        <ele>8.1</ele>
        <time>2020-06-03T08:53:08Z</time>
      </trkpt>
      <trkpt lat="46.40598" lon="-1.49499">
        <ele>8</ele>
        <time>2020-06-03T08:53:09Z</time>
      </trkpt>
      <trkpt lat="46.40594" lon="-1.49505">
        <ele>7.9</ele>
        <time>2020-06-03T08:53:10Z</time>
      </trkpt>
      <trkpt lat="46.40589" lon="-1.49511">
        <ele>7.8</ele>
        <time>2020-06-03T08:53:11Z</time>
      </trkpt>
      <trkpt lat="46.40584" lon="-1.49517">
        <ele>7.8</ele>
        <time>2020-06-03T08:53:12Z</time>
      </trkpt>
      <trkpt lat="46.4058" lon="-1.49524">
        <ele>7.8</ele>
        <time>2020-06-03T08:53:13Z</time>
      </trkpt>
      <trkpt lat="46.40577" lon="-1.49531">
        <ele>7.7</ele>
        <time>2020-06-03T08:53:14Z</time>
      </trkpt>
      <trkpt lat="46.40573" lon="-1.49537">
        <ele>7.7</ele>
        <time>2020-06-03T08:53:15Z</time>
      </trkpt>
      <trkpt lat="46.40571" lon="-1.49544">
        <ele>7.7</ele>
        <time>2020-06-03T08:53:16Z</time>
      </trkpt>
      <trkpt lat="46.40568" lon="-1.49551">
        <ele>7.7</ele>
        <time>2020-06-03T08:53:17Z</time>
      </trkpt>
      <trkpt lat="46.40565" lon="-1.49557">
        <ele>7.7</ele>
        <time>2020-06-03T08:53:18Z</time>
      </trkpt>
      <trkpt lat="46.40562" lon="-1.49563">
        <ele>7.7</ele>
        <time>2020-06-03T08:53:19Z</time>
      </trkpt>
      <trkpt lat="46.40558" lon="-1.49568">
        <ele>7.7</ele>
        <time>2020-06-03T08:53:20Z</time>
      </trkpt>
      <trkpt lat="46.40555" lon="-1.49574">
        <ele>7.7</ele>
        <time>2020-06-03T08:53:21Z</time>
      </trkpt>
      <trkpt lat="46.40551" lon="-1.49579">
        <ele>7.7</ele>
        <time>2020-06-03T08:53:22Z</time>
      </trkpt>
      <trkpt lat="46.40548" lon="-1.49585">
        <ele>7.7</ele>
        <time>2020-06-03T08:53:23Z</time>
      </trkpt>
      <trkpt lat="46.40544" lon="-1.49591">
        <ele>7.8</ele>
        <time>2020-06-03T08:53:24Z</time>
      </trkpt>
      <trkpt lat="46.4054" lon="-1.49597">
        <ele>7.9</ele>
        <time>2020-06-03T08:53:25Z</time>
      </trkpt>
      <trkpt lat="46.40537" lon="-1.49603">
        <ele>7.9</ele>
        <time>2020-06-03T08:53:26Z</time>
      </trkpt>
      <trkpt lat="46.40533" lon="-1.49609">
        <ele>8</ele>
        <time>2020-06-03T08:53:27Z</time>
      </trkpt>
      <trkpt lat="46.4053" lon="-1.49616">
        <ele>8.1</ele>
        <time>2020-06-03T08:53:28Z</time>
      </trkpt>
      <trkpt lat="46.40527" lon="-1.49623">
        <ele>8.3</ele>
        <time>2020-06-03T08:53:29Z</time>
      </trkpt>
      <trkpt lat="46.40523" lon="-1.49629">
        <ele>8.4</ele>
        <time>2020-06-03T08:53:30Z</time>
      </trkpt>
      <trkpt lat="46.40519" lon="-1.49636">
        <ele>8.6</ele>
        <time>2020-06-03T08:53:31Z</time>
      </trkpt>
      <trkpt lat="46.40516" lon="-1.49643">
        <ele>8.7</ele>
        <time>2020-06-03T08:53:32Z</time>
      </trkpt>
      <trkpt lat="46.40512" lon="-1.49652">
        <ele>8.8</ele>
        <time>2020-06-03T08:53:33Z</time>
      </trkpt>
      <trkpt lat="46.40507" lon="-1.49659">
        <ele>8.9</ele>
        <time>2020-06-03T08:53:34Z</time>
      </trkpt>
      <trkpt lat="46.40504" lon="-1.49666">
        <ele>8.9</ele>
        <time>2020-06-03T08:53:35Z</time>
      </trkpt>
      <trkpt lat="46.405" lon="-1.49671">
        <ele>8.9</ele>
        <time>2020-06-03T08:53:36Z</time>
      </trkpt>
      <trkpt lat="46.40497" lon="-1.49676">
        <ele>8.8</ele>
        <time>2020-06-03T08:53:37Z</time>
      </trkpt>
      <trkpt lat="46.40494" lon="-1.49681">
        <ele>8.7</ele>
        <time>2020-06-03T08:53:38Z</time>
      </trkpt>
      <trkpt lat="46.4049" lon="-1.49685">
        <ele>8.6</ele>
        <time>2020-06-03T08:53:39Z</time>
      </trkpt>
      <trkpt lat="46.40487" lon="-1.4969">
        <ele>8.5</ele>
        <time>2020-06-03T08:53:40Z</time>
      </trkpt>
      <trkpt lat="46.40484" lon="-1.49695">
        <ele>8.3</ele>
        <time>2020-06-03T08:53:41Z</time>
      </trkpt>
      <trkpt lat="46.4048" lon="-1.49701">
        <ele>8.1</ele>
        <time>2020-06-03T08:53:42Z</time>
      </trkpt>
      <trkpt lat="46.40477" lon="-1.49705">
        <ele>8</ele>
        <time>2020-06-03T08:53:43Z</time>
      </trkpt>
      <trkpt lat="46.40474" lon="-1.4971">
        <ele>7.8</ele>
        <time>2020-06-03T08:53:44Z</time>
      </trkpt>
      <trkpt lat="46.40471" lon="-1.49715">
        <ele>7.7</ele>
        <time>2020-06-03T08:53:45Z</time>
      </trkpt>
      <trkpt lat="46.40467" lon="-1.49719">
        <ele>7.7</ele>
        <time>2020-06-03T08:53:46Z</time>
      </trkpt>
      <trkpt lat="46.40464" lon="-1.49724">
        <ele>7.6</ele>
        <time>2020-06-03T08:53:47Z</time>
      </trkpt>
      <trkpt lat="46.4046" lon="-1.4973">
        <ele>7.6</ele>
        <time>2020-06-03T08:53:48Z</time>
      </trkpt>
      <trkpt lat="46.40456" lon="-1.49735">
        <ele>7.6</ele>
        <time>2020-06-03T08:53:49Z</time>
      </trkpt>
      <trkpt lat="46.40452" lon="-1.49741">
        <ele>7.5</ele>
        <time>2020-06-03T08:53:50Z</time>
      </trkpt>
      <trkpt lat="46.40448" lon="-1.49746">
        <ele>7.5</ele>
        <time>2020-06-03T08:53:51Z</time>
      </trkpt>
      <trkpt lat="46.40445" lon="-1.49751">
        <ele>7.5</ele>
        <time>2020-06-03T08:53:52Z</time>
      </trkpt>
      <trkpt lat="46.40441" lon="-1.49754">
        <ele>7.5</ele>
        <time>2020-06-03T08:53:53Z</time>
      </trkpt>
      <trkpt lat="46.40438" lon="-1.49757">
        <ele>7.5</ele>
        <time>2020-06-03T08:53:54Z</time>
      </trkpt>
      <trkpt lat="46.40434" lon="-1.4976">
        <ele>7.6</ele>
        <time>2020-06-03T08:53:55Z</time>
      </trkpt>
      <trkpt lat="46.40432" lon="-1.49762">
        <ele>7.6</ele>
        <time>2020-06-03T08:53:56Z</time>
      </trkpt>
      <trkpt lat="46.40429" lon="-1.49765">
        <ele>7.6</ele>
        <time>2020-06-03T08:53:57Z</time>
      </trkpt>
      <trkpt lat="46.40426" lon="-1.49767">
        <ele>7.6</ele>
        <time>2020-06-03T08:53:58Z</time>
      </trkpt>
      <trkpt lat="46.40422" lon="-1.49771">
        <ele>7.6</ele>
        <time>2020-06-03T08:53:59Z</time>
      </trkpt>
      <trkpt lat="46.40417" lon="-1.49775">
        <ele>7.7</ele>
        <time>2020-06-03T08:54:00Z</time>
      </trkpt>
      <trkpt lat="46.40413" lon="-1.49778">
        <ele>7.7</ele>
        <time>2020-06-03T08:54:01Z</time>
      </trkpt>
      <trkpt lat="46.40411" lon="-1.49781">
        <ele>7.7</ele>
        <time>2020-06-03T08:54:02Z</time>
      </trkpt>
      <trkpt lat="46.40407" lon="-1.49785">
        <ele>7.8</ele>
        <time>2020-06-03T08:54:03Z</time>
      </trkpt>
      <trkpt lat="46.40404" lon="-1.49789">
        <ele>7.8</ele>
        <time>2020-06-03T08:54:04Z</time>
      </trkpt>
      <trkpt lat="46.40402" lon="-1.49793">
        <ele>7.9</ele>
        <time>2020-06-03T08:54:05Z</time>
      </trkpt>
      <trkpt lat="46.40402" lon="-1.49794">
        <ele>7.9</ele>
        <time>2020-06-03T08:54:06Z</time>
      </trkpt>
      <trkpt lat="46.40401" lon="-1.49799">
        <ele>7.9</ele>
        <time>2020-06-03T08:54:07Z</time>
      </trkpt>
      <trkpt lat="46.40401" lon="-1.498">
        <ele>7.9</ele>
        <time>2020-06-03T08:54:08Z</time>
      </trkpt>
      <trkpt lat="46.404" lon="-1.49804">
        <ele>8</ele>
        <time>2020-06-03T08:54:09Z</time>
      </trkpt>
      <trkpt lat="46.40398" lon="-1.49809">
        <ele>8.1</ele>
        <time>2020-06-03T08:54:10Z</time>
      </trkpt>
      <trkpt lat="46.40395" lon="-1.49817">
        <ele>8.2</ele>
        <time>2020-06-03T08:54:11Z</time>
      </trkpt>
      <trkpt lat="46.40392" lon="-1.49823">
        <ele>8.3</ele>
        <time>2020-06-03T08:54:12Z</time>
      </trkpt>
      <trkpt lat="46.40389" lon="-1.49827">
        <ele>8.4</ele>
        <time>2020-06-03T08:54:13Z</time>
      </trkpt>
      <trkpt lat="46.40386" lon="-1.49832">
        <ele>8.4</ele>
        <time>2020-06-03T08:54:14Z</time>
      </trkpt>
      <trkpt lat="46.40382" lon="-1.49833">
        <ele>8.5</ele>
        <time>2020-06-03T08:54:15Z</time>
      </trkpt>
      <trkpt lat="46.40381" lon="-1.49834">
        <ele>8.5</ele>
        <time>2020-06-03T08:54:16Z</time>
      </trkpt>
      <trkpt lat="46.40377" lon="-1.4984">
        <ele>8.6</ele>
        <time>2020-06-03T08:54:17Z</time>
      </trkpt>
      <trkpt lat="46.40373" lon="-1.49848">
        <ele>8.6</ele>
        <time>2020-06-03T08:54:18Z</time>
      </trkpt>
      <trkpt lat="46.40369" lon="-1.49858">
        <ele>8.7</ele>
        <time>2020-06-03T08:54:19Z</time>
      </trkpt>
      <trkpt lat="46.40366" lon="-1.49864">
        <ele>8.7</ele>
        <time>2020-06-03T08:54:20Z</time>
      </trkpt>
      <trkpt lat="46.40364" lon="-1.49871">
        <ele>8.7</ele>
        <time>2020-06-03T08:54:21Z</time>
      </trkpt>
      <trkpt lat="46.40362" lon="-1.49877">
        <ele>8.6</ele>
        <time>2020-06-03T08:54:22Z</time>
      </trkpt>
      <trkpt lat="46.4036" lon="-1.49881">
        <ele>8.6</ele>
        <time>2020-06-03T08:54:23Z</time>
      </trkpt>
      <trkpt lat="46.40357" lon="-1.49889">
        <ele>8.6</ele>
        <time>2020-06-03T08:54:24Z</time>
      </trkpt>
      <trkpt lat="46.40352" lon="-1.49897">
        <ele>8.6</ele>
        <time>2020-06-03T08:54:25Z</time>
      </trkpt>
      <trkpt lat="46.40346" lon="-1.49912">
        <ele>8.5</ele>
        <time>2020-06-03T08:54:26Z</time>
      </trkpt>
      <trkpt lat="46.40343" lon="-1.49921">
        <ele>8.5</ele>
        <time>2020-06-03T08:54:27Z</time>
      </trkpt>
      <trkpt lat="46.40341" lon="-1.49929">
        <ele>8.5</ele>
        <time>2020-06-03T08:54:28Z</time>
      </trkpt>
      <trkpt lat="46.4034" lon="-1.49937">
        <ele>8.6</ele>
        <time>2020-06-03T08:54:29Z</time>
      </trkpt>
      <trkpt lat="46.40339" lon="-1.49946">
        <ele>8.6</ele>
        <time>2020-06-03T08:54:30Z</time>
      </trkpt>
      <trkpt lat="46.40338" lon="-1.49954">
        <ele>8.6</ele>
        <time>2020-06-03T08:54:31Z</time>
      </trkpt>
      <trkpt lat="46.40337" lon="-1.4996">
        <ele>8.7</ele>
        <time>2020-06-03T08:54:32Z</time>
      </trkpt>
      <trkpt lat="46.40338" lon="-1.49966">
        <ele>8.7</ele>
        <time>2020-06-03T08:54:33Z</time>
      </trkpt>
      <trkpt lat="46.40338" lon="-1.49972">
        <ele>8.8</ele>
        <time>2020-06-03T08:54:34Z</time>
      </trkpt>
      <trkpt lat="46.40339" lon="-1.49978">
        <ele>8.8</ele>
        <time>2020-06-03T08:54:35Z</time>
      </trkpt>
      <trkpt lat="46.40339" lon="-1.49983">
        <ele>8.9</ele>
        <time>2020-06-03T08:54:36Z</time>
      </trkpt>
      <trkpt lat="46.4034" lon="-1.49988">
        <ele>8.9</ele>
        <time>2020-06-03T08:54:37Z</time>
      </trkpt>
      <trkpt lat="46.40342" lon="-1.49993">
        <ele>9</ele>
        <time>2020-06-03T08:54:38Z</time>
      </trkpt>
      <trkpt lat="46.40345" lon="-1.49997">
        <ele>9</ele>
        <time>2020-06-03T08:54:39Z</time>
      </trkpt>
      <trkpt lat="46.40347" lon="-1.50001">
        <ele>9.1</ele>
        <time>2020-06-03T08:54:40Z</time>
      </trkpt>
      <trkpt lat="46.4035" lon="-1.50006">
        <ele>9.3</ele>
        <time>2020-06-03T08:54:41Z</time>
      </trkpt>
      <trkpt lat="46.40353" lon="-1.5001">
        <ele>9.4</ele>
        <time>2020-06-03T08:54:42Z</time>
      </trkpt>
      <trkpt lat="46.40356" lon="-1.50015">
        <ele>9.5</ele>
        <time>2020-06-03T08:54:43Z</time>
      </trkpt>
      <trkpt lat="46.40359" lon="-1.50019">
        <ele>9.6</ele>
        <time>2020-06-03T08:54:44Z</time>
      </trkpt>
      <trkpt lat="46.40362" lon="-1.50024">
        <ele>9.7</ele>
        <time>2020-06-03T08:54:45Z</time>
      </trkpt>
      <trkpt lat="46.40364" lon="-1.50028">
        <ele>9.8</ele>
        <time>2020-06-03T08:54:46Z</time>
      </trkpt>
      <trkpt lat="46.40366" lon="-1.50031">
        <ele>9.9</ele>
        <time>2020-06-03T08:54:47Z</time>
      </trkpt>
      <trkpt lat="46.40368" lon="-1.50034">
        <ele>10</ele>
        <time>2020-06-03T08:54:48Z</time>
      </trkpt>
      <trkpt lat="46.40369" lon="-1.50038">
        <ele>10.1</ele>
        <time>2020-06-03T08:54:49Z</time>
      </trkpt>
      <trkpt lat="46.4037" lon="-1.50041">
        <ele>10.2</ele>
        <time>2020-06-03T08:54:50Z</time>
      </trkpt>
      <trkpt lat="46.40372" lon="-1.50046">
        <ele>10.3</ele>
        <time>2020-06-03T08:54:51Z</time>
      </trkpt>
      <trkpt lat="46.40375" lon="-1.5005">
        <ele>10.4</ele>
        <time>2020-06-03T08:54:52Z</time>
      </trkpt>
      <trkpt lat="46.40378" lon="-1.50054">
        <ele>10.5</ele>
        <time>2020-06-03T08:54:53Z</time>
      </trkpt>
      <trkpt lat="46.40379" lon="-1.50055">
        <ele>10.6</ele>
        <time>2020-06-03T08:54:54Z</time>
      </trkpt>
      <trkpt lat="46.40382" lon="-1.50057">
        <ele>10.6</ele>
        <time>2020-06-03T08:54:55Z</time>
      </trkpt>
      <trkpt lat="46.40385" lon="-1.50059">
        <ele>10.8</ele>
        <time>2020-06-03T08:54:56Z</time>
      </trkpt>
      <trkpt lat="46.40387" lon="-1.50062">
        <ele>10.8</ele>
        <time>2020-06-03T08:54:57Z</time>
      </trkpt>
      <trkpt lat="46.40388" lon="-1.50063">
        <ele>10.9</ele>
        <time>2020-06-03T08:54:58Z</time>
      </trkpt>
      <trkpt lat="46.4039" lon="-1.50066">
        <ele>11</ele>
        <time>2020-06-03T08:54:59Z</time>
      </trkpt>
      <trkpt lat="46.40391" lon="-1.5007">
        <ele>11.1</ele>
        <time>2020-06-03T08:55:00Z</time>
      </trkpt>
      <trkpt lat="46.40393" lon="-1.50074">
        <ele>11.2</ele>
        <time>2020-06-03T08:55:01Z</time>
      </trkpt>
      <trkpt lat="46.40395" lon="-1.50077">
        <ele>11.3</ele>
        <time>2020-06-03T08:55:02Z</time>
      </trkpt>
      <trkpt lat="46.40396" lon="-1.50081">
        <ele>11.4</ele>
        <time>2020-06-03T08:55:03Z</time>
      </trkpt>
      <trkpt lat="46.40396" lon="-1.50082">
        <ele>11.4</ele>
        <time>2020-06-03T08:55:04Z</time>
      </trkpt>
      <trkpt lat="46.40397" lon="-1.50085">
        <ele>11.5</ele>
        <time>2020-06-03T08:55:05Z</time>
      </trkpt>
      <trkpt lat="46.40398" lon="-1.50089">
        <ele>11.6</ele>
        <time>2020-06-03T08:55:06Z</time>
      </trkpt>
      <trkpt lat="46.40398" lon="-1.5009">
        <ele>11.6</ele>
        <time>2020-06-03T08:55:07Z</time>
      </trkpt>
      <trkpt lat="46.40399" lon="-1.50092">
        <ele>11.7</ele>
        <time>2020-06-03T08:55:08Z</time>
      </trkpt>
      <trkpt lat="46.404" lon="-1.50093">
        <ele>11.8</ele>
        <time>2020-06-03T08:55:09Z</time>
      </trkpt>
      <trkpt lat="46.404" lon="-1.50094">
        <ele>11.8</ele>
        <time>2020-06-03T08:55:10Z</time>
      </trkpt>
      <trkpt lat="46.404" lon="-1.50096">
        <ele>11.9</ele>
        <time>2020-06-03T08:55:11Z</time>
      </trkpt>
      <trkpt lat="46.404" lon="-1.50099">
        <ele>11.9</ele>
        <time>2020-06-03T08:55:12Z</time>
      </trkpt>
      <trkpt lat="46.404" lon="-1.50101">
        <ele>12</ele>
        <time>2020-06-03T08:55:13Z</time>
      </trkpt>
      <trkpt lat="46.404" lon="-1.50102">
        <ele>12.1</ele>
        <time>2020-06-03T08:55:14Z</time>
      </trkpt>
      <trkpt lat="46.40399" lon="-1.50103">
        <ele>12.1</ele>
        <time>2020-06-03T08:55:15Z</time>
      </trkpt>
      <trkpt lat="46.404" lon="-1.50106">
        <ele>12.2</ele>
        <time>2020-06-03T08:55:16Z</time>
      </trkpt>
      <trkpt lat="46.404" lon="-1.50108">
        <ele>12.2</ele>
        <time>2020-06-03T08:55:17Z</time>
      </trkpt>
      <trkpt lat="46.404" lon="-1.50109">
        <ele>12.3</ele>
        <time>2020-06-03T08:55:18Z</time>
      </trkpt>
      <trkpt lat="46.40401" lon="-1.50109">
        <ele>12.3</ele>
        <time>2020-06-03T08:55:19Z</time>
      </trkpt>
      <trkpt lat="46.40402" lon="-1.50109">
        <ele>12.4</ele>
        <time>2020-06-03T08:55:20Z</time>
      </trkpt>
      <trkpt lat="46.40402" lon="-1.5011">
        <ele>12.5</ele>
        <time>2020-06-03T08:55:21Z</time>
      </trkpt>
      <trkpt lat="46.40403" lon="-1.5011">
        <ele>12.5</ele>
        <time>2020-06-03T08:55:22Z</time>
      </trkpt>
      <trkpt lat="46.40403" lon="-1.5011">
        <ele>12.6</ele>
        <time>2020-06-03T08:55:23Z</time>
      </trkpt>
      <trkpt lat="46.40402" lon="-1.50111">
        <ele>12.6</ele>
        <time>2020-06-03T08:55:24Z</time>
      </trkpt>
      <trkpt lat="46.40402" lon="-1.50111">
        <ele>12.7</ele>
        <time>2020-06-03T08:55:25Z</time>
      </trkpt>
      <trkpt lat="46.40402" lon="-1.50112">
        <ele>12.8</ele>
        <time>2020-06-03T08:55:26Z</time>
      </trkpt>
      <trkpt lat="46.40402" lon="-1.50112">
        <ele>12.8</ele>
        <time>2020-06-03T08:55:27Z</time>
      </trkpt>
      <trkpt lat="46.40402" lon="-1.50113">
        <ele>12.9</ele>
        <time>2020-06-03T08:55:28Z</time>
      </trkpt>
      <trkpt lat="46.40402" lon="-1.50114">
        <ele>12.9</ele>
        <time>2020-06-03T08:55:29Z</time>
      </trkpt>
      <trkpt lat="46.40402" lon="-1.50114">
        <ele>13</ele>
        <time>2020-06-03T08:55:30Z</time>
      </trkpt>
      <trkpt lat="46.40401" lon="-1.50115">
        <ele>13</ele>
        <time>2020-06-03T08:55:31Z</time>
      </trkpt>
      <trkpt lat="46.40401" lon="-1.50115">
        <ele>13.1</ele>
        <time>2020-06-03T08:55:32Z</time>
      </trkpt>
      <trkpt lat="46.40401" lon="-1.50115">
        <ele>13.1</ele>
        <time>2020-06-03T08:55:33Z</time>
      </trkpt>
      <trkpt lat="46.40401" lon="-1.50115">
        <ele>13.2</ele>
        <time>2020-06-03T08:55:34Z</time>
      </trkpt>
      <trkpt lat="46.40401" lon="-1.50115">
        <ele>13.2</ele>
        <time>2020-06-03T08:55:35Z</time>
      </trkpt>
      <trkpt lat="46.404" lon="-1.50115">
        <ele>13.3</ele>
        <time>2020-06-03T08:55:36Z</time>
      </trkpt>
      <trkpt lat="46.40399" lon="-1.50116">
        <ele>13.4</ele>
        <time>2020-06-03T08:55:37Z</time>
      </trkpt>
      <trkpt lat="46.40399" lon="-1.50116">
        <ele>13.4</ele>
        <time>2020-06-03T08:55:38Z</time>
      </trkpt>
      <trkpt lat="46.40398" lon="-1.50117">
        <ele>13.5</ele>
        <time>2020-06-03T08:55:39Z</time>
      </trkpt>
      <trkpt lat="46.40398" lon="-1.50117">
        <ele>13.5</ele>
        <time>2020-06-03T08:55:40Z</time>
      </trkpt>
      <trkpt lat="46.40398" lon="-1.50118">
        <ele>13.6</ele>
        <time>2020-06-03T08:55:41Z</time>
      </trkpt>
      <trkpt lat="46.40397" lon="-1.50118">
        <ele>13.6</ele>
        <time>2020-06-03T08:55:42Z</time>
      </trkpt>
      <trkpt lat="46.40397" lon="-1.50118">
        <ele>13.7</ele>
        <time>2020-06-03T08:55:43Z</time>
      </trkpt>
      <trkpt lat="46.40397" lon="-1.50118">
        <ele>13.7</ele>
        <time>2020-06-03T08:55:44Z</time>
      </trkpt>
      <trkpt lat="46.40397" lon="-1.50118">
        <ele>13.8</ele>
        <time>2020-06-03T08:55:45Z</time>
      </trkpt>
      <trkpt lat="46.40397" lon="-1.50118">
        <ele>13.8</ele>
        <time>2020-06-03T08:55:46Z</time>
      </trkpt>
      <trkpt lat="46.40397" lon="-1.50118">
        <ele>13.9</ele>
        <time>2020-06-03T08:55:47Z</time>
      </trkpt>
      <trkpt lat="46.40397" lon="-1.50118">
        <ele>14</ele>
        <time>2020-06-03T08:55:48Z</time>
      </trkpt>
      <trkpt lat="46.40397" lon="-1.50118">
        <ele>14</ele>
        <time>2020-06-03T08:55:49Z</time>
      </trkpt>
      <trkpt lat="46.40397" lon="-1.50118">
        <ele>14.1</ele>
        <time>2020-06-03T08:55:50Z</time>
      </trkpt>
      <trkpt lat="46.40397" lon="-1.50117">
        <ele>14.1</ele>
        <time>2020-06-03T08:55:51Z</time>
      </trkpt>
      <trkpt lat="46.40397" lon="-1.50117">
        <ele>14.1</ele>
        <time>2020-06-03T08:55:52Z</time>
      </trkpt>
      <trkpt lat="46.40398" lon="-1.50116">
        <ele>14.1</ele>
        <time>2020-06-03T08:55:53Z</time>
      </trkpt>
      <trkpt lat="46.40399" lon="-1.50116">
        <ele>14.1</ele>
        <time>2020-06-03T08:55:54Z</time>
      </trkpt>
      <trkpt lat="46.40399" lon="-1.50116">
        <ele>14.1</ele>
        <time>2020-06-03T08:55:55Z</time>
      </trkpt>
      <trkpt lat="46.40398" lon="-1.50116">
        <ele>14.1</ele>
        <time>2020-06-03T08:55:56Z</time>
      </trkpt>
      <trkpt lat="46.40398" lon="-1.50115">
        <ele>14.1</ele>
        <time>2020-06-03T08:55:57Z</time>
      </trkpt>
      <trkpt lat="46.40398" lon="-1.50115">
        <ele>14.1</ele>
        <time>2020-06-03T08:55:58Z</time>
      </trkpt>
      <trkpt lat="46.40398" lon="-1.50115">
        <ele>14.1</ele>
        <time>2020-06-03T08:55:59Z</time>
      </trkpt>
      <trkpt lat="46.40398" lon="-1.50115">
        <ele>14.1</ele>
        <time>2020-06-03T08:56:00Z</time>
      </trkpt>
      <trkpt lat="46.40399" lon="-1.50115">
        <ele>14.1</ele>
        <time>2020-06-03T08:56:01Z</time>
      </trkpt>
      <trkpt lat="46.40398" lon="-1.50115">
        <ele>14.1</ele>
        <time>2020-06-03T08:56:02Z</time>
      </trkpt>
      <trkpt lat="46.40399" lon="-1.50114">
        <ele>14.1</ele>
        <time>2020-06-03T08:56:03Z</time>
      </trkpt>
      <trkpt lat="46.40399" lon="-1.50114">
        <ele>14.1</ele>
        <time>2020-06-03T08:56:04Z</time>
      </trkpt>
      <trkpt lat="46.40399" lon="-1.50114">
        <ele>14.1</ele>
        <time>2020-06-03T08:56:05Z</time>
      </trkpt>
      <trkpt lat="46.40399" lon="-1.50114">
        <ele>14.1</ele>
        <time>2020-06-03T08:56:06Z</time>
      </trkpt>
      <trkpt lat="46.40399" lon="-1.50113">
        <ele>14.1</ele>
        <time>2020-06-03T08:56:07Z</time>
      </trkpt>
      <trkpt lat="46.40399" lon="-1.50113">
        <ele>14.1</ele>
        <time>2020-06-03T08:56:08Z</time>
      </trkpt>
      <trkpt lat="46.40399" lon="-1.50114">
        <ele>14.1</ele>
        <time>2020-06-03T08:56:09Z</time>
      </trkpt>
      <trkpt lat="46.40398" lon="-1.50114">
        <ele>14.1</ele>
        <time>2020-06-03T08:56:10Z</time>
      </trkpt>
      <trkpt lat="46.40398" lon="-1.50114">
        <ele>14.1</ele>
        <time>2020-06-03T08:56:11Z</time>
      </trkpt>
      <trkpt lat="46.40398" lon="-1.50114">
        <ele>14.1</ele>
        <time>2020-06-03T08:56:12Z</time>
      </trkpt>
      <trkpt lat="46.40398" lon="-1.50114">
        <ele>14.1</ele>
        <time>2020-06-03T08:56:13Z</time>
      </trkpt>
      <trkpt lat="46.40398" lon="-1.50114">
        <ele>14.1</ele>
        <time>2020-06-03T08:56:14Z</time>
      </trkpt>
      <trkpt lat="46.40397" lon="-1.50114">
        <ele>14.1</ele>
        <time>2020-06-03T08:56:15Z</time>
      </trkpt>
      <trkpt lat="46.40396" lon="-1.50114">
        <ele>14</ele>
        <time>2020-06-03T08:56:16Z</time>
      </trkpt>
      <trkpt lat="46.40396" lon="-1.50113">
        <ele>14</ele>
        <time>2020-06-03T08:56:17Z</time>
      </trkpt>
      <trkpt lat="46.40396" lon="-1.50114">
        <ele>14</ele>
        <time>2020-06-03T08:56:18Z</time>
      </trkpt>
      <trkpt lat="46.40396" lon="-1.50114">
        <ele>14</ele>
        <time>2020-06-03T08:56:19Z</time>
      </trkpt>
      <trkpt lat="46.40396" lon="-1.50115">
        <ele>14</ele>
        <time>2020-06-03T08:56:20Z</time>
      </trkpt>
      <trkpt lat="46.40396" lon="-1.50115">
        <ele>14</ele>
        <time>2020-06-03T08:56:21Z</time>
      </trkpt>
      <trkpt lat="46.40395" lon="-1.50115">
        <ele>14</ele>
        <time>2020-06-03T08:56:22Z</time>
      </trkpt>
      <trkpt lat="46.40395" lon="-1.50115">
        <ele>14</ele>
        <time>2020-06-03T08:56:23Z</time>
      </trkpt>
      <trkpt lat="46.40395" lon="-1.50115">
        <ele>14</ele>
        <time>2020-06-03T08:56:24Z</time>
      </trkpt>
      <trkpt lat="46.40395" lon="-1.50115">
        <ele>14</ele>
        <time>2020-06-03T08:56:25Z</time>
      </trkpt>
      <trkpt lat="46.40394" lon="-1.50115">
        <ele>14</ele>
        <time>2020-06-03T08:56:26Z</time>
      </trkpt>
      <trkpt lat="46.40394" lon="-1.50115">
        <ele>13.9</ele>
        <time>2020-06-03T08:56:27Z</time>
      </trkpt>
      <trkpt lat="46.40393" lon="-1.50115">
        <ele>13.9</ele>
        <time>2020-06-03T08:56:28Z</time>
      </trkpt>
      <trkpt lat="46.40392" lon="-1.50115">
        <ele>13.9</ele>
        <time>2020-06-03T08:56:29Z</time>
      </trkpt>
      <trkpt lat="46.40392" lon="-1.50116">
        <ele>13.9</ele>
        <time>2020-06-03T08:56:30Z</time>
      </trkpt>
      <trkpt lat="46.40392" lon="-1.50115">
        <ele>13.9</ele>
        <time>2020-06-03T08:56:31Z</time>
      </trkpt>
      <trkpt lat="46.40392" lon="-1.50115">
        <ele>13.9</ele>
        <time>2020-06-03T08:56:32Z</time>
      </trkpt>
      <trkpt lat="46.40392" lon="-1.50116">
        <ele>13.9</ele>
        <time>2020-06-03T08:56:33Z</time>
      </trkpt>
      <trkpt lat="46.40392" lon="-1.50116">
        <ele>13.9</ele>
        <time>2020-06-03T08:56:34Z</time>
      </trkpt>
      <trkpt lat="46.40391" lon="-1.50115">
        <ele>13.8</ele>
        <time>2020-06-03T08:56:35Z</time>
      </trkpt>
      <trkpt lat="46.4039" lon="-1.50114">
        <ele>13.8</ele>
        <time>2020-06-03T08:56:36Z</time>
      </trkpt>
      <trkpt lat="46.4039" lon="-1.50113">
        <ele>13.8</ele>
        <time>2020-06-03T08:56:37Z</time>
      </trkpt>
      <trkpt lat="46.4039" lon="-1.50114">
        <ele>13.8</ele>
        <time>2020-06-03T08:56:38Z</time>
      </trkpt>
      <trkpt lat="46.4039" lon="-1.50114">
        <ele>13.8</ele>
        <time>2020-06-03T08:56:39Z</time>
      </trkpt>
      <trkpt lat="46.4039" lon="-1.50114">
        <ele>13.8</ele>
        <time>2020-06-03T08:56:40Z</time>
      </trkpt>
      <trkpt lat="46.4039" lon="-1.50113">
        <ele>13.7</ele>
        <time>2020-06-03T08:56:41Z</time>
      </trkpt>
      <trkpt lat="46.40389" lon="-1.50112">
        <ele>13.7</ele>
        <time>2020-06-03T08:56:42Z</time>
      </trkpt>
      <trkpt lat="46.40389" lon="-1.5011">
        <ele>13.7</ele>
        <time>2020-06-03T08:56:43Z</time>
      </trkpt>
      <trkpt lat="46.40389" lon="-1.50109">
        <ele>13.6</ele>
        <time>2020-06-03T08:56:44Z</time>
      </trkpt>
      <trkpt lat="46.40389" lon="-1.50108">
        <ele>13.6</ele>
        <time>2020-06-03T08:56:45Z</time>
      </trkpt>
      <trkpt lat="46.40389" lon="-1.50105">
        <ele>13.5</ele>
        <time>2020-06-03T08:56:46Z</time>
      </trkpt>
      <trkpt lat="46.40388" lon="-1.50102">
        <ele>13.5</ele>
        <time>2020-06-03T08:56:47Z</time>
      </trkpt>
      <trkpt lat="46.40388" lon="-1.50102">
        <ele>13.4</ele>
        <time>2020-06-03T08:56:48Z</time>
      </trkpt>
      <trkpt lat="46.40388" lon="-1.50103">
        <ele>13.4</ele>
        <time>2020-06-03T08:56:49Z</time>
      </trkpt>
      <trkpt lat="46.40388" lon="-1.50104">
        <ele>13.4</ele>
        <time>2020-06-03T08:56:50Z</time>
      </trkpt>
      <trkpt lat="46.40388" lon="-1.50105">
        <ele>13.4</ele>
        <time>2020-06-03T08:56:51Z</time>
      </trkpt>
      <trkpt lat="46.40389" lon="-1.50105">
        <ele>13.4</ele>
        <time>2020-06-03T08:56:52Z</time>
      </trkpt>
      <trkpt lat="46.40389" lon="-1.50106">
        <ele>13.3</ele>
        <time>2020-06-03T08:56:53Z</time>
      </trkpt>
      <trkpt lat="46.40388" lon="-1.50106">
        <ele>13.3</ele>
        <time>2020-06-03T08:56:54Z</time>
      </trkpt>
      <trkpt lat="46.40388" lon="-1.50106">
        <ele>13.3</ele>
        <time>2020-06-03T08:56:55Z</time>
      </trkpt>
      <trkpt lat="46.40387" lon="-1.50106">
        <ele>13.3</ele>
        <time>2020-06-03T08:56:56Z</time>
      </trkpt>
      <trkpt lat="46.40387" lon="-1.50107">
        <ele>13.3</ele>
        <time>2020-06-03T08:56:57Z</time>
      </trkpt>
      <trkpt lat="46.40387" lon="-1.50106">
        <ele>13.3</ele>
        <time>2020-06-03T08:56:58Z</time>
      </trkpt>
      <trkpt lat="46.40387" lon="-1.50106">
        <ele>13.3</ele>
        <time>2020-06-03T08:56:59Z</time>
      </trkpt>
      <trkpt lat="46.40387" lon="-1.50106">
        <ele>13.2</ele>
        <time>2020-06-03T08:57:00Z</time>
      </trkpt>
      <trkpt lat="46.40388" lon="-1.50107">
        <ele>13.2</ele>
        <time>2020-06-03T08:57:01Z</time>
      </trkpt>
      <trkpt lat="46.40389" lon="-1.50108">
        <ele>13.2</ele>
        <time>2020-06-03T08:57:02Z</time>
      </trkpt>
      <trkpt lat="46.4039" lon="-1.50109">
        <ele>13.2</ele>
        <time>2020-06-03T08:57:03Z</time>
      </trkpt>
      <trkpt lat="46.4039" lon="-1.50109">
        <ele>13.2</ele>
        <time>2020-06-03T08:57:04Z</time>
      </trkpt>
      <trkpt lat="46.4039" lon="-1.50109">
        <ele>13.1</ele>
        <time>2020-06-03T08:57:05Z</time>
      </trkpt>
      <trkpt lat="46.4039" lon="-1.50111">
        <ele>13.1</ele>
        <time>2020-06-03T08:57:06Z</time>
      </trkpt>
      <trkpt lat="46.4039" lon="-1.50112">
        <ele>13.1</ele>
        <time>2020-06-03T08:57:07Z</time>
      </trkpt>
      <trkpt lat="46.4039" lon="-1.50114">
        <ele>13</ele>
        <time>2020-06-03T08:57:08Z</time>
      </trkpt>
      <trkpt lat="46.40391" lon="-1.50115">
        <ele>13</ele>
        <time>2020-06-03T08:57:09Z</time>
      </trkpt>
      <trkpt lat="46.40393" lon="-1.50118">
        <ele>12.9</ele>
        <time>2020-06-03T08:57:10Z</time>
      </trkpt>
      <trkpt lat="46.40397" lon="-1.50121">
        <ele>12.8</ele>
        <time>2020-06-03T08:57:11Z</time>
      </trkpt>
      <trkpt lat="46.40401" lon="-1.50125">
        <ele>12.7</ele>
        <time>2020-06-03T08:57:12Z</time>
      </trkpt>
      <trkpt lat="46.40406" lon="-1.5013">
        <ele>12.6</ele>
        <time>2020-06-03T08:57:13Z</time>
      </trkpt>
      <trkpt lat="46.40412" lon="-1.50135">
        <ele>12.5</ele>
        <time>2020-06-03T08:57:14Z</time>
      </trkpt>
      <trkpt lat="46.40418" lon="-1.50139">
        <ele>12.4</ele>
        <time>2020-06-03T08:57:15Z</time>
      </trkpt>
      <trkpt lat="46.40425" lon="-1.50144">
        <ele>12.4</ele>
        <time>2020-06-03T08:57:16Z</time>
      </trkpt>
      <trkpt lat="46.40433" lon="-1.50151">
        <ele>12.5</ele>
        <time>2020-06-03T08:57:17Z</time>
      </trkpt>
      <trkpt lat="46.40441" lon="-1.50158">
        <ele>12.7</ele>
        <time>2020-06-03T08:57:18Z</time>
      </trkpt>
      <trkpt lat="46.40448" lon="-1.50164">
        <ele>12.9</ele>
        <time>2020-06-03T08:57:19Z</time>
      </trkpt>
      <trkpt lat="46.40454" lon="-1.50169">
        <ele>13.2</ele>
        <time>2020-06-03T08:57:20Z</time>
      </trkpt>
      <trkpt lat="46.40459" lon="-1.50174">
        <ele>13.4</ele>
        <time>2020-06-03T08:57:21Z</time>
      </trkpt>
      <trkpt lat="46.40464" lon="-1.5018">
        <ele>13.7</ele>
        <time>2020-06-03T08:57:22Z</time>
      </trkpt>
      <trkpt lat="46.40469" lon="-1.50187">
        <ele>14</ele>
        <time>2020-06-03T08:57:23Z</time>
      </trkpt>
      <trkpt lat="46.40474" lon="-1.50193">
        <ele>14.2</ele>
        <time>2020-06-03T08:57:24Z</time>
      </trkpt>
      <trkpt lat="46.40479" lon="-1.502">
        <ele>14.5</ele>
        <time>2020-06-03T08:57:25Z</time>
      </trkpt>
      <trkpt lat="46.40485" lon="-1.50205">
        <ele>14.8</ele>
        <time>2020-06-03T08:57:26Z</time>
      </trkpt>
      <trkpt lat="46.4049" lon="-1.5021">
        <ele>15</ele>
        <time>2020-06-03T08:57:27Z</time>
      </trkpt>
      <trkpt lat="46.40496" lon="-1.50215">
        <ele>15.3</ele>
        <time>2020-06-03T08:57:28Z</time>
      </trkpt>
      <trkpt lat="46.40501" lon="-1.50219">
        <ele>15.5</ele>
        <time>2020-06-03T08:57:29Z</time>
      </trkpt>
      <trkpt lat="46.40506" lon="-1.50222">
        <ele>15.6</ele>
        <time>2020-06-03T08:57:30Z</time>
      </trkpt>
      <trkpt lat="46.4051" lon="-1.50224">
        <ele>15.7</ele>
        <time>2020-06-03T08:57:31Z</time>
      </trkpt>
      <trkpt lat="46.40514" lon="-1.50227">
        <ele>15.8</ele>
        <time>2020-06-03T08:57:32Z</time>
      </trkpt>
      <trkpt lat="46.40517" lon="-1.5023">
        <ele>15.9</ele>
        <time>2020-06-03T08:57:33Z</time>
      </trkpt>
      <trkpt lat="46.40518" lon="-1.50231">
        <ele>15.9</ele>
        <time>2020-06-03T08:57:34Z</time>
      </trkpt>
      <trkpt lat="46.40521" lon="-1.50233">
        <ele>16</ele>
        <time>2020-06-03T08:57:35Z</time>
      </trkpt>
      <trkpt lat="46.40524" lon="-1.50236">
        <ele>16.2</ele>
        <time>2020-06-03T08:57:36Z</time>
      </trkpt>
      <trkpt lat="46.40526" lon="-1.50239">
        <ele>16.3</ele>
        <time>2020-06-03T08:57:37Z</time>
      </trkpt>
      <trkpt lat="46.40529" lon="-1.50241">
        <ele>16.4</ele>
        <time>2020-06-03T08:57:38Z</time>
      </trkpt>
      <trkpt lat="46.40532" lon="-1.50244">
        <ele>16.5</ele>
        <time>2020-06-03T08:57:39Z</time>
      </trkpt>
      <trkpt lat="46.40534" lon="-1.50247">
        <ele>16.7</ele>
        <time>2020-06-03T08:57:40Z</time>
      </trkpt>
      <trkpt lat="46.40535" lon="-1.50249">
        <ele>16.7</ele>
        <time>2020-06-03T08:57:41Z</time>
      </trkpt>
      <trkpt lat="46.40538" lon="-1.50251">
        <ele>16.9</ele>
        <time>2020-06-03T08:57:42Z</time>
      </trkpt>
      <trkpt lat="46.40541" lon="-1.50253">
        <ele>17</ele>
        <time>2020-06-03T08:57:43Z</time>
      </trkpt>
      <trkpt lat="46.40544" lon="-1.50256">
        <ele>17.1</ele>
        <time>2020-06-03T08:57:44Z</time>
      </trkpt>
      <trkpt lat="46.40545" lon="-1.50257">
        <ele>17.2</ele>
        <time>2020-06-03T08:57:45Z</time>
      </trkpt>
      <trkpt lat="46.40545" lon="-1.50258">
        <ele>17.2</ele>
        <time>2020-06-03T08:57:46Z</time>
      </trkpt>
      <trkpt lat="46.40546" lon="-1.50258">
        <ele>17.2</ele>
        <time>2020-06-03T08:57:47Z</time>
      </trkpt>
      <trkpt lat="46.40546" lon="-1.50258">
        <ele>17.3</ele>
        <time>2020-06-03T08:57:48Z</time>
      </trkpt>
      <trkpt lat="46.40546" lon="-1.50257">
        <ele>17.3</ele>
        <time>2020-06-03T08:57:49Z</time>
      </trkpt>
      <trkpt lat="46.40546" lon="-1.50257">
        <ele>17.3</ele>
        <time>2020-06-03T08:57:50Z</time>
      </trkpt>
      <trkpt lat="46.40546" lon="-1.50257">
        <ele>17.3</ele>
        <time>2020-06-03T08:57:51Z</time>
      </trkpt>
      <trkpt lat="46.40547" lon="-1.50257">
        <ele>17.3</ele>
        <time>2020-06-03T08:57:52Z</time>
      </trkpt>
      <trkpt lat="46.40547" lon="-1.50257">
        <ele>17.3</ele>
        <time>2020-06-03T08:57:53Z</time>
      </trkpt>
      <trkpt lat="46.40547" lon="-1.50257">
        <ele>17.3</ele>
        <time>2020-06-03T08:57:54Z</time>
      </trkpt>
      <trkpt lat="46.40547" lon="-1.50258">
        <ele>17.3</ele>
        <time>2020-06-03T08:57:55Z</time>
      </trkpt>
      <trkpt lat="46.40547" lon="-1.50258">
        <ele>17.4</ele>
        <time>2020-06-03T08:57:56Z</time>
      </trkpt>
      <trkpt lat="46.40547" lon="-1.50258">
        <ele>17.4</ele>
        <time>2020-06-03T08:57:57Z</time>
      </trkpt>
      <trkpt lat="46.40547" lon="-1.50258">
        <ele>17.4</ele>
        <time>2020-06-03T08:57:58Z</time>
      </trkpt>
      <trkpt lat="46.40547" lon="-1.50258">
        <ele>17.4</ele>
        <time>2020-06-03T08:57:59Z</time>
      </trkpt>
      <trkpt lat="46.40547" lon="-1.50258">
        <ele>17.4</ele>
        <time>2020-06-03T08:58:00Z</time>
      </trkpt>
      <trkpt lat="46.40548" lon="-1.50258">
        <ele>17.4</ele>
        <time>2020-06-03T08:58:01Z</time>
      </trkpt>
      <trkpt lat="46.40548" lon="-1.50259">
        <ele>17.4</ele>
        <time>2020-06-03T08:58:02Z</time>
      </trkpt>
      <trkpt lat="46.40548" lon="-1.50258">
        <ele>17.4</ele>
        <time>2020-06-03T08:58:03Z</time>
      </trkpt>
      <trkpt lat="46.40548" lon="-1.50259">
        <ele>17.5</ele>
        <time>2020-06-03T08:58:04Z</time>
      </trkpt>
      <trkpt lat="46.40548" lon="-1.50259">
        <ele>17.5</ele>
        <time>2020-06-03T08:58:05Z</time>
      </trkpt>
      <trkpt lat="46.40548" lon="-1.50259">
        <ele>17.5</ele>
        <time>2020-06-03T08:58:06Z</time>
      </trkpt>
      <trkpt lat="46.40549" lon="-1.5026">
        <ele>17.5</ele>
        <time>2020-06-03T08:58:07Z</time>
      </trkpt>
      <trkpt lat="46.40549" lon="-1.5026">
        <ele>17.5</ele>
        <time>2020-06-03T08:58:08Z</time>
      </trkpt>
      <trkpt lat="46.40549" lon="-1.50261">
        <ele>17.5</ele>
        <time>2020-06-03T08:58:09Z</time>
      </trkpt>
      <trkpt lat="46.40549" lon="-1.50261">
        <ele>17.5</ele>
        <time>2020-06-03T08:58:10Z</time>
      </trkpt>
      <trkpt lat="46.40548" lon="-1.50261">
        <ele>17.5</ele>
        <time>2020-06-03T08:58:11Z</time>
      </trkpt>
      <trkpt lat="46.40548" lon="-1.50261">
        <ele>17.5</ele>
        <time>2020-06-03T08:58:12Z</time>
      </trkpt>
      <trkpt lat="46.40548" lon="-1.5026">
        <ele>17.5</ele>
        <time>2020-06-03T08:58:13Z</time>
      </trkpt>
      <trkpt lat="46.40548" lon="-1.5026">
        <ele>17.6</ele>
        <time>2020-06-03T08:58:14Z</time>
      </trkpt>
      <trkpt lat="46.40548" lon="-1.5026">
        <ele>17.6</ele>
        <time>2020-06-03T08:58:15Z</time>
      </trkpt>
      <trkpt lat="46.40548" lon="-1.5026">
        <ele>17.6</ele>
        <time>2020-06-03T08:58:16Z</time>
      </trkpt>
      <trkpt lat="46.40548" lon="-1.5026">
        <ele>17.6</ele>
        <time>2020-06-03T08:58:17Z</time>
      </trkpt>
      <trkpt lat="46.40548" lon="-1.5026">
        <ele>17.6</ele>
        <time>2020-06-03T08:58:18Z</time>
      </trkpt>
      <trkpt lat="46.40548" lon="-1.5026">
        <ele>17.6</ele>
        <time>2020-06-03T08:58:19Z</time>
      </trkpt>
      <trkpt lat="46.40548" lon="-1.5026">
        <ele>17.6</ele>
        <time>2020-06-03T08:58:20Z</time>
      </trkpt>
      <trkpt lat="46.40548" lon="-1.50259">
        <ele>17.6</ele>
        <time>2020-06-03T08:58:21Z</time>
      </trkpt>
      <trkpt lat="46.40549" lon="-1.50259">
        <ele>17.6</ele>
        <time>2020-06-03T08:58:22Z</time>
      </trkpt>
      <trkpt lat="46.40549" lon="-1.50259">
        <ele>17.6</ele>
        <time>2020-06-03T08:58:23Z</time>
      </trkpt>
      <trkpt lat="46.40549" lon="-1.50258">
        <ele>17.6</ele>
        <time>2020-06-03T08:58:24Z</time>
      </trkpt>
      <trkpt lat="46.4055" lon="-1.50259">
        <ele>17.6</ele>
        <time>2020-06-03T08:58:25Z</time>
      </trkpt>
      <trkpt lat="46.40551" lon="-1.50259">
        <ele>17.6</ele>
        <time>2020-06-03T08:58:26Z</time>
      </trkpt>
      <trkpt lat="46.40551" lon="-1.50259">
        <ele>17.6</ele>
        <time>2020-06-03T08:58:27Z</time>
      </trkpt>
      <trkpt lat="46.40552" lon="-1.50259">
        <ele>17.6</ele>
        <time>2020-06-03T08:58:28Z</time>
      </trkpt>
      <trkpt lat="46.40552" lon="-1.50259">
        <ele>17.6</ele>
        <time>2020-06-03T08:58:29Z</time>
      </trkpt>
      <trkpt lat="46.40552" lon="-1.50259">
        <ele>17.6</ele>
        <time>2020-06-03T08:58:30Z</time>
      </trkpt>
      <trkpt lat="46.40554" lon="-1.5026">
        <ele>17.7</ele>
        <time>2020-06-03T08:58:31Z</time>
      </trkpt>
      <trkpt lat="46.40554" lon="-1.50259">
        <ele>17.7</ele>
        <time>2020-06-03T08:58:32Z</time>
      </trkpt>
      <trkpt lat="46.40555" lon="-1.50259">
        <ele>17.7</ele>
        <time>2020-06-03T08:58:33Z</time>
      </trkpt>
      <trkpt lat="46.40556" lon="-1.50259">
        <ele>17.7</ele>
        <time>2020-06-03T08:58:34Z</time>
      </trkpt>
      <trkpt lat="46.40556" lon="-1.50259">
        <ele>17.7</ele>
        <time>2020-06-03T08:58:35Z</time>
      </trkpt>
      <trkpt lat="46.40556" lon="-1.50259">
        <ele>17.7</ele>
        <time>2020-06-03T08:58:36Z</time>
      </trkpt>
      <trkpt lat="46.40556" lon="-1.50259">
        <ele>17.7</ele>
        <time>2020-06-03T08:58:37Z</time>
      </trkpt>
      <trkpt lat="46.40556" lon="-1.50259">
        <ele>17.7</ele>
        <time>2020-06-03T08:58:38Z</time>
      </trkpt>
      <trkpt lat="46.40556" lon="-1.50259">
        <ele>17.7</ele>
        <time>2020-06-03T08:58:39Z</time>
      </trkpt>
      <trkpt lat="46.40556" lon="-1.50259">
        <ele>17.7</ele>
        <time>2020-06-03T08:58:40Z</time>
      </trkpt>
      <trkpt lat="46.40555" lon="-1.50258">
        <ele>17.7</ele>
        <time>2020-06-03T08:58:41Z</time>
      </trkpt>
      <trkpt lat="46.40556" lon="-1.50257">
        <ele>17.7</ele>
        <time>2020-06-03T08:58:42Z</time>
      </trkpt>
      <trkpt lat="46.40557" lon="-1.50255">
        <ele>17.7</ele>
        <time>2020-06-03T08:58:43Z</time>
      </trkpt>
      <trkpt lat="46.40556" lon="-1.50257">
        <ele>17.6</ele>
        <time>2020-06-03T08:58:44Z</time>
      </trkpt>
      <trkpt lat="46.40556" lon="-1.50258">
        <ele>17.6</ele>
        <time>2020-06-03T08:58:45Z</time>
      </trkpt>
      <trkpt lat="46.40555" lon="-1.5026">
        <ele>17.6</ele>
        <time>2020-06-03T08:58:46Z</time>
      </trkpt>
      <trkpt lat="46.40556" lon="-1.50259">
        <ele>17.6</ele>
        <time>2020-06-03T08:58:47Z</time>
      </trkpt>
      <trkpt lat="46.40556" lon="-1.50259">
        <ele>17.6</ele>
        <time>2020-06-03T08:58:48Z</time>
      </trkpt>
      <trkpt lat="46.40556" lon="-1.50259">
        <ele>17.6</ele>
        <time>2020-06-03T08:58:49Z</time>
      </trkpt>
      <trkpt lat="46.40556" lon="-1.50261">
        <ele>17.6</ele>
        <time>2020-06-03T08:58:50Z</time>
      </trkpt>
      <trkpt lat="46.40558" lon="-1.50264">
        <ele>17.5</ele>
        <time>2020-06-03T08:58:51Z</time>
      </trkpt>
      <trkpt lat="46.40559" lon="-1.50265">
        <ele>17.5</ele>
        <time>2020-06-03T08:58:52Z</time>
      </trkpt>
      <trkpt lat="46.40561" lon="-1.50269">
        <ele>17.4</ele>
        <time>2020-06-03T08:58:53Z</time>
      </trkpt>
      <trkpt lat="46.40564" lon="-1.50271">
        <ele>17.3</ele>
        <time>2020-06-03T08:58:54Z</time>
      </trkpt>
      <trkpt lat="46.40567" lon="-1.50275">
        <ele>17.2</ele>
        <time>2020-06-03T08:58:55Z</time>
      </trkpt>
      <trkpt lat="46.4057" lon="-1.50278">
        <ele>17.1</ele>
        <time>2020-06-03T08:58:56Z</time>
      </trkpt>
      <trkpt lat="46.40573" lon="-1.50281">
        <ele>16.9</ele>
        <time>2020-06-03T08:58:57Z</time>
      </trkpt>
      <trkpt lat="46.40577" lon="-1.50284">
        <ele>16.7</ele>
        <time>2020-06-03T08:58:58Z</time>
      </trkpt>
      <trkpt lat="46.4058" lon="-1.50287">
        <ele>16.5</ele>
        <time>2020-06-03T08:58:59Z</time>
      </trkpt>
      <trkpt lat="46.40583" lon="-1.50291">
        <ele>16.2</ele>
        <time>2020-06-03T08:59:00Z</time>
      </trkpt>
      <trkpt lat="46.40587" lon="-1.50295">
        <ele>16</ele>
        <time>2020-06-03T08:59:01Z</time>
      </trkpt>
      <trkpt lat="46.40592" lon="-1.50302">
        <ele>15.6</ele>
        <time>2020-06-03T08:59:02Z</time>
      </trkpt>
      <trkpt lat="46.40597" lon="-1.5031">
        <ele>15.3</ele>
        <time>2020-06-03T08:59:03Z</time>
      </trkpt>
      <trkpt lat="46.40603" lon="-1.50318">
        <ele>14.9</ele>
        <time>2020-06-03T08:59:04Z</time>
      </trkpt>
      <trkpt lat="46.40608" lon="-1.50326">
        <ele>14.8</ele>
        <time>2020-06-03T08:59:05Z</time>
      </trkpt>
      <trkpt lat="46.40614" lon="-1.50334">
        <ele>14.7</ele>
        <time>2020-06-03T08:59:06Z</time>
      </trkpt>
      <trkpt lat="46.40619" lon="-1.50341">
        <ele>14.6</ele>
        <time>2020-06-03T08:59:07Z</time>
      </trkpt>
      <trkpt lat="46.40623" lon="-1.50348">
        <ele>14.5</ele>
        <time>2020-06-03T08:59:08Z</time>
      </trkpt>
      <trkpt lat="46.40628" lon="-1.50354">
        <ele>14.4</ele>
        <time>2020-06-03T08:59:09Z</time>
      </trkpt>
      <trkpt lat="46.40633" lon="-1.50362">
        <ele>14.3</ele>
        <time>2020-06-03T08:59:10Z</time>
      </trkpt>
      <trkpt lat="46.40637" lon="-1.50369">
        <ele>14.2</ele>
        <time>2020-06-03T08:59:11Z</time>
      </trkpt>
      <trkpt lat="46.40641" lon="-1.50377">
        <ele>14.1</ele>
        <time>2020-06-03T08:59:12Z</time>
      </trkpt>
      <trkpt lat="46.40645" lon="-1.50383">
        <ele>14.1</ele>
        <time>2020-06-03T08:59:13Z</time>
      </trkpt>
      <trkpt lat="46.40647" lon="-1.50387">
        <ele>14.1</ele>
        <time>2020-06-03T08:59:14Z</time>
      </trkpt>
      <trkpt lat="46.40649" lon="-1.50392">
        <ele>14.1</ele>
        <time>2020-06-03T08:59:15Z</time>
      </trkpt>
      <trkpt lat="46.40652" lon="-1.50397">
        <ele>14.1</ele>
        <time>2020-06-03T08:59:16Z</time>
      </trkpt>
      <trkpt lat="46.40654" lon="-1.50401">
        <ele>14.1</ele>
        <time>2020-06-03T08:59:17Z</time>
      </trkpt>
      <trkpt lat="46.40657" lon="-1.50404">
        <ele>14.1</ele>
        <time>2020-06-03T08:59:18Z</time>
      </trkpt>
      <trkpt lat="46.40658" lon="-1.50405">
        <ele>14.1</ele>
        <time>2020-06-03T08:59:19Z</time>
      </trkpt>
      <trkpt lat="46.40659" lon="-1.50405">
        <ele>14.1</ele>
        <time>2020-06-03T08:59:20Z</time>
      </trkpt>
      <trkpt lat="46.4066" lon="-1.50405">
        <ele>14.1</ele>
        <time>2020-06-03T08:59:21Z</time>
      </trkpt>
      <trkpt lat="46.40663" lon="-1.50403">
        <ele>14.1</ele>
        <time>2020-06-03T08:59:22Z</time>
      </trkpt>
      <trkpt lat="46.40664" lon="-1.50402">
        <ele>14.1</ele>
        <time>2020-06-03T08:59:23Z</time>
      </trkpt>
      <trkpt lat="46.40666" lon="-1.504">
        <ele>14.1</ele>
        <time>2020-06-03T08:59:24Z</time>
      </trkpt>
      <trkpt lat="46.40669" lon="-1.50397">
        <ele>14.1</ele>
        <time>2020-06-03T08:59:25Z</time>
      </trkpt>
      <trkpt lat="46.40671" lon="-1.50394">
        <ele>14.1</ele>
        <time>2020-06-03T08:59:26Z</time>
      </trkpt>
      <trkpt lat="46.40675" lon="-1.5039">
        <ele>14.1</ele>
        <time>2020-06-03T08:59:27Z</time>
      </trkpt>
      <trkpt lat="46.40676" lon="-1.50389">
        <ele>14.1</ele>
        <time>2020-06-03T08:59:28Z</time>
      </trkpt>
      <trkpt lat="46.40679" lon="-1.50386">
        <ele>14.1</ele>
        <time>2020-06-03T08:59:29Z</time>
      </trkpt>
      <trkpt lat="46.4068" lon="-1.50385">
        <ele>14.1</ele>
        <time>2020-06-03T08:59:30Z</time>
      </trkpt>
      <trkpt lat="46.40684" lon="-1.50383">
        <ele>14.1</ele>
        <time>2020-06-03T08:59:31Z</time>
      </trkpt>
      <trkpt lat="46.40686" lon="-1.50381">
        <ele>14.1</ele>
        <time>2020-06-03T08:59:32Z</time>
      </trkpt>
      <trkpt lat="46.4069" lon="-1.50379">
        <ele>14.1</ele>
        <time>2020-06-03T08:59:33Z</time>
      </trkpt>
      <trkpt lat="46.40691" lon="-1.50378">
        <ele>14.1</ele>
        <time>2020-06-03T08:59:34Z</time>
      </trkpt>
      <trkpt lat="46.40694" lon="-1.50375">
        <ele>14.1</ele>
        <time>2020-06-03T08:59:35Z</time>
      </trkpt>
      <trkpt lat="46.40696" lon="-1.50374">
        <ele>14.2</ele>
        <time>2020-06-03T08:59:36Z</time>
      </trkpt>
      <trkpt lat="46.40699" lon="-1.50372">
        <ele>14.2</ele>
        <time>2020-06-03T08:59:37Z</time>
      </trkpt>
      <trkpt lat="46.40702" lon="-1.50369">
        <ele>14.2</ele>
        <time>2020-06-03T08:59:38Z</time>
      </trkpt>
      <trkpt lat="46.40706" lon="-1.50367">
        <ele>14.3</ele>
        <time>2020-06-03T08:59:39Z</time>
      </trkpt>
      <trkpt lat="46.40709" lon="-1.50365">
        <ele>14.3</ele>
        <time>2020-06-03T08:59:40Z</time>
      </trkpt>
      <trkpt lat="46.40711" lon="-1.50363">
        <ele>14.3</ele>
        <time>2020-06-03T08:59:41Z</time>
      </trkpt>
      <trkpt lat="46.40715" lon="-1.50361">
        <ele>14.3</ele>
        <time>2020-06-03T08:59:42Z</time>
      </trkpt>
      <trkpt lat="46.40717" lon="-1.50359">
        <ele>14.3</ele>
        <time>2020-06-03T08:59:43Z</time>
      </trkpt>
      <trkpt lat="46.4072" lon="-1.50357">
        <ele>14.3</ele>
        <time>2020-06-03T08:59:44Z</time>
      </trkpt>
      <trkpt lat="46.40723" lon="-1.50355">
        <ele>14.3</ele>
        <time>2020-06-03T08:59:45Z</time>
      </trkpt>
      <trkpt lat="46.40726" lon="-1.50352">
        <ele>14.2</ele>
        <time>2020-06-03T08:59:46Z</time>
      </trkpt>
      <trkpt lat="46.40729" lon="-1.50349">
        <ele>14.2</ele>
        <time>2020-06-03T08:59:47Z</time>
      </trkpt>
      <trkpt lat="46.40733" lon="-1.50347">
        <ele>14.2</ele>
        <time>2020-06-03T08:59:48Z</time>
      </trkpt>
      <trkpt lat="46.40736" lon="-1.50345">
        <ele>14.2</ele>
        <time>2020-06-03T08:59:49Z</time>
      </trkpt>
      <trkpt lat="46.4074" lon="-1.50343">
        <ele>14.1</ele>
        <time>2020-06-03T08:59:50Z</time>
      </trkpt>
      <trkpt lat="46.40744" lon="-1.50341">
        <ele>14.2</ele>
        <time>2020-06-03T08:59:51Z</time>
      </trkpt>
      <trkpt lat="46.40748" lon="-1.50339">
        <ele>14.2</ele>
        <time>2020-06-03T08:59:52Z</time>
      </trkpt>
      <trkpt lat="46.40752" lon="-1.50338">
        <ele>14.2</ele>
        <time>2020-06-03T08:59:53Z</time>
      </trkpt>
      <trkpt lat="46.40757" lon="-1.50335">
        <ele>14.3</ele>
        <time>2020-06-03T08:59:54Z</time>
      </trkpt>
      <trkpt lat="46.40763" lon="-1.50334">
        <ele>14.4</ele>
        <time>2020-06-03T08:59:55Z</time>
      </trkpt>
      <trkpt lat="46.40768" lon="-1.50331">
        <ele>14.5</ele>
        <time>2020-06-03T08:59:56Z</time>
      </trkpt>
      <trkpt lat="46.40773" lon="-1.50329">
        <ele>14.6</ele>
        <time>2020-06-03T08:59:57Z</time>
      </trkpt>
      <trkpt lat="46.40781" lon="-1.50326">
        <ele>14.7</ele>
        <time>2020-06-03T08:59:58Z</time>
      </trkpt>
      <trkpt lat="46.40788" lon="-1.50323">
        <ele>14.8</ele>
        <time>2020-06-03T08:59:59Z</time>
      </trkpt>
      <trkpt lat="46.40793" lon="-1.50322">
        <ele>14.9</ele>
        <time>2020-06-03T09:00:00Z</time>
      </trkpt>
      <trkpt lat="46.40798" lon="-1.5032">
        <ele>15</ele>
        <time>2020-06-03T09:00:01Z</time>
      </trkpt>
      <trkpt lat="46.40804" lon="-1.50319">
        <ele>15.1</ele>
        <time>2020-06-03T09:00:02Z</time>
      </trkpt>
      <trkpt lat="46.40808" lon="-1.50319">
        <ele>15.2</ele>
        <time>2020-06-03T09:00:03Z</time>
      </trkpt>
      <trkpt lat="46.40813" lon="-1.50317">
        <ele>15.3</ele>
        <time>2020-06-03T09:00:04Z</time>
      </trkpt>
      <trkpt lat="46.40817" lon="-1.50315">
        <ele>15.4</ele>
        <time>2020-06-03T09:00:05Z</time>
      </trkpt>
      <trkpt lat="46.40822" lon="-1.50313">
        <ele>15.5</ele>
        <time>2020-06-03T09:00:06Z</time>
      </trkpt>
      <trkpt lat="46.40826" lon="-1.5031">
        <ele>15.6</ele>
        <time>2020-06-03T09:00:07Z</time>
      </trkpt>
      <trkpt lat="46.40829" lon="-1.50308">
        <ele>15.8</ele>
        <time>2020-06-03T09:00:08Z</time>
      </trkpt>
      <trkpt lat="46.40831" lon="-1.50306">
        <ele>15.9</ele>
        <time>2020-06-03T09:00:09Z</time>
      </trkpt>
      <trkpt lat="46.40834" lon="-1.50302">
        <ele>15.9</ele>
        <time>2020-06-03T09:00:10Z</time>
      </trkpt>
      <trkpt lat="46.40837" lon="-1.503">
        <ele>16</ele>
        <time>2020-06-03T09:00:11Z</time>
      </trkpt>
      <trkpt lat="46.4084" lon="-1.50297">
        <ele>16.2</ele>
        <time>2020-06-03T09:00:12Z</time>
      </trkpt>
      <trkpt lat="46.40844" lon="-1.50294">
        <ele>16.3</ele>
        <time>2020-06-03T09:00:13Z</time>
      </trkpt>
      <trkpt lat="46.40847" lon="-1.50291">
        <ele>16.5</ele>
        <time>2020-06-03T09:00:14Z</time>
      </trkpt>
      <trkpt lat="46.4085" lon="-1.50288">
        <ele>16.7</ele>
        <time>2020-06-03T09:00:15Z</time>
      </trkpt>
      <trkpt lat="46.40853" lon="-1.50286">
        <ele>16.8</ele>
        <time>2020-06-03T09:00:16Z</time>
      </trkpt>
      <trkpt lat="46.40856" lon="-1.50284">
        <ele>17</ele>
        <time>2020-06-03T09:00:17Z</time>
      </trkpt>
      <trkpt lat="46.40858" lon="-1.50282">
        <ele>17.1</ele>
        <time>2020-06-03T09:00:18Z</time>
      </trkpt>
      <trkpt lat="46.40862" lon="-1.50281">
        <ele>17.3</ele>
        <time>2020-06-03T09:00:19Z</time>
      </trkpt>
      <trkpt lat="46.40864" lon="-1.50281">
        <ele>17.3</ele>
        <time>2020-06-03T09:00:20Z</time>
      </trkpt>
      <trkpt lat="46.40867" lon="-1.50281">
        <ele>17.4</ele>
        <time>2020-06-03T09:00:21Z</time>
      </trkpt>
      <trkpt lat="46.40871" lon="-1.50281">
        <ele>17.6</ele>
        <time>2020-06-03T09:00:22Z</time>
      </trkpt>
      <trkpt lat="46.40872" lon="-1.50281">
        <ele>17.6</ele>
        <time>2020-06-03T09:00:23Z</time>
      </trkpt>
      <trkpt lat="46.40875" lon="-1.50281">
        <ele>17.7</ele>
        <time>2020-06-03T09:00:24Z</time>
      </trkpt>
      <trkpt lat="46.40878" lon="-1.50281">
        <ele>17.8</ele>
        <time>2020-06-03T09:00:25Z</time>
      </trkpt>
      <trkpt lat="46.40883" lon="-1.5028">
        <ele>17.8</ele>
        <time>2020-06-03T09:00:26Z</time>
      </trkpt>
      <trkpt lat="46.40888" lon="-1.50278">
        <ele>17.9</ele>
        <time>2020-06-03T09:00:27Z</time>
      </trkpt>
      <trkpt lat="46.40894" lon="-1.50274">
        <ele>17.8</ele>
        <time>2020-06-03T09:00:28Z</time>
      </trkpt>
      <trkpt lat="46.40899" lon="-1.5027">
        <ele>17.6</ele>
        <time>2020-06-03T09:00:29Z</time>
      </trkpt>
      <trkpt lat="46.40904" lon="-1.50267">
        <ele>17.5</ele>
        <time>2020-06-03T09:00:30Z</time>
      </trkpt>
      <trkpt lat="46.40909" lon="-1.50264">
        <ele>17.3</ele>
        <time>2020-06-03T09:00:31Z</time>
      </trkpt>
      <trkpt lat="46.40915" lon="-1.50262">
        <ele>17.3</ele>
        <time>2020-06-03T09:00:32Z</time>
      </trkpt>
      <trkpt lat="46.4092" lon="-1.5026">
        <ele>17.3</ele>
        <time>2020-06-03T09:00:33Z</time>
      </trkpt>
      <trkpt lat="46.40927" lon="-1.50259">
        <ele>17.4</ele>
        <time>2020-06-03T09:00:34Z</time>
      </trkpt>
      <trkpt lat="46.40933" lon="-1.50257">
        <ele>17.5</ele>
        <time>2020-06-03T09:00:35Z</time>
      </trkpt>
      <trkpt lat="46.40939" lon="-1.50256">
        <ele>17.7</ele>
        <time>2020-06-03T09:00:36Z</time>
      </trkpt>
      <trkpt lat="46.40943" lon="-1.50255">
        <ele>17.8</ele>
        <time>2020-06-03T09:00:37Z</time>
      </trkpt>
      <trkpt lat="46.40947" lon="-1.50254">
        <ele>17.9</ele>
        <time>2020-06-03T09:00:38Z</time>
      </trkpt>
      <trkpt lat="46.40949" lon="-1.50252">
        <ele>18</ele>
        <time>2020-06-03T09:00:39Z</time>
      </trkpt>
      <trkpt lat="46.40952" lon="-1.50251">
        <ele>18.1</ele>
        <time>2020-06-03T09:00:40Z</time>
      </trkpt>
      <trkpt lat="46.40956" lon="-1.5025">
        <ele>18.2</ele>
        <time>2020-06-03T09:00:41Z</time>
      </trkpt>
      <trkpt lat="46.4096" lon="-1.50248">
        <ele>18.3</ele>
        <time>2020-06-03T09:00:42Z</time>
      </trkpt>
      <trkpt lat="46.40964" lon="-1.50249">
        <ele>18.3</ele>
        <time>2020-06-03T09:00:43Z</time>
      </trkpt>
      <trkpt lat="46.40969" lon="-1.50249">
        <ele>18.3</ele>
        <time>2020-06-03T09:00:44Z</time>
      </trkpt>
      <trkpt lat="46.40973" lon="-1.50248">
        <ele>18.2</ele>
        <time>2020-06-03T09:00:45Z</time>
      </trkpt>
      <trkpt lat="46.40979" lon="-1.50247">
        <ele>18.1</ele>
        <time>2020-06-03T09:00:46Z</time>
      </trkpt>
      <trkpt lat="46.40984" lon="-1.50248">
        <ele>18.1</ele>
        <time>2020-06-03T09:00:47Z</time>
      </trkpt>
      <trkpt lat="46.40989" lon="-1.5025">
        <ele>18</ele>
        <time>2020-06-03T09:00:48Z</time>
      </trkpt>
      <trkpt lat="46.40993" lon="-1.50253">
        <ele>18</ele>
        <time>2020-06-03T09:00:49Z</time>
      </trkpt>
      <trkpt lat="46.40997" lon="-1.50254">
        <ele>18</ele>
        <time>2020-06-03T09:00:50Z</time>
      </trkpt>
      <trkpt lat="46.41" lon="-1.50256">
        <ele>18</ele>
        <time>2020-06-03T09:00:51Z</time>
      </trkpt>
      <trkpt lat="46.41004" lon="-1.50257">
        <ele>18</ele>
        <time>2020-06-03T09:00:52Z</time>
      </trkpt>
      <trkpt lat="46.41008" lon="-1.50254">
        <ele>18</ele>
        <time>2020-06-03T09:00:53Z</time>
      </trkpt>
      <trkpt lat="46.41012" lon="-1.50248">
        <ele>18</ele>
        <time>2020-06-03T09:00:54Z</time>
      </trkpt>
      <trkpt lat="46.41013" lon="-1.50246">
        <ele>18</ele>
        <time>2020-06-03T09:00:55Z</time>
      </trkpt>
      <trkpt lat="46.41013" lon="-1.50246">
        <ele>18</ele>
        <time>2020-06-03T09:00:56Z</time>
      </trkpt>
      <trkpt lat="46.41014" lon="-1.50247">
        <ele>18</ele>
        <time>2020-06-03T09:00:57Z</time>
      </trkpt>
      <trkpt lat="46.41014" lon="-1.50246">
        <ele>18.1</ele>
        <time>2020-06-03T09:00:58Z</time>
      </trkpt>
      <trkpt lat="46.41014" lon="-1.50247">
        <ele>18.1</ele>
        <time>2020-06-03T09:00:59Z</time>
      </trkpt>
      <trkpt lat="46.41013" lon="-1.50248">
        <ele>18.1</ele>
        <time>2020-06-03T09:01:00Z</time>
      </trkpt>
      <trkpt lat="46.41013" lon="-1.50249">
        <ele>18.1</ele>
        <time>2020-06-03T09:01:01Z</time>
      </trkpt>
      <trkpt lat="46.41013" lon="-1.5025">
        <ele>18.1</ele>
        <time>2020-06-03T09:01:02Z</time>
      </trkpt>
      <trkpt lat="46.41013" lon="-1.50252">
        <ele>18.1</ele>
        <time>2020-06-03T09:01:03Z</time>
      </trkpt>
      <trkpt lat="46.41014" lon="-1.50254">
        <ele>18.1</ele>
        <time>2020-06-03T09:01:04Z</time>
      </trkpt>
      <trkpt lat="46.41015" lon="-1.50256">
        <ele>18.1</ele>
        <time>2020-06-03T09:01:05Z</time>
      </trkpt>
      <trkpt lat="46.41016" lon="-1.50258">
        <ele>18.1</ele>
        <time>2020-06-03T09:01:06Z</time>
      </trkpt>
      <trkpt lat="46.41016" lon="-1.5026">
        <ele>18.1</ele>
        <time>2020-06-03T09:01:07Z</time>
      </trkpt>
      <trkpt lat="46.41017" lon="-1.50264">
        <ele>18.1</ele>
        <time>2020-06-03T09:01:08Z</time>
      </trkpt>
      <trkpt lat="46.41018" lon="-1.50266">
        <ele>18.1</ele>
        <time>2020-06-03T09:01:09Z</time>
      </trkpt>
      <trkpt lat="46.41021" lon="-1.5027">
        <ele>18.2</ele>
        <time>2020-06-03T09:01:10Z</time>
      </trkpt>
      <trkpt lat="46.41022" lon="-1.50271">
        <ele>18.2</ele>
        <time>2020-06-03T09:01:11Z</time>
      </trkpt>
      <trkpt lat="46.41025" lon="-1.50275">
        <ele>18.2</ele>
        <time>2020-06-03T09:01:12Z</time>
      </trkpt>
      <trkpt lat="46.41026" lon="-1.50276">
        <ele>18.2</ele>
        <time>2020-06-03T09:01:13Z</time>
      </trkpt>
      <trkpt lat="46.41029" lon="-1.50279">
        <ele>18.2</ele>
        <time>2020-06-03T09:01:14Z</time>
      </trkpt>
      <trkpt lat="46.41029" lon="-1.5028">
        <ele>18.2</ele>
        <time>2020-06-03T09:01:15Z</time>
      </trkpt>
      <trkpt lat="46.41031" lon="-1.50283">
        <ele>18.2</ele>
        <time>2020-06-03T09:01:16Z</time>
      </trkpt>
      <trkpt lat="46.41032" lon="-1.50285">
        <ele>18.2</ele>
        <time>2020-06-03T09:01:17Z</time>
      </trkpt>
      <trkpt lat="46.41034" lon="-1.50287">
        <ele>18.2</ele>
        <time>2020-06-03T09:01:18Z</time>
      </trkpt>
      <trkpt lat="46.41035" lon="-1.50288">
        <ele>18.2</ele>
        <time>2020-06-03T09:01:19Z</time>
      </trkpt>
      <trkpt lat="46.41036" lon="-1.50288">
        <ele>18.2</ele>
        <time>2020-06-03T09:01:20Z</time>
      </trkpt>
      <trkpt lat="46.41037" lon="-1.50289">
        <ele>18.2</ele>
        <time>2020-06-03T09:01:21Z</time>
      </trkpt>
      <trkpt lat="46.41037" lon="-1.5029">
        <ele>18.2</ele>
        <time>2020-06-03T09:01:22Z</time>
      </trkpt>
      <trkpt lat="46.41038" lon="-1.50289">
        <ele>18.2</ele>
        <time>2020-06-03T09:01:23Z</time>
      </trkpt>
      <trkpt lat="46.41039" lon="-1.50287">
        <ele>18.2</ele>
        <time>2020-06-03T09:01:24Z</time>
      </trkpt>
      <trkpt lat="46.41039" lon="-1.50286">
        <ele>18.2</ele>
        <time>2020-06-03T09:01:25Z</time>
      </trkpt>
      <trkpt lat="46.41039" lon="-1.50285">
        <ele>18.2</ele>
        <time>2020-06-03T09:01:26Z</time>
      </trkpt>
      <trkpt lat="46.41039" lon="-1.50279">
        <ele>18.2</ele>
        <time>2020-06-03T09:01:27Z</time>
      </trkpt>
      <trkpt lat="46.41039" lon="-1.50277">
        <ele>18.2</ele>
        <time>2020-06-03T09:01:28Z</time>
      </trkpt>
      <trkpt lat="46.41038" lon="-1.50273">
        <ele>18.2</ele>
        <time>2020-06-03T09:01:29Z</time>
      </trkpt>
      <trkpt lat="46.41038" lon="-1.50268">
        <ele>18.2</ele>
        <time>2020-06-03T09:01:30Z</time>
      </trkpt>
      <trkpt lat="46.41038" lon="-1.50263">
        <ele>18.2</ele>
        <time>2020-06-03T09:01:31Z</time>
      </trkpt>
      <trkpt lat="46.41038" lon="-1.50258">
        <ele>18.2</ele>
        <time>2020-06-03T09:01:32Z</time>
      </trkpt>
      <trkpt lat="46.41039" lon="-1.50252">
        <ele>18.2</ele>
        <time>2020-06-03T09:01:33Z</time>
      </trkpt>
      <trkpt lat="46.4104" lon="-1.50246">
        <ele>18.1</ele>
        <time>2020-06-03T09:01:34Z</time>
      </trkpt>
      <trkpt lat="46.4104" lon="-1.5024">
        <ele>18.1</ele>
        <time>2020-06-03T09:01:35Z</time>
      </trkpt>
      <trkpt lat="46.41039" lon="-1.50235">
        <ele>18.1</ele>
        <time>2020-06-03T09:01:36Z</time>
      </trkpt>
      <trkpt lat="46.41038" lon="-1.5023">
        <ele>18.1</ele>
        <time>2020-06-03T09:01:37Z</time>
      </trkpt>
      <trkpt lat="46.41037" lon="-1.50228">
        <ele>18.1</ele>
        <time>2020-06-03T09:01:38Z</time>
      </trkpt>
      <trkpt lat="46.41036" lon="-1.50225">
        <ele>18.1</ele>
        <time>2020-06-03T09:01:39Z</time>
      </trkpt>
      <trkpt lat="46.41034" lon="-1.5022">
        <ele>18.1</ele>
        <time>2020-06-03T09:01:40Z</time>
      </trkpt>
      <trkpt lat="46.41034" lon="-1.50219">
        <ele>18.1</ele>
        <time>2020-06-03T09:01:41Z</time>
      </trkpt>
      <trkpt lat="46.41034" lon="-1.50217">
        <ele>18.1</ele>
        <time>2020-06-03T09:01:42Z</time>
      </trkpt>
      <trkpt lat="46.41034" lon="-1.50215">
        <ele>18.1</ele>
        <time>2020-06-03T09:01:43Z</time>
      </trkpt>
      <trkpt lat="46.41033" lon="-1.50214">
        <ele>18.1</ele>
        <time>2020-06-03T09:01:44Z</time>
      </trkpt>
      <trkpt lat="46.41033" lon="-1.50212">
        <ele>18.1</ele>
        <time>2020-06-03T09:01:45Z</time>
      </trkpt>
      <trkpt lat="46.41034" lon="-1.5021">
        <ele>18.1</ele>
        <time>2020-06-03T09:01:46Z</time>
      </trkpt>
      <trkpt lat="46.41035" lon="-1.50209">
        <ele>18.1</ele>
        <time>2020-06-03T09:01:47Z</time>
      </trkpt>
      <trkpt lat="46.41036" lon="-1.50208">
        <ele>18</ele>
        <time>2020-06-03T09:01:48Z</time>
      </trkpt>
      <trkpt lat="46.41037" lon="-1.50208">
        <ele>18</ele>
        <time>2020-06-03T09:01:49Z</time>
      </trkpt>
      <trkpt lat="46.41038" lon="-1.50208">
        <ele>18</ele>
        <time>2020-06-03T09:01:50Z</time>
      </trkpt>
      <trkpt lat="46.41039" lon="-1.50209">
        <ele>18</ele>
        <time>2020-06-03T09:01:51Z</time>
      </trkpt>
      <trkpt lat="46.41039" lon="-1.5021">
        <ele>18</ele>
        <time>2020-06-03T09:01:52Z</time>
      </trkpt>
      <trkpt lat="46.4104" lon="-1.50211">
        <ele>18</ele>
        <time>2020-06-03T09:01:53Z</time>
      </trkpt>
      <trkpt lat="46.4104" lon="-1.50213">
        <ele>18</ele>
        <time>2020-06-03T09:01:54Z</time>
      </trkpt>
      <trkpt lat="46.4104" lon="-1.50215">
        <ele>18</ele>
        <time>2020-06-03T09:01:55Z</time>
      </trkpt>
      <trkpt lat="46.4104" lon="-1.50216">
        <ele>18</ele>
        <time>2020-06-03T09:01:56Z</time>
      </trkpt>
      <trkpt lat="46.41041" lon="-1.50218">
        <ele>18</ele>
        <time>2020-06-03T09:01:57Z</time>
      </trkpt>
      <trkpt lat="46.41041" lon="-1.50223">
        <ele>18.1</ele>
        <time>2020-06-03T09:01:58Z</time>
      </trkpt>
      <trkpt lat="46.41042" lon="-1.50229">
        <ele>18.1</ele>
        <time>2020-06-03T09:01:59Z</time>
      </trkpt>
      <trkpt lat="46.41043" lon="-1.50235">
        <ele>18.1</ele>
        <time>2020-06-03T09:02:00Z</time>
      </trkpt>
      <trkpt lat="46.41043" lon="-1.50241">
        <ele>18.1</ele>
        <time>2020-06-03T09:02:01Z</time>
      </trkpt>
      <trkpt lat="46.41044" lon="-1.50249">
        <ele>18.2</ele>
        <time>2020-06-03T09:02:02Z</time>
      </trkpt>
      <trkpt lat="46.41045" lon="-1.50255">
        <ele>18.2</ele>
        <time>2020-06-03T09:02:03Z</time>
      </trkpt>
      <trkpt lat="46.41046" lon="-1.50261">
        <ele>18.2</ele>
        <time>2020-06-03T09:02:04Z</time>
      </trkpt>
      <trkpt lat="46.41046" lon="-1.50266">
        <ele>18.2</ele>
        <time>2020-06-03T09:02:05Z</time>
      </trkpt>
      <trkpt lat="46.41046" lon="-1.50271">
        <ele>18.2</ele>
        <time>2020-06-03T09:02:06Z</time>
      </trkpt>
      <trkpt lat="46.41047" lon="-1.50276">
        <ele>18.2</ele>
        <time>2020-06-03T09:02:07Z</time>
      </trkpt>
      <trkpt lat="46.41047" lon="-1.50277">
        <ele>18.2</ele>
        <time>2020-06-03T09:02:08Z</time>
      </trkpt>
      <trkpt lat="46.41046" lon="-1.50281">
        <ele>18.2</ele>
        <time>2020-06-03T09:02:09Z</time>
      </trkpt>
      <trkpt lat="46.41046" lon="-1.50287">
        <ele>18.3</ele>
        <time>2020-06-03T09:02:10Z</time>
      </trkpt>
      <trkpt lat="46.41046" lon="-1.50288">
        <ele>18.3</ele>
        <time>2020-06-03T09:02:11Z</time>
      </trkpt>
      <trkpt lat="46.41045" lon="-1.50291">
        <ele>18.3</ele>
        <time>2020-06-03T09:02:12Z</time>
      </trkpt>
      <trkpt lat="46.41045" lon="-1.50293">
        <ele>18.3</ele>
        <time>2020-06-03T09:02:13Z</time>
      </trkpt>
      <trkpt lat="46.41044" lon="-1.50294">
        <ele>18.3</ele>
        <time>2020-06-03T09:02:14Z</time>
      </trkpt>
      <trkpt lat="46.41044" lon="-1.50295">
        <ele>18.3</ele>
        <time>2020-06-03T09:02:15Z</time>
      </trkpt>
      <trkpt lat="46.41043" lon="-1.50296">
        <ele>18.3</ele>
        <time>2020-06-03T09:02:16Z</time>
      </trkpt>
      <trkpt lat="46.41043" lon="-1.50296">
        <ele>18.3</ele>
        <time>2020-06-03T09:02:17Z</time>
      </trkpt>
      <trkpt lat="46.41042" lon="-1.50297">
        <ele>18.3</ele>
        <time>2020-06-03T09:02:18Z</time>
      </trkpt>
      <trkpt lat="46.4104" lon="-1.50299">
        <ele>18.3</ele>
        <time>2020-06-03T09:02:19Z</time>
      </trkpt>
      <trkpt lat="46.4104" lon="-1.503">
        <ele>18.3</ele>
        <time>2020-06-03T09:02:20Z</time>
      </trkpt>
      <trkpt lat="46.41039" lon="-1.50301">
        <ele>18.3</ele>
        <time>2020-06-03T09:02:21Z</time>
      </trkpt>
      <trkpt lat="46.41036" lon="-1.50303">
        <ele>18.4</ele>
        <time>2020-06-03T09:02:22Z</time>
      </trkpt>
      <trkpt lat="46.41035" lon="-1.50303">
        <ele>18.4</ele>
        <time>2020-06-03T09:02:23Z</time>
      </trkpt>
      <trkpt lat="46.41032" lon="-1.50303">
        <ele>18.4</ele>
        <time>2020-06-03T09:02:24Z</time>
      </trkpt>
      <trkpt lat="46.41029" lon="-1.50304">
        <ele>18.4</ele>
        <time>2020-06-03T09:02:25Z</time>
      </trkpt>
      <trkpt lat="46.41026" lon="-1.50306">
        <ele>18.4</ele>
        <time>2020-06-03T09:02:26Z</time>
      </trkpt>
      <trkpt lat="46.41023" lon="-1.50308">
        <ele>18.4</ele>
        <time>2020-06-03T09:02:27Z</time>
      </trkpt>
      <trkpt lat="46.41023" lon="-1.50308">
        <ele>18.4</ele>
        <time>2020-06-03T09:02:28Z</time>
      </trkpt>
      <trkpt lat="46.41019" lon="-1.50311">
        <ele>18.3</ele>
        <time>2020-06-03T09:02:29Z</time>
      </trkpt>
      <trkpt lat="46.41018" lon="-1.50312">
        <ele>18.3</ele>
        <time>2020-06-03T09:02:30Z</time>
      </trkpt>
      <trkpt lat="46.41015" lon="-1.50315">
        <ele>18.3</ele>
        <time>2020-06-03T09:02:31Z</time>
      </trkpt>
      <trkpt lat="46.41012" lon="-1.50319">
        <ele>18.2</ele>
        <time>2020-06-03T09:02:32Z</time>
      </trkpt>
      <trkpt lat="46.41011" lon="-1.50323">
        <ele>18.2</ele>
        <time>2020-06-03T09:02:33Z</time>
      </trkpt>
      <trkpt lat="46.4101" lon="-1.50327">
        <ele>18.2</ele>
        <time>2020-06-03T09:02:34Z</time>
      </trkpt>
      <trkpt lat="46.41009" lon="-1.50332">
        <ele>18.1</ele>
        <time>2020-06-03T09:02:35Z</time>
      </trkpt>
      <trkpt lat="46.41009" lon="-1.50337">
        <ele>18.1</ele>
        <time>2020-06-03T09:02:36Z</time>
      </trkpt>
      <trkpt lat="46.41009" lon="-1.50342">
        <ele>18</ele>
        <time>2020-06-03T09:02:37Z</time>
      </trkpt>
      <trkpt lat="46.4101" lon="-1.50347">
        <ele>18</ele>
        <time>2020-06-03T09:02:38Z</time>
      </trkpt>
      <trkpt lat="46.41011" lon="-1.50354">
        <ele>17.9</ele>
        <time>2020-06-03T09:02:39Z</time>
      </trkpt>
      <trkpt lat="46.41013" lon="-1.5036">
        <ele>17.9</ele>
        <time>2020-06-03T09:02:40Z</time>
      </trkpt>
      <trkpt lat="46.41014" lon="-1.50367">
        <ele>17.9</ele>
        <time>2020-06-03T09:02:41Z</time>
      </trkpt>
      <trkpt lat="46.41016" lon="-1.50374">
        <ele>17.8</ele>
        <time>2020-06-03T09:02:42Z</time>
      </trkpt>
      <trkpt lat="46.41018" lon="-1.50382">
        <ele>17.8</ele>
        <time>2020-06-03T09:02:43Z</time>
      </trkpt>
      <trkpt lat="46.4102" lon="-1.50391">
        <ele>17.8</ele>
        <time>2020-06-03T09:02:44Z</time>
      </trkpt>
      <trkpt lat="46.41022" lon="-1.504">
        <ele>17.8</ele>
        <time>2020-06-03T09:02:45Z</time>
      </trkpt>
      <trkpt lat="46.41024" lon="-1.5041">
        <ele>17.9</ele>
        <time>2020-06-03T09:02:46Z</time>
      </trkpt>
      <trkpt lat="46.41027" lon="-1.50417">
        <ele>18</ele>
        <time>2020-06-03T09:02:47Z</time>
      </trkpt>
      <trkpt lat="46.41029" lon="-1.50425">
        <ele>18</ele>
        <time>2020-06-03T09:02:48Z</time>
      </trkpt>
      <trkpt lat="46.4103" lon="-1.50432">
        <ele>18.1</ele>
        <time>2020-06-03T09:02:49Z</time>
      </trkpt>
      <trkpt lat="46.41031" lon="-1.50438">
        <ele>18.1</ele>
        <time>2020-06-03T09:02:50Z</time>
      </trkpt>
      <trkpt lat="46.41032" lon="-1.50447">
        <ele>18.2</ele>
        <time>2020-06-03T09:02:51Z</time>
      </trkpt>
      <trkpt lat="46.41033" lon="-1.50454">
        <ele>18.2</ele>
        <time>2020-06-03T09:02:52Z</time>
      </trkpt>
      <trkpt lat="46.41035" lon="-1.50462">
        <ele>18.3</ele>
        <time>2020-06-03T09:02:53Z</time>
      </trkpt>
      <trkpt lat="46.41036" lon="-1.50468">
        <ele>18.3</ele>
        <time>2020-06-03T09:02:54Z</time>
      </trkpt>
      <trkpt lat="46.41038" lon="-1.50473">
        <ele>18.3</ele>
        <time>2020-06-03T09:02:55Z</time>
      </trkpt>
      <trkpt lat="46.41039" lon="-1.50477">
        <ele>18.3</ele>
        <time>2020-06-03T09:02:56Z</time>
      </trkpt>
      <trkpt lat="46.41042" lon="-1.50481">
        <ele>18.3</ele>
        <time>2020-06-03T09:02:57Z</time>
      </trkpt>
      <trkpt lat="46.41042" lon="-1.50482">
        <ele>18.3</ele>
        <time>2020-06-03T09:02:58Z</time>
      </trkpt>
      <trkpt lat="46.41044" lon="-1.50485">
        <ele>18.3</ele>
        <time>2020-06-03T09:02:59Z</time>
      </trkpt>
      <trkpt lat="46.41045" lon="-1.50486">
        <ele>18.3</ele>
        <time>2020-06-03T09:03:00Z</time>
      </trkpt>
      <trkpt lat="46.41047" lon="-1.50489">
        <ele>18.3</ele>
        <time>2020-06-03T09:03:01Z</time>
      </trkpt>
      <trkpt lat="46.4105" lon="-1.50493">
        <ele>18.2</ele>
        <time>2020-06-03T09:03:02Z</time>
      </trkpt>
      <trkpt lat="46.41055" lon="-1.505">
        <ele>18.1</ele>
        <time>2020-06-03T09:03:03Z</time>
      </trkpt>
      <trkpt lat="46.4106" lon="-1.50507">
        <ele>18</ele>
        <time>2020-06-03T09:03:04Z</time>
      </trkpt>
      <trkpt lat="46.41064" lon="-1.50514">
        <ele>17.9</ele>
        <time>2020-06-03T09:03:05Z</time>
      </trkpt>
      <trkpt lat="46.41067" lon="-1.50519">
        <ele>17.8</ele>
        <time>2020-06-03T09:03:06Z</time>
      </trkpt>
      <trkpt lat="46.4107" lon="-1.50525">
        <ele>17.7</ele>
        <time>2020-06-03T09:03:07Z</time>
      </trkpt>
      <trkpt lat="46.41073" lon="-1.50532">
        <ele>17.7</ele>
        <time>2020-06-03T09:03:08Z</time>
      </trkpt>
      <trkpt lat="46.41075" lon="-1.50539">
        <ele>17.6</ele>
        <time>2020-06-03T09:03:09Z</time>
      </trkpt>
      <trkpt lat="46.41076" lon="-1.50547">
        <ele>17.5</ele>
        <time>2020-06-03T09:03:10Z</time>
      </trkpt>
      <trkpt lat="46.41077" lon="-1.50555">
        <ele>17.4</ele>
        <time>2020-06-03T09:03:11Z</time>
      </trkpt>
      <trkpt lat="46.41077" lon="-1.50563">
        <ele>17.4</ele>
        <time>2020-06-03T09:03:12Z</time>
      </trkpt>
      <trkpt lat="46.41078" lon="-1.50571">
        <ele>17.3</ele>
        <time>2020-06-03T09:03:13Z</time>
      </trkpt>
      <trkpt lat="46.41078" lon="-1.50579">
        <ele>17.3</ele>
        <time>2020-06-03T09:03:14Z</time>
      </trkpt>
      <trkpt lat="46.4108" lon="-1.50588">
        <ele>17.3</ele>
        <time>2020-06-03T09:03:15Z</time>
      </trkpt>
      <trkpt lat="46.41081" lon="-1.50597">
        <ele>17.3</ele>
        <time>2020-06-03T09:03:16Z</time>
      </trkpt>
      <trkpt lat="46.41083" lon="-1.50604">
        <ele>17.3</ele>
        <time>2020-06-03T09:03:17Z</time>
      </trkpt>
      <trkpt lat="46.41083" lon="-1.50612">
        <ele>17.4</ele>
        <time>2020-06-03T09:03:18Z</time>
      </trkpt>
      <trkpt lat="46.41084" lon="-1.50618">
        <ele>17.4</ele>
        <time>2020-06-03T09:03:19Z</time>
      </trkpt>
      <trkpt lat="46.41084" lon="-1.50625">
        <ele>17.5</ele>
        <time>2020-06-03T09:03:20Z</time>
      </trkpt>
      <trkpt lat="46.41084" lon="-1.50632">
        <ele>17.5</ele>
        <time>2020-06-03T09:03:21Z</time>
      </trkpt>
      <trkpt lat="46.41084" lon="-1.50639">
        <ele>17.6</ele>
        <time>2020-06-03T09:03:22Z</time>
      </trkpt>
      <trkpt lat="46.41084" lon="-1.50645">
        <ele>17.7</ele>
        <time>2020-06-03T09:03:23Z</time>
      </trkpt>
      <trkpt lat="46.41085" lon="-1.50651">
        <ele>17.8</ele>
        <time>2020-06-03T09:03:24Z</time>
      </trkpt>
      <trkpt lat="46.41085" lon="-1.50658">
        <ele>17.9</ele>
        <time>2020-06-03T09:03:25Z</time>
      </trkpt>
      <trkpt lat="46.41087" lon="-1.50664">
        <ele>18</ele>
        <time>2020-06-03T09:03:26Z</time>
      </trkpt>
      <trkpt lat="46.41089" lon="-1.50672">
        <ele>18.1</ele>
        <time>2020-06-03T09:03:27Z</time>
      </trkpt>
      <trkpt lat="46.4109" lon="-1.50679">
        <ele>18.2</ele>
        <time>2020-06-03T09:03:28Z</time>
      </trkpt>
      <trkpt lat="46.4109" lon="-1.50685">
        <ele>18.4</ele>
        <time>2020-06-03T09:03:29Z</time>
      </trkpt>
      <trkpt lat="46.41091" lon="-1.50692">
        <ele>18.5</ele>
        <time>2020-06-03T09:03:30Z</time>
      </trkpt>
      <trkpt lat="46.41092" lon="-1.50699">
        <ele>18.7</ele>
        <time>2020-06-03T09:03:31Z</time>
      </trkpt>
      <trkpt lat="46.41092" lon="-1.50706">
        <ele>18.8</ele>
        <time>2020-06-03T09:03:32Z</time>
      </trkpt>
      <trkpt lat="46.41093" lon="-1.50712">
        <ele>19</ele>
        <time>2020-06-03T09:03:33Z</time>
      </trkpt>
      <trkpt lat="46.41093" lon="-1.50717">
        <ele>19.1</ele>
        <time>2020-06-03T09:03:34Z</time>
      </trkpt>
      <trkpt lat="46.41092" lon="-1.50722">
        <ele>19.2</ele>
        <time>2020-06-03T09:03:35Z</time>
      </trkpt>
      <trkpt lat="46.41093" lon="-1.50728">
        <ele>19.3</ele>
        <time>2020-06-03T09:03:36Z</time>
      </trkpt>
      <trkpt lat="46.41093" lon="-1.50733">
        <ele>19.4</ele>
        <time>2020-06-03T09:03:37Z</time>
      </trkpt>
      <trkpt lat="46.41094" lon="-1.50738">
        <ele>19.5</ele>
        <time>2020-06-03T09:03:38Z</time>
      </trkpt>
      <trkpt lat="46.41095" lon="-1.50744">
        <ele>19.6</ele>
        <time>2020-06-03T09:03:39Z</time>
      </trkpt>
      <trkpt lat="46.41095" lon="-1.50748">
        <ele>19.7</ele>
        <time>2020-06-03T09:03:40Z</time>
      </trkpt>
      <trkpt lat="46.41096" lon="-1.50752">
        <ele>19.8</ele>
        <time>2020-06-03T09:03:41Z</time>
      </trkpt>
      <trkpt lat="46.41097" lon="-1.50758">
        <ele>19.8</ele>
        <time>2020-06-03T09:03:42Z</time>
      </trkpt>
      <trkpt lat="46.41098" lon="-1.50763">
        <ele>19.9</ele>
        <time>2020-06-03T09:03:43Z</time>
      </trkpt>
      <trkpt lat="46.41098" lon="-1.50769">
        <ele>19.9</ele>
        <time>2020-06-03T09:03:44Z</time>
      </trkpt>
      <trkpt lat="46.41099" lon="-1.50775">
        <ele>19.9</ele>
        <time>2020-06-03T09:03:45Z</time>
      </trkpt>
      <trkpt lat="46.41101" lon="-1.50782">
        <ele>19.9</ele>
        <time>2020-06-03T09:03:46Z</time>
      </trkpt>
      <trkpt lat="46.41103" lon="-1.5079">
        <ele>19.8</ele>
        <time>2020-06-03T09:03:47Z</time>
      </trkpt>
      <trkpt lat="46.41105" lon="-1.50799">
        <ele>19.6</ele>
        <time>2020-06-03T09:03:48Z</time>
      </trkpt>
      <trkpt lat="46.41107" lon="-1.50808">
        <ele>19.5</ele>
        <time>2020-06-03T09:03:49Z</time>
      </trkpt>
      <trkpt lat="46.41109" lon="-1.50817">
        <ele>19.3</ele>
        <time>2020-06-03T09:03:50Z</time>
      </trkpt>
      <trkpt lat="46.41111" lon="-1.50826">
        <ele>19.2</ele>
        <time>2020-06-03T09:03:51Z</time>
      </trkpt>
      <trkpt lat="46.41113" lon="-1.50835">
        <ele>19.1</ele>
        <time>2020-06-03T09:03:52Z</time>
      </trkpt>
      <trkpt lat="46.41114" lon="-1.50845">
        <ele>19</ele>
        <time>2020-06-03T09:03:53Z</time>
      </trkpt>
      <trkpt lat="46.41116" lon="-1.50855">
        <ele>19</ele>
        <time>2020-06-03T09:03:54Z</time>
      </trkpt>
      <trkpt lat="46.41117" lon="-1.50863">
        <ele>19</ele>
        <time>2020-06-03T09:03:55Z</time>
      </trkpt>
      <trkpt lat="46.41117" lon="-1.50871">
        <ele>19</ele>
        <time>2020-06-03T09:03:56Z</time>
      </trkpt>
      <trkpt lat="46.41117" lon="-1.50879">
        <ele>19</ele>
        <time>2020-06-03T09:03:57Z</time>
      </trkpt>
      <trkpt lat="46.41115" lon="-1.50886">
        <ele>19</ele>
        <time>2020-06-03T09:03:58Z</time>
      </trkpt>
      <trkpt lat="46.41114" lon="-1.50894">
        <ele>19</ele>
        <time>2020-06-03T09:03:59Z</time>
      </trkpt>
      <trkpt lat="46.41113" lon="-1.50901">
        <ele>19.1</ele>
        <time>2020-06-03T09:04:00Z</time>
      </trkpt>
      <trkpt lat="46.41112" lon="-1.50907">
        <ele>19.1</ele>
        <time>2020-06-03T09:04:01Z</time>
      </trkpt>
      <trkpt lat="46.4111" lon="-1.50911">
        <ele>19.2</ele>
        <time>2020-06-03T09:04:02Z</time>
      </trkpt>
      <trkpt lat="46.41108" lon="-1.50916">
        <ele>19.3</ele>
        <time>2020-06-03T09:04:03Z</time>
      </trkpt>
      <trkpt lat="46.41105" lon="-1.5092">
        <ele>19.4</ele>
        <time>2020-06-03T09:04:04Z</time>
      </trkpt>
      <trkpt lat="46.41102" lon="-1.50925">
        <ele>19.5</ele>
        <time>2020-06-03T09:04:05Z</time>
      </trkpt>
      <trkpt lat="46.411" lon="-1.50929">
        <ele>19.5</ele>
        <time>2020-06-03T09:04:06Z</time>
      </trkpt>
      <trkpt lat="46.41098" lon="-1.50933">
        <ele>19.6</ele>
        <time>2020-06-03T09:04:07Z</time>
      </trkpt>
      <trkpt lat="46.41098" lon="-1.50937">
        <ele>19.8</ele>
        <time>2020-06-03T09:04:08Z</time>
      </trkpt>
      <trkpt lat="46.41098" lon="-1.50942">
        <ele>19.9</ele>
        <time>2020-06-03T09:04:09Z</time>
      </trkpt>
      <trkpt lat="46.41096" lon="-1.50948">
        <ele>20</ele>
        <time>2020-06-03T09:04:10Z</time>
      </trkpt>
      <trkpt lat="46.41095" lon="-1.50953">
        <ele>20</ele>
        <time>2020-06-03T09:04:11Z</time>
      </trkpt>
      <trkpt lat="46.41095" lon="-1.50958">
        <ele>20.1</ele>
        <time>2020-06-03T09:04:12Z</time>
      </trkpt>
      <trkpt lat="46.41094" lon="-1.50962">
        <ele>20.2</ele>
        <time>2020-06-03T09:04:13Z</time>
      </trkpt>
      <trkpt lat="46.41094" lon="-1.50966">
        <ele>20.3</ele>
        <time>2020-06-03T09:04:14Z</time>
      </trkpt>
      <trkpt lat="46.41093" lon="-1.5097">
        <ele>20.4</ele>
        <time>2020-06-03T09:04:15Z</time>
      </trkpt>
      <trkpt lat="46.41092" lon="-1.50975">
        <ele>20.5</ele>
        <time>2020-06-03T09:04:16Z</time>
      </trkpt>
      <trkpt lat="46.4109" lon="-1.50979">
        <ele>20.6</ele>
        <time>2020-06-03T09:04:17Z</time>
      </trkpt>
      <trkpt lat="46.41089" lon="-1.50985">
        <ele>20.7</ele>
        <time>2020-06-03T09:04:18Z</time>
      </trkpt>
      <trkpt lat="46.41089" lon="-1.50991">
        <ele>20.8</ele>
        <time>2020-06-03T09:04:19Z</time>
      </trkpt>
      <trkpt lat="46.41089" lon="-1.50997">
        <ele>21</ele>
        <time>2020-06-03T09:04:20Z</time>
      </trkpt>
      <trkpt lat="46.41089" lon="-1.51002">
        <ele>21.1</ele>
        <time>2020-06-03T09:04:21Z</time>
      </trkpt>
      <trkpt lat="46.41088" lon="-1.51007">
        <ele>21.2</ele>
        <time>2020-06-03T09:04:22Z</time>
      </trkpt>
      <trkpt lat="46.41089" lon="-1.51011">
        <ele>21.3</ele>
        <time>2020-06-03T09:04:23Z</time>
      </trkpt>
      <trkpt lat="46.41089" lon="-1.51015">
        <ele>21.4</ele>
        <time>2020-06-03T09:04:24Z</time>
      </trkpt>
      <trkpt lat="46.4109" lon="-1.51022">
        <ele>21.6</ele>
        <time>2020-06-03T09:04:25Z</time>
      </trkpt>
      <trkpt lat="46.4109" lon="-1.51024">
        <ele>21.6</ele>
        <time>2020-06-03T09:04:26Z</time>
      </trkpt>
      <trkpt lat="46.41091" lon="-1.51029">
        <ele>21.7</ele>
        <time>2020-06-03T09:04:27Z</time>
      </trkpt>
      <trkpt lat="46.41093" lon="-1.51032">
        <ele>21.8</ele>
        <time>2020-06-03T09:04:28Z</time>
      </trkpt>
      <trkpt lat="46.41094" lon="-1.51036">
        <ele>21.8</ele>
        <time>2020-06-03T09:04:29Z</time>
      </trkpt>
      <trkpt lat="46.41096" lon="-1.51039">
        <ele>21.9</ele>
        <time>2020-06-03T09:04:30Z</time>
      </trkpt>
      <trkpt lat="46.41098" lon="-1.51042">
        <ele>21.9</ele>
        <time>2020-06-03T09:04:31Z</time>
      </trkpt>
      <trkpt lat="46.41099" lon="-1.51043">
        <ele>21.9</ele>
        <time>2020-06-03T09:04:32Z</time>
      </trkpt>
      <trkpt lat="46.411" lon="-1.51044">
        <ele>21.9</ele>
        <time>2020-06-03T09:04:33Z</time>
      </trkpt>
      <trkpt lat="46.41101" lon="-1.51043">
        <ele>21.9</ele>
        <time>2020-06-03T09:04:34Z</time>
      </trkpt>
      <trkpt lat="46.41102" lon="-1.51043">
        <ele>21.9</ele>
        <time>2020-06-03T09:04:35Z</time>
      </trkpt>
      <trkpt lat="46.41104" lon="-1.51044">
        <ele>22</ele>
        <time>2020-06-03T09:04:36Z</time>
      </trkpt>
      <trkpt lat="46.41107" lon="-1.51045">
        <ele>22</ele>
        <time>2020-06-03T09:04:37Z</time>
      </trkpt>
      <trkpt lat="46.41108" lon="-1.51045">
        <ele>22</ele>
        <time>2020-06-03T09:04:38Z</time>
      </trkpt>
      <trkpt lat="46.41111" lon="-1.51047">
        <ele>22</ele>
        <time>2020-06-03T09:04:39Z</time>
      </trkpt>
      <trkpt lat="46.41115" lon="-1.51051">
        <ele>22</ele>
        <time>2020-06-03T09:04:40Z</time>
      </trkpt>
      <trkpt lat="46.41118" lon="-1.51056">
        <ele>22</ele>
        <time>2020-06-03T09:04:41Z</time>
      </trkpt>
      <trkpt lat="46.41122" lon="-1.51062">
        <ele>22</ele>
        <time>2020-06-03T09:04:42Z</time>
      </trkpt>
      <trkpt lat="46.41127" lon="-1.51068">
        <ele>22</ele>
        <time>2020-06-03T09:04:43Z</time>
      </trkpt>
      <trkpt lat="46.4113" lon="-1.51073">
        <ele>22.1</ele>
        <time>2020-06-03T09:04:44Z</time>
      </trkpt>
      <trkpt lat="46.41133" lon="-1.51079">
        <ele>22.1</ele>
        <time>2020-06-03T09:04:45Z</time>
      </trkpt>
      <trkpt lat="46.41136" lon="-1.51085">
        <ele>22.2</ele>
        <time>2020-06-03T09:04:46Z</time>
      </trkpt>
      <trkpt lat="46.41138" lon="-1.51092">
        <ele>22.2</ele>
        <time>2020-06-03T09:04:47Z</time>
      </trkpt>
      <trkpt lat="46.4114" lon="-1.51098">
        <ele>22.3</ele>
        <time>2020-06-03T09:04:48Z</time>
      </trkpt>
      <trkpt lat="46.41141" lon="-1.51105">
        <ele>22.3</ele>
        <time>2020-06-03T09:04:49Z</time>
      </trkpt>
      <trkpt lat="46.41144" lon="-1.51113">
        <ele>22.4</ele>
        <time>2020-06-03T09:04:50Z</time>
      </trkpt>
      <trkpt lat="46.41146" lon="-1.51121">
        <ele>22.4</ele>
        <time>2020-06-03T09:04:51Z</time>
      </trkpt>
      <trkpt lat="46.41149" lon="-1.51128">
        <ele>22.5</ele>
        <time>2020-06-03T09:04:52Z</time>
      </trkpt>
      <trkpt lat="46.41151" lon="-1.51134">
        <ele>22.5</ele>
        <time>2020-06-03T09:04:53Z</time>
      </trkpt>
      <trkpt lat="46.41153" lon="-1.51141">
        <ele>22.6</ele>
        <time>2020-06-03T09:04:54Z</time>
      </trkpt>
      <trkpt lat="46.41156" lon="-1.51148">
        <ele>22.7</ele>
        <time>2020-06-03T09:04:55Z</time>
      </trkpt>
      <trkpt lat="46.41158" lon="-1.51155">
        <ele>22.8</ele>
        <time>2020-06-03T09:04:56Z</time>
      </trkpt>
      <trkpt lat="46.41161" lon="-1.51162">
        <ele>22.9</ele>
        <time>2020-06-03T09:04:57Z</time>
      </trkpt>
      <trkpt lat="46.41163" lon="-1.51169">
        <ele>22.9</ele>
        <time>2020-06-03T09:04:58Z</time>
      </trkpt>
      <trkpt lat="46.41164" lon="-1.51175">
        <ele>23</ele>
        <time>2020-06-03T09:04:59Z</time>
      </trkpt>
      <trkpt lat="46.41166" lon="-1.5118">
        <ele>23.1</ele>
        <time>2020-06-03T09:05:00Z</time>
      </trkpt>
      <trkpt lat="46.41167" lon="-1.51186">
        <ele>23.2</ele>
        <time>2020-06-03T09:05:01Z</time>
      </trkpt>
      <trkpt lat="46.41169" lon="-1.51191">
        <ele>23.2</ele>
        <time>2020-06-03T09:05:02Z</time>
      </trkpt>
      <trkpt lat="46.41171" lon="-1.51196">
        <ele>23.3</ele>
        <time>2020-06-03T09:05:03Z</time>
      </trkpt>
      <trkpt lat="46.41173" lon="-1.51202">
        <ele>23.4</ele>
        <time>2020-06-03T09:05:04Z</time>
      </trkpt>
      <trkpt lat="46.41174" lon="-1.51208">
        <ele>23.4</ele>
        <time>2020-06-03T09:05:05Z</time>
      </trkpt>
      <trkpt lat="46.41176" lon="-1.51214">
        <ele>23.5</ele>
        <time>2020-06-03T09:05:06Z</time>
      </trkpt>
      <trkpt lat="46.41178" lon="-1.51219">
        <ele>23.5</ele>
        <time>2020-06-03T09:05:07Z</time>
      </trkpt>
      <trkpt lat="46.41181" lon="-1.51224">
        <ele>23.5</ele>
        <time>2020-06-03T09:05:08Z</time>
      </trkpt>
      <trkpt lat="46.41183" lon="-1.51228">
        <ele>23.5</ele>
        <time>2020-06-03T09:05:09Z</time>
      </trkpt>
      <trkpt lat="46.41185" lon="-1.51233">
        <ele>23.5</ele>
        <time>2020-06-03T09:05:10Z</time>
      </trkpt>
      <trkpt lat="46.41188" lon="-1.51238">
        <ele>23.4</ele>
        <time>2020-06-03T09:05:11Z</time>
      </trkpt>
      <trkpt lat="46.41191" lon="-1.51242">
        <ele>23.3</ele>
        <time>2020-06-03T09:05:12Z</time>
      </trkpt>
      <trkpt lat="46.41194" lon="-1.51247">
        <ele>23.2</ele>
        <time>2020-06-03T09:05:13Z</time>
      </trkpt>
      <trkpt lat="46.41197" lon="-1.51252">
        <ele>23.1</ele>
        <time>2020-06-03T09:05:14Z</time>
      </trkpt>
      <trkpt lat="46.41201" lon="-1.51257">
        <ele>23</ele>
        <time>2020-06-03T09:05:15Z</time>
      </trkpt>
      <trkpt lat="46.41204" lon="-1.51263">
        <ele>22.8</ele>
        <time>2020-06-03T09:05:16Z</time>
      </trkpt>
      <trkpt lat="46.41207" lon="-1.51268">
        <ele>22.7</ele>
        <time>2020-06-03T09:05:17Z</time>
      </trkpt>
      <trkpt lat="46.4121" lon="-1.51274">
        <ele>22.5</ele>
        <time>2020-06-03T09:05:18Z</time>
      </trkpt>
      <trkpt lat="46.41214" lon="-1.51279">
        <ele>22.2</ele>
        <time>2020-06-03T09:05:19Z</time>
      </trkpt>
      <trkpt lat="46.41218" lon="-1.51285">
        <ele>21.9</ele>
        <time>2020-06-03T09:05:20Z</time>
      </trkpt>
      <trkpt lat="46.41223" lon="-1.51291">
        <ele>21.5</ele>
        <time>2020-06-03T09:05:21Z</time>
      </trkpt>
      <trkpt lat="46.41227" lon="-1.51297">
        <ele>21.1</ele>
        <time>2020-06-03T09:05:22Z</time>
      </trkpt>
      <trkpt lat="46.4123" lon="-1.51303">
        <ele>20.8</ele>
        <time>2020-06-03T09:05:23Z</time>
      </trkpt>
      <trkpt lat="46.41234" lon="-1.5131">
        <ele>20.4</ele>
        <time>2020-06-03T09:05:24Z</time>
      </trkpt>
      <trkpt lat="46.41239" lon="-1.51319">
        <ele>20</ele>
        <time>2020-06-03T09:05:25Z</time>
      </trkpt>
      <trkpt lat="46.41244" lon="-1.51326">
        <ele>19.6</ele>
        <time>2020-06-03T09:05:26Z</time>
      </trkpt>
      <trkpt lat="46.41248" lon="-1.51332">
        <ele>19.4</ele>
        <time>2020-06-03T09:05:27Z</time>
      </trkpt>
      <trkpt lat="46.41251" lon="-1.5134">
        <ele>19.1</ele>
        <time>2020-06-03T09:05:28Z</time>
      </trkpt>
      <trkpt lat="46.41254" lon="-1.51346">
        <ele>18.9</ele>
        <time>2020-06-03T09:05:29Z</time>
      </trkpt>
      <trkpt lat="46.41258" lon="-1.51353">
        <ele>18.7</ele>
        <time>2020-06-03T09:05:30Z</time>
      </trkpt>
      <trkpt lat="46.4126" lon="-1.51359">
        <ele>18.6</ele>
        <time>2020-06-03T09:05:31Z</time>
      </trkpt>
      <trkpt lat="46.41263" lon="-1.51365">
        <ele>18.4</ele>
        <time>2020-06-03T09:05:32Z</time>
      </trkpt>
      <trkpt lat="46.41265" lon="-1.5137">
        <ele>18.3</ele>
        <time>2020-06-03T09:05:33Z</time>
      </trkpt>
      <trkpt lat="46.41268" lon="-1.51373">
        <ele>18.2</ele>
        <time>2020-06-03T09:05:34Z</time>
      </trkpt>
      <trkpt lat="46.4127" lon="-1.51375">
        <ele>18.1</ele>
        <time>2020-06-03T09:05:35Z</time>
      </trkpt>
      <trkpt lat="46.41273" lon="-1.51377">
        <ele>18</ele>
        <time>2020-06-03T09:05:36Z</time>
      </trkpt>
      <trkpt lat="46.41277" lon="-1.51378">
        <ele>17.8</ele>
        <time>2020-06-03T09:05:37Z</time>
      </trkpt>
      <trkpt lat="46.41281" lon="-1.51379">
        <ele>17.7</ele>
        <time>2020-06-03T09:05:38Z</time>
      </trkpt>
      <trkpt lat="46.41284" lon="-1.51381">
        <ele>17.6</ele>
        <time>2020-06-03T09:05:39Z</time>
      </trkpt>
      <trkpt lat="46.41287" lon="-1.51383">
        <ele>17.4</ele>
        <time>2020-06-03T09:05:40Z</time>
      </trkpt>
      <trkpt lat="46.41291" lon="-1.51386">
        <ele>17.3</ele>
        <time>2020-06-03T09:05:41Z</time>
      </trkpt>
      <trkpt lat="46.41294" lon="-1.5139">
        <ele>17.2</ele>
        <time>2020-06-03T09:05:42Z</time>
      </trkpt>
      <trkpt lat="46.41295" lon="-1.51394">
        <ele>16.9</ele>
        <time>2020-06-03T09:05:43Z</time>
      </trkpt>
      <trkpt lat="46.41297" lon="-1.51397">
        <ele>16.9</ele>
        <time>2020-06-03T09:05:44Z</time>
      </trkpt>
      <trkpt lat="46.41298" lon="-1.51401">
        <ele>16.9</ele>
        <time>2020-06-03T09:05:45Z</time>
      </trkpt>
      <trkpt lat="46.41298" lon="-1.51407">
        <ele>16.9</ele>
        <time>2020-06-03T09:05:46Z</time>
      </trkpt>
      <trkpt lat="46.41299" lon="-1.51409">
        <ele>16.9</ele>
        <time>2020-06-03T09:05:47Z</time>
      </trkpt>
      <trkpt lat="46.41298" lon="-1.51413">
        <ele>16.9</ele>
        <time>2020-06-03T09:05:48Z</time>
      </trkpt>
      <trkpt lat="46.41298" lon="-1.51415">
        <ele>16.9</ele>
        <time>2020-06-03T09:05:49Z</time>
      </trkpt>
      <trkpt lat="46.41299" lon="-1.51419">
        <ele>16.9</ele>
        <time>2020-06-03T09:05:50Z</time>
      </trkpt>
      <trkpt lat="46.41299" lon="-1.51421">
        <ele>16.8</ele>
        <time>2020-06-03T09:05:51Z</time>
      </trkpt>
      <trkpt lat="46.41299" lon="-1.51425">
        <ele>16.8</ele>
        <time>2020-06-03T09:05:52Z</time>
      </trkpt>
      <trkpt lat="46.41299" lon="-1.5143">
        <ele>16.8</ele>
        <time>2020-06-03T09:05:53Z</time>
      </trkpt>
      <trkpt lat="46.413" lon="-1.51435">
        <ele>16.8</ele>
        <time>2020-06-03T09:05:54Z</time>
      </trkpt>
      <trkpt lat="46.41301" lon="-1.51441">
        <ele>16.8</ele>
        <time>2020-06-03T09:05:55Z</time>
      </trkpt>
      <trkpt lat="46.41302" lon="-1.51448">
        <ele>16.8</ele>
        <time>2020-06-03T09:05:56Z</time>
      </trkpt>
      <trkpt lat="46.41303" lon="-1.51455">
        <ele>16.8</ele>
        <time>2020-06-03T09:05:57Z</time>
      </trkpt>
      <trkpt lat="46.41304" lon="-1.51462">
        <ele>16.7</ele>
        <time>2020-06-03T09:05:58Z</time>
      </trkpt>
      <trkpt lat="46.41305" lon="-1.51469">
        <ele>16.7</ele>
        <time>2020-06-03T09:05:59Z</time>
      </trkpt>
      <trkpt lat="46.41305" lon="-1.51475">
        <ele>16.6</ele>
        <time>2020-06-03T09:06:00Z</time>
      </trkpt>
      <trkpt lat="46.41307" lon="-1.5148">
        <ele>16.6</ele>
        <time>2020-06-03T09:06:01Z</time>
      </trkpt>
      <trkpt lat="46.41307" lon="-1.51485">
        <ele>16.5</ele>
        <time>2020-06-03T09:06:02Z</time>
      </trkpt>
      <trkpt lat="46.41308" lon="-1.51489">
        <ele>16.5</ele>
        <time>2020-06-03T09:06:03Z</time>
      </trkpt>
      <trkpt lat="46.41309" lon="-1.5149">
        <ele>16.5</ele>
        <time>2020-06-03T09:06:04Z</time>
      </trkpt>
      <trkpt lat="46.4131" lon="-1.51492">
        <ele>16.5</ele>
        <time>2020-06-03T09:06:05Z</time>
      </trkpt>
      <trkpt lat="46.41311" lon="-1.51493">
        <ele>16.4</ele>
        <time>2020-06-03T09:06:06Z</time>
      </trkpt>
      <trkpt lat="46.41315" lon="-1.51497">
        <ele>16.4</ele>
        <time>2020-06-03T09:06:07Z</time>
      </trkpt>
      <trkpt lat="46.41317" lon="-1.51499">
        <ele>16.3</ele>
        <time>2020-06-03T09:06:08Z</time>
      </trkpt>
      <trkpt lat="46.4132" lon="-1.51503">
        <ele>16.3</ele>
        <time>2020-06-03T09:06:09Z</time>
      </trkpt>
      <trkpt lat="46.41322" lon="-1.51507">
        <ele>16.2</ele>
        <time>2020-06-03T09:06:10Z</time>
      </trkpt>
      <trkpt lat="46.41324" lon="-1.51512">
        <ele>16.2</ele>
        <time>2020-06-03T09:06:11Z</time>
      </trkpt>
      <trkpt lat="46.41326" lon="-1.51517">
        <ele>16.2</ele>
        <time>2020-06-03T09:06:12Z</time>
      </trkpt>
      <trkpt lat="46.41328" lon="-1.51522">
        <ele>16.2</ele>
        <time>2020-06-03T09:06:13Z</time>
      </trkpt>
      <trkpt lat="46.4133" lon="-1.51527">
        <ele>16.1</ele>
        <time>2020-06-03T09:06:14Z</time>
      </trkpt>
      <trkpt lat="46.41332" lon="-1.51534">
        <ele>16</ele>
        <time>2020-06-03T09:06:15Z</time>
      </trkpt>
      <trkpt lat="46.41334" lon="-1.5154">
        <ele>16</ele>
        <time>2020-06-03T09:06:16Z</time>
      </trkpt>
      <trkpt lat="46.41336" lon="-1.51546">
        <ele>16</ele>
        <time>2020-06-03T09:06:17Z</time>
      </trkpt>
      <trkpt lat="46.41337" lon="-1.51552">
        <ele>16</ele>
        <time>2020-06-03T09:06:18Z</time>
      </trkpt>
      <trkpt lat="46.41338" lon="-1.51558">
        <ele>16</ele>
        <time>2020-06-03T09:06:19Z</time>
      </trkpt>
      <trkpt lat="46.41339" lon="-1.51564">
        <ele>16</ele>
        <time>2020-06-03T09:06:20Z</time>
      </trkpt>
      <trkpt lat="46.41341" lon="-1.51571">
        <ele>16</ele>
        <time>2020-06-03T09:06:21Z</time>
      </trkpt>
      <trkpt lat="46.41343" lon="-1.51578">
        <ele>16</ele>
        <time>2020-06-03T09:06:22Z</time>
      </trkpt>
      <trkpt lat="46.41344" lon="-1.51585">
        <ele>16</ele>
        <time>2020-06-03T09:06:23Z</time>
      </trkpt>
      <trkpt lat="46.41345" lon="-1.51592">
        <ele>16</ele>
        <time>2020-06-03T09:06:24Z</time>
      </trkpt>
      <trkpt lat="46.41346" lon="-1.51598">
        <ele>15.9</ele>
        <time>2020-06-03T09:06:25Z</time>
      </trkpt>
      <trkpt lat="46.41347" lon="-1.51606">
        <ele>15.9</ele>
        <time>2020-06-03T09:06:26Z</time>
      </trkpt>
      <trkpt lat="46.41348" lon="-1.51613">
        <ele>15.9</ele>
        <time>2020-06-03T09:06:27Z</time>
      </trkpt>
      <trkpt lat="46.41349" lon="-1.51619">
        <ele>15.9</ele>
        <time>2020-06-03T09:06:28Z</time>
      </trkpt>
      <trkpt lat="46.41351" lon="-1.51626">
        <ele>15.9</ele>
        <time>2020-06-03T09:06:29Z</time>
      </trkpt>
      <trkpt lat="46.41352" lon="-1.51634">
        <ele>15.9</ele>
        <time>2020-06-03T09:06:30Z</time>
      </trkpt>
      <trkpt lat="46.41353" lon="-1.51641">
        <ele>15.9</ele>
        <time>2020-06-03T09:06:31Z</time>
      </trkpt>
      <trkpt lat="46.41353" lon="-1.51649">
        <ele>15.9</ele>
        <time>2020-06-03T09:06:32Z</time>
      </trkpt>
      <trkpt lat="46.41354" lon="-1.51656">
        <ele>15.9</ele>
        <time>2020-06-03T09:06:33Z</time>
      </trkpt>
      <trkpt lat="46.41356" lon="-1.51663">
        <ele>15.9</ele>
        <time>2020-06-03T09:06:34Z</time>
      </trkpt>
      <trkpt lat="46.41357" lon="-1.51669">
        <ele>15.9</ele>
        <time>2020-06-03T09:06:35Z</time>
      </trkpt>
      <trkpt lat="46.41358" lon="-1.51676">
        <ele>15.9</ele>
        <time>2020-06-03T09:06:36Z</time>
      </trkpt>
      <trkpt lat="46.4136" lon="-1.51683">
        <ele>15.9</ele>
        <time>2020-06-03T09:06:37Z</time>
      </trkpt>
      <trkpt lat="46.41361" lon="-1.5169">
        <ele>15.9</ele>
        <time>2020-06-03T09:06:38Z</time>
      </trkpt>
      <trkpt lat="46.41363" lon="-1.51698">
        <ele>15.9</ele>
        <time>2020-06-03T09:06:39Z</time>
      </trkpt>
      <trkpt lat="46.41365" lon="-1.51705">
        <ele>15.9</ele>
        <time>2020-06-03T09:06:40Z</time>
      </trkpt>
      <trkpt lat="46.41366" lon="-1.51712">
        <ele>16</ele>
        <time>2020-06-03T09:06:41Z</time>
      </trkpt>
      <trkpt lat="46.41367" lon="-1.51719">
        <ele>16</ele>
        <time>2020-06-03T09:06:42Z</time>
      </trkpt>
      <trkpt lat="46.41368" lon="-1.51725">
        <ele>15.9</ele>
        <time>2020-06-03T09:06:43Z</time>
      </trkpt>
      <trkpt lat="46.41369" lon="-1.5173">
        <ele>15.9</ele>
        <time>2020-06-03T09:06:44Z</time>
      </trkpt>
      <trkpt lat="46.4137" lon="-1.51735">
        <ele>15.9</ele>
        <time>2020-06-03T09:06:45Z</time>
      </trkpt>
      <trkpt lat="46.41371" lon="-1.51741">
        <ele>15.9</ele>
        <time>2020-06-03T09:06:46Z</time>
      </trkpt>
      <trkpt lat="46.41372" lon="-1.51747">
        <ele>15.8</ele>
        <time>2020-06-03T09:06:47Z</time>
      </trkpt>
      <trkpt lat="46.41372" lon="-1.51754">
        <ele>15.8</ele>
        <time>2020-06-03T09:06:48Z</time>
      </trkpt>
      <trkpt lat="46.41373" lon="-1.51761">
        <ele>15.7</ele>
        <time>2020-06-03T09:06:49Z</time>
      </trkpt>
      <trkpt lat="46.41374" lon="-1.51767">
        <ele>15.6</ele>
        <time>2020-06-03T09:06:50Z</time>
      </trkpt>
      <trkpt lat="46.41375" lon="-1.51774">
        <ele>15.6</ele>
        <time>2020-06-03T09:06:51Z</time>
      </trkpt>
      <trkpt lat="46.41376" lon="-1.51782">
        <ele>15.5</ele>
        <time>2020-06-03T09:06:52Z</time>
      </trkpt>
      <trkpt lat="46.41376" lon="-1.5179">
        <ele>15.5</ele>
        <time>2020-06-03T09:06:53Z</time>
      </trkpt>
      <trkpt lat="46.41376" lon="-1.51799">
        <ele>15.4</ele>
        <time>2020-06-03T09:06:54Z</time>
      </trkpt>
      <trkpt lat="46.41376" lon="-1.51807">
        <ele>15.3</ele>
        <time>2020-06-03T09:06:55Z</time>
      </trkpt>
      <trkpt lat="46.41375" lon="-1.51816">
        <ele>15.3</ele>
        <time>2020-06-03T09:06:56Z</time>
      </trkpt>
      <trkpt lat="46.41375" lon="-1.51824">
        <ele>15.2</ele>
        <time>2020-06-03T09:06:57Z</time>
      </trkpt>
      <trkpt lat="46.41375" lon="-1.51833">
        <ele>15.2</ele>
        <time>2020-06-03T09:06:58Z</time>
      </trkpt>
      <trkpt lat="46.41374" lon="-1.51841">
        <ele>15.2</ele>
        <time>2020-06-03T09:06:59Z</time>
      </trkpt>
      <trkpt lat="46.41373" lon="-1.51849">
        <ele>15.1</ele>
        <time>2020-06-03T09:07:00Z</time>
      </trkpt>
      <trkpt lat="46.41372" lon="-1.51858">
        <ele>15.1</ele>
        <time>2020-06-03T09:07:01Z</time>
      </trkpt>
      <trkpt lat="46.41371" lon="-1.51867">
        <ele>15</ele>
        <time>2020-06-03T09:07:02Z</time>
      </trkpt>
      <trkpt lat="46.4137" lon="-1.51877">
        <ele>14.9</ele>
        <time>2020-06-03T09:07:03Z</time>
      </trkpt>
      <trkpt lat="46.41369" lon="-1.51887">
        <ele>14.8</ele>
        <time>2020-06-03T09:07:04Z</time>
      </trkpt>
      <trkpt lat="46.41368" lon="-1.51896">
        <ele>14.7</ele>
        <time>2020-06-03T09:07:05Z</time>
      </trkpt>
      <trkpt lat="46.41366" lon="-1.51905">
        <ele>14.7</ele>
        <time>2020-06-03T09:07:06Z</time>
      </trkpt>
      <trkpt lat="46.41366" lon="-1.51914">
        <ele>14.6</ele>
        <time>2020-06-03T09:07:07Z</time>
      </trkpt>
      <trkpt lat="46.41366" lon="-1.51923">
        <ele>14.5</ele>
        <time>2020-06-03T09:07:08Z</time>
      </trkpt>
      <trkpt lat="46.41366" lon="-1.51932">
        <ele>14.4</ele>
        <time>2020-06-03T09:07:09Z</time>
      </trkpt>
      <trkpt lat="46.41365" lon="-1.51941">
        <ele>14.4</ele>
        <time>2020-06-03T09:07:10Z</time>
      </trkpt>
      <trkpt lat="46.41364" lon="-1.51951">
        <ele>14.3</ele>
        <time>2020-06-03T09:07:11Z</time>
      </trkpt>
      <trkpt lat="46.41362" lon="-1.51961">
        <ele>14.3</ele>
        <time>2020-06-03T09:07:12Z</time>
      </trkpt>
      <trkpt lat="46.4136" lon="-1.51971">
        <ele>14.3</ele>
        <time>2020-06-03T09:07:13Z</time>
      </trkpt>
      <trkpt lat="46.41358" lon="-1.5198">
        <ele>14.2</ele>
        <time>2020-06-03T09:07:14Z</time>
      </trkpt>
      <trkpt lat="46.41357" lon="-1.51989">
        <ele>14.2</ele>
        <time>2020-06-03T09:07:15Z</time>
      </trkpt>
      <trkpt lat="46.41357" lon="-1.51999">
        <ele>14.2</ele>
        <time>2020-06-03T09:07:16Z</time>
      </trkpt>
      <trkpt lat="46.41357" lon="-1.52005">
        <ele>14.2</ele>
        <time>2020-06-03T09:07:17Z</time>
      </trkpt>
      <trkpt lat="46.41355" lon="-1.52011">
        <ele>14.1</ele>
        <time>2020-06-03T09:07:18Z</time>
      </trkpt>
      <trkpt lat="46.41354" lon="-1.52019">
        <ele>14.1</ele>
        <time>2020-06-03T09:07:19Z</time>
      </trkpt>
      <trkpt lat="46.41353" lon="-1.52026">
        <ele>14</ele>
        <time>2020-06-03T09:07:20Z</time>
      </trkpt>
      <trkpt lat="46.41351" lon="-1.52038">
        <ele>14</ele>
        <time>2020-06-03T09:07:21Z</time>
      </trkpt>
      <trkpt lat="46.4135" lon="-1.52048">
        <ele>14</ele>
        <time>2020-06-03T09:07:22Z</time>
      </trkpt>
      <trkpt lat="46.41349" lon="-1.52056">
        <ele>13.9</ele>
        <time>2020-06-03T09:07:23Z</time>
      </trkpt>
      <trkpt lat="46.41348" lon="-1.52065">
        <ele>13.9</ele>
        <time>2020-06-03T09:07:24Z</time>
      </trkpt>
      <trkpt lat="46.41347" lon="-1.52074">
        <ele>13.8</ele>
        <time>2020-06-03T09:07:25Z</time>
      </trkpt>
      <trkpt lat="46.41345" lon="-1.52083">
        <ele>13.8</ele>
        <time>2020-06-03T09:07:26Z</time>
      </trkpt>
      <trkpt lat="46.41344" lon="-1.52092">
        <ele>13.7</ele>
        <time>2020-06-03T09:07:27Z</time>
      </trkpt>
      <trkpt lat="46.41343" lon="-1.52101">
        <ele>13.7</ele>
        <time>2020-06-03T09:07:28Z</time>
      </trkpt>
      <trkpt lat="46.41342" lon="-1.52111">
        <ele>13.6</ele>
        <time>2020-06-03T09:07:29Z</time>
      </trkpt>
      <trkpt lat="46.41342" lon="-1.5212">
        <ele>13.6</ele>
        <time>2020-06-03T09:07:30Z</time>
      </trkpt>
      <trkpt lat="46.41341" lon="-1.52128">
        <ele>13.5</ele>
        <time>2020-06-03T09:07:31Z</time>
      </trkpt>
      <trkpt lat="46.4134" lon="-1.52136">
        <ele>13.4</ele>
        <time>2020-06-03T09:07:32Z</time>
      </trkpt>
      <trkpt lat="46.41339" lon="-1.52145">
        <ele>13.2</ele>
        <time>2020-06-03T09:07:33Z</time>
      </trkpt>
      <trkpt lat="46.41338" lon="-1.52154">
        <ele>13.1</ele>
        <time>2020-06-03T09:07:34Z</time>
      </trkpt>
      <trkpt lat="46.41337" lon="-1.52164">
        <ele>12.9</ele>
        <time>2020-06-03T09:07:35Z</time>
      </trkpt>
      <trkpt lat="46.41336" lon="-1.52174">
        <ele>12.8</ele>
        <time>2020-06-03T09:07:36Z</time>
      </trkpt>
      <trkpt lat="46.41335" lon="-1.52183">
        <ele>12.7</ele>
        <time>2020-06-03T09:07:37Z</time>
      </trkpt>
      <trkpt lat="46.41334" lon="-1.52193">
        <ele>12.6</ele>
        <time>2020-06-03T09:07:38Z</time>
      </trkpt>
      <trkpt lat="46.41333" lon="-1.52201">
        <ele>12.6</ele>
        <time>2020-06-03T09:07:39Z</time>
      </trkpt>
      <trkpt lat="46.41333" lon="-1.5221">
        <ele>12.5</ele>
        <time>2020-06-03T09:07:40Z</time>
      </trkpt>
      <trkpt lat="46.41332" lon="-1.52218">
        <ele>12.4</ele>
        <time>2020-06-03T09:07:41Z</time>
      </trkpt>
      <trkpt lat="46.41331" lon="-1.52227">
        <ele>12.4</ele>
        <time>2020-06-03T09:07:42Z</time>
      </trkpt>
      <trkpt lat="46.4133" lon="-1.52234">
        <ele>12.3</ele>
        <time>2020-06-03T09:07:43Z</time>
      </trkpt>
      <trkpt lat="46.4133" lon="-1.52243">
        <ele>12.2</ele>
        <time>2020-06-03T09:07:44Z</time>
      </trkpt>
      <trkpt lat="46.4133" lon="-1.52251">
        <ele>12</ele>
        <time>2020-06-03T09:07:45Z</time>
      </trkpt>
      <trkpt lat="46.4133" lon="-1.5226">
        <ele>11.9</ele>
        <time>2020-06-03T09:07:46Z</time>
      </trkpt>
      <trkpt lat="46.41329" lon="-1.52269">
        <ele>11.6</ele>
        <time>2020-06-03T09:07:47Z</time>
      </trkpt>
      <trkpt lat="46.41328" lon="-1.52279">
        <ele>11.4</ele>
        <time>2020-06-03T09:07:48Z</time>
      </trkpt>
      <trkpt lat="46.41327" lon="-1.5229">
        <ele>11.1</ele>
        <time>2020-06-03T09:07:49Z</time>
      </trkpt>
      <trkpt lat="46.41327" lon="-1.52299">
        <ele>10.9</ele>
        <time>2020-06-03T09:07:50Z</time>
      </trkpt>
      <trkpt lat="46.41326" lon="-1.52309">
        <ele>10.7</ele>
        <time>2020-06-03T09:07:51Z</time>
      </trkpt>
      <trkpt lat="46.41325" lon="-1.52318">
        <ele>10.5</ele>
        <time>2020-06-03T09:07:52Z</time>
      </trkpt>
      <trkpt lat="46.41324" lon="-1.52327">
        <ele>10.4</ele>
        <time>2020-06-03T09:07:53Z</time>
      </trkpt>
      <trkpt lat="46.41322" lon="-1.52336">
        <ele>10.3</ele>
        <time>2020-06-03T09:07:54Z</time>
      </trkpt>
      <trkpt lat="46.41321" lon="-1.52346">
        <ele>10.2</ele>
        <time>2020-06-03T09:07:55Z</time>
      </trkpt>
      <trkpt lat="46.41319" lon="-1.52357">
        <ele>10.2</ele>
        <time>2020-06-03T09:07:56Z</time>
      </trkpt>
      <trkpt lat="46.41318" lon="-1.52368">
        <ele>10.2</ele>
        <time>2020-06-03T09:07:57Z</time>
      </trkpt>
      <trkpt lat="46.41317" lon="-1.52378">
        <ele>10.3</ele>
        <time>2020-06-03T09:07:58Z</time>
      </trkpt>
      <trkpt lat="46.41315" lon="-1.52387">
        <ele>10.5</ele>
        <time>2020-06-03T09:07:59Z</time>
      </trkpt>
      <trkpt lat="46.41314" lon="-1.52395">
        <ele>10.6</ele>
        <time>2020-06-03T09:08:00Z</time>
      </trkpt>
      <trkpt lat="46.41313" lon="-1.52403">
        <ele>10.8</ele>
        <time>2020-06-03T09:08:01Z</time>
      </trkpt>
      <trkpt lat="46.41311" lon="-1.5241">
        <ele>10.9</ele>
        <time>2020-06-03T09:08:02Z</time>
      </trkpt>
      <trkpt lat="46.4131" lon="-1.52418">
        <ele>11</ele>
        <time>2020-06-03T09:08:03Z</time>
      </trkpt>
      <trkpt lat="46.41309" lon="-1.52426">
        <ele>11.1</ele>
        <time>2020-06-03T09:08:04Z</time>
      </trkpt>
      <trkpt lat="46.41307" lon="-1.52434">
        <ele>11.2</ele>
        <time>2020-06-03T09:08:05Z</time>
      </trkpt>
      <trkpt lat="46.41306" lon="-1.52442">
        <ele>11.2</ele>
        <time>2020-06-03T09:08:06Z</time>
      </trkpt>
      <trkpt lat="46.41305" lon="-1.52449">
        <ele>11.2</ele>
        <time>2020-06-03T09:08:07Z</time>
      </trkpt>
      <trkpt lat="46.41305" lon="-1.52457">
        <ele>11.3</ele>
        <time>2020-06-03T09:08:08Z</time>
      </trkpt>
      <trkpt lat="46.41304" lon="-1.52464">
        <ele>11.4</ele>
        <time>2020-06-03T09:08:09Z</time>
      </trkpt>
      <trkpt lat="46.41305" lon="-1.52472">
        <ele>11.5</ele>
        <time>2020-06-03T09:08:10Z</time>
      </trkpt>
      <trkpt lat="46.41305" lon="-1.5248">
        <ele>11.6</ele>
        <time>2020-06-03T09:08:11Z</time>
      </trkpt>
      <trkpt lat="46.41306" lon="-1.52489">
        <ele>11.7</ele>
        <time>2020-06-03T09:08:12Z</time>
      </trkpt>
      <trkpt lat="46.41306" lon="-1.52496">
        <ele>11.8</ele>
        <time>2020-06-03T09:08:13Z</time>
      </trkpt>
      <trkpt lat="46.41306" lon="-1.52504">
        <ele>11.9</ele>
        <time>2020-06-03T09:08:14Z</time>
      </trkpt>
      <trkpt lat="46.41306" lon="-1.52512">
        <ele>12</ele>
        <time>2020-06-03T09:08:15Z</time>
      </trkpt>
      <trkpt lat="46.41306" lon="-1.52521">
        <ele>12</ele>
        <time>2020-06-03T09:08:16Z</time>
      </trkpt>
      <trkpt lat="46.41306" lon="-1.52529">
        <ele>12.1</ele>
        <time>2020-06-03T09:08:17Z</time>
      </trkpt>
      <trkpt lat="46.41306" lon="-1.52537">
        <ele>12.1</ele>
        <time>2020-06-03T09:08:18Z</time>
      </trkpt>
      <trkpt lat="46.41306" lon="-1.52545">
        <ele>12.2</ele>
        <time>2020-06-03T09:08:19Z</time>
      </trkpt>
      <trkpt lat="46.41306" lon="-1.52553">
        <ele>12.2</ele>
        <time>2020-06-03T09:08:20Z</time>
      </trkpt>
      <trkpt lat="46.41307" lon="-1.52562">
        <ele>12.2</ele>
        <time>2020-06-03T09:08:21Z</time>
      </trkpt>
      <trkpt lat="46.41307" lon="-1.5257">
        <ele>12.3</ele>
        <time>2020-06-03T09:08:22Z</time>
      </trkpt>
      <trkpt lat="46.41307" lon="-1.52578">
        <ele>12.3</ele>
        <time>2020-06-03T09:08:23Z</time>
      </trkpt>
      <trkpt lat="46.41307" lon="-1.52586">
        <ele>12.3</ele>
        <time>2020-06-03T09:08:24Z</time>
      </trkpt>
      <trkpt lat="46.41306" lon="-1.52596">
        <ele>12.5</ele>
        <time>2020-06-03T09:08:25Z</time>
      </trkpt>
      <trkpt lat="46.41306" lon="-1.52605">
        <ele>12.5</ele>
        <time>2020-06-03T09:08:26Z</time>
      </trkpt>
      <trkpt lat="46.41304" lon="-1.52613">
        <ele>12.6</ele>
        <time>2020-06-03T09:08:27Z</time>
      </trkpt>
      <trkpt lat="46.41302" lon="-1.5262">
        <ele>12.6</ele>
        <time>2020-06-03T09:08:28Z</time>
      </trkpt>
      <trkpt lat="46.41299" lon="-1.52628">
        <ele>12.7</ele>
        <time>2020-06-03T09:08:29Z</time>
      </trkpt>
      <trkpt lat="46.41296" lon="-1.52634">
        <ele>12.7</ele>
        <time>2020-06-03T09:08:30Z</time>
      </trkpt>
      <trkpt lat="46.41293" lon="-1.52642">
        <ele>12.8</ele>
        <time>2020-06-03T09:08:31Z</time>
      </trkpt>
      <trkpt lat="46.4129" lon="-1.5265">
        <ele>12.8</ele>
        <time>2020-06-03T09:08:32Z</time>
      </trkpt>
      <trkpt lat="46.41287" lon="-1.52659">
        <ele>12.8</ele>
        <time>2020-06-03T09:08:33Z</time>
      </trkpt>
      <trkpt lat="46.41284" lon="-1.52669">
        <ele>12.9</ele>
        <time>2020-06-03T09:08:34Z</time>
      </trkpt>
      <trkpt lat="46.41282" lon="-1.52679">
        <ele>12.9</ele>
        <time>2020-06-03T09:08:35Z</time>
      </trkpt>
      <trkpt lat="46.4128" lon="-1.52686">
        <ele>12.9</ele>
        <time>2020-06-03T09:08:36Z</time>
      </trkpt>
      <trkpt lat="46.41277" lon="-1.52692">
        <ele>13</ele>
        <time>2020-06-03T09:08:37Z</time>
      </trkpt>
      <trkpt lat="46.41276" lon="-1.52697">
        <ele>13</ele>
        <time>2020-06-03T09:08:38Z</time>
      </trkpt>
      <trkpt lat="46.41274" lon="-1.52704">
        <ele>13</ele>
        <time>2020-06-03T09:08:39Z</time>
      </trkpt>
      <trkpt lat="46.41271" lon="-1.52711">
        <ele>13</ele>
        <time>2020-06-03T09:08:40Z</time>
      </trkpt>
      <trkpt lat="46.41269" lon="-1.52717">
        <ele>13.1</ele>
        <time>2020-06-03T09:08:41Z</time>
      </trkpt>
      <trkpt lat="46.41267" lon="-1.52724">
        <ele>13.1</ele>
        <time>2020-06-03T09:08:42Z</time>
      </trkpt>
      <trkpt lat="46.41264" lon="-1.52732">
        <ele>13.1</ele>
        <time>2020-06-03T09:08:43Z</time>
      </trkpt>
      <trkpt lat="46.41262" lon="-1.52739">
        <ele>13.1</ele>
        <time>2020-06-03T09:08:44Z</time>
      </trkpt>
      <trkpt lat="46.4126" lon="-1.52747">
        <ele>13.1</ele>
        <time>2020-06-03T09:08:45Z</time>
      </trkpt>
      <trkpt lat="46.41259" lon="-1.52757">
        <ele>13.1</ele>
        <time>2020-06-03T09:08:46Z</time>
      </trkpt>
      <trkpt lat="46.41259" lon="-1.52765">
        <ele>13.1</ele>
        <time>2020-06-03T09:08:47Z</time>
      </trkpt>
      <trkpt lat="46.41259" lon="-1.52771">
        <ele>13.1</ele>
        <time>2020-06-03T09:08:48Z</time>
      </trkpt>
      <trkpt lat="46.41259" lon="-1.52778">
        <ele>13.1</ele>
        <time>2020-06-03T09:08:49Z</time>
      </trkpt>
      <trkpt lat="46.4126" lon="-1.52785">
        <ele>13.1</ele>
        <time>2020-06-03T09:08:50Z</time>
      </trkpt>
      <trkpt lat="46.41259" lon="-1.52793">
        <ele>13.1</ele>
        <time>2020-06-03T09:08:51Z</time>
      </trkpt>
      <trkpt lat="46.41259" lon="-1.52802">
        <ele>13.1</ele>
        <time>2020-06-03T09:08:52Z</time>
      </trkpt>
      <trkpt lat="46.41259" lon="-1.52809">
        <ele>13.1</ele>
        <time>2020-06-03T09:08:53Z</time>
      </trkpt>
      <trkpt lat="46.41258" lon="-1.52816">
        <ele>13</ele>
        <time>2020-06-03T09:08:54Z</time>
      </trkpt>
      <trkpt lat="46.41257" lon="-1.52824">
        <ele>13</ele>
        <time>2020-06-03T09:08:55Z</time>
      </trkpt>
      <trkpt lat="46.41257" lon="-1.52831">
        <ele>13</ele>
        <time>2020-06-03T09:08:56Z</time>
      </trkpt>
      <trkpt lat="46.41257" lon="-1.52839">
        <ele>13</ele>
        <time>2020-06-03T09:08:57Z</time>
      </trkpt>
      <trkpt lat="46.41257" lon="-1.52848">
        <ele>13</ele>
        <time>2020-06-03T09:08:58Z</time>
      </trkpt>
      <trkpt lat="46.41257" lon="-1.52857">
        <ele>13</ele>
        <time>2020-06-03T09:08:59Z</time>
      </trkpt>
      <trkpt lat="46.41257" lon="-1.52866">
        <ele>13</ele>
        <time>2020-06-03T09:09:00Z</time>
      </trkpt>
      <trkpt lat="46.41256" lon="-1.52876">
        <ele>13</ele>
        <time>2020-06-03T09:09:01Z</time>
      </trkpt>
      <trkpt lat="46.41256" lon="-1.52884">
        <ele>13</ele>
        <time>2020-06-03T09:09:02Z</time>
      </trkpt>
      <trkpt lat="46.41255" lon="-1.52893">
        <ele>13</ele>
        <time>2020-06-03T09:09:03Z</time>
      </trkpt>
      <trkpt lat="46.41254" lon="-1.52903">
        <ele>13</ele>
        <time>2020-06-03T09:09:04Z</time>
      </trkpt>
      <trkpt lat="46.41254" lon="-1.52913">
        <ele>13</ele>
        <time>2020-06-03T09:09:05Z</time>
      </trkpt>
      <trkpt lat="46.41253" lon="-1.52921">
        <ele>13</ele>
        <time>2020-06-03T09:09:06Z</time>
      </trkpt>
      <trkpt lat="46.41252" lon="-1.5293">
        <ele>13</ele>
        <time>2020-06-03T09:09:07Z</time>
      </trkpt>
      <trkpt lat="46.41252" lon="-1.52939">
        <ele>13</ele>
        <time>2020-06-03T09:09:08Z</time>
      </trkpt>
      <trkpt lat="46.41252" lon="-1.52948">
        <ele>13</ele>
        <time>2020-06-03T09:09:09Z</time>
      </trkpt>
      <trkpt lat="46.41251" lon="-1.52957">
        <ele>13</ele>
        <time>2020-06-03T09:09:10Z</time>
      </trkpt>
      <trkpt lat="46.41251" lon="-1.52965">
        <ele>13</ele>
        <time>2020-06-03T09:09:11Z</time>
      </trkpt>
      <trkpt lat="46.4125" lon="-1.52974">
        <ele>13</ele>
        <time>2020-06-03T09:09:12Z</time>
      </trkpt>
      <trkpt lat="46.4125" lon="-1.52982">
        <ele>12.9</ele>
        <time>2020-06-03T09:09:13Z</time>
      </trkpt>
      <trkpt lat="46.4125" lon="-1.52991">
        <ele>12.9</ele>
        <time>2020-06-03T09:09:14Z</time>
      </trkpt>
      <trkpt lat="46.41249" lon="-1.52999">
        <ele>12.9</ele>
        <time>2020-06-03T09:09:15Z</time>
      </trkpt>
      <trkpt lat="46.41249" lon="-1.53005">
        <ele>12.9</ele>
        <time>2020-06-03T09:09:16Z</time>
      </trkpt>
      <trkpt lat="46.41249" lon="-1.53013">
        <ele>12.8</ele>
        <time>2020-06-03T09:09:17Z</time>
      </trkpt>
      <trkpt lat="46.4125" lon="-1.53018">
        <ele>12.8</ele>
        <time>2020-06-03T09:09:18Z</time>
      </trkpt>
      <trkpt lat="46.4125" lon="-1.53023">
        <ele>12.8</ele>
        <time>2020-06-03T09:09:19Z</time>
      </trkpt>
      <trkpt lat="46.41251" lon="-1.53028">
        <ele>12.8</ele>
        <time>2020-06-03T09:09:20Z</time>
      </trkpt>
      <trkpt lat="46.41251" lon="-1.5303">
        <ele>12.8</ele>
        <time>2020-06-03T09:09:21Z</time>
      </trkpt>
      <trkpt lat="46.41251" lon="-1.53035">
        <ele>12.8</ele>
        <time>2020-06-03T09:09:22Z</time>
      </trkpt>
      <trkpt lat="46.41251" lon="-1.5304">
        <ele>12.8</ele>
        <time>2020-06-03T09:09:23Z</time>
      </trkpt>
      <trkpt lat="46.41251" lon="-1.53045">
        <ele>12.8</ele>
        <time>2020-06-03T09:09:24Z</time>
      </trkpt>
      <trkpt lat="46.41251" lon="-1.53051">
        <ele>12.8</ele>
        <time>2020-06-03T09:09:25Z</time>
      </trkpt>
      <trkpt lat="46.41251" lon="-1.53058">
        <ele>12.8</ele>
        <time>2020-06-03T09:09:26Z</time>
      </trkpt>
      <trkpt lat="46.41251" lon="-1.53064">
        <ele>12.8</ele>
        <time>2020-06-03T09:09:27Z</time>
      </trkpt>
      <trkpt lat="46.4125" lon="-1.53072">
        <ele>12.8</ele>
        <time>2020-06-03T09:09:28Z</time>
      </trkpt>
      <trkpt lat="46.41249" lon="-1.5308">
        <ele>12.7</ele>
        <time>2020-06-03T09:09:29Z</time>
      </trkpt>
      <trkpt lat="46.41249" lon="-1.53087">
        <ele>12.7</ele>
        <time>2020-06-03T09:09:30Z</time>
      </trkpt>
      <trkpt lat="46.41248" lon="-1.53095">
        <ele>12.6</ele>
        <time>2020-06-03T09:09:31Z</time>
      </trkpt>
      <trkpt lat="46.41247" lon="-1.53103">
        <ele>12.6</ele>
        <time>2020-06-03T09:09:32Z</time>
      </trkpt>
      <trkpt lat="46.41246" lon="-1.5311">
        <ele>12.5</ele>
        <time>2020-06-03T09:09:33Z</time>
      </trkpt>
      <trkpt lat="46.41245" lon="-1.53117">
        <ele>12.4</ele>
        <time>2020-06-03T09:09:34Z</time>
      </trkpt>
      <trkpt lat="46.41245" lon="-1.53124">
        <ele>12.4</ele>
        <time>2020-06-03T09:09:35Z</time>
      </trkpt>
      <trkpt lat="46.41245" lon="-1.53131">
        <ele>12.3</ele>
        <time>2020-06-03T09:09:36Z</time>
      </trkpt>
      <trkpt lat="46.41245" lon="-1.53138">
        <ele>12.2</ele>
        <time>2020-06-03T09:09:37Z</time>
      </trkpt>
      <trkpt lat="46.41245" lon="-1.53145">
        <ele>12.1</ele>
        <time>2020-06-03T09:09:38Z</time>
      </trkpt>
      <trkpt lat="46.41245" lon="-1.53153">
        <ele>12</ele>
        <time>2020-06-03T09:09:39Z</time>
      </trkpt>
      <trkpt lat="46.41246" lon="-1.53161">
        <ele>11.9</ele>
        <time>2020-06-03T09:09:40Z</time>
      </trkpt>
      <trkpt lat="46.41246" lon="-1.53168">
        <ele>11.8</ele>
        <time>2020-06-03T09:09:41Z</time>
      </trkpt>
      <trkpt lat="46.41245" lon="-1.53176">
        <ele>11.6</ele>
        <time>2020-06-03T09:09:42Z</time>
      </trkpt>
      <trkpt lat="46.41245" lon="-1.53183">
        <ele>11.5</ele>
        <time>2020-06-03T09:09:43Z</time>
      </trkpt>
      <trkpt lat="46.41244" lon="-1.53191">
        <ele>11.4</ele>
        <time>2020-06-03T09:09:44Z</time>
      </trkpt>
      <trkpt lat="46.41243" lon="-1.53198">
        <ele>11.3</ele>
        <time>2020-06-03T09:09:45Z</time>
      </trkpt>
      <trkpt lat="46.41242" lon="-1.53205">
        <ele>11.2</ele>
        <time>2020-06-03T09:09:46Z</time>
      </trkpt>
      <trkpt lat="46.41241" lon="-1.53211">
        <ele>11.2</ele>
        <time>2020-06-03T09:09:47Z</time>
      </trkpt>
      <trkpt lat="46.41241" lon="-1.53215">
        <ele>11.2</ele>
        <time>2020-06-03T09:09:48Z</time>
      </trkpt>
      <trkpt lat="46.41241" lon="-1.5322">
        <ele>11.1</ele>
        <time>2020-06-03T09:09:49Z</time>
      </trkpt>
      <trkpt lat="46.41242" lon="-1.53225">
        <ele>11.1</ele>
        <time>2020-06-03T09:09:50Z</time>
      </trkpt>
      <trkpt lat="46.41242" lon="-1.5323">
        <ele>11</ele>
        <time>2020-06-03T09:09:51Z</time>
      </trkpt>
      <trkpt lat="46.41241" lon="-1.53236">
        <ele>11</ele>
        <time>2020-06-03T09:09:52Z</time>
      </trkpt>
      <trkpt lat="46.4124" lon="-1.53237">
        <ele>11</ele>
        <time>2020-06-03T09:09:53Z</time>
      </trkpt>
      <trkpt lat="46.41238" lon="-1.53243">
        <ele>11</ele>
        <time>2020-06-03T09:09:54Z</time>
      </trkpt>
      <trkpt lat="46.41238" lon="-1.53245">
        <ele>10.9</ele>
        <time>2020-06-03T09:09:55Z</time>
      </trkpt>
      <trkpt lat="46.41237" lon="-1.53248">
        <ele>10.9</ele>
        <time>2020-06-03T09:09:56Z</time>
      </trkpt>
      <trkpt lat="46.41235" lon="-1.53254">
        <ele>10.9</ele>
        <time>2020-06-03T09:09:57Z</time>
      </trkpt>
      <trkpt lat="46.41234" lon="-1.53256">
        <ele>10.9</ele>
        <time>2020-06-03T09:09:58Z</time>
      </trkpt>
      <trkpt lat="46.41233" lon="-1.5326">
        <ele>10.8</ele>
        <time>2020-06-03T09:09:59Z</time>
      </trkpt>
      <trkpt lat="46.41231" lon="-1.53264">
        <ele>10.8</ele>
        <time>2020-06-03T09:10:00Z</time>
      </trkpt>
      <trkpt lat="46.4123" lon="-1.53266">
        <ele>10.8</ele>
        <time>2020-06-03T09:10:01Z</time>
      </trkpt>
      <trkpt lat="46.41229" lon="-1.53267">
        <ele>10.8</ele>
        <time>2020-06-03T09:10:02Z</time>
      </trkpt>
      <trkpt lat="46.41228" lon="-1.53267">
        <ele>10.8</ele>
        <time>2020-06-03T09:10:03Z</time>
      </trkpt>
      <trkpt lat="46.41227" lon="-1.53263">
        <ele>10.8</ele>
        <time>2020-06-03T09:10:04Z</time>
      </trkpt>
      <trkpt lat="46.41226" lon="-1.53262">
        <ele>10.8</ele>
        <time>2020-06-03T09:10:05Z</time>
      </trkpt>
      <trkpt lat="46.41227" lon="-1.53258">
        <ele>10.9</ele>
        <time>2020-06-03T09:10:06Z</time>
      </trkpt>
      <trkpt lat="46.41227" lon="-1.53256">
        <ele>10.9</ele>
        <time>2020-06-03T09:10:07Z</time>
      </trkpt>
      <trkpt lat="46.41229" lon="-1.53251">
        <ele>10.9</ele>
        <time>2020-06-03T09:10:08Z</time>
      </trkpt>
      <trkpt lat="46.41229" lon="-1.5325">
        <ele>10.9</ele>
        <time>2020-06-03T09:10:09Z</time>
      </trkpt>
      <trkpt lat="46.41231" lon="-1.53246">
        <ele>10.9</ele>
        <time>2020-06-03T09:10:10Z</time>
      </trkpt>
      <trkpt lat="46.41233" lon="-1.53241">
        <ele>11</ele>
        <time>2020-06-03T09:10:11Z</time>
      </trkpt>
      <trkpt lat="46.41234" lon="-1.53235">
        <ele>11</ele>
        <time>2020-06-03T09:10:12Z</time>
      </trkpt>
      <trkpt lat="46.41236" lon="-1.53231">
        <ele>11</ele>
        <time>2020-06-03T09:10:13Z</time>
      </trkpt>
      <trkpt lat="46.41236" lon="-1.53227">
        <ele>11.1</ele>
        <time>2020-06-03T09:10:14Z</time>
      </trkpt>
      <trkpt lat="46.41236" lon="-1.53222">
        <ele>11.1</ele>
        <time>2020-06-03T09:10:15Z</time>
      </trkpt>
      <trkpt lat="46.41236" lon="-1.53217">
        <ele>11.1</ele>
        <time>2020-06-03T09:10:16Z</time>
      </trkpt>
      <trkpt lat="46.41236" lon="-1.53215">
        <ele>11.1</ele>
        <time>2020-06-03T09:10:17Z</time>
      </trkpt>
      <trkpt lat="46.41235" lon="-1.53211">
        <ele>11.2</ele>
        <time>2020-06-03T09:10:18Z</time>
      </trkpt>
      <trkpt lat="46.41234" lon="-1.53207">
        <ele>11.2</ele>
        <time>2020-06-03T09:10:19Z</time>
      </trkpt>
      <trkpt lat="46.41233" lon="-1.53206">
        <ele>11.2</ele>
        <time>2020-06-03T09:10:20Z</time>
      </trkpt>
      <trkpt lat="46.41233" lon="-1.53204">
        <ele>11.2</ele>
        <time>2020-06-03T09:10:21Z</time>
      </trkpt>
      <trkpt lat="46.41232" lon="-1.53202">
        <ele>11.2</ele>
        <time>2020-06-03T09:10:22Z</time>
      </trkpt>
      <trkpt lat="46.41232" lon="-1.532">
        <ele>11.2</ele>
        <time>2020-06-03T09:10:23Z</time>
      </trkpt>
      <trkpt lat="46.41232" lon="-1.53197">
        <ele>11.2</ele>
        <time>2020-06-03T09:10:24Z</time>
      </trkpt>
      <trkpt lat="46.41232" lon="-1.53195">
        <ele>11.3</ele>
        <time>2020-06-03T09:10:25Z</time>
      </trkpt>
      <trkpt lat="46.41233" lon="-1.53193">
        <ele>11.2</ele>
        <time>2020-06-03T09:10:26Z</time>
      </trkpt>
      <trkpt lat="46.41233" lon="-1.53192">
        <ele>11.2</ele>
        <time>2020-06-03T09:10:27Z</time>
      </trkpt>
      <trkpt lat="46.41233" lon="-1.53191">
        <ele>11.2</ele>
        <time>2020-06-03T09:10:28Z</time>
      </trkpt>
      <trkpt lat="46.41233" lon="-1.5319">
        <ele>11.2</ele>
        <time>2020-06-03T09:10:29Z</time>
      </trkpt>
      <trkpt lat="46.41233" lon="-1.53188">
        <ele>11.2</ele>
        <time>2020-06-03T09:10:30Z</time>
      </trkpt>
      <trkpt lat="46.41233" lon="-1.53187">
        <ele>11.2</ele>
        <time>2020-06-03T09:10:31Z</time>
      </trkpt>
      <trkpt lat="46.41234" lon="-1.53186">
        <ele>11.2</ele>
        <time>2020-06-03T09:10:32Z</time>
      </trkpt>
      <trkpt lat="46.41234" lon="-1.53185">
        <ele>11.1</ele>
        <time>2020-06-03T09:10:33Z</time>
      </trkpt>
      <trkpt lat="46.41234" lon="-1.53184">
        <ele>11.1</ele>
        <time>2020-06-03T09:10:34Z</time>
      </trkpt>
      <trkpt lat="46.41234" lon="-1.53184">
        <ele>11.1</ele>
        <time>2020-06-03T09:10:35Z</time>
      </trkpt>
      <trkpt lat="46.41234" lon="-1.53184">
        <ele>11.1</ele>
        <time>2020-06-03T09:10:36Z</time>
      </trkpt>
      <trkpt lat="46.41234" lon="-1.53184">
        <ele>11.1</ele>
        <time>2020-06-03T09:10:37Z</time>
      </trkpt>
      <trkpt lat="46.41234" lon="-1.53184">
        <ele>11.1</ele>
        <time>2020-06-03T09:10:38Z</time>
      </trkpt>
      <trkpt lat="46.41234" lon="-1.53185">
        <ele>11.1</ele>
        <time>2020-06-03T09:10:39Z</time>
      </trkpt>
      <trkpt lat="46.41234" lon="-1.53183">
        <ele>11.1</ele>
        <time>2020-06-03T09:10:40Z</time>
      </trkpt>
      <trkpt lat="46.41234" lon="-1.53183">
        <ele>11.1</ele>
        <time>2020-06-03T09:10:41Z</time>
      </trkpt>
      <trkpt lat="46.41234" lon="-1.53183">
        <ele>11.1</ele>
        <time>2020-06-03T09:10:42Z</time>
      </trkpt>
      <trkpt lat="46.41234" lon="-1.53183">
        <ele>11.1</ele>
        <time>2020-06-03T09:10:43Z</time>
      </trkpt>
      <trkpt lat="46.41234" lon="-1.53183">
        <ele>11.1</ele>
        <time>2020-06-03T09:10:44Z</time>
      </trkpt>
      <trkpt lat="46.41234" lon="-1.53183">
        <ele>11</ele>
        <time>2020-06-03T09:10:45Z</time>
      </trkpt>
      <trkpt lat="46.41234" lon="-1.53183">
        <ele>11</ele>
        <time>2020-06-03T09:10:46Z</time>
      </trkpt>
      <trkpt lat="46.41234" lon="-1.53183">
        <ele>11</ele>
        <time>2020-06-03T09:10:47Z</time>
      </trkpt>
      <trkpt lat="46.41234" lon="-1.53183">
        <ele>11</ele>
        <time>2020-06-03T09:10:48Z</time>
      </trkpt>
      <trkpt lat="46.41235" lon="-1.53182">
        <ele>11</ele>
        <time>2020-06-03T09:10:49Z</time>
      </trkpt>
      <trkpt lat="46.41235" lon="-1.53182">
        <ele>11</ele>
        <time>2020-06-03T09:10:50Z</time>
      </trkpt>
      <trkpt lat="46.41235" lon="-1.53181">
        <ele>11</ele>
        <time>2020-06-03T09:10:51Z</time>
      </trkpt>
      <trkpt lat="46.41235" lon="-1.53181">
        <ele>11</ele>
        <time>2020-06-03T09:10:52Z</time>
      </trkpt>
      <trkpt lat="46.41235" lon="-1.53181">
        <ele>11</ele>
        <time>2020-06-03T09:10:53Z</time>
      </trkpt>
      <trkpt lat="46.41235" lon="-1.53181">
        <ele>11</ele>
        <time>2020-06-03T09:10:54Z</time>
      </trkpt>
      <trkpt lat="46.41235" lon="-1.53181">
        <ele>11</ele>
        <time>2020-06-03T09:10:55Z</time>
      </trkpt>
      <trkpt lat="46.41235" lon="-1.53181">
        <ele>11</ele>
        <time>2020-06-03T09:10:56Z</time>
      </trkpt>
      <trkpt lat="46.41235" lon="-1.53181">
        <ele>11</ele>
        <time>2020-06-03T09:10:57Z</time>
      </trkpt>
      <trkpt lat="46.41235" lon="-1.53181">
        <ele>11</ele>
        <time>2020-06-03T09:10:58Z</time>
      </trkpt>
      <trkpt lat="46.41235" lon="-1.53181">
        <ele>10.9</ele>
        <time>2020-06-03T09:10:59Z</time>
      </trkpt>
      <trkpt lat="46.41235" lon="-1.53181">
        <ele>10.9</ele>
        <time>2020-06-03T09:11:00Z</time>
      </trkpt>
      <trkpt lat="46.41235" lon="-1.53181">
        <ele>10.9</ele>
        <time>2020-06-03T09:11:01Z</time>
      </trkpt>
      <trkpt lat="46.41235" lon="-1.53181">
        <ele>10.9</ele>
        <time>2020-06-03T09:11:02Z</time>
      </trkpt>
      <trkpt lat="46.41235" lon="-1.53181">
        <ele>10.9</ele>
        <time>2020-06-03T09:11:03Z</time>
      </trkpt>
      <trkpt lat="46.41235" lon="-1.53181">
        <ele>10.9</ele>
        <time>2020-06-03T09:11:04Z</time>
      </trkpt>
      <trkpt lat="46.41235" lon="-1.53181">
        <ele>10.9</ele>
        <time>2020-06-03T09:11:05Z</time>
      </trkpt>
      <trkpt lat="46.41235" lon="-1.53181">
        <ele>10.9</ele>
        <time>2020-06-03T09:11:06Z</time>
      </trkpt>
      <trkpt lat="46.41235" lon="-1.53181">
        <ele>10.9</ele>
        <time>2020-06-03T09:11:07Z</time>
      </trkpt>
      <trkpt lat="46.41235" lon="-1.53181">
        <ele>10.9</ele>
        <time>2020-06-03T09:11:08Z</time>
      </trkpt>
      <trkpt lat="46.41235" lon="-1.53181">
        <ele>10.9</ele>
        <time>2020-06-03T09:11:09Z</time>
      </trkpt>
      <trkpt lat="46.41234" lon="-1.53182">
        <ele>10.9</ele>
        <time>2020-06-03T09:11:10Z</time>
      </trkpt>
      <trkpt lat="46.41234" lon="-1.53182">
        <ele>10.8</ele>
        <time>2020-06-03T09:11:11Z</time>
      </trkpt>
      <trkpt lat="46.41234" lon="-1.53182">
        <ele>10.8</ele>
        <time>2020-06-03T09:11:12Z</time>
      </trkpt>
      <trkpt lat="46.41234" lon="-1.53182">
        <ele>10.8</ele>
        <time>2020-06-03T09:11:13Z</time>
      </trkpt>
      <trkpt lat="46.41234" lon="-1.53182">
        <ele>10.8</ele>
        <time>2020-06-03T09:11:14Z</time>
      </trkpt>
      <trkpt lat="46.41234" lon="-1.53182">
        <ele>10.8</ele>
        <time>2020-06-03T09:11:15Z</time>
      </trkpt>
      <trkpt lat="46.41233" lon="-1.53183">
        <ele>10.8</ele>
        <time>2020-06-03T09:11:16Z</time>
      </trkpt>
      <trkpt lat="46.41233" lon="-1.53184">
        <ele>10.8</ele>
        <time>2020-06-03T09:11:17Z</time>
      </trkpt>
      <trkpt lat="46.41233" lon="-1.53184">
        <ele>10.8</ele>
        <time>2020-06-03T09:11:18Z</time>
      </trkpt>
      <trkpt lat="46.41232" lon="-1.53184">
        <ele>10.8</ele>
        <time>2020-06-03T09:11:19Z</time>
      </trkpt>
      <trkpt lat="46.41232" lon="-1.53184">
        <ele>10.8</ele>
        <time>2020-06-03T09:11:20Z</time>
      </trkpt>
      <trkpt lat="46.41232" lon="-1.53183">
        <ele>10.8</ele>
        <time>2020-06-03T09:11:21Z</time>
      </trkpt>
      <trkpt lat="46.41232" lon="-1.53183">
        <ele>10.8</ele>
        <time>2020-06-03T09:11:22Z</time>
      </trkpt>
      <trkpt lat="46.41232" lon="-1.53183">
        <ele>10.8</ele>
        <time>2020-06-03T09:11:23Z</time>
      </trkpt>
      <trkpt lat="46.41232" lon="-1.53183">
        <ele>10.8</ele>
        <time>2020-06-03T09:11:24Z</time>
      </trkpt>
      <trkpt lat="46.41232" lon="-1.53183">
        <ele>10.8</ele>
        <time>2020-06-03T09:11:25Z</time>
      </trkpt>
      <trkpt lat="46.41232" lon="-1.53183">
        <ele>10.8</ele>
        <time>2020-06-03T09:11:26Z</time>
      </trkpt>
      <trkpt lat="46.41232" lon="-1.53183">
        <ele>10.8</ele>
        <time>2020-06-03T09:11:27Z</time>
      </trkpt>
      <trkpt lat="46.41232" lon="-1.53183">
        <ele>10.8</ele>
        <time>2020-06-03T09:11:28Z</time>
      </trkpt>
      <trkpt lat="46.41232" lon="-1.53183">
        <ele>10.8</ele>
        <time>2020-06-03T09:11:29Z</time>
      </trkpt>
      <trkpt lat="46.41233" lon="-1.53182">
        <ele>10.7</ele>
        <time>2020-06-03T09:11:30Z</time>
      </trkpt>
      <trkpt lat="46.41233" lon="-1.53182">
        <ele>10.7</ele>
        <time>2020-06-03T09:11:31Z</time>
      </trkpt>
      <trkpt lat="46.41232" lon="-1.53182">
        <ele>10.7</ele>
        <time>2020-06-03T09:11:32Z</time>
      </trkpt>
      <trkpt lat="46.41232" lon="-1.53181">
        <ele>10.7</ele>
        <time>2020-06-03T09:11:33Z</time>
      </trkpt>
      <trkpt lat="46.41232" lon="-1.53181">
        <ele>10.7</ele>
        <time>2020-06-03T09:11:34Z</time>
      </trkpt>
      <trkpt lat="46.41232" lon="-1.53181">
        <ele>10.7</ele>
        <time>2020-06-03T09:11:35Z</time>
      </trkpt>
      <trkpt lat="46.41232" lon="-1.53181">
        <ele>10.7</ele>
        <time>2020-06-03T09:11:36Z</time>
      </trkpt>
      <trkpt lat="46.41232" lon="-1.53181">
        <ele>10.7</ele>
        <time>2020-06-03T09:11:37Z</time>
      </trkpt>
      <trkpt lat="46.41232" lon="-1.53181">
        <ele>10.7</ele>
        <time>2020-06-03T09:11:38Z</time>
      </trkpt>
      <trkpt lat="46.41231" lon="-1.53181">
        <ele>10.7</ele>
        <time>2020-06-03T09:11:39Z</time>
      </trkpt>
      <trkpt lat="46.41231" lon="-1.53181">
        <ele>10.7</ele>
        <time>2020-06-03T09:11:40Z</time>
      </trkpt>
      <trkpt lat="46.41231" lon="-1.53181">
        <ele>10.7</ele>
        <time>2020-06-03T09:11:41Z</time>
      </trkpt>
      <trkpt lat="46.41231" lon="-1.53181">
        <ele>10.7</ele>
        <time>2020-06-03T09:11:42Z</time>
      </trkpt>
      <trkpt lat="46.41231" lon="-1.53181">
        <ele>10.7</ele>
        <time>2020-06-03T09:11:43Z</time>
      </trkpt>
      <trkpt lat="46.41231" lon="-1.53181">
        <ele>10.6</ele>
        <time>2020-06-03T09:11:44Z</time>
      </trkpt>
      <trkpt lat="46.41231" lon="-1.53181">
        <ele>10.6</ele>
        <time>2020-06-03T09:11:45Z</time>
      </trkpt>
      <trkpt lat="46.41231" lon="-1.53181">
        <ele>10.6</ele>
        <time>2020-06-03T09:11:46Z</time>
      </trkpt>
      <trkpt lat="46.41231" lon="-1.53181">
        <ele>10.6</ele>
        <time>2020-06-03T09:11:47Z</time>
      </trkpt>
      <trkpt lat="46.41231" lon="-1.53181">
        <ele>10.6</ele>
        <time>2020-06-03T09:11:48Z</time>
      </trkpt>
      <trkpt lat="46.41231" lon="-1.53181">
        <ele>10.6</ele>
        <time>2020-06-03T09:11:49Z</time>
      </trkpt>
      <trkpt lat="46.41231" lon="-1.53181">
        <ele>10.6</ele>
        <time>2020-06-03T09:11:50Z</time>
      </trkpt>
      <trkpt lat="46.41231" lon="-1.53182">
        <ele>10.6</ele>
        <time>2020-06-03T09:11:51Z</time>
      </trkpt>
      <trkpt lat="46.41231" lon="-1.53183">
        <ele>10.6</ele>
        <time>2020-06-03T09:11:52Z</time>
      </trkpt>
      <trkpt lat="46.41231" lon="-1.53183">
        <ele>10.6</ele>
        <time>2020-06-03T09:11:53Z</time>
      </trkpt>
      <trkpt lat="46.41231" lon="-1.53183">
        <ele>10.5</ele>
        <time>2020-06-03T09:11:54Z</time>
      </trkpt>
      <trkpt lat="46.41231" lon="-1.53183">
        <ele>10.5</ele>
        <time>2020-06-03T09:11:55Z</time>
      </trkpt>
      <trkpt lat="46.41231" lon="-1.53184">
        <ele>10.5</ele>
        <time>2020-06-03T09:11:56Z</time>
      </trkpt>
      <trkpt lat="46.41231" lon="-1.53184">
        <ele>10.5</ele>
        <time>2020-06-03T09:11:57Z</time>
      </trkpt>
      <trkpt lat="46.41231" lon="-1.53183">
        <ele>10.5</ele>
        <time>2020-06-03T09:11:58Z</time>
      </trkpt>
      <trkpt lat="46.41231" lon="-1.53183">
        <ele>10.5</ele>
        <time>2020-06-03T09:11:59Z</time>
      </trkpt>
      <trkpt lat="46.41231" lon="-1.53183">
        <ele>10.5</ele>
        <time>2020-06-03T09:12:00Z</time>
      </trkpt>
      <trkpt lat="46.41231" lon="-1.53183">
        <ele>10.5</ele>
        <time>2020-06-03T09:12:01Z</time>
      </trkpt>
      <trkpt lat="46.41231" lon="-1.53183">
        <ele>10.5</ele>
        <time>2020-06-03T09:12:02Z</time>
      </trkpt>
      <trkpt lat="46.41231" lon="-1.53184">
        <ele>10.5</ele>
        <time>2020-06-03T09:12:03Z</time>
      </trkpt>
      <trkpt lat="46.41231" lon="-1.53185">
        <ele>10.5</ele>
        <time>2020-06-03T09:12:04Z</time>
      </trkpt>
      <trkpt lat="46.41231" lon="-1.53185">
        <ele>10.5</ele>
        <time>2020-06-03T09:12:05Z</time>
      </trkpt>
      <trkpt lat="46.41231" lon="-1.53185">
        <ele>10.4</ele>
        <time>2020-06-03T09:12:06Z</time>
      </trkpt>
      <trkpt lat="46.41231" lon="-1.53185">
        <ele>10.4</ele>
        <time>2020-06-03T09:12:07Z</time>
      </trkpt>
      <trkpt lat="46.41231" lon="-1.53185">
        <ele>10.4</ele>
        <time>2020-06-03T09:12:08Z</time>
      </trkpt>
      <trkpt lat="46.41231" lon="-1.53185">
        <ele>10.4</ele>
        <time>2020-06-03T09:12:09Z</time>
      </trkpt>
      <trkpt lat="46.41231" lon="-1.53185">
        <ele>10.4</ele>
        <time>2020-06-03T09:12:10Z</time>
      </trkpt>
      <trkpt lat="46.41231" lon="-1.53185">
        <ele>10.4</ele>
        <time>2020-06-03T09:12:11Z</time>
      </trkpt>
      <trkpt lat="46.41231" lon="-1.53185">
        <ele>10.4</ele>
        <time>2020-06-03T09:12:12Z</time>
      </trkpt>
      <trkpt lat="46.41231" lon="-1.53185">
        <ele>10.4</ele>
        <time>2020-06-03T09:12:13Z</time>
      </trkpt>
      <trkpt lat="46.41232" lon="-1.53185">
        <ele>10.4</ele>
        <time>2020-06-03T09:12:14Z</time>
      </trkpt>
      <trkpt lat="46.41233" lon="-1.53185">
        <ele>10.3</ele>
        <time>2020-06-03T09:12:15Z</time>
      </trkpt>
      <trkpt lat="46.41234" lon="-1.53185">
        <ele>10.3</ele>
        <time>2020-06-03T09:12:16Z</time>
      </trkpt>
      <trkpt lat="46.41234" lon="-1.53186">
        <ele>10.3</ele>
        <time>2020-06-03T09:12:17Z</time>
      </trkpt>
      <trkpt lat="46.41235" lon="-1.53187">
        <ele>10.3</ele>
        <time>2020-06-03T09:12:18Z</time>
      </trkpt>
      <trkpt lat="46.41235" lon="-1.53187">
        <ele>10.3</ele>
        <time>2020-06-03T09:12:19Z</time>
      </trkpt>
      <trkpt lat="46.41235" lon="-1.53187">
        <ele>10.2</ele>
        <time>2020-06-03T09:12:20Z</time>
      </trkpt>
      <trkpt lat="46.41235" lon="-1.53187">
        <ele>10.2</ele>
        <time>2020-06-03T09:12:21Z</time>
      </trkpt>
      <trkpt lat="46.41236" lon="-1.53187">
        <ele>10.2</ele>
        <time>2020-06-03T09:12:22Z</time>
      </trkpt>
      <trkpt lat="46.41236" lon="-1.53187">
        <ele>10.2</ele>
        <time>2020-06-03T09:12:23Z</time>
      </trkpt>
      <trkpt lat="46.41236" lon="-1.53187">
        <ele>10.2</ele>
        <time>2020-06-03T09:12:24Z</time>
      </trkpt>
      <trkpt lat="46.41236" lon="-1.53187">
        <ele>10.2</ele>
        <time>2020-06-03T09:12:25Z</time>
      </trkpt>
      <trkpt lat="46.41236" lon="-1.53188">
        <ele>10.2</ele>
        <time>2020-06-03T09:12:26Z</time>
      </trkpt>
      <trkpt lat="46.41236" lon="-1.53188">
        <ele>10.2</ele>
        <time>2020-06-03T09:12:27Z</time>
      </trkpt>
      <trkpt lat="46.41236" lon="-1.53189">
        <ele>10.1</ele>
        <time>2020-06-03T09:12:28Z</time>
      </trkpt>
      <trkpt lat="46.41236" lon="-1.53189">
        <ele>10.1</ele>
        <time>2020-06-03T09:12:29Z</time>
      </trkpt>
      <trkpt lat="46.41236" lon="-1.53189">
        <ele>10.1</ele>
        <time>2020-06-03T09:12:30Z</time>
      </trkpt>
      <trkpt lat="46.41237" lon="-1.53189">
        <ele>10.1</ele>
        <time>2020-06-03T09:12:31Z</time>
      </trkpt>
      <trkpt lat="46.41574" lon="-1.5628">
        <ele>9.1</ele>
        <time>2020-06-03T09:28:54Z</time>
      </trkpt>
      <trkpt lat="46.41462" lon="-1.56226">
        <ele>15.2</ele>
        <time>2020-06-03T09:28:55Z</time>
      </trkpt>
      <trkpt lat="46.41466" lon="-1.56229">
        <ele>14.9</ele>
        <time>2020-06-03T09:28:56Z</time>
      </trkpt>
      <trkpt lat="46.41471" lon="-1.56233">
        <ele>14.5</ele>
        <time>2020-06-03T09:28:57Z</time>
      </trkpt>
      <trkpt lat="46.41475" lon="-1.56236">
        <ele>14.2</ele>
        <time>2020-06-03T09:28:58Z</time>
      </trkpt>
      <trkpt lat="46.41479" lon="-1.5624">
        <ele>13.7</ele>
        <time>2020-06-03T09:28:59Z</time>
      </trkpt>
      <trkpt lat="46.41483" lon="-1.56243">
        <ele>13.4</ele>
        <time>2020-06-03T09:29:00Z</time>
      </trkpt>
      <trkpt lat="46.41487" lon="-1.56247">
        <ele>13.2</ele>
        <time>2020-06-03T09:29:01Z</time>
      </trkpt>
      <trkpt lat="46.41491" lon="-1.5625">
        <ele>12.9</ele>
        <time>2020-06-03T09:29:03Z</time>
      </trkpt>
      <trkpt lat="46.41495" lon="-1.56254">
        <ele>12.7</ele>
        <time>2020-06-03T09:29:05Z</time>
      </trkpt>
      <trkpt lat="46.41499" lon="-1.56257">
        <ele>12.4</ele>
        <time>2020-06-03T09:29:06Z</time>
      </trkpt>
      <trkpt lat="46.41503" lon="-1.56261">
        <ele>12.4</ele>
        <time>2020-06-03T09:29:07Z</time>
      </trkpt>
      <trkpt lat="46.41503" lon="-1.56265">
        <ele>12.4</ele>
        <time>2020-06-03T09:29:08Z</time>
      </trkpt>
      <trkpt lat="46.41503" lon="-1.56269">
        <ele>12.4</ele>
        <time>2020-06-03T09:29:09Z</time>
      </trkpt>
      <trkpt lat="46.41503" lon="-1.56271">
        <ele>12.4</ele>
        <time>2020-06-03T09:29:10Z</time>
      </trkpt>
      <trkpt lat="46.41502" lon="-1.56274">
        <ele>12.4</ele>
        <time>2020-06-03T09:29:11Z</time>
      </trkpt>
      <trkpt lat="46.41502" lon="-1.56275">
        <ele>12.4</ele>
        <time>2020-06-03T09:29:12Z</time>
      </trkpt>
      <trkpt lat="46.41502" lon="-1.56276">
        <ele>12.4</ele>
        <time>2020-06-03T09:29:13Z</time>
      </trkpt>
      <trkpt lat="46.41502" lon="-1.56279">
        <ele>12.4</ele>
        <time>2020-06-03T09:29:14Z</time>
      </trkpt>
      <trkpt lat="46.41501" lon="-1.56281">
        <ele>12.4</ele>
        <time>2020-06-03T09:29:15Z</time>
      </trkpt>
      <trkpt lat="46.41501" lon="-1.56282">
        <ele>12.4</ele>
        <time>2020-06-03T09:29:16Z</time>
      </trkpt>
      <trkpt lat="46.415" lon="-1.56285">
        <ele>12.4</ele>
        <time>2020-06-03T09:29:17Z</time>
      </trkpt>
      <trkpt lat="46.415" lon="-1.56286">
        <ele>12.4</ele>
        <time>2020-06-03T09:29:18Z</time>
      </trkpt>
      <trkpt lat="46.415" lon="-1.56287">
        <ele>12.4</ele>
        <time>2020-06-03T09:29:19Z</time>
      </trkpt>
      <trkpt lat="46.41499" lon="-1.56289">
        <ele>12.4</ele>
        <time>2020-06-03T09:29:20Z</time>
      </trkpt>
      <trkpt lat="46.41499" lon="-1.56292">
        <ele>12.4</ele>
        <time>2020-06-03T09:29:21Z</time>
      </trkpt>
      <trkpt lat="46.415" lon="-1.56296">
        <ele>12.4</ele>
        <time>2020-06-03T09:29:22Z</time>
      </trkpt>
      <trkpt lat="46.415" lon="-1.56299">
        <ele>12.4</ele>
        <time>2020-06-03T09:29:23Z</time>
      </trkpt>
      <trkpt lat="46.41499" lon="-1.56301">
        <ele>12.4</ele>
        <time>2020-06-03T09:29:24Z</time>
      </trkpt>
      <trkpt lat="46.41499" lon="-1.56306">
        <ele>12.4</ele>
        <time>2020-06-03T09:29:25Z</time>
      </trkpt>
      <trkpt lat="46.41499" lon="-1.56309">
        <ele>12.4</ele>
        <time>2020-06-03T09:29:26Z</time>
      </trkpt>
      <trkpt lat="46.41498" lon="-1.56313">
        <ele>12.4</ele>
        <time>2020-06-03T09:29:27Z</time>
      </trkpt>
      <trkpt lat="46.41497" lon="-1.56317">
        <ele>12.4</ele>
        <time>2020-06-03T09:29:28Z</time>
      </trkpt>
      <trkpt lat="46.41497" lon="-1.56322">
        <ele>12.4</ele>
        <time>2020-06-03T09:29:29Z</time>
      </trkpt>
      <trkpt lat="46.41496" lon="-1.56327">
        <ele>12.5</ele>
        <time>2020-06-03T09:29:30Z</time>
      </trkpt>
      <trkpt lat="46.41496" lon="-1.56328">
        <ele>12.5</ele>
        <time>2020-06-03T09:29:31Z</time>
      </trkpt>
      <trkpt lat="46.41496" lon="-1.56333">
        <ele>12.5</ele>
        <time>2020-06-03T09:29:32Z</time>
      </trkpt>
      <trkpt lat="46.41496" lon="-1.56335">
        <ele>12.5</ele>
        <time>2020-06-03T09:29:33Z</time>
      </trkpt>
      <trkpt lat="46.41495" lon="-1.56339">
        <ele>12.5</ele>
        <time>2020-06-03T09:29:34Z</time>
      </trkpt>
      <trkpt lat="46.41495" lon="-1.56346">
        <ele>12.5</ele>
        <time>2020-06-03T09:29:35Z</time>
      </trkpt>
      <trkpt lat="46.41495" lon="-1.56351">
        <ele>12.5</ele>
        <time>2020-06-03T09:29:36Z</time>
      </trkpt>
      <trkpt lat="46.41494" lon="-1.56356">
        <ele>12.5</ele>
        <time>2020-06-03T09:29:37Z</time>
      </trkpt>
      <trkpt lat="46.41492" lon="-1.56362">
        <ele>12.5</ele>
        <time>2020-06-03T09:29:38Z</time>
      </trkpt>
      <trkpt lat="46.4149" lon="-1.56367">
        <ele>12.5</ele>
        <time>2020-06-03T09:29:39Z</time>
      </trkpt>
      <trkpt lat="46.41489" lon="-1.56373">
        <ele>12.5</ele>
        <time>2020-06-03T09:29:40Z</time>
      </trkpt>
      <trkpt lat="46.41488" lon="-1.56378">
        <ele>12.5</ele>
        <time>2020-06-03T09:29:41Z</time>
      </trkpt>
      <trkpt lat="46.41488" lon="-1.56384">
        <ele>12.5</ele>
        <time>2020-06-03T09:29:42Z</time>
      </trkpt>
      <trkpt lat="46.41487" lon="-1.56389">
        <ele>12.5</ele>
        <time>2020-06-03T09:29:43Z</time>
      </trkpt>
      <trkpt lat="46.41486" lon="-1.56393">
        <ele>12.5</ele>
        <time>2020-06-03T09:29:44Z</time>
      </trkpt>
      <trkpt lat="46.41486" lon="-1.56398">
        <ele>12.5</ele>
        <time>2020-06-03T09:29:45Z</time>
      </trkpt>
      <trkpt lat="46.41486" lon="-1.56404">
        <ele>12.5</ele>
        <time>2020-06-03T09:29:46Z</time>
      </trkpt>
      <trkpt lat="46.41486" lon="-1.56409">
        <ele>12.5</ele>
        <time>2020-06-03T09:29:47Z</time>
      </trkpt>
      <trkpt lat="46.41486" lon="-1.56416">
        <ele>12.5</ele>
        <time>2020-06-03T09:29:48Z</time>
      </trkpt>
      <trkpt lat="46.41486" lon="-1.56421">
        <ele>12.6</ele>
        <time>2020-06-03T09:29:49Z</time>
      </trkpt>
      <trkpt lat="46.41486" lon="-1.56427">
        <ele>12.6</ele>
        <time>2020-06-03T09:29:50Z</time>
      </trkpt>
      <trkpt lat="46.41487" lon="-1.56432">
        <ele>12.6</ele>
        <time>2020-06-03T09:29:51Z</time>
      </trkpt>
      <trkpt lat="46.41487" lon="-1.56439">
        <ele>12.6</ele>
        <time>2020-06-03T09:29:52Z</time>
      </trkpt>
      <trkpt lat="46.41488" lon="-1.56444">
        <ele>12.6</ele>
        <time>2020-06-03T09:29:53Z</time>
      </trkpt>
      <trkpt lat="46.41489" lon="-1.5645">
        <ele>12.6</ele>
        <time>2020-06-03T09:29:54Z</time>
      </trkpt>
      <trkpt lat="46.4149" lon="-1.56457">
        <ele>12.6</ele>
        <time>2020-06-03T09:29:55Z</time>
      </trkpt>
      <trkpt lat="46.41491" lon="-1.56461">
        <ele>12.6</ele>
        <time>2020-06-03T09:29:56Z</time>
      </trkpt>
      <trkpt lat="46.41492" lon="-1.56469">
        <ele>12.6</ele>
        <time>2020-06-03T09:29:57Z</time>
      </trkpt>
      <trkpt lat="46.41493" lon="-1.56474">
        <ele>12.6</ele>
        <time>2020-06-03T09:29:58Z</time>
      </trkpt>
      <trkpt lat="46.41494" lon="-1.56482">
        <ele>12.6</ele>
        <time>2020-06-03T09:29:59Z</time>
      </trkpt>
      <trkpt lat="46.41495" lon="-1.56488">
        <ele>12.6</ele>
        <time>2020-06-03T09:30:00Z</time>
      </trkpt>
      <trkpt lat="46.41495" lon="-1.56495">
        <ele>12.6</ele>
        <time>2020-06-03T09:30:01Z</time>
      </trkpt>
      <trkpt lat="46.41496" lon="-1.565">
        <ele>12.6</ele>
        <time>2020-06-03T09:30:02Z</time>
      </trkpt>
      <trkpt lat="46.41496" lon="-1.56506">
        <ele>12.7</ele>
        <time>2020-06-03T09:30:03Z</time>
      </trkpt>
      <trkpt lat="46.41497" lon="-1.56512">
        <ele>12.7</ele>
        <time>2020-06-03T09:30:04Z</time>
      </trkpt>
      <trkpt lat="46.41498" lon="-1.56517">
        <ele>12.7</ele>
        <time>2020-06-03T09:30:05Z</time>
      </trkpt>
      <trkpt lat="46.41499" lon="-1.56523">
        <ele>12.7</ele>
        <time>2020-06-03T09:30:06Z</time>
      </trkpt>
      <trkpt lat="46.415" lon="-1.5653">
        <ele>12.7</ele>
        <time>2020-06-03T09:30:07Z</time>
      </trkpt>
      <trkpt lat="46.41501" lon="-1.56535">
        <ele>12.7</ele>
        <time>2020-06-03T09:30:08Z</time>
      </trkpt>
      <trkpt lat="46.41502" lon="-1.56542">
        <ele>12.7</ele>
        <time>2020-06-03T09:30:09Z</time>
      </trkpt>
      <trkpt lat="46.41502" lon="-1.56549">
        <ele>12.7</ele>
        <time>2020-06-03T09:30:10Z</time>
      </trkpt>
      <trkpt lat="46.41502" lon="-1.56556">
        <ele>12.7</ele>
        <time>2020-06-03T09:30:11Z</time>
      </trkpt>
      <trkpt lat="46.41503" lon="-1.56562">
        <ele>12.7</ele>
        <time>2020-06-03T09:30:12Z</time>
      </trkpt>
      <trkpt lat="46.41503" lon="-1.56568">
        <ele>12.7</ele>
        <time>2020-06-03T09:30:13Z</time>
      </trkpt>
      <trkpt lat="46.41503" lon="-1.56575">
        <ele>12.7</ele>
        <time>2020-06-03T09:30:14Z</time>
      </trkpt>
      <trkpt lat="46.41503" lon="-1.56582">
        <ele>12.7</ele>
        <time>2020-06-03T09:30:15Z</time>
      </trkpt>
      <trkpt lat="46.41504" lon="-1.5659">
        <ele>12.7</ele>
        <time>2020-06-03T09:30:16Z</time>
      </trkpt>
      <trkpt lat="46.41504" lon="-1.56597">
        <ele>12.7</ele>
        <time>2020-06-03T09:30:17Z</time>
      </trkpt>
      <trkpt lat="46.41505" lon="-1.56603">
        <ele>12.7</ele>
        <time>2020-06-03T09:30:18Z</time>
      </trkpt>
      <trkpt lat="46.41506" lon="-1.5661">
        <ele>12.6</ele>
        <time>2020-06-03T09:30:19Z</time>
      </trkpt>
      <trkpt lat="46.41506" lon="-1.56617">
        <ele>12.5</ele>
        <time>2020-06-03T09:30:20Z</time>
      </trkpt>
      <trkpt lat="46.41507" lon="-1.56624">
        <ele>12.5</ele>
        <time>2020-06-03T09:30:21Z</time>
      </trkpt>
      <trkpt lat="46.41508" lon="-1.56632">
        <ele>12.4</ele>
        <time>2020-06-03T09:30:22Z</time>
      </trkpt>
      <trkpt lat="46.41509" lon="-1.56639">
        <ele>12.3</ele>
        <time>2020-06-03T09:30:23Z</time>
      </trkpt>
      <trkpt lat="46.41511" lon="-1.56646">
        <ele>12.2</ele>
        <time>2020-06-03T09:30:24Z</time>
      </trkpt>
      <trkpt lat="46.41512" lon="-1.56654">
        <ele>12.1</ele>
        <time>2020-06-03T09:30:25Z</time>
      </trkpt>
      <trkpt lat="46.41513" lon="-1.56662">
        <ele>12.1</ele>
        <time>2020-06-03T09:30:26Z</time>
      </trkpt>
      <trkpt lat="46.41514" lon="-1.5667">
        <ele>12</ele>
        <time>2020-06-03T09:30:27Z</time>
      </trkpt>
      <trkpt lat="46.41515" lon="-1.56677">
        <ele>11.9</ele>
        <time>2020-06-03T09:30:28Z</time>
      </trkpt>
      <trkpt lat="46.41515" lon="-1.56683">
        <ele>11.8</ele>
        <time>2020-06-03T09:30:29Z</time>
      </trkpt>
      <trkpt lat="46.41516" lon="-1.56688">
        <ele>11.8</ele>
        <time>2020-06-03T09:30:30Z</time>
      </trkpt>
      <trkpt lat="46.41518" lon="-1.56692">
        <ele>11.8</ele>
        <time>2020-06-03T09:30:31Z</time>
      </trkpt>
      <trkpt lat="46.41518" lon="-1.56694">
        <ele>11.7</ele>
        <time>2020-06-03T09:30:32Z</time>
      </trkpt>
      <trkpt lat="46.41518" lon="-1.56698">
        <ele>11.7</ele>
        <time>2020-06-03T09:30:33Z</time>
      </trkpt>
      <trkpt lat="46.41517" lon="-1.56702">
        <ele>11.7</ele>
        <time>2020-06-03T09:30:34Z</time>
      </trkpt>
      <trkpt lat="46.41517" lon="-1.56706">
        <ele>11.7</ele>
        <time>2020-06-03T09:30:35Z</time>
      </trkpt>
      <trkpt lat="46.41518" lon="-1.56711">
        <ele>11.7</ele>
        <time>2020-06-03T09:30:36Z</time>
      </trkpt>
      <trkpt lat="46.41518" lon="-1.56713">
        <ele>11.7</ele>
        <time>2020-06-03T09:30:37Z</time>
      </trkpt>
      <trkpt lat="46.41517" lon="-1.56714">
        <ele>11.7</ele>
        <time>2020-06-03T09:30:38Z</time>
      </trkpt>
      <trkpt lat="46.41519" lon="-1.56715">
        <ele>11.7</ele>
        <time>2020-06-03T09:30:39Z</time>
      </trkpt>
      <trkpt lat="46.41519" lon="-1.56717">
        <ele>11.7</ele>
        <time>2020-06-03T09:30:40Z</time>
      </trkpt>
      <trkpt lat="46.4152" lon="-1.56721">
        <ele>11.7</ele>
        <time>2020-06-03T09:30:41Z</time>
      </trkpt>
      <trkpt lat="46.41521" lon="-1.56723">
        <ele>11.7</ele>
        <time>2020-06-03T09:30:42Z</time>
      </trkpt>
      <trkpt lat="46.41522" lon="-1.56729">
        <ele>11.6</ele>
        <time>2020-06-03T09:30:43Z</time>
      </trkpt>
      <trkpt lat="46.41522" lon="-1.56732">
        <ele>11.6</ele>
        <time>2020-06-03T09:30:44Z</time>
      </trkpt>
      <trkpt lat="46.41523" lon="-1.56737">
        <ele>11.6</ele>
        <time>2020-06-03T09:30:45Z</time>
      </trkpt>
      <trkpt lat="46.41523" lon="-1.56741">
        <ele>11.6</ele>
        <time>2020-06-03T09:30:46Z</time>
      </trkpt>
      <trkpt lat="46.41525" lon="-1.56747">
        <ele>11.6</ele>
        <time>2020-06-03T09:30:47Z</time>
      </trkpt>
      <trkpt lat="46.41528" lon="-1.56752">
        <ele>11.5</ele>
        <time>2020-06-03T09:30:48Z</time>
      </trkpt>
      <trkpt lat="46.4153" lon="-1.56758">
        <ele>11.5</ele>
        <time>2020-06-03T09:30:49Z</time>
      </trkpt>
      <trkpt lat="46.41532" lon="-1.56765">
        <ele>11.4</ele>
        <time>2020-06-03T09:30:50Z</time>
      </trkpt>
      <trkpt lat="46.41534" lon="-1.56771">
        <ele>11.4</ele>
        <time>2020-06-03T09:30:51Z</time>
      </trkpt>
      <trkpt lat="46.41536" lon="-1.56779">
        <ele>11.3</ele>
        <time>2020-06-03T09:30:52Z</time>
      </trkpt>
      <trkpt lat="46.41538" lon="-1.56787">
        <ele>11.3</ele>
        <time>2020-06-03T09:30:53Z</time>
      </trkpt>
      <trkpt lat="46.41539" lon="-1.56794">
        <ele>11.2</ele>
        <time>2020-06-03T09:30:54Z</time>
      </trkpt>
      <trkpt lat="46.41541" lon="-1.56802">
        <ele>11.2</ele>
        <time>2020-06-03T09:30:55Z</time>
      </trkpt>
      <trkpt lat="46.41542" lon="-1.56809">
        <ele>11.1</ele>
        <time>2020-06-03T09:30:56Z</time>
      </trkpt>
      <trkpt lat="46.41544" lon="-1.56816">
        <ele>11</ele>
        <time>2020-06-03T09:30:57Z</time>
      </trkpt>
      <trkpt lat="46.41545" lon="-1.56824">
        <ele>11</ele>
        <time>2020-06-03T09:30:58Z</time>
      </trkpt>
      <trkpt lat="46.41547" lon="-1.56832">
        <ele>10.9</ele>
        <time>2020-06-03T09:30:59Z</time>
      </trkpt>
      <trkpt lat="46.4155" lon="-1.56841">
        <ele>10.9</ele>
        <time>2020-06-03T09:31:00Z</time>
      </trkpt>
      <trkpt lat="46.41552" lon="-1.5685">
        <ele>10.9</ele>
        <time>2020-06-03T09:31:01Z</time>
      </trkpt>
      <trkpt lat="46.41555" lon="-1.56858">
        <ele>10.8</ele>
        <time>2020-06-03T09:31:02Z</time>
      </trkpt>
      <trkpt lat="46.41558" lon="-1.56866">
        <ele>10.8</ele>
        <time>2020-06-03T09:31:03Z</time>
      </trkpt>
      <trkpt lat="46.41561" lon="-1.56872">
        <ele>10.8</ele>
        <time>2020-06-03T09:31:04Z</time>
      </trkpt>
      <trkpt lat="46.41564" lon="-1.5688">
        <ele>10.8</ele>
        <time>2020-06-03T09:31:05Z</time>
      </trkpt>
      <trkpt lat="46.41567" lon="-1.56888">
        <ele>10.8</ele>
        <time>2020-06-03T09:31:06Z</time>
      </trkpt>
      <trkpt lat="46.4157" lon="-1.56895">
        <ele>10.8</ele>
        <time>2020-06-03T09:31:07Z</time>
      </trkpt>
      <trkpt lat="46.41573" lon="-1.56902">
        <ele>10.9</ele>
        <time>2020-06-03T09:31:08Z</time>
      </trkpt>
      <trkpt lat="46.41575" lon="-1.5691">
        <ele>10.9</ele>
        <time>2020-06-03T09:31:09Z</time>
      </trkpt>
      <trkpt lat="46.41579" lon="-1.56918">
        <ele>10.9</ele>
        <time>2020-06-03T09:31:10Z</time>
      </trkpt>
      <trkpt lat="46.41583" lon="-1.56924">
        <ele>10.9</ele>
        <time>2020-06-03T09:31:11Z</time>
      </trkpt>
      <trkpt lat="46.41586" lon="-1.56931">
        <ele>10.9</ele>
        <time>2020-06-03T09:31:12Z</time>
      </trkpt>
      <trkpt lat="46.4159" lon="-1.56937">
        <ele>10.9</ele>
        <time>2020-06-03T09:31:13Z</time>
      </trkpt>
      <trkpt lat="46.41594" lon="-1.56944">
        <ele>10.9</ele>
        <time>2020-06-03T09:31:14Z</time>
      </trkpt>
      <trkpt lat="46.41597" lon="-1.56952">
        <ele>10.8</ele>
        <time>2020-06-03T09:31:15Z</time>
      </trkpt>
      <trkpt lat="46.41601" lon="-1.56958">
        <ele>10.8</ele>
        <time>2020-06-03T09:31:16Z</time>
      </trkpt>
      <trkpt lat="46.41605" lon="-1.56965">
        <ele>10.8</ele>
        <time>2020-06-03T09:31:17Z</time>
      </trkpt>
      <trkpt lat="46.41609" lon="-1.56971">
        <ele>10.7</ele>
        <time>2020-06-03T09:31:18Z</time>
      </trkpt>
      <trkpt lat="46.41612" lon="-1.56977">
        <ele>10.7</ele>
        <time>2020-06-03T09:31:19Z</time>
      </trkpt>
      <trkpt lat="46.41616" lon="-1.56983">
        <ele>10.6</ele>
        <time>2020-06-03T09:31:20Z</time>
      </trkpt>
      <trkpt lat="46.4162" lon="-1.5699">
        <ele>10.5</ele>
        <time>2020-06-03T09:31:21Z</time>
      </trkpt>
      <trkpt lat="46.41623" lon="-1.56996">
        <ele>10.5</ele>
        <time>2020-06-03T09:31:22Z</time>
      </trkpt>
      <trkpt lat="46.41627" lon="-1.57002">
        <ele>10.4</ele>
        <time>2020-06-03T09:31:23Z</time>
      </trkpt>
      <trkpt lat="46.41632" lon="-1.5701">
        <ele>10.3</ele>
        <time>2020-06-03T09:31:24Z</time>
      </trkpt>
      <trkpt lat="46.41637" lon="-1.57017">
        <ele>10.3</ele>
        <time>2020-06-03T09:31:25Z</time>
      </trkpt>
      <trkpt lat="46.41639" lon="-1.57026">
        <ele>10.3</ele>
        <time>2020-06-03T09:31:26Z</time>
      </trkpt>
      <trkpt lat="46.41642" lon="-1.57033">
        <ele>10.2</ele>
        <time>2020-06-03T09:31:27Z</time>
      </trkpt>
      <trkpt lat="46.41644" lon="-1.57041">
        <ele>10.2</ele>
        <time>2020-06-03T09:31:28Z</time>
      </trkpt>
      <trkpt lat="46.41647" lon="-1.57048">
        <ele>10.2</ele>
        <time>2020-06-03T09:31:29Z</time>
      </trkpt>
      <trkpt lat="46.41649" lon="-1.57055">
        <ele>10.2</ele>
        <time>2020-06-03T09:31:30Z</time>
      </trkpt>
      <trkpt lat="46.41653" lon="-1.57063">
        <ele>10.2</ele>
        <time>2020-06-03T09:31:31Z</time>
      </trkpt>
      <trkpt lat="46.41656" lon="-1.57071">
        <ele>10.2</ele>
        <time>2020-06-03T09:31:32Z</time>
      </trkpt>
      <trkpt lat="46.41659" lon="-1.57079">
        <ele>10.2</ele>
        <time>2020-06-03T09:31:33Z</time>
      </trkpt>
      <trkpt lat="46.41662" lon="-1.57087">
        <ele>10.2</ele>
        <time>2020-06-03T09:31:34Z</time>
      </trkpt>
      <trkpt lat="46.41664" lon="-1.57095">
        <ele>10.2</ele>
        <time>2020-06-03T09:31:35Z</time>
      </trkpt>
      <trkpt lat="46.41666" lon="-1.57102">
        <ele>10.2</ele>
        <time>2020-06-03T09:31:36Z</time>
      </trkpt>
      <trkpt lat="46.41669" lon="-1.5711">
        <ele>10.2</ele>
        <time>2020-06-03T09:31:37Z</time>
      </trkpt>
      <trkpt lat="46.41671" lon="-1.57118">
        <ele>10.2</ele>
        <time>2020-06-03T09:31:38Z</time>
      </trkpt>
      <trkpt lat="46.41673" lon="-1.57125">
        <ele>10.2</ele>
        <time>2020-06-03T09:31:39Z</time>
      </trkpt>
      <trkpt lat="46.41674" lon="-1.57134">
        <ele>10.2</ele>
        <time>2020-06-03T09:31:40Z</time>
      </trkpt>
      <trkpt lat="46.41676" lon="-1.57142">
        <ele>10.2</ele>
        <time>2020-06-03T09:31:41Z</time>
      </trkpt>
      <trkpt lat="46.41678" lon="-1.57152">
        <ele>10.2</ele>
        <time>2020-06-03T09:31:42Z</time>
      </trkpt>
      <trkpt lat="46.41679" lon="-1.57159">
        <ele>10.2</ele>
        <time>2020-06-03T09:31:43Z</time>
      </trkpt>
      <trkpt lat="46.4168" lon="-1.57165">
        <ele>10.2</ele>
        <time>2020-06-03T09:31:44Z</time>
      </trkpt>
      <trkpt lat="46.4168" lon="-1.57171">
        <ele>10.2</ele>
        <time>2020-06-03T09:31:45Z</time>
      </trkpt>
      <trkpt lat="46.41681" lon="-1.57177">
        <ele>10.2</ele>
        <time>2020-06-03T09:31:46Z</time>
      </trkpt>
      <trkpt lat="46.41681" lon="-1.57179">
        <ele>10.2</ele>
        <time>2020-06-03T09:31:47Z</time>
      </trkpt>
      <trkpt lat="46.41683" lon="-1.57184">
        <ele>10.2</ele>
        <time>2020-06-03T09:31:48Z</time>
      </trkpt>
      <trkpt lat="46.41688" lon="-1.5719">
        <ele>10.1</ele>
        <time>2020-06-03T09:31:49Z</time>
      </trkpt>
      <trkpt lat="46.41691" lon="-1.57196">
        <ele>10.1</ele>
        <time>2020-06-03T09:31:50Z</time>
      </trkpt>
      <trkpt lat="46.41694" lon="-1.57202">
        <ele>10.1</ele>
        <time>2020-06-03T09:31:51Z</time>
      </trkpt>
      <trkpt lat="46.41698" lon="-1.57208">
        <ele>10.2</ele>
        <time>2020-06-03T09:31:52Z</time>
      </trkpt>
      <trkpt lat="46.41702" lon="-1.57215">
        <ele>10.2</ele>
        <time>2020-06-03T09:31:53Z</time>
      </trkpt>
      <trkpt lat="46.41705" lon="-1.57221">
        <ele>10.2</ele>
        <time>2020-06-03T09:31:54Z</time>
      </trkpt>
      <trkpt lat="46.4171" lon="-1.57229">
        <ele>10.2</ele>
        <time>2020-06-03T09:31:55Z</time>
      </trkpt>
      <trkpt lat="46.41714" lon="-1.57238">
        <ele>10.2</ele>
        <time>2020-06-03T09:31:56Z</time>
      </trkpt>
      <trkpt lat="46.41717" lon="-1.57246">
        <ele>10.3</ele>
        <time>2020-06-03T09:31:57Z</time>
      </trkpt>
      <trkpt lat="46.41719" lon="-1.57254">
        <ele>10.3</ele>
        <time>2020-06-03T09:31:58Z</time>
      </trkpt>
      <trkpt lat="46.41722" lon="-1.5726">
        <ele>10.3</ele>
        <time>2020-06-03T09:31:59Z</time>
      </trkpt>
      <trkpt lat="46.41725" lon="-1.57266">
        <ele>10.3</ele>
        <time>2020-06-03T09:32:00Z</time>
      </trkpt>
      <trkpt lat="46.41729" lon="-1.57271">
        <ele>10.3</ele>
        <time>2020-06-03T09:32:01Z</time>
      </trkpt>
      <trkpt lat="46.41733" lon="-1.57276">
        <ele>10.4</ele>
        <time>2020-06-03T09:32:02Z</time>
      </trkpt>
      <trkpt lat="46.41737" lon="-1.57282">
        <ele>10.4</ele>
        <time>2020-06-03T09:32:03Z</time>
      </trkpt>
      <trkpt lat="46.41741" lon="-1.57288">
        <ele>10.4</ele>
        <time>2020-06-03T09:32:04Z</time>
      </trkpt>
      <trkpt lat="46.41745" lon="-1.57292">
        <ele>10.4</ele>
        <time>2020-06-03T09:32:05Z</time>
      </trkpt>
      <trkpt lat="46.4175" lon="-1.57298">
        <ele>10.4</ele>
        <time>2020-06-03T09:32:06Z</time>
      </trkpt>
      <trkpt lat="46.41754" lon="-1.57305">
        <ele>10.4</ele>
        <time>2020-06-03T09:32:07Z</time>
      </trkpt>
      <trkpt lat="46.41757" lon="-1.57311">
        <ele>10.4</ele>
        <time>2020-06-03T09:32:08Z</time>
      </trkpt>
      <trkpt lat="46.4176" lon="-1.57315">
        <ele>10.4</ele>
        <time>2020-06-03T09:32:09Z</time>
      </trkpt>
      <trkpt lat="46.41764" lon="-1.5732">
        <ele>10.4</ele>
        <time>2020-06-03T09:32:10Z</time>
      </trkpt>
      <trkpt lat="46.41768" lon="-1.57325">
        <ele>10.4</ele>
        <time>2020-06-03T09:32:11Z</time>
      </trkpt>
      <trkpt lat="46.41772" lon="-1.57331">
        <ele>10.5</ele>
        <time>2020-06-03T09:32:12Z</time>
      </trkpt>
      <trkpt lat="46.41776" lon="-1.57337">
        <ele>10.5</ele>
        <time>2020-06-03T09:32:13Z</time>
      </trkpt>
      <trkpt lat="46.4178" lon="-1.57343">
        <ele>10.5</ele>
        <time>2020-06-03T09:32:14Z</time>
      </trkpt>
      <trkpt lat="46.41783" lon="-1.57348">
        <ele>10.5</ele>
        <time>2020-06-03T09:32:15Z</time>
      </trkpt>
      <trkpt lat="46.41788" lon="-1.57355">
        <ele>10.5</ele>
        <time>2020-06-03T09:32:16Z</time>
      </trkpt>
      <trkpt lat="46.41793" lon="-1.57361">
        <ele>10.5</ele>
        <time>2020-06-03T09:32:17Z</time>
      </trkpt>
      <trkpt lat="46.41797" lon="-1.57367">
        <ele>10.5</ele>
        <time>2020-06-03T09:32:18Z</time>
      </trkpt>
      <trkpt lat="46.41799" lon="-1.57372">
        <ele>10.5</ele>
        <time>2020-06-03T09:32:19Z</time>
      </trkpt>
      <trkpt lat="46.41802" lon="-1.57377">
        <ele>10.6</ele>
        <time>2020-06-03T09:32:20Z</time>
      </trkpt>
      <trkpt lat="46.41805" lon="-1.57382">
        <ele>10.6</ele>
        <time>2020-06-03T09:32:21Z</time>
      </trkpt>
      <trkpt lat="46.41808" lon="-1.57386">
        <ele>10.7</ele>
        <time>2020-06-03T09:32:22Z</time>
      </trkpt>
      <trkpt lat="46.41809" lon="-1.57391">
        <ele>10.7</ele>
        <time>2020-06-03T09:32:23Z</time>
      </trkpt>
      <trkpt lat="46.4181" lon="-1.57397">
        <ele>10.8</ele>
        <time>2020-06-03T09:32:24Z</time>
      </trkpt>
      <trkpt lat="46.41812" lon="-1.57401">
        <ele>10.8</ele>
        <time>2020-06-03T09:32:25Z</time>
      </trkpt>
      <trkpt lat="46.41813" lon="-1.57403">
        <ele>10.9</ele>
        <time>2020-06-03T09:32:26Z</time>
      </trkpt>
      <trkpt lat="46.41814" lon="-1.57404">
        <ele>10.9</ele>
        <time>2020-06-03T09:32:27Z</time>
      </trkpt>
      <trkpt lat="46.41815" lon="-1.57406">
        <ele>10.9</ele>
        <time>2020-06-03T09:32:28Z</time>
      </trkpt>
      <trkpt lat="46.41815" lon="-1.57408">
        <ele>11</ele>
        <time>2020-06-03T09:32:29Z</time>
      </trkpt>
      <trkpt lat="46.41815" lon="-1.57411">
        <ele>11</ele>
        <time>2020-06-03T09:32:30Z</time>
      </trkpt>
      <trkpt lat="46.41814" lon="-1.57415">
        <ele>11.1</ele>
        <time>2020-06-03T09:32:31Z</time>
      </trkpt>
      <trkpt lat="46.41813" lon="-1.5742">
        <ele>11.1</ele>
        <time>2020-06-03T09:32:32Z</time>
      </trkpt>
      <trkpt lat="46.41811" lon="-1.57425">
        <ele>11.2</ele>
        <time>2020-06-03T09:32:33Z</time>
      </trkpt>
      <trkpt lat="46.41809" lon="-1.57427">
        <ele>11.2</ele>
        <time>2020-06-03T09:32:34Z</time>
      </trkpt>
      <trkpt lat="46.41806" lon="-1.5743">
        <ele>11.2</ele>
        <time>2020-06-03T09:32:35Z</time>
      </trkpt>
      <trkpt lat="46.41804" lon="-1.57434">
        <ele>11.3</ele>
        <time>2020-06-03T09:32:36Z</time>
      </trkpt>
      <trkpt lat="46.41802" lon="-1.57437">
        <ele>11.3</ele>
        <time>2020-06-03T09:32:37Z</time>
      </trkpt>
      <trkpt lat="46.41799" lon="-1.5744">
        <ele>11.4</ele>
        <time>2020-06-03T09:32:38Z</time>
      </trkpt>
      <trkpt lat="46.41795" lon="-1.57445">
        <ele>11.5</ele>
        <time>2020-06-03T09:32:39Z</time>
      </trkpt>
      <trkpt lat="46.41791" lon="-1.57449">
        <ele>11.5</ele>
        <time>2020-06-03T09:32:40Z</time>
      </trkpt>
      <trkpt lat="46.41789" lon="-1.57454">
        <ele>11.6</ele>
        <time>2020-06-03T09:32:41Z</time>
      </trkpt>
      <trkpt lat="46.41785" lon="-1.57458">
        <ele>11.6</ele>
        <time>2020-06-03T09:32:42Z</time>
      </trkpt>
      <trkpt lat="46.41781" lon="-1.57462">
        <ele>11.7</ele>
        <time>2020-06-03T09:32:43Z</time>
      </trkpt>
      <trkpt lat="46.41776" lon="-1.57467">
        <ele>11.8</ele>
        <time>2020-06-03T09:32:44Z</time>
      </trkpt>
      <trkpt lat="46.41773" lon="-1.5747">
        <ele>11.8</ele>
        <time>2020-06-03T09:32:45Z</time>
      </trkpt>
      <trkpt lat="46.4177" lon="-1.57472">
        <ele>11.9</ele>
        <time>2020-06-03T09:32:46Z</time>
      </trkpt>
      <trkpt lat="46.41768" lon="-1.57475">
        <ele>11.9</ele>
        <time>2020-06-03T09:32:47Z</time>
      </trkpt>
      <trkpt lat="46.41768" lon="-1.57477">
        <ele>11.9</ele>
        <time>2020-06-03T09:32:48Z</time>
      </trkpt>
      <trkpt lat="46.41764" lon="-1.5748">
        <ele>11.9</ele>
        <time>2020-06-03T09:32:49Z</time>
      </trkpt>
      <trkpt lat="46.41763" lon="-1.57481">
        <ele>11.9</ele>
        <time>2020-06-03T09:32:50Z</time>
      </trkpt>
      <trkpt lat="46.4176" lon="-1.57484">
        <ele>11.9</ele>
        <time>2020-06-03T09:32:51Z</time>
      </trkpt>
      <trkpt lat="46.41756" lon="-1.57487">
        <ele>11.9</ele>
        <time>2020-06-03T09:32:52Z</time>
      </trkpt>
      <trkpt lat="46.41751" lon="-1.57492">
        <ele>11.9</ele>
        <time>2020-06-03T09:32:53Z</time>
      </trkpt>
      <trkpt lat="46.41748" lon="-1.57497">
        <ele>11.9</ele>
        <time>2020-06-03T09:32:54Z</time>
      </trkpt>
      <trkpt lat="46.41745" lon="-1.57502">
        <ele>11.9</ele>
        <time>2020-06-03T09:32:55Z</time>
      </trkpt>
      <trkpt lat="46.41741" lon="-1.57506">
        <ele>12</ele>
        <time>2020-06-03T09:32:56Z</time>
      </trkpt>
      <trkpt lat="46.41738" lon="-1.5751">
        <ele>12</ele>
        <time>2020-06-03T09:32:57Z</time>
      </trkpt>
      <trkpt lat="46.41735" lon="-1.57515">
        <ele>12.1</ele>
        <time>2020-06-03T09:32:58Z</time>
      </trkpt>
      <trkpt lat="46.41731" lon="-1.57518">
        <ele>12.1</ele>
        <time>2020-06-03T09:32:59Z</time>
      </trkpt>
      <trkpt lat="46.41727" lon="-1.57523">
        <ele>12.2</ele>
        <time>2020-06-03T09:33:00Z</time>
      </trkpt>
      <trkpt lat="46.41723" lon="-1.57528">
        <ele>12.2</ele>
        <time>2020-06-03T09:33:01Z</time>
      </trkpt>
      <trkpt lat="46.4172" lon="-1.57532">
        <ele>12.2</ele>
        <time>2020-06-03T09:33:02Z</time>
      </trkpt>
      <trkpt lat="46.41717" lon="-1.57534">
        <ele>12.3</ele>
        <time>2020-06-03T09:33:03Z</time>
      </trkpt>
      <trkpt lat="46.41715" lon="-1.5754">
        <ele>12.3</ele>
        <time>2020-06-03T09:33:04Z</time>
      </trkpt>
      <trkpt lat="46.41713" lon="-1.57545">
        <ele>12.3</ele>
        <time>2020-06-03T09:33:05Z</time>
      </trkpt>
      <trkpt lat="46.41711" lon="-1.57548">
        <ele>12.3</ele>
        <time>2020-06-03T09:33:06Z</time>
      </trkpt>
      <trkpt lat="46.41709" lon="-1.5755">
        <ele>12.4</ele>
        <time>2020-06-03T09:33:07Z</time>
      </trkpt>
      <trkpt lat="46.41708" lon="-1.5755">
        <ele>12.4</ele>
        <time>2020-06-03T09:33:08Z</time>
      </trkpt>
      <trkpt lat="46.41705" lon="-1.57553">
        <ele>12.5</ele>
        <time>2020-06-03T09:33:09Z</time>
      </trkpt>
      <trkpt lat="46.41704" lon="-1.57555">
        <ele>12.5</ele>
        <time>2020-06-03T09:33:10Z</time>
      </trkpt>
      <trkpt lat="46.41703" lon="-1.57556">
        <ele>12.5</ele>
        <time>2020-06-03T09:33:11Z</time>
      </trkpt>
      <trkpt lat="46.41701" lon="-1.57557">
        <ele>12.5</ele>
        <time>2020-06-03T09:33:12Z</time>
      </trkpt>
      <trkpt lat="46.417" lon="-1.57557">
        <ele>12.5</ele>
        <time>2020-06-03T09:33:13Z</time>
      </trkpt>
      <trkpt lat="46.41699" lon="-1.57557">
        <ele>12.5</ele>
        <time>2020-06-03T09:33:14Z</time>
      </trkpt>
      <trkpt lat="46.41697" lon="-1.57557">
        <ele>12.5</ele>
        <time>2020-06-03T09:33:15Z</time>
      </trkpt>
      <trkpt lat="46.41696" lon="-1.57557">
        <ele>12.5</ele>
        <time>2020-06-03T09:33:16Z</time>
      </trkpt>
      <trkpt lat="46.41696" lon="-1.57558">
        <ele>12.5</ele>
        <time>2020-06-03T09:33:17Z</time>
      </trkpt>
      <trkpt lat="46.41696" lon="-1.57558">
        <ele>12.5</ele>
        <time>2020-06-03T09:33:18Z</time>
      </trkpt>
      <trkpt lat="46.41696" lon="-1.57558">
        <ele>12.5</ele>
        <time>2020-06-03T09:33:19Z</time>
      </trkpt>
      <trkpt lat="46.41696" lon="-1.57558">
        <ele>12.5</ele>
        <time>2020-06-03T09:33:20Z</time>
      </trkpt>
      <trkpt lat="46.41696" lon="-1.57558">
        <ele>12.5</ele>
        <time>2020-06-03T09:33:21Z</time>
      </trkpt>
      <trkpt lat="46.41696" lon="-1.57558">
        <ele>12.5</ele>
        <time>2020-06-03T09:33:22Z</time>
      </trkpt>
      <trkpt lat="46.41696" lon="-1.57557">
        <ele>12.5</ele>
        <time>2020-06-03T09:33:23Z</time>
      </trkpt>
      <trkpt lat="46.41696" lon="-1.57556">
        <ele>12.5</ele>
        <time>2020-06-03T09:33:24Z</time>
      </trkpt>
      <trkpt lat="46.41697" lon="-1.57556">
        <ele>12.5</ele>
        <time>2020-06-03T09:33:25Z</time>
      </trkpt>
      <trkpt lat="46.41697" lon="-1.57557">
        <ele>12.5</ele>
        <time>2020-06-03T09:33:26Z</time>
      </trkpt>
      <trkpt lat="46.41697" lon="-1.57557">
        <ele>12.5</ele>
        <time>2020-06-03T09:33:27Z</time>
      </trkpt>
      <trkpt lat="46.41697" lon="-1.57557">
        <ele>12.5</ele>
        <time>2020-06-03T09:33:28Z</time>
      </trkpt>
      <trkpt lat="46.41697" lon="-1.57557">
        <ele>12.5</ele>
        <time>2020-06-03T09:33:29Z</time>
      </trkpt>
      <trkpt lat="46.41697" lon="-1.57557">
        <ele>12.5</ele>
        <time>2020-06-03T09:33:30Z</time>
      </trkpt>
      <trkpt lat="46.41697" lon="-1.57557">
        <ele>12.5</ele>
        <time>2020-06-03T09:33:31Z</time>
      </trkpt>
      <trkpt lat="46.41697" lon="-1.57557">
        <ele>12.5</ele>
        <time>2020-06-03T09:33:32Z</time>
      </trkpt>
      <trkpt lat="46.41697" lon="-1.57557">
        <ele>12.5</ele>
        <time>2020-06-03T09:33:33Z</time>
      </trkpt>
      <trkpt lat="46.41697" lon="-1.57557">
        <ele>12.5</ele>
        <time>2020-06-03T09:33:34Z</time>
      </trkpt>
      <trkpt lat="46.41697" lon="-1.57557">
        <ele>12.5</ele>
        <time>2020-06-03T09:33:35Z</time>
      </trkpt>
      <trkpt lat="46.41697" lon="-1.57556">
        <ele>12.5</ele>
        <time>2020-06-03T09:33:36Z</time>
      </trkpt>
      <trkpt lat="46.41697" lon="-1.57556">
        <ele>12.5</ele>
        <time>2020-06-03T09:33:37Z</time>
      </trkpt>
      <trkpt lat="46.41697" lon="-1.57556">
        <ele>12.5</ele>
        <time>2020-06-03T09:33:38Z</time>
      </trkpt>
      <trkpt lat="46.41697" lon="-1.57556">
        <ele>12.5</ele>
        <time>2020-06-03T09:33:39Z</time>
      </trkpt>
      <trkpt lat="46.41697" lon="-1.57556">
        <ele>12.5</ele>
        <time>2020-06-03T09:33:40Z</time>
      </trkpt>
      <trkpt lat="46.41697" lon="-1.57557">
        <ele>12.5</ele>
        <time>2020-06-03T09:33:41Z</time>
      </trkpt>
      <trkpt lat="46.41697" lon="-1.57556">
        <ele>12.5</ele>
        <time>2020-06-03T09:33:42Z</time>
      </trkpt>
      <trkpt lat="46.41697" lon="-1.57556">
        <ele>12.5</ele>
        <time>2020-06-03T09:33:43Z</time>
      </trkpt>
      <trkpt lat="46.41697" lon="-1.57556">
        <ele>12.5</ele>
        <time>2020-06-03T09:33:44Z</time>
      </trkpt>
      <trkpt lat="46.41697" lon="-1.57556">
        <ele>12.5</ele>
        <time>2020-06-03T09:33:45Z</time>
      </trkpt>
      <trkpt lat="46.41696" lon="-1.57556">
        <ele>12.5</ele>
        <time>2020-06-03T09:33:46Z</time>
      </trkpt>
      <trkpt lat="46.41696" lon="-1.57556">
        <ele>12.5</ele>
        <time>2020-06-03T09:33:47Z</time>
      </trkpt>
      <trkpt lat="46.41696" lon="-1.57556">
        <ele>12.5</ele>
        <time>2020-06-03T09:33:48Z</time>
      </trkpt>
      <trkpt lat="46.41695" lon="-1.57557">
        <ele>12.5</ele>
        <time>2020-06-03T09:33:49Z</time>
      </trkpt>
      <trkpt lat="46.41695" lon="-1.57557">
        <ele>12.5</ele>
        <time>2020-06-03T09:33:50Z</time>
      </trkpt>
      <trkpt lat="46.41694" lon="-1.57557">
        <ele>12.5</ele>
        <time>2020-06-03T09:33:51Z</time>
      </trkpt>
      <trkpt lat="46.41694" lon="-1.57557">
        <ele>12.5</ele>
        <time>2020-06-03T09:33:52Z</time>
      </trkpt>
      <trkpt lat="46.41694" lon="-1.57558">
        <ele>12.5</ele>
        <time>2020-06-03T09:33:53Z</time>
      </trkpt>
      <trkpt lat="46.41694" lon="-1.5756">
        <ele>12.5</ele>
        <time>2020-06-03T09:33:54Z</time>
      </trkpt>
      <trkpt lat="46.41693" lon="-1.57561">
        <ele>12.5</ele>
        <time>2020-06-03T09:33:55Z</time>
      </trkpt>
      <trkpt lat="46.41693" lon="-1.57562">
        <ele>12.5</ele>
        <time>2020-06-03T09:33:56Z</time>
      </trkpt>
      <trkpt lat="46.41692" lon="-1.57562">
        <ele>12.5</ele>
        <time>2020-06-03T09:33:57Z</time>
      </trkpt>
      <trkpt lat="46.41691" lon="-1.57563">
        <ele>12.5</ele>
        <time>2020-06-03T09:33:58Z</time>
      </trkpt>
      <trkpt lat="46.4169" lon="-1.57564">
        <ele>12.5</ele>
        <time>2020-06-03T09:33:59Z</time>
      </trkpt>
      <trkpt lat="46.41692" lon="-1.57564">
        <ele>12.5</ele>
        <time>2020-06-03T09:34:00Z</time>
      </trkpt>
      <trkpt lat="46.41692" lon="-1.57564">
        <ele>12.5</ele>
        <time>2020-06-03T09:34:01Z</time>
      </trkpt>
      <trkpt lat="46.41694" lon="-1.57562">
        <ele>12.5</ele>
        <time>2020-06-03T09:34:02Z</time>
      </trkpt>
      <trkpt lat="46.41694" lon="-1.57562">
        <ele>12.5</ele>
        <time>2020-06-03T09:34:03Z</time>
      </trkpt>
      <trkpt lat="46.41694" lon="-1.57562">
        <ele>12.5</ele>
        <time>2020-06-03T09:34:04Z</time>
      </trkpt>
      <trkpt lat="46.41694" lon="-1.57563">
        <ele>12.5</ele>
        <time>2020-06-03T09:34:05Z</time>
      </trkpt>
      <trkpt lat="46.41695" lon="-1.57564">
        <ele>12.5</ele>
        <time>2020-06-03T09:34:06Z</time>
      </trkpt>
      <trkpt lat="46.41695" lon="-1.57564">
        <ele>12.5</ele>
        <time>2020-06-03T09:34:07Z</time>
      </trkpt>
      <trkpt lat="46.41695" lon="-1.57564">
        <ele>12.5</ele>
        <time>2020-06-03T09:34:08Z</time>
      </trkpt>
      <trkpt lat="46.41696" lon="-1.57565">
        <ele>12.5</ele>
        <time>2020-06-03T09:34:09Z</time>
      </trkpt>
      <trkpt lat="46.41697" lon="-1.57565">
        <ele>12.5</ele>
        <time>2020-06-03T09:34:10Z</time>
      </trkpt>
      <trkpt lat="46.41697" lon="-1.57564">
        <ele>12.5</ele>
        <time>2020-06-03T09:34:11Z</time>
      </trkpt>
      <trkpt lat="46.41698" lon="-1.57563">
        <ele>12.4</ele>
        <time>2020-06-03T09:34:12Z</time>
      </trkpt>
      <trkpt lat="46.41699" lon="-1.57562">
        <ele>12.4</ele>
        <time>2020-06-03T09:34:13Z</time>
      </trkpt>
      <trkpt lat="46.417" lon="-1.57562">
        <ele>12.4</ele>
        <time>2020-06-03T09:34:14Z</time>
      </trkpt>
      <trkpt lat="46.417" lon="-1.5756">
        <ele>12.4</ele>
        <time>2020-06-03T09:34:15Z</time>
      </trkpt>
      <trkpt lat="46.41701" lon="-1.57559">
        <ele>12.4</ele>
        <time>2020-06-03T09:34:16Z</time>
      </trkpt>
      <trkpt lat="46.41702" lon="-1.57559">
        <ele>12.4</ele>
        <time>2020-06-03T09:34:17Z</time>
      </trkpt>
      <trkpt lat="46.41702" lon="-1.57557">
        <ele>12.4</ele>
        <time>2020-06-03T09:34:18Z</time>
      </trkpt>
      <trkpt lat="46.41702" lon="-1.57556">
        <ele>12.4</ele>
        <time>2020-06-03T09:34:19Z</time>
      </trkpt>
      <trkpt lat="46.41703" lon="-1.57556">
        <ele>12.4</ele>
        <time>2020-06-03T09:34:20Z</time>
      </trkpt>
      <trkpt lat="46.41703" lon="-1.57555">
        <ele>12.4</ele>
        <time>2020-06-03T09:34:21Z</time>
      </trkpt>
      <trkpt lat="46.41703" lon="-1.57556">
        <ele>12.4</ele>
        <time>2020-06-03T09:34:22Z</time>
      </trkpt>
      <trkpt lat="46.41704" lon="-1.57557">
        <ele>12.4</ele>
        <time>2020-06-03T09:34:23Z</time>
      </trkpt>
      <trkpt lat="46.41703" lon="-1.57558">
        <ele>12.4</ele>
        <time>2020-06-03T09:34:24Z</time>
      </trkpt>
      <trkpt lat="46.41703" lon="-1.57558">
        <ele>12.4</ele>
        <time>2020-06-03T09:34:25Z</time>
      </trkpt>
      <trkpt lat="46.41703" lon="-1.57558">
        <ele>12.4</ele>
        <time>2020-06-03T09:34:26Z</time>
      </trkpt>
      <trkpt lat="46.41703" lon="-1.57558">
        <ele>12.4</ele>
        <time>2020-06-03T09:34:27Z</time>
      </trkpt>
      <trkpt lat="46.41703" lon="-1.57558">
        <ele>12.4</ele>
        <time>2020-06-03T09:34:28Z</time>
      </trkpt>
      <trkpt lat="46.41703" lon="-1.57558">
        <ele>12.4</ele>
        <time>2020-06-03T09:34:29Z</time>
      </trkpt>
      <trkpt lat="46.41703" lon="-1.57558">
        <ele>12.4</ele>
        <time>2020-06-03T09:34:30Z</time>
      </trkpt>
      <trkpt lat="46.41703" lon="-1.57558">
        <ele>12.4</ele>
        <time>2020-06-03T09:34:31Z</time>
      </trkpt>
      <trkpt lat="46.41703" lon="-1.57558">
        <ele>12.4</ele>
        <time>2020-06-03T09:34:32Z</time>
      </trkpt>
      <trkpt lat="46.41703" lon="-1.57558">
        <ele>12.4</ele>
        <time>2020-06-03T09:34:33Z</time>
      </trkpt>
      <trkpt lat="46.41702" lon="-1.57557">
        <ele>12.4</ele>
        <time>2020-06-03T09:34:34Z</time>
      </trkpt>
      <trkpt lat="46.41702" lon="-1.57558">
        <ele>12.4</ele>
        <time>2020-06-03T09:34:35Z</time>
      </trkpt>
      <trkpt lat="46.41703" lon="-1.57557">
        <ele>12.4</ele>
        <time>2020-06-03T09:34:36Z</time>
      </trkpt>
      <trkpt lat="46.41703" lon="-1.57557">
        <ele>12.4</ele>
        <time>2020-06-03T09:34:37Z</time>
      </trkpt>
      <trkpt lat="46.41703" lon="-1.57557">
        <ele>12.4</ele>
        <time>2020-06-03T09:34:38Z</time>
      </trkpt>
      <trkpt lat="46.41703" lon="-1.57558">
        <ele>12.4</ele>
        <time>2020-06-03T09:34:39Z</time>
      </trkpt>
      <trkpt lat="46.41708" lon="-1.57554">
        <ele>12.4</ele>
        <time>2020-06-03T10:09:09Z</time>
      </trkpt>
      <trkpt lat="46.41708" lon="-1.57554">
        <ele>12.4</ele>
        <time>2020-06-03T10:09:10Z</time>
      </trkpt>
      <trkpt lat="46.41707" lon="-1.57553">
        <ele>12.4</ele>
        <time>2020-06-03T10:09:11Z</time>
      </trkpt>
      <trkpt lat="46.41708" lon="-1.57554">
        <ele>12.4</ele>
        <time>2020-06-03T10:09:12Z</time>
      </trkpt>
      <trkpt lat="46.41708" lon="-1.57556">
        <ele>12.4</ele>
        <time>2020-06-03T10:09:13Z</time>
      </trkpt>
      <trkpt lat="46.41708" lon="-1.57556">
        <ele>12.4</ele>
        <time>2020-06-03T10:09:14Z</time>
      </trkpt>
      <trkpt lat="46.41708" lon="-1.57557">
        <ele>12.4</ele>
        <time>2020-06-03T10:09:15Z</time>
      </trkpt>
      <trkpt lat="46.41708" lon="-1.57558">
        <ele>12.4</ele>
        <time>2020-06-03T10:09:16Z</time>
      </trkpt>
      <trkpt lat="46.41708" lon="-1.57557">
        <ele>12.4</ele>
        <time>2020-06-03T10:09:17Z</time>
      </trkpt>
      <trkpt lat="46.41709" lon="-1.57555">
        <ele>12.4</ele>
        <time>2020-06-03T10:09:18Z</time>
      </trkpt>
      <trkpt lat="46.41709" lon="-1.57554">
        <ele>12.4</ele>
        <time>2020-06-03T10:09:19Z</time>
      </trkpt>
      <trkpt lat="46.41709" lon="-1.57553">
        <ele>12.4</ele>
        <time>2020-06-03T10:09:20Z</time>
      </trkpt>
      <trkpt lat="46.41709" lon="-1.57552">
        <ele>12.4</ele>
        <time>2020-06-03T10:09:21Z</time>
      </trkpt>
      <trkpt lat="46.4171" lon="-1.5755">
        <ele>12.4</ele>
        <time>2020-06-03T10:09:22Z</time>
      </trkpt>
      <trkpt lat="46.4171" lon="-1.57549">
        <ele>12.3</ele>
        <time>2020-06-03T10:09:23Z</time>
      </trkpt>
      <trkpt lat="46.4171" lon="-1.57548">
        <ele>12.3</ele>
        <time>2020-06-03T10:09:24Z</time>
      </trkpt>
      <trkpt lat="46.4171" lon="-1.57547">
        <ele>12.3</ele>
        <time>2020-06-03T10:09:59Z</time>
      </trkpt>
      <trkpt lat="46.41711" lon="-1.57545">
        <ele>12.3</ele>
        <time>2020-06-03T10:10:00Z</time>
      </trkpt>
      <trkpt lat="46.41712" lon="-1.57541">
        <ele>12.3</ele>
        <time>2020-06-03T10:10:01Z</time>
      </trkpt>
      <trkpt lat="46.41714" lon="-1.57537">
        <ele>12.3</ele>
        <time>2020-06-03T10:10:02Z</time>
      </trkpt>
      <trkpt lat="46.41717" lon="-1.57533">
        <ele>12.2</ele>
        <time>2020-06-03T10:10:03Z</time>
      </trkpt>
      <trkpt lat="46.4172" lon="-1.57528">
        <ele>12.2</ele>
        <time>2020-06-03T10:10:04Z</time>
      </trkpt>
      <trkpt lat="46.41723" lon="-1.57522">
        <ele>12.2</ele>
        <time>2020-06-03T10:10:05Z</time>
      </trkpt>
      <trkpt lat="46.41727" lon="-1.57516">
        <ele>12.1</ele>
        <time>2020-06-03T10:10:06Z</time>
      </trkpt>
      <trkpt lat="46.4173" lon="-1.57511">
        <ele>12.1</ele>
        <time>2020-06-03T10:10:07Z</time>
      </trkpt>
      <trkpt lat="46.41734" lon="-1.57506">
        <ele>12</ele>
        <time>2020-06-03T10:10:08Z</time>
      </trkpt>
      <trkpt lat="46.41736" lon="-1.57503">
        <ele>12</ele>
        <time>2020-06-03T10:10:09Z</time>
      </trkpt>
      <trkpt lat="46.41738" lon="-1.57499">
        <ele>12</ele>
        <time>2020-06-03T10:10:10Z</time>
      </trkpt>
      <trkpt lat="46.41741" lon="-1.57496">
        <ele>12</ele>
        <time>2020-06-03T10:10:11Z</time>
      </trkpt>
      <trkpt lat="46.41744" lon="-1.57493">
        <ele>11.9</ele>
        <time>2020-06-03T10:10:12Z</time>
      </trkpt>
      <trkpt lat="46.41746" lon="-1.57489">
        <ele>11.9</ele>
        <time>2020-06-03T10:10:13Z</time>
      </trkpt>
      <trkpt lat="46.41747" lon="-1.57488">
        <ele>11.9</ele>
        <time>2020-06-03T10:10:14Z</time>
      </trkpt>
      <trkpt lat="46.41748" lon="-1.57487">
        <ele>11.9</ele>
        <time>2020-06-03T10:10:15Z</time>
      </trkpt>
      <trkpt lat="46.41749" lon="-1.57486">
        <ele>11.9</ele>
        <time>2020-06-03T10:10:16Z</time>
      </trkpt>
      <trkpt lat="46.4175" lon="-1.57485">
        <ele>11.9</ele>
        <time>2020-06-03T10:10:17Z</time>
      </trkpt>
      <trkpt lat="46.4175" lon="-1.57484">
        <ele>11.9</ele>
        <time>2020-06-03T10:10:18Z</time>
      </trkpt>
      <trkpt lat="46.41751" lon="-1.57483">
        <ele>11.9</ele>
        <time>2020-06-03T10:10:19Z</time>
      </trkpt>
      <trkpt lat="46.41754" lon="-1.5748">
        <ele>11.9</ele>
        <time>2020-06-03T10:10:20Z</time>
      </trkpt>
      <trkpt lat="46.41755" lon="-1.57479">
        <ele>11.9</ele>
        <time>2020-06-03T10:10:21Z</time>
      </trkpt>
      <trkpt lat="46.41757" lon="-1.57475">
        <ele>11.9</ele>
        <time>2020-06-03T10:10:22Z</time>
      </trkpt>
      <trkpt lat="46.41757" lon="-1.57474">
        <ele>11.9</ele>
        <time>2020-06-03T10:10:23Z</time>
      </trkpt>
      <trkpt lat="46.41759" lon="-1.5747">
        <ele>11.9</ele>
        <time>2020-06-03T10:10:24Z</time>
      </trkpt>
      <trkpt lat="46.4176" lon="-1.57469">
        <ele>11.9</ele>
        <time>2020-06-03T10:10:25Z</time>
      </trkpt>
      <trkpt lat="46.41764" lon="-1.57466">
        <ele>11.9</ele>
        <time>2020-06-03T10:10:26Z</time>
      </trkpt>
      <trkpt lat="46.41766" lon="-1.57465">
        <ele>11.8</ele>
        <time>2020-06-03T10:10:27Z</time>
      </trkpt>
      <trkpt lat="46.41769" lon="-1.57461">
        <ele>11.8</ele>
        <time>2020-06-03T10:10:28Z</time>
      </trkpt>
      <trkpt lat="46.41773" lon="-1.57458">
        <ele>11.7</ele>
        <time>2020-06-03T10:10:29Z</time>
      </trkpt>
      <trkpt lat="46.41777" lon="-1.57455">
        <ele>11.7</ele>
        <time>2020-06-03T10:10:30Z</time>
      </trkpt>
      <trkpt lat="46.41781" lon="-1.57451">
        <ele>11.6</ele>
        <time>2020-06-03T10:10:31Z</time>
      </trkpt>
      <trkpt lat="46.41785" lon="-1.57447">
        <ele>11.5</ele>
        <time>2020-06-03T10:10:32Z</time>
      </trkpt>
      <trkpt lat="46.41788" lon="-1.57443">
        <ele>11.5</ele>
        <time>2020-06-03T10:10:33Z</time>
      </trkpt>
      <trkpt lat="46.41792" lon="-1.57439">
        <ele>11.4</ele>
        <time>2020-06-03T10:10:34Z</time>
      </trkpt>
      <trkpt lat="46.41795" lon="-1.57434">
        <ele>11.3</ele>
        <time>2020-06-03T10:10:35Z</time>
      </trkpt>
      <trkpt lat="46.41799" lon="-1.5743">
        <ele>11.2</ele>
        <time>2020-06-03T10:10:36Z</time>
      </trkpt>
      <trkpt lat="46.41802" lon="-1.57427">
        <ele>11.2</ele>
        <time>2020-06-03T10:10:37Z</time>
      </trkpt>
      <trkpt lat="46.41805" lon="-1.57423">
        <ele>11.1</ele>
        <time>2020-06-03T10:10:38Z</time>
      </trkpt>
      <trkpt lat="46.41807" lon="-1.57419">
        <ele>11.1</ele>
        <time>2020-06-03T10:10:39Z</time>
      </trkpt>
      <trkpt lat="46.41808" lon="-1.57415">
        <ele>11.1</ele>
        <time>2020-06-03T10:10:40Z</time>
      </trkpt>
      <trkpt lat="46.41811" lon="-1.57411">
        <ele>11</ele>
        <time>2020-06-03T10:10:41Z</time>
      </trkpt>
      <trkpt lat="46.41812" lon="-1.5741">
        <ele>11</ele>
        <time>2020-06-03T10:10:42Z</time>
      </trkpt>
      <trkpt lat="46.41813" lon="-1.57409">
        <ele>11</ele>
        <time>2020-06-03T10:10:43Z</time>
      </trkpt>
      <trkpt lat="46.41815" lon="-1.57408">
        <ele>11.1</ele>
        <time>2020-06-03T10:10:44Z</time>
      </trkpt>
      <trkpt lat="46.41816" lon="-1.57408">
        <ele>11.1</ele>
        <time>2020-06-03T10:10:45Z</time>
      </trkpt>
      <trkpt lat="46.41817" lon="-1.57409">
        <ele>11.1</ele>
        <time>2020-06-03T10:10:46Z</time>
      </trkpt>
      <trkpt lat="46.41817" lon="-1.57409">
        <ele>11.1</ele>
        <time>2020-06-03T10:10:47Z</time>
      </trkpt>
      <trkpt lat="46.41818" lon="-1.57411">
        <ele>11.1</ele>
        <time>2020-06-03T10:10:48Z</time>
      </trkpt>
      <trkpt lat="46.41817" lon="-1.57416">
        <ele>11.1</ele>
        <time>2020-06-03T10:10:49Z</time>
      </trkpt>
      <trkpt lat="46.41817" lon="-1.57417">
        <ele>11.2</ele>
        <time>2020-06-03T10:10:50Z</time>
      </trkpt>
      <trkpt lat="46.41813" lon="-1.57419">
        <ele>11.2</ele>
        <time>2020-06-03T10:10:51Z</time>
      </trkpt>
      <trkpt lat="46.41812" lon="-1.5742">
        <ele>11.2</ele>
        <time>2020-06-03T10:10:52Z</time>
      </trkpt>
      <trkpt lat="46.41809" lon="-1.57423">
        <ele>11.2</ele>
        <time>2020-06-03T10:10:53Z</time>
      </trkpt>
      <trkpt lat="46.41808" lon="-1.57424">
        <ele>11.3</ele>
        <time>2020-06-03T10:10:54Z</time>
      </trkpt>
      <trkpt lat="46.41806" lon="-1.57428">
        <ele>11.3</ele>
        <time>2020-06-03T10:10:55Z</time>
      </trkpt>
      <trkpt lat="46.41805" lon="-1.57429">
        <ele>11.3</ele>
        <time>2020-06-03T10:10:56Z</time>
      </trkpt>
      <trkpt lat="46.41802" lon="-1.57432">
        <ele>11.4</ele>
        <time>2020-06-03T10:10:57Z</time>
      </trkpt>
      <trkpt lat="46.41801" lon="-1.57434">
        <ele>11.4</ele>
        <time>2020-06-03T10:10:58Z</time>
      </trkpt>
      <trkpt lat="46.41799" lon="-1.57437">
        <ele>11.4</ele>
        <time>2020-06-03T10:10:59Z</time>
      </trkpt>
      <trkpt lat="46.41798" lon="-1.57439">
        <ele>11.4</ele>
        <time>2020-06-03T10:11:00Z</time>
      </trkpt>
      <trkpt lat="46.41795" lon="-1.57442">
        <ele>11.5</ele>
        <time>2020-06-03T10:11:01Z</time>
      </trkpt>
      <trkpt lat="46.41794" lon="-1.57443">
        <ele>11.5</ele>
        <time>2020-06-03T10:11:02Z</time>
      </trkpt>
      <trkpt lat="46.41792" lon="-1.57446">
        <ele>11.5</ele>
        <time>2020-06-03T10:11:03Z</time>
      </trkpt>
      <trkpt lat="46.41791" lon="-1.57447">
        <ele>11.6</ele>
        <time>2020-06-03T10:11:04Z</time>
      </trkpt>
      <trkpt lat="46.41788" lon="-1.5745">
        <ele>11.6</ele>
        <time>2020-06-03T10:11:05Z</time>
      </trkpt>
      <trkpt lat="46.41785" lon="-1.57453">
        <ele>11.7</ele>
        <time>2020-06-03T10:11:06Z</time>
      </trkpt>
      <trkpt lat="46.41782" lon="-1.57455">
        <ele>11.7</ele>
        <time>2020-06-03T10:11:07Z</time>
      </trkpt>
      <trkpt lat="46.4178" lon="-1.57458">
        <ele>11.7</ele>
        <time>2020-06-03T10:11:08Z</time>
      </trkpt>
      <trkpt lat="46.41777" lon="-1.57461">
        <ele>11.8</ele>
        <time>2020-06-03T10:11:09Z</time>
      </trkpt>
      <trkpt lat="46.41775" lon="-1.57465">
        <ele>11.8</ele>
        <time>2020-06-03T10:11:10Z</time>
      </trkpt>
      <trkpt lat="46.41773" lon="-1.57468">
        <ele>11.8</ele>
        <time>2020-06-03T10:11:11Z</time>
      </trkpt>
      <trkpt lat="46.41771" lon="-1.57472">
        <ele>11.9</ele>
        <time>2020-06-03T10:11:12Z</time>
      </trkpt>
      <trkpt lat="46.4177" lon="-1.57474">
        <ele>11.9</ele>
        <time>2020-06-03T10:11:13Z</time>
      </trkpt>
      <trkpt lat="46.4177" lon="-1.57477">
        <ele>11.9</ele>
        <time>2020-06-03T10:11:14Z</time>
      </trkpt>
      <trkpt lat="46.4177" lon="-1.57479">
        <ele>11.9</ele>
        <time>2020-06-03T10:11:15Z</time>
      </trkpt>
      <trkpt lat="46.41771" lon="-1.57484">
        <ele>11.9</ele>
        <time>2020-06-03T10:11:16Z</time>
      </trkpt>
      <trkpt lat="46.4177" lon="-1.57485">
        <ele>11.9</ele>
        <time>2020-06-03T10:11:17Z</time>
      </trkpt>
      <trkpt lat="46.41771" lon="-1.57491">
        <ele>12</ele>
        <time>2020-06-03T10:11:18Z</time>
      </trkpt>
      <trkpt lat="46.41771" lon="-1.57492">
        <ele>11.9</ele>
        <time>2020-06-03T10:11:19Z</time>
      </trkpt>
      <trkpt lat="46.41772" lon="-1.57494">
        <ele>11.9</ele>
        <time>2020-06-03T10:11:20Z</time>
      </trkpt>
      <trkpt lat="46.41773" lon="-1.57497">
        <ele>11.9</ele>
        <time>2020-06-03T10:11:21Z</time>
      </trkpt>
      <trkpt lat="46.41773" lon="-1.57499">
        <ele>11.9</ele>
        <time>2020-06-03T10:11:22Z</time>
      </trkpt>
      <trkpt lat="46.41774" lon="-1.57501">
        <ele>11.9</ele>
        <time>2020-06-03T10:11:23Z</time>
      </trkpt>
      <trkpt lat="46.41775" lon="-1.57504">
        <ele>11.9</ele>
        <time>2020-06-03T10:11:24Z</time>
      </trkpt>
      <trkpt lat="46.41775" lon="-1.57505">
        <ele>11.9</ele>
        <time>2020-06-03T10:11:25Z</time>
      </trkpt>
      <trkpt lat="46.41776" lon="-1.57506">
        <ele>11.9</ele>
        <time>2020-06-03T10:11:26Z</time>
      </trkpt>
      <trkpt lat="46.41776" lon="-1.57508">
        <ele>11.9</ele>
        <time>2020-06-03T10:11:27Z</time>
      </trkpt>
      <trkpt lat="46.41777" lon="-1.57509">
        <ele>11.9</ele>
        <time>2020-06-03T10:11:28Z</time>
      </trkpt>
      <trkpt lat="46.41777" lon="-1.57512">
        <ele>11.9</ele>
        <time>2020-06-03T10:11:29Z</time>
      </trkpt>
      <trkpt lat="46.41777" lon="-1.57513">
        <ele>11.9</ele>
        <time>2020-06-03T10:11:30Z</time>
      </trkpt>
      <trkpt lat="46.41778" lon="-1.57514">
        <ele>11.9</ele>
        <time>2020-06-03T10:11:31Z</time>
      </trkpt>
      <trkpt lat="46.41779" lon="-1.57517">
        <ele>11.9</ele>
        <time>2020-06-03T10:11:32Z</time>
      </trkpt>
      <trkpt lat="46.41779" lon="-1.57518">
        <ele>11.9</ele>
        <time>2020-06-03T10:11:33Z</time>
      </trkpt>
      <trkpt lat="46.4178" lon="-1.57519">
        <ele>11.9</ele>
        <time>2020-06-03T10:11:34Z</time>
      </trkpt>
      <trkpt lat="46.41781" lon="-1.57524">
        <ele>11.9</ele>
        <time>2020-06-03T10:11:35Z</time>
      </trkpt>
      <trkpt lat="46.41781" lon="-1.57526">
        <ele>11.9</ele>
        <time>2020-06-03T10:11:36Z</time>
      </trkpt>
      <trkpt lat="46.41782" lon="-1.5753">
        <ele>11.9</ele>
        <time>2020-06-03T10:11:37Z</time>
      </trkpt>
      <trkpt lat="46.41783" lon="-1.57535">
        <ele>11.9</ele>
        <time>2020-06-03T10:11:38Z</time>
      </trkpt>
      <trkpt lat="46.41783" lon="-1.57536">
        <ele>11.9</ele>
        <time>2020-06-03T10:11:39Z</time>
      </trkpt>
      <trkpt lat="46.41784" lon="-1.57542">
        <ele>11.9</ele>
        <time>2020-06-03T10:11:40Z</time>
      </trkpt>
      <trkpt lat="46.41785" lon="-1.57544">
        <ele>11.9</ele>
        <time>2020-06-03T10:11:41Z</time>
      </trkpt>
      <trkpt lat="46.41786" lon="-1.57548">
        <ele>11.9</ele>
        <time>2020-06-03T10:11:42Z</time>
      </trkpt>
      <trkpt lat="46.41786" lon="-1.5755">
        <ele>11.9</ele>
        <time>2020-06-03T10:11:43Z</time>
      </trkpt>
      <trkpt lat="46.41787" lon="-1.57555">
        <ele>11.9</ele>
        <time>2020-06-03T10:11:44Z</time>
      </trkpt>
      <trkpt lat="46.41787" lon="-1.57556">
        <ele>11.9</ele>
        <time>2020-06-03T10:11:45Z</time>
      </trkpt>
      <trkpt lat="46.41787" lon="-1.57559">
        <ele>11.9</ele>
        <time>2020-06-03T10:11:46Z</time>
      </trkpt>
      <trkpt lat="46.41787" lon="-1.57561">
        <ele>11.9</ele>
        <time>2020-06-03T10:11:47Z</time>
      </trkpt>
      <trkpt lat="46.41787" lon="-1.57566">
        <ele>11.9</ele>
        <time>2020-06-03T10:11:48Z</time>
      </trkpt>
      <trkpt lat="46.41787" lon="-1.57567">
        <ele>11.9</ele>
        <time>2020-06-03T10:11:49Z</time>
      </trkpt>
      <trkpt lat="46.41786" lon="-1.57573">
        <ele>11.9</ele>
        <time>2020-06-03T10:11:50Z</time>
      </trkpt>
      <trkpt lat="46.41786" lon="-1.57574">
        <ele>11.9</ele>
        <time>2020-06-03T10:11:51Z</time>
      </trkpt>
      <trkpt lat="46.41785" lon="-1.5758">
        <ele>11.9</ele>
        <time>2020-06-03T10:11:52Z</time>
      </trkpt>
      <trkpt lat="46.41785" lon="-1.57582">
        <ele>11.9</ele>
        <time>2020-06-03T10:11:53Z</time>
      </trkpt>
      <trkpt lat="46.41784" lon="-1.57586">
        <ele>11.9</ele>
        <time>2020-06-03T10:11:54Z</time>
      </trkpt>
      <trkpt lat="46.41784" lon="-1.57588">
        <ele>11.9</ele>
        <time>2020-06-03T10:11:55Z</time>
      </trkpt>
      <trkpt lat="46.41783" lon="-1.57592">
        <ele>11.9</ele>
        <time>2020-06-03T10:11:56Z</time>
      </trkpt>
      <trkpt lat="46.41783" lon="-1.57593">
        <ele>11.9</ele>
        <time>2020-06-03T10:11:57Z</time>
      </trkpt>
      <trkpt lat="46.41783" lon="-1.57596">
        <ele>11.9</ele>
        <time>2020-06-03T10:11:58Z</time>
      </trkpt>
      <trkpt lat="46.41782" lon="-1.57598">
        <ele>11.9</ele>
        <time>2020-06-03T10:11:59Z</time>
      </trkpt>
      <trkpt lat="46.41782" lon="-1.576">
        <ele>11.9</ele>
        <time>2020-06-03T10:12:00Z</time>
      </trkpt>
      <trkpt lat="46.41781" lon="-1.576">
        <ele>11.9</ele>
        <time>2020-06-03T10:12:01Z</time>
      </trkpt>
      <trkpt lat="46.4178" lon="-1.57601">
        <ele>11.9</ele>
        <time>2020-06-03T10:12:02Z</time>
      </trkpt>
      <trkpt lat="46.41779" lon="-1.576">
        <ele>11.9</ele>
        <time>2020-06-03T10:12:03Z</time>
      </trkpt>
      <trkpt lat="46.41778" lon="-1.57597">
        <ele>11.9</ele>
        <time>2020-06-03T10:12:04Z</time>
      </trkpt>
      <trkpt lat="46.41779" lon="-1.57592">
        <ele>11.9</ele>
        <time>2020-06-03T10:12:05Z</time>
      </trkpt>
      <trkpt lat="46.41779" lon="-1.57592">
        <ele>11.9</ele>
        <time>2020-06-03T10:12:06Z</time>
      </trkpt>
      <trkpt lat="46.41778" lon="-1.57592">
        <ele>11.9</ele>
        <time>2020-06-03T10:12:07Z</time>
      </trkpt>
      <trkpt lat="46.41778" lon="-1.57588">
        <ele>11.9</ele>
        <time>2020-06-03T10:12:08Z</time>
      </trkpt>
      <trkpt lat="46.41779" lon="-1.57583">
        <ele>11.9</ele>
        <time>2020-06-03T10:12:09Z</time>
      </trkpt>
      <trkpt lat="46.41779" lon="-1.57581">
        <ele>11.9</ele>
        <time>2020-06-03T10:12:10Z</time>
      </trkpt>
      <trkpt lat="46.4178" lon="-1.57577">
        <ele>11.9</ele>
        <time>2020-06-03T10:12:11Z</time>
      </trkpt>
      <trkpt lat="46.41781" lon="-1.57571">
        <ele>11.9</ele>
        <time>2020-06-03T10:12:12Z</time>
      </trkpt>
      <trkpt lat="46.41781" lon="-1.57567">
        <ele>11.9</ele>
        <time>2020-06-03T10:12:13Z</time>
      </trkpt>
      <trkpt lat="46.4178" lon="-1.57561">
        <ele>11.9</ele>
        <time>2020-06-03T10:12:14Z</time>
      </trkpt>
      <trkpt lat="46.41782" lon="-1.57558">
        <ele>11.9</ele>
        <time>2020-06-03T10:12:15Z</time>
      </trkpt>
      <trkpt lat="46.41785" lon="-1.57557">
        <ele>11.9</ele>
        <time>2020-06-03T10:12:16Z</time>
      </trkpt>
      <trkpt lat="46.41788" lon="-1.57558">
        <ele>11.8</ele>
        <time>2020-06-03T10:12:17Z</time>
      </trkpt>
      <trkpt lat="46.41792" lon="-1.57557">
        <ele>11.8</ele>
        <time>2020-06-03T10:12:18Z</time>
      </trkpt>
      <trkpt lat="46.41794" lon="-1.57556">
        <ele>11.8</ele>
        <time>2020-06-03T10:12:19Z</time>
      </trkpt>
      <trkpt lat="46.41797" lon="-1.57552">
        <ele>11.8</ele>
        <time>2020-06-03T10:12:20Z</time>
      </trkpt>
      <trkpt lat="46.41802" lon="-1.57551">
        <ele>11.8</ele>
        <time>2020-06-03T10:12:21Z</time>
      </trkpt>
      <trkpt lat="46.41806" lon="-1.57551">
        <ele>11.8</ele>
        <time>2020-06-03T10:12:22Z</time>
      </trkpt>
      <trkpt lat="46.41811" lon="-1.57549">
        <ele>11.8</ele>
        <time>2020-06-03T10:12:23Z</time>
      </trkpt>
      <trkpt lat="46.41816" lon="-1.57547">
        <ele>11.8</ele>
        <time>2020-06-03T10:12:24Z</time>
      </trkpt>
      <trkpt lat="46.41821" lon="-1.57546">
        <ele>11.9</ele>
        <time>2020-06-03T10:12:25Z</time>
      </trkpt>
      <trkpt lat="46.41827" lon="-1.57543">
        <ele>11.9</ele>
        <time>2020-06-03T10:12:26Z</time>
      </trkpt>
      <trkpt lat="46.41831" lon="-1.57539">
        <ele>11.9</ele>
        <time>2020-06-03T10:12:27Z</time>
      </trkpt>
      <trkpt lat="46.41836" lon="-1.57537">
        <ele>11.9</ele>
        <time>2020-06-03T10:12:28Z</time>
      </trkpt>
      <trkpt lat="46.4184" lon="-1.57535">
        <ele>11.9</ele>
        <time>2020-06-03T10:12:29Z</time>
      </trkpt>
      <trkpt lat="46.41844" lon="-1.57533">
        <ele>11.9</ele>
        <time>2020-06-03T10:12:30Z</time>
      </trkpt>
      <trkpt lat="46.41849" lon="-1.57531">
        <ele>11.9</ele>
        <time>2020-06-03T10:12:31Z</time>
      </trkpt>
      <trkpt lat="46.41853" lon="-1.57528">
        <ele>11.8</ele>
        <time>2020-06-03T10:12:32Z</time>
      </trkpt>
      <trkpt lat="46.41858" lon="-1.57526">
        <ele>11.8</ele>
        <time>2020-06-03T10:12:33Z</time>
      </trkpt>
      <trkpt lat="46.41863" lon="-1.57524">
        <ele>11.8</ele>
        <time>2020-06-03T10:12:34Z</time>
      </trkpt>
      <trkpt lat="46.41867" lon="-1.57521">
        <ele>11.8</ele>
        <time>2020-06-03T10:12:35Z</time>
      </trkpt>
      <trkpt lat="46.41872" lon="-1.57518">
        <ele>11.8</ele>
        <time>2020-06-03T10:12:36Z</time>
      </trkpt>
      <trkpt lat="46.41877" lon="-1.57517">
        <ele>11.8</ele>
        <time>2020-06-03T10:12:37Z</time>
      </trkpt>
      <trkpt lat="46.41882" lon="-1.57514">
        <ele>11.8</ele>
        <time>2020-06-03T10:12:38Z</time>
      </trkpt>
      <trkpt lat="46.41887" lon="-1.57512">
        <ele>11.8</ele>
        <time>2020-06-03T10:12:39Z</time>
      </trkpt>
      <trkpt lat="46.41891" lon="-1.57509">
        <ele>11.8</ele>
        <time>2020-06-03T10:12:40Z</time>
      </trkpt>
      <trkpt lat="46.41896" lon="-1.57507">
        <ele>11.8</ele>
        <time>2020-06-03T10:12:41Z</time>
      </trkpt>
      <trkpt lat="46.41901" lon="-1.57505">
        <ele>11.8</ele>
        <time>2020-06-03T10:12:42Z</time>
      </trkpt>
      <trkpt lat="46.41905" lon="-1.57502">
        <ele>11.8</ele>
        <time>2020-06-03T10:12:43Z</time>
      </trkpt>
      <trkpt lat="46.41909" lon="-1.57499">
        <ele>11.8</ele>
        <time>2020-06-03T10:12:44Z</time>
      </trkpt>
      <trkpt lat="46.41913" lon="-1.57495">
        <ele>11.8</ele>
        <time>2020-06-03T10:12:45Z</time>
      </trkpt>
      <trkpt lat="46.41918" lon="-1.57493">
        <ele>11.8</ele>
        <time>2020-06-03T10:12:46Z</time>
      </trkpt>
      <trkpt lat="46.41922" lon="-1.5749">
        <ele>11.8</ele>
        <time>2020-06-03T10:12:47Z</time>
      </trkpt>
      <trkpt lat="46.41927" lon="-1.57488">
        <ele>11.8</ele>
        <time>2020-06-03T10:12:48Z</time>
      </trkpt>
      <trkpt lat="46.41932" lon="-1.57486">
        <ele>11.8</ele>
        <time>2020-06-03T10:12:49Z</time>
      </trkpt>
      <trkpt lat="46.41937" lon="-1.57483">
        <ele>11.8</ele>
        <time>2020-06-03T10:12:50Z</time>
      </trkpt>
      <trkpt lat="46.41941" lon="-1.5748">
        <ele>11.8</ele>
        <time>2020-06-03T10:12:51Z</time>
      </trkpt>
      <trkpt lat="46.41945" lon="-1.57477">
        <ele>11.8</ele>
        <time>2020-06-03T10:12:52Z</time>
      </trkpt>
      <trkpt lat="46.41949" lon="-1.57474">
        <ele>11.8</ele>
        <time>2020-06-03T10:12:53Z</time>
      </trkpt>
      <trkpt lat="46.41954" lon="-1.57472">
        <ele>11.9</ele>
        <time>2020-06-03T10:12:54Z</time>
      </trkpt>
      <trkpt lat="46.41958" lon="-1.57469">
        <ele>12</ele>
        <time>2020-06-03T10:12:55Z</time>
      </trkpt>
      <trkpt lat="46.41963" lon="-1.57467">
        <ele>12.1</ele>
        <time>2020-06-03T10:12:56Z</time>
      </trkpt>
      <trkpt lat="46.41967" lon="-1.57464">
        <ele>12.1</ele>
        <time>2020-06-03T10:12:57Z</time>
      </trkpt>
      <trkpt lat="46.41971" lon="-1.57462">
        <ele>12.2</ele>
        <time>2020-06-03T10:12:58Z</time>
      </trkpt>
      <trkpt lat="46.41976" lon="-1.57459">
        <ele>12.2</ele>
        <time>2020-06-03T10:12:59Z</time>
      </trkpt>
      <trkpt lat="46.4198" lon="-1.57456">
        <ele>12.2</ele>
        <time>2020-06-03T10:13:00Z</time>
      </trkpt>
      <trkpt lat="46.41984" lon="-1.57453">
        <ele>12.2</ele>
        <time>2020-06-03T10:13:01Z</time>
      </trkpt>
      <trkpt lat="46.41987" lon="-1.57451">
        <ele>12.2</ele>
        <time>2020-06-03T10:13:02Z</time>
      </trkpt>
      <trkpt lat="46.41991" lon="-1.57448">
        <ele>12.3</ele>
        <time>2020-06-03T10:13:03Z</time>
      </trkpt>
      <trkpt lat="46.41995" lon="-1.57446">
        <ele>12.3</ele>
        <time>2020-06-03T10:13:04Z</time>
      </trkpt>
      <trkpt lat="46.41999" lon="-1.57444">
        <ele>12.4</ele>
        <time>2020-06-03T10:13:05Z</time>
      </trkpt>
      <trkpt lat="46.42002" lon="-1.57442">
        <ele>12.4</ele>
        <time>2020-06-03T10:13:06Z</time>
      </trkpt>
      <trkpt lat="46.42006" lon="-1.5744">
        <ele>12.5</ele>
        <time>2020-06-03T10:13:07Z</time>
      </trkpt>
      <trkpt lat="46.42009" lon="-1.57438">
        <ele>12.5</ele>
        <time>2020-06-03T10:13:08Z</time>
      </trkpt>
      <trkpt lat="46.42012" lon="-1.57436">
        <ele>12.5</ele>
        <time>2020-06-03T10:13:09Z</time>
      </trkpt>
      <trkpt lat="46.42016" lon="-1.57434">
        <ele>12.6</ele>
        <time>2020-06-03T10:13:10Z</time>
      </trkpt>
      <trkpt lat="46.42019" lon="-1.57433">
        <ele>12.6</ele>
        <time>2020-06-03T10:13:11Z</time>
      </trkpt>
      <trkpt lat="46.42022" lon="-1.5743">
        <ele>12.7</ele>
        <time>2020-06-03T10:13:12Z</time>
      </trkpt>
      <trkpt lat="46.42025" lon="-1.57429">
        <ele>12.8</ele>
        <time>2020-06-03T10:13:13Z</time>
      </trkpt>
      <trkpt lat="46.42028" lon="-1.57428">
        <ele>12.8</ele>
        <time>2020-06-03T10:13:14Z</time>
      </trkpt>
      <trkpt lat="46.42031" lon="-1.57428">
        <ele>12.8</ele>
        <time>2020-06-03T10:13:15Z</time>
      </trkpt>
      <trkpt lat="46.42033" lon="-1.57431">
        <ele>12.8</ele>
        <time>2020-06-03T10:13:16Z</time>
      </trkpt>
      <trkpt lat="46.42033" lon="-1.57437">
        <ele>12.7</ele>
        <time>2020-06-03T10:13:17Z</time>
      </trkpt>
      <trkpt lat="46.42033" lon="-1.57442">
        <ele>12.7</ele>
        <time>2020-06-03T10:13:18Z</time>
      </trkpt>
      <trkpt lat="46.42033" lon="-1.57448">
        <ele>12.7</ele>
        <time>2020-06-03T10:13:19Z</time>
      </trkpt>
      <trkpt lat="46.42033" lon="-1.57455">
        <ele>12.6</ele>
        <time>2020-06-03T10:13:20Z</time>
      </trkpt>
      <trkpt lat="46.42032" lon="-1.57463">
        <ele>12.6</ele>
        <time>2020-06-03T10:13:21Z</time>
      </trkpt>
      <trkpt lat="46.42032" lon="-1.5747">
        <ele>12.5</ele>
        <time>2020-06-03T10:13:22Z</time>
      </trkpt>
      <trkpt lat="46.42032" lon="-1.57478">
        <ele>12.4</ele>
        <time>2020-06-03T10:13:23Z</time>
      </trkpt>
      <trkpt lat="46.42033" lon="-1.57486">
        <ele>12.4</ele>
        <time>2020-06-03T10:13:24Z</time>
      </trkpt>
      <trkpt lat="46.42033" lon="-1.57494">
        <ele>12.2</ele>
        <time>2020-06-03T10:13:25Z</time>
      </trkpt>
      <trkpt lat="46.42034" lon="-1.57502">
        <ele>12.2</ele>
        <time>2020-06-03T10:13:26Z</time>
      </trkpt>
      <trkpt lat="46.42036" lon="-1.5751">
        <ele>12.1</ele>
        <time>2020-06-03T10:13:27Z</time>
      </trkpt>
      <trkpt lat="46.42037" lon="-1.57518">
        <ele>12</ele>
        <time>2020-06-03T10:13:28Z</time>
      </trkpt>
      <trkpt lat="46.42038" lon="-1.57527">
        <ele>12</ele>
        <time>2020-06-03T10:13:29Z</time>
      </trkpt>
      <trkpt lat="46.42039" lon="-1.57535">
        <ele>11.9</ele>
        <time>2020-06-03T10:13:30Z</time>
      </trkpt>
      <trkpt lat="46.4204" lon="-1.57544">
        <ele>11.8</ele>
        <time>2020-06-03T10:13:31Z</time>
      </trkpt>
      <trkpt lat="46.4204" lon="-1.57552">
        <ele>11.8</ele>
        <time>2020-06-03T10:13:32Z</time>
      </trkpt>
      <trkpt lat="46.42042" lon="-1.57559">
        <ele>11.7</ele>
        <time>2020-06-03T10:13:33Z</time>
      </trkpt>
      <trkpt lat="46.42044" lon="-1.57567">
        <ele>11.7</ele>
        <time>2020-06-03T10:13:34Z</time>
      </trkpt>
      <trkpt lat="46.42044" lon="-1.57574">
        <ele>11.7</ele>
        <time>2020-06-03T10:13:35Z</time>
      </trkpt>
      <trkpt lat="46.42045" lon="-1.57581">
        <ele>11.7</ele>
        <time>2020-06-03T10:13:36Z</time>
      </trkpt>
      <trkpt lat="46.42046" lon="-1.57587">
        <ele>11.7</ele>
        <time>2020-06-03T10:13:37Z</time>
      </trkpt>
      <trkpt lat="46.42046" lon="-1.57593">
        <ele>11.6</ele>
        <time>2020-06-03T10:13:38Z</time>
      </trkpt>
      <trkpt lat="46.42047" lon="-1.57599">
        <ele>11.6</ele>
        <time>2020-06-03T10:13:39Z</time>
      </trkpt>
      <trkpt lat="46.42047" lon="-1.57604">
        <ele>11.6</ele>
        <time>2020-06-03T10:13:40Z</time>
      </trkpt>
      <trkpt lat="46.42049" lon="-1.57609">
        <ele>11.6</ele>
        <time>2020-06-03T10:13:41Z</time>
      </trkpt>
      <trkpt lat="46.4205" lon="-1.57614">
        <ele>11.6</ele>
        <time>2020-06-03T10:13:42Z</time>
      </trkpt>
      <trkpt lat="46.42052" lon="-1.57619">
        <ele>11.6</ele>
        <time>2020-06-03T10:13:43Z</time>
      </trkpt>
      <trkpt lat="46.42053" lon="-1.57625">
        <ele>11.6</ele>
        <time>2020-06-03T10:13:44Z</time>
      </trkpt>
      <trkpt lat="46.42055" lon="-1.57631">
        <ele>11.6</ele>
        <time>2020-06-03T10:13:45Z</time>
      </trkpt>
      <trkpt lat="46.42055" lon="-1.57638">
        <ele>11.6</ele>
        <time>2020-06-03T10:13:46Z</time>
      </trkpt>
      <trkpt lat="46.42057" lon="-1.57645">
        <ele>11.6</ele>
        <time>2020-06-03T10:13:47Z</time>
      </trkpt>
      <trkpt lat="46.42057" lon="-1.57652">
        <ele>11.6</ele>
        <time>2020-06-03T10:13:48Z</time>
      </trkpt>
      <trkpt lat="46.42058" lon="-1.57659">
        <ele>11.6</ele>
        <time>2020-06-03T10:13:49Z</time>
      </trkpt>
      <trkpt lat="46.42059" lon="-1.57665">
        <ele>11.6</ele>
        <time>2020-06-03T10:13:50Z</time>
      </trkpt>
      <trkpt lat="46.42059" lon="-1.57671">
        <ele>11.6</ele>
        <time>2020-06-03T10:13:51Z</time>
      </trkpt>
      <trkpt lat="46.4206" lon="-1.57678">
        <ele>11.6</ele>
        <time>2020-06-03T10:13:52Z</time>
      </trkpt>
      <trkpt lat="46.4206" lon="-1.57685">
        <ele>11.6</ele>
        <time>2020-06-03T10:13:53Z</time>
      </trkpt>
      <trkpt lat="46.42062" lon="-1.57692">
        <ele>11.6</ele>
        <time>2020-06-03T10:13:54Z</time>
      </trkpt>
      <trkpt lat="46.42063" lon="-1.57699">
        <ele>11.6</ele>
        <time>2020-06-03T10:13:55Z</time>
      </trkpt>
      <trkpt lat="46.42064" lon="-1.57705">
        <ele>11.6</ele>
        <time>2020-06-03T10:13:56Z</time>
      </trkpt>
      <trkpt lat="46.42065" lon="-1.57711">
        <ele>11.6</ele>
        <time>2020-06-03T10:13:57Z</time>
      </trkpt>
      <trkpt lat="46.42065" lon="-1.57718">
        <ele>11.5</ele>
        <time>2020-06-03T10:13:58Z</time>
      </trkpt>
      <trkpt lat="46.42066" lon="-1.57724">
        <ele>11.5</ele>
        <time>2020-06-03T10:13:59Z</time>
      </trkpt>
      <trkpt lat="46.42066" lon="-1.5773">
        <ele>11.5</ele>
        <time>2020-06-03T10:14:00Z</time>
      </trkpt>
      <trkpt lat="46.42067" lon="-1.57736">
        <ele>11.5</ele>
        <time>2020-06-03T10:14:01Z</time>
      </trkpt>
      <trkpt lat="46.42067" lon="-1.57742">
        <ele>11.5</ele>
        <time>2020-06-03T10:14:02Z</time>
      </trkpt>
      <trkpt lat="46.42067" lon="-1.57748">
        <ele>11.5</ele>
        <time>2020-06-03T10:14:03Z</time>
      </trkpt>
      <trkpt lat="46.42067" lon="-1.57754">
        <ele>11.5</ele>
        <time>2020-06-03T10:14:04Z</time>
      </trkpt>
      <trkpt lat="46.42067" lon="-1.57761">
        <ele>11.5</ele>
        <time>2020-06-03T10:14:05Z</time>
      </trkpt>
      <trkpt lat="46.42067" lon="-1.57767">
        <ele>11.5</ele>
        <time>2020-06-03T10:14:06Z</time>
      </trkpt>
      <trkpt lat="46.42067" lon="-1.57773">
        <ele>11.5</ele>
        <time>2020-06-03T10:14:07Z</time>
      </trkpt>
      <trkpt lat="46.42067" lon="-1.5778">
        <ele>11.5</ele>
        <time>2020-06-03T10:14:08Z</time>
      </trkpt>
      <trkpt lat="46.42066" lon="-1.57786">
        <ele>11.5</ele>
        <time>2020-06-03T10:14:09Z</time>
      </trkpt>
      <trkpt lat="46.42065" lon="-1.57792">
        <ele>11.5</ele>
        <time>2020-06-03T10:14:10Z</time>
      </trkpt>
      <trkpt lat="46.42065" lon="-1.57799">
        <ele>11.4</ele>
        <time>2020-06-03T10:14:11Z</time>
      </trkpt>
      <trkpt lat="46.42064" lon="-1.57805">
        <ele>11.4</ele>
        <time>2020-06-03T10:14:12Z</time>
      </trkpt>
      <trkpt lat="46.42064" lon="-1.57812">
        <ele>11.4</ele>
        <time>2020-06-03T10:14:13Z</time>
      </trkpt>
      <trkpt lat="46.42064" lon="-1.57819">
        <ele>11.4</ele>
        <time>2020-06-03T10:14:14Z</time>
      </trkpt>
      <trkpt lat="46.42064" lon="-1.57826">
        <ele>11.4</ele>
        <time>2020-06-03T10:14:15Z</time>
      </trkpt>
      <trkpt lat="46.42064" lon="-1.57833">
        <ele>11.4</ele>
        <time>2020-06-03T10:14:16Z</time>
      </trkpt>
      <trkpt lat="46.42065" lon="-1.5784">
        <ele>11.4</ele>
        <time>2020-06-03T10:14:17Z</time>
      </trkpt>
      <trkpt lat="46.42064" lon="-1.57846">
        <ele>11.4</ele>
        <time>2020-06-03T10:14:18Z</time>
      </trkpt>
      <trkpt lat="46.42063" lon="-1.57853">
        <ele>11.4</ele>
        <time>2020-06-03T10:14:19Z</time>
      </trkpt>
      <trkpt lat="46.42063" lon="-1.57859">
        <ele>11.4</ele>
        <time>2020-06-03T10:14:20Z</time>
      </trkpt>
      <trkpt lat="46.42062" lon="-1.57864">
        <ele>11.5</ele>
        <time>2020-06-03T10:14:21Z</time>
      </trkpt>
      <trkpt lat="46.42061" lon="-1.5787">
        <ele>11.5</ele>
        <time>2020-06-03T10:14:22Z</time>
      </trkpt>
      <trkpt lat="46.4206" lon="-1.57875">
        <ele>11.5</ele>
        <time>2020-06-03T10:14:23Z</time>
      </trkpt>
      <trkpt lat="46.42059" lon="-1.57881">
        <ele>11.5</ele>
        <time>2020-06-03T10:14:24Z</time>
      </trkpt>
      <trkpt lat="46.42059" lon="-1.57886">
        <ele>11.5</ele>
        <time>2020-06-03T10:14:25Z</time>
      </trkpt>
      <trkpt lat="46.42059" lon="-1.57891">
        <ele>11.5</ele>
        <time>2020-06-03T10:14:26Z</time>
      </trkpt>
      <trkpt lat="46.42058" lon="-1.57897">
        <ele>11.5</ele>
        <time>2020-06-03T10:14:27Z</time>
      </trkpt>
      <trkpt lat="46.42058" lon="-1.57902">
        <ele>11.5</ele>
        <time>2020-06-03T10:14:28Z</time>
      </trkpt>
      <trkpt lat="46.42058" lon="-1.57907">
        <ele>11.5</ele>
        <time>2020-06-03T10:14:29Z</time>
      </trkpt>
      <trkpt lat="46.42057" lon="-1.57912">
        <ele>11.5</ele>
        <time>2020-06-03T10:14:30Z</time>
      </trkpt>
      <trkpt lat="46.42058" lon="-1.57918">
        <ele>11.5</ele>
        <time>2020-06-03T10:14:31Z</time>
      </trkpt>
      <trkpt lat="46.42057" lon="-1.57924">
        <ele>11.5</ele>
        <time>2020-06-03T10:14:32Z</time>
      </trkpt>
      <trkpt lat="46.42057" lon="-1.57929">
        <ele>11.5</ele>
        <time>2020-06-03T10:14:33Z</time>
      </trkpt>
      <trkpt lat="46.42057" lon="-1.57935">
        <ele>11.5</ele>
        <time>2020-06-03T10:14:34Z</time>
      </trkpt>
      <trkpt lat="46.42057" lon="-1.57941">
        <ele>11.6</ele>
        <time>2020-06-03T10:14:35Z</time>
      </trkpt>
      <trkpt lat="46.42057" lon="-1.57947">
        <ele>11.6</ele>
        <time>2020-06-03T10:14:36Z</time>
      </trkpt>
      <trkpt lat="46.42056" lon="-1.57953">
        <ele>11.6</ele>
        <time>2020-06-03T10:14:37Z</time>
      </trkpt>
      <trkpt lat="46.42056" lon="-1.57958">
        <ele>11.6</ele>
        <time>2020-06-03T10:14:38Z</time>
      </trkpt>
      <trkpt lat="46.42055" lon="-1.57964">
        <ele>11.6</ele>
        <time>2020-06-03T10:14:39Z</time>
      </trkpt>
      <trkpt lat="46.42054" lon="-1.57969">
        <ele>11.6</ele>
        <time>2020-06-03T10:14:40Z</time>
      </trkpt>
      <trkpt lat="46.42053" lon="-1.57974">
        <ele>11.6</ele>
        <time>2020-06-03T10:14:41Z</time>
      </trkpt>
      <trkpt lat="46.42053" lon="-1.57979">
        <ele>11.5</ele>
        <time>2020-06-03T10:14:42Z</time>
      </trkpt>
      <trkpt lat="46.42053" lon="-1.57984">
        <ele>11.5</ele>
        <time>2020-06-03T10:14:43Z</time>
      </trkpt>
      <trkpt lat="46.42053" lon="-1.57989">
        <ele>11.5</ele>
        <time>2020-06-03T10:14:44Z</time>
      </trkpt>
      <trkpt lat="46.42053" lon="-1.57994">
        <ele>11.5</ele>
        <time>2020-06-03T10:14:45Z</time>
      </trkpt>
      <trkpt lat="46.42053" lon="-1.58">
        <ele>11.5</ele>
        <time>2020-06-03T10:14:46Z</time>
      </trkpt>
      <trkpt lat="46.42052" lon="-1.58006">
        <ele>11.5</ele>
        <time>2020-06-03T10:14:47Z</time>
      </trkpt>
      <trkpt lat="46.42052" lon="-1.58011">
        <ele>11.5</ele>
        <time>2020-06-03T10:14:48Z</time>
      </trkpt>
      <trkpt lat="46.42052" lon="-1.58018">
        <ele>11.5</ele>
        <time>2020-06-03T10:14:49Z</time>
      </trkpt>
      <trkpt lat="46.42051" lon="-1.58024">
        <ele>11.5</ele>
        <time>2020-06-03T10:14:50Z</time>
      </trkpt>
      <trkpt lat="46.42051" lon="-1.5803">
        <ele>11.5</ele>
        <time>2020-06-03T10:14:51Z</time>
      </trkpt>
      <trkpt lat="46.42051" lon="-1.58037">
        <ele>11.5</ele>
        <time>2020-06-03T10:14:52Z</time>
      </trkpt>
      <trkpt lat="46.42051" lon="-1.58045">
        <ele>11.5</ele>
        <time>2020-06-03T10:14:53Z</time>
      </trkpt>
      <trkpt lat="46.4205" lon="-1.58052">
        <ele>11.5</ele>
        <time>2020-06-03T10:14:54Z</time>
      </trkpt>
      <trkpt lat="46.4205" lon="-1.58059">
        <ele>11.4</ele>
        <time>2020-06-03T10:14:55Z</time>
      </trkpt>
      <trkpt lat="46.42049" lon="-1.58065">
        <ele>11.4</ele>
        <time>2020-06-03T10:14:56Z</time>
      </trkpt>
      <trkpt lat="46.42048" lon="-1.58072">
        <ele>11.4</ele>
        <time>2020-06-03T10:14:57Z</time>
      </trkpt>
      <trkpt lat="46.42048" lon="-1.5808">
        <ele>11.4</ele>
        <time>2020-06-03T10:14:58Z</time>
      </trkpt>
      <trkpt lat="46.42047" lon="-1.58087">
        <ele>11.4</ele>
        <time>2020-06-03T10:14:59Z</time>
      </trkpt>
      <trkpt lat="46.42047" lon="-1.58095">
        <ele>11.4</ele>
        <time>2020-06-03T10:15:00Z</time>
      </trkpt>
      <trkpt lat="46.42047" lon="-1.58102">
        <ele>11.4</ele>
        <time>2020-06-03T10:15:01Z</time>
      </trkpt>
      <trkpt lat="46.42046" lon="-1.58109">
        <ele>11.4</ele>
        <time>2020-06-03T10:15:02Z</time>
      </trkpt>
      <trkpt lat="46.42045" lon="-1.58117">
        <ele>11.4</ele>
        <time>2020-06-03T10:15:03Z</time>
      </trkpt>
      <trkpt lat="46.42045" lon="-1.58124">
        <ele>11.4</ele>
        <time>2020-06-03T10:15:04Z</time>
      </trkpt>
      <trkpt lat="46.42044" lon="-1.58131">
        <ele>11.4</ele>
        <time>2020-06-03T10:15:05Z</time>
      </trkpt>
      <trkpt lat="46.42044" lon="-1.58139">
        <ele>11.4</ele>
        <time>2020-06-03T10:15:06Z</time>
      </trkpt>
      <trkpt lat="46.42043" lon="-1.58146">
        <ele>11.4</ele>
        <time>2020-06-03T10:15:07Z</time>
      </trkpt>
      <trkpt lat="46.42043" lon="-1.58153">
        <ele>11.4</ele>
        <time>2020-06-03T10:15:08Z</time>
      </trkpt>
      <trkpt lat="46.42042" lon="-1.58161">
        <ele>11.4</ele>
        <time>2020-06-03T10:15:09Z</time>
      </trkpt>
      <trkpt lat="46.42042" lon="-1.58168">
        <ele>11.4</ele>
        <time>2020-06-03T10:15:10Z</time>
      </trkpt>
      <trkpt lat="46.42042" lon="-1.58175">
        <ele>11.4</ele>
        <time>2020-06-03T10:15:11Z</time>
      </trkpt>
      <trkpt lat="46.42042" lon="-1.58182">
        <ele>11.4</ele>
        <time>2020-06-03T10:15:12Z</time>
      </trkpt>
      <trkpt lat="46.42041" lon="-1.58189">
        <ele>11.4</ele>
        <time>2020-06-03T10:15:13Z</time>
      </trkpt>
      <trkpt lat="46.42041" lon="-1.58196">
        <ele>11.4</ele>
        <time>2020-06-03T10:15:14Z</time>
      </trkpt>
      <trkpt lat="46.4204" lon="-1.58202">
        <ele>11.4</ele>
        <time>2020-06-03T10:15:15Z</time>
      </trkpt>
      <trkpt lat="46.42039" lon="-1.58208">
        <ele>11.4</ele>
        <time>2020-06-03T10:15:16Z</time>
      </trkpt>
      <trkpt lat="46.42038" lon="-1.58212">
        <ele>11.4</ele>
        <time>2020-06-03T10:15:17Z</time>
      </trkpt>
      <trkpt lat="46.42035" lon="-1.58215">
        <ele>11.4</ele>
        <time>2020-06-03T10:15:18Z</time>
      </trkpt>
      <trkpt lat="46.42031" lon="-1.58215">
        <ele>11.4</ele>
        <time>2020-06-03T10:15:19Z</time>
      </trkpt>
      <trkpt lat="46.42027" lon="-1.58215">
        <ele>11.4</ele>
        <time>2020-06-03T10:15:20Z</time>
      </trkpt>
      <trkpt lat="46.42022" lon="-1.58215">
        <ele>11.4</ele>
        <time>2020-06-03T10:15:21Z</time>
      </trkpt>
      <trkpt lat="46.42017" lon="-1.58214">
        <ele>11.4</ele>
        <time>2020-06-03T10:15:22Z</time>
      </trkpt>
      <trkpt lat="46.42013" lon="-1.58216">
        <ele>11.4</ele>
        <time>2020-06-03T10:15:23Z</time>
      </trkpt>
      <trkpt lat="46.42009" lon="-1.58218">
        <ele>11.4</ele>
        <time>2020-06-03T10:15:24Z</time>
      </trkpt>
      <trkpt lat="46.42004" lon="-1.58219">
        <ele>11.5</ele>
        <time>2020-06-03T10:15:25Z</time>
      </trkpt>
      <trkpt lat="46.41999" lon="-1.58221">
        <ele>11.5</ele>
        <time>2020-06-03T10:15:26Z</time>
      </trkpt>
      <trkpt lat="46.41995" lon="-1.58224">
        <ele>11.5</ele>
        <time>2020-06-03T10:15:27Z</time>
      </trkpt>
      <trkpt lat="46.4199" lon="-1.58226">
        <ele>11.5</ele>
        <time>2020-06-03T10:15:28Z</time>
      </trkpt>
      <trkpt lat="46.41986" lon="-1.58228">
        <ele>11.5</ele>
        <time>2020-06-03T10:15:29Z</time>
      </trkpt>
      <trkpt lat="46.41981" lon="-1.5823">
        <ele>11.5</ele>
        <time>2020-06-03T10:15:30Z</time>
      </trkpt>
      <trkpt lat="46.41977" lon="-1.58231">
        <ele>11.5</ele>
        <time>2020-06-03T10:15:31Z</time>
      </trkpt>
      <trkpt lat="46.41972" lon="-1.58232">
        <ele>11.5</ele>
        <time>2020-06-03T10:15:32Z</time>
      </trkpt>
      <trkpt lat="46.41968" lon="-1.58235">
        <ele>11.6</ele>
        <time>2020-06-03T10:15:33Z</time>
      </trkpt>
      <trkpt lat="46.41963" lon="-1.58236">
        <ele>11.6</ele>
        <time>2020-06-03T10:15:34Z</time>
      </trkpt>
      <trkpt lat="46.41959" lon="-1.58239">
        <ele>11.6</ele>
        <time>2020-06-03T10:15:35Z</time>
      </trkpt>
      <trkpt lat="46.41955" lon="-1.58241">
        <ele>11.5</ele>
        <time>2020-06-03T10:15:36Z</time>
      </trkpt>
      <trkpt lat="46.41951" lon="-1.58244">
        <ele>11.5</ele>
        <time>2020-06-03T10:15:37Z</time>
      </trkpt>
      <trkpt lat="46.41947" lon="-1.58247">
        <ele>11.5</ele>
        <time>2020-06-03T10:15:38Z</time>
      </trkpt>
      <trkpt lat="46.41942" lon="-1.5825">
        <ele>11.4</ele>
        <time>2020-06-03T10:15:39Z</time>
      </trkpt>
      <trkpt lat="46.41938" lon="-1.58253">
        <ele>11.4</ele>
        <time>2020-06-03T10:15:40Z</time>
      </trkpt>
      <trkpt lat="46.41934" lon="-1.58257">
        <ele>11.3</ele>
        <time>2020-06-03T10:15:41Z</time>
      </trkpt>
      <trkpt lat="46.41929" lon="-1.58259">
        <ele>11.3</ele>
        <time>2020-06-03T10:15:42Z</time>
      </trkpt>
      <trkpt lat="46.41925" lon="-1.58263">
        <ele>11.3</ele>
        <time>2020-06-03T10:15:43Z</time>
      </trkpt>
      <trkpt lat="46.41921" lon="-1.58267">
        <ele>11.3</ele>
        <time>2020-06-03T10:15:44Z</time>
      </trkpt>
      <trkpt lat="46.41916" lon="-1.58271">
        <ele>11.2</ele>
        <time>2020-06-03T10:15:45Z</time>
      </trkpt>
      <trkpt lat="46.41912" lon="-1.58275">
        <ele>11.2</ele>
        <time>2020-06-03T10:15:46Z</time>
      </trkpt>
      <trkpt lat="46.41907" lon="-1.58278">
        <ele>11.2</ele>
        <time>2020-06-03T10:15:47Z</time>
      </trkpt>
      <trkpt lat="46.41903" lon="-1.58281">
        <ele>11.2</ele>
        <time>2020-06-03T10:15:48Z</time>
      </trkpt>
      <trkpt lat="46.41901" lon="-1.58286">
        <ele>11.2</ele>
        <time>2020-06-03T10:15:49Z</time>
      </trkpt>
      <trkpt lat="46.41899" lon="-1.58291">
        <ele>11.1</ele>
        <time>2020-06-03T10:15:50Z</time>
      </trkpt>
      <trkpt lat="46.41897" lon="-1.58297">
        <ele>11.1</ele>
        <time>2020-06-03T10:15:51Z</time>
      </trkpt>
      <trkpt lat="46.41895" lon="-1.58303">
        <ele>11.1</ele>
        <time>2020-06-03T10:15:52Z</time>
      </trkpt>
      <trkpt lat="46.41893" lon="-1.58309">
        <ele>11.2</ele>
        <time>2020-06-03T10:15:53Z</time>
      </trkpt>
      <trkpt lat="46.41893" lon="-1.58316">
        <ele>11.3</ele>
        <time>2020-06-03T10:15:54Z</time>
      </trkpt>
      <trkpt lat="46.41893" lon="-1.58323">
        <ele>11.3</ele>
        <time>2020-06-03T10:15:55Z</time>
      </trkpt>
      <trkpt lat="46.41893" lon="-1.5833">
        <ele>11.5</ele>
        <time>2020-06-03T10:15:56Z</time>
      </trkpt>
      <trkpt lat="46.41893" lon="-1.58338">
        <ele>11.5</ele>
        <time>2020-06-03T10:15:57Z</time>
      </trkpt>
      <trkpt lat="46.41893" lon="-1.58345">
        <ele>11.5</ele>
        <time>2020-06-03T10:15:58Z</time>
      </trkpt>
      <trkpt lat="46.41893" lon="-1.58352">
        <ele>11.5</ele>
        <time>2020-06-03T10:15:59Z</time>
      </trkpt>
      <trkpt lat="46.41893" lon="-1.58359">
        <ele>11.6</ele>
        <time>2020-06-03T10:16:00Z</time>
      </trkpt>
      <trkpt lat="46.41894" lon="-1.58367">
        <ele>11.6</ele>
        <time>2020-06-03T10:16:01Z</time>
      </trkpt>
      <trkpt lat="46.41893" lon="-1.58375">
        <ele>11.6</ele>
        <time>2020-06-03T10:16:02Z</time>
      </trkpt>
      <trkpt lat="46.41893" lon="-1.58382">
        <ele>11.6</ele>
        <time>2020-06-03T10:16:03Z</time>
      </trkpt>
      <trkpt lat="46.41894" lon="-1.5839">
        <ele>11.6</ele>
        <time>2020-06-03T10:16:04Z</time>
      </trkpt>
      <trkpt lat="46.41893" lon="-1.58397">
        <ele>11.6</ele>
        <time>2020-06-03T10:16:05Z</time>
      </trkpt>
      <trkpt lat="46.41892" lon="-1.58404">
        <ele>11.6</ele>
        <time>2020-06-03T10:16:06Z</time>
      </trkpt>
      <trkpt lat="46.41892" lon="-1.5841">
        <ele>11.5</ele>
        <time>2020-06-03T10:16:07Z</time>
      </trkpt>
      <trkpt lat="46.41892" lon="-1.58416">
        <ele>11.5</ele>
        <time>2020-06-03T10:16:08Z</time>
      </trkpt>
      <trkpt lat="46.41892" lon="-1.58421">
        <ele>11.5</ele>
        <time>2020-06-03T10:16:09Z</time>
      </trkpt>
      <trkpt lat="46.41892" lon="-1.58426">
        <ele>11.5</ele>
        <time>2020-06-03T10:16:10Z</time>
      </trkpt>
      <trkpt lat="46.41891" lon="-1.58431">
        <ele>11.5</ele>
        <time>2020-06-03T10:16:11Z</time>
      </trkpt>
      <trkpt lat="46.41891" lon="-1.58433">
        <ele>11.5</ele>
        <time>2020-06-03T10:16:12Z</time>
      </trkpt>
      <trkpt lat="46.41891" lon="-1.58437">
        <ele>11.5</ele>
        <time>2020-06-03T10:16:13Z</time>
      </trkpt>
      <trkpt lat="46.41891" lon="-1.58439">
        <ele>11.4</ele>
        <time>2020-06-03T10:16:14Z</time>
      </trkpt>
      <trkpt lat="46.41891" lon="-1.58441">
        <ele>11.4</ele>
        <time>2020-06-03T10:16:15Z</time>
      </trkpt>
      <trkpt lat="46.41891" lon="-1.58444">
        <ele>11.4</ele>
        <time>2020-06-03T10:16:16Z</time>
      </trkpt>
      <trkpt lat="46.4189" lon="-1.58447">
        <ele>11.4</ele>
        <time>2020-06-03T10:16:17Z</time>
      </trkpt>
      <trkpt lat="46.4189" lon="-1.58451">
        <ele>11.4</ele>
        <time>2020-06-03T10:16:18Z</time>
      </trkpt>
      <trkpt lat="46.4189" lon="-1.58456">
        <ele>11.3</ele>
        <time>2020-06-03T10:16:19Z</time>
      </trkpt>
      <trkpt lat="46.41891" lon="-1.58461">
        <ele>11.3</ele>
        <time>2020-06-03T10:16:20Z</time>
      </trkpt>
      <trkpt lat="46.41891" lon="-1.58467">
        <ele>11.3</ele>
        <time>2020-06-03T10:16:21Z</time>
      </trkpt>
      <trkpt lat="46.41892" lon="-1.58473">
        <ele>11.2</ele>
        <time>2020-06-03T10:16:22Z</time>
      </trkpt>
      <trkpt lat="46.41892" lon="-1.58479">
        <ele>11.2</ele>
        <time>2020-06-03T10:16:23Z</time>
      </trkpt>
      <trkpt lat="46.41892" lon="-1.58485">
        <ele>11.2</ele>
        <time>2020-06-03T10:16:24Z</time>
      </trkpt>
      <trkpt lat="46.41892" lon="-1.58491">
        <ele>11.2</ele>
        <time>2020-06-03T10:16:25Z</time>
      </trkpt>
      <trkpt lat="46.41892" lon="-1.58498">
        <ele>11.2</ele>
        <time>2020-06-03T10:16:26Z</time>
      </trkpt>
      <trkpt lat="46.41892" lon="-1.58504">
        <ele>11.2</ele>
        <time>2020-06-03T10:16:27Z</time>
      </trkpt>
      <trkpt lat="46.41893" lon="-1.58509">
        <ele>11.2</ele>
        <time>2020-06-03T10:16:28Z</time>
      </trkpt>
      <trkpt lat="46.41893" lon="-1.58515">
        <ele>11.2</ele>
        <time>2020-06-03T10:16:29Z</time>
      </trkpt>
      <trkpt lat="46.41893" lon="-1.58521">
        <ele>11.2</ele>
        <time>2020-06-03T10:16:30Z</time>
      </trkpt>
      <trkpt lat="46.41892" lon="-1.58527">
        <ele>11.2</ele>
        <time>2020-06-03T10:16:31Z</time>
      </trkpt>
      <trkpt lat="46.41892" lon="-1.58533">
        <ele>11.3</ele>
        <time>2020-06-03T10:16:32Z</time>
      </trkpt>
      <trkpt lat="46.41892" lon="-1.58539">
        <ele>11.3</ele>
        <time>2020-06-03T10:16:33Z</time>
      </trkpt>
      <trkpt lat="46.41891" lon="-1.58546">
        <ele>11.3</ele>
        <time>2020-06-03T10:16:34Z</time>
      </trkpt>
      <trkpt lat="46.41891" lon="-1.58552">
        <ele>11.4</ele>
        <time>2020-06-03T10:16:35Z</time>
      </trkpt>
      <trkpt lat="46.41891" lon="-1.58558">
        <ele>11.4</ele>
        <time>2020-06-03T10:16:36Z</time>
      </trkpt>
      <trkpt lat="46.41891" lon="-1.58564">
        <ele>11.5</ele>
        <time>2020-06-03T10:16:37Z</time>
      </trkpt>
      <trkpt lat="46.41891" lon="-1.5857">
        <ele>11.5</ele>
        <time>2020-06-03T10:16:38Z</time>
      </trkpt>
      <trkpt lat="46.4189" lon="-1.58576">
        <ele>11.6</ele>
        <time>2020-06-03T10:16:39Z</time>
      </trkpt>
      <trkpt lat="46.41889" lon="-1.58582">
        <ele>11.6</ele>
        <time>2020-06-03T10:16:40Z</time>
      </trkpt>
      <trkpt lat="46.4189" lon="-1.58588">
        <ele>11.6</ele>
        <time>2020-06-03T10:16:41Z</time>
      </trkpt>
      <trkpt lat="46.4189" lon="-1.58594">
        <ele>11.7</ele>
        <time>2020-06-03T10:16:42Z</time>
      </trkpt>
      <trkpt lat="46.4189" lon="-1.586">
        <ele>11.7</ele>
        <time>2020-06-03T10:16:43Z</time>
      </trkpt>
      <trkpt lat="46.4189" lon="-1.58607">
        <ele>11.7</ele>
        <time>2020-06-03T10:16:44Z</time>
      </trkpt>
      <trkpt lat="46.4189" lon="-1.58614">
        <ele>11.7</ele>
        <time>2020-06-03T10:16:45Z</time>
      </trkpt>
      <trkpt lat="46.4189" lon="-1.5862">
        <ele>11.7</ele>
        <time>2020-06-03T10:16:46Z</time>
      </trkpt>
      <trkpt lat="46.41891" lon="-1.58626">
        <ele>11.7</ele>
        <time>2020-06-03T10:16:47Z</time>
      </trkpt>
      <trkpt lat="46.41891" lon="-1.58633">
        <ele>11.7</ele>
        <time>2020-06-03T10:16:48Z</time>
      </trkpt>
      <trkpt lat="46.41892" lon="-1.58639">
        <ele>11.4</ele>
        <time>2020-06-03T10:16:49Z</time>
      </trkpt>
      <trkpt lat="46.41893" lon="-1.58644">
        <ele>11.4</ele>
        <time>2020-06-03T10:16:50Z</time>
      </trkpt>
      <trkpt lat="46.41893" lon="-1.58649">
        <ele>11.5</ele>
        <time>2020-06-03T10:16:51Z</time>
      </trkpt>
      <trkpt lat="46.41893" lon="-1.58654">
        <ele>11.5</ele>
        <time>2020-06-03T10:16:52Z</time>
      </trkpt>
      <trkpt lat="46.41891" lon="-1.58657">
        <ele>11.5</ele>
        <time>2020-06-03T10:16:53Z</time>
      </trkpt>
      <trkpt lat="46.41887" lon="-1.58659">
        <ele>11.5</ele>
        <time>2020-06-03T10:16:54Z</time>
      </trkpt>
      <trkpt lat="46.41883" lon="-1.58659">
        <ele>11.6</ele>
        <time>2020-06-03T10:16:55Z</time>
      </trkpt>
      <trkpt lat="46.4188" lon="-1.58662">
        <ele>11.7</ele>
        <time>2020-06-03T10:16:56Z</time>
      </trkpt>
      <trkpt lat="46.41877" lon="-1.58665">
        <ele>11.7</ele>
        <time>2020-06-03T10:16:57Z</time>
      </trkpt>
      <trkpt lat="46.41874" lon="-1.58668">
        <ele>11.7</ele>
        <time>2020-06-03T10:16:58Z</time>
      </trkpt>
      <trkpt lat="46.41871" lon="-1.5867">
        <ele>11.7</ele>
        <time>2020-06-03T10:16:59Z</time>
      </trkpt>
      <trkpt lat="46.41869" lon="-1.58673">
        <ele>11.8</ele>
        <time>2020-06-03T10:17:00Z</time>
      </trkpt>
      <trkpt lat="46.41867" lon="-1.58678">
        <ele>11.8</ele>
        <time>2020-06-03T10:17:01Z</time>
      </trkpt>
      <trkpt lat="46.41866" lon="-1.58683">
        <ele>11.9</ele>
        <time>2020-06-03T10:17:02Z</time>
      </trkpt>
      <trkpt lat="46.41866" lon="-1.58688">
        <ele>11.9</ele>
        <time>2020-06-03T10:17:03Z</time>
      </trkpt>
      <trkpt lat="46.41865" lon="-1.58694">
        <ele>11.9</ele>
        <time>2020-06-03T10:17:04Z</time>
      </trkpt>
      <trkpt lat="46.41865" lon="-1.58701">
        <ele>12</ele>
        <time>2020-06-03T10:17:05Z</time>
      </trkpt>
      <trkpt lat="46.41864" lon="-1.58707">
        <ele>12</ele>
        <time>2020-06-03T10:17:06Z</time>
      </trkpt>
      <trkpt lat="46.41864" lon="-1.58713">
        <ele>12</ele>
        <time>2020-06-03T10:17:07Z</time>
      </trkpt>
      <trkpt lat="46.41863" lon="-1.58719">
        <ele>12.1</ele>
        <time>2020-06-03T10:17:08Z</time>
      </trkpt>
      <trkpt lat="46.41862" lon="-1.58725">
        <ele>12.1</ele>
        <time>2020-06-03T10:17:09Z</time>
      </trkpt>
      <trkpt lat="46.41861" lon="-1.58731">
        <ele>12.2</ele>
        <time>2020-06-03T10:17:10Z</time>
      </trkpt>
      <trkpt lat="46.41861" lon="-1.58737">
        <ele>12.2</ele>
        <time>2020-06-03T10:17:11Z</time>
      </trkpt>
      <trkpt lat="46.41861" lon="-1.58741">
        <ele>12.2</ele>
        <time>2020-06-03T10:17:12Z</time>
      </trkpt>
      <trkpt lat="46.4186" lon="-1.58745">
        <ele>12.2</ele>
        <time>2020-06-03T10:17:13Z</time>
      </trkpt>
      <trkpt lat="46.41858" lon="-1.5875">
        <ele>12.3</ele>
        <time>2020-06-03T10:17:14Z</time>
      </trkpt>
      <trkpt lat="46.41858" lon="-1.58755">
        <ele>12.3</ele>
        <time>2020-06-03T10:17:15Z</time>
      </trkpt>
      <trkpt lat="46.41857" lon="-1.58761">
        <ele>12.3</ele>
        <time>2020-06-03T10:17:16Z</time>
      </trkpt>
      <trkpt lat="46.41857" lon="-1.58767">
        <ele>12.3</ele>
        <time>2020-06-03T10:17:17Z</time>
      </trkpt>
      <trkpt lat="46.41856" lon="-1.58774">
        <ele>12.4</ele>
        <time>2020-06-03T10:17:18Z</time>
      </trkpt>
      <trkpt lat="46.41855" lon="-1.58782">
        <ele>12.4</ele>
        <time>2020-06-03T10:17:19Z</time>
      </trkpt>
      <trkpt lat="46.41854" lon="-1.58788">
        <ele>12.4</ele>
        <time>2020-06-03T10:17:20Z</time>
      </trkpt>
      <trkpt lat="46.41854" lon="-1.58794">
        <ele>12.4</ele>
        <time>2020-06-03T10:17:21Z</time>
      </trkpt>
      <trkpt lat="46.41853" lon="-1.588">
        <ele>12.4</ele>
        <time>2020-06-03T10:17:22Z</time>
      </trkpt>
      <trkpt lat="46.41853" lon="-1.58807">
        <ele>12.4</ele>
        <time>2020-06-03T10:17:23Z</time>
      </trkpt>
      <trkpt lat="46.41852" lon="-1.58814">
        <ele>12.4</ele>
        <time>2020-06-03T10:17:24Z</time>
      </trkpt>
      <trkpt lat="46.41852" lon="-1.58821">
        <ele>12.4</ele>
        <time>2020-06-03T10:17:25Z</time>
      </trkpt>
      <trkpt lat="46.41851" lon="-1.58828">
        <ele>12.4</ele>
        <time>2020-06-03T10:17:26Z</time>
      </trkpt>
      <trkpt lat="46.41851" lon="-1.58835">
        <ele>12.4</ele>
        <time>2020-06-03T10:17:27Z</time>
      </trkpt>
      <trkpt lat="46.4185" lon="-1.58842">
        <ele>12.4</ele>
        <time>2020-06-03T10:17:28Z</time>
      </trkpt>
      <trkpt lat="46.4185" lon="-1.58847">
        <ele>12.4</ele>
        <time>2020-06-03T10:17:29Z</time>
      </trkpt>
      <trkpt lat="46.4185" lon="-1.58853">
        <ele>12.4</ele>
        <time>2020-06-03T10:17:30Z</time>
      </trkpt>
      <trkpt lat="46.41849" lon="-1.58859">
        <ele>12.4</ele>
        <time>2020-06-03T10:17:31Z</time>
      </trkpt>
      <trkpt lat="46.4185" lon="-1.58864">
        <ele>12.5</ele>
        <time>2020-06-03T10:17:32Z</time>
      </trkpt>
      <trkpt lat="46.4185" lon="-1.5887">
        <ele>12.5</ele>
        <time>2020-06-03T10:17:33Z</time>
      </trkpt>
      <trkpt lat="46.4185" lon="-1.58877">
        <ele>12.5</ele>
        <time>2020-06-03T10:17:34Z</time>
      </trkpt>
      <trkpt lat="46.4185" lon="-1.58885">
        <ele>12.5</ele>
        <time>2020-06-03T10:17:35Z</time>
      </trkpt>
      <trkpt lat="46.41851" lon="-1.58892">
        <ele>12.5</ele>
        <time>2020-06-03T10:17:36Z</time>
      </trkpt>
      <trkpt lat="46.41851" lon="-1.58899">
        <ele>12.5</ele>
        <time>2020-06-03T10:17:37Z</time>
      </trkpt>
      <trkpt lat="46.41851" lon="-1.58907">
        <ele>12.5</ele>
        <time>2020-06-03T10:17:38Z</time>
      </trkpt>
      <trkpt lat="46.41851" lon="-1.58914">
        <ele>12.5</ele>
        <time>2020-06-03T10:17:39Z</time>
      </trkpt>
      <trkpt lat="46.41852" lon="-1.58921">
        <ele>12.4</ele>
        <time>2020-06-03T10:17:40Z</time>
      </trkpt>
      <trkpt lat="46.41852" lon="-1.58929">
        <ele>12.4</ele>
        <time>2020-06-03T10:17:41Z</time>
      </trkpt>
      <trkpt lat="46.41852" lon="-1.58934">
        <ele>12.4</ele>
        <time>2020-06-03T10:17:42Z</time>
      </trkpt>
      <trkpt lat="46.41852" lon="-1.58941">
        <ele>12.4</ele>
        <time>2020-06-03T10:17:43Z</time>
      </trkpt>
      <trkpt lat="46.41852" lon="-1.5895">
        <ele>12.4</ele>
        <time>2020-06-03T10:17:44Z</time>
      </trkpt>
      <trkpt lat="46.41854" lon="-1.58957">
        <ele>12.4</ele>
        <time>2020-06-03T10:17:45Z</time>
      </trkpt>
      <trkpt lat="46.41855" lon="-1.58965">
        <ele>12.4</ele>
        <time>2020-06-03T10:17:46Z</time>
      </trkpt>
      <trkpt lat="46.41856" lon="-1.58972">
        <ele>12.4</ele>
        <time>2020-06-03T10:17:47Z</time>
      </trkpt>
      <trkpt lat="46.41857" lon="-1.58978">
        <ele>12.4</ele>
        <time>2020-06-03T10:17:48Z</time>
      </trkpt>
      <trkpt lat="46.41858" lon="-1.58985">
        <ele>12.4</ele>
        <time>2020-06-03T10:17:49Z</time>
      </trkpt>
      <trkpt lat="46.41859" lon="-1.58991">
        <ele>12.4</ele>
        <time>2020-06-03T10:17:50Z</time>
      </trkpt>
      <trkpt lat="46.41859" lon="-1.58997">
        <ele>12.4</ele>
        <time>2020-06-03T10:17:51Z</time>
      </trkpt>
      <trkpt lat="46.4186" lon="-1.59004">
        <ele>12.4</ele>
        <time>2020-06-03T10:17:52Z</time>
      </trkpt>
      <trkpt lat="46.4186" lon="-1.5901">
        <ele>12.4</ele>
        <time>2020-06-03T10:17:53Z</time>
      </trkpt>
      <trkpt lat="46.41861" lon="-1.59016">
        <ele>12.5</ele>
        <time>2020-06-03T10:17:54Z</time>
      </trkpt>
      <trkpt lat="46.41862" lon="-1.59023">
        <ele>12.5</ele>
        <time>2020-06-03T10:17:55Z</time>
      </trkpt>
      <trkpt lat="46.41863" lon="-1.59029">
        <ele>12.5</ele>
        <time>2020-06-03T10:17:56Z</time>
      </trkpt>
      <trkpt lat="46.41865" lon="-1.59037">
        <ele>12.5</ele>
        <time>2020-06-03T10:17:57Z</time>
      </trkpt>
      <trkpt lat="46.41865" lon="-1.59044">
        <ele>12.5</ele>
        <time>2020-06-03T10:17:58Z</time>
      </trkpt>
      <trkpt lat="46.41866" lon="-1.59051">
        <ele>12.5</ele>
        <time>2020-06-03T10:17:59Z</time>
      </trkpt>
      <trkpt lat="46.41867" lon="-1.59058">
        <ele>12.5</ele>
        <time>2020-06-03T10:18:00Z</time>
      </trkpt>
      <trkpt lat="46.41867" lon="-1.59065">
        <ele>12.5</ele>
        <time>2020-06-03T10:18:01Z</time>
      </trkpt>
      <trkpt lat="46.41868" lon="-1.59072">
        <ele>12.5</ele>
        <time>2020-06-03T10:18:02Z</time>
      </trkpt>
      <trkpt lat="46.41869" lon="-1.59079">
        <ele>12.5</ele>
        <time>2020-06-03T10:18:03Z</time>
      </trkpt>
      <trkpt lat="46.4187" lon="-1.59086">
        <ele>12.5</ele>
        <time>2020-06-03T10:18:04Z</time>
      </trkpt>
      <trkpt lat="46.41872" lon="-1.59092">
        <ele>12.5</ele>
        <time>2020-06-03T10:18:05Z</time>
      </trkpt>
      <trkpt lat="46.41873" lon="-1.59098">
        <ele>12.5</ele>
        <time>2020-06-03T10:18:06Z</time>
      </trkpt>
      <trkpt lat="46.41874" lon="-1.59103">
        <ele>12.5</ele>
        <time>2020-06-03T10:18:07Z</time>
      </trkpt>
      <trkpt lat="46.41875" lon="-1.59109">
        <ele>12.5</ele>
        <time>2020-06-03T10:18:08Z</time>
      </trkpt>
      <trkpt lat="46.41876" lon="-1.59114">
        <ele>12.6</ele>
        <time>2020-06-03T10:18:09Z</time>
      </trkpt>
      <trkpt lat="46.41876" lon="-1.5912">
        <ele>12.6</ele>
        <time>2020-06-03T10:18:10Z</time>
      </trkpt>
      <trkpt lat="46.41877" lon="-1.59127">
        <ele>12.6</ele>
        <time>2020-06-03T10:18:11Z</time>
      </trkpt>
      <trkpt lat="46.41878" lon="-1.59134">
        <ele>12.6</ele>
        <time>2020-06-03T10:18:12Z</time>
      </trkpt>
      <trkpt lat="46.41879" lon="-1.59141">
        <ele>12.6</ele>
        <time>2020-06-03T10:18:13Z</time>
      </trkpt>
      <trkpt lat="46.4188" lon="-1.59148">
        <ele>12.6</ele>
        <time>2020-06-03T10:18:14Z</time>
      </trkpt>
      <trkpt lat="46.41881" lon="-1.59155">
        <ele>12.6</ele>
        <time>2020-06-03T10:18:15Z</time>
      </trkpt>
      <trkpt lat="46.41882" lon="-1.59161">
        <ele>12.6</ele>
        <time>2020-06-03T10:18:16Z</time>
      </trkpt>
      <trkpt lat="46.41883" lon="-1.59168">
        <ele>12.6</ele>
        <time>2020-06-03T10:18:17Z</time>
      </trkpt>
      <trkpt lat="46.41885" lon="-1.59176">
        <ele>12.7</ele>
        <time>2020-06-03T10:18:18Z</time>
      </trkpt>
      <trkpt lat="46.41886" lon="-1.59183">
        <ele>12.7</ele>
        <time>2020-06-03T10:18:19Z</time>
      </trkpt>
      <trkpt lat="46.41887" lon="-1.59189">
        <ele>12.7</ele>
        <time>2020-06-03T10:18:20Z</time>
      </trkpt>
      <trkpt lat="46.41887" lon="-1.59195">
        <ele>12.7</ele>
        <time>2020-06-03T10:18:21Z</time>
      </trkpt>
      <trkpt lat="46.41889" lon="-1.59202">
        <ele>12.7</ele>
        <time>2020-06-03T10:18:22Z</time>
      </trkpt>
      <trkpt lat="46.41889" lon="-1.59207">
        <ele>12.7</ele>
        <time>2020-06-03T10:18:23Z</time>
      </trkpt>
      <trkpt lat="46.4189" lon="-1.59213">
        <ele>12.7</ele>
        <time>2020-06-03T10:18:24Z</time>
      </trkpt>
      <trkpt lat="46.41891" lon="-1.59219">
        <ele>12.7</ele>
        <time>2020-06-03T10:18:25Z</time>
      </trkpt>
      <trkpt lat="46.41892" lon="-1.59225">
        <ele>12.8</ele>
        <time>2020-06-03T10:18:26Z</time>
      </trkpt>
      <trkpt lat="46.41894" lon="-1.59233">
        <ele>12.8</ele>
        <time>2020-06-03T10:18:27Z</time>
      </trkpt>
      <trkpt lat="46.41895" lon="-1.5924">
        <ele>12.8</ele>
        <time>2020-06-03T10:18:28Z</time>
      </trkpt>
      <trkpt lat="46.41897" lon="-1.59246">
        <ele>12.8</ele>
        <time>2020-06-03T10:18:29Z</time>
      </trkpt>
      <trkpt lat="46.41898" lon="-1.59252">
        <ele>12.8</ele>
        <time>2020-06-03T10:18:30Z</time>
      </trkpt>
      <trkpt lat="46.41899" lon="-1.59259">
        <ele>12.8</ele>
        <time>2020-06-03T10:18:31Z</time>
      </trkpt>
      <trkpt lat="46.41899" lon="-1.59266">
        <ele>12.8</ele>
        <time>2020-06-03T10:18:32Z</time>
      </trkpt>
      <trkpt lat="46.419" lon="-1.59274">
        <ele>12.8</ele>
        <time>2020-06-03T10:18:33Z</time>
      </trkpt>
      <trkpt lat="46.41902" lon="-1.59282">
        <ele>12.7</ele>
        <time>2020-06-03T10:18:34Z</time>
      </trkpt>
      <trkpt lat="46.41903" lon="-1.59289">
        <ele>12.7</ele>
        <time>2020-06-03T10:18:35Z</time>
      </trkpt>
      <trkpt lat="46.41905" lon="-1.59297">
        <ele>12.7</ele>
        <time>2020-06-03T10:18:36Z</time>
      </trkpt>
      <trkpt lat="46.41907" lon="-1.59305">
        <ele>12.6</ele>
        <time>2020-06-03T10:18:37Z</time>
      </trkpt>
      <trkpt lat="46.41908" lon="-1.59312">
        <ele>12.6</ele>
        <time>2020-06-03T10:18:38Z</time>
      </trkpt>
      <trkpt lat="46.41909" lon="-1.59319">
        <ele>12.6</ele>
        <time>2020-06-03T10:18:39Z</time>
      </trkpt>
      <trkpt lat="46.4191" lon="-1.59325">
        <ele>12.6</ele>
        <time>2020-06-03T10:18:40Z</time>
      </trkpt>
      <trkpt lat="46.41912" lon="-1.59333">
        <ele>12.5</ele>
        <time>2020-06-03T10:18:41Z</time>
      </trkpt>
      <trkpt lat="46.41913" lon="-1.59339">
        <ele>12.5</ele>
        <time>2020-06-03T10:18:42Z</time>
      </trkpt>
      <trkpt lat="46.41914" lon="-1.59346">
        <ele>12.5</ele>
        <time>2020-06-03T10:18:43Z</time>
      </trkpt>
      <trkpt lat="46.41915" lon="-1.59352">
        <ele>12.5</ele>
        <time>2020-06-03T10:18:44Z</time>
      </trkpt>
      <trkpt lat="46.41916" lon="-1.59357">
        <ele>12.5</ele>
        <time>2020-06-03T10:18:45Z</time>
      </trkpt>
      <trkpt lat="46.41916" lon="-1.59363">
        <ele>12.5</ele>
        <time>2020-06-03T10:18:46Z</time>
      </trkpt>
      <trkpt lat="46.41917" lon="-1.59368">
        <ele>12.5</ele>
        <time>2020-06-03T10:18:47Z</time>
      </trkpt>
      <trkpt lat="46.41917" lon="-1.59374">
        <ele>12.5</ele>
        <time>2020-06-03T10:18:48Z</time>
      </trkpt>
      <trkpt lat="46.41918" lon="-1.59378">
        <ele>12.5</ele>
        <time>2020-06-03T10:18:49Z</time>
      </trkpt>
      <trkpt lat="46.41918" lon="-1.59385">
        <ele>12.5</ele>
        <time>2020-06-03T10:18:50Z</time>
      </trkpt>
      <trkpt lat="46.41919" lon="-1.59391">
        <ele>12.6</ele>
        <time>2020-06-03T10:18:51Z</time>
      </trkpt>
      <trkpt lat="46.41919" lon="-1.59397">
        <ele>12.6</ele>
        <time>2020-06-03T10:18:52Z</time>
      </trkpt>
      <trkpt lat="46.4192" lon="-1.59402">
        <ele>12.6</ele>
        <time>2020-06-03T10:18:53Z</time>
      </trkpt>
      <trkpt lat="46.4192" lon="-1.59407">
        <ele>12.6</ele>
        <time>2020-06-03T10:18:54Z</time>
      </trkpt>
      <trkpt lat="46.41921" lon="-1.59413">
        <ele>12.6</ele>
        <time>2020-06-03T10:18:55Z</time>
      </trkpt>
      <trkpt lat="46.41921" lon="-1.59418">
        <ele>12.6</ele>
        <time>2020-06-03T10:18:56Z</time>
      </trkpt>
      <trkpt lat="46.41922" lon="-1.59424">
        <ele>12.7</ele>
        <time>2020-06-03T10:18:57Z</time>
      </trkpt>
      <trkpt lat="46.41922" lon="-1.59431">
        <ele>12.7</ele>
        <time>2020-06-03T10:18:58Z</time>
      </trkpt>
      <trkpt lat="46.41924" lon="-1.59436">
        <ele>12.7</ele>
        <time>2020-06-03T10:18:59Z</time>
      </trkpt>
      <trkpt lat="46.41924" lon="-1.59442">
        <ele>12.7</ele>
        <time>2020-06-03T10:19:00Z</time>
      </trkpt>
      <trkpt lat="46.41925" lon="-1.59449">
        <ele>12.7</ele>
        <time>2020-06-03T10:19:01Z</time>
      </trkpt>
      <trkpt lat="46.41925" lon="-1.59454">
        <ele>12.7</ele>
        <time>2020-06-03T10:19:02Z</time>
      </trkpt>
      <trkpt lat="46.41925" lon="-1.59459">
        <ele>12.7</ele>
        <time>2020-06-03T10:19:03Z</time>
      </trkpt>
      <trkpt lat="46.41926" lon="-1.59465">
        <ele>12.7</ele>
        <time>2020-06-03T10:19:04Z</time>
      </trkpt>
      <trkpt lat="46.41926" lon="-1.59471">
        <ele>12.7</ele>
        <time>2020-06-03T10:19:05Z</time>
      </trkpt>
      <trkpt lat="46.41927" lon="-1.59475">
        <ele>12.7</ele>
        <time>2020-06-03T10:19:06Z</time>
      </trkpt>
      <trkpt lat="46.41928" lon="-1.5948">
        <ele>12.7</ele>
        <time>2020-06-03T10:19:07Z</time>
      </trkpt>
      <trkpt lat="46.41928" lon="-1.59486">
        <ele>12.7</ele>
        <time>2020-06-03T10:19:08Z</time>
      </trkpt>
      <trkpt lat="46.41929" lon="-1.59492">
        <ele>12.7</ele>
        <time>2020-06-03T10:19:09Z</time>
      </trkpt>
      <trkpt lat="46.41929" lon="-1.59497">
        <ele>12.7</ele>
        <time>2020-06-03T10:19:10Z</time>
      </trkpt>
      <trkpt lat="46.41929" lon="-1.59502">
        <ele>12.7</ele>
        <time>2020-06-03T10:19:11Z</time>
      </trkpt>
      <trkpt lat="46.41929" lon="-1.59506">
        <ele>12.7</ele>
        <time>2020-06-03T10:19:12Z</time>
      </trkpt>
      <trkpt lat="46.41929" lon="-1.59513">
        <ele>12.7</ele>
        <time>2020-06-03T10:19:13Z</time>
      </trkpt>
      <trkpt lat="46.41928" lon="-1.59517">
        <ele>12.7</ele>
        <time>2020-06-03T10:19:14Z</time>
      </trkpt>
      <trkpt lat="46.41928" lon="-1.59523">
        <ele>12.7</ele>
        <time>2020-06-03T10:19:15Z</time>
      </trkpt>
      <trkpt lat="46.41927" lon="-1.59527">
        <ele>12.6</ele>
        <time>2020-06-03T10:19:16Z</time>
      </trkpt>
      <trkpt lat="46.41926" lon="-1.59532">
        <ele>12.6</ele>
        <time>2020-06-03T10:19:17Z</time>
      </trkpt>
      <trkpt lat="46.41926" lon="-1.59536">
        <ele>12.6</ele>
        <time>2020-06-03T10:19:18Z</time>
      </trkpt>
      <trkpt lat="46.41926" lon="-1.59542">
        <ele>12.6</ele>
        <time>2020-06-03T10:19:19Z</time>
      </trkpt>
      <trkpt lat="46.41926" lon="-1.59546">
        <ele>12.6</ele>
        <time>2020-06-03T10:19:20Z</time>
      </trkpt>
      <trkpt lat="46.41926" lon="-1.59551">
        <ele>12.6</ele>
        <time>2020-06-03T10:19:21Z</time>
      </trkpt>
      <trkpt lat="46.41926" lon="-1.59553">
        <ele>12.6</ele>
        <time>2020-06-03T10:19:22Z</time>
      </trkpt>
      <trkpt lat="46.41927" lon="-1.59554">
        <ele>12.6</ele>
        <time>2020-06-03T10:19:23Z</time>
      </trkpt>
      <trkpt lat="46.41928" lon="-1.59556">
        <ele>12.6</ele>
        <time>2020-06-03T10:19:24Z</time>
      </trkpt>
      <trkpt lat="46.4193" lon="-1.59558">
        <ele>12.5</ele>
        <time>2020-06-03T10:19:25Z</time>
      </trkpt>
      <trkpt lat="46.41931" lon="-1.5956">
        <ele>12.5</ele>
        <time>2020-06-03T10:19:26Z</time>
      </trkpt>
      <trkpt lat="46.41933" lon="-1.59565">
        <ele>12.4</ele>
        <time>2020-06-03T10:19:27Z</time>
      </trkpt>
      <trkpt lat="46.41933" lon="-1.59567">
        <ele>12.4</ele>
        <time>2020-06-03T10:19:28Z</time>
      </trkpt>
      <trkpt lat="46.41933" lon="-1.59571">
        <ele>12.4</ele>
        <time>2020-06-03T10:19:29Z</time>
      </trkpt>
      <trkpt lat="46.41933" lon="-1.59577">
        <ele>12.4</ele>
        <time>2020-06-03T10:19:30Z</time>
      </trkpt>
      <trkpt lat="46.41933" lon="-1.59582">
        <ele>12.4</ele>
        <time>2020-06-03T10:19:31Z</time>
      </trkpt>
      <trkpt lat="46.41932" lon="-1.59589">
        <ele>12.4</ele>
        <time>2020-06-03T10:19:32Z</time>
      </trkpt>
      <trkpt lat="46.41931" lon="-1.59593">
        <ele>12.4</ele>
        <time>2020-06-03T10:19:33Z</time>
      </trkpt>
      <trkpt lat="46.41931" lon="-1.59601">
        <ele>12.4</ele>
        <time>2020-06-03T10:19:34Z</time>
      </trkpt>
      <trkpt lat="46.41931" lon="-1.59607">
        <ele>12.4</ele>
        <time>2020-06-03T10:19:35Z</time>
      </trkpt>
      <trkpt lat="46.4193" lon="-1.59612">
        <ele>12.4</ele>
        <time>2020-06-03T10:19:36Z</time>
      </trkpt>
      <trkpt lat="46.41929" lon="-1.59618">
        <ele>12.4</ele>
        <time>2020-06-03T10:19:37Z</time>
      </trkpt>
      <trkpt lat="46.41928" lon="-1.59625">
        <ele>12.3</ele>
        <time>2020-06-03T10:19:38Z</time>
      </trkpt>
      <trkpt lat="46.41927" lon="-1.59631">
        <ele>12.3</ele>
        <time>2020-06-03T10:19:39Z</time>
      </trkpt>
      <trkpt lat="46.41926" lon="-1.59639">
        <ele>12.3</ele>
        <time>2020-06-03T10:19:40Z</time>
      </trkpt>
      <trkpt lat="46.41925" lon="-1.59646">
        <ele>12.3</ele>
        <time>2020-06-03T10:19:41Z</time>
      </trkpt>
      <trkpt lat="46.41924" lon="-1.59654">
        <ele>12.3</ele>
        <time>2020-06-03T10:19:42Z</time>
      </trkpt>
      <trkpt lat="46.41923" lon="-1.5966">
        <ele>12.2</ele>
        <time>2020-06-03T10:19:43Z</time>
      </trkpt>
      <trkpt lat="46.41923" lon="-1.59668">
        <ele>12.2</ele>
        <time>2020-06-03T10:19:44Z</time>
      </trkpt>
      <trkpt lat="46.41923" lon="-1.59673">
        <ele>12.2</ele>
        <time>2020-06-03T10:19:45Z</time>
      </trkpt>
      <trkpt lat="46.41922" lon="-1.59679">
        <ele>12.2</ele>
        <time>2020-06-03T10:19:46Z</time>
      </trkpt>
      <trkpt lat="46.41921" lon="-1.59685">
        <ele>12.2</ele>
        <time>2020-06-03T10:19:47Z</time>
      </trkpt>
      <trkpt lat="46.4192" lon="-1.59692">
        <ele>12.2</ele>
        <time>2020-06-03T10:19:48Z</time>
      </trkpt>
      <trkpt lat="46.41918" lon="-1.59699">
        <ele>12.2</ele>
        <time>2020-06-03T10:19:49Z</time>
      </trkpt>
      <trkpt lat="46.41918" lon="-1.59706">
        <ele>12.1</ele>
        <time>2020-06-03T10:19:50Z</time>
      </trkpt>
      <trkpt lat="46.41917" lon="-1.59713">
        <ele>12.1</ele>
        <time>2020-06-03T10:19:51Z</time>
      </trkpt>
      <trkpt lat="46.41916" lon="-1.59719">
        <ele>12.1</ele>
        <time>2020-06-03T10:19:52Z</time>
      </trkpt>
      <trkpt lat="46.41916" lon="-1.59725">
        <ele>12.1</ele>
        <time>2020-06-03T10:19:53Z</time>
      </trkpt>
      <trkpt lat="46.41915" lon="-1.59732">
        <ele>12.1</ele>
        <time>2020-06-03T10:19:54Z</time>
      </trkpt>
      <trkpt lat="46.41915" lon="-1.5974">
        <ele>12.1</ele>
        <time>2020-06-03T10:19:55Z</time>
      </trkpt>
      <trkpt lat="46.41915" lon="-1.59747">
        <ele>12.1</ele>
        <time>2020-06-03T10:19:56Z</time>
      </trkpt>
      <trkpt lat="46.41915" lon="-1.59752">
        <ele>12.1</ele>
        <time>2020-06-03T10:19:57Z</time>
      </trkpt>
      <trkpt lat="46.41915" lon="-1.5976">
        <ele>12.1</ele>
        <time>2020-06-03T10:19:58Z</time>
      </trkpt>
      <trkpt lat="46.41915" lon="-1.59767">
        <ele>12.1</ele>
        <time>2020-06-03T10:19:59Z</time>
      </trkpt>
      <trkpt lat="46.41916" lon="-1.59774">
        <ele>12.2</ele>
        <time>2020-06-03T10:20:00Z</time>
      </trkpt>
      <trkpt lat="46.41917" lon="-1.5978">
        <ele>12.2</ele>
        <time>2020-06-03T10:20:01Z</time>
      </trkpt>
      <trkpt lat="46.41917" lon="-1.59786">
        <ele>12.2</ele>
        <time>2020-06-03T10:20:02Z</time>
      </trkpt>
      <trkpt lat="46.41919" lon="-1.59794">
        <ele>12.3</ele>
        <time>2020-06-03T10:20:03Z</time>
      </trkpt>
      <trkpt lat="46.4192" lon="-1.598">
        <ele>12.3</ele>
        <time>2020-06-03T10:20:04Z</time>
      </trkpt>
      <trkpt lat="46.4192" lon="-1.59805">
        <ele>12.4</ele>
        <time>2020-06-03T10:20:05Z</time>
      </trkpt>
      <trkpt lat="46.41921" lon="-1.59811">
        <ele>12.4</ele>
        <time>2020-06-03T10:20:06Z</time>
      </trkpt>
      <trkpt lat="46.41922" lon="-1.59817">
        <ele>12.5</ele>
        <time>2020-06-03T10:20:07Z</time>
      </trkpt>
      <trkpt lat="46.41923" lon="-1.59823">
        <ele>12.5</ele>
        <time>2020-06-03T10:20:08Z</time>
      </trkpt>
      <trkpt lat="46.41924" lon="-1.59829">
        <ele>12.5</ele>
        <time>2020-06-03T10:20:09Z</time>
      </trkpt>
      <trkpt lat="46.41926" lon="-1.59836">
        <ele>12.6</ele>
        <time>2020-06-03T10:20:10Z</time>
      </trkpt>
      <trkpt lat="46.41927" lon="-1.59844">
        <ele>12.6</ele>
        <time>2020-06-03T10:20:11Z</time>
      </trkpt>
      <trkpt lat="46.41929" lon="-1.5985">
        <ele>12.6</ele>
        <time>2020-06-03T10:20:12Z</time>
      </trkpt>
      <trkpt lat="46.4193" lon="-1.59856">
        <ele>12.6</ele>
        <time>2020-06-03T10:20:13Z</time>
      </trkpt>
      <trkpt lat="46.41932" lon="-1.59863">
        <ele>12.6</ele>
        <time>2020-06-03T10:20:14Z</time>
      </trkpt>
      <trkpt lat="46.41934" lon="-1.59869">
        <ele>12.7</ele>
        <time>2020-06-03T10:20:15Z</time>
      </trkpt>
      <trkpt lat="46.41936" lon="-1.59876">
        <ele>12.7</ele>
        <time>2020-06-03T10:20:16Z</time>
      </trkpt>
      <trkpt lat="46.41939" lon="-1.59883">
        <ele>12.7</ele>
        <time>2020-06-03T10:20:17Z</time>
      </trkpt>
      <trkpt lat="46.41942" lon="-1.59889">
        <ele>12.7</ele>
        <time>2020-06-03T10:20:18Z</time>
      </trkpt>
      <trkpt lat="46.41944" lon="-1.59895">
        <ele>12.7</ele>
        <time>2020-06-03T10:20:19Z</time>
      </trkpt>
      <trkpt lat="46.41946" lon="-1.59901">
        <ele>12.7</ele>
        <time>2020-06-03T10:20:20Z</time>
      </trkpt>
      <trkpt lat="46.41949" lon="-1.59907">
        <ele>12.7</ele>
        <time>2020-06-03T10:20:21Z</time>
      </trkpt>
      <trkpt lat="46.41951" lon="-1.59912">
        <ele>12.8</ele>
        <time>2020-06-03T10:20:22Z</time>
      </trkpt>
      <trkpt lat="46.41953" lon="-1.59918">
        <ele>12.8</ele>
        <time>2020-06-03T10:20:23Z</time>
      </trkpt>
      <trkpt lat="46.41955" lon="-1.59924">
        <ele>12.8</ele>
        <time>2020-06-03T10:20:24Z</time>
      </trkpt>
      <trkpt lat="46.41958" lon="-1.59929">
        <ele>12.8</ele>
        <time>2020-06-03T10:20:25Z</time>
      </trkpt>
      <trkpt lat="46.41962" lon="-1.59935">
        <ele>12.9</ele>
        <time>2020-06-03T10:20:26Z</time>
      </trkpt>
      <trkpt lat="46.41965" lon="-1.59941">
        <ele>12.9</ele>
        <time>2020-06-03T10:20:27Z</time>
      </trkpt>
      <trkpt lat="46.41968" lon="-1.59946">
        <ele>13</ele>
        <time>2020-06-03T10:20:28Z</time>
      </trkpt>
      <trkpt lat="46.41971" lon="-1.5995">
        <ele>13</ele>
        <time>2020-06-03T10:20:29Z</time>
      </trkpt>
      <trkpt lat="46.41974" lon="-1.59955">
        <ele>13.1</ele>
        <time>2020-06-03T10:20:30Z</time>
      </trkpt>
      <trkpt lat="46.41978" lon="-1.59958">
        <ele>13.2</ele>
        <time>2020-06-03T10:20:31Z</time>
      </trkpt>
      <trkpt lat="46.41982" lon="-1.59963">
        <ele>13.3</ele>
        <time>2020-06-03T10:20:32Z</time>
      </trkpt>
      <trkpt lat="46.41985" lon="-1.59967">
        <ele>13.3</ele>
        <time>2020-06-03T10:20:33Z</time>
      </trkpt>
      <trkpt lat="46.41989" lon="-1.59972">
        <ele>13.4</ele>
        <time>2020-06-03T10:20:34Z</time>
      </trkpt>
      <trkpt lat="46.41993" lon="-1.59975">
        <ele>13.4</ele>
        <time>2020-06-03T10:20:35Z</time>
      </trkpt>
      <trkpt lat="46.41997" lon="-1.59979">
        <ele>13.5</ele>
        <time>2020-06-03T10:20:36Z</time>
      </trkpt>
      <trkpt lat="46.42001" lon="-1.59982">
        <ele>13.5</ele>
        <time>2020-06-03T10:20:37Z</time>
      </trkpt>
      <trkpt lat="46.42006" lon="-1.59985">
        <ele>13.5</ele>
        <time>2020-06-03T10:20:38Z</time>
      </trkpt>
      <trkpt lat="46.4201" lon="-1.59988">
        <ele>13.5</ele>
        <time>2020-06-03T10:20:39Z</time>
      </trkpt>
      <trkpt lat="46.42014" lon="-1.59991">
        <ele>13.5</ele>
        <time>2020-06-03T10:20:40Z</time>
      </trkpt>
      <trkpt lat="46.42018" lon="-1.59996">
        <ele>13.6</ele>
        <time>2020-06-03T10:20:41Z</time>
      </trkpt>
      <trkpt lat="46.42023" lon="-1.60001">
        <ele>13.6</ele>
        <time>2020-06-03T10:20:42Z</time>
      </trkpt>
      <trkpt lat="46.42027" lon="-1.60006">
        <ele>13.6</ele>
        <time>2020-06-03T10:20:43Z</time>
      </trkpt>
      <trkpt lat="46.4203" lon="-1.60011">
        <ele>13.6</ele>
        <time>2020-06-03T10:20:44Z</time>
      </trkpt>
      <trkpt lat="46.42033" lon="-1.60016">
        <ele>13.6</ele>
        <time>2020-06-03T10:20:45Z</time>
      </trkpt>
      <trkpt lat="46.42036" lon="-1.6002">
        <ele>13.6</ele>
        <time>2020-06-03T10:20:46Z</time>
      </trkpt>
      <trkpt lat="46.42037" lon="-1.60023">
        <ele>13.7</ele>
        <time>2020-06-03T10:20:47Z</time>
      </trkpt>
      <trkpt lat="46.42041" lon="-1.60029">
        <ele>13.7</ele>
        <time>2020-06-03T10:20:48Z</time>
      </trkpt>
      <trkpt lat="46.42044" lon="-1.60035">
        <ele>13.7</ele>
        <time>2020-06-03T10:20:49Z</time>
      </trkpt>
      <trkpt lat="46.42047" lon="-1.60042">
        <ele>13.7</ele>
        <time>2020-06-03T10:20:50Z</time>
      </trkpt>
      <trkpt lat="46.4205" lon="-1.60048">
        <ele>13.7</ele>
        <time>2020-06-03T10:20:51Z</time>
      </trkpt>
      <trkpt lat="46.42051" lon="-1.60056">
        <ele>13.7</ele>
        <time>2020-06-03T10:20:52Z</time>
      </trkpt>
      <trkpt lat="46.42052" lon="-1.60064">
        <ele>13.7</ele>
        <time>2020-06-03T10:20:53Z</time>
      </trkpt>
      <trkpt lat="46.42053" lon="-1.60072">
        <ele>13.7</ele>
        <time>2020-06-03T10:20:54Z</time>
      </trkpt>
      <trkpt lat="46.42055" lon="-1.60079">
        <ele>13.7</ele>
        <time>2020-06-03T10:20:55Z</time>
      </trkpt>
      <trkpt lat="46.42057" lon="-1.60087">
        <ele>13.7</ele>
        <time>2020-06-03T10:20:56Z</time>
      </trkpt>
      <trkpt lat="46.42058" lon="-1.60095">
        <ele>13.7</ele>
        <time>2020-06-03T10:20:57Z</time>
      </trkpt>
      <trkpt lat="46.42059" lon="-1.60103">
        <ele>13.7</ele>
        <time>2020-06-03T10:20:58Z</time>
      </trkpt>
      <trkpt lat="46.4206" lon="-1.6011">
        <ele>13.7</ele>
        <time>2020-06-03T10:20:59Z</time>
      </trkpt>
      <trkpt lat="46.42061" lon="-1.60117">
        <ele>13.7</ele>
        <time>2020-06-03T10:21:00Z</time>
      </trkpt>
      <trkpt lat="46.42062" lon="-1.60125">
        <ele>13.6</ele>
        <time>2020-06-03T10:21:01Z</time>
      </trkpt>
      <trkpt lat="46.42064" lon="-1.60133">
        <ele>13.6</ele>
        <time>2020-06-03T10:21:02Z</time>
      </trkpt>
      <trkpt lat="46.42066" lon="-1.60141">
        <ele>13.6</ele>
        <time>2020-06-03T10:21:03Z</time>
      </trkpt>
      <trkpt lat="46.42067" lon="-1.60149">
        <ele>13.6</ele>
        <time>2020-06-03T10:21:04Z</time>
      </trkpt>
      <trkpt lat="46.42069" lon="-1.60157">
        <ele>13.6</ele>
        <time>2020-06-03T10:21:05Z</time>
      </trkpt>
      <trkpt lat="46.4207" lon="-1.60164">
        <ele>13.6</ele>
        <time>2020-06-03T10:21:06Z</time>
      </trkpt>
      <trkpt lat="46.42071" lon="-1.60171">
        <ele>13.6</ele>
        <time>2020-06-03T10:21:07Z</time>
      </trkpt>
      <trkpt lat="46.42073" lon="-1.60178">
        <ele>13.5</ele>
        <time>2020-06-03T10:21:08Z</time>
      </trkpt>
      <trkpt lat="46.42075" lon="-1.60184">
        <ele>13.5</ele>
        <time>2020-06-03T10:21:09Z</time>
      </trkpt>
      <trkpt lat="46.42077" lon="-1.60192">
        <ele>13.4</ele>
        <time>2020-06-03T10:21:10Z</time>
      </trkpt>
      <trkpt lat="46.42079" lon="-1.602">
        <ele>13.4</ele>
        <time>2020-06-03T10:21:11Z</time>
      </trkpt>
      <trkpt lat="46.4208" lon="-1.60206">
        <ele>13.3</ele>
        <time>2020-06-03T10:21:12Z</time>
      </trkpt>
      <trkpt lat="46.42082" lon="-1.60213">
        <ele>13.3</ele>
        <time>2020-06-03T10:21:13Z</time>
      </trkpt>
      <trkpt lat="46.42084" lon="-1.6022">
        <ele>13.3</ele>
        <time>2020-06-03T10:21:14Z</time>
      </trkpt>
      <trkpt lat="46.42085" lon="-1.60227">
        <ele>13.2</ele>
        <time>2020-06-03T10:21:15Z</time>
      </trkpt>
      <trkpt lat="46.42087" lon="-1.60233">
        <ele>13.2</ele>
        <time>2020-06-03T10:21:16Z</time>
      </trkpt>
      <trkpt lat="46.42088" lon="-1.6024">
        <ele>13.1</ele>
        <time>2020-06-03T10:21:17Z</time>
      </trkpt>
      <trkpt lat="46.42089" lon="-1.60247">
        <ele>13</ele>
        <time>2020-06-03T10:21:18Z</time>
      </trkpt>
      <trkpt lat="46.4209" lon="-1.60253">
        <ele>12.9</ele>
        <time>2020-06-03T10:21:19Z</time>
      </trkpt>
      <trkpt lat="46.42091" lon="-1.60258">
        <ele>12.9</ele>
        <time>2020-06-03T10:21:20Z</time>
      </trkpt>
      <trkpt lat="46.42091" lon="-1.6026">
        <ele>12.9</ele>
        <time>2020-06-03T10:21:21Z</time>
      </trkpt>
      <trkpt lat="46.42092" lon="-1.6026">
        <ele>12.9</ele>
        <time>2020-06-03T10:21:22Z</time>
      </trkpt>
      <trkpt lat="46.42092" lon="-1.60258">
        <ele>12.9</ele>
        <time>2020-06-03T10:21:23Z</time>
      </trkpt>
      <trkpt lat="46.42092" lon="-1.60257">
        <ele>12.9</ele>
        <time>2020-06-03T10:21:24Z</time>
      </trkpt>
      <trkpt lat="46.42092" lon="-1.60257">
        <ele>12.9</ele>
        <time>2020-06-03T10:21:25Z</time>
      </trkpt>
      <trkpt lat="46.42094" lon="-1.60258">
        <ele>12.9</ele>
        <time>2020-06-03T10:21:26Z</time>
      </trkpt>
      <trkpt lat="46.42097" lon="-1.6026">
        <ele>12.6</ele>
        <time>2020-06-03T10:21:27Z</time>
      </trkpt>
      <trkpt lat="46.42101" lon="-1.60263">
        <ele>12.5</ele>
        <time>2020-06-03T10:21:28Z</time>
      </trkpt>
      <trkpt lat="46.42105" lon="-1.60265">
        <ele>12.2</ele>
        <time>2020-06-03T10:21:29Z</time>
      </trkpt>
      <trkpt lat="46.42109" lon="-1.60267">
        <ele>12</ele>
        <time>2020-06-03T10:21:30Z</time>
      </trkpt>
      <trkpt lat="46.42112" lon="-1.6027">
        <ele>11.7</ele>
        <time>2020-06-03T10:21:31Z</time>
      </trkpt>
      <trkpt lat="46.42116" lon="-1.60273">
        <ele>11.4</ele>
        <time>2020-06-03T10:21:32Z</time>
      </trkpt>
      <trkpt lat="46.4212" lon="-1.60277">
        <ele>11</ele>
        <time>2020-06-03T10:21:33Z</time>
      </trkpt>
      <trkpt lat="46.42125" lon="-1.60281">
        <ele>10.6</ele>
        <time>2020-06-03T10:21:34Z</time>
      </trkpt>
      <trkpt lat="46.42129" lon="-1.60286">
        <ele>10.2</ele>
        <time>2020-06-03T10:21:35Z</time>
      </trkpt>
      <trkpt lat="46.42134" lon="-1.60291">
        <ele>9.6</ele>
        <time>2020-06-03T10:21:36Z</time>
      </trkpt>
      <trkpt lat="46.42139" lon="-1.60296">
        <ele>9</ele>
        <time>2020-06-03T10:21:37Z</time>
      </trkpt>
      <trkpt lat="46.42144" lon="-1.60301">
        <ele>8.4</ele>
        <time>2020-06-03T10:21:38Z</time>
      </trkpt>
      <trkpt lat="46.42151" lon="-1.60304">
        <ele>7.8</ele>
        <time>2020-06-03T10:21:39Z</time>
      </trkpt>
      <trkpt lat="46.42158" lon="-1.60306">
        <ele>7.3</ele>
        <time>2020-06-03T10:21:40Z</time>
      </trkpt>
      <trkpt lat="46.42165" lon="-1.60304">
        <ele>6.8</ele>
        <time>2020-06-03T10:21:41Z</time>
      </trkpt>
      <trkpt lat="46.42171" lon="-1.60297">
        <ele>6.9</ele>
        <time>2020-06-03T10:21:42Z</time>
      </trkpt>
      <trkpt lat="46.42176" lon="-1.60288">
        <ele>6.9</ele>
        <time>2020-06-03T10:21:43Z</time>
      </trkpt>
      <trkpt lat="46.42181" lon="-1.60277">
        <ele>6.9</ele>
        <time>2020-06-03T10:21:44Z</time>
      </trkpt>
      <trkpt lat="46.42184" lon="-1.60267">
        <ele>6.9</ele>
        <time>2020-06-03T10:21:45Z</time>
      </trkpt>
      <trkpt lat="46.42186" lon="-1.60257">
        <ele>6.8</ele>
        <time>2020-06-03T10:21:46Z</time>
      </trkpt>
      <trkpt lat="46.42187" lon="-1.60247">
        <ele>6.8</ele>
        <time>2020-06-03T10:21:47Z</time>
      </trkpt>
      <trkpt lat="46.42186" lon="-1.60238">
        <ele>6.8</ele>
        <time>2020-06-03T10:21:48Z</time>
      </trkpt>
      <trkpt lat="46.42187" lon="-1.60227">
        <ele>6.8</ele>
        <time>2020-06-03T10:21:49Z</time>
      </trkpt>
      <trkpt lat="46.42189" lon="-1.60217">
        <ele>6.9</ele>
        <time>2020-06-03T10:21:50Z</time>
      </trkpt>
      <trkpt lat="46.42192" lon="-1.60208">
        <ele>6.9</ele>
        <time>2020-06-03T10:21:51Z</time>
      </trkpt>
      <trkpt lat="46.42196" lon="-1.602">
        <ele>7</ele>
        <time>2020-06-03T10:21:52Z</time>
      </trkpt>
      <trkpt lat="46.422" lon="-1.60193">
        <ele>7.1</ele>
        <time>2020-06-03T10:21:53Z</time>
      </trkpt>
      <trkpt lat="46.42204" lon="-1.60185">
        <ele>7.1</ele>
        <time>2020-06-03T10:21:54Z</time>
      </trkpt>
      <trkpt lat="46.42209" lon="-1.60178">
        <ele>7.1</ele>
        <time>2020-06-03T10:21:55Z</time>
      </trkpt>
      <trkpt lat="46.42213" lon="-1.60171">
        <ele>7.1</ele>
        <time>2020-06-03T10:21:56Z</time>
      </trkpt>
      <trkpt lat="46.42216" lon="-1.60164">
        <ele>7</ele>
        <time>2020-06-03T10:21:57Z</time>
      </trkpt>
      <trkpt lat="46.42219" lon="-1.60157">
        <ele>7</ele>
        <time>2020-06-03T10:21:58Z</time>
      </trkpt>
      <trkpt lat="46.42222" lon="-1.6015">
        <ele>7</ele>
        <time>2020-06-03T10:21:59Z</time>
      </trkpt>
      <trkpt lat="46.42225" lon="-1.60143">
        <ele>6.9</ele>
        <time>2020-06-03T10:22:00Z</time>
      </trkpt>
      <trkpt lat="46.42228" lon="-1.60135">
        <ele>6.8</ele>
        <time>2020-06-03T10:22:01Z</time>
      </trkpt>
      <trkpt lat="46.42231" lon="-1.60128">
        <ele>6.8</ele>
        <time>2020-06-03T10:22:02Z</time>
      </trkpt>
      <trkpt lat="46.42233" lon="-1.6012">
        <ele>6.7</ele>
        <time>2020-06-03T10:22:03Z</time>
      </trkpt>
      <trkpt lat="46.42236" lon="-1.60112">
        <ele>6.6</ele>
        <time>2020-06-03T10:22:04Z</time>
      </trkpt>
      <trkpt lat="46.42239" lon="-1.60104">
        <ele>6.7</ele>
        <time>2020-06-03T10:22:05Z</time>
      </trkpt>
      <trkpt lat="46.42242" lon="-1.60096">
        <ele>6.7</ele>
        <time>2020-06-03T10:22:06Z</time>
      </trkpt>
      <trkpt lat="46.42243" lon="-1.60088">
        <ele>6.7</ele>
        <time>2020-06-03T10:22:07Z</time>
      </trkpt>
      <trkpt lat="46.42246" lon="-1.60081">
        <ele>6.7</ele>
        <time>2020-06-03T10:22:08Z</time>
      </trkpt>
      <trkpt lat="46.42248" lon="-1.60073">
        <ele>6.7</ele>
        <time>2020-06-03T10:22:09Z</time>
      </trkpt>
      <trkpt lat="46.42249" lon="-1.60066">
        <ele>6.8</ele>
        <time>2020-06-03T10:22:10Z</time>
      </trkpt>
      <trkpt lat="46.42251" lon="-1.60059">
        <ele>6.8</ele>
        <time>2020-06-03T10:22:11Z</time>
      </trkpt>
      <trkpt lat="46.42252" lon="-1.60051">
        <ele>6.8</ele>
        <time>2020-06-03T10:22:12Z</time>
      </trkpt>
      <trkpt lat="46.42253" lon="-1.60044">
        <ele>6.9</ele>
        <time>2020-06-03T10:22:13Z</time>
      </trkpt>
      <trkpt lat="46.42254" lon="-1.60037">
        <ele>6.9</ele>
        <time>2020-06-03T10:22:14Z</time>
      </trkpt>
      <trkpt lat="46.42254" lon="-1.6003">
        <ele>7</ele>
        <time>2020-06-03T10:22:15Z</time>
      </trkpt>
      <trkpt lat="46.42256" lon="-1.60023">
        <ele>7.1</ele>
        <time>2020-06-03T10:22:16Z</time>
      </trkpt>
      <trkpt lat="46.42257" lon="-1.60016">
        <ele>7.2</ele>
        <time>2020-06-03T10:22:17Z</time>
      </trkpt>
      <trkpt lat="46.42258" lon="-1.60008">
        <ele>7.3</ele>
        <time>2020-06-03T10:22:18Z</time>
      </trkpt>
      <trkpt lat="46.4226" lon="-1.6">
        <ele>7.4</ele>
        <time>2020-06-03T10:22:19Z</time>
      </trkpt>
      <trkpt lat="46.42262" lon="-1.59993">
        <ele>7.5</ele>
        <time>2020-06-03T10:22:20Z</time>
      </trkpt>
      <trkpt lat="46.42263" lon="-1.59986">
        <ele>7.6</ele>
        <time>2020-06-03T10:22:21Z</time>
      </trkpt>
      <trkpt lat="46.42265" lon="-1.59978">
        <ele>7.6</ele>
        <time>2020-06-03T10:22:22Z</time>
      </trkpt>
      <trkpt lat="46.42266" lon="-1.59971">
        <ele>7.7</ele>
        <time>2020-06-03T10:22:23Z</time>
      </trkpt>
      <trkpt lat="46.42267" lon="-1.59964">
        <ele>7.7</ele>
        <time>2020-06-03T10:22:24Z</time>
      </trkpt>
      <trkpt lat="46.42268" lon="-1.59957">
        <ele>7.7</ele>
        <time>2020-06-03T10:22:25Z</time>
      </trkpt>
      <trkpt lat="46.4227" lon="-1.59951">
        <ele>7.7</ele>
        <time>2020-06-03T10:22:26Z</time>
      </trkpt>
      <trkpt lat="46.42272" lon="-1.59944">
        <ele>7.7</ele>
        <time>2020-06-03T10:22:27Z</time>
      </trkpt>
      <trkpt lat="46.42273" lon="-1.59937">
        <ele>7.7</ele>
        <time>2020-06-03T10:22:28Z</time>
      </trkpt>
      <trkpt lat="46.42274" lon="-1.59929">
        <ele>7.7</ele>
        <time>2020-06-03T10:22:29Z</time>
      </trkpt>
      <trkpt lat="46.42275" lon="-1.59921">
        <ele>7.7</ele>
        <time>2020-06-03T10:22:30Z</time>
      </trkpt>
      <trkpt lat="46.42276" lon="-1.59914">
        <ele>7.7</ele>
        <time>2020-06-03T10:22:31Z</time>
      </trkpt>
      <trkpt lat="46.42277" lon="-1.59906">
        <ele>7.8</ele>
        <time>2020-06-03T10:22:32Z</time>
      </trkpt>
      <trkpt lat="46.42277" lon="-1.59898">
        <ele>7.8</ele>
        <time>2020-06-03T10:22:33Z</time>
      </trkpt>
      <trkpt lat="46.42277" lon="-1.5989">
        <ele>7.8</ele>
        <time>2020-06-03T10:22:34Z</time>
      </trkpt>
      <trkpt lat="46.42277" lon="-1.59882">
        <ele>7.8</ele>
        <time>2020-06-03T10:22:35Z</time>
      </trkpt>
      <trkpt lat="46.42277" lon="-1.59874">
        <ele>7.9</ele>
        <time>2020-06-03T10:22:36Z</time>
      </trkpt>
      <trkpt lat="46.42277" lon="-1.59866">
        <ele>7.9</ele>
        <time>2020-06-03T10:22:37Z</time>
      </trkpt>
      <trkpt lat="46.42278" lon="-1.59859">
        <ele>7.9</ele>
        <time>2020-06-03T10:22:38Z</time>
      </trkpt>
      <trkpt lat="46.42278" lon="-1.59851">
        <ele>7.9</ele>
        <time>2020-06-03T10:22:39Z</time>
      </trkpt>
      <trkpt lat="46.42277" lon="-1.59843">
        <ele>7.9</ele>
        <time>2020-06-03T10:22:40Z</time>
      </trkpt>
      <trkpt lat="46.42279" lon="-1.59836">
        <ele>8</ele>
        <time>2020-06-03T10:22:41Z</time>
      </trkpt>
      <trkpt lat="46.4228" lon="-1.59829">
        <ele>8</ele>
        <time>2020-06-03T10:22:42Z</time>
      </trkpt>
      <trkpt lat="46.42281" lon="-1.59822">
        <ele>8.1</ele>
        <time>2020-06-03T10:22:43Z</time>
      </trkpt>
      <trkpt lat="46.42283" lon="-1.59815">
        <ele>8.1</ele>
        <time>2020-06-03T10:22:44Z</time>
      </trkpt>
      <trkpt lat="46.42285" lon="-1.59809">
        <ele>8.2</ele>
        <time>2020-06-03T10:22:45Z</time>
      </trkpt>
      <trkpt lat="46.42286" lon="-1.59801">
        <ele>8.2</ele>
        <time>2020-06-03T10:22:46Z</time>
      </trkpt>
      <trkpt lat="46.42288" lon="-1.59794">
        <ele>8.3</ele>
        <time>2020-06-03T10:22:47Z</time>
      </trkpt>
      <trkpt lat="46.42291" lon="-1.59787">
        <ele>8.4</ele>
        <time>2020-06-03T10:22:48Z</time>
      </trkpt>
      <trkpt lat="46.42293" lon="-1.5978">
        <ele>8.5</ele>
        <time>2020-06-03T10:22:49Z</time>
      </trkpt>
      <trkpt lat="46.42296" lon="-1.59773">
        <ele>8.6</ele>
        <time>2020-06-03T10:22:50Z</time>
      </trkpt>
      <trkpt lat="46.42299" lon="-1.59767">
        <ele>8.7</ele>
        <time>2020-06-03T10:22:51Z</time>
      </trkpt>
      <trkpt lat="46.42301" lon="-1.5976">
        <ele>8.8</ele>
        <time>2020-06-03T10:22:52Z</time>
      </trkpt>
      <trkpt lat="46.42304" lon="-1.59753">
        <ele>8.9</ele>
        <time>2020-06-03T10:22:53Z</time>
      </trkpt>
      <trkpt lat="46.42306" lon="-1.59746">
        <ele>9</ele>
        <time>2020-06-03T10:22:54Z</time>
      </trkpt>
      <trkpt lat="46.42309" lon="-1.5974">
        <ele>9.1</ele>
        <time>2020-06-03T10:22:55Z</time>
      </trkpt>
      <trkpt lat="46.42312" lon="-1.59733">
        <ele>9.2</ele>
        <time>2020-06-03T10:22:56Z</time>
      </trkpt>
      <trkpt lat="46.42315" lon="-1.59727">
        <ele>9.4</ele>
        <time>2020-06-03T10:22:57Z</time>
      </trkpt>
      <trkpt lat="46.42318" lon="-1.5972">
        <ele>9.5</ele>
        <time>2020-06-03T10:22:58Z</time>
      </trkpt>
      <trkpt lat="46.42322" lon="-1.59715">
        <ele>9.7</ele>
        <time>2020-06-03T10:22:59Z</time>
      </trkpt>
      <trkpt lat="46.42325" lon="-1.5971">
        <ele>9.8</ele>
        <time>2020-06-03T10:23:00Z</time>
      </trkpt>
      <trkpt lat="46.42328" lon="-1.59705">
        <ele>9.9</ele>
        <time>2020-06-03T10:23:01Z</time>
      </trkpt>
      <trkpt lat="46.42331" lon="-1.597">
        <ele>10</ele>
        <time>2020-06-03T10:23:02Z</time>
      </trkpt>
      <trkpt lat="46.42333" lon="-1.59694">
        <ele>10</ele>
        <time>2020-06-03T10:23:03Z</time>
      </trkpt>
      <trkpt lat="46.42334" lon="-1.59688">
        <ele>10</ele>
        <time>2020-06-03T10:23:04Z</time>
      </trkpt>
      <trkpt lat="46.42333" lon="-1.59682">
        <ele>10</ele>
        <time>2020-06-03T10:23:05Z</time>
      </trkpt>
      <trkpt lat="46.42332" lon="-1.59677">
        <ele>10.2</ele>
        <time>2020-06-03T10:23:06Z</time>
      </trkpt>
      <trkpt lat="46.4233" lon="-1.59671">
        <ele>10.3</ele>
        <time>2020-06-03T10:23:07Z</time>
      </trkpt>
      <trkpt lat="46.42329" lon="-1.59666">
        <ele>10.5</ele>
        <time>2020-06-03T10:23:08Z</time>
      </trkpt>
      <trkpt lat="46.42327" lon="-1.59661">
        <ele>10.6</ele>
        <time>2020-06-03T10:23:09Z</time>
      </trkpt>
      <trkpt lat="46.42325" lon="-1.59655">
        <ele>10.8</ele>
        <time>2020-06-03T10:23:10Z</time>
      </trkpt>
      <trkpt lat="46.42322" lon="-1.59651">
        <ele>11</ele>
        <time>2020-06-03T10:23:11Z</time>
      </trkpt>
      <trkpt lat="46.42319" lon="-1.59647">
        <ele>11.2</ele>
        <time>2020-06-03T10:23:12Z</time>
      </trkpt>
      <trkpt lat="46.42316" lon="-1.59642">
        <ele>11.4</ele>
        <time>2020-06-03T10:23:13Z</time>
      </trkpt>
      <trkpt lat="46.42314" lon="-1.59637">
        <ele>11.5</ele>
        <time>2020-06-03T10:23:14Z</time>
      </trkpt>
      <trkpt lat="46.42314" lon="-1.59632">
        <ele>11.7</ele>
        <time>2020-06-03T10:23:15Z</time>
      </trkpt>
      <trkpt lat="46.42315" lon="-1.59627">
        <ele>11.8</ele>
        <time>2020-06-03T10:23:16Z</time>
      </trkpt>
      <trkpt lat="46.42317" lon="-1.59622">
        <ele>11.9</ele>
        <time>2020-06-03T10:23:17Z</time>
      </trkpt>
      <trkpt lat="46.42319" lon="-1.59618">
        <ele>12</ele>
        <time>2020-06-03T10:23:18Z</time>
      </trkpt>
      <trkpt lat="46.42321" lon="-1.59613">
        <ele>12.2</ele>
        <time>2020-06-03T10:23:19Z</time>
      </trkpt>
      <trkpt lat="46.42323" lon="-1.59609">
        <ele>12.2</ele>
        <time>2020-06-03T10:23:20Z</time>
      </trkpt>
      <trkpt lat="46.42325" lon="-1.59604">
        <ele>12.3</ele>
        <time>2020-06-03T10:23:21Z</time>
      </trkpt>
      <trkpt lat="46.42327" lon="-1.59598">
        <ele>12.4</ele>
        <time>2020-06-03T10:23:22Z</time>
      </trkpt>
      <trkpt lat="46.4233" lon="-1.59593">
        <ele>12.5</ele>
        <time>2020-06-03T10:23:23Z</time>
      </trkpt>
      <trkpt lat="46.42332" lon="-1.59587">
        <ele>12.6</ele>
        <time>2020-06-03T10:23:24Z</time>
      </trkpt>
      <trkpt lat="46.42335" lon="-1.59581">
        <ele>12.7</ele>
        <time>2020-06-03T10:23:25Z</time>
      </trkpt>
      <trkpt lat="46.42338" lon="-1.59576">
        <ele>12.7</ele>
        <time>2020-06-03T10:23:26Z</time>
      </trkpt>
      <trkpt lat="46.4234" lon="-1.59571">
        <ele>12.8</ele>
        <time>2020-06-03T10:23:27Z</time>
      </trkpt>
      <trkpt lat="46.42343" lon="-1.59567">
        <ele>12.8</ele>
        <time>2020-06-03T10:23:28Z</time>
      </trkpt>
      <trkpt lat="46.42346" lon="-1.59563">
        <ele>12.8</ele>
        <time>2020-06-03T10:23:29Z</time>
      </trkpt>
      <trkpt lat="46.42349" lon="-1.59559">
        <ele>12.8</ele>
        <time>2020-06-03T10:23:30Z</time>
      </trkpt>
      <trkpt lat="46.42353" lon="-1.59556">
        <ele>12.8</ele>
        <time>2020-06-03T10:23:31Z</time>
      </trkpt>
      <trkpt lat="46.42356" lon="-1.59552">
        <ele>12.8</ele>
        <time>2020-06-03T10:23:32Z</time>
      </trkpt>
      <trkpt lat="46.4236" lon="-1.59549">
        <ele>12.8</ele>
        <time>2020-06-03T10:23:33Z</time>
      </trkpt>
      <trkpt lat="46.42363" lon="-1.59544">
        <ele>12.8</ele>
        <time>2020-06-03T10:23:34Z</time>
      </trkpt>
      <trkpt lat="46.42367" lon="-1.59541">
        <ele>12.8</ele>
        <time>2020-06-03T10:23:35Z</time>
      </trkpt>
      <trkpt lat="46.42371" lon="-1.59537">
        <ele>12.9</ele>
        <time>2020-06-03T10:23:36Z</time>
      </trkpt>
      <trkpt lat="46.42374" lon="-1.59533">
        <ele>12.9</ele>
        <time>2020-06-03T10:23:37Z</time>
      </trkpt>
      <trkpt lat="46.42378" lon="-1.59529">
        <ele>12.9</ele>
        <time>2020-06-03T10:23:38Z</time>
      </trkpt>
      <trkpt lat="46.42381" lon="-1.59524">
        <ele>12.9</ele>
        <time>2020-06-03T10:23:39Z</time>
      </trkpt>
      <trkpt lat="46.42385" lon="-1.59521">
        <ele>12.9</ele>
        <time>2020-06-03T10:23:40Z</time>
      </trkpt>
      <trkpt lat="46.42389" lon="-1.59519">
        <ele>13</ele>
        <time>2020-06-03T10:23:41Z</time>
      </trkpt>
      <trkpt lat="46.42393" lon="-1.59516">
        <ele>13</ele>
        <time>2020-06-03T10:23:42Z</time>
      </trkpt>
      <trkpt lat="46.42397" lon="-1.59513">
        <ele>13</ele>
        <time>2020-06-03T10:23:43Z</time>
      </trkpt>
      <trkpt lat="46.424" lon="-1.59509">
        <ele>13.1</ele>
        <time>2020-06-03T10:23:44Z</time>
      </trkpt>
      <trkpt lat="46.42405" lon="-1.59505">
        <ele>13.1</ele>
        <time>2020-06-03T10:23:45Z</time>
      </trkpt>
      <trkpt lat="46.42408" lon="-1.59501">
        <ele>13.1</ele>
        <time>2020-06-03T10:23:46Z</time>
      </trkpt>
      <trkpt lat="46.42412" lon="-1.59498">
        <ele>13.2</ele>
        <time>2020-06-03T10:23:47Z</time>
      </trkpt>
      <trkpt lat="46.42415" lon="-1.59492">
        <ele>13.2</ele>
        <time>2020-06-03T10:23:48Z</time>
      </trkpt>
      <trkpt lat="46.42419" lon="-1.59488">
        <ele>13.3</ele>
        <time>2020-06-03T10:23:49Z</time>
      </trkpt>
      <trkpt lat="46.42422" lon="-1.59484">
        <ele>13.3</ele>
        <time>2020-06-03T10:23:50Z</time>
      </trkpt>
      <trkpt lat="46.42426" lon="-1.59479">
        <ele>13.3</ele>
        <time>2020-06-03T10:23:51Z</time>
      </trkpt>
      <trkpt lat="46.4243" lon="-1.59475">
        <ele>13.3</ele>
        <time>2020-06-03T10:23:52Z</time>
      </trkpt>
      <trkpt lat="46.42433" lon="-1.59471">
        <ele>13.3</ele>
        <time>2020-06-03T10:23:53Z</time>
      </trkpt>
      <trkpt lat="46.42437" lon="-1.59467">
        <ele>13.4</ele>
        <time>2020-06-03T10:23:54Z</time>
      </trkpt>
      <trkpt lat="46.42441" lon="-1.59463">
        <ele>13.4</ele>
        <time>2020-06-03T10:23:55Z</time>
      </trkpt>
      <trkpt lat="46.42444" lon="-1.59458">
        <ele>13.4</ele>
        <time>2020-06-03T10:23:56Z</time>
      </trkpt>
      <trkpt lat="46.42448" lon="-1.59454">
        <ele>13.5</ele>
        <time>2020-06-03T10:23:57Z</time>
      </trkpt>
      <trkpt lat="46.42453" lon="-1.59449">
        <ele>13.5</ele>
        <time>2020-06-03T10:23:58Z</time>
      </trkpt>
      <trkpt lat="46.42457" lon="-1.59445">
        <ele>13.6</ele>
        <time>2020-06-03T10:23:59Z</time>
      </trkpt>
      <trkpt lat="46.42461" lon="-1.5944">
        <ele>13.6</ele>
        <time>2020-06-03T10:24:00Z</time>
      </trkpt>
      <trkpt lat="46.42466" lon="-1.59436">
        <ele>13.7</ele>
        <time>2020-06-03T10:24:01Z</time>
      </trkpt>
      <trkpt lat="46.42469" lon="-1.59431">
        <ele>13.7</ele>
        <time>2020-06-03T10:24:02Z</time>
      </trkpt>
      <trkpt lat="46.42473" lon="-1.59425">
        <ele>13.8</ele>
        <time>2020-06-03T10:24:03Z</time>
      </trkpt>
      <trkpt lat="46.42477" lon="-1.5942">
        <ele>13.8</ele>
        <time>2020-06-03T10:24:04Z</time>
      </trkpt>
      <trkpt lat="46.42481" lon="-1.59414">
        <ele>13.9</ele>
        <time>2020-06-03T10:24:05Z</time>
      </trkpt>
      <trkpt lat="46.42484" lon="-1.59408">
        <ele>13.9</ele>
        <time>2020-06-03T10:24:06Z</time>
      </trkpt>
      <trkpt lat="46.42489" lon="-1.59404">
        <ele>13.9</ele>
        <time>2020-06-03T10:24:07Z</time>
      </trkpt>
      <trkpt lat="46.42493" lon="-1.594">
        <ele>13.9</ele>
        <time>2020-06-03T10:24:08Z</time>
      </trkpt>
      <trkpt lat="46.42497" lon="-1.59395">
        <ele>13.9</ele>
        <time>2020-06-03T10:24:09Z</time>
      </trkpt>
      <trkpt lat="46.42502" lon="-1.59391">
        <ele>13.9</ele>
        <time>2020-06-03T10:24:10Z</time>
      </trkpt>
      <trkpt lat="46.42507" lon="-1.59388">
        <ele>13.9</ele>
        <time>2020-06-03T10:24:11Z</time>
      </trkpt>
      <trkpt lat="46.42511" lon="-1.59383">
        <ele>14</ele>
        <time>2020-06-03T10:24:12Z</time>
      </trkpt>
      <trkpt lat="46.42516" lon="-1.59378">
        <ele>14</ele>
        <time>2020-06-03T10:24:13Z</time>
      </trkpt>
      <trkpt lat="46.4252" lon="-1.59373">
        <ele>14</ele>
        <time>2020-06-03T10:24:14Z</time>
      </trkpt>
      <trkpt lat="46.42524" lon="-1.59367">
        <ele>14</ele>
        <time>2020-06-03T10:24:15Z</time>
      </trkpt>
      <trkpt lat="46.42528" lon="-1.59362">
        <ele>14</ele>
        <time>2020-06-03T10:24:16Z</time>
      </trkpt>
      <trkpt lat="46.42532" lon="-1.59356">
        <ele>14</ele>
        <time>2020-06-03T10:24:17Z</time>
      </trkpt>
      <trkpt lat="46.42536" lon="-1.5935">
        <ele>14.1</ele>
        <time>2020-06-03T10:24:18Z</time>
      </trkpt>
      <trkpt lat="46.42539" lon="-1.59344">
        <ele>14.1</ele>
        <time>2020-06-03T10:24:19Z</time>
      </trkpt>
      <trkpt lat="46.42543" lon="-1.59339">
        <ele>14.1</ele>
        <time>2020-06-03T10:24:20Z</time>
      </trkpt>
      <trkpt lat="46.42546" lon="-1.59333">
        <ele>14.1</ele>
        <time>2020-06-03T10:24:21Z</time>
      </trkpt>
      <trkpt lat="46.42549" lon="-1.59326">
        <ele>14.1</ele>
        <time>2020-06-03T10:24:22Z</time>
      </trkpt>
      <trkpt lat="46.42552" lon="-1.5932">
        <ele>14.1</ele>
        <time>2020-06-03T10:24:23Z</time>
      </trkpt>
      <trkpt lat="46.42556" lon="-1.59314">
        <ele>14.2</ele>
        <time>2020-06-03T10:24:24Z</time>
      </trkpt>
      <trkpt lat="46.42559" lon="-1.59307">
        <ele>14.2</ele>
        <time>2020-06-03T10:24:25Z</time>
      </trkpt>
      <trkpt lat="46.42561" lon="-1.593">
        <ele>14.2</ele>
        <time>2020-06-03T10:24:26Z</time>
      </trkpt>
      <trkpt lat="46.42564" lon="-1.59293">
        <ele>14.2</ele>
        <time>2020-06-03T10:24:27Z</time>
      </trkpt>
      <trkpt lat="46.42568" lon="-1.59287">
        <ele>14.2</ele>
        <time>2020-06-03T10:24:28Z</time>
      </trkpt>
      <trkpt lat="46.42571" lon="-1.59281">
        <ele>14.2</ele>
        <time>2020-06-03T10:24:29Z</time>
      </trkpt>
      <trkpt lat="46.42574" lon="-1.59275">
        <ele>14.2</ele>
        <time>2020-06-03T10:24:30Z</time>
      </trkpt>
      <trkpt lat="46.42577" lon="-1.59268">
        <ele>14.2</ele>
        <time>2020-06-03T10:24:31Z</time>
      </trkpt>
      <trkpt lat="46.4258" lon="-1.59261">
        <ele>14.2</ele>
        <time>2020-06-03T10:24:32Z</time>
      </trkpt>
      <trkpt lat="46.42583" lon="-1.59255">
        <ele>14.2</ele>
        <time>2020-06-03T10:24:33Z</time>
      </trkpt>
      <trkpt lat="46.42586" lon="-1.59249">
        <ele>14.2</ele>
        <time>2020-06-03T10:24:34Z</time>
      </trkpt>
      <trkpt lat="46.4259" lon="-1.59243">
        <ele>14.2</ele>
        <time>2020-06-03T10:24:35Z</time>
      </trkpt>
      <trkpt lat="46.42593" lon="-1.59237">
        <ele>14.2</ele>
        <time>2020-06-03T10:24:36Z</time>
      </trkpt>
      <trkpt lat="46.42596" lon="-1.59231">
        <ele>14.2</ele>
        <time>2020-06-03T10:24:37Z</time>
      </trkpt>
      <trkpt lat="46.42599" lon="-1.59225">
        <ele>14.2</ele>
        <time>2020-06-03T10:24:38Z</time>
      </trkpt>
      <trkpt lat="46.42603" lon="-1.59219">
        <ele>14.2</ele>
        <time>2020-06-03T10:24:39Z</time>
      </trkpt>
      <trkpt lat="46.42606" lon="-1.59213">
        <ele>14.2</ele>
        <time>2020-06-03T10:24:40Z</time>
      </trkpt>
      <trkpt lat="46.4261" lon="-1.59208">
        <ele>14.2</ele>
        <time>2020-06-03T10:24:41Z</time>
      </trkpt>
      <trkpt lat="46.42614" lon="-1.59203">
        <ele>14.2</ele>
        <time>2020-06-03T10:24:42Z</time>
      </trkpt>
      <trkpt lat="46.42618" lon="-1.59198">
        <ele>14.2</ele>
        <time>2020-06-03T10:24:43Z</time>
      </trkpt>
      <trkpt lat="46.42622" lon="-1.59193">
        <ele>14.2</ele>
        <time>2020-06-03T10:24:44Z</time>
      </trkpt>
      <trkpt lat="46.42625" lon="-1.59186">
        <ele>14.2</ele>
        <time>2020-06-03T10:24:45Z</time>
      </trkpt>
      <trkpt lat="46.42628" lon="-1.5918">
        <ele>14.2</ele>
        <time>2020-06-03T10:24:46Z</time>
      </trkpt>
      <trkpt lat="46.42631" lon="-1.59173">
        <ele>14.2</ele>
        <time>2020-06-03T10:24:47Z</time>
      </trkpt>
      <trkpt lat="46.42635" lon="-1.59166">
        <ele>14.3</ele>
        <time>2020-06-03T10:24:48Z</time>
      </trkpt>
      <trkpt lat="46.42638" lon="-1.5916">
        <ele>14.3</ele>
        <time>2020-06-03T10:24:49Z</time>
      </trkpt>
      <trkpt lat="46.42641" lon="-1.59153">
        <ele>14.3</ele>
        <time>2020-06-03T10:24:50Z</time>
      </trkpt>
      <trkpt lat="46.42643" lon="-1.59147">
        <ele>14.3</ele>
        <time>2020-06-03T10:24:51Z</time>
      </trkpt>
      <trkpt lat="46.42647" lon="-1.5914">
        <ele>14.3</ele>
        <time>2020-06-03T10:24:52Z</time>
      </trkpt>
      <trkpt lat="46.4265" lon="-1.59133">
        <ele>14.3</ele>
        <time>2020-06-03T10:24:53Z</time>
      </trkpt>
      <trkpt lat="46.42654" lon="-1.59126">
        <ele>14.3</ele>
        <time>2020-06-03T10:24:54Z</time>
      </trkpt>
      <trkpt lat="46.42657" lon="-1.59119">
        <ele>14.3</ele>
        <time>2020-06-03T10:24:55Z</time>
      </trkpt>
      <trkpt lat="46.4266" lon="-1.59113">
        <ele>14.2</ele>
        <time>2020-06-03T10:24:56Z</time>
      </trkpt>
      <trkpt lat="46.42663" lon="-1.59106">
        <ele>14.2</ele>
        <time>2020-06-03T10:24:57Z</time>
      </trkpt>
      <trkpt lat="46.42666" lon="-1.59099">
        <ele>14.2</ele>
        <time>2020-06-03T10:24:58Z</time>
      </trkpt>
      <trkpt lat="46.42668" lon="-1.59092">
        <ele>14.1</ele>
        <time>2020-06-03T10:24:59Z</time>
      </trkpt>
      <trkpt lat="46.42671" lon="-1.59084">
        <ele>14.1</ele>
        <time>2020-06-03T10:25:00Z</time>
      </trkpt>
      <trkpt lat="46.42674" lon="-1.59078">
        <ele>14.1</ele>
        <time>2020-06-03T10:25:01Z</time>
      </trkpt>
      <trkpt lat="46.42676" lon="-1.5907">
        <ele>14.1</ele>
        <time>2020-06-03T10:25:02Z</time>
      </trkpt>
      <trkpt lat="46.42678" lon="-1.59063">
        <ele>14.1</ele>
        <time>2020-06-03T10:25:03Z</time>
      </trkpt>
      <trkpt lat="46.42681" lon="-1.59056">
        <ele>14.1</ele>
        <time>2020-06-03T10:25:04Z</time>
      </trkpt>
      <trkpt lat="46.42685" lon="-1.59049">
        <ele>14.1</ele>
        <time>2020-06-03T10:25:05Z</time>
      </trkpt>
      <trkpt lat="46.42687" lon="-1.59041">
        <ele>14.1</ele>
        <time>2020-06-03T10:25:06Z</time>
      </trkpt>
      <trkpt lat="46.42689" lon="-1.59034">
        <ele>14.1</ele>
        <time>2020-06-03T10:25:07Z</time>
      </trkpt>
      <trkpt lat="46.42691" lon="-1.59027">
        <ele>14.1</ele>
        <time>2020-06-03T10:25:08Z</time>
      </trkpt>
      <trkpt lat="46.42693" lon="-1.59019">
        <ele>14.2</ele>
        <time>2020-06-03T10:25:09Z</time>
      </trkpt>
      <trkpt lat="46.42695" lon="-1.59012">
        <ele>14.2</ele>
        <time>2020-06-03T10:25:10Z</time>
      </trkpt>
      <trkpt lat="46.42698" lon="-1.59005">
        <ele>14.2</ele>
        <time>2020-06-03T10:25:11Z</time>
      </trkpt>
      <trkpt lat="46.427" lon="-1.58998">
        <ele>14.2</ele>
        <time>2020-06-03T10:25:12Z</time>
      </trkpt>
      <trkpt lat="46.42702" lon="-1.5899">
        <ele>14.2</ele>
        <time>2020-06-03T10:25:13Z</time>
      </trkpt>
      <trkpt lat="46.42705" lon="-1.58983">
        <ele>14.2</ele>
        <time>2020-06-03T10:25:14Z</time>
      </trkpt>
      <trkpt lat="46.42707" lon="-1.58976">
        <ele>14.2</ele>
        <time>2020-06-03T10:25:15Z</time>
      </trkpt>
      <trkpt lat="46.42709" lon="-1.58968">
        <ele>14.2</ele>
        <time>2020-06-03T10:25:16Z</time>
      </trkpt>
      <trkpt lat="46.42712" lon="-1.58962">
        <ele>14.2</ele>
        <time>2020-06-03T10:25:17Z</time>
      </trkpt>
      <trkpt lat="46.42715" lon="-1.58956">
        <ele>14.2</ele>
        <time>2020-06-03T10:25:18Z</time>
      </trkpt>
      <trkpt lat="46.42717" lon="-1.58948">
        <ele>14.2</ele>
        <time>2020-06-03T10:25:19Z</time>
      </trkpt>
      <trkpt lat="46.4272" lon="-1.58942">
        <ele>14.2</ele>
        <time>2020-06-03T10:25:20Z</time>
      </trkpt>
      <trkpt lat="46.42722" lon="-1.58935">
        <ele>14.2</ele>
        <time>2020-06-03T10:25:21Z</time>
      </trkpt>
      <trkpt lat="46.42725" lon="-1.58929">
        <ele>14.2</ele>
        <time>2020-06-03T10:25:22Z</time>
      </trkpt>
      <trkpt lat="46.42727" lon="-1.58922">
        <ele>14.2</ele>
        <time>2020-06-03T10:25:23Z</time>
      </trkpt>
      <trkpt lat="46.4273" lon="-1.58915">
        <ele>14.3</ele>
        <time>2020-06-03T10:25:24Z</time>
      </trkpt>
      <trkpt lat="46.42732" lon="-1.58909">
        <ele>14.3</ele>
        <time>2020-06-03T10:25:25Z</time>
      </trkpt>
      <trkpt lat="46.42734" lon="-1.58903">
        <ele>14.3</ele>
        <time>2020-06-03T10:25:26Z</time>
      </trkpt>
      <trkpt lat="46.42737" lon="-1.58898">
        <ele>14.3</ele>
        <time>2020-06-03T10:25:27Z</time>
      </trkpt>
      <trkpt lat="46.4274" lon="-1.58894">
        <ele>14.3</ele>
        <time>2020-06-03T10:25:28Z</time>
      </trkpt>
      <trkpt lat="46.42741" lon="-1.58889">
        <ele>14.3</ele>
        <time>2020-06-03T10:25:29Z</time>
      </trkpt>
      <trkpt lat="46.42743" lon="-1.58885">
        <ele>14.3</ele>
        <time>2020-06-03T10:25:30Z</time>
      </trkpt>
      <trkpt lat="46.42745" lon="-1.58881">
        <ele>14.3</ele>
        <time>2020-06-03T10:25:31Z</time>
      </trkpt>
      <trkpt lat="46.42746" lon="-1.5888">
        <ele>14.3</ele>
        <time>2020-06-03T10:25:32Z</time>
      </trkpt>
      <trkpt lat="46.4275" lon="-1.5888">
        <ele>14.3</ele>
        <time>2020-06-03T10:25:33Z</time>
      </trkpt>
      <trkpt lat="46.42751" lon="-1.5888">
        <ele>14.3</ele>
        <time>2020-06-03T10:25:34Z</time>
      </trkpt>
      <trkpt lat="46.42754" lon="-1.5888">
        <ele>14.1</ele>
        <time>2020-06-03T10:25:35Z</time>
      </trkpt>
      <trkpt lat="46.42758" lon="-1.58878">
        <ele>14</ele>
        <time>2020-06-03T10:25:36Z</time>
      </trkpt>
      <trkpt lat="46.42762" lon="-1.58877">
        <ele>14</ele>
        <time>2020-06-03T10:25:37Z</time>
      </trkpt>
      <trkpt lat="46.42765" lon="-1.58877">
        <ele>14</ele>
        <time>2020-06-03T10:25:38Z</time>
      </trkpt>
      <trkpt lat="46.42769" lon="-1.58877">
        <ele>13.9</ele>
        <time>2020-06-03T10:25:39Z</time>
      </trkpt>
      <trkpt lat="46.42772" lon="-1.58877">
        <ele>13.9</ele>
        <time>2020-06-03T10:25:40Z</time>
      </trkpt>
      <trkpt lat="46.42776" lon="-1.58875">
        <ele>13.8</ele>
        <time>2020-06-03T10:25:41Z</time>
      </trkpt>
      <trkpt lat="46.4278" lon="-1.58874">
        <ele>13.7</ele>
        <time>2020-06-03T10:25:42Z</time>
      </trkpt>
      <trkpt lat="46.42784" lon="-1.58875">
        <ele>13.6</ele>
        <time>2020-06-03T10:25:43Z</time>
      </trkpt>
      <trkpt lat="46.42787" lon="-1.58877">
        <ele>13.5</ele>
        <time>2020-06-03T10:25:44Z</time>
      </trkpt>
      <trkpt lat="46.42791" lon="-1.58876">
        <ele>13.4</ele>
        <time>2020-06-03T10:25:45Z</time>
      </trkpt>
      <trkpt lat="46.42794" lon="-1.58877">
        <ele>13.4</ele>
        <time>2020-06-03T10:25:46Z</time>
      </trkpt>
      <trkpt lat="46.42798" lon="-1.58877">
        <ele>13.3</ele>
        <time>2020-06-03T10:25:47Z</time>
      </trkpt>
      <trkpt lat="46.42801" lon="-1.58878">
        <ele>13.2</ele>
        <time>2020-06-03T10:25:48Z</time>
      </trkpt>
      <trkpt lat="46.42804" lon="-1.58879">
        <ele>13.1</ele>
        <time>2020-06-03T10:25:49Z</time>
      </trkpt>
      <trkpt lat="46.42808" lon="-1.58881">
        <ele>13.1</ele>
        <time>2020-06-03T10:25:50Z</time>
      </trkpt>
      <trkpt lat="46.42811" lon="-1.58883">
        <ele>13</ele>
        <time>2020-06-03T10:25:51Z</time>
      </trkpt>
      <trkpt lat="46.42814" lon="-1.58884">
        <ele>12.9</ele>
        <time>2020-06-03T10:25:52Z</time>
      </trkpt>
      <trkpt lat="46.42817" lon="-1.58886">
        <ele>12.9</ele>
        <time>2020-06-03T10:25:53Z</time>
      </trkpt>
      <trkpt lat="46.4282" lon="-1.58888">
        <ele>12.8</ele>
        <time>2020-06-03T10:25:54Z</time>
      </trkpt>
      <trkpt lat="46.42824" lon="-1.58889">
        <ele>12.7</ele>
        <time>2020-06-03T10:25:55Z</time>
      </trkpt>
      <trkpt lat="46.42828" lon="-1.5889">
        <ele>12.6</ele>
        <time>2020-06-03T10:25:56Z</time>
      </trkpt>
      <trkpt lat="46.42831" lon="-1.58891">
        <ele>12.6</ele>
        <time>2020-06-03T10:25:57Z</time>
      </trkpt>
      <trkpt lat="46.42835" lon="-1.58892">
        <ele>12.5</ele>
        <time>2020-06-03T10:25:58Z</time>
      </trkpt>
      <trkpt lat="46.42839" lon="-1.58892">
        <ele>12.5</ele>
        <time>2020-06-03T10:25:59Z</time>
      </trkpt>
      <trkpt lat="46.42842" lon="-1.58893">
        <ele>12.5</ele>
        <time>2020-06-03T10:26:00Z</time>
      </trkpt>
      <trkpt lat="46.42846" lon="-1.58892">
        <ele>12.4</ele>
        <time>2020-06-03T10:26:01Z</time>
      </trkpt>
      <trkpt lat="46.4285" lon="-1.58893">
        <ele>12.4</ele>
        <time>2020-06-03T10:26:02Z</time>
      </trkpt>
      <trkpt lat="46.42854" lon="-1.58893">
        <ele>12.2</ele>
        <time>2020-06-03T10:26:03Z</time>
      </trkpt>
      <trkpt lat="46.42858" lon="-1.58894">
        <ele>12</ele>
        <time>2020-06-03T10:26:04Z</time>
      </trkpt>
      <trkpt lat="46.42862" lon="-1.58896">
        <ele>11.7</ele>
        <time>2020-06-03T10:26:05Z</time>
      </trkpt>
      <trkpt lat="46.42867" lon="-1.58898">
        <ele>11.4</ele>
        <time>2020-06-03T10:26:06Z</time>
      </trkpt>
      <trkpt lat="46.42872" lon="-1.589">
        <ele>11</ele>
        <time>2020-06-03T10:26:07Z</time>
      </trkpt>
      <trkpt lat="46.42877" lon="-1.58904">
        <ele>10.5</ele>
        <time>2020-06-03T10:26:08Z</time>
      </trkpt>
      <trkpt lat="46.42882" lon="-1.58908">
        <ele>10</ele>
        <time>2020-06-03T10:26:09Z</time>
      </trkpt>
      <trkpt lat="46.42889" lon="-1.58913">
        <ele>9.4</ele>
        <time>2020-06-03T10:26:10Z</time>
      </trkpt>
      <trkpt lat="46.42895" lon="-1.58917">
        <ele>8.8</ele>
        <time>2020-06-03T10:26:11Z</time>
      </trkpt>
      <trkpt lat="46.42902" lon="-1.58921">
        <ele>8.1</ele>
        <time>2020-06-03T10:26:12Z</time>
      </trkpt>
      <trkpt lat="46.42909" lon="-1.58927">
        <ele>7.3</ele>
        <time>2020-06-03T10:26:13Z</time>
      </trkpt>
      <trkpt lat="46.42915" lon="-1.58935">
        <ele>6.5</ele>
        <time>2020-06-03T10:26:14Z</time>
      </trkpt>
      <trkpt lat="46.42921" lon="-1.58946">
        <ele>5.7</ele>
        <time>2020-06-03T10:26:15Z</time>
      </trkpt>
      <trkpt lat="46.42927" lon="-1.58958">
        <ele>5.1</ele>
        <time>2020-06-03T10:26:16Z</time>
      </trkpt>
      <trkpt lat="46.42932" lon="-1.5897">
        <ele>4.7</ele>
        <time>2020-06-03T10:26:17Z</time>
      </trkpt>
      <trkpt lat="46.42939" lon="-1.5898">
        <ele>4.3</ele>
        <time>2020-06-03T10:26:18Z</time>
      </trkpt>
      <trkpt lat="46.42945" lon="-1.58991">
        <ele>4.1</ele>
        <time>2020-06-03T10:26:19Z</time>
      </trkpt>
      <trkpt lat="46.42951" lon="-1.59002">
        <ele>4</ele>
        <time>2020-06-03T10:26:20Z</time>
      </trkpt>
      <trkpt lat="46.42954" lon="-1.59014">
        <ele>3.9</ele>
        <time>2020-06-03T10:26:21Z</time>
      </trkpt>
      <trkpt lat="46.42956" lon="-1.59026">
        <ele>3.9</ele>
        <time>2020-06-03T10:26:22Z</time>
      </trkpt>
      <trkpt lat="46.42959" lon="-1.59038">
        <ele>3.9</ele>
        <time>2020-06-03T10:26:23Z</time>
      </trkpt>
      <trkpt lat="46.42961" lon="-1.59048">
        <ele>3.9</ele>
        <time>2020-06-03T10:26:24Z</time>
      </trkpt>
      <trkpt lat="46.42964" lon="-1.59057">
        <ele>3.9</ele>
        <time>2020-06-03T10:26:25Z</time>
      </trkpt>
      <trkpt lat="46.42968" lon="-1.59066">
        <ele>3.9</ele>
        <time>2020-06-03T10:26:26Z</time>
      </trkpt>
      <trkpt lat="46.42972" lon="-1.59073">
        <ele>3.9</ele>
        <time>2020-06-03T10:26:27Z</time>
      </trkpt>
      <trkpt lat="46.42977" lon="-1.59079">
        <ele>3.9</ele>
        <time>2020-06-03T10:26:28Z</time>
      </trkpt>
      <trkpt lat="46.42981" lon="-1.59084">
        <ele>3.9</ele>
        <time>2020-06-03T10:26:29Z</time>
      </trkpt>
      <trkpt lat="46.42985" lon="-1.59089">
        <ele>3.9</ele>
        <time>2020-06-03T10:26:30Z</time>
      </trkpt>
      <trkpt lat="46.42989" lon="-1.59095">
        <ele>3.8</ele>
        <time>2020-06-03T10:26:31Z</time>
      </trkpt>
      <trkpt lat="46.42992" lon="-1.59101">
        <ele>3.8</ele>
        <time>2020-06-03T10:26:32Z</time>
      </trkpt>
      <trkpt lat="46.42996" lon="-1.59106">
        <ele>3.8</ele>
        <time>2020-06-03T10:26:33Z</time>
      </trkpt>
      <trkpt lat="46.42999" lon="-1.59111">
        <ele>3.8</ele>
        <time>2020-06-03T10:26:34Z</time>
      </trkpt>
      <trkpt lat="46.43002" lon="-1.59117">
        <ele>3.8</ele>
        <time>2020-06-03T10:26:35Z</time>
      </trkpt>
      <trkpt lat="46.43004" lon="-1.59123">
        <ele>3.8</ele>
        <time>2020-06-03T10:26:36Z</time>
      </trkpt>
      <trkpt lat="46.43006" lon="-1.59128">
        <ele>3.8</ele>
        <time>2020-06-03T10:26:37Z</time>
      </trkpt>
      <trkpt lat="46.43008" lon="-1.59134">
        <ele>3.8</ele>
        <time>2020-06-03T10:26:38Z</time>
      </trkpt>
      <trkpt lat="46.4301" lon="-1.5914">
        <ele>3.8</ele>
        <time>2020-06-03T10:26:39Z</time>
      </trkpt>
      <trkpt lat="46.43011" lon="-1.59146">
        <ele>3.8</ele>
        <time>2020-06-03T10:26:40Z</time>
      </trkpt>
      <trkpt lat="46.43012" lon="-1.59152">
        <ele>3.8</ele>
        <time>2020-06-03T10:26:41Z</time>
      </trkpt>
      <trkpt lat="46.43013" lon="-1.59158">
        <ele>3.8</ele>
        <time>2020-06-03T10:26:42Z</time>
      </trkpt>
      <trkpt lat="46.43013" lon="-1.59163">
        <ele>3.8</ele>
        <time>2020-06-03T10:26:43Z</time>
      </trkpt>
      <trkpt lat="46.43014" lon="-1.59169">
        <ele>3.8</ele>
        <time>2020-06-03T10:26:44Z</time>
      </trkpt>
      <trkpt lat="46.43014" lon="-1.59174">
        <ele>3.8</ele>
        <time>2020-06-03T10:26:45Z</time>
      </trkpt>
      <trkpt lat="46.43015" lon="-1.5918">
        <ele>3.8</ele>
        <time>2020-06-03T10:26:46Z</time>
      </trkpt>
      <trkpt lat="46.43016" lon="-1.59185">
        <ele>3.8</ele>
        <time>2020-06-03T10:26:47Z</time>
      </trkpt>
      <trkpt lat="46.43018" lon="-1.59191">
        <ele>3.8</ele>
        <time>2020-06-03T10:26:48Z</time>
      </trkpt>
      <trkpt lat="46.4302" lon="-1.59196">
        <ele>3.8</ele>
        <time>2020-06-03T10:26:49Z</time>
      </trkpt>
      <trkpt lat="46.43022" lon="-1.59201">
        <ele>3.8</ele>
        <time>2020-06-03T10:26:50Z</time>
      </trkpt>
      <trkpt lat="46.43025" lon="-1.59206">
        <ele>3.8</ele>
        <time>2020-06-03T10:26:51Z</time>
      </trkpt>
      <trkpt lat="46.43028" lon="-1.59211">
        <ele>3.8</ele>
        <time>2020-06-03T10:26:52Z</time>
      </trkpt>
      <trkpt lat="46.4303" lon="-1.59215">
        <ele>3.8</ele>
        <time>2020-06-03T10:26:53Z</time>
      </trkpt>
      <trkpt lat="46.43033" lon="-1.5922">
        <ele>3.8</ele>
        <time>2020-06-03T10:26:54Z</time>
      </trkpt>
      <trkpt lat="46.43036" lon="-1.59225">
        <ele>3.8</ele>
        <time>2020-06-03T10:26:55Z</time>
      </trkpt>
      <trkpt lat="46.43039" lon="-1.59229">
        <ele>3.8</ele>
        <time>2020-06-03T10:26:56Z</time>
      </trkpt>
      <trkpt lat="46.43042" lon="-1.59233">
        <ele>3.7</ele>
        <time>2020-06-03T10:26:57Z</time>
      </trkpt>
      <trkpt lat="46.43046" lon="-1.59237">
        <ele>3.7</ele>
        <time>2020-06-03T10:26:58Z</time>
      </trkpt>
      <trkpt lat="46.43049" lon="-1.5924">
        <ele>3.7</ele>
        <time>2020-06-03T10:26:59Z</time>
      </trkpt>
      <trkpt lat="46.43052" lon="-1.59245">
        <ele>3.7</ele>
        <time>2020-06-03T10:27:00Z</time>
      </trkpt>
      <trkpt lat="46.43055" lon="-1.59248">
        <ele>3.7</ele>
        <time>2020-06-03T10:27:01Z</time>
      </trkpt>
      <trkpt lat="46.43059" lon="-1.59251">
        <ele>3.7</ele>
        <time>2020-06-03T10:27:02Z</time>
      </trkpt>
      <trkpt lat="46.43062" lon="-1.59254">
        <ele>3.7</ele>
        <time>2020-06-03T10:27:03Z</time>
      </trkpt>
      <trkpt lat="46.43066" lon="-1.59257">
        <ele>3.7</ele>
        <time>2020-06-03T10:27:04Z</time>
      </trkpt>
      <trkpt lat="46.4307" lon="-1.59259">
        <ele>3.7</ele>
        <time>2020-06-03T10:27:05Z</time>
      </trkpt>
      <trkpt lat="46.43075" lon="-1.59262">
        <ele>3.6</ele>
        <time>2020-06-03T10:27:06Z</time>
      </trkpt>
      <trkpt lat="46.43079" lon="-1.59265">
        <ele>3.6</ele>
        <time>2020-06-03T10:27:07Z</time>
      </trkpt>
      <trkpt lat="46.43083" lon="-1.59268">
        <ele>3.6</ele>
        <time>2020-06-03T10:27:08Z</time>
      </trkpt>
      <trkpt lat="46.43086" lon="-1.59272">
        <ele>3.6</ele>
        <time>2020-06-03T10:27:09Z</time>
      </trkpt>
      <trkpt lat="46.4309" lon="-1.59277">
        <ele>3.6</ele>
        <time>2020-06-03T10:27:10Z</time>
      </trkpt>
      <trkpt lat="46.43093" lon="-1.59281">
        <ele>3.6</ele>
        <time>2020-06-03T10:27:11Z</time>
      </trkpt>
      <trkpt lat="46.43096" lon="-1.59285">
        <ele>3.6</ele>
        <time>2020-06-03T10:27:12Z</time>
      </trkpt>
      <trkpt lat="46.431" lon="-1.59288">
        <ele>3.6</ele>
        <time>2020-06-03T10:27:13Z</time>
      </trkpt>
      <trkpt lat="46.43103" lon="-1.59292">
        <ele>3.6</ele>
        <time>2020-06-03T10:27:14Z</time>
      </trkpt>
      <trkpt lat="46.43107" lon="-1.59296">
        <ele>3.6</ele>
        <time>2020-06-03T10:27:15Z</time>
      </trkpt>
      <trkpt lat="46.4311" lon="-1.593">
        <ele>3.6</ele>
        <time>2020-06-03T10:27:16Z</time>
      </trkpt>
      <trkpt lat="46.43113" lon="-1.59305">
        <ele>3.6</ele>
        <time>2020-06-03T10:27:17Z</time>
      </trkpt>
      <trkpt lat="46.43116" lon="-1.59308">
        <ele>3.6</ele>
        <time>2020-06-03T10:27:18Z</time>
      </trkpt>
      <trkpt lat="46.4312" lon="-1.59312">
        <ele>3.6</ele>
        <time>2020-06-03T10:27:19Z</time>
      </trkpt>
      <trkpt lat="46.43123" lon="-1.59315">
        <ele>3.6</ele>
        <time>2020-06-03T10:27:20Z</time>
      </trkpt>
      <trkpt lat="46.43127" lon="-1.59319">
        <ele>3.6</ele>
        <time>2020-06-03T10:27:21Z</time>
      </trkpt>
      <trkpt lat="46.4313" lon="-1.59322">
        <ele>3.6</ele>
        <time>2020-06-03T10:27:22Z</time>
      </trkpt>
      <trkpt lat="46.43134" lon="-1.59327">
        <ele>3.6</ele>
        <time>2020-06-03T10:27:23Z</time>
      </trkpt>
      <trkpt lat="46.43137" lon="-1.59332">
        <ele>3.6</ele>
        <time>2020-06-03T10:27:24Z</time>
      </trkpt>
      <trkpt lat="46.4314" lon="-1.59336">
        <ele>3.6</ele>
        <time>2020-06-03T10:27:25Z</time>
      </trkpt>
      <trkpt lat="46.43143" lon="-1.59341">
        <ele>3.5</ele>
        <time>2020-06-03T10:27:26Z</time>
      </trkpt>
      <trkpt lat="46.43147" lon="-1.59345">
        <ele>3.5</ele>
        <time>2020-06-03T10:27:27Z</time>
      </trkpt>
      <trkpt lat="46.4315" lon="-1.59349">
        <ele>3.5</ele>
        <time>2020-06-03T10:27:28Z</time>
      </trkpt>
      <trkpt lat="46.43153" lon="-1.59354">
        <ele>3.5</ele>
        <time>2020-06-03T10:27:29Z</time>
      </trkpt>
      <trkpt lat="46.43156" lon="-1.59359">
        <ele>3.5</ele>
        <time>2020-06-03T10:27:30Z</time>
      </trkpt>
      <trkpt lat="46.43158" lon="-1.59364">
        <ele>3.5</ele>
        <time>2020-06-03T10:27:31Z</time>
      </trkpt>
      <trkpt lat="46.4316" lon="-1.59369">
        <ele>3.5</ele>
        <time>2020-06-03T10:27:32Z</time>
      </trkpt>
      <trkpt lat="46.43162" lon="-1.59375">
        <ele>3.5</ele>
        <time>2020-06-03T10:27:33Z</time>
      </trkpt>
      <trkpt lat="46.43165" lon="-1.59381">
        <ele>3.5</ele>
        <time>2020-06-03T10:27:34Z</time>
      </trkpt>
      <trkpt lat="46.43167" lon="-1.59386">
        <ele>3.5</ele>
        <time>2020-06-03T10:27:35Z</time>
      </trkpt>
      <trkpt lat="46.43169" lon="-1.59391">
        <ele>3.5</ele>
        <time>2020-06-03T10:27:36Z</time>
      </trkpt>
      <trkpt lat="46.43172" lon="-1.59397">
        <ele>3.5</ele>
        <time>2020-06-03T10:27:37Z</time>
      </trkpt>
      <trkpt lat="46.43174" lon="-1.59402">
        <ele>3.5</ele>
        <time>2020-06-03T10:27:38Z</time>
      </trkpt>
      <trkpt lat="46.43176" lon="-1.59408">
        <ele>3.5</ele>
        <time>2020-06-03T10:27:39Z</time>
      </trkpt>
      <trkpt lat="46.43179" lon="-1.59413">
        <ele>3.5</ele>
        <time>2020-06-03T10:27:40Z</time>
      </trkpt>
      <trkpt lat="46.43181" lon="-1.59419">
        <ele>3.5</ele>
        <time>2020-06-03T10:27:41Z</time>
      </trkpt>
      <trkpt lat="46.43184" lon="-1.59424">
        <ele>3.5</ele>
        <time>2020-06-03T10:27:42Z</time>
      </trkpt>
      <trkpt lat="46.43186" lon="-1.5943">
        <ele>3.5</ele>
        <time>2020-06-03T10:27:43Z</time>
      </trkpt>
      <trkpt lat="46.43189" lon="-1.59436">
        <ele>3.5</ele>
        <time>2020-06-03T10:27:44Z</time>
      </trkpt>
      <trkpt lat="46.43193" lon="-1.59441">
        <ele>3.5</ele>
        <time>2020-06-03T10:27:45Z</time>
      </trkpt>
      <trkpt lat="46.43195" lon="-1.59446">
        <ele>3.5</ele>
        <time>2020-06-03T10:27:46Z</time>
      </trkpt>
      <trkpt lat="46.43198" lon="-1.5945">
        <ele>3.4</ele>
        <time>2020-06-03T10:27:47Z</time>
      </trkpt>
      <trkpt lat="46.43202" lon="-1.59454">
        <ele>3.4</ele>
        <time>2020-06-03T10:27:48Z</time>
      </trkpt>
      <trkpt lat="46.43205" lon="-1.59459">
        <ele>3.4</ele>
        <time>2020-06-03T10:27:49Z</time>
      </trkpt>
      <trkpt lat="46.43208" lon="-1.59464">
        <ele>3.4</ele>
        <time>2020-06-03T10:27:50Z</time>
      </trkpt>
      <trkpt lat="46.43211" lon="-1.59468">
        <ele>3.4</ele>
        <time>2020-06-03T10:27:51Z</time>
      </trkpt>
      <trkpt lat="46.43215" lon="-1.59473">
        <ele>3.4</ele>
        <time>2020-06-03T10:27:52Z</time>
      </trkpt>
      <trkpt lat="46.43218" lon="-1.59477">
        <ele>3.4</ele>
        <time>2020-06-03T10:27:53Z</time>
      </trkpt>
      <trkpt lat="46.43222" lon="-1.59482">
        <ele>3.4</ele>
        <time>2020-06-03T10:27:54Z</time>
      </trkpt>
      <trkpt lat="46.43225" lon="-1.59486">
        <ele>3.4</ele>
        <time>2020-06-03T10:27:55Z</time>
      </trkpt>
      <trkpt lat="46.43228" lon="-1.59491">
        <ele>3.4</ele>
        <time>2020-06-03T10:27:56Z</time>
      </trkpt>
      <trkpt lat="46.43231" lon="-1.59495">
        <ele>3.4</ele>
        <time>2020-06-03T10:27:57Z</time>
      </trkpt>
      <trkpt lat="46.43234" lon="-1.59499">
        <ele>3.4</ele>
        <time>2020-06-03T10:27:58Z</time>
      </trkpt>
      <trkpt lat="46.43237" lon="-1.59503">
        <ele>3.4</ele>
        <time>2020-06-03T10:27:59Z</time>
      </trkpt>
      <trkpt lat="46.4324" lon="-1.59506">
        <ele>3.4</ele>
        <time>2020-06-03T10:28:00Z</time>
      </trkpt>
      <trkpt lat="46.43243" lon="-1.5951">
        <ele>3.4</ele>
        <time>2020-06-03T10:28:01Z</time>
      </trkpt>
      <trkpt lat="46.43246" lon="-1.59513">
        <ele>3.4</ele>
        <time>2020-06-03T10:28:02Z</time>
      </trkpt>
      <trkpt lat="46.43249" lon="-1.59518">
        <ele>3.4</ele>
        <time>2020-06-03T10:28:03Z</time>
      </trkpt>
      <trkpt lat="46.43252" lon="-1.59522">
        <ele>3.4</ele>
        <time>2020-06-03T10:28:04Z</time>
      </trkpt>
      <trkpt lat="46.43255" lon="-1.59525">
        <ele>3.4</ele>
        <time>2020-06-03T10:28:05Z</time>
      </trkpt>
      <trkpt lat="46.43258" lon="-1.59528">
        <ele>3.4</ele>
        <time>2020-06-03T10:28:06Z</time>
      </trkpt>
      <trkpt lat="46.43261" lon="-1.59532">
        <ele>3.4</ele>
        <time>2020-06-03T10:28:07Z</time>
      </trkpt>
      <trkpt lat="46.43264" lon="-1.59534">
        <ele>3.4</ele>
        <time>2020-06-03T10:28:08Z</time>
      </trkpt>
      <trkpt lat="46.43266" lon="-1.59537">
        <ele>3.4</ele>
        <time>2020-06-03T10:28:09Z</time>
      </trkpt>
      <trkpt lat="46.43269" lon="-1.59539">
        <ele>3.4</ele>
        <time>2020-06-03T10:28:10Z</time>
      </trkpt>
      <trkpt lat="46.43272" lon="-1.59541">
        <ele>3.4</ele>
        <time>2020-06-03T10:28:11Z</time>
      </trkpt>
      <trkpt lat="46.43275" lon="-1.59544">
        <ele>3.4</ele>
        <time>2020-06-03T10:28:12Z</time>
      </trkpt>
      <trkpt lat="46.43278" lon="-1.59548">
        <ele>3.4</ele>
        <time>2020-06-03T10:28:13Z</time>
      </trkpt>
      <trkpt lat="46.4328" lon="-1.59553">
        <ele>3.4</ele>
        <time>2020-06-03T10:28:14Z</time>
      </trkpt>
      <trkpt lat="46.43284" lon="-1.59556">
        <ele>3.4</ele>
        <time>2020-06-03T10:28:15Z</time>
      </trkpt>
      <trkpt lat="46.43287" lon="-1.5956">
        <ele>3.4</ele>
        <time>2020-06-03T10:28:16Z</time>
      </trkpt>
      <trkpt lat="46.4329" lon="-1.59565">
        <ele>3.4</ele>
        <time>2020-06-03T10:28:17Z</time>
      </trkpt>
      <trkpt lat="46.43293" lon="-1.59569">
        <ele>3.4</ele>
        <time>2020-06-03T10:28:18Z</time>
      </trkpt>
      <trkpt lat="46.43296" lon="-1.59574">
        <ele>3.4</ele>
        <time>2020-06-03T10:28:19Z</time>
      </trkpt>
      <trkpt lat="46.43299" lon="-1.59578">
        <ele>3.4</ele>
        <time>2020-06-03T10:28:20Z</time>
      </trkpt>
      <trkpt lat="46.43303" lon="-1.59583">
        <ele>3.4</ele>
        <time>2020-06-03T10:28:21Z</time>
      </trkpt>
      <trkpt lat="46.43306" lon="-1.59587">
        <ele>3.4</ele>
        <time>2020-06-03T10:28:22Z</time>
      </trkpt>
      <trkpt lat="46.43308" lon="-1.59592">
        <ele>3.4</ele>
        <time>2020-06-03T10:28:23Z</time>
      </trkpt>
      <trkpt lat="46.4331" lon="-1.59597">
        <ele>3.4</ele>
        <time>2020-06-03T10:28:24Z</time>
      </trkpt>
      <trkpt lat="46.43313" lon="-1.59602">
        <ele>3.5</ele>
        <time>2020-06-03T10:28:25Z</time>
      </trkpt>
      <trkpt lat="46.43315" lon="-1.59607">
        <ele>3.5</ele>
        <time>2020-06-03T10:28:26Z</time>
      </trkpt>
      <trkpt lat="46.43318" lon="-1.59612">
        <ele>3.5</ele>
        <time>2020-06-03T10:28:27Z</time>
      </trkpt>
      <trkpt lat="46.4332" lon="-1.59617">
        <ele>3.4</ele>
        <time>2020-06-03T10:28:28Z</time>
      </trkpt>
      <trkpt lat="46.43322" lon="-1.59622">
        <ele>3.4</ele>
        <time>2020-06-03T10:28:29Z</time>
      </trkpt>
      <trkpt lat="46.43325" lon="-1.59626">
        <ele>3.4</ele>
        <time>2020-06-03T10:28:30Z</time>
      </trkpt>
      <trkpt lat="46.43328" lon="-1.59631">
        <ele>3.4</ele>
        <time>2020-06-03T10:28:31Z</time>
      </trkpt>
      <trkpt lat="46.43331" lon="-1.59636">
        <ele>3.4</ele>
        <time>2020-06-03T10:28:32Z</time>
      </trkpt>
      <trkpt lat="46.43333" lon="-1.59642">
        <ele>3.4</ele>
        <time>2020-06-03T10:28:33Z</time>
      </trkpt>
      <trkpt lat="46.43336" lon="-1.59647">
        <ele>3.4</ele>
        <time>2020-06-03T10:28:34Z</time>
      </trkpt>
      <trkpt lat="46.43338" lon="-1.59652">
        <ele>3.4</ele>
        <time>2020-06-03T10:28:35Z</time>
      </trkpt>
      <trkpt lat="46.43341" lon="-1.59658">
        <ele>3.4</ele>
        <time>2020-06-03T10:28:36Z</time>
      </trkpt>
      <trkpt lat="46.43343" lon="-1.59664">
        <ele>3.4</ele>
        <time>2020-06-03T10:28:37Z</time>
      </trkpt>
      <trkpt lat="46.43345" lon="-1.5967">
        <ele>3.4</ele>
        <time>2020-06-03T10:28:38Z</time>
      </trkpt>
      <trkpt lat="46.43347" lon="-1.59676">
        <ele>3.4</ele>
        <time>2020-06-03T10:28:39Z</time>
      </trkpt>
      <trkpt lat="46.4335" lon="-1.59682">
        <ele>3.4</ele>
        <time>2020-06-03T10:28:40Z</time>
      </trkpt>
      <trkpt lat="46.43352" lon="-1.59688">
        <ele>3.4</ele>
        <time>2020-06-03T10:28:41Z</time>
      </trkpt>
      <trkpt lat="46.43355" lon="-1.59693">
        <ele>3.4</ele>
        <time>2020-06-03T10:28:42Z</time>
      </trkpt>
      <trkpt lat="46.43358" lon="-1.59698">
        <ele>3.5</ele>
        <time>2020-06-03T10:28:43Z</time>
      </trkpt>
      <trkpt lat="46.43359" lon="-1.59704">
        <ele>3.5</ele>
        <time>2020-06-03T10:28:44Z</time>
      </trkpt>
      <trkpt lat="46.43361" lon="-1.5971">
        <ele>3.5</ele>
        <time>2020-06-03T10:28:45Z</time>
      </trkpt>
      <trkpt lat="46.43364" lon="-1.59715">
        <ele>3.5</ele>
        <time>2020-06-03T10:28:46Z</time>
      </trkpt>
      <trkpt lat="46.43366" lon="-1.5972">
        <ele>3.5</ele>
        <time>2020-06-03T10:28:47Z</time>
      </trkpt>
      <trkpt lat="46.43367" lon="-1.59725">
        <ele>3.4</ele>
        <time>2020-06-03T10:28:48Z</time>
      </trkpt>
      <trkpt lat="46.43368" lon="-1.59731">
        <ele>3.4</ele>
        <time>2020-06-03T10:28:49Z</time>
      </trkpt>
      <trkpt lat="46.43368" lon="-1.59738">
        <ele>3.4</ele>
        <time>2020-06-03T10:28:50Z</time>
      </trkpt>
      <trkpt lat="46.43368" lon="-1.59744">
        <ele>3.4</ele>
        <time>2020-06-03T10:28:51Z</time>
      </trkpt>
      <trkpt lat="46.43369" lon="-1.59751">
        <ele>3.4</ele>
        <time>2020-06-03T10:28:52Z</time>
      </trkpt>
      <trkpt lat="46.4337" lon="-1.59758">
        <ele>3.4</ele>
        <time>2020-06-03T10:28:53Z</time>
      </trkpt>
      <trkpt lat="46.4337" lon="-1.59765">
        <ele>3.4</ele>
        <time>2020-06-03T10:28:54Z</time>
      </trkpt>
      <trkpt lat="46.43372" lon="-1.59772">
        <ele>3.4</ele>
        <time>2020-06-03T10:28:55Z</time>
      </trkpt>
      <trkpt lat="46.43374" lon="-1.59778">
        <ele>3.4</ele>
        <time>2020-06-03T10:28:56Z</time>
      </trkpt>
      <trkpt lat="46.43375" lon="-1.59784">
        <ele>3.4</ele>
        <time>2020-06-03T10:28:57Z</time>
      </trkpt>
      <trkpt lat="46.43377" lon="-1.5979">
        <ele>3.4</ele>
        <time>2020-06-03T10:28:58Z</time>
      </trkpt>
      <trkpt lat="46.43379" lon="-1.59797">
        <ele>3.4</ele>
        <time>2020-06-03T10:28:59Z</time>
      </trkpt>
      <trkpt lat="46.43381" lon="-1.59803">
        <ele>3.4</ele>
        <time>2020-06-03T10:29:00Z</time>
      </trkpt>
      <trkpt lat="46.43383" lon="-1.5981">
        <ele>3.3</ele>
        <time>2020-06-03T10:29:01Z</time>
      </trkpt>
      <trkpt lat="46.43385" lon="-1.59816">
        <ele>3.3</ele>
        <time>2020-06-03T10:29:02Z</time>
      </trkpt>
      <trkpt lat="46.43387" lon="-1.59821">
        <ele>3.3</ele>
        <time>2020-06-03T10:29:03Z</time>
      </trkpt>
      <trkpt lat="46.4339" lon="-1.59827">
        <ele>3.3</ele>
        <time>2020-06-03T10:29:04Z</time>
      </trkpt>
      <trkpt lat="46.43392" lon="-1.59833">
        <ele>3.3</ele>
        <time>2020-06-03T10:29:05Z</time>
      </trkpt>
      <trkpt lat="46.43394" lon="-1.59839">
        <ele>3.3</ele>
        <time>2020-06-03T10:29:06Z</time>
      </trkpt>
      <trkpt lat="46.43395" lon="-1.59845">
        <ele>3.3</ele>
        <time>2020-06-03T10:29:07Z</time>
      </trkpt>
      <trkpt lat="46.43397" lon="-1.59851">
        <ele>3.3</ele>
        <time>2020-06-03T10:29:08Z</time>
      </trkpt>
      <trkpt lat="46.43399" lon="-1.59857">
        <ele>3.3</ele>
        <time>2020-06-03T10:29:09Z</time>
      </trkpt>
      <trkpt lat="46.43401" lon="-1.59863">
        <ele>3.3</ele>
        <time>2020-06-03T10:29:10Z</time>
      </trkpt>
      <trkpt lat="46.43402" lon="-1.5987">
        <ele>3.2</ele>
        <time>2020-06-03T10:29:11Z</time>
      </trkpt>
      <trkpt lat="46.43403" lon="-1.59876">
        <ele>3.2</ele>
        <time>2020-06-03T10:29:12Z</time>
      </trkpt>
      <trkpt lat="46.43403" lon="-1.59883">
        <ele>3.2</ele>
        <time>2020-06-03T10:29:13Z</time>
      </trkpt>
      <trkpt lat="46.43404" lon="-1.59889">
        <ele>3.2</ele>
        <time>2020-06-03T10:29:14Z</time>
      </trkpt>
      <trkpt lat="46.43405" lon="-1.59895">
        <ele>3.2</ele>
        <time>2020-06-03T10:29:15Z</time>
      </trkpt>
      <trkpt lat="46.43405" lon="-1.59901">
        <ele>3.2</ele>
        <time>2020-06-03T10:29:16Z</time>
      </trkpt>
      <trkpt lat="46.43406" lon="-1.59907">
        <ele>3.2</ele>
        <time>2020-06-03T10:29:17Z</time>
      </trkpt>
      <trkpt lat="46.43407" lon="-1.59913">
        <ele>3.2</ele>
        <time>2020-06-03T10:29:18Z</time>
      </trkpt>
      <trkpt lat="46.43408" lon="-1.59919">
        <ele>3.2</ele>
        <time>2020-06-03T10:29:19Z</time>
      </trkpt>
      <trkpt lat="46.4341" lon="-1.59925">
        <ele>3.2</ele>
        <time>2020-06-03T10:29:20Z</time>
      </trkpt>
      <trkpt lat="46.43411" lon="-1.59932">
        <ele>3.2</ele>
        <time>2020-06-03T10:29:21Z</time>
      </trkpt>
      <trkpt lat="46.43413" lon="-1.59938">
        <ele>3.2</ele>
        <time>2020-06-03T10:29:22Z</time>
      </trkpt>
      <trkpt lat="46.43415" lon="-1.59945">
        <ele>3.2</ele>
        <time>2020-06-03T10:29:23Z</time>
      </trkpt>
      <trkpt lat="46.43417" lon="-1.59951">
        <ele>3.3</ele>
        <time>2020-06-03T10:29:24Z</time>
      </trkpt>
      <trkpt lat="46.43418" lon="-1.59956">
        <ele>3.3</ele>
        <time>2020-06-03T10:29:25Z</time>
      </trkpt>
      <trkpt lat="46.4342" lon="-1.59962">
        <ele>3.3</ele>
        <time>2020-06-03T10:29:26Z</time>
      </trkpt>
      <trkpt lat="46.43422" lon="-1.59967">
        <ele>3.3</ele>
        <time>2020-06-03T10:29:27Z</time>
      </trkpt>
      <trkpt lat="46.43423" lon="-1.59973">
        <ele>3.3</ele>
        <time>2020-06-03T10:29:28Z</time>
      </trkpt>
      <trkpt lat="46.43426" lon="-1.59977">
        <ele>3.3</ele>
        <time>2020-06-03T10:29:29Z</time>
      </trkpt>
      <trkpt lat="46.43428" lon="-1.59981">
        <ele>3.3</ele>
        <time>2020-06-03T10:29:30Z</time>
      </trkpt>
      <trkpt lat="46.43431" lon="-1.59986">
        <ele>3.4</ele>
        <time>2020-06-03T10:29:31Z</time>
      </trkpt>
      <trkpt lat="46.43433" lon="-1.59991">
        <ele>3.4</ele>
        <time>2020-06-03T10:29:32Z</time>
      </trkpt>
      <trkpt lat="46.43436" lon="-1.59996">
        <ele>3.4</ele>
        <time>2020-06-03T10:29:33Z</time>
      </trkpt>
      <trkpt lat="46.43439" lon="-1.60001">
        <ele>3.4</ele>
        <time>2020-06-03T10:29:34Z</time>
      </trkpt>
      <trkpt lat="46.43441" lon="-1.60006">
        <ele>3.4</ele>
        <time>2020-06-03T10:29:35Z</time>
      </trkpt>
      <trkpt lat="46.43444" lon="-1.60012">
        <ele>3.4</ele>
        <time>2020-06-03T10:29:36Z</time>
      </trkpt>
      <trkpt lat="46.43445" lon="-1.60018">
        <ele>3.4</ele>
        <time>2020-06-03T10:29:37Z</time>
      </trkpt>
      <trkpt lat="46.43447" lon="-1.60023">
        <ele>3.4</ele>
        <time>2020-06-03T10:29:38Z</time>
      </trkpt>
      <trkpt lat="46.43448" lon="-1.6003">
        <ele>3.4</ele>
        <time>2020-06-03T10:29:39Z</time>
      </trkpt>
      <trkpt lat="46.43449" lon="-1.60036">
        <ele>3.4</ele>
        <time>2020-06-03T10:29:40Z</time>
      </trkpt>
      <trkpt lat="46.4345" lon="-1.60043">
        <ele>3.4</ele>
        <time>2020-06-03T10:29:41Z</time>
      </trkpt>
      <trkpt lat="46.43451" lon="-1.60049">
        <ele>3.4</ele>
        <time>2020-06-03T10:29:42Z</time>
      </trkpt>
      <trkpt lat="46.43452" lon="-1.60055">
        <ele>3.4</ele>
        <time>2020-06-03T10:29:43Z</time>
      </trkpt>
      <trkpt lat="46.43453" lon="-1.60061">
        <ele>3.4</ele>
        <time>2020-06-03T10:29:44Z</time>
      </trkpt>
      <trkpt lat="46.43454" lon="-1.60067">
        <ele>3.4</ele>
        <time>2020-06-03T10:29:45Z</time>
      </trkpt>
      <trkpt lat="46.43455" lon="-1.60073">
        <ele>3.4</ele>
        <time>2020-06-03T10:29:46Z</time>
      </trkpt>
      <trkpt lat="46.43456" lon="-1.6008">
        <ele>3.4</ele>
        <time>2020-06-03T10:29:47Z</time>
      </trkpt>
      <trkpt lat="46.43456" lon="-1.60086">
        <ele>3.4</ele>
        <time>2020-06-03T10:29:48Z</time>
      </trkpt>
      <trkpt lat="46.43457" lon="-1.60092">
        <ele>3.4</ele>
        <time>2020-06-03T10:29:49Z</time>
      </trkpt>
      <trkpt lat="46.43457" lon="-1.60098">
        <ele>3.4</ele>
        <time>2020-06-03T10:29:50Z</time>
      </trkpt>
      <trkpt lat="46.43458" lon="-1.60105">
        <ele>3.4</ele>
        <time>2020-06-03T10:29:51Z</time>
      </trkpt>
      <trkpt lat="46.43458" lon="-1.60111">
        <ele>3.4</ele>
        <time>2020-06-03T10:29:52Z</time>
      </trkpt>
      <trkpt lat="46.43458" lon="-1.60118">
        <ele>3.4</ele>
        <time>2020-06-03T10:29:53Z</time>
      </trkpt>
      <trkpt lat="46.43458" lon="-1.60124">
        <ele>3.4</ele>
        <time>2020-06-03T10:29:54Z</time>
      </trkpt>
      <trkpt lat="46.43458" lon="-1.6013">
        <ele>3.5</ele>
        <time>2020-06-03T10:29:55Z</time>
      </trkpt>
      <trkpt lat="46.43459" lon="-1.60136">
        <ele>3.5</ele>
        <time>2020-06-03T10:29:56Z</time>
      </trkpt>
      <trkpt lat="46.43459" lon="-1.60141">
        <ele>3.5</ele>
        <time>2020-06-03T10:29:57Z</time>
      </trkpt>
      <trkpt lat="46.4346" lon="-1.60147">
        <ele>3.5</ele>
        <time>2020-06-03T10:29:58Z</time>
      </trkpt>
      <trkpt lat="46.43461" lon="-1.60154">
        <ele>3.5</ele>
        <time>2020-06-03T10:29:59Z</time>
      </trkpt>
      <trkpt lat="46.43462" lon="-1.6016">
        <ele>3.5</ele>
        <time>2020-06-03T10:30:00Z</time>
      </trkpt>
      <trkpt lat="46.43464" lon="-1.60165">
        <ele>3.5</ele>
        <time>2020-06-03T10:30:01Z</time>
      </trkpt>
      <trkpt lat="46.43468" lon="-1.60168">
        <ele>3.5</ele>
        <time>2020-06-03T10:30:02Z</time>
      </trkpt>
      <trkpt lat="46.43472" lon="-1.60169">
        <ele>3.5</ele>
        <time>2020-06-03T10:30:03Z</time>
      </trkpt>
      <trkpt lat="46.43477" lon="-1.60169">
        <ele>3.5</ele>
        <time>2020-06-03T10:30:04Z</time>
      </trkpt>
      <trkpt lat="46.43481" lon="-1.6017">
        <ele>3.5</ele>
        <time>2020-06-03T10:30:05Z</time>
      </trkpt>
      <trkpt lat="46.43485" lon="-1.60171">
        <ele>3.5</ele>
        <time>2020-06-03T10:30:06Z</time>
      </trkpt>
      <trkpt lat="46.43489" lon="-1.60173">
        <ele>3.5</ele>
        <time>2020-06-03T10:30:07Z</time>
      </trkpt>
      <trkpt lat="46.43494" lon="-1.60175">
        <ele>3.4</ele>
        <time>2020-06-03T10:30:08Z</time>
      </trkpt>
      <trkpt lat="46.43498" lon="-1.60177">
        <ele>3.4</ele>
        <time>2020-06-03T10:30:09Z</time>
      </trkpt>
      <trkpt lat="46.43501" lon="-1.60182">
        <ele>3.4</ele>
        <time>2020-06-03T10:30:10Z</time>
      </trkpt>
      <trkpt lat="46.43504" lon="-1.60187">
        <ele>3.4</ele>
        <time>2020-06-03T10:30:11Z</time>
      </trkpt>
      <trkpt lat="46.43506" lon="-1.60193">
        <ele>3.4</ele>
        <time>2020-06-03T10:30:12Z</time>
      </trkpt>
      <trkpt lat="46.43509" lon="-1.60198">
        <ele>3.4</ele>
        <time>2020-06-03T10:30:13Z</time>
      </trkpt>
      <trkpt lat="46.43511" lon="-1.60204">
        <ele>3.4</ele>
        <time>2020-06-03T10:30:14Z</time>
      </trkpt>
      <trkpt lat="46.43514" lon="-1.60209">
        <ele>3.4</ele>
        <time>2020-06-03T10:30:15Z</time>
      </trkpt>
      <trkpt lat="46.43516" lon="-1.60215">
        <ele>3.4</ele>
        <time>2020-06-03T10:30:16Z</time>
      </trkpt>
      <trkpt lat="46.43519" lon="-1.6022">
        <ele>3.4</ele>
        <time>2020-06-03T10:30:17Z</time>
      </trkpt>
      <trkpt lat="46.43522" lon="-1.60224">
        <ele>3.4</ele>
        <time>2020-06-03T10:30:18Z</time>
      </trkpt>
      <trkpt lat="46.43525" lon="-1.6023">
        <ele>3.5</ele>
        <time>2020-06-03T10:30:19Z</time>
      </trkpt>
      <trkpt lat="46.43528" lon="-1.60235">
        <ele>3.5</ele>
        <time>2020-06-03T10:30:20Z</time>
      </trkpt>
      <trkpt lat="46.43532" lon="-1.60239">
        <ele>3.5</ele>
        <time>2020-06-03T10:30:21Z</time>
      </trkpt>
      <trkpt lat="46.43535" lon="-1.60244">
        <ele>3.5</ele>
        <time>2020-06-03T10:30:22Z</time>
      </trkpt>
      <trkpt lat="46.43538" lon="-1.60249">
        <ele>3.5</ele>
        <time>2020-06-03T10:30:23Z</time>
      </trkpt>
      <trkpt lat="46.43541" lon="-1.60254">
        <ele>3.5</ele>
        <time>2020-06-03T10:30:24Z</time>
      </trkpt>
      <trkpt lat="46.43544" lon="-1.60259">
        <ele>3.5</ele>
        <time>2020-06-03T10:30:25Z</time>
      </trkpt>
      <trkpt lat="46.43547" lon="-1.60263">
        <ele>3.5</ele>
        <time>2020-06-03T10:30:26Z</time>
      </trkpt>
      <trkpt lat="46.4355" lon="-1.60268">
        <ele>3.5</ele>
        <time>2020-06-03T10:30:27Z</time>
      </trkpt>
      <trkpt lat="46.43552" lon="-1.60274">
        <ele>3.5</ele>
        <time>2020-06-03T10:30:28Z</time>
      </trkpt>
      <trkpt lat="46.43555" lon="-1.6028">
        <ele>3.5</ele>
        <time>2020-06-03T10:30:29Z</time>
      </trkpt>
      <trkpt lat="46.43557" lon="-1.60285">
        <ele>3.5</ele>
        <time>2020-06-03T10:30:30Z</time>
      </trkpt>
      <trkpt lat="46.4356" lon="-1.60291">
        <ele>3.5</ele>
        <time>2020-06-03T10:30:31Z</time>
      </trkpt>
      <trkpt lat="46.43562" lon="-1.60298">
        <ele>3.5</ele>
        <time>2020-06-03T10:30:32Z</time>
      </trkpt>
      <trkpt lat="46.43566" lon="-1.60302">
        <ele>3.5</ele>
        <time>2020-06-03T10:30:33Z</time>
      </trkpt>
      <trkpt lat="46.43571" lon="-1.60305">
        <ele>3.5</ele>
        <time>2020-06-03T10:30:34Z</time>
      </trkpt>
      <trkpt lat="46.43575" lon="-1.60304">
        <ele>3.5</ele>
        <time>2020-06-03T10:30:35Z</time>
      </trkpt>
      <trkpt lat="46.4358" lon="-1.60303">
        <ele>3.5</ele>
        <time>2020-06-03T10:30:36Z</time>
      </trkpt>
      <trkpt lat="46.43585" lon="-1.60304">
        <ele>3.5</ele>
        <time>2020-06-03T10:30:37Z</time>
      </trkpt>
      <trkpt lat="46.43589" lon="-1.60304">
        <ele>3.5</ele>
        <time>2020-06-03T10:30:38Z</time>
      </trkpt>
      <trkpt lat="46.43594" lon="-1.60304">
        <ele>3.5</ele>
        <time>2020-06-03T10:30:39Z</time>
      </trkpt>
      <trkpt lat="46.43599" lon="-1.60303">
        <ele>3.5</ele>
        <time>2020-06-03T10:30:40Z</time>
      </trkpt>
      <trkpt lat="46.43603" lon="-1.60303">
        <ele>3.5</ele>
        <time>2020-06-03T10:30:41Z</time>
      </trkpt>
      <trkpt lat="46.43608" lon="-1.60303">
        <ele>3.5</ele>
        <time>2020-06-03T10:30:42Z</time>
      </trkpt>
      <trkpt lat="46.43613" lon="-1.60303">
        <ele>3.5</ele>
        <time>2020-06-03T10:30:43Z</time>
      </trkpt>
      <trkpt lat="46.43617" lon="-1.60303">
        <ele>3.5</ele>
        <time>2020-06-03T10:30:44Z</time>
      </trkpt>
      <trkpt lat="46.43622" lon="-1.60302">
        <ele>3.5</ele>
        <time>2020-06-03T10:30:45Z</time>
      </trkpt>
      <trkpt lat="46.43626" lon="-1.60301">
        <ele>3.5</ele>
        <time>2020-06-03T10:30:46Z</time>
      </trkpt>
      <trkpt lat="46.43631" lon="-1.60302">
        <ele>3.5</ele>
        <time>2020-06-03T10:30:47Z</time>
      </trkpt>
      <trkpt lat="46.43635" lon="-1.60301">
        <ele>3.5</ele>
        <time>2020-06-03T10:30:48Z</time>
      </trkpt>
      <trkpt lat="46.43637" lon="-1.60301">
        <ele>3.5</ele>
        <time>2020-06-03T10:30:49Z</time>
      </trkpt>
      <trkpt lat="46.43641" lon="-1.603">
        <ele>3.5</ele>
        <time>2020-06-03T10:30:50Z</time>
      </trkpt>
      <trkpt lat="46.43642" lon="-1.60299">
        <ele>3.5</ele>
        <time>2020-06-03T10:30:51Z</time>
      </trkpt>
      <trkpt lat="46.43646" lon="-1.60299">
        <ele>3.5</ele>
        <time>2020-06-03T10:30:52Z</time>
      </trkpt>
      <trkpt lat="46.43647" lon="-1.60298">
        <ele>3.5</ele>
        <time>2020-06-03T10:30:53Z</time>
      </trkpt>
      <trkpt lat="46.4365" lon="-1.60297">
        <ele>3.5</ele>
        <time>2020-06-03T10:30:54Z</time>
      </trkpt>
      <trkpt lat="46.43651" lon="-1.60296">
        <ele>3.5</ele>
        <time>2020-06-03T10:30:55Z</time>
      </trkpt>
      <trkpt lat="46.43655" lon="-1.60296">
        <ele>3.5</ele>
        <time>2020-06-03T10:30:56Z</time>
      </trkpt>
      <trkpt lat="46.43659" lon="-1.60297">
        <ele>3.5</ele>
        <time>2020-06-03T10:30:57Z</time>
      </trkpt>
      <trkpt lat="46.43664" lon="-1.60297">
        <ele>3.5</ele>
        <time>2020-06-03T10:30:58Z</time>
      </trkpt>
      <trkpt lat="46.43668" lon="-1.60296">
        <ele>3.4</ele>
        <time>2020-06-03T10:30:59Z</time>
      </trkpt>
      <trkpt lat="46.43672" lon="-1.60295">
        <ele>3.4</ele>
        <time>2020-06-03T10:31:00Z</time>
      </trkpt>
      <trkpt lat="46.43676" lon="-1.60294">
        <ele>3.4</ele>
        <time>2020-06-03T10:31:01Z</time>
      </trkpt>
      <trkpt lat="46.4368" lon="-1.60294">
        <ele>3.4</ele>
        <time>2020-06-03T10:31:02Z</time>
      </trkpt>
      <trkpt lat="46.43684" lon="-1.60294">
        <ele>3.4</ele>
        <time>2020-06-03T10:31:03Z</time>
      </trkpt>
      <trkpt lat="46.43689" lon="-1.60293">
        <ele>3.4</ele>
        <time>2020-06-03T10:31:04Z</time>
      </trkpt>
      <trkpt lat="46.43693" lon="-1.60292">
        <ele>3.4</ele>
        <time>2020-06-03T10:31:05Z</time>
      </trkpt>
      <trkpt lat="46.43697" lon="-1.60291">
        <ele>3.4</ele>
        <time>2020-06-03T10:31:06Z</time>
      </trkpt>
      <trkpt lat="46.43701" lon="-1.6029">
        <ele>3.4</ele>
        <time>2020-06-03T10:31:07Z</time>
      </trkpt>
      <trkpt lat="46.43705" lon="-1.6029">
        <ele>3.4</ele>
        <time>2020-06-03T10:31:08Z</time>
      </trkpt>
      <trkpt lat="46.43708" lon="-1.6029">
        <ele>3.4</ele>
        <time>2020-06-03T10:31:09Z</time>
      </trkpt>
      <trkpt lat="46.43711" lon="-1.60291">
        <ele>3.4</ele>
        <time>2020-06-03T10:31:10Z</time>
      </trkpt>
      <trkpt lat="46.43714" lon="-1.60291">
        <ele>3.4</ele>
        <time>2020-06-03T10:31:11Z</time>
      </trkpt>
      <trkpt lat="46.43715" lon="-1.60291">
        <ele>3.4</ele>
        <time>2020-06-03T10:31:12Z</time>
      </trkpt>
      <trkpt lat="46.43717" lon="-1.60291">
        <ele>3.4</ele>
        <time>2020-06-03T10:31:13Z</time>
      </trkpt>
      <trkpt lat="46.43718" lon="-1.60292">
        <ele>3.4</ele>
        <time>2020-06-03T10:31:14Z</time>
      </trkpt>
      <trkpt lat="46.43721" lon="-1.60293">
        <ele>3.4</ele>
        <time>2020-06-03T10:31:15Z</time>
      </trkpt>
      <trkpt lat="46.43722" lon="-1.60294">
        <ele>3.4</ele>
        <time>2020-06-03T10:31:16Z</time>
      </trkpt>
      <trkpt lat="46.43723" lon="-1.603">
        <ele>3.4</ele>
        <time>2020-06-03T10:31:17Z</time>
      </trkpt>
      <trkpt lat="46.43723" lon="-1.60302">
        <ele>3.3</ele>
        <time>2020-06-03T10:31:18Z</time>
      </trkpt>
      <trkpt lat="46.43723" lon="-1.60307">
        <ele>3.3</ele>
        <time>2020-06-03T10:31:19Z</time>
      </trkpt>
      <trkpt lat="46.43724" lon="-1.60312">
        <ele>3.3</ele>
        <time>2020-06-03T10:31:20Z</time>
      </trkpt>
      <trkpt lat="46.43724" lon="-1.60317">
        <ele>3.3</ele>
        <time>2020-06-03T10:31:21Z</time>
      </trkpt>
      <trkpt lat="46.43724" lon="-1.60323">
        <ele>3.3</ele>
        <time>2020-06-03T10:31:22Z</time>
      </trkpt>
      <trkpt lat="46.43724" lon="-1.60328">
        <ele>3.3</ele>
        <time>2020-06-03T10:31:23Z</time>
      </trkpt>
      <trkpt lat="46.43723" lon="-1.60334">
        <ele>3.3</ele>
        <time>2020-06-03T10:31:24Z</time>
      </trkpt>
      <trkpt lat="46.43723" lon="-1.60341">
        <ele>3.2</ele>
        <time>2020-06-03T10:31:25Z</time>
      </trkpt>
      <trkpt lat="46.43723" lon="-1.60346">
        <ele>3.2</ele>
        <time>2020-06-03T10:31:26Z</time>
      </trkpt>
      <trkpt lat="46.43723" lon="-1.60353">
        <ele>3.2</ele>
        <time>2020-06-03T10:31:27Z</time>
      </trkpt>
      <trkpt lat="46.43723" lon="-1.60359">
        <ele>3.2</ele>
        <time>2020-06-03T10:31:28Z</time>
      </trkpt>
      <trkpt lat="46.43724" lon="-1.60364">
        <ele>3.2</ele>
        <time>2020-06-03T10:31:29Z</time>
      </trkpt>
      <trkpt lat="46.43726" lon="-1.6037">
        <ele>3.2</ele>
        <time>2020-06-03T10:31:30Z</time>
      </trkpt>
      <trkpt lat="46.43729" lon="-1.60375">
        <ele>3.1</ele>
        <time>2020-06-03T10:31:31Z</time>
      </trkpt>
      <trkpt lat="46.43732" lon="-1.60381">
        <ele>3.1</ele>
        <time>2020-06-03T10:31:32Z</time>
      </trkpt>
      <trkpt lat="46.43735" lon="-1.60384">
        <ele>3.1</ele>
        <time>2020-06-03T10:31:33Z</time>
      </trkpt>
      <trkpt lat="46.43739" lon="-1.60387">
        <ele>3.1</ele>
        <time>2020-06-03T10:31:34Z</time>
      </trkpt>
      <trkpt lat="46.43743" lon="-1.60389">
        <ele>3.1</ele>
        <time>2020-06-03T10:31:35Z</time>
      </trkpt>
      <trkpt lat="46.43748" lon="-1.6039">
        <ele>3.1</ele>
        <time>2020-06-03T10:31:36Z</time>
      </trkpt>
      <trkpt lat="46.43753" lon="-1.6039">
        <ele>3</ele>
        <time>2020-06-03T10:31:37Z</time>
      </trkpt>
      <trkpt lat="46.43757" lon="-1.60388">
        <ele>3</ele>
        <time>2020-06-03T10:31:38Z</time>
      </trkpt>
      <trkpt lat="46.43762" lon="-1.60385">
        <ele>3</ele>
        <time>2020-06-03T10:31:39Z</time>
      </trkpt>
      <trkpt lat="46.43767" lon="-1.60383">
        <ele>3</ele>
        <time>2020-06-03T10:31:40Z</time>
      </trkpt>
      <trkpt lat="46.43771" lon="-1.6038">
        <ele>3</ele>
        <time>2020-06-03T10:31:41Z</time>
      </trkpt>
      <trkpt lat="46.43776" lon="-1.60376">
        <ele>2.9</ele>
        <time>2020-06-03T10:31:42Z</time>
      </trkpt>
      <trkpt lat="46.4378" lon="-1.60373">
        <ele>2.9</ele>
        <time>2020-06-03T10:31:43Z</time>
      </trkpt>
      <trkpt lat="46.43784" lon="-1.60369">
        <ele>2.9</ele>
        <time>2020-06-03T10:31:44Z</time>
      </trkpt>
      <trkpt lat="46.43788" lon="-1.60364">
        <ele>2.9</ele>
        <time>2020-06-03T10:31:45Z</time>
      </trkpt>
      <trkpt lat="46.43792" lon="-1.60361">
        <ele>2.8</ele>
        <time>2020-06-03T10:31:46Z</time>
      </trkpt>
      <trkpt lat="46.43796" lon="-1.60357">
        <ele>2.8</ele>
        <time>2020-06-03T10:31:47Z</time>
      </trkpt>
      <trkpt lat="46.438" lon="-1.60353">
        <ele>2.8</ele>
        <time>2020-06-03T10:31:48Z</time>
      </trkpt>
      <trkpt lat="46.43804" lon="-1.60348">
        <ele>2.8</ele>
        <time>2020-06-03T10:31:49Z</time>
      </trkpt>
      <trkpt lat="46.43808" lon="-1.60344">
        <ele>2.8</ele>
        <time>2020-06-03T10:31:50Z</time>
      </trkpt>
      <trkpt lat="46.43812" lon="-1.60339">
        <ele>2.7</ele>
        <time>2020-06-03T10:31:51Z</time>
      </trkpt>
      <trkpt lat="46.43815" lon="-1.60334">
        <ele>2.7</ele>
        <time>2020-06-03T10:31:52Z</time>
      </trkpt>
      <trkpt lat="46.43819" lon="-1.60329">
        <ele>2.7</ele>
        <time>2020-06-03T10:31:53Z</time>
      </trkpt>
      <trkpt lat="46.43823" lon="-1.60325">
        <ele>2.7</ele>
        <time>2020-06-03T10:31:54Z</time>
      </trkpt>
      <trkpt lat="46.43827" lon="-1.6032">
        <ele>2.6</ele>
        <time>2020-06-03T10:31:55Z</time>
      </trkpt>
      <trkpt lat="46.4383" lon="-1.60314">
        <ele>2.6</ele>
        <time>2020-06-03T10:31:56Z</time>
      </trkpt>
      <trkpt lat="46.43833" lon="-1.60309">
        <ele>2.6</ele>
        <time>2020-06-03T10:31:57Z</time>
      </trkpt>
      <trkpt lat="46.43836" lon="-1.60302">
        <ele>2.6</ele>
        <time>2020-06-03T10:31:58Z</time>
      </trkpt>
      <trkpt lat="46.4384" lon="-1.60298">
        <ele>2.5</ele>
        <time>2020-06-03T10:31:59Z</time>
      </trkpt>
      <trkpt lat="46.43844" lon="-1.60293">
        <ele>2.5</ele>
        <time>2020-06-03T10:32:00Z</time>
      </trkpt>
      <trkpt lat="46.43848" lon="-1.60287">
        <ele>2.5</ele>
        <time>2020-06-03T10:32:01Z</time>
      </trkpt>
      <trkpt lat="46.43852" lon="-1.60283">
        <ele>2.5</ele>
        <time>2020-06-03T10:32:02Z</time>
      </trkpt>
      <trkpt lat="46.43856" lon="-1.60278">
        <ele>2.5</ele>
        <time>2020-06-03T10:32:03Z</time>
      </trkpt>
      <trkpt lat="46.4386" lon="-1.60273">
        <ele>2.5</ele>
        <time>2020-06-03T10:32:04Z</time>
      </trkpt>
      <trkpt lat="46.43864" lon="-1.6027">
        <ele>2.6</ele>
        <time>2020-06-03T10:32:05Z</time>
      </trkpt>
      <trkpt lat="46.43868" lon="-1.60265">
        <ele>2.6</ele>
        <time>2020-06-03T10:32:06Z</time>
      </trkpt>
      <trkpt lat="46.43872" lon="-1.60261">
        <ele>2.6</ele>
        <time>2020-06-03T10:32:07Z</time>
      </trkpt>
      <trkpt lat="46.43876" lon="-1.60256">
        <ele>2.6</ele>
        <time>2020-06-03T10:32:08Z</time>
      </trkpt>
      <trkpt lat="46.4388" lon="-1.60252">
        <ele>2.5</ele>
        <time>2020-06-03T10:32:09Z</time>
      </trkpt>
      <trkpt lat="46.43884" lon="-1.60247">
        <ele>2.5</ele>
        <time>2020-06-03T10:32:10Z</time>
      </trkpt>
      <trkpt lat="46.43888" lon="-1.60243">
        <ele>2.5</ele>
        <time>2020-06-03T10:32:11Z</time>
      </trkpt>
      <trkpt lat="46.43892" lon="-1.60238">
        <ele>2.5</ele>
        <time>2020-06-03T10:32:12Z</time>
      </trkpt>
      <trkpt lat="46.43896" lon="-1.60233">
        <ele>2.5</ele>
        <time>2020-06-03T10:32:13Z</time>
      </trkpt>
      <trkpt lat="46.439" lon="-1.60229">
        <ele>2.5</ele>
        <time>2020-06-03T10:32:14Z</time>
      </trkpt>
      <trkpt lat="46.43903" lon="-1.60225">
        <ele>2.5</ele>
        <time>2020-06-03T10:32:15Z</time>
      </trkpt>
      <trkpt lat="46.43907" lon="-1.60221">
        <ele>2.5</ele>
        <time>2020-06-03T10:32:16Z</time>
      </trkpt>
      <trkpt lat="46.43912" lon="-1.60217">
        <ele>2.4</ele>
        <time>2020-06-03T10:32:17Z</time>
      </trkpt>
      <trkpt lat="46.43916" lon="-1.60214">
        <ele>2.4</ele>
        <time>2020-06-03T10:32:18Z</time>
      </trkpt>
      <trkpt lat="46.43921" lon="-1.60211">
        <ele>2.4</ele>
        <time>2020-06-03T10:32:19Z</time>
      </trkpt>
      <trkpt lat="46.43926" lon="-1.6021">
        <ele>2.4</ele>
        <time>2020-06-03T10:32:20Z</time>
      </trkpt>
      <trkpt lat="46.4393" lon="-1.6021">
        <ele>2.4</ele>
        <time>2020-06-03T10:32:21Z</time>
      </trkpt>
      <trkpt lat="46.43935" lon="-1.6021">
        <ele>2.5</ele>
        <time>2020-06-03T10:32:22Z</time>
      </trkpt>
      <trkpt lat="46.4394" lon="-1.6021">
        <ele>2.5</ele>
        <time>2020-06-03T10:32:23Z</time>
      </trkpt>
      <trkpt lat="46.43945" lon="-1.60209">
        <ele>2.5</ele>
        <time>2020-06-03T10:32:24Z</time>
      </trkpt>
      <trkpt lat="46.4395" lon="-1.60208">
        <ele>2.6</ele>
        <time>2020-06-03T10:32:25Z</time>
      </trkpt>
      <trkpt lat="46.43955" lon="-1.60208">
        <ele>2.6</ele>
        <time>2020-06-03T10:32:26Z</time>
      </trkpt>
      <trkpt lat="46.4396" lon="-1.60207">
        <ele>2.6</ele>
        <time>2020-06-03T10:32:27Z</time>
      </trkpt>
      <trkpt lat="46.43966" lon="-1.60208">
        <ele>2.7</ele>
        <time>2020-06-03T10:32:28Z</time>
      </trkpt>
      <trkpt lat="46.43971" lon="-1.60208">
        <ele>2.7</ele>
        <time>2020-06-03T10:32:29Z</time>
      </trkpt>
      <trkpt lat="46.43976" lon="-1.60208">
        <ele>2.8</ele>
        <time>2020-06-03T10:32:30Z</time>
      </trkpt>
      <trkpt lat="46.43982" lon="-1.60209">
        <ele>2.8</ele>
        <time>2020-06-03T10:32:31Z</time>
      </trkpt>
      <trkpt lat="46.43987" lon="-1.60209">
        <ele>2.8</ele>
        <time>2020-06-03T10:32:32Z</time>
      </trkpt>
      <trkpt lat="46.43992" lon="-1.60209">
        <ele>2.9</ele>
        <time>2020-06-03T10:32:33Z</time>
      </trkpt>
      <trkpt lat="46.43997" lon="-1.6021">
        <ele>2.9</ele>
        <time>2020-06-03T10:32:34Z</time>
      </trkpt>
      <trkpt lat="46.44002" lon="-1.6021">
        <ele>2.9</ele>
        <time>2020-06-03T10:32:35Z</time>
      </trkpt>
      <trkpt lat="46.44006" lon="-1.6021">
        <ele>2.9</ele>
        <time>2020-06-03T10:32:36Z</time>
      </trkpt>
      <trkpt lat="46.44011" lon="-1.60211">
        <ele>3</ele>
        <time>2020-06-03T10:32:37Z</time>
      </trkpt>
      <trkpt lat="46.44016" lon="-1.60211">
        <ele>3</ele>
        <time>2020-06-03T10:32:38Z</time>
      </trkpt>
      <trkpt lat="46.4402" lon="-1.6021">
        <ele>3</ele>
        <time>2020-06-03T10:32:39Z</time>
      </trkpt>
      <trkpt lat="46.44024" lon="-1.6021">
        <ele>3</ele>
        <time>2020-06-03T10:32:40Z</time>
      </trkpt>
      <trkpt lat="46.44029" lon="-1.60211">
        <ele>3.1</ele>
        <time>2020-06-03T10:32:41Z</time>
      </trkpt>
      <trkpt lat="46.44033" lon="-1.6021">
        <ele>3.1</ele>
        <time>2020-06-03T10:32:42Z</time>
      </trkpt>
      <trkpt lat="46.44037" lon="-1.60211">
        <ele>3.1</ele>
        <time>2020-06-03T10:32:43Z</time>
      </trkpt>
      <trkpt lat="46.44042" lon="-1.60212">
        <ele>3.1</ele>
        <time>2020-06-03T10:32:44Z</time>
      </trkpt>
      <trkpt lat="46.44046" lon="-1.60212">
        <ele>3.1</ele>
        <time>2020-06-03T10:32:45Z</time>
      </trkpt>
      <trkpt lat="46.4405" lon="-1.60213">
        <ele>3.2</ele>
        <time>2020-06-03T10:32:46Z</time>
      </trkpt>
      <trkpt lat="46.44055" lon="-1.60212">
        <ele>3.2</ele>
        <time>2020-06-03T10:32:47Z</time>
      </trkpt>
      <trkpt lat="46.44059" lon="-1.60212">
        <ele>3.3</ele>
        <time>2020-06-03T10:32:48Z</time>
      </trkpt>
      <trkpt lat="46.44064" lon="-1.60213">
        <ele>3.4</ele>
        <time>2020-06-03T10:32:49Z</time>
      </trkpt>
      <trkpt lat="46.44069" lon="-1.60212">
        <ele>3.4</ele>
        <time>2020-06-03T10:32:50Z</time>
      </trkpt>
      <trkpt lat="46.44074" lon="-1.60211">
        <ele>3.5</ele>
        <time>2020-06-03T10:32:51Z</time>
      </trkpt>
      <trkpt lat="46.4408" lon="-1.60212">
        <ele>3.5</ele>
        <time>2020-06-03T10:32:52Z</time>
      </trkpt>
      <trkpt lat="46.44085" lon="-1.60213">
        <ele>3.6</ele>
        <time>2020-06-03T10:32:53Z</time>
      </trkpt>
      <trkpt lat="46.4409" lon="-1.60215">
        <ele>3.6</ele>
        <time>2020-06-03T10:32:54Z</time>
      </trkpt>
      <trkpt lat="46.44094" lon="-1.60217">
        <ele>3.7</ele>
        <time>2020-06-03T10:32:55Z</time>
      </trkpt>
      <trkpt lat="46.44098" lon="-1.6022">
        <ele>3.7</ele>
        <time>2020-06-03T10:32:56Z</time>
      </trkpt>
      <trkpt lat="46.44101" lon="-1.60225">
        <ele>3.8</ele>
        <time>2020-06-03T10:32:57Z</time>
      </trkpt>
      <trkpt lat="46.44102" lon="-1.60232">
        <ele>3.8</ele>
        <time>2020-06-03T10:32:58Z</time>
      </trkpt>
      <trkpt lat="46.44104" lon="-1.60238">
        <ele>3.8</ele>
        <time>2020-06-03T10:32:59Z</time>
      </trkpt>
      <trkpt lat="46.44106" lon="-1.60245">
        <ele>3.8</ele>
        <time>2020-06-03T10:33:00Z</time>
      </trkpt>
      <trkpt lat="46.44107" lon="-1.60253">
        <ele>3.8</ele>
        <time>2020-06-03T10:33:01Z</time>
      </trkpt>
      <trkpt lat="46.44107" lon="-1.6026">
        <ele>3.8</ele>
        <time>2020-06-03T10:33:02Z</time>
      </trkpt>
      <trkpt lat="46.44106" lon="-1.60267">
        <ele>3.8</ele>
        <time>2020-06-03T10:33:03Z</time>
      </trkpt>
      <trkpt lat="46.44106" lon="-1.60275">
        <ele>3.9</ele>
        <time>2020-06-03T10:33:04Z</time>
      </trkpt>
      <trkpt lat="46.44106" lon="-1.60282">
        <ele>3.9</ele>
        <time>2020-06-03T10:33:05Z</time>
      </trkpt>
      <trkpt lat="46.44105" lon="-1.60289">
        <ele>3.9</ele>
        <time>2020-06-03T10:33:06Z</time>
      </trkpt>
      <trkpt lat="46.44105" lon="-1.60297">
        <ele>3.9</ele>
        <time>2020-06-03T10:33:07Z</time>
      </trkpt>
      <trkpt lat="46.44106" lon="-1.60305">
        <ele>3.9</ele>
        <time>2020-06-03T10:33:08Z</time>
      </trkpt>
      <trkpt lat="46.44105" lon="-1.60312">
        <ele>3.9</ele>
        <time>2020-06-03T10:33:09Z</time>
      </trkpt>
      <trkpt lat="46.44104" lon="-1.60319">
        <ele>3.9</ele>
        <time>2020-06-03T10:33:10Z</time>
      </trkpt>
      <trkpt lat="46.44104" lon="-1.60326">
        <ele>3.9</ele>
        <time>2020-06-03T10:33:11Z</time>
      </trkpt>
      <trkpt lat="46.44103" lon="-1.60334">
        <ele>3.9</ele>
        <time>2020-06-03T10:33:12Z</time>
      </trkpt>
      <trkpt lat="46.44102" lon="-1.60341">
        <ele>4</ele>
        <time>2020-06-03T10:33:13Z</time>
      </trkpt>
      <trkpt lat="46.44101" lon="-1.60348">
        <ele>4</ele>
        <time>2020-06-03T10:33:14Z</time>
      </trkpt>
      <trkpt lat="46.44101" lon="-1.60356">
        <ele>4</ele>
        <time>2020-06-03T10:33:15Z</time>
      </trkpt>
      <trkpt lat="46.441" lon="-1.60364">
        <ele>4</ele>
        <time>2020-06-03T10:33:16Z</time>
      </trkpt>
      <trkpt lat="46.44101" lon="-1.60372">
        <ele>3.9</ele>
        <time>2020-06-03T10:33:17Z</time>
      </trkpt>
      <trkpt lat="46.44101" lon="-1.60379">
        <ele>3.9</ele>
        <time>2020-06-03T10:33:18Z</time>
      </trkpt>
      <trkpt lat="46.44102" lon="-1.60387">
        <ele>3.8</ele>
        <time>2020-06-03T10:33:19Z</time>
      </trkpt>
      <trkpt lat="46.44103" lon="-1.60395">
        <ele>3.8</ele>
        <time>2020-06-03T10:33:20Z</time>
      </trkpt>
      <trkpt lat="46.44104" lon="-1.60403">
        <ele>3.8</ele>
        <time>2020-06-03T10:33:21Z</time>
      </trkpt>
      <trkpt lat="46.44105" lon="-1.60411">
        <ele>3.7</ele>
        <time>2020-06-03T10:33:22Z</time>
      </trkpt>
      <trkpt lat="46.44106" lon="-1.6042">
        <ele>3.7</ele>
        <time>2020-06-03T10:33:23Z</time>
      </trkpt>
      <trkpt lat="46.44108" lon="-1.60428">
        <ele>3.7</ele>
        <time>2020-06-03T10:33:24Z</time>
      </trkpt>
      <trkpt lat="46.44109" lon="-1.60436">
        <ele>3.7</ele>
        <time>2020-06-03T10:33:25Z</time>
      </trkpt>
      <trkpt lat="46.44111" lon="-1.60444">
        <ele>3.7</ele>
        <time>2020-06-03T10:33:26Z</time>
      </trkpt>
      <trkpt lat="46.44113" lon="-1.60452">
        <ele>3.7</ele>
        <time>2020-06-03T10:33:27Z</time>
      </trkpt>
      <trkpt lat="46.44116" lon="-1.60458">
        <ele>3.7</ele>
        <time>2020-06-03T10:33:28Z</time>
      </trkpt>
      <trkpt lat="46.44119" lon="-1.60463">
        <ele>3.7</ele>
        <time>2020-06-03T10:33:29Z</time>
      </trkpt>
      <trkpt lat="46.44122" lon="-1.60469">
        <ele>3.7</ele>
        <time>2020-06-03T10:33:30Z</time>
      </trkpt>
      <trkpt lat="46.44126" lon="-1.60474">
        <ele>3.7</ele>
        <time>2020-06-03T10:33:31Z</time>
      </trkpt>
      <trkpt lat="46.44129" lon="-1.60479">
        <ele>3.7</ele>
        <time>2020-06-03T10:33:32Z</time>
      </trkpt>
      <trkpt lat="46.44132" lon="-1.60484">
        <ele>3.7</ele>
        <time>2020-06-03T10:33:33Z</time>
      </trkpt>
      <trkpt lat="46.44135" lon="-1.60489">
        <ele>3.7</ele>
        <time>2020-06-03T10:33:34Z</time>
      </trkpt>
      <trkpt lat="46.44139" lon="-1.60494">
        <ele>3.7</ele>
        <time>2020-06-03T10:33:35Z</time>
      </trkpt>
      <trkpt lat="46.44142" lon="-1.60499">
        <ele>3.7</ele>
        <time>2020-06-03T10:33:36Z</time>
      </trkpt>
      <trkpt lat="46.44145" lon="-1.60505">
        <ele>3.7</ele>
        <time>2020-06-03T10:33:37Z</time>
      </trkpt>
      <trkpt lat="46.44149" lon="-1.60511">
        <ele>3.7</ele>
        <time>2020-06-03T10:33:38Z</time>
      </trkpt>
      <trkpt lat="46.44152" lon="-1.60517">
        <ele>3.8</ele>
        <time>2020-06-03T10:33:39Z</time>
      </trkpt>
      <trkpt lat="46.44155" lon="-1.60523">
        <ele>3.8</ele>
        <time>2020-06-03T10:33:40Z</time>
      </trkpt>
      <trkpt lat="46.44159" lon="-1.6053">
        <ele>3.8</ele>
        <time>2020-06-03T10:33:41Z</time>
      </trkpt>
      <trkpt lat="46.44162" lon="-1.60537">
        <ele>3.8</ele>
        <time>2020-06-03T10:33:42Z</time>
      </trkpt>
      <trkpt lat="46.44164" lon="-1.60544">
        <ele>3.9</ele>
        <time>2020-06-03T10:33:43Z</time>
      </trkpt>
      <trkpt lat="46.44167" lon="-1.6055">
        <ele>3.9</ele>
        <time>2020-06-03T10:33:44Z</time>
      </trkpt>
      <trkpt lat="46.44169" lon="-1.60556">
        <ele>3.9</ele>
        <time>2020-06-03T10:33:45Z</time>
      </trkpt>
      <trkpt lat="46.44171" lon="-1.60563">
        <ele>4</ele>
        <time>2020-06-03T10:33:46Z</time>
      </trkpt>
      <trkpt lat="46.44173" lon="-1.60569">
        <ele>4</ele>
        <time>2020-06-03T10:33:47Z</time>
      </trkpt>
      <trkpt lat="46.44174" lon="-1.60576">
        <ele>4</ele>
        <time>2020-06-03T10:33:48Z</time>
      </trkpt>
      <trkpt lat="46.44176" lon="-1.60582">
        <ele>4.1</ele>
        <time>2020-06-03T10:33:49Z</time>
      </trkpt>
      <trkpt lat="46.44177" lon="-1.60589">
        <ele>4.1</ele>
        <time>2020-06-03T10:33:50Z</time>
      </trkpt>
      <trkpt lat="46.44179" lon="-1.60596">
        <ele>4.2</ele>
        <time>2020-06-03T10:33:51Z</time>
      </trkpt>
      <trkpt lat="46.44181" lon="-1.60604">
        <ele>4.3</ele>
        <time>2020-06-03T10:33:52Z</time>
      </trkpt>
      <trkpt lat="46.44183" lon="-1.60611">
        <ele>4.3</ele>
        <time>2020-06-03T10:33:53Z</time>
      </trkpt>
      <trkpt lat="46.44184" lon="-1.60617">
        <ele>4.4</ele>
        <time>2020-06-03T10:33:54Z</time>
      </trkpt>
      <trkpt lat="46.44186" lon="-1.60623">
        <ele>4.5</ele>
        <time>2020-06-03T10:33:55Z</time>
      </trkpt>
      <trkpt lat="46.44187" lon="-1.6063">
        <ele>4.5</ele>
        <time>2020-06-03T10:33:56Z</time>
      </trkpt>
      <trkpt lat="46.44189" lon="-1.60636">
        <ele>4.6</ele>
        <time>2020-06-03T10:33:57Z</time>
      </trkpt>
      <trkpt lat="46.4419" lon="-1.60642">
        <ele>4.7</ele>
        <time>2020-06-03T10:33:58Z</time>
      </trkpt>
      <trkpt lat="46.44192" lon="-1.60649">
        <ele>4.8</ele>
        <time>2020-06-03T10:33:59Z</time>
      </trkpt>
      <trkpt lat="46.44193" lon="-1.60656">
        <ele>4.9</ele>
        <time>2020-06-03T10:34:00Z</time>
      </trkpt>
      <trkpt lat="46.44195" lon="-1.60661">
        <ele>5</ele>
        <time>2020-06-03T10:34:01Z</time>
      </trkpt>
      <trkpt lat="46.44196" lon="-1.60667">
        <ele>5.1</ele>
        <time>2020-06-03T10:34:02Z</time>
      </trkpt>
      <trkpt lat="46.44197" lon="-1.60675">
        <ele>5.2</ele>
        <time>2020-06-03T10:34:03Z</time>
      </trkpt>
      <trkpt lat="46.44198" lon="-1.60681">
        <ele>5.3</ele>
        <time>2020-06-03T10:34:04Z</time>
      </trkpt>
      <trkpt lat="46.44197" lon="-1.60688">
        <ele>5.5</ele>
        <time>2020-06-03T10:34:05Z</time>
      </trkpt>
      <trkpt lat="46.44196" lon="-1.60695">
        <ele>5.6</ele>
        <time>2020-06-03T10:34:06Z</time>
      </trkpt>
      <trkpt lat="46.44196" lon="-1.60702">
        <ele>5.7</ele>
        <time>2020-06-03T10:34:07Z</time>
      </trkpt>
      <trkpt lat="46.44196" lon="-1.60709">
        <ele>5.8</ele>
        <time>2020-06-03T10:34:08Z</time>
      </trkpt>
      <trkpt lat="46.44194" lon="-1.60715">
        <ele>5.9</ele>
        <time>2020-06-03T10:34:09Z</time>
      </trkpt>
      <trkpt lat="46.44193" lon="-1.60721">
        <ele>6</ele>
        <time>2020-06-03T10:34:10Z</time>
      </trkpt>
      <trkpt lat="46.44191" lon="-1.60728">
        <ele>6.1</ele>
        <time>2020-06-03T10:34:11Z</time>
      </trkpt>
      <trkpt lat="46.4419" lon="-1.60734">
        <ele>6.2</ele>
        <time>2020-06-03T10:34:12Z</time>
      </trkpt>
      <trkpt lat="46.44189" lon="-1.60741">
        <ele>6.3</ele>
        <time>2020-06-03T10:34:13Z</time>
      </trkpt>
      <trkpt lat="46.44188" lon="-1.60747">
        <ele>6.4</ele>
        <time>2020-06-03T10:34:14Z</time>
      </trkpt>
      <trkpt lat="46.44187" lon="-1.60753">
        <ele>6.5</ele>
        <time>2020-06-03T10:34:15Z</time>
      </trkpt>
      <trkpt lat="46.44186" lon="-1.6076">
        <ele>6.5</ele>
        <time>2020-06-03T10:34:16Z</time>
      </trkpt>
      <trkpt lat="46.44185" lon="-1.60766">
        <ele>6.6</ele>
        <time>2020-06-03T10:34:17Z</time>
      </trkpt>
      <trkpt lat="46.44183" lon="-1.60773">
        <ele>6.6</ele>
        <time>2020-06-03T10:34:18Z</time>
      </trkpt>
      <trkpt lat="46.44182" lon="-1.60779">
        <ele>6.7</ele>
        <time>2020-06-03T10:34:19Z</time>
      </trkpt>
      <trkpt lat="46.44181" lon="-1.60786">
        <ele>6.7</ele>
        <time>2020-06-03T10:34:20Z</time>
      </trkpt>
      <trkpt lat="46.44181" lon="-1.60793">
        <ele>6.7</ele>
        <time>2020-06-03T10:34:21Z</time>
      </trkpt>
      <trkpt lat="46.4418" lon="-1.60799">
        <ele>6.7</ele>
        <time>2020-06-03T10:34:22Z</time>
      </trkpt>
      <trkpt lat="46.44179" lon="-1.60806">
        <ele>6.7</ele>
        <time>2020-06-03T10:34:23Z</time>
      </trkpt>
      <trkpt lat="46.44178" lon="-1.60813">
        <ele>6.7</ele>
        <time>2020-06-03T10:34:24Z</time>
      </trkpt>
      <trkpt lat="46.44177" lon="-1.6082">
        <ele>6.7</ele>
        <time>2020-06-03T10:34:25Z</time>
      </trkpt>
      <trkpt lat="46.44176" lon="-1.60827">
        <ele>6.7</ele>
        <time>2020-06-03T10:34:26Z</time>
      </trkpt>
      <trkpt lat="46.44174" lon="-1.60835">
        <ele>6.7</ele>
        <time>2020-06-03T10:34:27Z</time>
      </trkpt>
      <trkpt lat="46.44173" lon="-1.60841">
        <ele>6.7</ele>
        <time>2020-06-03T10:34:28Z</time>
      </trkpt>
      <trkpt lat="46.44172" lon="-1.60846">
        <ele>6.7</ele>
        <time>2020-06-03T10:34:29Z</time>
      </trkpt>
      <trkpt lat="46.44171" lon="-1.60853">
        <ele>6.7</ele>
        <time>2020-06-03T10:34:30Z</time>
      </trkpt>
      <trkpt lat="46.4417" lon="-1.6086">
        <ele>6.7</ele>
        <time>2020-06-03T10:34:31Z</time>
      </trkpt>
      <trkpt lat="46.44169" lon="-1.60867">
        <ele>6.6</ele>
        <time>2020-06-03T10:34:32Z</time>
      </trkpt>
      <trkpt lat="46.44168" lon="-1.60873">
        <ele>6.6</ele>
        <time>2020-06-03T10:34:33Z</time>
      </trkpt>
      <trkpt lat="46.44167" lon="-1.6088">
        <ele>6.5</ele>
        <time>2020-06-03T10:34:34Z</time>
      </trkpt>
      <trkpt lat="46.44167" lon="-1.60887">
        <ele>6.4</ele>
        <time>2020-06-03T10:34:35Z</time>
      </trkpt>
      <trkpt lat="46.44166" lon="-1.60895">
        <ele>6.3</ele>
        <time>2020-06-03T10:34:36Z</time>
      </trkpt>
      <trkpt lat="46.44166" lon="-1.60903">
        <ele>6.3</ele>
        <time>2020-06-03T10:34:37Z</time>
      </trkpt>
      <trkpt lat="46.44166" lon="-1.60909">
        <ele>6.2</ele>
        <time>2020-06-03T10:34:38Z</time>
      </trkpt>
      <trkpt lat="46.44166" lon="-1.60915">
        <ele>6.1</ele>
        <time>2020-06-03T10:34:39Z</time>
      </trkpt>
      <trkpt lat="46.44166" lon="-1.60922">
        <ele>6</ele>
        <time>2020-06-03T10:34:40Z</time>
      </trkpt>
      <trkpt lat="46.44168" lon="-1.60928">
        <ele>5.9</ele>
        <time>2020-06-03T10:34:41Z</time>
      </trkpt>
      <trkpt lat="46.44169" lon="-1.60935">
        <ele>5.8</ele>
        <time>2020-06-03T10:34:42Z</time>
      </trkpt>
      <trkpt lat="46.4417" lon="-1.60943">
        <ele>5.7</ele>
        <time>2020-06-03T10:34:43Z</time>
      </trkpt>
      <trkpt lat="46.44171" lon="-1.6095">
        <ele>5.5</ele>
        <time>2020-06-03T10:34:44Z</time>
      </trkpt>
      <trkpt lat="46.44172" lon="-1.60957">
        <ele>5.4</ele>
        <time>2020-06-03T10:34:45Z</time>
      </trkpt>
      <trkpt lat="46.44173" lon="-1.60964">
        <ele>5.3</ele>
        <time>2020-06-03T10:34:46Z</time>
      </trkpt>
      <trkpt lat="46.44175" lon="-1.60971">
        <ele>5.1</ele>
        <time>2020-06-03T10:34:47Z</time>
      </trkpt>
      <trkpt lat="46.44176" lon="-1.60978">
        <ele>5</ele>
        <time>2020-06-03T10:34:48Z</time>
      </trkpt>
      <trkpt lat="46.44177" lon="-1.60984">
        <ele>4.9</ele>
        <time>2020-06-03T10:34:49Z</time>
      </trkpt>
      <trkpt lat="46.44178" lon="-1.6099">
        <ele>4.8</ele>
        <time>2020-06-03T10:34:50Z</time>
      </trkpt>
      <trkpt lat="46.44179" lon="-1.60997">
        <ele>4.7</ele>
        <time>2020-06-03T10:34:51Z</time>
      </trkpt>
      <trkpt lat="46.44179" lon="-1.61003">
        <ele>4.6</ele>
        <time>2020-06-03T10:34:52Z</time>
      </trkpt>
      <trkpt lat="46.4418" lon="-1.6101">
        <ele>4.5</ele>
        <time>2020-06-03T10:34:53Z</time>
      </trkpt>
      <trkpt lat="46.44182" lon="-1.61017">
        <ele>4.4</ele>
        <time>2020-06-03T10:34:54Z</time>
      </trkpt>
      <trkpt lat="46.44183" lon="-1.61024">
        <ele>4.3</ele>
        <time>2020-06-03T10:34:55Z</time>
      </trkpt>
      <trkpt lat="46.44184" lon="-1.61032">
        <ele>4.2</ele>
        <time>2020-06-03T10:34:56Z</time>
      </trkpt>
      <trkpt lat="46.44185" lon="-1.61038">
        <ele>4.1</ele>
        <time>2020-06-03T10:34:57Z</time>
      </trkpt>
      <trkpt lat="46.44186" lon="-1.61046">
        <ele>4</ele>
        <time>2020-06-03T10:34:58Z</time>
      </trkpt>
      <trkpt lat="46.44187" lon="-1.61054">
        <ele>4</ele>
        <time>2020-06-03T10:34:59Z</time>
      </trkpt>
      <trkpt lat="46.44188" lon="-1.61061">
        <ele>3.9</ele>
        <time>2020-06-03T10:35:00Z</time>
      </trkpt>
      <trkpt lat="46.4419" lon="-1.61068">
        <ele>3.9</ele>
        <time>2020-06-03T10:35:01Z</time>
      </trkpt>
      <trkpt lat="46.44191" lon="-1.61076">
        <ele>3.8</ele>
        <time>2020-06-03T10:35:02Z</time>
      </trkpt>
      <trkpt lat="46.44192" lon="-1.61083">
        <ele>3.7</ele>
        <time>2020-06-03T10:35:03Z</time>
      </trkpt>
      <trkpt lat="46.44193" lon="-1.61091">
        <ele>3.7</ele>
        <time>2020-06-03T10:35:04Z</time>
      </trkpt>
      <trkpt lat="46.44194" lon="-1.61098">
        <ele>3.6</ele>
        <time>2020-06-03T10:35:05Z</time>
      </trkpt>
      <trkpt lat="46.44195" lon="-1.61105">
        <ele>3.6</ele>
        <time>2020-06-03T10:35:06Z</time>
      </trkpt>
      <trkpt lat="46.44195" lon="-1.61112">
        <ele>3.5</ele>
        <time>2020-06-03T10:35:07Z</time>
      </trkpt>
      <trkpt lat="46.44195" lon="-1.61121">
        <ele>3.5</ele>
        <time>2020-06-03T10:35:08Z</time>
      </trkpt>
      <trkpt lat="46.44196" lon="-1.61126">
        <ele>3.5</ele>
        <time>2020-06-03T10:35:09Z</time>
      </trkpt>
      <trkpt lat="46.44197" lon="-1.61133">
        <ele>3.5</ele>
        <time>2020-06-03T10:35:10Z</time>
      </trkpt>
      <trkpt lat="46.44198" lon="-1.61141">
        <ele>3.5</ele>
        <time>2020-06-03T10:35:11Z</time>
      </trkpt>
      <trkpt lat="46.44198" lon="-1.61149">
        <ele>3.5</ele>
        <time>2020-06-03T10:35:12Z</time>
      </trkpt>
      <trkpt lat="46.44198" lon="-1.61156">
        <ele>3.5</ele>
        <time>2020-06-03T10:35:13Z</time>
      </trkpt>
      <trkpt lat="46.44198" lon="-1.61162">
        <ele>3.5</ele>
        <time>2020-06-03T10:35:14Z</time>
      </trkpt>
      <trkpt lat="46.44197" lon="-1.6117">
        <ele>3.5</ele>
        <time>2020-06-03T10:35:15Z</time>
      </trkpt>
      <trkpt lat="46.44196" lon="-1.61178">
        <ele>3.5</ele>
        <time>2020-06-03T10:35:16Z</time>
      </trkpt>
      <trkpt lat="46.44194" lon="-1.61186">
        <ele>3.5</ele>
        <time>2020-06-03T10:35:17Z</time>
      </trkpt>
      <trkpt lat="46.44192" lon="-1.61194">
        <ele>3.5</ele>
        <time>2020-06-03T10:35:18Z</time>
      </trkpt>
      <trkpt lat="46.44188" lon="-1.612">
        <ele>3.5</ele>
        <time>2020-06-03T10:35:19Z</time>
      </trkpt>
      <trkpt lat="46.44184" lon="-1.61206">
        <ele>3.6</ele>
        <time>2020-06-03T10:35:20Z</time>
      </trkpt>
      <trkpt lat="46.44178" lon="-1.6121">
        <ele>3.6</ele>
        <time>2020-06-03T10:35:21Z</time>
      </trkpt>
      <trkpt lat="46.44174" lon="-1.61215">
        <ele>3.6</ele>
        <time>2020-06-03T10:35:22Z</time>
      </trkpt>
      <trkpt lat="46.44169" lon="-1.61219">
        <ele>3.6</ele>
        <time>2020-06-03T10:35:23Z</time>
      </trkpt>
      <trkpt lat="46.44164" lon="-1.61223">
        <ele>3.6</ele>
        <time>2020-06-03T10:35:24Z</time>
      </trkpt>
      <trkpt lat="46.44159" lon="-1.61227">
        <ele>3.6</ele>
        <time>2020-06-03T10:35:25Z</time>
      </trkpt>
      <trkpt lat="46.44154" lon="-1.61231">
        <ele>3.6</ele>
        <time>2020-06-03T10:35:26Z</time>
      </trkpt>
      <trkpt lat="46.44149" lon="-1.61235">
        <ele>3.7</ele>
        <time>2020-06-03T10:35:27Z</time>
      </trkpt>
      <trkpt lat="46.44145" lon="-1.61239">
        <ele>3.7</ele>
        <time>2020-06-03T10:35:28Z</time>
      </trkpt>
      <trkpt lat="46.44139" lon="-1.61244">
        <ele>3.7</ele>
        <time>2020-06-03T10:35:29Z</time>
      </trkpt>
      <trkpt lat="46.44137" lon="-1.61248">
        <ele>3.7</ele>
        <time>2020-06-03T10:35:30Z</time>
      </trkpt>
      <trkpt lat="46.44134" lon="-1.61254">
        <ele>3.7</ele>
        <time>2020-06-03T10:35:31Z</time>
      </trkpt>
      <trkpt lat="46.44131" lon="-1.61262">
        <ele>3.7</ele>
        <time>2020-06-03T10:35:32Z</time>
      </trkpt>
      <trkpt lat="46.44128" lon="-1.6127">
        <ele>3.7</ele>
        <time>2020-06-03T10:35:33Z</time>
      </trkpt>
      <trkpt lat="46.44126" lon="-1.61277">
        <ele>3.8</ele>
        <time>2020-06-03T10:35:34Z</time>
      </trkpt>
      <trkpt lat="46.44124" lon="-1.61285">
        <ele>3.8</ele>
        <time>2020-06-03T10:35:35Z</time>
      </trkpt>
      <trkpt lat="46.44123" lon="-1.61294">
        <ele>3.8</ele>
        <time>2020-06-03T10:35:36Z</time>
      </trkpt>
      <trkpt lat="46.44122" lon="-1.61301">
        <ele>3.8</ele>
        <time>2020-06-03T10:35:37Z</time>
      </trkpt>
      <trkpt lat="46.4412" lon="-1.61309">
        <ele>3.8</ele>
        <time>2020-06-03T10:35:38Z</time>
      </trkpt>
      <trkpt lat="46.44119" lon="-1.61317">
        <ele>3.8</ele>
        <time>2020-06-03T10:35:39Z</time>
      </trkpt>
      <trkpt lat="46.44118" lon="-1.61324">
        <ele>3.8</ele>
        <time>2020-06-03T10:35:40Z</time>
      </trkpt>
      <trkpt lat="46.44117" lon="-1.61332">
        <ele>3.9</ele>
        <time>2020-06-03T10:35:41Z</time>
      </trkpt>
      <trkpt lat="46.44117" lon="-1.6134">
        <ele>3.9</ele>
        <time>2020-06-03T10:35:42Z</time>
      </trkpt>
      <trkpt lat="46.44117" lon="-1.61347">
        <ele>3.9</ele>
        <time>2020-06-03T10:35:43Z</time>
      </trkpt>
      <trkpt lat="46.44117" lon="-1.61353">
        <ele>3.9</ele>
        <time>2020-06-03T10:35:44Z</time>
      </trkpt>
      <trkpt lat="46.44118" lon="-1.61359">
        <ele>3.9</ele>
        <time>2020-06-03T10:35:45Z</time>
      </trkpt>
      <trkpt lat="46.4412" lon="-1.61367">
        <ele>3.9</ele>
        <time>2020-06-03T10:35:46Z</time>
      </trkpt>
      <trkpt lat="46.44121" lon="-1.61372">
        <ele>3.9</ele>
        <time>2020-06-03T10:35:47Z</time>
      </trkpt>
      <trkpt lat="46.44124" lon="-1.61379">
        <ele>3.9</ele>
        <time>2020-06-03T10:35:48Z</time>
      </trkpt>
      <trkpt lat="46.44126" lon="-1.61385">
        <ele>3.9</ele>
        <time>2020-06-03T10:35:49Z</time>
      </trkpt>
      <trkpt lat="46.44131" lon="-1.61393">
        <ele>4</ele>
        <time>2020-06-03T10:35:50Z</time>
      </trkpt>
      <trkpt lat="46.44134" lon="-1.61401">
        <ele>4</ele>
        <time>2020-06-03T10:35:51Z</time>
      </trkpt>
      <trkpt lat="46.44136" lon="-1.61407">
        <ele>4</ele>
        <time>2020-06-03T10:35:52Z</time>
      </trkpt>
      <trkpt lat="46.44139" lon="-1.61413">
        <ele>4</ele>
        <time>2020-06-03T10:35:53Z</time>
      </trkpt>
      <trkpt lat="46.44141" lon="-1.6142">
        <ele>4</ele>
        <time>2020-06-03T10:35:54Z</time>
      </trkpt>
      <trkpt lat="46.44143" lon="-1.61426">
        <ele>4</ele>
        <time>2020-06-03T10:35:55Z</time>
      </trkpt>
      <trkpt lat="46.44145" lon="-1.61432">
        <ele>4</ele>
        <time>2020-06-03T10:35:56Z</time>
      </trkpt>
      <trkpt lat="46.44148" lon="-1.61439">
        <ele>4</ele>
        <time>2020-06-03T10:35:57Z</time>
      </trkpt>
      <trkpt lat="46.4415" lon="-1.61446">
        <ele>4</ele>
        <time>2020-06-03T10:35:58Z</time>
      </trkpt>
      <trkpt lat="46.44153" lon="-1.61453">
        <ele>4.1</ele>
        <time>2020-06-03T10:35:59Z</time>
      </trkpt>
      <trkpt lat="46.44155" lon="-1.6146">
        <ele>4.1</ele>
        <time>2020-06-03T10:36:00Z</time>
      </trkpt>
      <trkpt lat="46.44157" lon="-1.61466">
        <ele>4.1</ele>
        <time>2020-06-03T10:36:01Z</time>
      </trkpt>
      <trkpt lat="46.4416" lon="-1.61472">
        <ele>4.1</ele>
        <time>2020-06-03T10:36:02Z</time>
      </trkpt>
      <trkpt lat="46.44162" lon="-1.61479">
        <ele>4.1</ele>
        <time>2020-06-03T10:36:03Z</time>
      </trkpt>
      <trkpt lat="46.44164" lon="-1.61485">
        <ele>4.2</ele>
        <time>2020-06-03T10:36:04Z</time>
      </trkpt>
      <trkpt lat="46.44166" lon="-1.61492">
        <ele>4.2</ele>
        <time>2020-06-03T10:36:05Z</time>
      </trkpt>
      <trkpt lat="46.44167" lon="-1.61498">
        <ele>4.2</ele>
        <time>2020-06-03T10:36:06Z</time>
      </trkpt>
      <trkpt lat="46.44168" lon="-1.61505">
        <ele>4.2</ele>
        <time>2020-06-03T10:36:07Z</time>
      </trkpt>
      <trkpt lat="46.44168" lon="-1.61512">
        <ele>4.2</ele>
        <time>2020-06-03T10:36:08Z</time>
      </trkpt>
      <trkpt lat="46.44169" lon="-1.61517">
        <ele>4.3</ele>
        <time>2020-06-03T10:36:09Z</time>
      </trkpt>
      <trkpt lat="46.4417" lon="-1.61523">
        <ele>4.3</ele>
        <time>2020-06-03T10:36:10Z</time>
      </trkpt>
      <trkpt lat="46.4417" lon="-1.61528">
        <ele>4.3</ele>
        <time>2020-06-03T10:36:11Z</time>
      </trkpt>
      <trkpt lat="46.4417" lon="-1.61535">
        <ele>4.3</ele>
        <time>2020-06-03T10:36:12Z</time>
      </trkpt>
      <trkpt lat="46.4417" lon="-1.61541">
        <ele>4.3</ele>
        <time>2020-06-03T10:36:13Z</time>
      </trkpt>
      <trkpt lat="46.4417" lon="-1.61547">
        <ele>4.3</ele>
        <time>2020-06-03T10:36:14Z</time>
      </trkpt>
      <trkpt lat="46.4417" lon="-1.61554">
        <ele>4.4</ele>
        <time>2020-06-03T10:36:15Z</time>
      </trkpt>
      <trkpt lat="46.4417" lon="-1.6156">
        <ele>4.5</ele>
        <time>2020-06-03T10:36:16Z</time>
      </trkpt>
      <trkpt lat="46.44169" lon="-1.61568">
        <ele>4.6</ele>
        <time>2020-06-03T10:36:17Z</time>
      </trkpt>
      <trkpt lat="46.44169" lon="-1.61575">
        <ele>4.7</ele>
        <time>2020-06-03T10:36:18Z</time>
      </trkpt>
      <trkpt lat="46.44168" lon="-1.61582">
        <ele>4.8</ele>
        <time>2020-06-03T10:36:19Z</time>
      </trkpt>
      <trkpt lat="46.44167" lon="-1.6159">
        <ele>4.9</ele>
        <time>2020-06-03T10:36:20Z</time>
      </trkpt>
      <trkpt lat="46.44165" lon="-1.61597">
        <ele>4.9</ele>
        <time>2020-06-03T10:36:21Z</time>
      </trkpt>
      <trkpt lat="46.44164" lon="-1.61604">
        <ele>5</ele>
        <time>2020-06-03T10:36:22Z</time>
      </trkpt>
      <trkpt lat="46.44163" lon="-1.61612">
        <ele>5</ele>
        <time>2020-06-03T10:36:23Z</time>
      </trkpt>
      <trkpt lat="46.44162" lon="-1.61619">
        <ele>5.1</ele>
        <time>2020-06-03T10:36:24Z</time>
      </trkpt>
      <trkpt lat="46.4416" lon="-1.61627">
        <ele>5.1</ele>
        <time>2020-06-03T10:36:25Z</time>
      </trkpt>
      <trkpt lat="46.44159" lon="-1.61634">
        <ele>5.1</ele>
        <time>2020-06-03T10:36:26Z</time>
      </trkpt>
      <trkpt lat="46.44157" lon="-1.61642">
        <ele>5</ele>
        <time>2020-06-03T10:36:27Z</time>
      </trkpt>
      <trkpt lat="46.44156" lon="-1.6165">
        <ele>5</ele>
        <time>2020-06-03T10:36:28Z</time>
      </trkpt>
      <trkpt lat="46.44154" lon="-1.61658">
        <ele>4.9</ele>
        <time>2020-06-03T10:36:29Z</time>
      </trkpt>
      <trkpt lat="46.44152" lon="-1.61666">
        <ele>4.9</ele>
        <time>2020-06-03T10:36:30Z</time>
      </trkpt>
      <trkpt lat="46.44151" lon="-1.61674">
        <ele>4.8</ele>
        <time>2020-06-03T10:36:31Z</time>
      </trkpt>
      <trkpt lat="46.44149" lon="-1.61681">
        <ele>4.8</ele>
        <time>2020-06-03T10:36:32Z</time>
      </trkpt>
      <trkpt lat="46.44147" lon="-1.61689">
        <ele>4.7</ele>
        <time>2020-06-03T10:36:33Z</time>
      </trkpt>
      <trkpt lat="46.44146" lon="-1.61696">
        <ele>4.6</ele>
        <time>2020-06-03T10:36:34Z</time>
      </trkpt>
      <trkpt lat="46.44144" lon="-1.61704">
        <ele>4.6</ele>
        <time>2020-06-03T10:36:35Z</time>
      </trkpt>
      <trkpt lat="46.44142" lon="-1.61712">
        <ele>4.5</ele>
        <time>2020-06-03T10:36:36Z</time>
      </trkpt>
      <trkpt lat="46.4414" lon="-1.61718">
        <ele>4.4</ele>
        <time>2020-06-03T10:36:37Z</time>
      </trkpt>
      <trkpt lat="46.44138" lon="-1.61726">
        <ele>4.3</ele>
        <time>2020-06-03T10:36:38Z</time>
      </trkpt>
      <trkpt lat="46.44136" lon="-1.61735">
        <ele>4.2</ele>
        <time>2020-06-03T10:36:39Z</time>
      </trkpt>
      <trkpt lat="46.44135" lon="-1.61744">
        <ele>4.1</ele>
        <time>2020-06-03T10:36:40Z</time>
      </trkpt>
      <trkpt lat="46.44134" lon="-1.61752">
        <ele>4.1</ele>
        <time>2020-06-03T10:36:41Z</time>
      </trkpt>
      <trkpt lat="46.44133" lon="-1.61759">
        <ele>4</ele>
        <time>2020-06-03T10:36:42Z</time>
      </trkpt>
      <trkpt lat="46.44132" lon="-1.61766">
        <ele>3.9</ele>
        <time>2020-06-03T10:36:43Z</time>
      </trkpt>
      <trkpt lat="46.44131" lon="-1.61772">
        <ele>3.9</ele>
        <time>2020-06-03T10:36:44Z</time>
      </trkpt>
      <trkpt lat="46.4413" lon="-1.6178">
        <ele>3.8</ele>
        <time>2020-06-03T10:36:45Z</time>
      </trkpt>
      <trkpt lat="46.44129" lon="-1.61787">
        <ele>3.7</ele>
        <time>2020-06-03T10:36:46Z</time>
      </trkpt>
      <trkpt lat="46.44128" lon="-1.61795">
        <ele>3.7</ele>
        <time>2020-06-03T10:36:47Z</time>
      </trkpt>
      <trkpt lat="46.44127" lon="-1.61803">
        <ele>3.6</ele>
        <time>2020-06-03T10:36:48Z</time>
      </trkpt>
      <trkpt lat="46.44126" lon="-1.61811">
        <ele>3.5</ele>
        <time>2020-06-03T10:36:49Z</time>
      </trkpt>
      <trkpt lat="46.44124" lon="-1.61818">
        <ele>3.5</ele>
        <time>2020-06-03T10:36:50Z</time>
      </trkpt>
      <trkpt lat="46.44122" lon="-1.61826">
        <ele>3.4</ele>
        <time>2020-06-03T10:36:51Z</time>
      </trkpt>
      <trkpt lat="46.44121" lon="-1.61834">
        <ele>3.4</ele>
        <time>2020-06-03T10:36:52Z</time>
      </trkpt>
      <trkpt lat="46.44119" lon="-1.61841">
        <ele>3.3</ele>
        <time>2020-06-03T10:36:53Z</time>
      </trkpt>
      <trkpt lat="46.44117" lon="-1.6185">
        <ele>3.3</ele>
        <time>2020-06-03T10:36:54Z</time>
      </trkpt>
      <trkpt lat="46.44116" lon="-1.61857">
        <ele>3.3</ele>
        <time>2020-06-03T10:36:55Z</time>
      </trkpt>
      <trkpt lat="46.44114" lon="-1.61865">
        <ele>3.2</ele>
        <time>2020-06-03T10:36:56Z</time>
      </trkpt>
      <trkpt lat="46.44113" lon="-1.61873">
        <ele>3.2</ele>
        <time>2020-06-03T10:36:57Z</time>
      </trkpt>
      <trkpt lat="46.44112" lon="-1.6188">
        <ele>3.2</ele>
        <time>2020-06-03T10:36:58Z</time>
      </trkpt>
      <trkpt lat="46.44111" lon="-1.61887">
        <ele>3.2</ele>
        <time>2020-06-03T10:36:59Z</time>
      </trkpt>
      <trkpt lat="46.4411" lon="-1.61895">
        <ele>3.2</ele>
        <time>2020-06-03T10:37:00Z</time>
      </trkpt>
      <trkpt lat="46.44108" lon="-1.61904">
        <ele>3.2</ele>
        <time>2020-06-03T10:37:01Z</time>
      </trkpt>
      <trkpt lat="46.44107" lon="-1.61912">
        <ele>3.2</ele>
        <time>2020-06-03T10:37:02Z</time>
      </trkpt>
      <trkpt lat="46.44105" lon="-1.6192">
        <ele>3.2</ele>
        <time>2020-06-03T10:37:03Z</time>
      </trkpt>
      <trkpt lat="46.44104" lon="-1.61927">
        <ele>3.2</ele>
        <time>2020-06-03T10:37:04Z</time>
      </trkpt>
      <trkpt lat="46.44102" lon="-1.61935">
        <ele>3.2</ele>
        <time>2020-06-03T10:37:05Z</time>
      </trkpt>
      <trkpt lat="46.44101" lon="-1.61942">
        <ele>3.2</ele>
        <time>2020-06-03T10:37:06Z</time>
      </trkpt>
      <trkpt lat="46.44099" lon="-1.61949">
        <ele>3.2</ele>
        <time>2020-06-03T10:37:07Z</time>
      </trkpt>
      <trkpt lat="46.44097" lon="-1.61957">
        <ele>3.2</ele>
        <time>2020-06-03T10:37:08Z</time>
      </trkpt>
      <trkpt lat="46.44096" lon="-1.61965">
        <ele>3.2</ele>
        <time>2020-06-03T10:37:09Z</time>
      </trkpt>
      <trkpt lat="46.44095" lon="-1.61972">
        <ele>3.2</ele>
        <time>2020-06-03T10:37:10Z</time>
      </trkpt>
      <trkpt lat="46.44094" lon="-1.61981">
        <ele>3.2</ele>
        <time>2020-06-03T10:37:11Z</time>
      </trkpt>
      <trkpt lat="46.44093" lon="-1.61989">
        <ele>3.3</ele>
        <time>2020-06-03T10:37:12Z</time>
      </trkpt>
      <trkpt lat="46.44092" lon="-1.61997">
        <ele>3.3</ele>
        <time>2020-06-03T10:37:13Z</time>
      </trkpt>
      <trkpt lat="46.44091" lon="-1.62006">
        <ele>3.3</ele>
        <time>2020-06-03T10:37:14Z</time>
      </trkpt>
      <trkpt lat="46.44091" lon="-1.62013">
        <ele>3.3</ele>
        <time>2020-06-03T10:37:15Z</time>
      </trkpt>
      <trkpt lat="46.44092" lon="-1.62021">
        <ele>3.4</ele>
        <time>2020-06-03T10:37:16Z</time>
      </trkpt>
      <trkpt lat="46.44093" lon="-1.62028">
        <ele>3.4</ele>
        <time>2020-06-03T10:37:17Z</time>
      </trkpt>
      <trkpt lat="46.44095" lon="-1.62035">
        <ele>3.5</ele>
        <time>2020-06-03T10:37:18Z</time>
      </trkpt>
      <trkpt lat="46.44097" lon="-1.62042">
        <ele>3.5</ele>
        <time>2020-06-03T10:37:19Z</time>
      </trkpt>
      <trkpt lat="46.44099" lon="-1.6205">
        <ele>3.6</ele>
        <time>2020-06-03T10:37:20Z</time>
      </trkpt>
      <trkpt lat="46.44101" lon="-1.62058">
        <ele>3.7</ele>
        <time>2020-06-03T10:37:21Z</time>
      </trkpt>
      <trkpt lat="46.44103" lon="-1.62065">
        <ele>3.7</ele>
        <time>2020-06-03T10:37:22Z</time>
      </trkpt>
      <trkpt lat="46.44105" lon="-1.62072">
        <ele>3.8</ele>
        <time>2020-06-03T10:37:23Z</time>
      </trkpt>
      <trkpt lat="46.44108" lon="-1.62079">
        <ele>3.8</ele>
        <time>2020-06-03T10:37:24Z</time>
      </trkpt>
      <trkpt lat="46.44111" lon="-1.62086">
        <ele>3.9</ele>
        <time>2020-06-03T10:37:25Z</time>
      </trkpt>
      <trkpt lat="46.44113" lon="-1.62092">
        <ele>3.9</ele>
        <time>2020-06-03T10:37:26Z</time>
      </trkpt>
      <trkpt lat="46.44116" lon="-1.62098">
        <ele>4</ele>
        <time>2020-06-03T10:37:27Z</time>
      </trkpt>
      <trkpt lat="46.44118" lon="-1.62104">
        <ele>4</ele>
        <time>2020-06-03T10:37:28Z</time>
      </trkpt>
      <trkpt lat="46.44119" lon="-1.6211">
        <ele>4</ele>
        <time>2020-06-03T10:37:29Z</time>
      </trkpt>
      <trkpt lat="46.44121" lon="-1.62115">
        <ele>4.1</ele>
        <time>2020-06-03T10:37:30Z</time>
      </trkpt>
      <trkpt lat="46.44123" lon="-1.62121">
        <ele>4.1</ele>
        <time>2020-06-03T10:37:31Z</time>
      </trkpt>
      <trkpt lat="46.44125" lon="-1.62128">
        <ele>4.1</ele>
        <time>2020-06-03T10:37:32Z</time>
      </trkpt>
      <trkpt lat="46.44127" lon="-1.62134">
        <ele>4.2</ele>
        <time>2020-06-03T10:37:33Z</time>
      </trkpt>
      <trkpt lat="46.44129" lon="-1.6214">
        <ele>4.2</ele>
        <time>2020-06-03T10:37:34Z</time>
      </trkpt>
      <trkpt lat="46.4413" lon="-1.62146">
        <ele>4.2</ele>
        <time>2020-06-03T10:37:35Z</time>
      </trkpt>
      <trkpt lat="46.44132" lon="-1.62153">
        <ele>4.2</ele>
        <time>2020-06-03T10:37:36Z</time>
      </trkpt>
      <trkpt lat="46.44134" lon="-1.62159">
        <ele>4.2</ele>
        <time>2020-06-03T10:37:37Z</time>
      </trkpt>
      <trkpt lat="46.44136" lon="-1.62166">
        <ele>4.2</ele>
        <time>2020-06-03T10:37:38Z</time>
      </trkpt>
      <trkpt lat="46.44137" lon="-1.62173">
        <ele>4.2</ele>
        <time>2020-06-03T10:37:39Z</time>
      </trkpt>
      <trkpt lat="46.44139" lon="-1.62179">
        <ele>4.2</ele>
        <time>2020-06-03T10:37:40Z</time>
      </trkpt>
      <trkpt lat="46.44141" lon="-1.62186">
        <ele>4.2</ele>
        <time>2020-06-03T10:37:41Z</time>
      </trkpt>
      <trkpt lat="46.44143" lon="-1.62193">
        <ele>4.1</ele>
        <time>2020-06-03T10:37:42Z</time>
      </trkpt>
      <trkpt lat="46.44145" lon="-1.62199">
        <ele>4.1</ele>
        <time>2020-06-03T10:37:43Z</time>
      </trkpt>
      <trkpt lat="46.44147" lon="-1.62205">
        <ele>4.1</ele>
        <time>2020-06-03T10:37:44Z</time>
      </trkpt>
      <trkpt lat="46.44149" lon="-1.62211">
        <ele>4</ele>
        <time>2020-06-03T10:37:45Z</time>
      </trkpt>
      <trkpt lat="46.4415" lon="-1.62218">
        <ele>4</ele>
        <time>2020-06-03T10:37:46Z</time>
      </trkpt>
      <trkpt lat="46.44152" lon="-1.62225">
        <ele>3.9</ele>
        <time>2020-06-03T10:37:47Z</time>
      </trkpt>
      <trkpt lat="46.44153" lon="-1.62232">
        <ele>3.9</ele>
        <time>2020-06-03T10:37:48Z</time>
      </trkpt>
      <trkpt lat="46.44154" lon="-1.62239">
        <ele>3.9</ele>
        <time>2020-06-03T10:37:49Z</time>
      </trkpt>
      <trkpt lat="46.44155" lon="-1.62246">
        <ele>3.9</ele>
        <time>2020-06-03T10:37:50Z</time>
      </trkpt>
      <trkpt lat="46.44156" lon="-1.62253">
        <ele>3.9</ele>
        <time>2020-06-03T10:37:51Z</time>
      </trkpt>
      <trkpt lat="46.44156" lon="-1.62259">
        <ele>3.9</ele>
        <time>2020-06-03T10:37:52Z</time>
      </trkpt>
      <trkpt lat="46.44158" lon="-1.62266">
        <ele>3.8</ele>
        <time>2020-06-03T10:37:53Z</time>
      </trkpt>
      <trkpt lat="46.4416" lon="-1.62273">
        <ele>3.8</ele>
        <time>2020-06-03T10:37:54Z</time>
      </trkpt>
      <trkpt lat="46.44162" lon="-1.6228">
        <ele>3.7</ele>
        <time>2020-06-03T10:37:55Z</time>
      </trkpt>
      <trkpt lat="46.44163" lon="-1.62287">
        <ele>3.7</ele>
        <time>2020-06-03T10:37:56Z</time>
      </trkpt>
      <trkpt lat="46.44165" lon="-1.62294">
        <ele>3.6</ele>
        <time>2020-06-03T10:37:57Z</time>
      </trkpt>
      <trkpt lat="46.44167" lon="-1.62301">
        <ele>3.6</ele>
        <time>2020-06-03T10:37:58Z</time>
      </trkpt>
      <trkpt lat="46.44169" lon="-1.62307">
        <ele>3.5</ele>
        <time>2020-06-03T10:37:59Z</time>
      </trkpt>
      <trkpt lat="46.44171" lon="-1.62313">
        <ele>3.5</ele>
        <time>2020-06-03T10:38:00Z</time>
      </trkpt>
      <trkpt lat="46.44173" lon="-1.62319">
        <ele>3.5</ele>
        <time>2020-06-03T10:38:01Z</time>
      </trkpt>
      <trkpt lat="46.44176" lon="-1.62325">
        <ele>3.4</ele>
        <time>2020-06-03T10:38:02Z</time>
      </trkpt>
      <trkpt lat="46.44178" lon="-1.62332">
        <ele>3.4</ele>
        <time>2020-06-03T10:38:03Z</time>
      </trkpt>
      <trkpt lat="46.4418" lon="-1.62339">
        <ele>3.4</ele>
        <time>2020-06-03T10:38:04Z</time>
      </trkpt>
      <trkpt lat="46.44182" lon="-1.62346">
        <ele>3.4</ele>
        <time>2020-06-03T10:38:05Z</time>
      </trkpt>
      <trkpt lat="46.44184" lon="-1.62354">
        <ele>3.4</ele>
        <time>2020-06-03T10:38:06Z</time>
      </trkpt>
      <trkpt lat="46.44184" lon="-1.62362">
        <ele>3.5</ele>
        <time>2020-06-03T10:38:07Z</time>
      </trkpt>
      <trkpt lat="46.44185" lon="-1.62371">
        <ele>3.4</ele>
        <time>2020-06-03T10:38:08Z</time>
      </trkpt>
      <trkpt lat="46.44183" lon="-1.62378">
        <ele>3.4</ele>
        <time>2020-06-03T10:38:09Z</time>
      </trkpt>
      <trkpt lat="46.44181" lon="-1.62387">
        <ele>3.4</ele>
        <time>2020-06-03T10:38:10Z</time>
      </trkpt>
      <trkpt lat="46.4418" lon="-1.62395">
        <ele>3.4</ele>
        <time>2020-06-03T10:38:11Z</time>
      </trkpt>
      <trkpt lat="46.44179" lon="-1.62402">
        <ele>3.4</ele>
        <time>2020-06-03T10:38:12Z</time>
      </trkpt>
      <trkpt lat="46.44178" lon="-1.62411">
        <ele>3.4</ele>
        <time>2020-06-03T10:38:13Z</time>
      </trkpt>
      <trkpt lat="46.44177" lon="-1.62419">
        <ele>3.4</ele>
        <time>2020-06-03T10:38:14Z</time>
      </trkpt>
      <trkpt lat="46.44176" lon="-1.62427">
        <ele>3.4</ele>
        <time>2020-06-03T10:38:15Z</time>
      </trkpt>
      <trkpt lat="46.44175" lon="-1.62435">
        <ele>3.4</ele>
        <time>2020-06-03T10:38:16Z</time>
      </trkpt>
      <trkpt lat="46.44174" lon="-1.62443">
        <ele>3.4</ele>
        <time>2020-06-03T10:38:17Z</time>
      </trkpt>
      <trkpt lat="46.44174" lon="-1.62451">
        <ele>3.4</ele>
        <time>2020-06-03T10:38:18Z</time>
      </trkpt>
      <trkpt lat="46.44172" lon="-1.62458">
        <ele>3.4</ele>
        <time>2020-06-03T10:38:19Z</time>
      </trkpt>
      <trkpt lat="46.4417" lon="-1.62467">
        <ele>3.3</ele>
        <time>2020-06-03T10:38:20Z</time>
      </trkpt>
      <trkpt lat="46.44169" lon="-1.62474">
        <ele>3.3</ele>
        <time>2020-06-03T10:38:21Z</time>
      </trkpt>
      <trkpt lat="46.44169" lon="-1.62481">
        <ele>3.3</ele>
        <time>2020-06-03T10:38:22Z</time>
      </trkpt>
      <trkpt lat="46.44169" lon="-1.62489">
        <ele>3.2</ele>
        <time>2020-06-03T10:38:23Z</time>
      </trkpt>
      <trkpt lat="46.44171" lon="-1.62497">
        <ele>3.2</ele>
        <time>2020-06-03T10:38:24Z</time>
      </trkpt>
      <trkpt lat="46.44172" lon="-1.62504">
        <ele>3.1</ele>
        <time>2020-06-03T10:38:25Z</time>
      </trkpt>
      <trkpt lat="46.44175" lon="-1.62511">
        <ele>3.1</ele>
        <time>2020-06-03T10:38:26Z</time>
      </trkpt>
      <trkpt lat="46.44177" lon="-1.62519">
        <ele>3.1</ele>
        <time>2020-06-03T10:38:27Z</time>
      </trkpt>
      <trkpt lat="46.44181" lon="-1.62526">
        <ele>3.1</ele>
        <time>2020-06-03T10:38:28Z</time>
      </trkpt>
      <trkpt lat="46.44183" lon="-1.62533">
        <ele>3.1</ele>
        <time>2020-06-03T10:38:29Z</time>
      </trkpt>
      <trkpt lat="46.44185" lon="-1.6254">
        <ele>3.2</ele>
        <time>2020-06-03T10:38:30Z</time>
      </trkpt>
      <trkpt lat="46.44188" lon="-1.62547">
        <ele>3.2</ele>
        <time>2020-06-03T10:38:31Z</time>
      </trkpt>
      <trkpt lat="46.44189" lon="-1.62554">
        <ele>3.2</ele>
        <time>2020-06-03T10:38:32Z</time>
      </trkpt>
      <trkpt lat="46.44192" lon="-1.62562">
        <ele>3.2</ele>
        <time>2020-06-03T10:38:33Z</time>
      </trkpt>
      <trkpt lat="46.44194" lon="-1.62569">
        <ele>3.2</ele>
        <time>2020-06-03T10:38:34Z</time>
      </trkpt>
      <trkpt lat="46.44195" lon="-1.62576">
        <ele>3.3</ele>
        <time>2020-06-03T10:38:35Z</time>
      </trkpt>
      <trkpt lat="46.44196" lon="-1.62584">
        <ele>3.3</ele>
        <time>2020-06-03T10:38:36Z</time>
      </trkpt>
      <trkpt lat="46.44197" lon="-1.62591">
        <ele>3.3</ele>
        <time>2020-06-03T10:38:37Z</time>
      </trkpt>
      <trkpt lat="46.44198" lon="-1.62598">
        <ele>3.4</ele>
        <time>2020-06-03T10:38:38Z</time>
      </trkpt>
      <trkpt lat="46.44199" lon="-1.62607">
        <ele>3.4</ele>
        <time>2020-06-03T10:38:39Z</time>
      </trkpt>
      <trkpt lat="46.44201" lon="-1.62614">
        <ele>3.5</ele>
        <time>2020-06-03T10:38:40Z</time>
      </trkpt>
      <trkpt lat="46.44202" lon="-1.62623">
        <ele>3.5</ele>
        <time>2020-06-03T10:38:41Z</time>
      </trkpt>
      <trkpt lat="46.44202" lon="-1.6263">
        <ele>3.6</ele>
        <time>2020-06-03T10:38:42Z</time>
      </trkpt>
      <trkpt lat="46.44203" lon="-1.62638">
        <ele>3.6</ele>
        <time>2020-06-03T10:38:43Z</time>
      </trkpt>
      <trkpt lat="46.44203" lon="-1.62646">
        <ele>3.7</ele>
        <time>2020-06-03T10:38:44Z</time>
      </trkpt>
      <trkpt lat="46.44204" lon="-1.62654">
        <ele>3.7</ele>
        <time>2020-06-03T10:38:45Z</time>
      </trkpt>
      <trkpt lat="46.44205" lon="-1.62662">
        <ele>3.8</ele>
        <time>2020-06-03T10:38:46Z</time>
      </trkpt>
      <trkpt lat="46.44205" lon="-1.6267">
        <ele>3.9</ele>
        <time>2020-06-03T10:38:47Z</time>
      </trkpt>
      <trkpt lat="46.44205" lon="-1.62678">
        <ele>3.9</ele>
        <time>2020-06-03T10:38:48Z</time>
      </trkpt>
      <trkpt lat="46.44206" lon="-1.62686">
        <ele>4</ele>
        <time>2020-06-03T10:38:49Z</time>
      </trkpt>
      <trkpt lat="46.44206" lon="-1.62694">
        <ele>4</ele>
        <time>2020-06-03T10:38:50Z</time>
      </trkpt>
      <trkpt lat="46.44207" lon="-1.627">
        <ele>4.1</ele>
        <time>2020-06-03T10:38:51Z</time>
      </trkpt>
      <trkpt lat="46.44207" lon="-1.62707">
        <ele>4.1</ele>
        <time>2020-06-03T10:38:52Z</time>
      </trkpt>
      <trkpt lat="46.44207" lon="-1.62714">
        <ele>4.1</ele>
        <time>2020-06-03T10:38:53Z</time>
      </trkpt>
      <trkpt lat="46.44208" lon="-1.6272">
        <ele>4.1</ele>
        <time>2020-06-03T10:38:54Z</time>
      </trkpt>
      <trkpt lat="46.44209" lon="-1.62726">
        <ele>4.1</ele>
        <time>2020-06-03T10:38:55Z</time>
      </trkpt>
      <trkpt lat="46.44209" lon="-1.62732">
        <ele>4.1</ele>
        <time>2020-06-03T10:38:56Z</time>
      </trkpt>
      <trkpt lat="46.44209" lon="-1.62737">
        <ele>4.1</ele>
        <time>2020-06-03T10:38:57Z</time>
      </trkpt>
      <trkpt lat="46.44209" lon="-1.62742">
        <ele>4.1</ele>
        <time>2020-06-03T10:38:58Z</time>
      </trkpt>
      <trkpt lat="46.44207" lon="-1.62747">
        <ele>4.1</ele>
        <time>2020-06-03T10:38:59Z</time>
      </trkpt>
      <trkpt lat="46.44205" lon="-1.62749">
        <ele>4.1</ele>
        <time>2020-06-03T10:39:00Z</time>
      </trkpt>
      <trkpt lat="46.44201" lon="-1.62751">
        <ele>4.1</ele>
        <time>2020-06-03T10:39:01Z</time>
      </trkpt>
      <trkpt lat="46.44197" lon="-1.62754">
        <ele>4</ele>
        <time>2020-06-03T10:39:02Z</time>
      </trkpt>
      <trkpt lat="46.44193" lon="-1.62758">
        <ele>4</ele>
        <time>2020-06-03T10:39:03Z</time>
      </trkpt>
      <trkpt lat="46.44189" lon="-1.62762">
        <ele>4</ele>
        <time>2020-06-03T10:39:04Z</time>
      </trkpt>
      <trkpt lat="46.44186" lon="-1.62767">
        <ele>4</ele>
        <time>2020-06-03T10:39:05Z</time>
      </trkpt>
      <trkpt lat="46.44182" lon="-1.62771">
        <ele>3.9</ele>
        <time>2020-06-03T10:39:06Z</time>
      </trkpt>
      <trkpt lat="46.44177" lon="-1.62776">
        <ele>3.9</ele>
        <time>2020-06-03T10:39:07Z</time>
      </trkpt>
      <trkpt lat="46.44173" lon="-1.6278">
        <ele>3.9</ele>
        <time>2020-06-03T10:39:08Z</time>
      </trkpt>
      <trkpt lat="46.44169" lon="-1.62784">
        <ele>3.9</ele>
        <time>2020-06-03T10:39:09Z</time>
      </trkpt>
      <trkpt lat="46.44166" lon="-1.62788">
        <ele>3.8</ele>
        <time>2020-06-03T10:39:10Z</time>
      </trkpt>
      <trkpt lat="46.44162" lon="-1.62793">
        <ele>3.8</ele>
        <time>2020-06-03T10:39:11Z</time>
      </trkpt>
      <trkpt lat="46.44159" lon="-1.62799">
        <ele>3.8</ele>
        <time>2020-06-03T10:39:12Z</time>
      </trkpt>
      <trkpt lat="46.44159" lon="-1.62807">
        <ele>3.7</ele>
        <time>2020-06-03T10:39:13Z</time>
      </trkpt>
      <trkpt lat="46.44159" lon="-1.62815">
        <ele>3.7</ele>
        <time>2020-06-03T10:39:14Z</time>
      </trkpt>
      <trkpt lat="46.4416" lon="-1.62821">
        <ele>3.7</ele>
        <time>2020-06-03T10:39:15Z</time>
      </trkpt>
      <trkpt lat="46.4416" lon="-1.62828">
        <ele>3.6</ele>
        <time>2020-06-03T10:39:16Z</time>
      </trkpt>
      <trkpt lat="46.44161" lon="-1.62836">
        <ele>3.6</ele>
        <time>2020-06-03T10:39:17Z</time>
      </trkpt>
      <trkpt lat="46.44161" lon="-1.62843">
        <ele>3.6</ele>
        <time>2020-06-03T10:39:18Z</time>
      </trkpt>
      <trkpt lat="46.44163" lon="-1.62851">
        <ele>3.6</ele>
        <time>2020-06-03T10:39:19Z</time>
      </trkpt>
      <trkpt lat="46.44165" lon="-1.62858">
        <ele>3.5</ele>
        <time>2020-06-03T10:39:20Z</time>
      </trkpt>
      <trkpt lat="46.44167" lon="-1.62866">
        <ele>3.5</ele>
        <time>2020-06-03T10:39:21Z</time>
      </trkpt>
      <trkpt lat="46.44168" lon="-1.62872">
        <ele>3.5</ele>
        <time>2020-06-03T10:39:22Z</time>
      </trkpt>
      <trkpt lat="46.4417" lon="-1.62879">
        <ele>3.5</ele>
        <time>2020-06-03T10:39:23Z</time>
      </trkpt>
      <trkpt lat="46.44171" lon="-1.62886">
        <ele>3.4</ele>
        <time>2020-06-03T10:39:24Z</time>
      </trkpt>
      <trkpt lat="46.44173" lon="-1.62892">
        <ele>3.4</ele>
        <time>2020-06-03T10:39:25Z</time>
      </trkpt>
      <trkpt lat="46.44175" lon="-1.62897">
        <ele>3.4</ele>
        <time>2020-06-03T10:39:26Z</time>
      </trkpt>
      <trkpt lat="46.44177" lon="-1.62902">
        <ele>3.4</ele>
        <time>2020-06-03T10:39:27Z</time>
      </trkpt>
      <trkpt lat="46.44179" lon="-1.62906">
        <ele>3.4</ele>
        <time>2020-06-03T10:39:28Z</time>
      </trkpt>
      <trkpt lat="46.44179" lon="-1.62909">
        <ele>3.4</ele>
        <time>2020-06-03T10:39:29Z</time>
      </trkpt>
      <trkpt lat="46.4418" lon="-1.6291">
        <ele>3.3</ele>
        <time>2020-06-03T10:39:30Z</time>
      </trkpt>
      <trkpt lat="46.4418" lon="-1.62911">
        <ele>3.3</ele>
        <time>2020-06-03T10:39:31Z</time>
      </trkpt>
      <trkpt lat="46.44179" lon="-1.62915">
        <ele>3.3</ele>
        <time>2020-06-03T10:39:32Z</time>
      </trkpt>
      <trkpt lat="46.44179" lon="-1.6292">
        <ele>3.2</ele>
        <time>2020-06-03T10:39:33Z</time>
      </trkpt>
      <trkpt lat="46.4418" lon="-1.62922">
        <ele>3.2</ele>
        <time>2020-06-03T10:39:34Z</time>
      </trkpt>
      <trkpt lat="46.44182" lon="-1.62926">
        <ele>3.2</ele>
        <time>2020-06-03T10:39:35Z</time>
      </trkpt>
      <trkpt lat="46.44185" lon="-1.62927">
        <ele>3.2</ele>
        <time>2020-06-03T10:39:36Z</time>
      </trkpt>
      <trkpt lat="46.44188" lon="-1.62928">
        <ele>3.2</ele>
        <time>2020-06-03T10:39:37Z</time>
      </trkpt>
      <trkpt lat="46.44193" lon="-1.62929">
        <ele>3.2</ele>
        <time>2020-06-03T10:39:38Z</time>
      </trkpt>
      <trkpt lat="46.44197" lon="-1.62931">
        <ele>3.2</ele>
        <time>2020-06-03T10:39:39Z</time>
      </trkpt>
      <trkpt lat="46.44201" lon="-1.62932">
        <ele>3.2</ele>
        <time>2020-06-03T10:39:40Z</time>
      </trkpt>
      <trkpt lat="46.44205" lon="-1.62931">
        <ele>3.2</ele>
        <time>2020-06-03T10:39:41Z</time>
      </trkpt>
      <trkpt lat="46.44209" lon="-1.62932">
        <ele>3.2</ele>
        <time>2020-06-03T10:39:42Z</time>
      </trkpt>
      <trkpt lat="46.44214" lon="-1.62932">
        <ele>3.2</ele>
        <time>2020-06-03T10:39:43Z</time>
      </trkpt>
      <trkpt lat="46.44218" lon="-1.62933">
        <ele>3.2</ele>
        <time>2020-06-03T10:39:44Z</time>
      </trkpt>
      <trkpt lat="46.44222" lon="-1.62932">
        <ele>3.1</ele>
        <time>2020-06-03T10:39:45Z</time>
      </trkpt>
      <trkpt lat="46.44226" lon="-1.62933">
        <ele>3.1</ele>
        <time>2020-06-03T10:39:46Z</time>
      </trkpt>
      <trkpt lat="46.44231" lon="-1.62934">
        <ele>3.1</ele>
        <time>2020-06-03T10:39:47Z</time>
      </trkpt>
      <trkpt lat="46.44235" lon="-1.62934">
        <ele>3.1</ele>
        <time>2020-06-03T10:39:48Z</time>
      </trkpt>
      <trkpt lat="46.44239" lon="-1.62932">
        <ele>3.1</ele>
        <time>2020-06-03T10:39:49Z</time>
      </trkpt>
      <trkpt lat="46.44243" lon="-1.62932">
        <ele>3.1</ele>
        <time>2020-06-03T10:39:50Z</time>
      </trkpt>
      <trkpt lat="46.44247" lon="-1.62933">
        <ele>3.1</ele>
        <time>2020-06-03T10:39:51Z</time>
      </trkpt>
      <trkpt lat="46.4425" lon="-1.62934">
        <ele>3.1</ele>
        <time>2020-06-03T10:39:52Z</time>
      </trkpt>
      <trkpt lat="46.44252" lon="-1.62935">
        <ele>3.1</ele>
        <time>2020-06-03T10:39:53Z</time>
      </trkpt>
      <trkpt lat="46.44255" lon="-1.62936">
        <ele>3.1</ele>
        <time>2020-06-03T10:39:54Z</time>
      </trkpt>
      <trkpt lat="46.44259" lon="-1.62938">
        <ele>3.1</ele>
        <time>2020-06-03T10:39:55Z</time>
      </trkpt>
      <trkpt lat="46.4426" lon="-1.62939">
        <ele>3.1</ele>
        <time>2020-06-03T10:39:56Z</time>
      </trkpt>
      <trkpt lat="46.44263" lon="-1.62941">
        <ele>3.1</ele>
        <time>2020-06-03T10:39:57Z</time>
      </trkpt>
      <trkpt lat="46.44266" lon="-1.62944">
        <ele>3.1</ele>
        <time>2020-06-03T10:39:58Z</time>
      </trkpt>
      <trkpt lat="46.4427" lon="-1.62946">
        <ele>3.1</ele>
        <time>2020-06-03T10:39:59Z</time>
      </trkpt>
      <trkpt lat="46.44274" lon="-1.62949">
        <ele>3.2</ele>
        <time>2020-06-03T10:40:00Z</time>
      </trkpt>
      <trkpt lat="46.44279" lon="-1.62951">
        <ele>3.2</ele>
        <time>2020-06-03T10:40:01Z</time>
      </trkpt>
      <trkpt lat="46.44285" lon="-1.62954">
        <ele>3.2</ele>
        <time>2020-06-03T10:40:02Z</time>
      </trkpt>
      <trkpt lat="46.4429" lon="-1.62957">
        <ele>3.2</ele>
        <time>2020-06-03T10:40:03Z</time>
      </trkpt>
      <trkpt lat="46.44295" lon="-1.62957">
        <ele>3.2</ele>
        <time>2020-06-03T10:40:04Z</time>
      </trkpt>
      <trkpt lat="46.443" lon="-1.62958">
        <ele>3.2</ele>
        <time>2020-06-03T10:40:05Z</time>
      </trkpt>
      <trkpt lat="46.44304" lon="-1.62959">
        <ele>3.2</ele>
        <time>2020-06-03T10:40:06Z</time>
      </trkpt>
      <trkpt lat="46.44308" lon="-1.6296">
        <ele>3.2</ele>
        <time>2020-06-03T10:40:07Z</time>
      </trkpt>
      <trkpt lat="46.44313" lon="-1.6296">
        <ele>3.2</ele>
        <time>2020-06-03T10:40:08Z</time>
      </trkpt>
      <trkpt lat="46.44317" lon="-1.6296">
        <ele>3.3</ele>
        <time>2020-06-03T10:40:09Z</time>
      </trkpt>
      <trkpt lat="46.44322" lon="-1.62959">
        <ele>3.3</ele>
        <time>2020-06-03T10:40:10Z</time>
      </trkpt>
      <trkpt lat="46.44326" lon="-1.62959">
        <ele>3.3</ele>
        <time>2020-06-03T10:40:11Z</time>
      </trkpt>
      <trkpt lat="46.44331" lon="-1.62959">
        <ele>3.3</ele>
        <time>2020-06-03T10:40:12Z</time>
      </trkpt>
      <trkpt lat="46.44333" lon="-1.62959">
        <ele>3.3</ele>
        <time>2020-06-03T10:40:13Z</time>
      </trkpt>
      <trkpt lat="46.44338" lon="-1.62958">
        <ele>3.3</ele>
        <time>2020-06-03T10:40:14Z</time>
      </trkpt>
      <trkpt lat="46.44342" lon="-1.62958">
        <ele>3.3</ele>
        <time>2020-06-03T10:40:15Z</time>
      </trkpt>
      <trkpt lat="46.44347" lon="-1.62958">
        <ele>3.3</ele>
        <time>2020-06-03T10:40:16Z</time>
      </trkpt>
      <trkpt lat="46.44351" lon="-1.62959">
        <ele>3.3</ele>
        <time>2020-06-03T10:40:17Z</time>
      </trkpt>
      <trkpt lat="46.44356" lon="-1.62959">
        <ele>3.3</ele>
        <time>2020-06-03T10:40:18Z</time>
      </trkpt>
      <trkpt lat="46.44361" lon="-1.62959">
        <ele>3.3</ele>
        <time>2020-06-03T10:40:19Z</time>
      </trkpt>
      <trkpt lat="46.44366" lon="-1.6296">
        <ele>3.3</ele>
        <time>2020-06-03T10:40:20Z</time>
      </trkpt>
      <trkpt lat="46.44372" lon="-1.6296">
        <ele>3.3</ele>
        <time>2020-06-03T10:40:21Z</time>
      </trkpt>
      <trkpt lat="46.44378" lon="-1.62961">
        <ele>3.3</ele>
        <time>2020-06-03T10:40:22Z</time>
      </trkpt>
      <trkpt lat="46.44383" lon="-1.6296">
        <ele>3.3</ele>
        <time>2020-06-03T10:40:23Z</time>
      </trkpt>
      <trkpt lat="46.44387" lon="-1.62961">
        <ele>3.3</ele>
        <time>2020-06-03T10:40:24Z</time>
      </trkpt>
      <trkpt lat="46.44392" lon="-1.62961">
        <ele>3.3</ele>
        <time>2020-06-03T10:40:25Z</time>
      </trkpt>
      <trkpt lat="46.44397" lon="-1.6296">
        <ele>3.3</ele>
        <time>2020-06-03T10:40:26Z</time>
      </trkpt>
      <trkpt lat="46.44401" lon="-1.6296">
        <ele>3.4</ele>
        <time>2020-06-03T10:40:27Z</time>
      </trkpt>
      <trkpt lat="46.44406" lon="-1.62962">
        <ele>3.4</ele>
        <time>2020-06-03T10:40:28Z</time>
      </trkpt>
      <trkpt lat="46.4441" lon="-1.62967">
        <ele>3.4</ele>
        <time>2020-06-03T10:40:29Z</time>
      </trkpt>
      <trkpt lat="46.44412" lon="-1.62975">
        <ele>3.4</ele>
        <time>2020-06-03T10:40:30Z</time>
      </trkpt>
      <trkpt lat="46.44414" lon="-1.62982">
        <ele>3.4</ele>
        <time>2020-06-03T10:40:31Z</time>
      </trkpt>
      <trkpt lat="46.44416" lon="-1.62988">
        <ele>3.4</ele>
        <time>2020-06-03T10:40:32Z</time>
      </trkpt>
      <trkpt lat="46.44419" lon="-1.62995">
        <ele>3.4</ele>
        <time>2020-06-03T10:40:33Z</time>
      </trkpt>
      <trkpt lat="46.44422" lon="-1.63002">
        <ele>3.4</ele>
        <time>2020-06-03T10:40:34Z</time>
      </trkpt>
      <trkpt lat="46.44425" lon="-1.6301">
        <ele>3.3</ele>
        <time>2020-06-03T10:40:35Z</time>
      </trkpt>
      <trkpt lat="46.44429" lon="-1.63017">
        <ele>3.3</ele>
        <time>2020-06-03T10:40:36Z</time>
      </trkpt>
      <trkpt lat="46.44431" lon="-1.63023">
        <ele>3.3</ele>
        <time>2020-06-03T10:40:37Z</time>
      </trkpt>
      <trkpt lat="46.44434" lon="-1.6303">
        <ele>3.3</ele>
        <time>2020-06-03T10:40:38Z</time>
      </trkpt>
      <trkpt lat="46.44437" lon="-1.63037">
        <ele>3.4</ele>
        <time>2020-06-03T10:40:39Z</time>
      </trkpt>
      <trkpt lat="46.4444" lon="-1.63044">
        <ele>3.4</ele>
        <time>2020-06-03T10:40:40Z</time>
      </trkpt>
      <trkpt lat="46.44443" lon="-1.6305">
        <ele>3.4</ele>
        <time>2020-06-03T10:40:41Z</time>
      </trkpt>
      <trkpt lat="46.44447" lon="-1.63056">
        <ele>3.4</ele>
        <time>2020-06-03T10:40:42Z</time>
      </trkpt>
      <trkpt lat="46.4445" lon="-1.63062">
        <ele>3.4</ele>
        <time>2020-06-03T10:40:43Z</time>
      </trkpt>
      <trkpt lat="46.44454" lon="-1.63067">
        <ele>3.4</ele>
        <time>2020-06-03T10:40:44Z</time>
      </trkpt>
      <trkpt lat="46.44458" lon="-1.63072">
        <ele>3.4</ele>
        <time>2020-06-03T10:40:45Z</time>
      </trkpt>
      <trkpt lat="46.44462" lon="-1.63077">
        <ele>3.4</ele>
        <time>2020-06-03T10:40:46Z</time>
      </trkpt>
      <trkpt lat="46.44466" lon="-1.63082">
        <ele>3.4</ele>
        <time>2020-06-03T10:40:47Z</time>
      </trkpt>
      <trkpt lat="46.44471" lon="-1.63087">
        <ele>3.4</ele>
        <time>2020-06-03T10:40:48Z</time>
      </trkpt>
      <trkpt lat="46.44476" lon="-1.63091">
        <ele>3.4</ele>
        <time>2020-06-03T10:40:49Z</time>
      </trkpt>
      <trkpt lat="46.4448" lon="-1.63095">
        <ele>3.4</ele>
        <time>2020-06-03T10:40:50Z</time>
      </trkpt>
      <trkpt lat="46.44484" lon="-1.631">
        <ele>3.4</ele>
        <time>2020-06-03T10:40:51Z</time>
      </trkpt>
      <trkpt lat="46.44488" lon="-1.63104">
        <ele>3.4</ele>
        <time>2020-06-03T10:40:52Z</time>
      </trkpt>
      <trkpt lat="46.44492" lon="-1.63108">
        <ele>3.4</ele>
        <time>2020-06-03T10:40:53Z</time>
      </trkpt>
      <trkpt lat="46.44496" lon="-1.63114">
        <ele>3.4</ele>
        <time>2020-06-03T10:40:54Z</time>
      </trkpt>
      <trkpt lat="46.44501" lon="-1.63118">
        <ele>3.4</ele>
        <time>2020-06-03T10:40:55Z</time>
      </trkpt>
      <trkpt lat="46.44506" lon="-1.63123">
        <ele>3.4</ele>
        <time>2020-06-03T10:40:56Z</time>
      </trkpt>
      <trkpt lat="46.44511" lon="-1.63127">
        <ele>3.4</ele>
        <time>2020-06-03T10:40:57Z</time>
      </trkpt>
      <trkpt lat="46.44516" lon="-1.63131">
        <ele>3.4</ele>
        <time>2020-06-03T10:40:58Z</time>
      </trkpt>
      <trkpt lat="46.44521" lon="-1.63136">
        <ele>3.4</ele>
        <time>2020-06-03T10:40:59Z</time>
      </trkpt>
      <trkpt lat="46.44526" lon="-1.63141">
        <ele>3.4</ele>
        <time>2020-06-03T10:41:00Z</time>
      </trkpt>
      <trkpt lat="46.4453" lon="-1.63146">
        <ele>3.4</ele>
        <time>2020-06-03T10:41:01Z</time>
      </trkpt>
      <trkpt lat="46.44535" lon="-1.63152">
        <ele>3.4</ele>
        <time>2020-06-03T10:41:02Z</time>
      </trkpt>
      <trkpt lat="46.44539" lon="-1.63158">
        <ele>3.4</ele>
        <time>2020-06-03T10:41:03Z</time>
      </trkpt>
      <trkpt lat="46.44542" lon="-1.63164">
        <ele>3.4</ele>
        <time>2020-06-03T10:41:04Z</time>
      </trkpt>
      <trkpt lat="46.44546" lon="-1.6317">
        <ele>3.4</ele>
        <time>2020-06-03T10:41:05Z</time>
      </trkpt>
      <trkpt lat="46.4455" lon="-1.63177">
        <ele>3.4</ele>
        <time>2020-06-03T10:41:06Z</time>
      </trkpt>
      <trkpt lat="46.44553" lon="-1.63185">
        <ele>3.4</ele>
        <time>2020-06-03T10:41:07Z</time>
      </trkpt>
      <trkpt lat="46.44555" lon="-1.63193">
        <ele>3.4</ele>
        <time>2020-06-03T10:41:08Z</time>
      </trkpt>
      <trkpt lat="46.44557" lon="-1.63201">
        <ele>3.4</ele>
        <time>2020-06-03T10:41:09Z</time>
      </trkpt>
      <trkpt lat="46.44558" lon="-1.63208">
        <ele>3.4</ele>
        <time>2020-06-03T10:41:10Z</time>
      </trkpt>
      <trkpt lat="46.44559" lon="-1.63215">
        <ele>3.4</ele>
        <time>2020-06-03T10:41:11Z</time>
      </trkpt>
      <trkpt lat="46.4456" lon="-1.63222">
        <ele>3.3</ele>
        <time>2020-06-03T10:41:12Z</time>
      </trkpt>
      <trkpt lat="46.44562" lon="-1.63229">
        <ele>3.3</ele>
        <time>2020-06-03T10:41:13Z</time>
      </trkpt>
      <trkpt lat="46.44565" lon="-1.63233">
        <ele>3.3</ele>
        <time>2020-06-03T10:41:14Z</time>
      </trkpt>
      <trkpt lat="46.44569" lon="-1.63238">
        <ele>3.3</ele>
        <time>2020-06-03T10:41:15Z</time>
      </trkpt>
      <trkpt lat="46.44574" lon="-1.6324">
        <ele>3.4</ele>
        <time>2020-06-03T10:41:16Z</time>
      </trkpt>
      <trkpt lat="46.44579" lon="-1.63242">
        <ele>3.4</ele>
        <time>2020-06-03T10:41:17Z</time>
      </trkpt>
      <trkpt lat="46.44585" lon="-1.63242">
        <ele>3.5</ele>
        <time>2020-06-03T10:41:18Z</time>
      </trkpt>
      <trkpt lat="46.44591" lon="-1.63242">
        <ele>3.7</ele>
        <time>2020-06-03T10:41:19Z</time>
      </trkpt>
      <trkpt lat="46.44597" lon="-1.63242">
        <ele>3.8</ele>
        <time>2020-06-03T10:41:20Z</time>
      </trkpt>
      <trkpt lat="46.44604" lon="-1.63242">
        <ele>4</ele>
        <time>2020-06-03T10:41:21Z</time>
      </trkpt>
      <trkpt lat="46.44611" lon="-1.63243">
        <ele>4.2</ele>
        <time>2020-06-03T10:41:22Z</time>
      </trkpt>
      <trkpt lat="46.44617" lon="-1.63243">
        <ele>4.3</ele>
        <time>2020-06-03T10:41:23Z</time>
      </trkpt>
      <trkpt lat="46.44623" lon="-1.63243">
        <ele>4.4</ele>
        <time>2020-06-03T10:41:24Z</time>
      </trkpt>
      <trkpt lat="46.44628" lon="-1.63243">
        <ele>4.5</ele>
        <time>2020-06-03T10:41:25Z</time>
      </trkpt>
      <trkpt lat="46.44633" lon="-1.63243">
        <ele>4.7</ele>
        <time>2020-06-03T10:41:26Z</time>
      </trkpt>
      <trkpt lat="46.44639" lon="-1.63242">
        <ele>4.8</ele>
        <time>2020-06-03T10:41:27Z</time>
      </trkpt>
      <trkpt lat="46.44644" lon="-1.63243">
        <ele>4.9</ele>
        <time>2020-06-03T10:41:28Z</time>
      </trkpt>
      <trkpt lat="46.4465" lon="-1.63243">
        <ele>5.1</ele>
        <time>2020-06-03T10:41:29Z</time>
      </trkpt>
      <trkpt lat="46.44655" lon="-1.63243">
        <ele>5.2</ele>
        <time>2020-06-03T10:41:30Z</time>
      </trkpt>
      <trkpt lat="46.44661" lon="-1.63243">
        <ele>5.3</ele>
        <time>2020-06-03T10:41:31Z</time>
      </trkpt>
      <trkpt lat="46.44666" lon="-1.63243">
        <ele>5.5</ele>
        <time>2020-06-03T10:41:32Z</time>
      </trkpt>
      <trkpt lat="46.44671" lon="-1.63243">
        <ele>5.6</ele>
        <time>2020-06-03T10:41:33Z</time>
      </trkpt>
      <trkpt lat="46.44676" lon="-1.63244">
        <ele>5.7</ele>
        <time>2020-06-03T10:41:34Z</time>
      </trkpt>
      <trkpt lat="46.44682" lon="-1.63244">
        <ele>5.8</ele>
        <time>2020-06-03T10:41:35Z</time>
      </trkpt>
      <trkpt lat="46.44687" lon="-1.63245">
        <ele>6</ele>
        <time>2020-06-03T10:41:36Z</time>
      </trkpt>
      <trkpt lat="46.44692" lon="-1.63245">
        <ele>6.1</ele>
        <time>2020-06-03T10:41:37Z</time>
      </trkpt>
      <trkpt lat="46.44697" lon="-1.63246">
        <ele>6.1</ele>
        <time>2020-06-03T10:41:38Z</time>
      </trkpt>
      <trkpt lat="46.44703" lon="-1.63246">
        <ele>6.2</ele>
        <time>2020-06-03T10:41:39Z</time>
      </trkpt>
      <trkpt lat="46.44707" lon="-1.63247">
        <ele>6.3</ele>
        <time>2020-06-03T10:41:40Z</time>
      </trkpt>
      <trkpt lat="46.44712" lon="-1.63247">
        <ele>6.4</ele>
        <time>2020-06-03T10:41:41Z</time>
      </trkpt>
      <trkpt lat="46.44717" lon="-1.63248">
        <ele>6.5</ele>
        <time>2020-06-03T10:41:42Z</time>
      </trkpt>
      <trkpt lat="46.44721" lon="-1.63248">
        <ele>6.5</ele>
        <time>2020-06-03T10:41:43Z</time>
      </trkpt>
      <trkpt lat="46.44725" lon="-1.63248">
        <ele>6.6</ele>
        <time>2020-06-03T10:41:44Z</time>
      </trkpt>
      <trkpt lat="46.4473" lon="-1.63248">
        <ele>6.7</ele>
        <time>2020-06-03T10:41:45Z</time>
      </trkpt>
      <trkpt lat="46.44733" lon="-1.63248">
        <ele>6.7</ele>
        <time>2020-06-03T10:41:46Z</time>
      </trkpt>
      <trkpt lat="46.44736" lon="-1.6325">
        <ele>6.8</ele>
        <time>2020-06-03T10:41:47Z</time>
      </trkpt>
      <trkpt lat="46.44739" lon="-1.63254">
        <ele>6.8</ele>
        <time>2020-06-03T10:41:48Z</time>
      </trkpt>
      <trkpt lat="46.4474" lon="-1.63261">
        <ele>6.8</ele>
        <time>2020-06-03T10:41:49Z</time>
      </trkpt>
      <trkpt lat="46.4474" lon="-1.63267">
        <ele>6.9</ele>
        <time>2020-06-03T10:41:50Z</time>
      </trkpt>
      <trkpt lat="46.44741" lon="-1.63272">
        <ele>6.9</ele>
        <time>2020-06-03T10:41:51Z</time>
      </trkpt>
      <trkpt lat="46.44741" lon="-1.63277">
        <ele>6.9</ele>
        <time>2020-06-03T10:41:52Z</time>
      </trkpt>
      <trkpt lat="46.44744" lon="-1.63281">
        <ele>7</ele>
        <time>2020-06-03T10:41:53Z</time>
      </trkpt>
      <trkpt lat="46.44744" lon="-1.63284">
        <ele>7</ele>
        <time>2020-06-03T10:41:54Z</time>
      </trkpt>
      <trkpt lat="46.44745" lon="-1.63288">
        <ele>7</ele>
        <time>2020-06-03T10:41:55Z</time>
      </trkpt>
      <trkpt lat="46.44746" lon="-1.63292">
        <ele>7.1</ele>
        <time>2020-06-03T10:41:56Z</time>
      </trkpt>
      <trkpt lat="46.44748" lon="-1.63299">
        <ele>7.2</ele>
        <time>2020-06-03T10:41:57Z</time>
      </trkpt>
      <trkpt lat="46.44749" lon="-1.63304">
        <ele>7.3</ele>
        <time>2020-06-03T10:41:58Z</time>
      </trkpt>
      <trkpt lat="46.4475" lon="-1.63309">
        <ele>7.4</ele>
        <time>2020-06-03T10:41:59Z</time>
      </trkpt>
      <trkpt lat="46.44752" lon="-1.63315">
        <ele>7.5</ele>
        <time>2020-06-03T10:42:00Z</time>
      </trkpt>
      <trkpt lat="46.44754" lon="-1.63321">
        <ele>7.5</ele>
        <time>2020-06-03T10:42:01Z</time>
      </trkpt>
      <trkpt lat="46.44756" lon="-1.63327">
        <ele>7.6</ele>
        <time>2020-06-03T10:42:02Z</time>
      </trkpt>
      <trkpt lat="46.44758" lon="-1.63333">
        <ele>7.7</ele>
        <time>2020-06-03T10:42:03Z</time>
      </trkpt>
      <trkpt lat="46.44759" lon="-1.63339">
        <ele>7.8</ele>
        <time>2020-06-03T10:42:04Z</time>
      </trkpt>
      <trkpt lat="46.44761" lon="-1.63345">
        <ele>7.8</ele>
        <time>2020-06-03T10:42:05Z</time>
      </trkpt>
      <trkpt lat="46.44762" lon="-1.63351">
        <ele>7.9</ele>
        <time>2020-06-03T10:42:06Z</time>
      </trkpt>
      <trkpt lat="46.44764" lon="-1.63357">
        <ele>7.9</ele>
        <time>2020-06-03T10:42:07Z</time>
      </trkpt>
      <trkpt lat="46.44766" lon="-1.63363">
        <ele>8</ele>
        <time>2020-06-03T10:42:08Z</time>
      </trkpt>
      <trkpt lat="46.44768" lon="-1.63369">
        <ele>8.1</ele>
        <time>2020-06-03T10:42:09Z</time>
      </trkpt>
      <trkpt lat="46.4477" lon="-1.63375">
        <ele>8.1</ele>
        <time>2020-06-03T10:42:10Z</time>
      </trkpt>
      <trkpt lat="46.44771" lon="-1.63381">
        <ele>8.2</ele>
        <time>2020-06-03T10:42:11Z</time>
      </trkpt>
      <trkpt lat="46.44772" lon="-1.63387">
        <ele>8.3</ele>
        <time>2020-06-03T10:42:12Z</time>
      </trkpt>
      <trkpt lat="46.44774" lon="-1.63393">
        <ele>8.4</ele>
        <time>2020-06-03T10:42:13Z</time>
      </trkpt>
      <trkpt lat="46.44776" lon="-1.634">
        <ele>8.5</ele>
        <time>2020-06-03T10:42:14Z</time>
      </trkpt>
      <trkpt lat="46.44778" lon="-1.63406">
        <ele>8.6</ele>
        <time>2020-06-03T10:42:15Z</time>
      </trkpt>
      <trkpt lat="46.4478" lon="-1.63413">
        <ele>8.7</ele>
        <time>2020-06-03T10:42:16Z</time>
      </trkpt>
      <trkpt lat="46.44781" lon="-1.63419">
        <ele>8.8</ele>
        <time>2020-06-03T10:42:17Z</time>
      </trkpt>
      <trkpt lat="46.44782" lon="-1.63425">
        <ele>8.9</ele>
        <time>2020-06-03T10:42:18Z</time>
      </trkpt>
      <trkpt lat="46.44784" lon="-1.63431">
        <ele>9</ele>
        <time>2020-06-03T10:42:19Z</time>
      </trkpt>
      <trkpt lat="46.44786" lon="-1.63436">
        <ele>9.1</ele>
        <time>2020-06-03T10:42:20Z</time>
      </trkpt>
      <trkpt lat="46.44787" lon="-1.63441">
        <ele>9.2</ele>
        <time>2020-06-03T10:42:21Z</time>
      </trkpt>
      <trkpt lat="46.44788" lon="-1.63445">
        <ele>9.2</ele>
        <time>2020-06-03T10:42:22Z</time>
      </trkpt>
      <trkpt lat="46.44789" lon="-1.6345">
        <ele>9.3</ele>
        <time>2020-06-03T10:42:23Z</time>
      </trkpt>
      <trkpt lat="46.44791" lon="-1.63455">
        <ele>9.3</ele>
        <time>2020-06-03T10:42:24Z</time>
      </trkpt>
      <trkpt lat="46.44792" lon="-1.63461">
        <ele>9.4</ele>
        <time>2020-06-03T10:42:25Z</time>
      </trkpt>
      <trkpt lat="46.44793" lon="-1.63467">
        <ele>9.4</ele>
        <time>2020-06-03T10:42:26Z</time>
      </trkpt>
      <trkpt lat="46.44794" lon="-1.63472">
        <ele>9.4</ele>
        <time>2020-06-03T10:42:27Z</time>
      </trkpt>
      <trkpt lat="46.44796" lon="-1.63477">
        <ele>9.5</ele>
        <time>2020-06-03T10:42:28Z</time>
      </trkpt>
      <trkpt lat="46.44797" lon="-1.63482">
        <ele>9.5</ele>
        <time>2020-06-03T10:42:29Z</time>
      </trkpt>
      <trkpt lat="46.44799" lon="-1.63487">
        <ele>9.5</ele>
        <time>2020-06-03T10:42:30Z</time>
      </trkpt>
      <trkpt lat="46.44801" lon="-1.63493">
        <ele>9.6</ele>
        <time>2020-06-03T10:42:31Z</time>
      </trkpt>
      <trkpt lat="46.44802" lon="-1.63498">
        <ele>9.6</ele>
        <time>2020-06-03T10:42:32Z</time>
      </trkpt>
      <trkpt lat="46.44804" lon="-1.63504">
        <ele>9.6</ele>
        <time>2020-06-03T10:42:33Z</time>
      </trkpt>
      <trkpt lat="46.44806" lon="-1.6351">
        <ele>9.6</ele>
        <time>2020-06-03T10:42:34Z</time>
      </trkpt>
      <trkpt lat="46.44807" lon="-1.63516">
        <ele>9.7</ele>
        <time>2020-06-03T10:42:35Z</time>
      </trkpt>
      <trkpt lat="46.44809" lon="-1.63522">
        <ele>9.7</ele>
        <time>2020-06-03T10:42:36Z</time>
      </trkpt>
      <trkpt lat="46.4481" lon="-1.63527">
        <ele>9.7</ele>
        <time>2020-06-03T10:42:37Z</time>
      </trkpt>
      <trkpt lat="46.44811" lon="-1.63534">
        <ele>9.7</ele>
        <time>2020-06-03T10:42:38Z</time>
      </trkpt>
      <trkpt lat="46.44813" lon="-1.6354">
        <ele>9.7</ele>
        <time>2020-06-03T10:42:39Z</time>
      </trkpt>
      <trkpt lat="46.44814" lon="-1.63546">
        <ele>9.7</ele>
        <time>2020-06-03T10:42:40Z</time>
      </trkpt>
      <trkpt lat="46.44815" lon="-1.63551">
        <ele>9.7</ele>
        <time>2020-06-03T10:42:41Z</time>
      </trkpt>
      <trkpt lat="46.44817" lon="-1.63557">
        <ele>9.6</ele>
        <time>2020-06-03T10:42:42Z</time>
      </trkpt>
      <trkpt lat="46.44818" lon="-1.63564">
        <ele>9.6</ele>
        <time>2020-06-03T10:42:43Z</time>
      </trkpt>
      <trkpt lat="46.44819" lon="-1.63569">
        <ele>9.6</ele>
        <time>2020-06-03T10:42:44Z</time>
      </trkpt>
      <trkpt lat="46.4482" lon="-1.63575">
        <ele>9.6</ele>
        <time>2020-06-03T10:42:45Z</time>
      </trkpt>
      <trkpt lat="46.4482" lon="-1.6358">
        <ele>9.5</ele>
        <time>2020-06-03T10:42:46Z</time>
      </trkpt>
      <trkpt lat="46.4482" lon="-1.63586">
        <ele>9.5</ele>
        <time>2020-06-03T10:42:47Z</time>
      </trkpt>
      <trkpt lat="46.4482" lon="-1.63592">
        <ele>9.5</ele>
        <time>2020-06-03T10:42:48Z</time>
      </trkpt>
      <trkpt lat="46.4482" lon="-1.63598">
        <ele>9.5</ele>
        <time>2020-06-03T10:42:49Z</time>
      </trkpt>
      <trkpt lat="46.44819" lon="-1.63604">
        <ele>9.5</ele>
        <time>2020-06-03T10:42:50Z</time>
      </trkpt>
      <trkpt lat="46.44818" lon="-1.6361">
        <ele>9.5</ele>
        <time>2020-06-03T10:42:51Z</time>
      </trkpt>
      <trkpt lat="46.44818" lon="-1.63616">
        <ele>9.5</ele>
        <time>2020-06-03T10:42:52Z</time>
      </trkpt>
      <trkpt lat="46.44817" lon="-1.63622">
        <ele>9.5</ele>
        <time>2020-06-03T10:42:53Z</time>
      </trkpt>
      <trkpt lat="46.44815" lon="-1.63626">
        <ele>9.5</ele>
        <time>2020-06-03T10:42:54Z</time>
      </trkpt>
      <trkpt lat="46.44814" lon="-1.63632">
        <ele>9.5</ele>
        <time>2020-06-03T10:42:55Z</time>
      </trkpt>
      <trkpt lat="46.44813" lon="-1.63638">
        <ele>9.6</ele>
        <time>2020-06-03T10:42:56Z</time>
      </trkpt>
      <trkpt lat="46.44812" lon="-1.63644">
        <ele>9.6</ele>
        <time>2020-06-03T10:42:57Z</time>
      </trkpt>
      <trkpt lat="46.4481" lon="-1.6365">
        <ele>9.6</ele>
        <time>2020-06-03T10:42:58Z</time>
      </trkpt>
      <trkpt lat="46.44808" lon="-1.63656">
        <ele>9.6</ele>
        <time>2020-06-03T10:42:59Z</time>
      </trkpt>
      <trkpt lat="46.44806" lon="-1.63663">
        <ele>9.7</ele>
        <time>2020-06-03T10:43:00Z</time>
      </trkpt>
      <trkpt lat="46.44805" lon="-1.63669">
        <ele>9.7</ele>
        <time>2020-06-03T10:43:01Z</time>
      </trkpt>
      <trkpt lat="46.44804" lon="-1.63675">
        <ele>9.7</ele>
        <time>2020-06-03T10:43:02Z</time>
      </trkpt>
      <trkpt lat="46.44802" lon="-1.63682">
        <ele>9.8</ele>
        <time>2020-06-03T10:43:03Z</time>
      </trkpt>
      <trkpt lat="46.44801" lon="-1.63688">
        <ele>9.8</ele>
        <time>2020-06-03T10:43:04Z</time>
      </trkpt>
      <trkpt lat="46.44799" lon="-1.63694">
        <ele>9.9</ele>
        <time>2020-06-03T10:43:05Z</time>
      </trkpt>
      <trkpt lat="46.44798" lon="-1.63701">
        <ele>9.9</ele>
        <time>2020-06-03T10:43:06Z</time>
      </trkpt>
      <trkpt lat="46.44797" lon="-1.63708">
        <ele>10</ele>
        <time>2020-06-03T10:43:07Z</time>
      </trkpt>
      <trkpt lat="46.44795" lon="-1.63714">
        <ele>10</ele>
        <time>2020-06-03T10:43:08Z</time>
      </trkpt>
      <trkpt lat="46.44794" lon="-1.63721">
        <ele>10.1</ele>
        <time>2020-06-03T10:43:09Z</time>
      </trkpt>
      <trkpt lat="46.44793" lon="-1.63727">
        <ele>10.1</ele>
        <time>2020-06-03T10:43:10Z</time>
      </trkpt>
      <trkpt lat="46.44791" lon="-1.63734">
        <ele>10.2</ele>
        <time>2020-06-03T10:43:11Z</time>
      </trkpt>
      <trkpt lat="46.44789" lon="-1.6374">
        <ele>10.2</ele>
        <time>2020-06-03T10:43:12Z</time>
      </trkpt>
      <trkpt lat="46.44788" lon="-1.63747">
        <ele>10.2</ele>
        <time>2020-06-03T10:43:13Z</time>
      </trkpt>
      <trkpt lat="46.44786" lon="-1.63753">
        <ele>10.3</ele>
        <time>2020-06-03T10:43:14Z</time>
      </trkpt>
      <trkpt lat="46.44785" lon="-1.6376">
        <ele>10.3</ele>
        <time>2020-06-03T10:43:15Z</time>
      </trkpt>
      <trkpt lat="46.44784" lon="-1.63766">
        <ele>10.3</ele>
        <time>2020-06-03T10:43:16Z</time>
      </trkpt>
      <trkpt lat="46.44783" lon="-1.63772">
        <ele>10.3</ele>
        <time>2020-06-03T10:43:17Z</time>
      </trkpt>
      <trkpt lat="46.44781" lon="-1.63778">
        <ele>10.4</ele>
        <time>2020-06-03T10:43:18Z</time>
      </trkpt>
      <trkpt lat="46.4478" lon="-1.63783">
        <ele>10.4</ele>
        <time>2020-06-03T10:43:19Z</time>
      </trkpt>
      <trkpt lat="46.44779" lon="-1.63789">
        <ele>10.4</ele>
        <time>2020-06-03T10:43:20Z</time>
      </trkpt>
      <trkpt lat="46.44778" lon="-1.63794">
        <ele>10.4</ele>
        <time>2020-06-03T10:43:21Z</time>
      </trkpt>
      <trkpt lat="46.44777" lon="-1.63799">
        <ele>10.4</ele>
        <time>2020-06-03T10:43:22Z</time>
      </trkpt>
      <trkpt lat="46.44777" lon="-1.63805">
        <ele>10.4</ele>
        <time>2020-06-03T10:43:23Z</time>
      </trkpt>
      <trkpt lat="46.44776" lon="-1.63811">
        <ele>10.4</ele>
        <time>2020-06-03T10:43:24Z</time>
      </trkpt>
      <trkpt lat="46.44775" lon="-1.63816">
        <ele>10.5</ele>
        <time>2020-06-03T10:43:25Z</time>
      </trkpt>
      <trkpt lat="46.44774" lon="-1.63821">
        <ele>10.5</ele>
        <time>2020-06-03T10:43:26Z</time>
      </trkpt>
      <trkpt lat="46.44772" lon="-1.63827">
        <ele>10.5</ele>
        <time>2020-06-03T10:43:27Z</time>
      </trkpt>
      <trkpt lat="46.44771" lon="-1.63832">
        <ele>10.5</ele>
        <time>2020-06-03T10:43:28Z</time>
      </trkpt>
      <trkpt lat="46.4477" lon="-1.63838">
        <ele>10.5</ele>
        <time>2020-06-03T10:43:29Z</time>
      </trkpt>
      <trkpt lat="46.44769" lon="-1.63845">
        <ele>10.5</ele>
        <time>2020-06-03T10:43:30Z</time>
      </trkpt>
      <trkpt lat="46.44767" lon="-1.63852">
        <ele>10.5</ele>
        <time>2020-06-03T10:43:31Z</time>
      </trkpt>
      <trkpt lat="46.44766" lon="-1.63859">
        <ele>10.6</ele>
        <time>2020-06-03T10:43:32Z</time>
      </trkpt>
      <trkpt lat="46.44764" lon="-1.63865">
        <ele>10.6</ele>
        <time>2020-06-03T10:43:33Z</time>
      </trkpt>
      <trkpt lat="46.44762" lon="-1.63871">
        <ele>10.6</ele>
        <time>2020-06-03T10:43:34Z</time>
      </trkpt>
      <trkpt lat="46.44761" lon="-1.63877">
        <ele>10.6</ele>
        <time>2020-06-03T10:43:35Z</time>
      </trkpt>
      <trkpt lat="46.4476" lon="-1.63884">
        <ele>10.6</ele>
        <time>2020-06-03T10:43:36Z</time>
      </trkpt>
      <trkpt lat="46.44759" lon="-1.63891">
        <ele>10.6</ele>
        <time>2020-06-03T10:43:37Z</time>
      </trkpt>
      <trkpt lat="46.44757" lon="-1.63897">
        <ele>10.6</ele>
        <time>2020-06-03T10:43:38Z</time>
      </trkpt>
      <trkpt lat="46.44756" lon="-1.63903">
        <ele>10.6</ele>
        <time>2020-06-03T10:43:39Z</time>
      </trkpt>
      <trkpt lat="46.44755" lon="-1.63909">
        <ele>10.6</ele>
        <time>2020-06-03T10:43:40Z</time>
      </trkpt>
      <trkpt lat="46.44753" lon="-1.63916">
        <ele>10.6</ele>
        <time>2020-06-03T10:43:41Z</time>
      </trkpt>
      <trkpt lat="46.44751" lon="-1.63922">
        <ele>10.6</ele>
        <time>2020-06-03T10:43:42Z</time>
      </trkpt>
      <trkpt lat="46.4475" lon="-1.6393">
        <ele>10.7</ele>
        <time>2020-06-03T10:43:43Z</time>
      </trkpt>
      <trkpt lat="46.44748" lon="-1.63937">
        <ele>10.7</ele>
        <time>2020-06-03T10:43:44Z</time>
      </trkpt>
      <trkpt lat="46.44746" lon="-1.63943">
        <ele>10.7</ele>
        <time>2020-06-03T10:43:45Z</time>
      </trkpt>
      <trkpt lat="46.44745" lon="-1.6395">
        <ele>10.7</ele>
        <time>2020-06-03T10:43:46Z</time>
      </trkpt>
      <trkpt lat="46.44743" lon="-1.63956">
        <ele>10.7</ele>
        <time>2020-06-03T10:43:47Z</time>
      </trkpt>
      <trkpt lat="46.44742" lon="-1.63963">
        <ele>10.7</ele>
        <time>2020-06-03T10:43:48Z</time>
      </trkpt>
      <trkpt lat="46.4474" lon="-1.63971">
        <ele>10.7</ele>
        <time>2020-06-03T10:43:49Z</time>
      </trkpt>
      <trkpt lat="46.44739" lon="-1.63978">
        <ele>10.8</ele>
        <time>2020-06-03T10:43:50Z</time>
      </trkpt>
      <trkpt lat="46.44737" lon="-1.63985">
        <ele>10.8</ele>
        <time>2020-06-03T10:43:51Z</time>
      </trkpt>
      <trkpt lat="46.44735" lon="-1.63992">
        <ele>10.8</ele>
        <time>2020-06-03T10:43:52Z</time>
      </trkpt>
      <trkpt lat="46.44733" lon="-1.63998">
        <ele>10.8</ele>
        <time>2020-06-03T10:43:53Z</time>
      </trkpt>
      <trkpt lat="46.44732" lon="-1.64005">
        <ele>10.8</ele>
        <time>2020-06-03T10:43:54Z</time>
      </trkpt>
      <trkpt lat="46.44731" lon="-1.64011">
        <ele>10.8</ele>
        <time>2020-06-03T10:43:55Z</time>
      </trkpt>
      <trkpt lat="46.4473" lon="-1.64018">
        <ele>10.8</ele>
        <time>2020-06-03T10:43:56Z</time>
      </trkpt>
      <trkpt lat="46.44729" lon="-1.64026">
        <ele>10.8</ele>
        <time>2020-06-03T10:43:57Z</time>
      </trkpt>
      <trkpt lat="46.44727" lon="-1.64033">
        <ele>10.8</ele>
        <time>2020-06-03T10:43:58Z</time>
      </trkpt>
      <trkpt lat="46.44726" lon="-1.6404">
        <ele>10.8</ele>
        <time>2020-06-03T10:43:59Z</time>
      </trkpt>
      <trkpt lat="46.44724" lon="-1.64048">
        <ele>10.8</ele>
        <time>2020-06-03T10:44:00Z</time>
      </trkpt>
      <trkpt lat="46.44722" lon="-1.64056">
        <ele>10.8</ele>
        <time>2020-06-03T10:44:01Z</time>
      </trkpt>
      <trkpt lat="46.4472" lon="-1.64063">
        <ele>10.8</ele>
        <time>2020-06-03T10:44:02Z</time>
      </trkpt>
      <trkpt lat="46.44718" lon="-1.64071">
        <ele>10.8</ele>
        <time>2020-06-03T10:44:03Z</time>
      </trkpt>
      <trkpt lat="46.44717" lon="-1.64078">
        <ele>10.8</ele>
        <time>2020-06-03T10:44:04Z</time>
      </trkpt>
      <trkpt lat="46.44715" lon="-1.64085">
        <ele>10.8</ele>
        <time>2020-06-03T10:44:05Z</time>
      </trkpt>
      <trkpt lat="46.44714" lon="-1.64092">
        <ele>10.8</ele>
        <time>2020-06-03T10:44:06Z</time>
      </trkpt>
      <trkpt lat="46.44712" lon="-1.64098">
        <ele>10.8</ele>
        <time>2020-06-03T10:44:07Z</time>
      </trkpt>
      <trkpt lat="46.44711" lon="-1.64105">
        <ele>10.8</ele>
        <time>2020-06-03T10:44:08Z</time>
      </trkpt>
      <trkpt lat="46.4471" lon="-1.64111">
        <ele>10.8</ele>
        <time>2020-06-03T10:44:09Z</time>
      </trkpt>
      <trkpt lat="46.44708" lon="-1.64119">
        <ele>10.8</ele>
        <time>2020-06-03T10:44:10Z</time>
      </trkpt>
      <trkpt lat="46.44707" lon="-1.64125">
        <ele>10.8</ele>
        <time>2020-06-03T10:44:11Z</time>
      </trkpt>
      <trkpt lat="46.44705" lon="-1.64131">
        <ele>10.8</ele>
        <time>2020-06-03T10:44:12Z</time>
      </trkpt>
      <trkpt lat="46.44704" lon="-1.64138">
        <ele>10.9</ele>
        <time>2020-06-03T10:44:13Z</time>
      </trkpt>
      <trkpt lat="46.44703" lon="-1.64144">
        <ele>10.9</ele>
        <time>2020-06-03T10:44:14Z</time>
      </trkpt>
      <trkpt lat="46.44701" lon="-1.64151">
        <ele>10.9</ele>
        <time>2020-06-03T10:44:15Z</time>
      </trkpt>
      <trkpt lat="46.447" lon="-1.64158">
        <ele>10.9</ele>
        <time>2020-06-03T10:44:16Z</time>
      </trkpt>
      <trkpt lat="46.44699" lon="-1.64163">
        <ele>10.9</ele>
        <time>2020-06-03T10:44:17Z</time>
      </trkpt>
      <trkpt lat="46.44696" lon="-1.64169">
        <ele>10.9</ele>
        <time>2020-06-03T10:44:18Z</time>
      </trkpt>
      <trkpt lat="46.44693" lon="-1.64173">
        <ele>10.9</ele>
        <time>2020-06-03T10:44:19Z</time>
      </trkpt>
      <trkpt lat="46.44688" lon="-1.64174">
        <ele>10.9</ele>
        <time>2020-06-03T10:44:20Z</time>
      </trkpt>
      <trkpt lat="46.44683" lon="-1.64175">
        <ele>10.9</ele>
        <time>2020-06-03T10:44:21Z</time>
      </trkpt>
      <trkpt lat="46.4468" lon="-1.64176">
        <ele>10.9</ele>
        <time>2020-06-03T10:44:22Z</time>
      </trkpt>
      <trkpt lat="46.44676" lon="-1.64177">
        <ele>10.9</ele>
        <time>2020-06-03T10:44:23Z</time>
      </trkpt>
      <trkpt lat="46.44673" lon="-1.64181">
        <ele>10.9</ele>
        <time>2020-06-03T10:44:24Z</time>
      </trkpt>
      <trkpt lat="46.44673" lon="-1.64186">
        <ele>10.9</ele>
        <time>2020-06-03T10:44:25Z</time>
      </trkpt>
      <trkpt lat="46.44673" lon="-1.64188">
        <ele>10.9</ele>
        <time>2020-06-03T10:44:26Z</time>
      </trkpt>
      <trkpt lat="46.44673" lon="-1.64193">
        <ele>10.9</ele>
        <time>2020-06-03T10:44:27Z</time>
      </trkpt>
      <trkpt lat="46.44673" lon="-1.64198">
        <ele>10.9</ele>
        <time>2020-06-03T10:44:28Z</time>
      </trkpt>
      <trkpt lat="46.44673" lon="-1.64203">
        <ele>10.9</ele>
        <time>2020-06-03T10:44:29Z</time>
      </trkpt>
      <trkpt lat="46.44673" lon="-1.64209">
        <ele>10.8</ele>
        <time>2020-06-03T10:44:30Z</time>
      </trkpt>
      <trkpt lat="46.44673" lon="-1.64214">
        <ele>10.8</ele>
        <time>2020-06-03T10:44:31Z</time>
      </trkpt>
      <trkpt lat="46.44673" lon="-1.6422">
        <ele>10.8</ele>
        <time>2020-06-03T10:44:32Z</time>
      </trkpt>
      <trkpt lat="46.44673" lon="-1.64226">
        <ele>10.7</ele>
        <time>2020-06-03T10:44:33Z</time>
      </trkpt>
      <trkpt lat="46.44673" lon="-1.64233">
        <ele>10.7</ele>
        <time>2020-06-03T10:44:34Z</time>
      </trkpt>
      <trkpt lat="46.44672" lon="-1.64239">
        <ele>10.6</ele>
        <time>2020-06-03T10:44:35Z</time>
      </trkpt>
      <trkpt lat="46.44672" lon="-1.64245">
        <ele>10.5</ele>
        <time>2020-06-03T10:44:36Z</time>
      </trkpt>
      <trkpt lat="46.44673" lon="-1.64251">
        <ele>10.5</ele>
        <time>2020-06-03T10:44:37Z</time>
      </trkpt>
      <trkpt lat="46.44673" lon="-1.64256">
        <ele>10.4</ele>
        <time>2020-06-03T10:44:38Z</time>
      </trkpt>
      <trkpt lat="46.44674" lon="-1.64262">
        <ele>10.4</ele>
        <time>2020-06-03T10:44:39Z</time>
      </trkpt>
      <trkpt lat="46.44674" lon="-1.64268">
        <ele>10.3</ele>
        <time>2020-06-03T10:44:40Z</time>
      </trkpt>
      <trkpt lat="46.44675" lon="-1.64273">
        <ele>10.3</ele>
        <time>2020-06-03T10:44:41Z</time>
      </trkpt>
      <trkpt lat="46.44675" lon="-1.64279">
        <ele>10.2</ele>
        <time>2020-06-03T10:44:42Z</time>
      </trkpt>
      <trkpt lat="46.44675" lon="-1.64284">
        <ele>10.1</ele>
        <time>2020-06-03T10:44:43Z</time>
      </trkpt>
      <trkpt lat="46.44675" lon="-1.6429">
        <ele>10</ele>
        <time>2020-06-03T10:44:44Z</time>
      </trkpt>
      <trkpt lat="46.44675" lon="-1.64296">
        <ele>9.9</ele>
        <time>2020-06-03T10:44:45Z</time>
      </trkpt>
      <trkpt lat="46.44676" lon="-1.64302">
        <ele>9.8</ele>
        <time>2020-06-03T10:44:46Z</time>
      </trkpt>
      <trkpt lat="46.44676" lon="-1.64308">
        <ele>9.7</ele>
        <time>2020-06-03T10:44:47Z</time>
      </trkpt>
      <trkpt lat="46.44677" lon="-1.64314">
        <ele>9.5</ele>
        <time>2020-06-03T10:44:48Z</time>
      </trkpt>
      <trkpt lat="46.44677" lon="-1.64321">
        <ele>9.3</ele>
        <time>2020-06-03T10:44:49Z</time>
      </trkpt>
      <trkpt lat="46.44677" lon="-1.64329">
        <ele>9</ele>
        <time>2020-06-03T10:44:50Z</time>
      </trkpt>
      <trkpt lat="46.44677" lon="-1.64337">
        <ele>8.8</ele>
        <time>2020-06-03T10:44:51Z</time>
      </trkpt>
      <trkpt lat="46.44677" lon="-1.64345">
        <ele>8.5</ele>
        <time>2020-06-03T10:44:52Z</time>
      </trkpt>
      <trkpt lat="46.44678" lon="-1.64352">
        <ele>8.3</ele>
        <time>2020-06-03T10:44:53Z</time>
      </trkpt>
      <trkpt lat="46.44678" lon="-1.64359">
        <ele>8</ele>
        <time>2020-06-03T10:44:54Z</time>
      </trkpt>
      <trkpt lat="46.44679" lon="-1.64366">
        <ele>7.8</ele>
        <time>2020-06-03T10:44:55Z</time>
      </trkpt>
      <trkpt lat="46.44679" lon="-1.64372">
        <ele>7.5</ele>
        <time>2020-06-03T10:44:56Z</time>
      </trkpt>
      <trkpt lat="46.44679" lon="-1.6438">
        <ele>7.2</ele>
        <time>2020-06-03T10:44:57Z</time>
      </trkpt>
      <trkpt lat="46.44679" lon="-1.64387">
        <ele>6.9</ele>
        <time>2020-06-03T10:44:58Z</time>
      </trkpt>
      <trkpt lat="46.44679" lon="-1.64394">
        <ele>6.6</ele>
        <time>2020-06-03T10:44:59Z</time>
      </trkpt>
      <trkpt lat="46.44679" lon="-1.64402">
        <ele>6.3</ele>
        <time>2020-06-03T10:45:00Z</time>
      </trkpt>
      <trkpt lat="46.44679" lon="-1.64408">
        <ele>6.1</ele>
        <time>2020-06-03T10:45:01Z</time>
      </trkpt>
      <trkpt lat="46.44679" lon="-1.64414">
        <ele>5.9</ele>
        <time>2020-06-03T10:45:02Z</time>
      </trkpt>
      <trkpt lat="46.44679" lon="-1.6442">
        <ele>5.6</ele>
        <time>2020-06-03T10:45:03Z</time>
      </trkpt>
      <trkpt lat="46.44679" lon="-1.64426">
        <ele>5.4</ele>
        <time>2020-06-03T10:45:04Z</time>
      </trkpt>
      <trkpt lat="46.4468" lon="-1.64431">
        <ele>5.3</ele>
        <time>2020-06-03T10:45:05Z</time>
      </trkpt>
      <trkpt lat="46.4468" lon="-1.64436">
        <ele>5.1</ele>
        <time>2020-06-03T10:45:06Z</time>
      </trkpt>
      <trkpt lat="46.4468" lon="-1.64441">
        <ele>4.9</ele>
        <time>2020-06-03T10:45:07Z</time>
      </trkpt>
      <trkpt lat="46.4468" lon="-1.64443">
        <ele>4.8</ele>
        <time>2020-06-03T10:45:08Z</time>
      </trkpt>
      <trkpt lat="46.44676" lon="-1.64445">
        <ele>4.6</ele>
        <time>2020-06-03T10:45:09Z</time>
      </trkpt>
      <trkpt lat="46.44674" lon="-1.64444">
        <ele>4.5</ele>
        <time>2020-06-03T10:45:10Z</time>
      </trkpt>
      <trkpt lat="46.4467" lon="-1.64444">
        <ele>4.3</ele>
        <time>2020-06-03T10:45:11Z</time>
      </trkpt>
      <trkpt lat="46.44666" lon="-1.64445">
        <ele>4.1</ele>
        <time>2020-06-03T10:45:12Z</time>
      </trkpt>
      <trkpt lat="46.44661" lon="-1.64446">
        <ele>4</ele>
        <time>2020-06-03T10:45:13Z</time>
      </trkpt>
      <trkpt lat="46.44657" lon="-1.64444">
        <ele>3.9</ele>
        <time>2020-06-03T10:45:14Z</time>
      </trkpt>
      <trkpt lat="46.44653" lon="-1.64442">
        <ele>3.7</ele>
        <time>2020-06-03T10:45:15Z</time>
      </trkpt>
      <trkpt lat="46.44649" lon="-1.64441">
        <ele>3.7</ele>
        <time>2020-06-03T10:45:16Z</time>
      </trkpt>
      <trkpt lat="46.44645" lon="-1.64441">
        <ele>3.6</ele>
        <time>2020-06-03T10:45:17Z</time>
      </trkpt>
      <trkpt lat="46.44641" lon="-1.6444">
        <ele>3.5</ele>
        <time>2020-06-03T10:45:18Z</time>
      </trkpt>
      <trkpt lat="46.44638" lon="-1.64438">
        <ele>3.5</ele>
        <time>2020-06-03T10:45:19Z</time>
      </trkpt>
      <trkpt lat="46.44635" lon="-1.64436">
        <ele>3.4</ele>
        <time>2020-06-03T10:45:20Z</time>
      </trkpt>
      <trkpt lat="46.44632" lon="-1.64434">
        <ele>3.4</ele>
        <time>2020-06-03T10:45:21Z</time>
      </trkpt>
      <trkpt lat="46.4463" lon="-1.64437">
        <ele>3.4</ele>
        <time>2020-06-03T10:45:22Z</time>
      </trkpt>
      <trkpt lat="46.44629" lon="-1.64438">
        <ele>3.4</ele>
        <time>2020-06-03T10:45:23Z</time>
      </trkpt>
      <trkpt lat="46.44628" lon="-1.64442">
        <ele>3.4</ele>
        <time>2020-06-03T10:45:24Z</time>
      </trkpt>
      <trkpt lat="46.44627" lon="-1.64447">
        <ele>3.3</ele>
        <time>2020-06-03T10:45:25Z</time>
      </trkpt>
      <trkpt lat="46.44625" lon="-1.64452">
        <ele>3.3</ele>
        <time>2020-06-03T10:45:26Z</time>
      </trkpt>
      <trkpt lat="46.44623" lon="-1.64456">
        <ele>3.3</ele>
        <time>2020-06-03T10:45:27Z</time>
      </trkpt>
      <trkpt lat="46.4462" lon="-1.64462">
        <ele>3.2</ele>
        <time>2020-06-03T10:45:28Z</time>
      </trkpt>
      <trkpt lat="46.44617" lon="-1.64467">
        <ele>3.2</ele>
        <time>2020-06-03T10:45:29Z</time>
      </trkpt>
      <trkpt lat="46.44615" lon="-1.64473">
        <ele>3.2</ele>
        <time>2020-06-03T10:45:30Z</time>
      </trkpt>
      <trkpt lat="46.44613" lon="-1.6448">
        <ele>3.1</ele>
        <time>2020-06-03T10:45:31Z</time>
      </trkpt>
      <trkpt lat="46.44611" lon="-1.64489">
        <ele>3.1</ele>
        <time>2020-06-03T10:45:32Z</time>
      </trkpt>
      <trkpt lat="46.4461" lon="-1.64497">
        <ele>3.1</ele>
        <time>2020-06-03T10:45:33Z</time>
      </trkpt>
      <trkpt lat="46.44608" lon="-1.64505">
        <ele>3.1</ele>
        <time>2020-06-03T10:45:34Z</time>
      </trkpt>
      <trkpt lat="46.44607" lon="-1.64513">
        <ele>3.1</ele>
        <time>2020-06-03T10:45:35Z</time>
      </trkpt>
      <trkpt lat="46.44606" lon="-1.6452">
        <ele>3.1</ele>
        <time>2020-06-03T10:45:36Z</time>
      </trkpt>
      <trkpt lat="46.44605" lon="-1.64527">
        <ele>3.1</ele>
        <time>2020-06-03T10:45:37Z</time>
      </trkpt>
      <trkpt lat="46.44604" lon="-1.64534">
        <ele>3.1</ele>
        <time>2020-06-03T10:45:38Z</time>
      </trkpt>
      <trkpt lat="46.44603" lon="-1.6454">
        <ele>3.2</ele>
        <time>2020-06-03T10:45:39Z</time>
      </trkpt>
      <trkpt lat="46.44602" lon="-1.64547">
        <ele>3.2</ele>
        <time>2020-06-03T10:45:40Z</time>
      </trkpt>
      <trkpt lat="46.44601" lon="-1.64554">
        <ele>3.2</ele>
        <time>2020-06-03T10:45:41Z</time>
      </trkpt>
      <trkpt lat="46.44601" lon="-1.64561">
        <ele>3.2</ele>
        <time>2020-06-03T10:45:42Z</time>
      </trkpt>
      <trkpt lat="46.446" lon="-1.64568">
        <ele>3.2</ele>
        <time>2020-06-03T10:45:43Z</time>
      </trkpt>
      <trkpt lat="46.44599" lon="-1.64575">
        <ele>3.2</ele>
        <time>2020-06-03T10:45:44Z</time>
      </trkpt>
      <trkpt lat="46.44598" lon="-1.64582">
        <ele>3.2</ele>
        <time>2020-06-03T10:45:45Z</time>
      </trkpt>
      <trkpt lat="46.44599" lon="-1.64589">
        <ele>3.2</ele>
        <time>2020-06-03T10:45:46Z</time>
      </trkpt>
      <trkpt lat="46.44597" lon="-1.64595">
        <ele>3.2</ele>
        <time>2020-06-03T10:45:47Z</time>
      </trkpt>
      <trkpt lat="46.44595" lon="-1.646">
        <ele>3.2</ele>
        <time>2020-06-03T10:45:48Z</time>
      </trkpt>
      <trkpt lat="46.44593" lon="-1.64605">
        <ele>3.2</ele>
        <time>2020-06-03T10:45:49Z</time>
      </trkpt>
      <trkpt lat="46.4459" lon="-1.64611">
        <ele>3.2</ele>
        <time>2020-06-03T10:45:50Z</time>
      </trkpt>
      <trkpt lat="46.44589" lon="-1.64615">
        <ele>3.2</ele>
        <time>2020-06-03T10:45:51Z</time>
      </trkpt>
      <trkpt lat="46.44588" lon="-1.64621">
        <ele>3.2</ele>
        <time>2020-06-03T10:45:52Z</time>
      </trkpt>
      <trkpt lat="46.44586" lon="-1.64626">
        <ele>3.2</ele>
        <time>2020-06-03T10:45:53Z</time>
      </trkpt>
      <trkpt lat="46.44586" lon="-1.64632">
        <ele>3.2</ele>
        <time>2020-06-03T10:45:54Z</time>
      </trkpt>
      <trkpt lat="46.44585" lon="-1.64639">
        <ele>3.2</ele>
        <time>2020-06-03T10:45:55Z</time>
      </trkpt>
      <trkpt lat="46.44585" lon="-1.64646">
        <ele>3.2</ele>
        <time>2020-06-03T10:45:56Z</time>
      </trkpt>
      <trkpt lat="46.44585" lon="-1.64652">
        <ele>3.2</ele>
        <time>2020-06-03T10:45:57Z</time>
      </trkpt>
      <trkpt lat="46.44585" lon="-1.64658">
        <ele>3.2</ele>
        <time>2020-06-03T10:45:58Z</time>
      </trkpt>
      <trkpt lat="46.44585" lon="-1.64665">
        <ele>3.2</ele>
        <time>2020-06-03T10:45:59Z</time>
      </trkpt>
      <trkpt lat="46.44586" lon="-1.6467">
        <ele>3.2</ele>
        <time>2020-06-03T10:46:00Z</time>
      </trkpt>
      <trkpt lat="46.44586" lon="-1.64676">
        <ele>3.2</ele>
        <time>2020-06-03T10:46:01Z</time>
      </trkpt>
      <trkpt lat="46.44587" lon="-1.64681">
        <ele>3.1</ele>
        <time>2020-06-03T10:46:02Z</time>
      </trkpt>
      <trkpt lat="46.44588" lon="-1.64686">
        <ele>3.1</ele>
        <time>2020-06-03T10:46:03Z</time>
      </trkpt>
      <trkpt lat="46.44588" lon="-1.64691">
        <ele>3.1</ele>
        <time>2020-06-03T10:46:04Z</time>
      </trkpt>
      <trkpt lat="46.4459" lon="-1.64695">
        <ele>3.1</ele>
        <time>2020-06-03T10:46:05Z</time>
      </trkpt>
      <trkpt lat="46.44591" lon="-1.647">
        <ele>3.1</ele>
        <time>2020-06-03T10:46:06Z</time>
      </trkpt>
      <trkpt lat="46.44592" lon="-1.64705">
        <ele>3.1</ele>
        <time>2020-06-03T10:46:07Z</time>
      </trkpt>
      <trkpt lat="46.44593" lon="-1.6471">
        <ele>3.1</ele>
        <time>2020-06-03T10:46:08Z</time>
      </trkpt>
      <trkpt lat="46.44596" lon="-1.64715">
        <ele>3.1</ele>
        <time>2020-06-03T10:46:09Z</time>
      </trkpt>
      <trkpt lat="46.44598" lon="-1.6472">
        <ele>3.1</ele>
        <time>2020-06-03T10:46:10Z</time>
      </trkpt>
      <trkpt lat="46.446" lon="-1.64725">
        <ele>3.1</ele>
        <time>2020-06-03T10:46:11Z</time>
      </trkpt>
      <trkpt lat="46.44602" lon="-1.64731">
        <ele>3.1</ele>
        <time>2020-06-03T10:46:12Z</time>
      </trkpt>
      <trkpt lat="46.44604" lon="-1.64736">
        <ele>3</ele>
        <time>2020-06-03T10:46:13Z</time>
      </trkpt>
      <trkpt lat="46.44607" lon="-1.6474">
        <ele>3</ele>
        <time>2020-06-03T10:46:14Z</time>
      </trkpt>
      <trkpt lat="46.4461" lon="-1.64744">
        <ele>3</ele>
        <time>2020-06-03T10:46:15Z</time>
      </trkpt>
      <trkpt lat="46.44613" lon="-1.64748">
        <ele>3</ele>
        <time>2020-06-03T10:46:16Z</time>
      </trkpt>
      <trkpt lat="46.44615" lon="-1.64753">
        <ele>3</ele>
        <time>2020-06-03T10:46:17Z</time>
      </trkpt>
      <trkpt lat="46.44617" lon="-1.64757">
        <ele>3</ele>
        <time>2020-06-03T10:46:18Z</time>
      </trkpt>
      <trkpt lat="46.4462" lon="-1.64761">
        <ele>3</ele>
        <time>2020-06-03T10:46:19Z</time>
      </trkpt>
      <trkpt lat="46.44622" lon="-1.64765">
        <ele>3</ele>
        <time>2020-06-03T10:46:20Z</time>
      </trkpt>
      <trkpt lat="46.44625" lon="-1.6477">
        <ele>2.9</ele>
        <time>2020-06-03T10:46:21Z</time>
      </trkpt>
      <trkpt lat="46.44627" lon="-1.64774">
        <ele>2.9</ele>
        <time>2020-06-03T10:46:22Z</time>
      </trkpt>
      <trkpt lat="46.4463" lon="-1.64777">
        <ele>2.9</ele>
        <time>2020-06-03T10:46:23Z</time>
      </trkpt>
      <trkpt lat="46.44632" lon="-1.6478">
        <ele>2.9</ele>
        <time>2020-06-03T10:46:24Z</time>
      </trkpt>
      <trkpt lat="46.44634" lon="-1.64784">
        <ele>2.9</ele>
        <time>2020-06-03T10:46:25Z</time>
      </trkpt>
      <trkpt lat="46.44636" lon="-1.64787">
        <ele>2.8</ele>
        <time>2020-06-03T10:46:26Z</time>
      </trkpt>
      <trkpt lat="46.44639" lon="-1.64792">
        <ele>2.8</ele>
        <time>2020-06-03T10:46:27Z</time>
      </trkpt>
      <trkpt lat="46.44642" lon="-1.64798">
        <ele>2.8</ele>
        <time>2020-06-03T10:46:28Z</time>
      </trkpt>
      <trkpt lat="46.44645" lon="-1.64805">
        <ele>2.8</ele>
        <time>2020-06-03T10:46:29Z</time>
      </trkpt>
      <trkpt lat="46.44648" lon="-1.64811">
        <ele>2.8</ele>
        <time>2020-06-03T10:46:30Z</time>
      </trkpt>
      <trkpt lat="46.44652" lon="-1.64816">
        <ele>2.8</ele>
        <time>2020-06-03T10:46:31Z</time>
      </trkpt>
      <trkpt lat="46.44656" lon="-1.64819">
        <ele>2.8</ele>
        <time>2020-06-03T10:46:32Z</time>
      </trkpt>
      <trkpt lat="46.44661" lon="-1.6482">
        <ele>2.8</ele>
        <time>2020-06-03T10:46:33Z</time>
      </trkpt>
      <trkpt lat="46.44664" lon="-1.64823">
        <ele>2.8</ele>
        <time>2020-06-03T10:46:34Z</time>
      </trkpt>
      <trkpt lat="46.44668" lon="-1.64824">
        <ele>2.8</ele>
        <time>2020-06-03T10:46:35Z</time>
      </trkpt>
      <trkpt lat="46.44672" lon="-1.64827">
        <ele>2.8</ele>
        <time>2020-06-03T10:46:36Z</time>
      </trkpt>
      <trkpt lat="46.44673" lon="-1.64832">
        <ele>2.8</ele>
        <time>2020-06-03T10:46:37Z</time>
      </trkpt>
      <trkpt lat="46.44673" lon="-1.64834">
        <ele>2.8</ele>
        <time>2020-06-03T10:46:38Z</time>
      </trkpt>
      <trkpt lat="46.44672" lon="-1.6484">
        <ele>2.8</ele>
        <time>2020-06-03T10:46:39Z</time>
      </trkpt>
      <trkpt lat="46.4467" lon="-1.64844">
        <ele>2.8</ele>
        <time>2020-06-03T10:46:40Z</time>
      </trkpt>
      <trkpt lat="46.44667" lon="-1.64848">
        <ele>2.8</ele>
        <time>2020-06-03T10:46:41Z</time>
      </trkpt>
      <trkpt lat="46.44666" lon="-1.64849">
        <ele>2.8</ele>
        <time>2020-06-03T10:46:42Z</time>
      </trkpt>
      <trkpt lat="46.44663" lon="-1.64852">
        <ele>2.9</ele>
        <time>2020-06-03T10:46:43Z</time>
      </trkpt>
      <trkpt lat="46.44662" lon="-1.64852">
        <ele>2.9</ele>
        <time>2020-06-03T10:46:44Z</time>
      </trkpt>
      <trkpt lat="46.44659" lon="-1.64853">
        <ele>2.9</ele>
        <time>2020-06-03T10:46:45Z</time>
      </trkpt>
      <trkpt lat="46.44656" lon="-1.64854">
        <ele>2.9</ele>
        <time>2020-06-03T10:46:46Z</time>
      </trkpt>
      <trkpt lat="46.44652" lon="-1.64856">
        <ele>2.9</ele>
        <time>2020-06-03T10:46:47Z</time>
      </trkpt>
      <trkpt lat="46.44651" lon="-1.64856">
        <ele>3</ele>
        <time>2020-06-03T10:46:48Z</time>
      </trkpt>
      <trkpt lat="46.44648" lon="-1.64856">
        <ele>3</ele>
        <time>2020-06-03T10:46:49Z</time>
      </trkpt>
      <trkpt lat="46.44646" lon="-1.64857">
        <ele>3</ele>
        <time>2020-06-03T10:46:50Z</time>
      </trkpt>
      <trkpt lat="46.44643" lon="-1.64857">
        <ele>3</ele>
        <time>2020-06-03T10:46:51Z</time>
      </trkpt>
      <trkpt lat="46.44642" lon="-1.64857">
        <ele>3</ele>
        <time>2020-06-03T10:46:52Z</time>
      </trkpt>
      <trkpt lat="46.44638" lon="-1.64858">
        <ele>3</ele>
        <time>2020-06-03T10:46:53Z</time>
      </trkpt>
      <trkpt lat="46.44636" lon="-1.64858">
        <ele>3</ele>
        <time>2020-06-03T10:46:54Z</time>
      </trkpt>
      <trkpt lat="46.44633" lon="-1.64859">
        <ele>3</ele>
        <time>2020-06-03T10:46:55Z</time>
      </trkpt>
      <trkpt lat="46.4463" lon="-1.64859">
        <ele>3</ele>
        <time>2020-06-03T10:46:56Z</time>
      </trkpt>
      <trkpt lat="46.44626" lon="-1.64857">
        <ele>3</ele>
        <time>2020-06-03T10:46:57Z</time>
      </trkpt>
      <trkpt lat="46.44622" lon="-1.64857">
        <ele>3</ele>
        <time>2020-06-03T10:46:58Z</time>
      </trkpt>
      <trkpt lat="46.44618" lon="-1.64857">
        <ele>2.9</ele>
        <time>2020-06-03T10:46:59Z</time>
      </trkpt>
      <trkpt lat="46.44614" lon="-1.64856">
        <ele>2.9</ele>
        <time>2020-06-03T10:47:00Z</time>
      </trkpt>
      <trkpt lat="46.4461" lon="-1.64856">
        <ele>2.9</ele>
        <time>2020-06-03T10:47:01Z</time>
      </trkpt>
      <trkpt lat="46.44605" lon="-1.64855">
        <ele>2.8</ele>
        <time>2020-06-03T10:47:02Z</time>
      </trkpt>
      <trkpt lat="46.446" lon="-1.64855">
        <ele>2.8</ele>
        <time>2020-06-03T10:47:03Z</time>
      </trkpt>
      <trkpt lat="46.44596" lon="-1.64855">
        <ele>2.8</ele>
        <time>2020-06-03T10:47:04Z</time>
      </trkpt>
      <trkpt lat="46.44592" lon="-1.64854">
        <ele>2.8</ele>
        <time>2020-06-03T10:47:05Z</time>
      </trkpt>
      <trkpt lat="46.44587" lon="-1.64854">
        <ele>2.7</ele>
        <time>2020-06-03T10:47:06Z</time>
      </trkpt>
      <trkpt lat="46.44582" lon="-1.64855">
        <ele>2.7</ele>
        <time>2020-06-03T10:47:07Z</time>
      </trkpt>
      <trkpt lat="46.44577" lon="-1.64856">
        <ele>2.7</ele>
        <time>2020-06-03T10:47:08Z</time>
      </trkpt>
      <trkpt lat="46.44573" lon="-1.64857">
        <ele>2.7</ele>
        <time>2020-06-03T10:47:09Z</time>
      </trkpt>
      <trkpt lat="46.44569" lon="-1.64858">
        <ele>2.7</ele>
        <time>2020-06-03T10:47:10Z</time>
      </trkpt>
      <trkpt lat="46.44564" lon="-1.6486">
        <ele>2.7</ele>
        <time>2020-06-03T10:47:11Z</time>
      </trkpt>
      <trkpt lat="46.44559" lon="-1.64861">
        <ele>2.7</ele>
        <time>2020-06-03T10:47:12Z</time>
      </trkpt>
      <trkpt lat="46.44554" lon="-1.64861">
        <ele>2.7</ele>
        <time>2020-06-03T10:47:13Z</time>
      </trkpt>
      <trkpt lat="46.44549" lon="-1.64861">
        <ele>2.7</ele>
        <time>2020-06-03T10:47:14Z</time>
      </trkpt>
      <trkpt lat="46.44544" lon="-1.64861">
        <ele>2.8</ele>
        <time>2020-06-03T10:47:15Z</time>
      </trkpt>
      <trkpt lat="46.4454" lon="-1.64862">
        <ele>2.8</ele>
        <time>2020-06-03T10:47:16Z</time>
      </trkpt>
      <trkpt lat="46.44536" lon="-1.64862">
        <ele>2.9</ele>
        <time>2020-06-03T10:47:17Z</time>
      </trkpt>
      <trkpt lat="46.44532" lon="-1.64863">
        <ele>2.9</ele>
        <time>2020-06-03T10:47:18Z</time>
      </trkpt>
      <trkpt lat="46.44527" lon="-1.64863">
        <ele>2.9</ele>
        <time>2020-06-03T10:47:19Z</time>
      </trkpt>
      <trkpt lat="46.44524" lon="-1.64863">
        <ele>2.9</ele>
        <time>2020-06-03T10:47:20Z</time>
      </trkpt>
      <trkpt lat="46.4452" lon="-1.64864">
        <ele>3</ele>
        <time>2020-06-03T10:47:21Z</time>
      </trkpt>
      <trkpt lat="46.44515" lon="-1.64865">
        <ele>3</ele>
        <time>2020-06-03T10:47:22Z</time>
      </trkpt>
      <trkpt lat="46.44511" lon="-1.64865">
        <ele>3</ele>
        <time>2020-06-03T10:47:23Z</time>
      </trkpt>
      <trkpt lat="46.44507" lon="-1.64865">
        <ele>3.1</ele>
        <time>2020-06-03T10:47:24Z</time>
      </trkpt>
      <trkpt lat="46.44503" lon="-1.64865">
        <ele>3.1</ele>
        <time>2020-06-03T10:47:25Z</time>
      </trkpt>
      <trkpt lat="46.44499" lon="-1.64865">
        <ele>3.1</ele>
        <time>2020-06-03T10:47:26Z</time>
      </trkpt>
      <trkpt lat="46.44496" lon="-1.64865">
        <ele>3.1</ele>
        <time>2020-06-03T10:47:27Z</time>
      </trkpt>
      <trkpt lat="46.44492" lon="-1.64864">
        <ele>3.1</ele>
        <time>2020-06-03T10:47:28Z</time>
      </trkpt>
      <trkpt lat="46.44488" lon="-1.64862">
        <ele>3.1</ele>
        <time>2020-06-03T10:47:29Z</time>
      </trkpt>
      <trkpt lat="46.44484" lon="-1.6486">
        <ele>3.1</ele>
        <time>2020-06-03T10:47:30Z</time>
      </trkpt>
      <trkpt lat="46.4448" lon="-1.64856">
        <ele>3.1</ele>
        <time>2020-06-03T10:47:31Z</time>
      </trkpt>
      <trkpt lat="46.44476" lon="-1.64855">
        <ele>3.1</ele>
        <time>2020-06-03T10:47:32Z</time>
      </trkpt>
      <trkpt lat="46.44471" lon="-1.64853">
        <ele>3.1</ele>
        <time>2020-06-03T10:47:33Z</time>
      </trkpt>
      <trkpt lat="46.44466" lon="-1.64852">
        <ele>3.1</ele>
        <time>2020-06-03T10:47:34Z</time>
      </trkpt>
      <trkpt lat="46.44462" lon="-1.6485">
        <ele>3.1</ele>
        <time>2020-06-03T10:47:35Z</time>
      </trkpt>
      <trkpt lat="46.44457" lon="-1.64847">
        <ele>3.2</ele>
        <time>2020-06-03T10:47:36Z</time>
      </trkpt>
      <trkpt lat="46.44453" lon="-1.64845">
        <ele>3.2</ele>
        <time>2020-06-03T10:47:37Z</time>
      </trkpt>
      <trkpt lat="46.44448" lon="-1.64843">
        <ele>3.2</ele>
        <time>2020-06-03T10:47:38Z</time>
      </trkpt>
      <trkpt lat="46.44444" lon="-1.64841">
        <ele>3.2</ele>
        <time>2020-06-03T10:47:39Z</time>
      </trkpt>
      <trkpt lat="46.44439" lon="-1.64839">
        <ele>3.2</ele>
        <time>2020-06-03T10:47:40Z</time>
      </trkpt>
      <trkpt lat="46.44435" lon="-1.64837">
        <ele>3.1</ele>
        <time>2020-06-03T10:47:41Z</time>
      </trkpt>
      <trkpt lat="46.4443" lon="-1.64836">
        <ele>3.1</ele>
        <time>2020-06-03T10:47:42Z</time>
      </trkpt>
      <trkpt lat="46.44425" lon="-1.64834">
        <ele>3.1</ele>
        <time>2020-06-03T10:47:43Z</time>
      </trkpt>
      <trkpt lat="46.4442" lon="-1.64832">
        <ele>3.1</ele>
        <time>2020-06-03T10:47:44Z</time>
      </trkpt>
      <trkpt lat="46.44416" lon="-1.6483">
        <ele>3</ele>
        <time>2020-06-03T10:47:45Z</time>
      </trkpt>
      <trkpt lat="46.44411" lon="-1.64828">
        <ele>3</ele>
        <time>2020-06-03T10:47:46Z</time>
      </trkpt>
      <trkpt lat="46.44406" lon="-1.64826">
        <ele>3</ele>
        <time>2020-06-03T10:47:47Z</time>
      </trkpt>
      <trkpt lat="46.44402" lon="-1.64825">
        <ele>2.9</ele>
        <time>2020-06-03T10:47:48Z</time>
      </trkpt>
      <trkpt lat="46.44398" lon="-1.64824">
        <ele>2.9</ele>
        <time>2020-06-03T10:47:49Z</time>
      </trkpt>
      <trkpt lat="46.44393" lon="-1.64823">
        <ele>2.9</ele>
        <time>2020-06-03T10:47:50Z</time>
      </trkpt>
      <trkpt lat="46.44389" lon="-1.64822">
        <ele>2.8</ele>
        <time>2020-06-03T10:47:51Z</time>
      </trkpt>
      <trkpt lat="46.44384" lon="-1.64821">
        <ele>2.8</ele>
        <time>2020-06-03T10:47:52Z</time>
      </trkpt>
      <trkpt lat="46.4438" lon="-1.6482">
        <ele>2.8</ele>
        <time>2020-06-03T10:47:53Z</time>
      </trkpt>
      <trkpt lat="46.44375" lon="-1.64819">
        <ele>2.7</ele>
        <time>2020-06-03T10:47:54Z</time>
      </trkpt>
      <trkpt lat="46.4437" lon="-1.64818">
        <ele>2.7</ele>
        <time>2020-06-03T10:47:55Z</time>
      </trkpt>
      <trkpt lat="46.44364" lon="-1.64816">
        <ele>2.7</ele>
        <time>2020-06-03T10:47:56Z</time>
      </trkpt>
      <trkpt lat="46.44358" lon="-1.64814">
        <ele>2.7</ele>
        <time>2020-06-03T10:47:57Z</time>
      </trkpt>
      <trkpt lat="46.44353" lon="-1.64813">
        <ele>2.6</ele>
        <time>2020-06-03T10:47:58Z</time>
      </trkpt>
      <trkpt lat="46.44348" lon="-1.64811">
        <ele>2.6</ele>
        <time>2020-06-03T10:47:59Z</time>
      </trkpt>
      <trkpt lat="46.44344" lon="-1.6481">
        <ele>2.6</ele>
        <time>2020-06-03T10:48:00Z</time>
      </trkpt>
      <trkpt lat="46.44339" lon="-1.64809">
        <ele>2.6</ele>
        <time>2020-06-03T10:48:01Z</time>
      </trkpt>
      <trkpt lat="46.44335" lon="-1.64807">
        <ele>2.6</ele>
        <time>2020-06-03T10:48:02Z</time>
      </trkpt>
      <trkpt lat="46.4433" lon="-1.64807">
        <ele>2.6</ele>
        <time>2020-06-03T10:48:03Z</time>
      </trkpt>
      <trkpt lat="46.44325" lon="-1.64806">
        <ele>2.6</ele>
        <time>2020-06-03T10:48:04Z</time>
      </trkpt>
      <trkpt lat="46.4432" lon="-1.64805">
        <ele>2.6</ele>
        <time>2020-06-03T10:48:05Z</time>
      </trkpt>
      <trkpt lat="46.44315" lon="-1.64805">
        <ele>2.6</ele>
        <time>2020-06-03T10:48:06Z</time>
      </trkpt>
      <trkpt lat="46.44312" lon="-1.64809">
        <ele>2.6</ele>
        <time>2020-06-03T10:48:07Z</time>
      </trkpt>
      <trkpt lat="46.4431" lon="-1.64814">
        <ele>2.6</ele>
        <time>2020-06-03T10:48:08Z</time>
      </trkpt>
      <trkpt lat="46.44309" lon="-1.6482">
        <ele>2.6</ele>
        <time>2020-06-03T10:48:09Z</time>
      </trkpt>
      <trkpt lat="46.44309" lon="-1.64826">
        <ele>2.6</ele>
        <time>2020-06-03T10:48:10Z</time>
      </trkpt>
      <trkpt lat="46.44309" lon="-1.64832">
        <ele>2.6</ele>
        <time>2020-06-03T10:48:11Z</time>
      </trkpt>
      <trkpt lat="46.44309" lon="-1.6484">
        <ele>2.7</ele>
        <time>2020-06-03T10:48:12Z</time>
      </trkpt>
      <trkpt lat="46.44309" lon="-1.64847">
        <ele>2.7</ele>
        <time>2020-06-03T10:48:13Z</time>
      </trkpt>
      <trkpt lat="46.44309" lon="-1.64855">
        <ele>2.7</ele>
        <time>2020-06-03T10:48:14Z</time>
      </trkpt>
      <trkpt lat="46.44309" lon="-1.64862">
        <ele>2.7</ele>
        <time>2020-06-03T10:48:15Z</time>
      </trkpt>
      <trkpt lat="46.4431" lon="-1.64869">
        <ele>2.7</ele>
        <time>2020-06-03T10:48:16Z</time>
      </trkpt>
      <trkpt lat="46.4431" lon="-1.64875">
        <ele>2.7</ele>
        <time>2020-06-03T10:48:17Z</time>
      </trkpt>
      <trkpt lat="46.44311" lon="-1.64883">
        <ele>2.7</ele>
        <time>2020-06-03T10:48:18Z</time>
      </trkpt>
      <trkpt lat="46.44308" lon="-1.64888">
        <ele>2.7</ele>
        <time>2020-06-03T10:48:19Z</time>
      </trkpt>
      <trkpt lat="46.44307" lon="-1.64894">
        <ele>2.8</ele>
        <time>2020-06-03T10:48:20Z</time>
      </trkpt>
      <trkpt lat="46.44306" lon="-1.64901">
        <ele>2.8</ele>
        <time>2020-06-03T10:48:21Z</time>
      </trkpt>
      <trkpt lat="46.44305" lon="-1.64907">
        <ele>2.8</ele>
        <time>2020-06-03T10:48:22Z</time>
      </trkpt>
      <trkpt lat="46.44303" lon="-1.64913">
        <ele>2.8</ele>
        <time>2020-06-03T10:48:23Z</time>
      </trkpt>
      <trkpt lat="46.44302" lon="-1.6492">
        <ele>2.8</ele>
        <time>2020-06-03T10:48:24Z</time>
      </trkpt>
      <trkpt lat="46.44301" lon="-1.64927">
        <ele>2.8</ele>
        <time>2020-06-03T10:48:25Z</time>
      </trkpt>
      <trkpt lat="46.44299" lon="-1.64935">
        <ele>2.8</ele>
        <time>2020-06-03T10:48:26Z</time>
      </trkpt>
      <trkpt lat="46.44297" lon="-1.64942">
        <ele>2.8</ele>
        <time>2020-06-03T10:48:27Z</time>
      </trkpt>
      <trkpt lat="46.44294" lon="-1.64948">
        <ele>2.8</ele>
        <time>2020-06-03T10:48:28Z</time>
      </trkpt>
      <trkpt lat="46.44292" lon="-1.64955">
        <ele>2.8</ele>
        <time>2020-06-03T10:48:29Z</time>
      </trkpt>
      <trkpt lat="46.4429" lon="-1.64962">
        <ele>2.8</ele>
        <time>2020-06-03T10:48:30Z</time>
      </trkpt>
      <trkpt lat="46.44287" lon="-1.64969">
        <ele>2.8</ele>
        <time>2020-06-03T10:48:31Z</time>
      </trkpt>
      <trkpt lat="46.44284" lon="-1.64977">
        <ele>2.8</ele>
        <time>2020-06-03T10:48:32Z</time>
      </trkpt>
      <trkpt lat="46.44281" lon="-1.64983">
        <ele>2.8</ele>
        <time>2020-06-03T10:48:33Z</time>
      </trkpt>
      <trkpt lat="46.44278" lon="-1.6499">
        <ele>2.8</ele>
        <time>2020-06-03T10:48:34Z</time>
      </trkpt>
      <trkpt lat="46.44276" lon="-1.64997">
        <ele>2.8</ele>
        <time>2020-06-03T10:48:35Z</time>
      </trkpt>
      <trkpt lat="46.44273" lon="-1.65003">
        <ele>2.8</ele>
        <time>2020-06-03T10:48:36Z</time>
      </trkpt>
      <trkpt lat="46.4427" lon="-1.6501">
        <ele>2.8</ele>
        <time>2020-06-03T10:48:37Z</time>
      </trkpt>
      <trkpt lat="46.44268" lon="-1.65017">
        <ele>2.8</ele>
        <time>2020-06-03T10:48:38Z</time>
      </trkpt>
      <trkpt lat="46.44266" lon="-1.65024">
        <ele>2.8</ele>
        <time>2020-06-03T10:48:39Z</time>
      </trkpt>
      <trkpt lat="46.44263" lon="-1.65031">
        <ele>2.8</ele>
        <time>2020-06-03T10:48:40Z</time>
      </trkpt>
      <trkpt lat="46.44262" lon="-1.65037">
        <ele>2.8</ele>
        <time>2020-06-03T10:48:41Z</time>
      </trkpt>
      <trkpt lat="46.44261" lon="-1.65044">
        <ele>2.8</ele>
        <time>2020-06-03T10:48:42Z</time>
      </trkpt>
      <trkpt lat="46.44261" lon="-1.65051">
        <ele>2.8</ele>
        <time>2020-06-03T10:48:43Z</time>
      </trkpt>
      <trkpt lat="46.4426" lon="-1.65057">
        <ele>2.8</ele>
        <time>2020-06-03T10:48:44Z</time>
      </trkpt>
      <trkpt lat="46.44259" lon="-1.65062">
        <ele>2.8</ele>
        <time>2020-06-03T10:48:45Z</time>
      </trkpt>
      <trkpt lat="46.44259" lon="-1.65067">
        <ele>2.8</ele>
        <time>2020-06-03T10:48:46Z</time>
      </trkpt>
      <trkpt lat="46.44258" lon="-1.65071">
        <ele>2.9</ele>
        <time>2020-06-03T10:48:47Z</time>
      </trkpt>
      <trkpt lat="46.44256" lon="-1.65075">
        <ele>2.9</ele>
        <time>2020-06-03T10:48:48Z</time>
      </trkpt>
      <trkpt lat="46.44253" lon="-1.65078">
        <ele>2.9</ele>
        <time>2020-06-03T10:48:49Z</time>
      </trkpt>
      <trkpt lat="46.44249" lon="-1.65079">
        <ele>2.9</ele>
        <time>2020-06-03T10:48:50Z</time>
      </trkpt>
      <trkpt lat="46.44245" lon="-1.65081">
        <ele>2.7</ele>
        <time>2020-06-03T10:48:51Z</time>
      </trkpt>
      <trkpt lat="46.44242" lon="-1.65083">
        <ele>2.7</ele>
        <time>2020-06-03T10:48:52Z</time>
      </trkpt>
      <trkpt lat="46.4424" lon="-1.65085">
        <ele>2.7</ele>
        <time>2020-06-03T10:48:53Z</time>
      </trkpt>
      <trkpt lat="46.44237" lon="-1.65087">
        <ele>2.6</ele>
        <time>2020-06-03T10:48:54Z</time>
      </trkpt>
      <trkpt lat="46.44235" lon="-1.65091">
        <ele>2.6</ele>
        <time>2020-06-03T10:48:55Z</time>
      </trkpt>
      <trkpt lat="46.44234" lon="-1.65096">
        <ele>2.5</ele>
        <time>2020-06-03T10:48:56Z</time>
      </trkpt>
      <trkpt lat="46.44233" lon="-1.651">
        <ele>2.5</ele>
        <time>2020-06-03T10:48:57Z</time>
      </trkpt>
      <trkpt lat="46.44231" lon="-1.65104">
        <ele>2.4</ele>
        <time>2020-06-03T10:48:58Z</time>
      </trkpt>
      <trkpt lat="46.4423" lon="-1.65107">
        <ele>2.4</ele>
        <time>2020-06-03T10:48:59Z</time>
      </trkpt>
      <trkpt lat="46.44229" lon="-1.65111">
        <ele>2.3</ele>
        <time>2020-06-03T10:49:00Z</time>
      </trkpt>
      <trkpt lat="46.44228" lon="-1.65115">
        <ele>2.3</ele>
        <time>2020-06-03T10:49:01Z</time>
      </trkpt>
      <trkpt lat="46.44225" lon="-1.65118">
        <ele>2.2</ele>
        <time>2020-06-03T10:49:02Z</time>
      </trkpt>
      <trkpt lat="46.44224" lon="-1.6512">
        <ele>2.2</ele>
        <time>2020-06-03T10:49:03Z</time>
      </trkpt>
      <trkpt lat="46.4422" lon="-1.65123">
        <ele>2.2</ele>
        <time>2020-06-03T10:49:04Z</time>
      </trkpt>
      <trkpt lat="46.44219" lon="-1.65124">
        <ele>2.2</ele>
        <time>2020-06-03T10:49:05Z</time>
      </trkpt>
      <trkpt lat="46.44217" lon="-1.65126">
        <ele>2.3</ele>
        <time>2020-06-03T10:49:06Z</time>
      </trkpt>
      <trkpt lat="46.44214" lon="-1.65129">
        <ele>2.3</ele>
        <time>2020-06-03T10:49:07Z</time>
      </trkpt>
      <trkpt lat="46.44211" lon="-1.65131">
        <ele>2.3</ele>
        <time>2020-06-03T10:49:08Z</time>
      </trkpt>
      <trkpt lat="46.44208" lon="-1.65133">
        <ele>2.3</ele>
        <time>2020-06-03T10:49:09Z</time>
      </trkpt>
      <trkpt lat="46.44205" lon="-1.65135">
        <ele>2.3</ele>
        <time>2020-06-03T10:49:10Z</time>
      </trkpt>
      <trkpt lat="46.44201" lon="-1.65137">
        <ele>2.3</ele>
        <time>2020-06-03T10:49:11Z</time>
      </trkpt>
      <trkpt lat="46.44197" lon="-1.65138">
        <ele>2.3</ele>
        <time>2020-06-03T10:49:12Z</time>
      </trkpt>
      <trkpt lat="46.44194" lon="-1.6514">
        <ele>2.3</ele>
        <time>2020-06-03T10:49:13Z</time>
      </trkpt>
      <trkpt lat="46.44192" lon="-1.65143">
        <ele>2.3</ele>
        <time>2020-06-03T10:49:14Z</time>
      </trkpt>
      <trkpt lat="46.44189" lon="-1.65145">
        <ele>2.3</ele>
        <time>2020-06-03T10:49:15Z</time>
      </trkpt>
      <trkpt lat="46.44185" lon="-1.65148">
        <ele>2.4</ele>
        <time>2020-06-03T10:49:16Z</time>
      </trkpt>
      <trkpt lat="46.44182" lon="-1.65151">
        <ele>2.4</ele>
        <time>2020-06-03T10:49:17Z</time>
      </trkpt>
      <trkpt lat="46.44179" lon="-1.65154">
        <ele>2.4</ele>
        <time>2020-06-03T10:49:18Z</time>
      </trkpt>
      <trkpt lat="46.44175" lon="-1.65157">
        <ele>2.5</ele>
        <time>2020-06-03T10:49:19Z</time>
      </trkpt>
      <trkpt lat="46.4417" lon="-1.6516">
        <ele>2.5</ele>
        <time>2020-06-03T10:49:20Z</time>
      </trkpt>
      <trkpt lat="46.44167" lon="-1.65164">
        <ele>2.6</ele>
        <time>2020-06-03T10:49:21Z</time>
      </trkpt>
      <trkpt lat="46.44162" lon="-1.65167">
        <ele>2.6</ele>
        <time>2020-06-03T10:49:22Z</time>
      </trkpt>
      <trkpt lat="46.44159" lon="-1.6517">
        <ele>2.7</ele>
        <time>2020-06-03T10:49:23Z</time>
      </trkpt>
      <trkpt lat="46.44155" lon="-1.65173">
        <ele>2.7</ele>
        <time>2020-06-03T10:49:24Z</time>
      </trkpt>
      <trkpt lat="46.44152" lon="-1.65177">
        <ele>2.8</ele>
        <time>2020-06-03T10:49:25Z</time>
      </trkpt>
      <trkpt lat="46.44148" lon="-1.65181">
        <ele>2.8</ele>
        <time>2020-06-03T10:49:26Z</time>
      </trkpt>
      <trkpt lat="46.44144" lon="-1.65185">
        <ele>2.9</ele>
        <time>2020-06-03T10:49:27Z</time>
      </trkpt>
      <trkpt lat="46.4414" lon="-1.65189">
        <ele>3</ele>
        <time>2020-06-03T10:49:28Z</time>
      </trkpt>
      <trkpt lat="46.44137" lon="-1.65193">
        <ele>3</ele>
        <time>2020-06-03T10:49:29Z</time>
      </trkpt>
      <trkpt lat="46.44134" lon="-1.65197">
        <ele>3.1</ele>
        <time>2020-06-03T10:49:30Z</time>
      </trkpt>
      <trkpt lat="46.4413" lon="-1.65202">
        <ele>3.2</ele>
        <time>2020-06-03T10:49:31Z</time>
      </trkpt>
      <trkpt lat="46.44126" lon="-1.65206">
        <ele>3.2</ele>
        <time>2020-06-03T10:49:32Z</time>
      </trkpt>
      <trkpt lat="46.44123" lon="-1.6521">
        <ele>3.3</ele>
        <time>2020-06-03T10:49:33Z</time>
      </trkpt>
      <trkpt lat="46.44119" lon="-1.65213">
        <ele>3.4</ele>
        <time>2020-06-03T10:49:34Z</time>
      </trkpt>
      <trkpt lat="46.44115" lon="-1.65217">
        <ele>3.5</ele>
        <time>2020-06-03T10:49:35Z</time>
      </trkpt>
      <trkpt lat="46.4411" lon="-1.6522">
        <ele>3.5</ele>
        <time>2020-06-03T10:49:36Z</time>
      </trkpt>
      <trkpt lat="46.44106" lon="-1.65223">
        <ele>3.6</ele>
        <time>2020-06-03T10:49:37Z</time>
      </trkpt>
      <trkpt lat="46.44102" lon="-1.65226">
        <ele>3.7</ele>
        <time>2020-06-03T10:49:38Z</time>
      </trkpt>
      <trkpt lat="46.44097" lon="-1.6523">
        <ele>3.9</ele>
        <time>2020-06-03T10:49:39Z</time>
      </trkpt>
      <trkpt lat="46.44094" lon="-1.65234">
        <ele>4</ele>
        <time>2020-06-03T10:49:40Z</time>
      </trkpt>
      <trkpt lat="46.4409" lon="-1.65237">
        <ele>4.2</ele>
        <time>2020-06-03T10:49:41Z</time>
      </trkpt>
      <trkpt lat="46.44086" lon="-1.6524">
        <ele>4.3</ele>
        <time>2020-06-03T10:49:42Z</time>
      </trkpt>
      <trkpt lat="46.44083" lon="-1.65242">
        <ele>4.5</ele>
        <time>2020-06-03T10:49:43Z</time>
      </trkpt>
      <trkpt lat="46.44079" lon="-1.65244">
        <ele>4.7</ele>
        <time>2020-06-03T10:49:44Z</time>
      </trkpt>
      <trkpt lat="46.44075" lon="-1.65247">
        <ele>4.9</ele>
        <time>2020-06-03T10:49:45Z</time>
      </trkpt>
      <trkpt lat="46.44071" lon="-1.65249">
        <ele>5.1</ele>
        <time>2020-06-03T10:49:46Z</time>
      </trkpt>
      <trkpt lat="46.44066" lon="-1.65251">
        <ele>5.4</ele>
        <time>2020-06-03T10:49:47Z</time>
      </trkpt>
      <trkpt lat="46.44063" lon="-1.65253">
        <ele>5.6</ele>
        <time>2020-06-03T10:49:48Z</time>
      </trkpt>
      <trkpt lat="46.44059" lon="-1.65253">
        <ele>5.8</ele>
        <time>2020-06-03T10:49:49Z</time>
      </trkpt>
      <trkpt lat="46.44055" lon="-1.65254">
        <ele>6</ele>
        <time>2020-06-03T10:49:50Z</time>
      </trkpt>
      <trkpt lat="46.44051" lon="-1.65254">
        <ele>6.1</ele>
        <time>2020-06-03T10:49:51Z</time>
      </trkpt>
      <trkpt lat="46.44047" lon="-1.65255">
        <ele>6.3</ele>
        <time>2020-06-03T10:49:52Z</time>
      </trkpt>
      <trkpt lat="46.44043" lon="-1.65256">
        <ele>6.5</ele>
        <time>2020-06-03T10:49:53Z</time>
      </trkpt>
      <trkpt lat="46.4404" lon="-1.65257">
        <ele>6.6</ele>
        <time>2020-06-03T10:49:54Z</time>
      </trkpt>
      <trkpt lat="46.44037" lon="-1.65259">
        <ele>6.7</ele>
        <time>2020-06-03T10:49:55Z</time>
      </trkpt>
      <trkpt lat="46.44036" lon="-1.65264">
        <ele>6.8</ele>
        <time>2020-06-03T10:49:56Z</time>
      </trkpt>
      <trkpt lat="46.44036" lon="-1.65271">
        <ele>7.1</ele>
        <time>2020-06-03T10:49:57Z</time>
      </trkpt>
      <trkpt lat="46.44036" lon="-1.65276">
        <ele>7.1</ele>
        <time>2020-06-03T10:49:58Z</time>
      </trkpt>
      <trkpt lat="46.44034" lon="-1.65282">
        <ele>7.2</ele>
        <time>2020-06-03T10:49:59Z</time>
      </trkpt>
      <trkpt lat="46.44034" lon="-1.65286">
        <ele>7.3</ele>
        <time>2020-06-03T10:50:00Z</time>
      </trkpt>
      <trkpt lat="46.44034" lon="-1.65292">
        <ele>7.4</ele>
        <time>2020-06-03T10:50:01Z</time>
      </trkpt>
      <trkpt lat="46.44034" lon="-1.65298">
        <ele>7.6</ele>
        <time>2020-06-03T10:50:02Z</time>
      </trkpt>
      <trkpt lat="46.44033" lon="-1.65305">
        <ele>7.8</ele>
        <time>2020-06-03T10:50:03Z</time>
      </trkpt>
      <trkpt lat="46.44032" lon="-1.65311">
        <ele>7.9</ele>
        <time>2020-06-03T10:50:04Z</time>
      </trkpt>
      <trkpt lat="46.44032" lon="-1.65317">
        <ele>8</ele>
        <time>2020-06-03T10:50:05Z</time>
      </trkpt>
      <trkpt lat="46.44032" lon="-1.65323">
        <ele>8.1</ele>
        <time>2020-06-03T10:50:06Z</time>
      </trkpt>
      <trkpt lat="46.44031" lon="-1.65329">
        <ele>8.2</ele>
        <time>2020-06-03T10:50:07Z</time>
      </trkpt>
      <trkpt lat="46.44031" lon="-1.65335">
        <ele>8.3</ele>
        <time>2020-06-03T10:50:08Z</time>
      </trkpt>
      <trkpt lat="46.44031" lon="-1.65341">
        <ele>8.3</ele>
        <time>2020-06-03T10:50:09Z</time>
      </trkpt>
      <trkpt lat="46.44032" lon="-1.65346">
        <ele>8.4</ele>
        <time>2020-06-03T10:50:10Z</time>
      </trkpt>
      <trkpt lat="46.44032" lon="-1.6535">
        <ele>8.4</ele>
        <time>2020-06-03T10:50:11Z</time>
      </trkpt>
      <trkpt lat="46.44033" lon="-1.65357">
        <ele>8.5</ele>
        <time>2020-06-03T10:50:12Z</time>
      </trkpt>
      <trkpt lat="46.44032" lon="-1.65363">
        <ele>8.6</ele>
        <time>2020-06-03T10:50:13Z</time>
      </trkpt>
      <trkpt lat="46.44031" lon="-1.65368">
        <ele>8.7</ele>
        <time>2020-06-03T10:50:14Z</time>
      </trkpt>
      <trkpt lat="46.4403" lon="-1.65372">
        <ele>8.8</ele>
        <time>2020-06-03T10:50:15Z</time>
      </trkpt>
      <trkpt lat="46.4403" lon="-1.65377">
        <ele>8.9</ele>
        <time>2020-06-03T10:50:16Z</time>
      </trkpt>
      <trkpt lat="46.44029" lon="-1.65382">
        <ele>9</ele>
        <time>2020-06-03T10:50:17Z</time>
      </trkpt>
      <trkpt lat="46.44029" lon="-1.65387">
        <ele>9.1</ele>
        <time>2020-06-03T10:50:18Z</time>
      </trkpt>
      <trkpt lat="46.44029" lon="-1.65393">
        <ele>9.2</ele>
        <time>2020-06-03T10:50:19Z</time>
      </trkpt>
      <trkpt lat="46.44029" lon="-1.65398">
        <ele>9.3</ele>
        <time>2020-06-03T10:50:20Z</time>
      </trkpt>
      <trkpt lat="46.44029" lon="-1.65402">
        <ele>9.4</ele>
        <time>2020-06-03T10:50:21Z</time>
      </trkpt>
      <trkpt lat="46.44028" lon="-1.65408">
        <ele>9.5</ele>
        <time>2020-06-03T10:50:22Z</time>
      </trkpt>
      <trkpt lat="46.44028" lon="-1.65415">
        <ele>9.6</ele>
        <time>2020-06-03T10:50:23Z</time>
      </trkpt>
      <trkpt lat="46.44027" lon="-1.65421">
        <ele>9.7</ele>
        <time>2020-06-03T10:50:24Z</time>
      </trkpt>
      <trkpt lat="46.44026" lon="-1.65427">
        <ele>9.7</ele>
        <time>2020-06-03T10:50:25Z</time>
      </trkpt>
      <trkpt lat="46.44025" lon="-1.65432">
        <ele>9.8</ele>
        <time>2020-06-03T10:50:26Z</time>
      </trkpt>
      <trkpt lat="46.44024" lon="-1.65438">
        <ele>9.9</ele>
        <time>2020-06-03T10:50:27Z</time>
      </trkpt>
      <trkpt lat="46.44023" lon="-1.65443">
        <ele>9.9</ele>
        <time>2020-06-03T10:50:28Z</time>
      </trkpt>
      <trkpt lat="46.44022" lon="-1.65449">
        <ele>9.9</ele>
        <time>2020-06-03T10:50:29Z</time>
      </trkpt>
      <trkpt lat="46.4402" lon="-1.65455">
        <ele>10</ele>
        <time>2020-06-03T10:50:30Z</time>
      </trkpt>
      <trkpt lat="46.44019" lon="-1.65461">
        <ele>10</ele>
        <time>2020-06-03T10:50:31Z</time>
      </trkpt>
      <trkpt lat="46.44018" lon="-1.65465">
        <ele>10</ele>
        <time>2020-06-03T10:50:32Z</time>
      </trkpt>
      <trkpt lat="46.44017" lon="-1.65471">
        <ele>10</ele>
        <time>2020-06-03T10:50:33Z</time>
      </trkpt>
      <trkpt lat="46.44015" lon="-1.65475">
        <ele>10</ele>
        <time>2020-06-03T10:50:34Z</time>
      </trkpt>
      <trkpt lat="46.44015" lon="-1.65481">
        <ele>10</ele>
        <time>2020-06-03T10:50:35Z</time>
      </trkpt>
      <trkpt lat="46.44014" lon="-1.65484">
        <ele>10.1</ele>
        <time>2020-06-03T10:50:36Z</time>
      </trkpt>
      <trkpt lat="46.44013" lon="-1.65489">
        <ele>10.1</ele>
        <time>2020-06-03T10:50:37Z</time>
      </trkpt>
      <trkpt lat="46.44012" lon="-1.65495">
        <ele>10.1</ele>
        <time>2020-06-03T10:50:38Z</time>
      </trkpt>
      <trkpt lat="46.44012" lon="-1.65501">
        <ele>10.1</ele>
        <time>2020-06-03T10:50:39Z</time>
      </trkpt>
      <trkpt lat="46.4401" lon="-1.65507">
        <ele>10.1</ele>
        <time>2020-06-03T10:50:40Z</time>
      </trkpt>
      <trkpt lat="46.44009" lon="-1.65513">
        <ele>10.1</ele>
        <time>2020-06-03T10:50:41Z</time>
      </trkpt>
      <trkpt lat="46.44008" lon="-1.65518">
        <ele>10.1</ele>
        <time>2020-06-03T10:50:42Z</time>
      </trkpt>
      <trkpt lat="46.44007" lon="-1.65524">
        <ele>10.1</ele>
        <time>2020-06-03T10:50:43Z</time>
      </trkpt>
      <trkpt lat="46.44007" lon="-1.6553">
        <ele>10.1</ele>
        <time>2020-06-03T10:50:44Z</time>
      </trkpt>
      <trkpt lat="46.44006" lon="-1.65536">
        <ele>10.1</ele>
        <time>2020-06-03T10:50:45Z</time>
      </trkpt>
      <trkpt lat="46.44005" lon="-1.65542">
        <ele>10.1</ele>
        <time>2020-06-03T10:50:46Z</time>
      </trkpt>
      <trkpt lat="46.44005" lon="-1.65548">
        <ele>10.1</ele>
        <time>2020-06-03T10:50:47Z</time>
      </trkpt>
      <trkpt lat="46.44004" lon="-1.65555">
        <ele>10.1</ele>
        <time>2020-06-03T10:50:48Z</time>
      </trkpt>
      <trkpt lat="46.44005" lon="-1.65562">
        <ele>10.1</ele>
        <time>2020-06-03T10:50:49Z</time>
      </trkpt>
      <trkpt lat="46.44004" lon="-1.65568">
        <ele>10.1</ele>
        <time>2020-06-03T10:50:50Z</time>
      </trkpt>
      <trkpt lat="46.44004" lon="-1.65575">
        <ele>10.1</ele>
        <time>2020-06-03T10:50:51Z</time>
      </trkpt>
      <trkpt lat="46.44004" lon="-1.65582">
        <ele>10.1</ele>
        <time>2020-06-03T10:50:52Z</time>
      </trkpt>
      <trkpt lat="46.44004" lon="-1.65588">
        <ele>10.1</ele>
        <time>2020-06-03T10:50:53Z</time>
      </trkpt>
      <trkpt lat="46.44004" lon="-1.65595">
        <ele>10.1</ele>
        <time>2020-06-03T10:50:54Z</time>
      </trkpt>
      <trkpt lat="46.44005" lon="-1.65602">
        <ele>10.1</ele>
        <time>2020-06-03T10:50:55Z</time>
      </trkpt>
      <trkpt lat="46.44006" lon="-1.6561">
        <ele>10.1</ele>
        <time>2020-06-03T10:50:56Z</time>
      </trkpt>
      <trkpt lat="46.44005" lon="-1.65618">
        <ele>10.1</ele>
        <time>2020-06-03T10:50:57Z</time>
      </trkpt>
      <trkpt lat="46.44006" lon="-1.65625">
        <ele>10.1</ele>
        <time>2020-06-03T10:50:58Z</time>
      </trkpt>
      <trkpt lat="46.44006" lon="-1.65632">
        <ele>10.1</ele>
        <time>2020-06-03T10:50:59Z</time>
      </trkpt>
      <trkpt lat="46.44007" lon="-1.65639">
        <ele>10.1</ele>
        <time>2020-06-03T10:51:00Z</time>
      </trkpt>
      <trkpt lat="46.44007" lon="-1.65646">
        <ele>10.1</ele>
        <time>2020-06-03T10:51:01Z</time>
      </trkpt>
      <trkpt lat="46.44007" lon="-1.65653">
        <ele>10.1</ele>
        <time>2020-06-03T10:51:02Z</time>
      </trkpt>
      <trkpt lat="46.44008" lon="-1.6566">
        <ele>10.2</ele>
        <time>2020-06-03T10:51:03Z</time>
      </trkpt>
      <trkpt lat="46.44008" lon="-1.65666">
        <ele>10.2</ele>
        <time>2020-06-03T10:51:04Z</time>
      </trkpt>
      <trkpt lat="46.44008" lon="-1.65672">
        <ele>10.2</ele>
        <time>2020-06-03T10:51:05Z</time>
      </trkpt>
      <trkpt lat="46.44009" lon="-1.65679">
        <ele>10.2</ele>
        <time>2020-06-03T10:51:06Z</time>
      </trkpt>
      <trkpt lat="46.44009" lon="-1.65685">
        <ele>10.2</ele>
        <time>2020-06-03T10:51:07Z</time>
      </trkpt>
      <trkpt lat="46.4401" lon="-1.65691">
        <ele>10.2</ele>
        <time>2020-06-03T10:51:08Z</time>
      </trkpt>
      <trkpt lat="46.44011" lon="-1.65698">
        <ele>10.3</ele>
        <time>2020-06-03T10:51:09Z</time>
      </trkpt>
      <trkpt lat="46.44012" lon="-1.65705">
        <ele>10.3</ele>
        <time>2020-06-03T10:51:10Z</time>
      </trkpt>
      <trkpt lat="46.44013" lon="-1.65713">
        <ele>10.3</ele>
        <time>2020-06-03T10:51:11Z</time>
      </trkpt>
      <trkpt lat="46.44013" lon="-1.65721">
        <ele>10.3</ele>
        <time>2020-06-03T10:51:12Z</time>
      </trkpt>
      <trkpt lat="46.44014" lon="-1.65728">
        <ele>10.3</ele>
        <time>2020-06-03T10:51:13Z</time>
      </trkpt>
      <trkpt lat="46.44014" lon="-1.65734">
        <ele>10.3</ele>
        <time>2020-06-03T10:51:14Z</time>
      </trkpt>
      <trkpt lat="46.44013" lon="-1.6574">
        <ele>10.3</ele>
        <time>2020-06-03T10:51:15Z</time>
      </trkpt>
      <trkpt lat="46.44014" lon="-1.65746">
        <ele>10.3</ele>
        <time>2020-06-03T10:51:16Z</time>
      </trkpt>
      <trkpt lat="46.44014" lon="-1.65752">
        <ele>10.3</ele>
        <time>2020-06-03T10:51:17Z</time>
      </trkpt>
      <trkpt lat="46.44014" lon="-1.65757">
        <ele>10.3</ele>
        <time>2020-06-03T10:51:18Z</time>
      </trkpt>
      <trkpt lat="46.44015" lon="-1.65763">
        <ele>10.3</ele>
        <time>2020-06-03T10:51:19Z</time>
      </trkpt>
      <trkpt lat="46.44015" lon="-1.65769">
        <ele>10.3</ele>
        <time>2020-06-03T10:51:20Z</time>
      </trkpt>
      <trkpt lat="46.44015" lon="-1.65774">
        <ele>10.3</ele>
        <time>2020-06-03T10:51:21Z</time>
      </trkpt>
      <trkpt lat="46.44015" lon="-1.6578">
        <ele>10.3</ele>
        <time>2020-06-03T10:51:22Z</time>
      </trkpt>
      <trkpt lat="46.44015" lon="-1.65786">
        <ele>10.3</ele>
        <time>2020-06-03T10:51:23Z</time>
      </trkpt>
      <trkpt lat="46.44015" lon="-1.65791">
        <ele>10.3</ele>
        <time>2020-06-03T10:51:24Z</time>
      </trkpt>
      <trkpt lat="46.44015" lon="-1.65796">
        <ele>10.3</ele>
        <time>2020-06-03T10:51:25Z</time>
      </trkpt>
      <trkpt lat="46.44016" lon="-1.658">
        <ele>10.3</ele>
        <time>2020-06-03T10:51:26Z</time>
      </trkpt>
      <trkpt lat="46.44016" lon="-1.65806">
        <ele>10.3</ele>
        <time>2020-06-03T10:51:27Z</time>
      </trkpt>
      <trkpt lat="46.44016" lon="-1.65812">
        <ele>10.3</ele>
        <time>2020-06-03T10:51:28Z</time>
      </trkpt>
      <trkpt lat="46.44017" lon="-1.65818">
        <ele>10.3</ele>
        <time>2020-06-03T10:51:29Z</time>
      </trkpt>
      <trkpt lat="46.44017" lon="-1.65823">
        <ele>10.2</ele>
        <time>2020-06-03T10:51:30Z</time>
      </trkpt>
      <trkpt lat="46.44018" lon="-1.6583">
        <ele>10.2</ele>
        <time>2020-06-03T10:51:31Z</time>
      </trkpt>
      <trkpt lat="46.44018" lon="-1.65836">
        <ele>10.2</ele>
        <time>2020-06-03T10:51:32Z</time>
      </trkpt>
      <trkpt lat="46.44018" lon="-1.65841">
        <ele>10.1</ele>
        <time>2020-06-03T10:51:33Z</time>
      </trkpt>
      <trkpt lat="46.44019" lon="-1.65848">
        <ele>10.1</ele>
        <time>2020-06-03T10:51:34Z</time>
      </trkpt>
      <trkpt lat="46.44019" lon="-1.65854">
        <ele>10.1</ele>
        <time>2020-06-03T10:51:35Z</time>
      </trkpt>
      <trkpt lat="46.4402" lon="-1.65861">
        <ele>10</ele>
        <time>2020-06-03T10:51:36Z</time>
      </trkpt>
      <trkpt lat="46.44021" lon="-1.65867">
        <ele>9.9</ele>
        <time>2020-06-03T10:51:37Z</time>
      </trkpt>
      <trkpt lat="46.44021" lon="-1.65873">
        <ele>9.8</ele>
        <time>2020-06-03T10:51:38Z</time>
      </trkpt>
      <trkpt lat="46.44022" lon="-1.6588">
        <ele>9.7</ele>
        <time>2020-06-03T10:51:39Z</time>
      </trkpt>
      <trkpt lat="46.44023" lon="-1.65887">
        <ele>9.6</ele>
        <time>2020-06-03T10:51:40Z</time>
      </trkpt>
      <trkpt lat="46.44025" lon="-1.65895">
        <ele>9.4</ele>
        <time>2020-06-03T10:51:41Z</time>
      </trkpt>
      <trkpt lat="46.44027" lon="-1.65902">
        <ele>9.3</ele>
        <time>2020-06-03T10:51:42Z</time>
      </trkpt>
      <trkpt lat="46.44029" lon="-1.6591">
        <ele>9.1</ele>
        <time>2020-06-03T10:51:43Z</time>
      </trkpt>
      <trkpt lat="46.4403" lon="-1.65917">
        <ele>9</ele>
        <time>2020-06-03T10:51:44Z</time>
      </trkpt>
      <trkpt lat="46.44032" lon="-1.65925">
        <ele>8.9</ele>
        <time>2020-06-03T10:51:45Z</time>
      </trkpt>
      <trkpt lat="46.44035" lon="-1.65933">
        <ele>8.8</ele>
        <time>2020-06-03T10:51:46Z</time>
      </trkpt>
      <trkpt lat="46.44037" lon="-1.65939">
        <ele>8.7</ele>
        <time>2020-06-03T10:51:47Z</time>
      </trkpt>
      <trkpt lat="46.44038" lon="-1.65946">
        <ele>8.6</ele>
        <time>2020-06-03T10:51:48Z</time>
      </trkpt>
      <trkpt lat="46.4404" lon="-1.65953">
        <ele>8.6</ele>
        <time>2020-06-03T10:51:49Z</time>
      </trkpt>
      <trkpt lat="46.44041" lon="-1.6596">
        <ele>8.5</ele>
        <time>2020-06-03T10:51:50Z</time>
      </trkpt>
      <trkpt lat="46.44041" lon="-1.65967">
        <ele>8.5</ele>
        <time>2020-06-03T10:51:51Z</time>
      </trkpt>
      <trkpt lat="46.44042" lon="-1.65975">
        <ele>8.4</ele>
        <time>2020-06-03T10:51:52Z</time>
      </trkpt>
      <trkpt lat="46.44043" lon="-1.65982">
        <ele>8.4</ele>
        <time>2020-06-03T10:51:53Z</time>
      </trkpt>
      <trkpt lat="46.44044" lon="-1.65991">
        <ele>8.4</ele>
        <time>2020-06-03T10:51:54Z</time>
      </trkpt>
      <trkpt lat="46.44044" lon="-1.65999">
        <ele>8.4</ele>
        <time>2020-06-03T10:51:55Z</time>
      </trkpt>
      <trkpt lat="46.44045" lon="-1.66007">
        <ele>8.4</ele>
        <time>2020-06-03T10:51:56Z</time>
      </trkpt>
      <trkpt lat="46.44044" lon="-1.66014">
        <ele>8.4</ele>
        <time>2020-06-03T10:51:57Z</time>
      </trkpt>
      <trkpt lat="46.44043" lon="-1.66021">
        <ele>8.4</ele>
        <time>2020-06-03T10:51:58Z</time>
      </trkpt>
      <trkpt lat="46.44043" lon="-1.66028">
        <ele>8.4</ele>
        <time>2020-06-03T10:51:59Z</time>
      </trkpt>
      <trkpt lat="46.44044" lon="-1.66035">
        <ele>8.4</ele>
        <time>2020-06-03T10:52:00Z</time>
      </trkpt>
      <trkpt lat="46.44042" lon="-1.66043">
        <ele>8.4</ele>
        <time>2020-06-03T10:52:01Z</time>
      </trkpt>
      <trkpt lat="46.44041" lon="-1.66051">
        <ele>8.4</ele>
        <time>2020-06-03T10:52:02Z</time>
      </trkpt>
      <trkpt lat="46.4404" lon="-1.66059">
        <ele>8.4</ele>
        <time>2020-06-03T10:52:03Z</time>
      </trkpt>
      <trkpt lat="46.44039" lon="-1.66065">
        <ele>8.4</ele>
        <time>2020-06-03T10:52:04Z</time>
      </trkpt>
      <trkpt lat="46.44038" lon="-1.66073">
        <ele>8.4</ele>
        <time>2020-06-03T10:52:05Z</time>
      </trkpt>
      <trkpt lat="46.44036" lon="-1.66079">
        <ele>8.4</ele>
        <time>2020-06-03T10:52:06Z</time>
      </trkpt>
      <trkpt lat="46.44035" lon="-1.66085">
        <ele>8.4</ele>
        <time>2020-06-03T10:52:07Z</time>
      </trkpt>
      <trkpt lat="46.44033" lon="-1.6609">
        <ele>8.4</ele>
        <time>2020-06-03T10:52:08Z</time>
      </trkpt>
      <trkpt lat="46.44032" lon="-1.66096">
        <ele>8.4</ele>
        <time>2020-06-03T10:52:09Z</time>
      </trkpt>
      <trkpt lat="46.44031" lon="-1.66102">
        <ele>8.4</ele>
        <time>2020-06-03T10:52:10Z</time>
      </trkpt>
      <trkpt lat="46.4403" lon="-1.66109">
        <ele>8.4</ele>
        <time>2020-06-03T10:52:11Z</time>
      </trkpt>
      <trkpt lat="46.4403" lon="-1.66116">
        <ele>8.4</ele>
        <time>2020-06-03T10:52:12Z</time>
      </trkpt>
      <trkpt lat="46.44029" lon="-1.66122">
        <ele>8.4</ele>
        <time>2020-06-03T10:52:13Z</time>
      </trkpt>
      <trkpt lat="46.44028" lon="-1.66127">
        <ele>8.4</ele>
        <time>2020-06-03T10:52:14Z</time>
      </trkpt>
      <trkpt lat="46.44026" lon="-1.66133">
        <ele>8.4</ele>
        <time>2020-06-03T10:52:15Z</time>
      </trkpt>
      <trkpt lat="46.44024" lon="-1.6614">
        <ele>8.4</ele>
        <time>2020-06-03T10:52:16Z</time>
      </trkpt>
      <trkpt lat="46.44023" lon="-1.66145">
        <ele>8.4</ele>
        <time>2020-06-03T10:52:17Z</time>
      </trkpt>
      <trkpt lat="46.44023" lon="-1.6615">
        <ele>8.4</ele>
        <time>2020-06-03T10:52:18Z</time>
      </trkpt>
      <trkpt lat="46.44022" lon="-1.66155">
        <ele>8.4</ele>
        <time>2020-06-03T10:52:19Z</time>
      </trkpt>
      <trkpt lat="46.4402" lon="-1.6616">
        <ele>8.4</ele>
        <time>2020-06-03T10:52:20Z</time>
      </trkpt>
      <trkpt lat="46.44018" lon="-1.66166">
        <ele>8.4</ele>
        <time>2020-06-03T10:52:21Z</time>
      </trkpt>
      <trkpt lat="46.44016" lon="-1.66171">
        <ele>8.4</ele>
        <time>2020-06-03T10:52:22Z</time>
      </trkpt>
      <trkpt lat="46.44014" lon="-1.66176">
        <ele>8.4</ele>
        <time>2020-06-03T10:52:23Z</time>
      </trkpt>
      <trkpt lat="46.44013" lon="-1.66182">
        <ele>8.4</ele>
        <time>2020-06-03T10:52:24Z</time>
      </trkpt>
      <trkpt lat="46.44011" lon="-1.66188">
        <ele>8.4</ele>
        <time>2020-06-03T10:52:25Z</time>
      </trkpt>
      <trkpt lat="46.4401" lon="-1.66194">
        <ele>8.3</ele>
        <time>2020-06-03T10:52:26Z</time>
      </trkpt>
      <trkpt lat="46.44009" lon="-1.662">
        <ele>8.3</ele>
        <time>2020-06-03T10:52:27Z</time>
      </trkpt>
      <trkpt lat="46.44007" lon="-1.66206">
        <ele>8.3</ele>
        <time>2020-06-03T10:52:28Z</time>
      </trkpt>
      <trkpt lat="46.44003" lon="-1.66212">
        <ele>8.3</ele>
        <time>2020-06-03T10:52:29Z</time>
      </trkpt>
      <trkpt lat="46.44001" lon="-1.66218">
        <ele>8.3</ele>
        <time>2020-06-03T10:52:30Z</time>
      </trkpt>
      <trkpt lat="46.44001" lon="-1.66225">
        <ele>8.3</ele>
        <time>2020-06-03T10:52:31Z</time>
      </trkpt>
      <trkpt lat="46.44002" lon="-1.66231">
        <ele>8.3</ele>
        <time>2020-06-03T10:52:32Z</time>
      </trkpt>
      <trkpt lat="46.44002" lon="-1.66236">
        <ele>8.3</ele>
        <time>2020-06-03T10:52:33Z</time>
      </trkpt>
      <trkpt lat="46.44003" lon="-1.66242">
        <ele>8.2</ele>
        <time>2020-06-03T10:52:34Z</time>
      </trkpt>
      <trkpt lat="46.44002" lon="-1.66247">
        <ele>8.2</ele>
        <time>2020-06-03T10:52:35Z</time>
      </trkpt>
      <trkpt lat="46.44004" lon="-1.66253">
        <ele>8.2</ele>
        <time>2020-06-03T10:52:36Z</time>
      </trkpt>
      <trkpt lat="46.44006" lon="-1.66258">
        <ele>8.2</ele>
        <time>2020-06-03T10:52:37Z</time>
      </trkpt>
      <trkpt lat="46.44009" lon="-1.66263">
        <ele>8.1</ele>
        <time>2020-06-03T10:52:38Z</time>
      </trkpt>
      <trkpt lat="46.44012" lon="-1.66268">
        <ele>8</ele>
        <time>2020-06-03T10:52:39Z</time>
      </trkpt>
      <trkpt lat="46.44016" lon="-1.66274">
        <ele>7.9</ele>
        <time>2020-06-03T10:52:40Z</time>
      </trkpt>
      <trkpt lat="46.4402" lon="-1.66279">
        <ele>7.8</ele>
        <time>2020-06-03T10:52:41Z</time>
      </trkpt>
      <trkpt lat="46.44024" lon="-1.66285">
        <ele>7.7</ele>
        <time>2020-06-03T10:52:42Z</time>
      </trkpt>
      <trkpt lat="46.44027" lon="-1.6629">
        <ele>7.6</ele>
        <time>2020-06-03T10:52:43Z</time>
      </trkpt>
      <trkpt lat="46.44031" lon="-1.66294">
        <ele>7.5</ele>
        <time>2020-06-03T10:52:44Z</time>
      </trkpt>
      <trkpt lat="46.44035" lon="-1.66299">
        <ele>7.5</ele>
        <time>2020-06-03T10:52:45Z</time>
      </trkpt>
      <trkpt lat="46.44038" lon="-1.66303">
        <ele>7.5</ele>
        <time>2020-06-03T10:52:46Z</time>
      </trkpt>
      <trkpt lat="46.44042" lon="-1.66308">
        <ele>7.5</ele>
        <time>2020-06-03T10:52:47Z</time>
      </trkpt>
      <trkpt lat="46.44046" lon="-1.66311">
        <ele>7.5</ele>
        <time>2020-06-03T10:52:48Z</time>
      </trkpt>
      <trkpt lat="46.4405" lon="-1.66315">
        <ele>7.6</ele>
        <time>2020-06-03T10:52:49Z</time>
      </trkpt>
      <trkpt lat="46.44053" lon="-1.66319">
        <ele>7.6</ele>
        <time>2020-06-03T10:52:50Z</time>
      </trkpt>
      <trkpt lat="46.44058" lon="-1.66323">
        <ele>7.6</ele>
        <time>2020-06-03T10:52:51Z</time>
      </trkpt>
      <trkpt lat="46.44062" lon="-1.66326">
        <ele>7.7</ele>
        <time>2020-06-03T10:52:52Z</time>
      </trkpt>
      <trkpt lat="46.44066" lon="-1.6633">
        <ele>7.7</ele>
        <time>2020-06-03T10:52:53Z</time>
      </trkpt>
      <trkpt lat="46.4407" lon="-1.66333">
        <ele>7.7</ele>
        <time>2020-06-03T10:52:54Z</time>
      </trkpt>
      <trkpt lat="46.44075" lon="-1.66337">
        <ele>7.7</ele>
        <time>2020-06-03T10:52:55Z</time>
      </trkpt>
      <trkpt lat="46.44079" lon="-1.66341">
        <ele>7.8</ele>
        <time>2020-06-03T10:52:56Z</time>
      </trkpt>
      <trkpt lat="46.44083" lon="-1.66345">
        <ele>7.8</ele>
        <time>2020-06-03T10:52:57Z</time>
      </trkpt>
      <trkpt lat="46.44087" lon="-1.66348">
        <ele>7.8</ele>
        <time>2020-06-03T10:52:58Z</time>
      </trkpt>
      <trkpt lat="46.44091" lon="-1.66352">
        <ele>7.9</ele>
        <time>2020-06-03T10:52:59Z</time>
      </trkpt>
      <trkpt lat="46.44094" lon="-1.66355">
        <ele>7.9</ele>
        <time>2020-06-03T10:53:00Z</time>
      </trkpt>
      <trkpt lat="46.44097" lon="-1.66358">
        <ele>7.9</ele>
        <time>2020-06-03T10:53:01Z</time>
      </trkpt>
      <trkpt lat="46.441" lon="-1.6636">
        <ele>8</ele>
        <time>2020-06-03T10:53:02Z</time>
      </trkpt>
      <trkpt lat="46.44104" lon="-1.66363">
        <ele>8</ele>
        <time>2020-06-03T10:53:03Z</time>
      </trkpt>
      <trkpt lat="46.44107" lon="-1.66367">
        <ele>8</ele>
        <time>2020-06-03T10:53:04Z</time>
      </trkpt>
      <trkpt lat="46.44111" lon="-1.66369">
        <ele>8.1</ele>
        <time>2020-06-03T10:53:05Z</time>
      </trkpt>
      <trkpt lat="46.44115" lon="-1.66371">
        <ele>8.1</ele>
        <time>2020-06-03T10:53:06Z</time>
      </trkpt>
      <trkpt lat="46.44118" lon="-1.66374">
        <ele>8.1</ele>
        <time>2020-06-03T10:53:07Z</time>
      </trkpt>
      <trkpt lat="46.44122" lon="-1.66376">
        <ele>8.2</ele>
        <time>2020-06-03T10:53:08Z</time>
      </trkpt>
      <trkpt lat="46.44125" lon="-1.66379">
        <ele>8.2</ele>
        <time>2020-06-03T10:53:09Z</time>
      </trkpt>
      <trkpt lat="46.44129" lon="-1.6638">
        <ele>8.3</ele>
        <time>2020-06-03T10:53:10Z</time>
      </trkpt>
      <trkpt lat="46.44132" lon="-1.66384">
        <ele>8.4</ele>
        <time>2020-06-03T10:53:11Z</time>
      </trkpt>
      <trkpt lat="46.44136" lon="-1.66387">
        <ele>8.4</ele>
        <time>2020-06-03T10:53:12Z</time>
      </trkpt>
      <trkpt lat="46.4414" lon="-1.6639">
        <ele>8.5</ele>
        <time>2020-06-03T10:53:13Z</time>
      </trkpt>
      <trkpt lat="46.44143" lon="-1.66393">
        <ele>8.5</ele>
        <time>2020-06-03T10:53:14Z</time>
      </trkpt>
      <trkpt lat="46.44147" lon="-1.66396">
        <ele>8.6</ele>
        <time>2020-06-03T10:53:15Z</time>
      </trkpt>
      <trkpt lat="46.4415" lon="-1.66399">
        <ele>8.6</ele>
        <time>2020-06-03T10:53:16Z</time>
      </trkpt>
      <trkpt lat="46.44154" lon="-1.66401">
        <ele>8.7</ele>
        <time>2020-06-03T10:53:17Z</time>
      </trkpt>
      <trkpt lat="46.44158" lon="-1.66404">
        <ele>8.8</ele>
        <time>2020-06-03T10:53:18Z</time>
      </trkpt>
      <trkpt lat="46.44162" lon="-1.66407">
        <ele>8.9</ele>
        <time>2020-06-03T10:53:19Z</time>
      </trkpt>
      <trkpt lat="46.44165" lon="-1.66411">
        <ele>9</ele>
        <time>2020-06-03T10:53:20Z</time>
      </trkpt>
      <trkpt lat="46.44169" lon="-1.66414">
        <ele>9.1</ele>
        <time>2020-06-03T10:53:21Z</time>
      </trkpt>
      <trkpt lat="46.44173" lon="-1.66416">
        <ele>9.2</ele>
        <time>2020-06-03T10:53:22Z</time>
      </trkpt>
      <trkpt lat="46.44177" lon="-1.66419">
        <ele>9.4</ele>
        <time>2020-06-03T10:53:23Z</time>
      </trkpt>
      <trkpt lat="46.44181" lon="-1.66422">
        <ele>9.5</ele>
        <time>2020-06-03T10:53:24Z</time>
      </trkpt>
      <trkpt lat="46.44185" lon="-1.66425">
        <ele>9.6</ele>
        <time>2020-06-03T10:53:25Z</time>
      </trkpt>
      <trkpt lat="46.44189" lon="-1.66428">
        <ele>9.7</ele>
        <time>2020-06-03T10:53:26Z</time>
      </trkpt>
      <trkpt lat="46.44193" lon="-1.6643">
        <ele>9.8</ele>
        <time>2020-06-03T10:53:27Z</time>
      </trkpt>
      <trkpt lat="46.44197" lon="-1.66433">
        <ele>9.9</ele>
        <time>2020-06-03T10:53:28Z</time>
      </trkpt>
      <trkpt lat="46.442" lon="-1.66437">
        <ele>10.1</ele>
        <time>2020-06-03T10:53:29Z</time>
      </trkpt>
      <trkpt lat="46.44204" lon="-1.6644">
        <ele>10.2</ele>
        <time>2020-06-03T10:53:30Z</time>
      </trkpt>
      <trkpt lat="46.44207" lon="-1.66444">
        <ele>10.3</ele>
        <time>2020-06-03T10:53:31Z</time>
      </trkpt>
      <trkpt lat="46.4421" lon="-1.66448">
        <ele>10.4</ele>
        <time>2020-06-03T10:53:32Z</time>
      </trkpt>
      <trkpt lat="46.44212" lon="-1.66453">
        <ele>10.5</ele>
        <time>2020-06-03T10:53:33Z</time>
      </trkpt>
      <trkpt lat="46.44215" lon="-1.66458">
        <ele>10.6</ele>
        <time>2020-06-03T10:53:34Z</time>
      </trkpt>
      <trkpt lat="46.44218" lon="-1.66462">
        <ele>10.7</ele>
        <time>2020-06-03T10:53:35Z</time>
      </trkpt>
      <trkpt lat="46.44221" lon="-1.66467">
        <ele>10.8</ele>
        <time>2020-06-03T10:53:36Z</time>
      </trkpt>
      <trkpt lat="46.44224" lon="-1.66472">
        <ele>10.9</ele>
        <time>2020-06-03T10:53:37Z</time>
      </trkpt>
      <trkpt lat="46.44226" lon="-1.66477">
        <ele>11</ele>
        <time>2020-06-03T10:53:38Z</time>
      </trkpt>
      <trkpt lat="46.44228" lon="-1.66483">
        <ele>11</ele>
        <time>2020-06-03T10:53:39Z</time>
      </trkpt>
      <trkpt lat="46.44231" lon="-1.66488">
        <ele>11.1</ele>
        <time>2020-06-03T10:53:40Z</time>
      </trkpt>
      <trkpt lat="46.44233" lon="-1.66493">
        <ele>11.1</ele>
        <time>2020-06-03T10:53:41Z</time>
      </trkpt>
      <trkpt lat="46.44234" lon="-1.66499">
        <ele>11.2</ele>
        <time>2020-06-03T10:53:42Z</time>
      </trkpt>
      <trkpt lat="46.44235" lon="-1.66505">
        <ele>11.2</ele>
        <time>2020-06-03T10:53:43Z</time>
      </trkpt>
      <trkpt lat="46.44236" lon="-1.6651">
        <ele>11.3</ele>
        <time>2020-06-03T10:53:44Z</time>
      </trkpt>
      <trkpt lat="46.44237" lon="-1.66516">
        <ele>11.3</ele>
        <time>2020-06-03T10:53:45Z</time>
      </trkpt>
      <trkpt lat="46.44238" lon="-1.66522">
        <ele>11.4</ele>
        <time>2020-06-03T10:53:46Z</time>
      </trkpt>
      <trkpt lat="46.44239" lon="-1.66528">
        <ele>11.5</ele>
        <time>2020-06-03T10:53:47Z</time>
      </trkpt>
      <trkpt lat="46.44241" lon="-1.66533">
        <ele>11.5</ele>
        <time>2020-06-03T10:53:48Z</time>
      </trkpt>
      <trkpt lat="46.44242" lon="-1.66539">
        <ele>11.6</ele>
        <time>2020-06-03T10:53:49Z</time>
      </trkpt>
      <trkpt lat="46.44243" lon="-1.66544">
        <ele>11.7</ele>
        <time>2020-06-03T10:53:50Z</time>
      </trkpt>
      <trkpt lat="46.44244" lon="-1.66549">
        <ele>11.8</ele>
        <time>2020-06-03T10:53:51Z</time>
      </trkpt>
      <trkpt lat="46.44244" lon="-1.66554">
        <ele>11.8</ele>
        <time>2020-06-03T10:53:52Z</time>
      </trkpt>
      <trkpt lat="46.44245" lon="-1.66559">
        <ele>11.9</ele>
        <time>2020-06-03T10:53:53Z</time>
      </trkpt>
      <trkpt lat="46.44245" lon="-1.66564">
        <ele>11.9</ele>
        <time>2020-06-03T10:53:54Z</time>
      </trkpt>
      <trkpt lat="46.44246" lon="-1.6657">
        <ele>12</ele>
        <time>2020-06-03T10:53:55Z</time>
      </trkpt>
      <trkpt lat="46.44246" lon="-1.66575">
        <ele>12</ele>
        <time>2020-06-03T10:53:56Z</time>
      </trkpt>
      <trkpt lat="46.44246" lon="-1.66581">
        <ele>12.1</ele>
        <time>2020-06-03T10:53:57Z</time>
      </trkpt>
      <trkpt lat="46.44247" lon="-1.66587">
        <ele>12.1</ele>
        <time>2020-06-03T10:53:58Z</time>
      </trkpt>
      <trkpt lat="46.44249" lon="-1.66593">
        <ele>12.2</ele>
        <time>2020-06-03T10:53:59Z</time>
      </trkpt>
      <trkpt lat="46.44249" lon="-1.66599">
        <ele>12.2</ele>
        <time>2020-06-03T10:54:00Z</time>
      </trkpt>
      <trkpt lat="46.44251" lon="-1.66604">
        <ele>12.3</ele>
        <time>2020-06-03T10:54:01Z</time>
      </trkpt>
      <trkpt lat="46.44252" lon="-1.6661">
        <ele>12.3</ele>
        <time>2020-06-03T10:54:02Z</time>
      </trkpt>
      <trkpt lat="46.44254" lon="-1.66615">
        <ele>12.3</ele>
        <time>2020-06-03T10:54:03Z</time>
      </trkpt>
      <trkpt lat="46.44256" lon="-1.6662">
        <ele>12.4</ele>
        <time>2020-06-03T10:54:04Z</time>
      </trkpt>
      <trkpt lat="46.44259" lon="-1.66626">
        <ele>12.4</ele>
        <time>2020-06-03T10:54:05Z</time>
      </trkpt>
      <trkpt lat="46.44261" lon="-1.66631">
        <ele>12.4</ele>
        <time>2020-06-03T10:54:06Z</time>
      </trkpt>
      <trkpt lat="46.44263" lon="-1.66636">
        <ele>12.4</ele>
        <time>2020-06-03T10:54:07Z</time>
      </trkpt>
      <trkpt lat="46.44266" lon="-1.66641">
        <ele>12.5</ele>
        <time>2020-06-03T10:54:08Z</time>
      </trkpt>
      <trkpt lat="46.44269" lon="-1.66646">
        <ele>12.5</ele>
        <time>2020-06-03T10:54:09Z</time>
      </trkpt>
      <trkpt lat="46.44272" lon="-1.6665">
        <ele>12.5</ele>
        <time>2020-06-03T10:54:10Z</time>
      </trkpt>
      <trkpt lat="46.44274" lon="-1.66654">
        <ele>12.5</ele>
        <time>2020-06-03T10:54:11Z</time>
      </trkpt>
      <trkpt lat="46.44277" lon="-1.66659">
        <ele>12.6</ele>
        <time>2020-06-03T10:54:12Z</time>
      </trkpt>
      <trkpt lat="46.44279" lon="-1.66663">
        <ele>12.6</ele>
        <time>2020-06-03T10:54:13Z</time>
      </trkpt>
      <trkpt lat="46.44282" lon="-1.66667">
        <ele>12.6</ele>
        <time>2020-06-03T10:54:14Z</time>
      </trkpt>
      <trkpt lat="46.44284" lon="-1.6667">
        <ele>12.6</ele>
        <time>2020-06-03T10:54:15Z</time>
      </trkpt>
      <trkpt lat="46.44287" lon="-1.66675">
        <ele>12.6</ele>
        <time>2020-06-03T10:54:16Z</time>
      </trkpt>
      <trkpt lat="46.4429" lon="-1.66679">
        <ele>12.6</ele>
        <time>2020-06-03T10:54:17Z</time>
      </trkpt>
      <trkpt lat="46.44292" lon="-1.66684">
        <ele>12.6</ele>
        <time>2020-06-03T10:54:18Z</time>
      </trkpt>
      <trkpt lat="46.44295" lon="-1.66689">
        <ele>12.6</ele>
        <time>2020-06-03T10:54:19Z</time>
      </trkpt>
      <trkpt lat="46.44297" lon="-1.66693">
        <ele>12.7</ele>
        <time>2020-06-03T10:54:20Z</time>
      </trkpt>
      <trkpt lat="46.443" lon="-1.66698">
        <ele>12.7</ele>
        <time>2020-06-03T10:54:21Z</time>
      </trkpt>
      <trkpt lat="46.44303" lon="-1.66703">
        <ele>12.7</ele>
        <time>2020-06-03T10:54:22Z</time>
      </trkpt>
      <trkpt lat="46.44306" lon="-1.66707">
        <ele>12.7</ele>
        <time>2020-06-03T10:54:23Z</time>
      </trkpt>
      <trkpt lat="46.4431" lon="-1.66711">
        <ele>12.7</ele>
        <time>2020-06-03T10:54:24Z</time>
      </trkpt>
      <trkpt lat="46.44312" lon="-1.66717">
        <ele>12.7</ele>
        <time>2020-06-03T10:54:25Z</time>
      </trkpt>
      <trkpt lat="46.44316" lon="-1.66722">
        <ele>12.7</ele>
        <time>2020-06-03T10:54:26Z</time>
      </trkpt>
      <trkpt lat="46.44318" lon="-1.66726">
        <ele>12.8</ele>
        <time>2020-06-03T10:54:27Z</time>
      </trkpt>
      <trkpt lat="46.44321" lon="-1.66731">
        <ele>12.8</ele>
        <time>2020-06-03T10:54:28Z</time>
      </trkpt>
      <trkpt lat="46.44324" lon="-1.66735">
        <ele>12.8</ele>
        <time>2020-06-03T10:54:29Z</time>
      </trkpt>
      <trkpt lat="46.44327" lon="-1.66739">
        <ele>12.9</ele>
        <time>2020-06-03T10:54:30Z</time>
      </trkpt>
      <trkpt lat="46.44331" lon="-1.66744">
        <ele>12.9</ele>
        <time>2020-06-03T10:54:31Z</time>
      </trkpt>
      <trkpt lat="46.44334" lon="-1.66749">
        <ele>13</ele>
        <time>2020-06-03T10:54:32Z</time>
      </trkpt>
      <trkpt lat="46.44337" lon="-1.66754">
        <ele>13</ele>
        <time>2020-06-03T10:54:33Z</time>
      </trkpt>
      <trkpt lat="46.44339" lon="-1.6676">
        <ele>13.1</ele>
        <time>2020-06-03T10:54:34Z</time>
      </trkpt>
      <trkpt lat="46.44342" lon="-1.66765">
        <ele>13.2</ele>
        <time>2020-06-03T10:54:35Z</time>
      </trkpt>
      <trkpt lat="46.44344" lon="-1.6677">
        <ele>13.2</ele>
        <time>2020-06-03T10:54:36Z</time>
      </trkpt>
      <trkpt lat="46.44347" lon="-1.66774">
        <ele>13.2</ele>
        <time>2020-06-03T10:54:37Z</time>
      </trkpt>
      <trkpt lat="46.4435" lon="-1.66779">
        <ele>13.2</ele>
        <time>2020-06-03T10:54:38Z</time>
      </trkpt>
      <trkpt lat="46.44353" lon="-1.66785">
        <ele>13.2</ele>
        <time>2020-06-03T10:54:39Z</time>
      </trkpt>
      <trkpt lat="46.44355" lon="-1.6679">
        <ele>13.2</ele>
        <time>2020-06-03T10:54:40Z</time>
      </trkpt>
      <trkpt lat="46.44358" lon="-1.66794">
        <ele>13.3</ele>
        <time>2020-06-03T10:54:41Z</time>
      </trkpt>
      <trkpt lat="46.44361" lon="-1.66799">
        <ele>13.3</ele>
        <time>2020-06-03T10:54:42Z</time>
      </trkpt>
      <trkpt lat="46.44364" lon="-1.66804">
        <ele>13.3</ele>
        <time>2020-06-03T10:54:43Z</time>
      </trkpt>
      <trkpt lat="46.44367" lon="-1.66809">
        <ele>13.3</ele>
        <time>2020-06-03T10:54:44Z</time>
      </trkpt>
      <trkpt lat="46.44369" lon="-1.66814">
        <ele>13.4</ele>
        <time>2020-06-03T10:54:45Z</time>
      </trkpt>
      <trkpt lat="46.44372" lon="-1.66819">
        <ele>13.4</ele>
        <time>2020-06-03T10:54:46Z</time>
      </trkpt>
      <trkpt lat="46.44375" lon="-1.66825">
        <ele>13.4</ele>
        <time>2020-06-03T10:54:47Z</time>
      </trkpt>
      <trkpt lat="46.44377" lon="-1.66831">
        <ele>13.4</ele>
        <time>2020-06-03T10:54:48Z</time>
      </trkpt>
      <trkpt lat="46.44379" lon="-1.66836">
        <ele>13.4</ele>
        <time>2020-06-03T10:54:49Z</time>
      </trkpt>
      <trkpt lat="46.44382" lon="-1.66841">
        <ele>13.4</ele>
        <time>2020-06-03T10:54:50Z</time>
      </trkpt>
      <trkpt lat="46.44384" lon="-1.66845">
        <ele>13.4</ele>
        <time>2020-06-03T10:54:51Z</time>
      </trkpt>
      <trkpt lat="46.44386" lon="-1.66848">
        <ele>13.4</ele>
        <time>2020-06-03T10:54:52Z</time>
      </trkpt>
      <trkpt lat="46.44389" lon="-1.66852">
        <ele>13.4</ele>
        <time>2020-06-03T10:54:53Z</time>
      </trkpt>
      <trkpt lat="46.44392" lon="-1.66856">
        <ele>13.4</ele>
        <time>2020-06-03T10:54:54Z</time>
      </trkpt>
      <trkpt lat="46.44394" lon="-1.66861">
        <ele>13.4</ele>
        <time>2020-06-03T10:54:55Z</time>
      </trkpt>
      <trkpt lat="46.44396" lon="-1.66866">
        <ele>13.3</ele>
        <time>2020-06-03T10:54:56Z</time>
      </trkpt>
      <trkpt lat="46.44398" lon="-1.66871">
        <ele>13.3</ele>
        <time>2020-06-03T10:54:57Z</time>
      </trkpt>
      <trkpt lat="46.44401" lon="-1.66875">
        <ele>13.3</ele>
        <time>2020-06-03T10:54:58Z</time>
      </trkpt>
      <trkpt lat="46.44403" lon="-1.66881">
        <ele>13.3</ele>
        <time>2020-06-03T10:54:59Z</time>
      </trkpt>
      <trkpt lat="46.44405" lon="-1.66885">
        <ele>13.3</ele>
        <time>2020-06-03T10:55:00Z</time>
      </trkpt>
      <trkpt lat="46.44408" lon="-1.6689">
        <ele>13.2</ele>
        <time>2020-06-03T10:55:01Z</time>
      </trkpt>
      <trkpt lat="46.4441" lon="-1.66895">
        <ele>13.2</ele>
        <time>2020-06-03T10:55:02Z</time>
      </trkpt>
      <trkpt lat="46.44413" lon="-1.669">
        <ele>13.2</ele>
        <time>2020-06-03T10:55:03Z</time>
      </trkpt>
      <trkpt lat="46.44416" lon="-1.66904">
        <ele>13.2</ele>
        <time>2020-06-03T10:55:04Z</time>
      </trkpt>
      <trkpt lat="46.44419" lon="-1.66909">
        <ele>13.2</ele>
        <time>2020-06-03T10:55:05Z</time>
      </trkpt>
      <trkpt lat="46.44421" lon="-1.66913">
        <ele>13.1</ele>
        <time>2020-06-03T10:55:06Z</time>
      </trkpt>
      <trkpt lat="46.44422" lon="-1.66918">
        <ele>13.1</ele>
        <time>2020-06-03T10:55:07Z</time>
      </trkpt>
      <trkpt lat="46.44424" lon="-1.66923">
        <ele>13.1</ele>
        <time>2020-06-03T10:55:08Z</time>
      </trkpt>
      <trkpt lat="46.44427" lon="-1.66929">
        <ele>13.1</ele>
        <time>2020-06-03T10:55:09Z</time>
      </trkpt>
      <trkpt lat="46.44429" lon="-1.66932">
        <ele>13.1</ele>
        <time>2020-06-03T10:55:10Z</time>
      </trkpt>
      <trkpt lat="46.44431" lon="-1.66936">
        <ele>13.1</ele>
        <time>2020-06-03T10:55:11Z</time>
      </trkpt>
      <trkpt lat="46.44433" lon="-1.66939">
        <ele>13.1</ele>
        <time>2020-06-03T10:55:12Z</time>
      </trkpt>
      <trkpt lat="46.44435" lon="-1.66942">
        <ele>13.1</ele>
        <time>2020-06-03T10:55:13Z</time>
      </trkpt>
      <trkpt lat="46.44438" lon="-1.66944">
        <ele>13.1</ele>
        <time>2020-06-03T10:55:14Z</time>
      </trkpt>
      <trkpt lat="46.44441" lon="-1.66946">
        <ele>13.1</ele>
        <time>2020-06-03T10:55:15Z</time>
      </trkpt>
      <trkpt lat="46.44443" lon="-1.66949">
        <ele>13.1</ele>
        <time>2020-06-03T10:55:16Z</time>
      </trkpt>
      <trkpt lat="46.44444" lon="-1.66953">
        <ele>13.1</ele>
        <time>2020-06-03T10:55:17Z</time>
      </trkpt>
      <trkpt lat="46.44445" lon="-1.66959">
        <ele>13.1</ele>
        <time>2020-06-03T10:55:18Z</time>
      </trkpt>
      <trkpt lat="46.44444" lon="-1.66965">
        <ele>13.1</ele>
        <time>2020-06-03T10:55:19Z</time>
      </trkpt>
      <trkpt lat="46.44442" lon="-1.66969">
        <ele>13.1</ele>
        <time>2020-06-03T10:55:20Z</time>
      </trkpt>
      <trkpt lat="46.4444" lon="-1.66974">
        <ele>13.1</ele>
        <time>2020-06-03T10:55:21Z</time>
      </trkpt>
      <trkpt lat="46.44439" lon="-1.66979">
        <ele>13.1</ele>
        <time>2020-06-03T10:55:22Z</time>
      </trkpt>
      <trkpt lat="46.44438" lon="-1.66984">
        <ele>13.1</ele>
        <time>2020-06-03T10:55:23Z</time>
      </trkpt>
      <trkpt lat="46.44437" lon="-1.6699">
        <ele>13.1</ele>
        <time>2020-06-03T10:55:24Z</time>
      </trkpt>
      <trkpt lat="46.44436" lon="-1.66995">
        <ele>13.1</ele>
        <time>2020-06-03T10:55:25Z</time>
      </trkpt>
      <trkpt lat="46.44436" lon="-1.67">
        <ele>13.1</ele>
        <time>2020-06-03T10:55:26Z</time>
      </trkpt>
      <trkpt lat="46.44436" lon="-1.67006">
        <ele>13.1</ele>
        <time>2020-06-03T10:55:27Z</time>
      </trkpt>
      <trkpt lat="46.44437" lon="-1.67012">
        <ele>13.1</ele>
        <time>2020-06-03T10:55:28Z</time>
      </trkpt>
      <trkpt lat="46.44436" lon="-1.67018">
        <ele>13.2</ele>
        <time>2020-06-03T10:55:29Z</time>
      </trkpt>
      <trkpt lat="46.44435" lon="-1.67023">
        <ele>13.4</ele>
        <time>2020-06-03T10:55:30Z</time>
      </trkpt>
      <trkpt lat="46.44434" lon="-1.67027">
        <ele>13.5</ele>
        <time>2020-06-03T10:55:31Z</time>
      </trkpt>
      <trkpt lat="46.44435" lon="-1.67032">
        <ele>13.6</ele>
        <time>2020-06-03T10:55:32Z</time>
      </trkpt>
      <trkpt lat="46.44436" lon="-1.67033">
        <ele>13.6</ele>
        <time>2020-06-03T10:55:33Z</time>
      </trkpt>
      <trkpt lat="46.44438" lon="-1.67036">
        <ele>13.6</ele>
        <time>2020-06-03T10:55:34Z</time>
      </trkpt>
      <trkpt lat="46.44439" lon="-1.6704">
        <ele>13.6</ele>
        <time>2020-06-03T10:55:35Z</time>
      </trkpt>
      <trkpt lat="46.4444" lon="-1.67046">
        <ele>13.6</ele>
        <time>2020-06-03T10:55:36Z</time>
      </trkpt>
      <trkpt lat="46.4444" lon="-1.67051">
        <ele>13.6</ele>
        <time>2020-06-03T10:55:37Z</time>
      </trkpt>
      <trkpt lat="46.44441" lon="-1.67056">
        <ele>13.7</ele>
        <time>2020-06-03T10:55:38Z</time>
      </trkpt>
      <trkpt lat="46.44441" lon="-1.67061">
        <ele>13.7</ele>
        <time>2020-06-03T10:55:39Z</time>
      </trkpt>
      <trkpt lat="46.44441" lon="-1.67067">
        <ele>13.7</ele>
        <time>2020-06-03T10:55:40Z</time>
      </trkpt>
      <trkpt lat="46.44442" lon="-1.67074">
        <ele>13.7</ele>
        <time>2020-06-03T10:55:41Z</time>
      </trkpt>
      <trkpt lat="46.44443" lon="-1.67081">
        <ele>13.7</ele>
        <time>2020-06-03T10:55:42Z</time>
      </trkpt>
      <trkpt lat="46.44444" lon="-1.67087">
        <ele>13.7</ele>
        <time>2020-06-03T10:55:43Z</time>
      </trkpt>
      <trkpt lat="46.44445" lon="-1.67093">
        <ele>13.7</ele>
        <time>2020-06-03T10:55:44Z</time>
      </trkpt>
      <trkpt lat="46.44446" lon="-1.67098">
        <ele>13.7</ele>
        <time>2020-06-03T10:55:45Z</time>
      </trkpt>
      <trkpt lat="46.44448" lon="-1.67103">
        <ele>13.7</ele>
        <time>2020-06-03T10:55:46Z</time>
      </trkpt>
      <trkpt lat="46.44449" lon="-1.67109">
        <ele>13.7</ele>
        <time>2020-06-03T10:55:47Z</time>
      </trkpt>
      <trkpt lat="46.44451" lon="-1.67115">
        <ele>13.7</ele>
        <time>2020-06-03T10:55:48Z</time>
      </trkpt>
      <trkpt lat="46.44452" lon="-1.67121">
        <ele>13.7</ele>
        <time>2020-06-03T10:55:49Z</time>
      </trkpt>
      <trkpt lat="46.44454" lon="-1.67127">
        <ele>13.7</ele>
        <time>2020-06-03T10:55:50Z</time>
      </trkpt>
      <trkpt lat="46.44456" lon="-1.67132">
        <ele>13.7</ele>
        <time>2020-06-03T10:55:51Z</time>
      </trkpt>
      <trkpt lat="46.44458" lon="-1.67138">
        <ele>13.7</ele>
        <time>2020-06-03T10:55:52Z</time>
      </trkpt>
      <trkpt lat="46.4446" lon="-1.67145">
        <ele>13.7</ele>
        <time>2020-06-03T10:55:53Z</time>
      </trkpt>
      <trkpt lat="46.44462" lon="-1.67151">
        <ele>13.7</ele>
        <time>2020-06-03T10:55:54Z</time>
      </trkpt>
      <trkpt lat="46.44465" lon="-1.67156">
        <ele>13.7</ele>
        <time>2020-06-03T10:55:55Z</time>
      </trkpt>
      <trkpt lat="46.44467" lon="-1.67161">
        <ele>13.7</ele>
        <time>2020-06-03T10:55:56Z</time>
      </trkpt>
      <trkpt lat="46.44469" lon="-1.67166">
        <ele>13.7</ele>
        <time>2020-06-03T10:55:57Z</time>
      </trkpt>
      <trkpt lat="46.4447" lon="-1.67171">
        <ele>13.6</ele>
        <time>2020-06-03T10:55:58Z</time>
      </trkpt>
      <trkpt lat="46.44472" lon="-1.67176">
        <ele>13.6</ele>
        <time>2020-06-03T10:55:59Z</time>
      </trkpt>
      <trkpt lat="46.44473" lon="-1.6718">
        <ele>13.6</ele>
        <time>2020-06-03T10:56:00Z</time>
      </trkpt>
      <trkpt lat="46.44474" lon="-1.67185">
        <ele>13.6</ele>
        <time>2020-06-03T10:56:01Z</time>
      </trkpt>
      <trkpt lat="46.44476" lon="-1.67189">
        <ele>13.6</ele>
        <time>2020-06-03T10:56:02Z</time>
      </trkpt>
      <trkpt lat="46.44477" lon="-1.67194">
        <ele>13.6</ele>
        <time>2020-06-03T10:56:03Z</time>
      </trkpt>
      <trkpt lat="46.44479" lon="-1.67199">
        <ele>13.6</ele>
        <time>2020-06-03T10:56:04Z</time>
      </trkpt>
      <trkpt lat="46.44482" lon="-1.67202">
        <ele>13.6</ele>
        <time>2020-06-03T10:56:05Z</time>
      </trkpt>
      <trkpt lat="46.44484" lon="-1.67205">
        <ele>13.7</ele>
        <time>2020-06-03T10:56:06Z</time>
      </trkpt>
      <trkpt lat="46.44487" lon="-1.67207">
        <ele>13.7</ele>
        <time>2020-06-03T10:56:07Z</time>
      </trkpt>
      <trkpt lat="46.4449" lon="-1.67209">
        <ele>13.7</ele>
        <time>2020-06-03T10:56:08Z</time>
      </trkpt>
      <trkpt lat="46.44491" lon="-1.6721">
        <ele>13.7</ele>
        <time>2020-06-03T10:56:09Z</time>
      </trkpt>
      <trkpt lat="46.44493" lon="-1.67214">
        <ele>13.7</ele>
        <time>2020-06-03T10:56:10Z</time>
      </trkpt>
      <trkpt lat="46.44494" lon="-1.67216">
        <ele>13.8</ele>
        <time>2020-06-03T10:56:11Z</time>
      </trkpt>
      <trkpt lat="46.44495" lon="-1.67218">
        <ele>13.8</ele>
        <time>2020-06-03T10:56:12Z</time>
      </trkpt>
      <trkpt lat="46.44497" lon="-1.67222">
        <ele>13.8</ele>
        <time>2020-06-03T10:56:13Z</time>
      </trkpt>
      <trkpt lat="46.44498" lon="-1.67226">
        <ele>13.8</ele>
        <time>2020-06-03T10:56:14Z</time>
      </trkpt>
      <trkpt lat="46.445" lon="-1.67231">
        <ele>13.9</ele>
        <time>2020-06-03T10:56:15Z</time>
      </trkpt>
      <trkpt lat="46.44502" lon="-1.67235">
        <ele>13.9</ele>
        <time>2020-06-03T10:56:16Z</time>
      </trkpt>
      <trkpt lat="46.44504" lon="-1.67239">
        <ele>13.9</ele>
        <time>2020-06-03T10:56:17Z</time>
      </trkpt>
      <trkpt lat="46.44507" lon="-1.67244">
        <ele>14</ele>
        <time>2020-06-03T10:56:18Z</time>
      </trkpt>
      <trkpt lat="46.44509" lon="-1.67251">
        <ele>14</ele>
        <time>2020-06-03T10:56:19Z</time>
      </trkpt>
      <trkpt lat="46.44509" lon="-1.67256">
        <ele>14</ele>
        <time>2020-06-03T10:56:20Z</time>
      </trkpt>
      <trkpt lat="46.44509" lon="-1.67261">
        <ele>14.1</ele>
        <time>2020-06-03T10:56:21Z</time>
      </trkpt>
      <trkpt lat="46.4451" lon="-1.67267">
        <ele>14.1</ele>
        <time>2020-06-03T10:56:22Z</time>
      </trkpt>
      <trkpt lat="46.44512" lon="-1.67273">
        <ele>14.1</ele>
        <time>2020-06-03T10:56:23Z</time>
      </trkpt>
      <trkpt lat="46.44514" lon="-1.67278">
        <ele>14.1</ele>
        <time>2020-06-03T10:56:24Z</time>
      </trkpt>
      <trkpt lat="46.44515" lon="-1.67284">
        <ele>14.1</ele>
        <time>2020-06-03T10:56:25Z</time>
      </trkpt>
      <trkpt lat="46.44515" lon="-1.67288">
        <ele>14.1</ele>
        <time>2020-06-03T10:56:26Z</time>
      </trkpt>
      <trkpt lat="46.44515" lon="-1.67294">
        <ele>14.1</ele>
        <time>2020-06-03T10:56:27Z</time>
      </trkpt>
      <trkpt lat="46.44514" lon="-1.67303">
        <ele>14.1</ele>
        <time>2020-06-03T10:56:28Z</time>
      </trkpt>
      <trkpt lat="46.44514" lon="-1.67311">
        <ele>14.1</ele>
        <time>2020-06-03T10:56:29Z</time>
      </trkpt>
      <trkpt lat="46.44514" lon="-1.67317">
        <ele>14.1</ele>
        <time>2020-06-03T10:56:30Z</time>
      </trkpt>
      <trkpt lat="46.44515" lon="-1.67322">
        <ele>14.1</ele>
        <time>2020-06-03T10:56:31Z</time>
      </trkpt>
      <trkpt lat="46.44516" lon="-1.67324">
        <ele>14.1</ele>
        <time>2020-06-03T10:56:32Z</time>
      </trkpt>
      <trkpt lat="46.44517" lon="-1.67326">
        <ele>14.1</ele>
        <time>2020-06-03T10:56:33Z</time>
      </trkpt>
      <trkpt lat="46.44519" lon="-1.6733">
        <ele>14</ele>
        <time>2020-06-03T10:56:34Z</time>
      </trkpt>
      <trkpt lat="46.4452" lon="-1.67331">
        <ele>14</ele>
        <time>2020-06-03T10:56:35Z</time>
      </trkpt>
      <trkpt lat="46.4452" lon="-1.67337">
        <ele>13.9</ele>
        <time>2020-06-03T10:56:36Z</time>
      </trkpt>
      <trkpt lat="46.4452" lon="-1.67339">
        <ele>13.9</ele>
        <time>2020-06-03T10:56:37Z</time>
      </trkpt>
      <trkpt lat="46.44521" lon="-1.67343">
        <ele>13.9</ele>
        <time>2020-06-03T10:56:38Z</time>
      </trkpt>
      <trkpt lat="46.44524" lon="-1.67347">
        <ele>14</ele>
        <time>2020-06-03T10:56:39Z</time>
      </trkpt>
      <trkpt lat="46.44528" lon="-1.67351">
        <ele>14.1</ele>
        <time>2020-06-03T10:56:40Z</time>
      </trkpt>
      <trkpt lat="46.44531" lon="-1.67354">
        <ele>14.1</ele>
        <time>2020-06-03T10:56:41Z</time>
      </trkpt>
      <trkpt lat="46.44534" lon="-1.67356">
        <ele>14.2</ele>
        <time>2020-06-03T10:56:42Z</time>
      </trkpt>
      <trkpt lat="46.44538" lon="-1.67357">
        <ele>14.3</ele>
        <time>2020-06-03T10:56:43Z</time>
      </trkpt>
      <trkpt lat="46.44542" lon="-1.67357">
        <ele>14.4</ele>
        <time>2020-06-03T10:56:44Z</time>
      </trkpt>
      <trkpt lat="46.44545" lon="-1.67359">
        <ele>14.5</ele>
        <time>2020-06-03T10:56:45Z</time>
      </trkpt>
      <trkpt lat="46.44549" lon="-1.67361">
        <ele>14.6</ele>
        <time>2020-06-03T10:56:46Z</time>
      </trkpt>
      <trkpt lat="46.44551" lon="-1.67363">
        <ele>14.6</ele>
        <time>2020-06-03T10:56:47Z</time>
      </trkpt>
      <trkpt lat="46.44554" lon="-1.67365">
        <ele>14.7</ele>
        <time>2020-06-03T10:56:48Z</time>
      </trkpt>
      <trkpt lat="46.44557" lon="-1.67369">
        <ele>14.8</ele>
        <time>2020-06-03T10:56:49Z</time>
      </trkpt>
      <trkpt lat="46.4456" lon="-1.67371">
        <ele>14.9</ele>
        <time>2020-06-03T10:56:50Z</time>
      </trkpt>
      <trkpt lat="46.44561" lon="-1.67372">
        <ele>14.9</ele>
        <time>2020-06-03T10:56:51Z</time>
      </trkpt>
      <trkpt lat="46.44564" lon="-1.67372">
        <ele>14.9</ele>
        <time>2020-06-03T10:56:52Z</time>
      </trkpt>
      <trkpt lat="46.44565" lon="-1.67371">
        <ele>14.9</ele>
        <time>2020-06-03T10:56:53Z</time>
      </trkpt>
      <trkpt lat="46.44567" lon="-1.6737">
        <ele>15</ele>
        <time>2020-06-03T10:56:54Z</time>
      </trkpt>
      <trkpt lat="46.44568" lon="-1.67371">
        <ele>15</ele>
        <time>2020-06-03T10:56:55Z</time>
      </trkpt>
      <trkpt lat="46.4457" lon="-1.67372">
        <ele>15</ele>
        <time>2020-06-03T10:56:56Z</time>
      </trkpt>
      <trkpt lat="46.44571" lon="-1.67375">
        <ele>15</ele>
        <time>2020-06-03T10:56:57Z</time>
      </trkpt>
      <trkpt lat="46.44572" lon="-1.67379">
        <ele>15.1</ele>
        <time>2020-06-03T10:56:58Z</time>
      </trkpt>
      <trkpt lat="46.44572" lon="-1.6738">
        <ele>15.1</ele>
        <time>2020-06-03T10:56:59Z</time>
      </trkpt>
      <trkpt lat="46.44574" lon="-1.67384">
        <ele>15.2</ele>
        <time>2020-06-03T10:57:00Z</time>
      </trkpt>
      <trkpt lat="46.44575" lon="-1.67386">
        <ele>15.2</ele>
        <time>2020-06-03T10:57:01Z</time>
      </trkpt>
      <trkpt lat="46.44576" lon="-1.6739">
        <ele>15.2</ele>
        <time>2020-06-03T10:57:02Z</time>
      </trkpt>
      <trkpt lat="46.44578" lon="-1.67394">
        <ele>15.2</ele>
        <time>2020-06-03T10:57:03Z</time>
      </trkpt>
      <trkpt lat="46.4458" lon="-1.67398">
        <ele>15.2</ele>
        <time>2020-06-03T10:57:04Z</time>
      </trkpt>
      <trkpt lat="46.44582" lon="-1.67402">
        <ele>15.3</ele>
        <time>2020-06-03T10:57:05Z</time>
      </trkpt>
      <trkpt lat="46.44584" lon="-1.67407">
        <ele>15.3</ele>
        <time>2020-06-03T10:57:06Z</time>
      </trkpt>
      <trkpt lat="46.44586" lon="-1.67412">
        <ele>15.3</ele>
        <time>2020-06-03T10:57:07Z</time>
      </trkpt>
      <trkpt lat="46.44588" lon="-1.67417">
        <ele>15.4</ele>
        <time>2020-06-03T10:57:08Z</time>
      </trkpt>
      <trkpt lat="46.4459" lon="-1.67422">
        <ele>15.5</ele>
        <time>2020-06-03T10:57:09Z</time>
      </trkpt>
      <trkpt lat="46.44593" lon="-1.67426">
        <ele>15.5</ele>
        <time>2020-06-03T10:57:10Z</time>
      </trkpt>
      <trkpt lat="46.44595" lon="-1.67432">
        <ele>15.6</ele>
        <time>2020-06-03T10:57:11Z</time>
      </trkpt>
      <trkpt lat="46.44598" lon="-1.67437">
        <ele>15.7</ele>
        <time>2020-06-03T10:57:12Z</time>
      </trkpt>
      <trkpt lat="46.446" lon="-1.67442">
        <ele>15.7</ele>
        <time>2020-06-03T10:57:13Z</time>
      </trkpt>
      <trkpt lat="46.44603" lon="-1.67447">
        <ele>15.8</ele>
        <time>2020-06-03T10:57:14Z</time>
      </trkpt>
      <trkpt lat="46.44605" lon="-1.67452">
        <ele>15.9</ele>
        <time>2020-06-03T10:57:15Z</time>
      </trkpt>
      <trkpt lat="46.44607" lon="-1.67456">
        <ele>15.9</ele>
        <time>2020-06-03T10:57:16Z</time>
      </trkpt>
      <trkpt lat="46.4461" lon="-1.67462">
        <ele>16</ele>
        <time>2020-06-03T10:57:17Z</time>
      </trkpt>
      <trkpt lat="46.44612" lon="-1.67466">
        <ele>16</ele>
        <time>2020-06-03T10:57:18Z</time>
      </trkpt>
      <trkpt lat="46.44615" lon="-1.67471">
        <ele>16.1</ele>
        <time>2020-06-03T10:57:19Z</time>
      </trkpt>
      <trkpt lat="46.44617" lon="-1.67476">
        <ele>16.2</ele>
        <time>2020-06-03T10:57:20Z</time>
      </trkpt>
      <trkpt lat="46.44619" lon="-1.67481">
        <ele>16.2</ele>
        <time>2020-06-03T10:57:21Z</time>
      </trkpt>
      <trkpt lat="46.44622" lon="-1.67485">
        <ele>16.3</ele>
        <time>2020-06-03T10:57:22Z</time>
      </trkpt>
      <trkpt lat="46.44624" lon="-1.6749">
        <ele>16.4</ele>
        <time>2020-06-03T10:57:23Z</time>
      </trkpt>
      <trkpt lat="46.44627" lon="-1.67495">
        <ele>16.4</ele>
        <time>2020-06-03T10:57:24Z</time>
      </trkpt>
      <trkpt lat="46.4463" lon="-1.67499">
        <ele>16.5</ele>
        <time>2020-06-03T10:57:25Z</time>
      </trkpt>
      <trkpt lat="46.44632" lon="-1.67504">
        <ele>16.6</ele>
        <time>2020-06-03T10:57:26Z</time>
      </trkpt>
      <trkpt lat="46.44634" lon="-1.67509">
        <ele>16.7</ele>
        <time>2020-06-03T10:57:27Z</time>
      </trkpt>
      <trkpt lat="46.44636" lon="-1.67513">
        <ele>16.8</ele>
        <time>2020-06-03T10:57:28Z</time>
      </trkpt>
      <trkpt lat="46.44639" lon="-1.67518">
        <ele>16.9</ele>
        <time>2020-06-03T10:57:29Z</time>
      </trkpt>
      <trkpt lat="46.44641" lon="-1.67522">
        <ele>16.9</ele>
        <time>2020-06-03T10:57:30Z</time>
      </trkpt>
      <trkpt lat="46.44644" lon="-1.67526">
        <ele>17</ele>
        <time>2020-06-03T10:57:31Z</time>
      </trkpt>
      <trkpt lat="46.44646" lon="-1.6753">
        <ele>17.1</ele>
        <time>2020-06-03T10:57:32Z</time>
      </trkpt>
      <trkpt lat="46.44648" lon="-1.67534">
        <ele>17.2</ele>
        <time>2020-06-03T10:57:33Z</time>
      </trkpt>
      <trkpt lat="46.4465" lon="-1.67539">
        <ele>17.2</ele>
        <time>2020-06-03T10:57:34Z</time>
      </trkpt>
      <trkpt lat="46.44652" lon="-1.67543">
        <ele>17.3</ele>
        <time>2020-06-03T10:57:35Z</time>
      </trkpt>
      <trkpt lat="46.44654" lon="-1.67547">
        <ele>17.4</ele>
        <time>2020-06-03T10:57:36Z</time>
      </trkpt>
      <trkpt lat="46.44656" lon="-1.67552">
        <ele>17.5</ele>
        <time>2020-06-03T10:57:37Z</time>
      </trkpt>
      <trkpt lat="46.44658" lon="-1.67557">
        <ele>17.5</ele>
        <time>2020-06-03T10:57:38Z</time>
      </trkpt>
      <trkpt lat="46.4466" lon="-1.67562">
        <ele>17.6</ele>
        <time>2020-06-03T10:57:39Z</time>
      </trkpt>
      <trkpt lat="46.44662" lon="-1.67567">
        <ele>17.7</ele>
        <time>2020-06-03T10:57:40Z</time>
      </trkpt>
      <trkpt lat="46.44664" lon="-1.67572">
        <ele>17.7</ele>
        <time>2020-06-03T10:57:41Z</time>
      </trkpt>
      <trkpt lat="46.44667" lon="-1.67577">
        <ele>17.8</ele>
        <time>2020-06-03T10:57:42Z</time>
      </trkpt>
      <trkpt lat="46.44669" lon="-1.67582">
        <ele>17.9</ele>
        <time>2020-06-03T10:57:43Z</time>
      </trkpt>
      <trkpt lat="46.44672" lon="-1.67587">
        <ele>18</ele>
        <time>2020-06-03T10:57:44Z</time>
      </trkpt>
      <trkpt lat="46.44674" lon="-1.67592">
        <ele>18.1</ele>
        <time>2020-06-03T10:57:45Z</time>
      </trkpt>
      <trkpt lat="46.44676" lon="-1.67598">
        <ele>18.1</ele>
        <time>2020-06-03T10:57:46Z</time>
      </trkpt>
      <trkpt lat="46.44677" lon="-1.67603">
        <ele>18.2</ele>
        <time>2020-06-03T10:57:47Z</time>
      </trkpt>
      <trkpt lat="46.44679" lon="-1.67609">
        <ele>18.3</ele>
        <time>2020-06-03T10:57:48Z</time>
      </trkpt>
      <trkpt lat="46.44681" lon="-1.67614">
        <ele>18.4</ele>
        <time>2020-06-03T10:57:49Z</time>
      </trkpt>
      <trkpt lat="46.44683" lon="-1.6762">
        <ele>18.5</ele>
        <time>2020-06-03T10:57:50Z</time>
      </trkpt>
      <trkpt lat="46.44685" lon="-1.67625">
        <ele>18.6</ele>
        <time>2020-06-03T10:57:51Z</time>
      </trkpt>
      <trkpt lat="46.44687" lon="-1.67631">
        <ele>18.7</ele>
        <time>2020-06-03T10:57:52Z</time>
      </trkpt>
      <trkpt lat="46.44688" lon="-1.67636">
        <ele>18.7</ele>
        <time>2020-06-03T10:57:53Z</time>
      </trkpt>
      <trkpt lat="46.4469" lon="-1.67642">
        <ele>18.8</ele>
        <time>2020-06-03T10:57:54Z</time>
      </trkpt>
      <trkpt lat="46.44692" lon="-1.67647">
        <ele>18.9</ele>
        <time>2020-06-03T10:57:55Z</time>
      </trkpt>
      <trkpt lat="46.44693" lon="-1.67653">
        <ele>18.9</ele>
        <time>2020-06-03T10:57:56Z</time>
      </trkpt>
      <trkpt lat="46.44695" lon="-1.67658">
        <ele>19</ele>
        <time>2020-06-03T10:57:57Z</time>
      </trkpt>
      <trkpt lat="46.44696" lon="-1.67663">
        <ele>19.1</ele>
        <time>2020-06-03T10:57:58Z</time>
      </trkpt>
      <trkpt lat="46.44696" lon="-1.67668">
        <ele>19.1</ele>
        <time>2020-06-03T10:57:59Z</time>
      </trkpt>
      <trkpt lat="46.44697" lon="-1.67673">
        <ele>19.2</ele>
        <time>2020-06-03T10:58:00Z</time>
      </trkpt>
      <trkpt lat="46.44698" lon="-1.67677">
        <ele>19.2</ele>
        <time>2020-06-03T10:58:01Z</time>
      </trkpt>
      <trkpt lat="46.44699" lon="-1.67681">
        <ele>19.3</ele>
        <time>2020-06-03T10:58:02Z</time>
      </trkpt>
      <trkpt lat="46.447" lon="-1.67686">
        <ele>19.3</ele>
        <time>2020-06-03T10:58:03Z</time>
      </trkpt>
      <trkpt lat="46.44701" lon="-1.6769">
        <ele>19.4</ele>
        <time>2020-06-03T10:58:04Z</time>
      </trkpt>
      <trkpt lat="46.44702" lon="-1.67695">
        <ele>19.4</ele>
        <time>2020-06-03T10:58:05Z</time>
      </trkpt>
      <trkpt lat="46.44703" lon="-1.67701">
        <ele>19.5</ele>
        <time>2020-06-03T10:58:06Z</time>
      </trkpt>
      <trkpt lat="46.44705" lon="-1.67707">
        <ele>19.5</ele>
        <time>2020-06-03T10:58:07Z</time>
      </trkpt>
      <trkpt lat="46.44706" lon="-1.67713">
        <ele>19.6</ele>
        <time>2020-06-03T10:58:08Z</time>
      </trkpt>
      <trkpt lat="46.44706" lon="-1.67719">
        <ele>19.6</ele>
        <time>2020-06-03T10:58:09Z</time>
      </trkpt>
      <trkpt lat="46.44706" lon="-1.67724">
        <ele>19.6</ele>
        <time>2020-06-03T10:58:10Z</time>
      </trkpt>
      <trkpt lat="46.44707" lon="-1.67729">
        <ele>19.6</ele>
        <time>2020-06-03T10:58:11Z</time>
      </trkpt>
      <trkpt lat="46.44707" lon="-1.67735">
        <ele>19.7</ele>
        <time>2020-06-03T10:58:12Z</time>
      </trkpt>
      <trkpt lat="46.44708" lon="-1.6774">
        <ele>19.7</ele>
        <time>2020-06-03T10:58:13Z</time>
      </trkpt>
      <trkpt lat="46.44708" lon="-1.67745">
        <ele>19.7</ele>
        <time>2020-06-03T10:58:14Z</time>
      </trkpt>
      <trkpt lat="46.44708" lon="-1.67751">
        <ele>19.7</ele>
        <time>2020-06-03T10:58:15Z</time>
      </trkpt>
      <trkpt lat="46.44709" lon="-1.67758">
        <ele>19.7</ele>
        <time>2020-06-03T10:58:16Z</time>
      </trkpt>
      <trkpt lat="46.44709" lon="-1.67764">
        <ele>19.8</ele>
        <time>2020-06-03T10:58:17Z</time>
      </trkpt>
      <trkpt lat="46.44709" lon="-1.67769">
        <ele>19.8</ele>
        <time>2020-06-03T10:58:18Z</time>
      </trkpt>
      <trkpt lat="46.44708" lon="-1.67775">
        <ele>19.8</ele>
        <time>2020-06-03T10:58:19Z</time>
      </trkpt>
      <trkpt lat="46.44708" lon="-1.67781">
        <ele>19.8</ele>
        <time>2020-06-03T10:58:20Z</time>
      </trkpt>
      <trkpt lat="46.44708" lon="-1.67787">
        <ele>19.8</ele>
        <time>2020-06-03T10:58:21Z</time>
      </trkpt>
      <trkpt lat="46.44708" lon="-1.67793">
        <ele>19.9</ele>
        <time>2020-06-03T10:58:22Z</time>
      </trkpt>
      <trkpt lat="46.44708" lon="-1.67798">
        <ele>19.9</ele>
        <time>2020-06-03T10:58:23Z</time>
      </trkpt>
      <trkpt lat="46.44709" lon="-1.67804">
        <ele>19.9</ele>
        <time>2020-06-03T10:58:24Z</time>
      </trkpt>
      <trkpt lat="46.44709" lon="-1.67809">
        <ele>19.8</ele>
        <time>2020-06-03T10:58:25Z</time>
      </trkpt>
      <trkpt lat="46.44709" lon="-1.67815">
        <ele>19.8</ele>
        <time>2020-06-03T10:58:26Z</time>
      </trkpt>
      <trkpt lat="46.44709" lon="-1.67819">
        <ele>19.8</ele>
        <time>2020-06-03T10:58:27Z</time>
      </trkpt>
      <trkpt lat="46.44708" lon="-1.67824">
        <ele>19.8</ele>
        <time>2020-06-03T10:58:28Z</time>
      </trkpt>
      <trkpt lat="46.44708" lon="-1.67829">
        <ele>19.8</ele>
        <time>2020-06-03T10:58:29Z</time>
      </trkpt>
      <trkpt lat="46.44707" lon="-1.67834">
        <ele>19.7</ele>
        <time>2020-06-03T10:58:30Z</time>
      </trkpt>
      <trkpt lat="46.44707" lon="-1.67841">
        <ele>19.7</ele>
        <time>2020-06-03T10:58:31Z</time>
      </trkpt>
      <trkpt lat="46.44706" lon="-1.67848">
        <ele>19.7</ele>
        <time>2020-06-03T10:58:32Z</time>
      </trkpt>
      <trkpt lat="46.44704" lon="-1.67856">
        <ele>19.7</ele>
        <time>2020-06-03T10:58:33Z</time>
      </trkpt>
      <trkpt lat="46.44703" lon="-1.67863">
        <ele>19.8</ele>
        <time>2020-06-03T10:58:34Z</time>
      </trkpt>
      <trkpt lat="46.44702" lon="-1.67867">
        <ele>19.8</ele>
        <time>2020-06-03T10:58:35Z</time>
      </trkpt>
      <trkpt lat="46.44702" lon="-1.67873">
        <ele>19.8</ele>
        <time>2020-06-03T10:58:36Z</time>
      </trkpt>
      <trkpt lat="46.44701" lon="-1.67875">
        <ele>19.8</ele>
        <time>2020-06-03T10:58:37Z</time>
      </trkpt>
      <trkpt lat="46.44699" lon="-1.67878">
        <ele>19.8</ele>
        <time>2020-06-03T10:58:38Z</time>
      </trkpt>
      <trkpt lat="46.44698" lon="-1.67879">
        <ele>19.9</ele>
        <time>2020-06-03T10:58:39Z</time>
      </trkpt>
      <trkpt lat="46.44697" lon="-1.67883">
        <ele>19.9</ele>
        <time>2020-06-03T10:58:40Z</time>
      </trkpt>
      <trkpt lat="46.44696" lon="-1.67885">
        <ele>19.9</ele>
        <time>2020-06-03T10:58:41Z</time>
      </trkpt>
      <trkpt lat="46.44696" lon="-1.67887">
        <ele>19.9</ele>
        <time>2020-06-03T10:58:42Z</time>
      </trkpt>
      <trkpt lat="46.44696" lon="-1.6789">
        <ele>19.9</ele>
        <time>2020-06-03T10:58:43Z</time>
      </trkpt>
      <trkpt lat="46.44696" lon="-1.67894">
        <ele>19.9</ele>
        <time>2020-06-03T10:58:44Z</time>
      </trkpt>
      <trkpt lat="46.44696" lon="-1.67896">
        <ele>20</ele>
        <time>2020-06-03T10:58:45Z</time>
      </trkpt>
      <trkpt lat="46.44697" lon="-1.679">
        <ele>20.1</ele>
        <time>2020-06-03T10:58:46Z</time>
      </trkpt>
      <trkpt lat="46.44697" lon="-1.679">
        <ele>20.1</ele>
        <time>2020-06-03T10:58:47Z</time>
      </trkpt>
      <trkpt lat="46.44697" lon="-1.67905">
        <ele>20.2</ele>
        <time>2020-06-03T10:58:48Z</time>
      </trkpt>
      <trkpt lat="46.44697" lon="-1.67907">
        <ele>20.2</ele>
        <time>2020-06-03T10:58:49Z</time>
      </trkpt>
      <trkpt lat="46.44697" lon="-1.67912">
        <ele>20.3</ele>
        <time>2020-06-03T10:58:50Z</time>
      </trkpt>
      <trkpt lat="46.44697" lon="-1.67913">
        <ele>20.3</ele>
        <time>2020-06-03T10:58:51Z</time>
      </trkpt>
      <trkpt lat="46.44699" lon="-1.67918">
        <ele>20.4</ele>
        <time>2020-06-03T10:58:52Z</time>
      </trkpt>
      <trkpt lat="46.447" lon="-1.6792">
        <ele>20.4</ele>
        <time>2020-06-03T10:58:53Z</time>
      </trkpt>
      <trkpt lat="46.447" lon="-1.67924">
        <ele>20.4</ele>
        <time>2020-06-03T10:58:54Z</time>
      </trkpt>
      <trkpt lat="46.44699" lon="-1.67929">
        <ele>20.5</ele>
        <time>2020-06-03T10:58:55Z</time>
      </trkpt>
      <trkpt lat="46.447" lon="-1.67931">
        <ele>20.5</ele>
        <time>2020-06-03T10:58:56Z</time>
      </trkpt>
      <trkpt lat="46.44699" lon="-1.67932">
        <ele>20.6</ele>
        <time>2020-06-03T10:58:57Z</time>
      </trkpt>
      <trkpt lat="46.44699" lon="-1.67933">
        <ele>20.6</ele>
        <time>2020-06-03T10:58:58Z</time>
      </trkpt>
      <trkpt lat="46.44699" lon="-1.67933">
        <ele>20.6</ele>
        <time>2020-06-03T10:58:59Z</time>
      </trkpt>
      <trkpt lat="46.44701" lon="-1.67935">
        <ele>20.6</ele>
        <time>2020-06-03T10:59:00Z</time>
      </trkpt>
      <trkpt lat="46.44702" lon="-1.67936">
        <ele>20.7</ele>
        <time>2020-06-03T10:59:01Z</time>
      </trkpt>
      <trkpt lat="46.44704" lon="-1.67937">
        <ele>20.7</ele>
        <time>2020-06-03T10:59:02Z</time>
      </trkpt>
      <trkpt lat="46.44706" lon="-1.6794">
        <ele>20.9</ele>
        <time>2020-06-03T10:59:03Z</time>
      </trkpt>
      <trkpt lat="46.44707" lon="-1.67944">
        <ele>20.9</ele>
        <time>2020-06-03T10:59:04Z</time>
      </trkpt>
      <trkpt lat="46.44707" lon="-1.67949">
        <ele>21</ele>
        <time>2020-06-03T10:59:05Z</time>
      </trkpt>
      <trkpt lat="46.44707" lon="-1.67951">
        <ele>21</ele>
        <time>2020-06-03T10:59:06Z</time>
      </trkpt>
      <trkpt lat="46.44707" lon="-1.67956">
        <ele>21.1</ele>
        <time>2020-06-03T10:59:07Z</time>
      </trkpt>
      <trkpt lat="46.44706" lon="-1.6796">
        <ele>21.1</ele>
        <time>2020-06-03T10:59:08Z</time>
      </trkpt>
      <trkpt lat="46.44706" lon="-1.67964">
        <ele>21.1</ele>
        <time>2020-06-03T10:59:09Z</time>
      </trkpt>
      <trkpt lat="46.44705" lon="-1.67969">
        <ele>21.2</ele>
        <time>2020-06-03T10:59:10Z</time>
      </trkpt>
      <trkpt lat="46.44705" lon="-1.67974">
        <ele>21.2</ele>
        <time>2020-06-03T10:59:11Z</time>
      </trkpt>
      <trkpt lat="46.44705" lon="-1.67979">
        <ele>21.3</ele>
        <time>2020-06-03T10:59:12Z</time>
      </trkpt>
      <trkpt lat="46.44705" lon="-1.67986">
        <ele>21.3</ele>
        <time>2020-06-03T10:59:13Z</time>
      </trkpt>
      <trkpt lat="46.44705" lon="-1.67992">
        <ele>21.3</ele>
        <time>2020-06-03T10:59:14Z</time>
      </trkpt>
      <trkpt lat="46.44704" lon="-1.67999">
        <ele>21.4</ele>
        <time>2020-06-03T10:59:15Z</time>
      </trkpt>
      <trkpt lat="46.44704" lon="-1.68004">
        <ele>21.4</ele>
        <time>2020-06-03T10:59:16Z</time>
      </trkpt>
      <trkpt lat="46.44705" lon="-1.6801">
        <ele>21.5</ele>
        <time>2020-06-03T10:59:17Z</time>
      </trkpt>
      <trkpt lat="46.44705" lon="-1.68016">
        <ele>21.5</ele>
        <time>2020-06-03T10:59:18Z</time>
      </trkpt>
      <trkpt lat="46.44705" lon="-1.68023">
        <ele>21.6</ele>
        <time>2020-06-03T10:59:19Z</time>
      </trkpt>
      <trkpt lat="46.44705" lon="-1.68029">
        <ele>21.6</ele>
        <time>2020-06-03T10:59:20Z</time>
      </trkpt>
      <trkpt lat="46.44705" lon="-1.68035">
        <ele>21.7</ele>
        <time>2020-06-03T10:59:21Z</time>
      </trkpt>
      <trkpt lat="46.44705" lon="-1.68041">
        <ele>21.7</ele>
        <time>2020-06-03T10:59:22Z</time>
      </trkpt>
      <trkpt lat="46.44705" lon="-1.68047">
        <ele>21.7</ele>
        <time>2020-06-03T10:59:23Z</time>
      </trkpt>
      <trkpt lat="46.44705" lon="-1.68053">
        <ele>21.8</ele>
        <time>2020-06-03T10:59:24Z</time>
      </trkpt>
      <trkpt lat="46.44705" lon="-1.68059">
        <ele>21.8</ele>
        <time>2020-06-03T10:59:25Z</time>
      </trkpt>
      <trkpt lat="46.44705" lon="-1.68065">
        <ele>21.8</ele>
        <time>2020-06-03T10:59:26Z</time>
      </trkpt>
      <trkpt lat="46.44705" lon="-1.68071">
        <ele>21.8</ele>
        <time>2020-06-03T10:59:27Z</time>
      </trkpt>
      <trkpt lat="46.44706" lon="-1.68078">
        <ele>21.8</ele>
        <time>2020-06-03T10:59:28Z</time>
      </trkpt>
      <trkpt lat="46.44707" lon="-1.68084">
        <ele>21.8</ele>
        <time>2020-06-03T10:59:29Z</time>
      </trkpt>
      <trkpt lat="46.44709" lon="-1.68088">
        <ele>21.9</ele>
        <time>2020-06-03T10:59:30Z</time>
      </trkpt>
      <trkpt lat="46.44711" lon="-1.68094">
        <ele>21.9</ele>
        <time>2020-06-03T10:59:31Z</time>
      </trkpt>
      <trkpt lat="46.44712" lon="-1.68099">
        <ele>22</ele>
        <time>2020-06-03T10:59:32Z</time>
      </trkpt>
      <trkpt lat="46.44712" lon="-1.68104">
        <ele>22</ele>
        <time>2020-06-03T10:59:33Z</time>
      </trkpt>
      <trkpt lat="46.44713" lon="-1.68108">
        <ele>22</ele>
        <time>2020-06-03T10:59:34Z</time>
      </trkpt>
      <trkpt lat="46.44713" lon="-1.68113">
        <ele>22</ele>
        <time>2020-06-03T10:59:35Z</time>
      </trkpt>
      <trkpt lat="46.44714" lon="-1.68118">
        <ele>22.1</ele>
        <time>2020-06-03T10:59:36Z</time>
      </trkpt>
      <trkpt lat="46.44713" lon="-1.68124">
        <ele>22.1</ele>
        <time>2020-06-03T10:59:37Z</time>
      </trkpt>
      <trkpt lat="46.44714" lon="-1.68129">
        <ele>22.1</ele>
        <time>2020-06-03T10:59:38Z</time>
      </trkpt>
      <trkpt lat="46.44716" lon="-1.68134">
        <ele>22.1</ele>
        <time>2020-06-03T10:59:39Z</time>
      </trkpt>
      <trkpt lat="46.44716" lon="-1.6814">
        <ele>22.1</ele>
        <time>2020-06-03T10:59:40Z</time>
      </trkpt>
      <trkpt lat="46.44716" lon="-1.68145">
        <ele>22.1</ele>
        <time>2020-06-03T10:59:41Z</time>
      </trkpt>
      <trkpt lat="46.44716" lon="-1.68151">
        <ele>22.1</ele>
        <time>2020-06-03T10:59:42Z</time>
      </trkpt>
      <trkpt lat="46.44716" lon="-1.68156">
        <ele>22</ele>
        <time>2020-06-03T10:59:43Z</time>
      </trkpt>
      <trkpt lat="46.44717" lon="-1.68163">
        <ele>22</ele>
        <time>2020-06-03T10:59:44Z</time>
      </trkpt>
      <trkpt lat="46.44717" lon="-1.68169">
        <ele>22</ele>
        <time>2020-06-03T10:59:45Z</time>
      </trkpt>
      <trkpt lat="46.44719" lon="-1.68175">
        <ele>22</ele>
        <time>2020-06-03T10:59:46Z</time>
      </trkpt>
      <trkpt lat="46.44719" lon="-1.68181">
        <ele>22</ele>
        <time>2020-06-03T10:59:47Z</time>
      </trkpt>
      <trkpt lat="46.4472" lon="-1.68187">
        <ele>21.9</ele>
        <time>2020-06-03T10:59:48Z</time>
      </trkpt>
      <trkpt lat="46.44721" lon="-1.68193">
        <ele>21.9</ele>
        <time>2020-06-03T10:59:49Z</time>
      </trkpt>
      <trkpt lat="46.44721" lon="-1.68199">
        <ele>21.9</ele>
        <time>2020-06-03T10:59:50Z</time>
      </trkpt>
      <trkpt lat="46.44722" lon="-1.68205">
        <ele>21.8</ele>
        <time>2020-06-03T10:59:51Z</time>
      </trkpt>
      <trkpt lat="46.44724" lon="-1.68211">
        <ele>21.8</ele>
        <time>2020-06-03T10:59:52Z</time>
      </trkpt>
      <trkpt lat="46.44725" lon="-1.68217">
        <ele>21.7</ele>
        <time>2020-06-03T10:59:53Z</time>
      </trkpt>
      <trkpt lat="46.44727" lon="-1.68222">
        <ele>21.6</ele>
        <time>2020-06-03T10:59:54Z</time>
      </trkpt>
      <trkpt lat="46.44728" lon="-1.68229">
        <ele>21.6</ele>
        <time>2020-06-03T10:59:55Z</time>
      </trkpt>
      <trkpt lat="46.4473" lon="-1.68235">
        <ele>21.5</ele>
        <time>2020-06-03T10:59:56Z</time>
      </trkpt>
      <trkpt lat="46.44731" lon="-1.68241">
        <ele>21.4</ele>
        <time>2020-06-03T10:59:57Z</time>
      </trkpt>
      <trkpt lat="46.44733" lon="-1.68247">
        <ele>21.4</ele>
        <time>2020-06-03T10:59:58Z</time>
      </trkpt>
      <trkpt lat="46.44734" lon="-1.68252">
        <ele>21.4</ele>
        <time>2020-06-03T10:59:59Z</time>
      </trkpt>
      <trkpt lat="46.44736" lon="-1.68257">
        <ele>21.3</ele>
        <time>2020-06-03T11:00:00Z</time>
      </trkpt>
      <trkpt lat="46.44737" lon="-1.68262">
        <ele>21.3</ele>
        <time>2020-06-03T11:00:01Z</time>
      </trkpt>
      <trkpt lat="46.44739" lon="-1.68268">
        <ele>21.3</ele>
        <time>2020-06-03T11:00:02Z</time>
      </trkpt>
      <trkpt lat="46.4474" lon="-1.68273">
        <ele>21.2</ele>
        <time>2020-06-03T11:00:03Z</time>
      </trkpt>
      <trkpt lat="46.44742" lon="-1.68278">
        <ele>21.2</ele>
        <time>2020-06-03T11:00:04Z</time>
      </trkpt>
      <trkpt lat="46.44743" lon="-1.68284">
        <ele>21.2</ele>
        <time>2020-06-03T11:00:05Z</time>
      </trkpt>
      <trkpt lat="46.44744" lon="-1.68288">
        <ele>21.2</ele>
        <time>2020-06-03T11:00:06Z</time>
      </trkpt>
      <trkpt lat="46.44745" lon="-1.68294">
        <ele>21.2</ele>
        <time>2020-06-03T11:00:07Z</time>
      </trkpt>
      <trkpt lat="46.44746" lon="-1.68299">
        <ele>21.1</ele>
        <time>2020-06-03T11:00:08Z</time>
      </trkpt>
      <trkpt lat="46.44747" lon="-1.68305">
        <ele>21.1</ele>
        <time>2020-06-03T11:00:09Z</time>
      </trkpt>
      <trkpt lat="46.44748" lon="-1.68311">
        <ele>21</ele>
        <time>2020-06-03T11:00:10Z</time>
      </trkpt>
      <trkpt lat="46.44749" lon="-1.68317">
        <ele>21</ele>
        <time>2020-06-03T11:00:11Z</time>
      </trkpt>
      <trkpt lat="46.44751" lon="-1.68321">
        <ele>20.9</ele>
        <time>2020-06-03T11:00:12Z</time>
      </trkpt>
      <trkpt lat="46.44753" lon="-1.68328">
        <ele>20.8</ele>
        <time>2020-06-03T11:00:13Z</time>
      </trkpt>
      <trkpt lat="46.44756" lon="-1.68334">
        <ele>20.7</ele>
        <time>2020-06-03T11:00:14Z</time>
      </trkpt>
      <trkpt lat="46.44758" lon="-1.68341">
        <ele>20.5</ele>
        <time>2020-06-03T11:00:15Z</time>
      </trkpt>
      <trkpt lat="46.4476" lon="-1.68347">
        <ele>20.4</ele>
        <time>2020-06-03T11:00:16Z</time>
      </trkpt>
      <trkpt lat="46.44761" lon="-1.68355">
        <ele>20.3</ele>
        <time>2020-06-03T11:00:17Z</time>
      </trkpt>
      <trkpt lat="46.44762" lon="-1.68362">
        <ele>20.2</ele>
        <time>2020-06-03T11:00:18Z</time>
      </trkpt>
      <trkpt lat="46.44764" lon="-1.68369">
        <ele>20.1</ele>
        <time>2020-06-03T11:00:19Z</time>
      </trkpt>
      <trkpt lat="46.44767" lon="-1.68375">
        <ele>20</ele>
        <time>2020-06-03T11:00:20Z</time>
      </trkpt>
      <trkpt lat="46.44771" lon="-1.68382">
        <ele>20</ele>
        <time>2020-06-03T11:00:21Z</time>
      </trkpt>
      <trkpt lat="46.44774" lon="-1.68388">
        <ele>20</ele>
        <time>2020-06-03T11:00:22Z</time>
      </trkpt>
      <trkpt lat="46.44777" lon="-1.68393">
        <ele>20</ele>
        <time>2020-06-03T11:00:23Z</time>
      </trkpt>
      <trkpt lat="46.4478" lon="-1.68398">
        <ele>20</ele>
        <time>2020-06-03T11:00:24Z</time>
      </trkpt>
      <trkpt lat="46.44783" lon="-1.68403">
        <ele>20</ele>
        <time>2020-06-03T11:00:25Z</time>
      </trkpt>
      <trkpt lat="46.44786" lon="-1.68408">
        <ele>20</ele>
        <time>2020-06-03T11:00:26Z</time>
      </trkpt>
      <trkpt lat="46.4479" lon="-1.68412">
        <ele>20</ele>
        <time>2020-06-03T11:00:27Z</time>
      </trkpt>
      <trkpt lat="46.44793" lon="-1.68416">
        <ele>19.9</ele>
        <time>2020-06-03T11:00:28Z</time>
      </trkpt>
      <trkpt lat="46.44796" lon="-1.68422">
        <ele>19.9</ele>
        <time>2020-06-03T11:00:29Z</time>
      </trkpt>
      <trkpt lat="46.448" lon="-1.68427">
        <ele>19.9</ele>
        <time>2020-06-03T11:00:30Z</time>
      </trkpt>
      <trkpt lat="46.44803" lon="-1.68432">
        <ele>19.9</ele>
        <time>2020-06-03T11:00:31Z</time>
      </trkpt>
      <trkpt lat="46.44807" lon="-1.68435">
        <ele>19.8</ele>
        <time>2020-06-03T11:00:32Z</time>
      </trkpt>
      <trkpt lat="46.44811" lon="-1.6844">
        <ele>19.8</ele>
        <time>2020-06-03T11:00:33Z</time>
      </trkpt>
      <trkpt lat="46.44815" lon="-1.68443">
        <ele>19.8</ele>
        <time>2020-06-03T11:00:34Z</time>
      </trkpt>
      <trkpt lat="46.44819" lon="-1.68447">
        <ele>19.8</ele>
        <time>2020-06-03T11:00:35Z</time>
      </trkpt>
      <trkpt lat="46.44823" lon="-1.6845">
        <ele>19.8</ele>
        <time>2020-06-03T11:00:36Z</time>
      </trkpt>
      <trkpt lat="46.44827" lon="-1.68453">
        <ele>19.8</ele>
        <time>2020-06-03T11:00:37Z</time>
      </trkpt>
      <trkpt lat="46.44831" lon="-1.68457">
        <ele>19.7</ele>
        <time>2020-06-03T11:00:38Z</time>
      </trkpt>
      <trkpt lat="46.44835" lon="-1.6846">
        <ele>19.7</ele>
        <time>2020-06-03T11:00:39Z</time>
      </trkpt>
      <trkpt lat="46.44839" lon="-1.68464">
        <ele>19.7</ele>
        <time>2020-06-03T11:00:40Z</time>
      </trkpt>
      <trkpt lat="46.44843" lon="-1.68466">
        <ele>19.7</ele>
        <time>2020-06-03T11:00:41Z</time>
      </trkpt>
      <trkpt lat="46.44847" lon="-1.6847">
        <ele>19.7</ele>
        <time>2020-06-03T11:00:42Z</time>
      </trkpt>
      <trkpt lat="46.4485" lon="-1.68473">
        <ele>19.7</ele>
        <time>2020-06-03T11:00:43Z</time>
      </trkpt>
      <trkpt lat="46.44854" lon="-1.68476">
        <ele>19.7</ele>
        <time>2020-06-03T11:00:44Z</time>
      </trkpt>
      <trkpt lat="46.44858" lon="-1.68479">
        <ele>19.7</ele>
        <time>2020-06-03T11:00:45Z</time>
      </trkpt>
      <trkpt lat="46.44862" lon="-1.68482">
        <ele>19.6</ele>
        <time>2020-06-03T11:00:46Z</time>
      </trkpt>
      <trkpt lat="46.44866" lon="-1.68485">
        <ele>19.6</ele>
        <time>2020-06-03T11:00:47Z</time>
      </trkpt>
      <trkpt lat="46.4487" lon="-1.68487">
        <ele>19.6</ele>
        <time>2020-06-03T11:00:48Z</time>
      </trkpt>
      <trkpt lat="46.44874" lon="-1.6849">
        <ele>19.6</ele>
        <time>2020-06-03T11:00:49Z</time>
      </trkpt>
      <trkpt lat="46.44878" lon="-1.68491">
        <ele>19.6</ele>
        <time>2020-06-03T11:00:50Z</time>
      </trkpt>
      <trkpt lat="46.44883" lon="-1.68495">
        <ele>19.5</ele>
        <time>2020-06-03T11:00:51Z</time>
      </trkpt>
      <trkpt lat="46.44887" lon="-1.68498">
        <ele>19.4</ele>
        <time>2020-06-03T11:00:52Z</time>
      </trkpt>
      <trkpt lat="46.44892" lon="-1.68501">
        <ele>19.4</ele>
        <time>2020-06-03T11:00:53Z</time>
      </trkpt>
      <trkpt lat="46.44897" lon="-1.68505">
        <ele>19.3</ele>
        <time>2020-06-03T11:00:54Z</time>
      </trkpt>
      <trkpt lat="46.44902" lon="-1.68508">
        <ele>19.2</ele>
        <time>2020-06-03T11:00:55Z</time>
      </trkpt>
      <trkpt lat="46.44905" lon="-1.68512">
        <ele>19.2</ele>
        <time>2020-06-03T11:00:56Z</time>
      </trkpt>
      <trkpt lat="46.44909" lon="-1.68515">
        <ele>19.1</ele>
        <time>2020-06-03T11:00:57Z</time>
      </trkpt>
      <trkpt lat="46.44912" lon="-1.68518">
        <ele>19.1</ele>
        <time>2020-06-03T11:00:58Z</time>
      </trkpt>
      <trkpt lat="46.44916" lon="-1.68521">
        <ele>19</ele>
        <time>2020-06-03T11:00:59Z</time>
      </trkpt>
      <trkpt lat="46.4492" lon="-1.68525">
        <ele>18.9</ele>
        <time>2020-06-03T11:01:00Z</time>
      </trkpt>
      <trkpt lat="46.44923" lon="-1.68529">
        <ele>18.8</ele>
        <time>2020-06-03T11:01:01Z</time>
      </trkpt>
      <trkpt lat="46.44927" lon="-1.68533">
        <ele>18.7</ele>
        <time>2020-06-03T11:01:02Z</time>
      </trkpt>
      <trkpt lat="46.44932" lon="-1.68537">
        <ele>18.7</ele>
        <time>2020-06-03T11:01:03Z</time>
      </trkpt>
      <trkpt lat="46.44936" lon="-1.68541">
        <ele>18.6</ele>
        <time>2020-06-03T11:01:04Z</time>
      </trkpt>
      <trkpt lat="46.4494" lon="-1.68546">
        <ele>18.5</ele>
        <time>2020-06-03T11:01:05Z</time>
      </trkpt>
      <trkpt lat="46.44945" lon="-1.68551">
        <ele>18.4</ele>
        <time>2020-06-03T11:01:06Z</time>
      </trkpt>
      <trkpt lat="46.44949" lon="-1.68555">
        <ele>18.3</ele>
        <time>2020-06-03T11:01:07Z</time>
      </trkpt>
      <trkpt lat="46.44954" lon="-1.6856">
        <ele>18.2</ele>
        <time>2020-06-03T11:01:08Z</time>
      </trkpt>
      <trkpt lat="46.44959" lon="-1.68564">
        <ele>18</ele>
        <time>2020-06-03T11:01:09Z</time>
      </trkpt>
      <trkpt lat="46.44963" lon="-1.68568">
        <ele>17.9</ele>
        <time>2020-06-03T11:01:10Z</time>
      </trkpt>
      <trkpt lat="46.44968" lon="-1.68571">
        <ele>17.8</ele>
        <time>2020-06-03T11:01:11Z</time>
      </trkpt>
      <trkpt lat="46.44972" lon="-1.68575">
        <ele>17.8</ele>
        <time>2020-06-03T11:01:12Z</time>
      </trkpt>
      <trkpt lat="46.44976" lon="-1.68579">
        <ele>17.7</ele>
        <time>2020-06-03T11:01:13Z</time>
      </trkpt>
      <trkpt lat="46.4498" lon="-1.68583">
        <ele>17.6</ele>
        <time>2020-06-03T11:01:14Z</time>
      </trkpt>
      <trkpt lat="46.44984" lon="-1.68588">
        <ele>17.5</ele>
        <time>2020-06-03T11:01:15Z</time>
      </trkpt>
      <trkpt lat="46.44988" lon="-1.68592">
        <ele>17.5</ele>
        <time>2020-06-03T11:01:16Z</time>
      </trkpt>
      <trkpt lat="46.44992" lon="-1.68597">
        <ele>17.4</ele>
        <time>2020-06-03T11:01:17Z</time>
      </trkpt>
      <trkpt lat="46.44996" lon="-1.68602">
        <ele>17.3</ele>
        <time>2020-06-03T11:01:18Z</time>
      </trkpt>
      <trkpt lat="46.45" lon="-1.68606">
        <ele>17.3</ele>
        <time>2020-06-03T11:01:19Z</time>
      </trkpt>
      <trkpt lat="46.45005" lon="-1.68611">
        <ele>17.2</ele>
        <time>2020-06-03T11:01:20Z</time>
      </trkpt>
      <trkpt lat="46.45009" lon="-1.68615">
        <ele>17.1</ele>
        <time>2020-06-03T11:01:21Z</time>
      </trkpt>
      <trkpt lat="46.45013" lon="-1.68619">
        <ele>17.1</ele>
        <time>2020-06-03T11:01:22Z</time>
      </trkpt>
      <trkpt lat="46.45017" lon="-1.68623">
        <ele>17</ele>
        <time>2020-06-03T11:01:23Z</time>
      </trkpt>
      <trkpt lat="46.4502" lon="-1.68627">
        <ele>16.9</ele>
        <time>2020-06-03T11:01:24Z</time>
      </trkpt>
      <trkpt lat="46.45023" lon="-1.68632">
        <ele>16.8</ele>
        <time>2020-06-03T11:01:25Z</time>
      </trkpt>
      <trkpt lat="46.45027" lon="-1.68637">
        <ele>16.7</ele>
        <time>2020-06-03T11:01:26Z</time>
      </trkpt>
      <trkpt lat="46.4503" lon="-1.68641">
        <ele>16.6</ele>
        <time>2020-06-03T11:01:27Z</time>
      </trkpt>
      <trkpt lat="46.45033" lon="-1.68646">
        <ele>16.5</ele>
        <time>2020-06-03T11:01:28Z</time>
      </trkpt>
      <trkpt lat="46.45037" lon="-1.6865">
        <ele>16.4</ele>
        <time>2020-06-03T11:01:29Z</time>
      </trkpt>
      <trkpt lat="46.4504" lon="-1.68654">
        <ele>16.3</ele>
        <time>2020-06-03T11:01:30Z</time>
      </trkpt>
      <trkpt lat="46.45043" lon="-1.68658">
        <ele>16.2</ele>
        <time>2020-06-03T11:01:31Z</time>
      </trkpt>
      <trkpt lat="46.45046" lon="-1.68662">
        <ele>16.2</ele>
        <time>2020-06-03T11:01:32Z</time>
      </trkpt>
      <trkpt lat="46.45049" lon="-1.68667">
        <ele>16.1</ele>
        <time>2020-06-03T11:01:33Z</time>
      </trkpt>
      <trkpt lat="46.45051" lon="-1.68672">
        <ele>16.1</ele>
        <time>2020-06-03T11:01:34Z</time>
      </trkpt>
      <trkpt lat="46.45054" lon="-1.68678">
        <ele>16</ele>
        <time>2020-06-03T11:01:35Z</time>
      </trkpt>
      <trkpt lat="46.45056" lon="-1.68683">
        <ele>16</ele>
        <time>2020-06-03T11:01:36Z</time>
      </trkpt>
      <trkpt lat="46.45058" lon="-1.68687">
        <ele>16</ele>
        <time>2020-06-03T11:01:37Z</time>
      </trkpt>
      <trkpt lat="46.4506" lon="-1.6869">
        <ele>15.9</ele>
        <time>2020-06-03T11:01:38Z</time>
      </trkpt>
      <trkpt lat="46.45063" lon="-1.68694">
        <ele>15.9</ele>
        <time>2020-06-03T11:01:39Z</time>
      </trkpt>
      <trkpt lat="46.45066" lon="-1.68697">
        <ele>15.8</ele>
        <time>2020-06-03T11:01:40Z</time>
      </trkpt>
      <trkpt lat="46.45067" lon="-1.68702">
        <ele>15.7</ele>
        <time>2020-06-03T11:01:41Z</time>
      </trkpt>
      <trkpt lat="46.45067" lon="-1.68708">
        <ele>15.7</ele>
        <time>2020-06-03T11:01:42Z</time>
      </trkpt>
      <trkpt lat="46.45067" lon="-1.68714">
        <ele>15.5</ele>
        <time>2020-06-03T11:01:43Z</time>
      </trkpt>
      <trkpt lat="46.45068" lon="-1.68722">
        <ele>15.4</ele>
        <time>2020-06-03T11:01:44Z</time>
      </trkpt>
      <trkpt lat="46.45069" lon="-1.68728">
        <ele>15.3</ele>
        <time>2020-06-03T11:01:45Z</time>
      </trkpt>
      <trkpt lat="46.4507" lon="-1.68737">
        <ele>15.2</ele>
        <time>2020-06-03T11:01:46Z</time>
      </trkpt>
      <trkpt lat="46.45071" lon="-1.68744">
        <ele>15.1</ele>
        <time>2020-06-03T11:01:47Z</time>
      </trkpt>
      <trkpt lat="46.45071" lon="-1.68752">
        <ele>14.9</ele>
        <time>2020-06-03T11:01:48Z</time>
      </trkpt>
      <trkpt lat="46.45072" lon="-1.6876">
        <ele>14.8</ele>
        <time>2020-06-03T11:01:49Z</time>
      </trkpt>
      <trkpt lat="46.45072" lon="-1.68767">
        <ele>14.7</ele>
        <time>2020-06-03T11:01:50Z</time>
      </trkpt>
      <trkpt lat="46.45072" lon="-1.68774">
        <ele>14.6</ele>
        <time>2020-06-03T11:01:51Z</time>
      </trkpt>
      <trkpt lat="46.45073" lon="-1.68782">
        <ele>14.5</ele>
        <time>2020-06-03T11:01:52Z</time>
      </trkpt>
      <trkpt lat="46.45073" lon="-1.6879">
        <ele>14.5</ele>
        <time>2020-06-03T11:01:53Z</time>
      </trkpt>
      <trkpt lat="46.45075" lon="-1.68796">
        <ele>14.4</ele>
        <time>2020-06-03T11:01:54Z</time>
      </trkpt>
      <trkpt lat="46.45077" lon="-1.68804">
        <ele>14.3</ele>
        <time>2020-06-03T11:01:55Z</time>
      </trkpt>
      <trkpt lat="46.45079" lon="-1.68811">
        <ele>14.2</ele>
        <time>2020-06-03T11:01:56Z</time>
      </trkpt>
      <trkpt lat="46.45081" lon="-1.68819">
        <ele>14.1</ele>
        <time>2020-06-03T11:01:57Z</time>
      </trkpt>
      <trkpt lat="46.45082" lon="-1.68826">
        <ele>14</ele>
        <time>2020-06-03T11:01:58Z</time>
      </trkpt>
      <trkpt lat="46.45084" lon="-1.68835">
        <ele>13.9</ele>
        <time>2020-06-03T11:01:59Z</time>
      </trkpt>
      <trkpt lat="46.45086" lon="-1.68842">
        <ele>13.9</ele>
        <time>2020-06-03T11:02:00Z</time>
      </trkpt>
      <trkpt lat="46.45087" lon="-1.6885">
        <ele>13.8</ele>
        <time>2020-06-03T11:02:01Z</time>
      </trkpt>
      <trkpt lat="46.45088" lon="-1.68858">
        <ele>13.7</ele>
        <time>2020-06-03T11:02:02Z</time>
      </trkpt>
      <trkpt lat="46.4509" lon="-1.68866">
        <ele>13.6</ele>
        <time>2020-06-03T11:02:03Z</time>
      </trkpt>
      <trkpt lat="46.45091" lon="-1.68874">
        <ele>13.5</ele>
        <time>2020-06-03T11:02:04Z</time>
      </trkpt>
      <trkpt lat="46.45093" lon="-1.68882">
        <ele>13.4</ele>
        <time>2020-06-03T11:02:05Z</time>
      </trkpt>
      <trkpt lat="46.45095" lon="-1.68889">
        <ele>13.3</ele>
        <time>2020-06-03T11:02:06Z</time>
      </trkpt>
      <trkpt lat="46.45096" lon="-1.68896">
        <ele>13.2</ele>
        <time>2020-06-03T11:02:07Z</time>
      </trkpt>
      <trkpt lat="46.45097" lon="-1.68905">
        <ele>13.1</ele>
        <time>2020-06-03T11:02:08Z</time>
      </trkpt>
      <trkpt lat="46.451" lon="-1.68911">
        <ele>13</ele>
        <time>2020-06-03T11:02:09Z</time>
      </trkpt>
      <trkpt lat="46.45103" lon="-1.68918">
        <ele>12.9</ele>
        <time>2020-06-03T11:02:10Z</time>
      </trkpt>
      <trkpt lat="46.45105" lon="-1.68924">
        <ele>12.9</ele>
        <time>2020-06-03T11:02:11Z</time>
      </trkpt>
      <trkpt lat="46.45106" lon="-1.68931">
        <ele>12.8</ele>
        <time>2020-06-03T11:02:12Z</time>
      </trkpt>
      <trkpt lat="46.45107" lon="-1.68938">
        <ele>12.8</ele>
        <time>2020-06-03T11:02:13Z</time>
      </trkpt>
      <trkpt lat="46.45109" lon="-1.68945">
        <ele>12.7</ele>
        <time>2020-06-03T11:02:14Z</time>
      </trkpt>
      <trkpt lat="46.4511" lon="-1.68952">
        <ele>12.6</ele>
        <time>2020-06-03T11:02:15Z</time>
      </trkpt>
      <trkpt lat="46.45112" lon="-1.6896">
        <ele>12.6</ele>
        <time>2020-06-03T11:02:16Z</time>
      </trkpt>
      <trkpt lat="46.45113" lon="-1.68968">
        <ele>12.5</ele>
        <time>2020-06-03T11:02:17Z</time>
      </trkpt>
      <trkpt lat="46.45115" lon="-1.68976">
        <ele>12.5</ele>
        <time>2020-06-03T11:02:18Z</time>
      </trkpt>
      <trkpt lat="46.45117" lon="-1.68983">
        <ele>12.4</ele>
        <time>2020-06-03T11:02:19Z</time>
      </trkpt>
      <trkpt lat="46.45117" lon="-1.68992">
        <ele>12.3</ele>
        <time>2020-06-03T11:02:20Z</time>
      </trkpt>
      <trkpt lat="46.45118" lon="-1.68999">
        <ele>12.3</ele>
        <time>2020-06-03T11:02:21Z</time>
      </trkpt>
      <trkpt lat="46.4512" lon="-1.69007">
        <ele>12.2</ele>
        <time>2020-06-03T11:02:22Z</time>
      </trkpt>
      <trkpt lat="46.45122" lon="-1.69015">
        <ele>12.2</ele>
        <time>2020-06-03T11:02:23Z</time>
      </trkpt>
      <trkpt lat="46.45124" lon="-1.69023">
        <ele>12.1</ele>
        <time>2020-06-03T11:02:24Z</time>
      </trkpt>
      <trkpt lat="46.45126" lon="-1.69032">
        <ele>12</ele>
        <time>2020-06-03T11:02:25Z</time>
      </trkpt>
      <trkpt lat="46.45128" lon="-1.6904">
        <ele>11.9</ele>
        <time>2020-06-03T11:02:26Z</time>
      </trkpt>
      <trkpt lat="46.4513" lon="-1.69048">
        <ele>11.8</ele>
        <time>2020-06-03T11:02:27Z</time>
      </trkpt>
      <trkpt lat="46.45132" lon="-1.69057">
        <ele>11.7</ele>
        <time>2020-06-03T11:02:28Z</time>
      </trkpt>
      <trkpt lat="46.45135" lon="-1.69066">
        <ele>11.6</ele>
        <time>2020-06-03T11:02:29Z</time>
      </trkpt>
      <trkpt lat="46.45136" lon="-1.69075">
        <ele>11.4</ele>
        <time>2020-06-03T11:02:30Z</time>
      </trkpt>
      <trkpt lat="46.45138" lon="-1.69083">
        <ele>11.3</ele>
        <time>2020-06-03T11:02:31Z</time>
      </trkpt>
      <trkpt lat="46.4514" lon="-1.69092">
        <ele>11.2</ele>
        <time>2020-06-03T11:02:32Z</time>
      </trkpt>
      <trkpt lat="46.45143" lon="-1.691">
        <ele>11.1</ele>
        <time>2020-06-03T11:02:33Z</time>
      </trkpt>
      <trkpt lat="46.45145" lon="-1.69109">
        <ele>10.9</ele>
        <time>2020-06-03T11:02:34Z</time>
      </trkpt>
      <trkpt lat="46.45147" lon="-1.69119">
        <ele>10.8</ele>
        <time>2020-06-03T11:02:35Z</time>
      </trkpt>
      <trkpt lat="46.4515" lon="-1.69129">
        <ele>10.6</ele>
        <time>2020-06-03T11:02:36Z</time>
      </trkpt>
      <trkpt lat="46.45152" lon="-1.69141">
        <ele>10.4</ele>
        <time>2020-06-03T11:02:37Z</time>
      </trkpt>
      <trkpt lat="46.45154" lon="-1.69151">
        <ele>10.3</ele>
        <time>2020-06-03T11:02:38Z</time>
      </trkpt>
      <trkpt lat="46.45156" lon="-1.69161">
        <ele>10.1</ele>
        <time>2020-06-03T11:02:39Z</time>
      </trkpt>
      <trkpt lat="46.45159" lon="-1.69171">
        <ele>10</ele>
        <time>2020-06-03T11:02:40Z</time>
      </trkpt>
      <trkpt lat="46.45162" lon="-1.69182">
        <ele>9.9</ele>
        <time>2020-06-03T11:02:41Z</time>
      </trkpt>
      <trkpt lat="46.45165" lon="-1.69194">
        <ele>9.8</ele>
        <time>2020-06-03T11:02:42Z</time>
      </trkpt>
      <trkpt lat="46.45167" lon="-1.69204">
        <ele>9.8</ele>
        <time>2020-06-03T11:02:43Z</time>
      </trkpt>
      <trkpt lat="46.4517" lon="-1.69215">
        <ele>9.8</ele>
        <time>2020-06-03T11:02:44Z</time>
      </trkpt>
      <trkpt lat="46.45173" lon="-1.69225">
        <ele>9.8</ele>
        <time>2020-06-03T11:02:45Z</time>
      </trkpt>
      <trkpt lat="46.45175" lon="-1.69235">
        <ele>9.8</ele>
        <time>2020-06-03T11:02:46Z</time>
      </trkpt>
      <trkpt lat="46.45177" lon="-1.69245">
        <ele>9.8</ele>
        <time>2020-06-03T11:02:47Z</time>
      </trkpt>
      <trkpt lat="46.4518" lon="-1.69255">
        <ele>9.7</ele>
        <time>2020-06-03T11:02:48Z</time>
      </trkpt>
      <trkpt lat="46.45182" lon="-1.69266">
        <ele>9.7</ele>
        <time>2020-06-03T11:02:49Z</time>
      </trkpt>
      <trkpt lat="46.45184" lon="-1.69277">
        <ele>9.6</ele>
        <time>2020-06-03T11:02:50Z</time>
      </trkpt>
      <trkpt lat="46.45187" lon="-1.69287">
        <ele>9.6</ele>
        <time>2020-06-03T11:02:51Z</time>
      </trkpt>
      <trkpt lat="46.4519" lon="-1.69297">
        <ele>9.6</ele>
        <time>2020-06-03T11:02:52Z</time>
      </trkpt>
      <trkpt lat="46.45192" lon="-1.69307">
        <ele>9.6</ele>
        <time>2020-06-03T11:02:53Z</time>
      </trkpt>
      <trkpt lat="46.45194" lon="-1.69317">
        <ele>9.7</ele>
        <time>2020-06-03T11:02:54Z</time>
      </trkpt>
      <trkpt lat="46.45196" lon="-1.69327">
        <ele>9.7</ele>
        <time>2020-06-03T11:02:55Z</time>
      </trkpt>
      <trkpt lat="46.45198" lon="-1.69336">
        <ele>9.8</ele>
        <time>2020-06-03T11:02:56Z</time>
      </trkpt>
      <trkpt lat="46.45201" lon="-1.69346">
        <ele>9.9</ele>
        <time>2020-06-03T11:02:57Z</time>
      </trkpt>
      <trkpt lat="46.45202" lon="-1.69355">
        <ele>10</ele>
        <time>2020-06-03T11:02:58Z</time>
      </trkpt>
      <trkpt lat="46.45204" lon="-1.69364">
        <ele>10.2</ele>
        <time>2020-06-03T11:02:59Z</time>
      </trkpt>
      <trkpt lat="46.45206" lon="-1.69373">
        <ele>10.3</ele>
        <time>2020-06-03T11:03:00Z</time>
      </trkpt>
      <trkpt lat="46.45209" lon="-1.69381">
        <ele>10.5</ele>
        <time>2020-06-03T11:03:01Z</time>
      </trkpt>
      <trkpt lat="46.45211" lon="-1.6939">
        <ele>10.6</ele>
        <time>2020-06-03T11:03:02Z</time>
      </trkpt>
      <trkpt lat="46.45214" lon="-1.69398">
        <ele>10.8</ele>
        <time>2020-06-03T11:03:03Z</time>
      </trkpt>
      <trkpt lat="46.45216" lon="-1.69406">
        <ele>10.9</ele>
        <time>2020-06-03T11:03:04Z</time>
      </trkpt>
      <trkpt lat="46.45218" lon="-1.69414">
        <ele>11</ele>
        <time>2020-06-03T11:03:05Z</time>
      </trkpt>
      <trkpt lat="46.45219" lon="-1.69421">
        <ele>11.1</ele>
        <time>2020-06-03T11:03:06Z</time>
      </trkpt>
      <trkpt lat="46.45221" lon="-1.69429">
        <ele>11.2</ele>
        <time>2020-06-03T11:03:07Z</time>
      </trkpt>
      <trkpt lat="46.45222" lon="-1.69436">
        <ele>11.4</ele>
        <time>2020-06-03T11:03:08Z</time>
      </trkpt>
      <trkpt lat="46.45224" lon="-1.69444">
        <ele>11.5</ele>
        <time>2020-06-03T11:03:09Z</time>
      </trkpt>
      <trkpt lat="46.45225" lon="-1.69452">
        <ele>11.6</ele>
        <time>2020-06-03T11:03:10Z</time>
      </trkpt>
      <trkpt lat="46.45227" lon="-1.69459">
        <ele>11.8</ele>
        <time>2020-06-03T11:03:11Z</time>
      </trkpt>
      <trkpt lat="46.45228" lon="-1.69465">
        <ele>11.9</ele>
        <time>2020-06-03T11:03:12Z</time>
      </trkpt>
      <trkpt lat="46.4523" lon="-1.69473">
        <ele>12</ele>
        <time>2020-06-03T11:03:13Z</time>
      </trkpt>
      <trkpt lat="46.45231" lon="-1.6948">
        <ele>12</ele>
        <time>2020-06-03T11:03:14Z</time>
      </trkpt>
      <trkpt lat="46.45234" lon="-1.69487">
        <ele>12.1</ele>
        <time>2020-06-03T11:03:15Z</time>
      </trkpt>
      <trkpt lat="46.45236" lon="-1.69494">
        <ele>12.2</ele>
        <time>2020-06-03T11:03:16Z</time>
      </trkpt>
      <trkpt lat="46.45237" lon="-1.69501">
        <ele>12.2</ele>
        <time>2020-06-03T11:03:17Z</time>
      </trkpt>
      <trkpt lat="46.4524" lon="-1.69507">
        <ele>12.3</ele>
        <time>2020-06-03T11:03:18Z</time>
      </trkpt>
      <trkpt lat="46.45242" lon="-1.69514">
        <ele>12.3</ele>
        <time>2020-06-03T11:03:19Z</time>
      </trkpt>
      <trkpt lat="46.45244" lon="-1.69521">
        <ele>12.4</ele>
        <time>2020-06-03T11:03:20Z</time>
      </trkpt>
      <trkpt lat="46.45246" lon="-1.69527">
        <ele>12.5</ele>
        <time>2020-06-03T11:03:21Z</time>
      </trkpt>
      <trkpt lat="46.45247" lon="-1.69534">
        <ele>12.6</ele>
        <time>2020-06-03T11:03:22Z</time>
      </trkpt>
      <trkpt lat="46.45247" lon="-1.69541">
        <ele>12.7</ele>
        <time>2020-06-03T11:03:23Z</time>
      </trkpt>
      <trkpt lat="46.45249" lon="-1.69547">
        <ele>12.7</ele>
        <time>2020-06-03T11:03:24Z</time>
      </trkpt>
      <trkpt lat="46.4525" lon="-1.69552">
        <ele>12.8</ele>
        <time>2020-06-03T11:03:25Z</time>
      </trkpt>
      <trkpt lat="46.45251" lon="-1.69558">
        <ele>12.9</ele>
        <time>2020-06-03T11:03:26Z</time>
      </trkpt>
      <trkpt lat="46.45252" lon="-1.69564">
        <ele>13</ele>
        <time>2020-06-03T11:03:27Z</time>
      </trkpt>
      <trkpt lat="46.45253" lon="-1.69569">
        <ele>13.1</ele>
        <time>2020-06-03T11:03:28Z</time>
      </trkpt>
      <trkpt lat="46.45255" lon="-1.69574">
        <ele>13.2</ele>
        <time>2020-06-03T11:03:29Z</time>
      </trkpt>
      <trkpt lat="46.45256" lon="-1.69578">
        <ele>13.2</ele>
        <time>2020-06-03T11:03:30Z</time>
      </trkpt>
      <trkpt lat="46.45258" lon="-1.69584">
        <ele>13.2</ele>
        <time>2020-06-03T11:03:31Z</time>
      </trkpt>
      <trkpt lat="46.45257" lon="-1.69587">
        <ele>13.3</ele>
        <time>2020-06-03T11:03:32Z</time>
      </trkpt>
      <trkpt lat="46.45253" lon="-1.69589">
        <ele>13.3</ele>
        <time>2020-06-03T11:03:33Z</time>
      </trkpt>
      <trkpt lat="46.45251" lon="-1.69589">
        <ele>13.9</ele>
        <time>2020-06-03T11:03:34Z</time>
      </trkpt>
      <trkpt lat="46.45248" lon="-1.69589">
        <ele>13.9</ele>
        <time>2020-06-03T11:03:35Z</time>
      </trkpt>
      <trkpt lat="46.45246" lon="-1.69589">
        <ele>13.9</ele>
        <time>2020-06-03T11:03:36Z</time>
      </trkpt>
      <trkpt lat="46.45244" lon="-1.69592">
        <ele>13.8</ele>
        <time>2020-06-03T11:03:37Z</time>
      </trkpt>
      <trkpt lat="46.45243" lon="-1.69594">
        <ele>13.8</ele>
        <time>2020-06-03T11:03:38Z</time>
      </trkpt>
      <trkpt lat="46.45241" lon="-1.69599">
        <ele>13.8</ele>
        <time>2020-06-03T11:03:39Z</time>
      </trkpt>
      <trkpt lat="46.45241" lon="-1.696">
        <ele>13.8</ele>
        <time>2020-06-03T11:03:40Z</time>
      </trkpt>
      <trkpt lat="46.45239" lon="-1.69605">
        <ele>13.8</ele>
        <time>2020-06-03T11:03:41Z</time>
      </trkpt>
      <trkpt lat="46.45239" lon="-1.69606">
        <ele>13.8</ele>
        <time>2020-06-03T11:03:42Z</time>
      </trkpt>
      <trkpt lat="46.45237" lon="-1.69611">
        <ele>13.8</ele>
        <time>2020-06-03T11:03:43Z</time>
      </trkpt>
      <trkpt lat="46.45236" lon="-1.69612">
        <ele>13.8</ele>
        <time>2020-06-03T11:03:44Z</time>
      </trkpt>
      <trkpt lat="46.45235" lon="-1.69617">
        <ele>13.8</ele>
        <time>2020-06-03T11:03:45Z</time>
      </trkpt>
      <trkpt lat="46.45236" lon="-1.69621">
        <ele>13.8</ele>
        <time>2020-06-03T11:03:46Z</time>
      </trkpt>
      <trkpt lat="46.45236" lon="-1.69626">
        <ele>13.8</ele>
        <time>2020-06-03T11:03:47Z</time>
      </trkpt>
      <trkpt lat="46.45237" lon="-1.6963">
        <ele>13.8</ele>
        <time>2020-06-03T11:03:48Z</time>
      </trkpt>
      <trkpt lat="46.45238" lon="-1.69634">
        <ele>13.8</ele>
        <time>2020-06-03T11:03:49Z</time>
      </trkpt>
      <trkpt lat="46.45239" lon="-1.69639">
        <ele>13.8</ele>
        <time>2020-06-03T11:03:50Z</time>
      </trkpt>
      <trkpt lat="46.45241" lon="-1.69642">
        <ele>13.9</ele>
        <time>2020-06-03T11:03:51Z</time>
      </trkpt>
      <trkpt lat="46.45243" lon="-1.69646">
        <ele>13.9</ele>
        <time>2020-06-03T11:03:52Z</time>
      </trkpt>
      <trkpt lat="46.45246" lon="-1.69649">
        <ele>14</ele>
        <time>2020-06-03T11:03:53Z</time>
      </trkpt>
      <trkpt lat="46.45249" lon="-1.6965">
        <ele>14.1</ele>
        <time>2020-06-03T11:03:54Z</time>
      </trkpt>
      <trkpt lat="46.45252" lon="-1.69654">
        <ele>14.1</ele>
        <time>2020-06-03T11:03:55Z</time>
      </trkpt>
      <trkpt lat="46.45254" lon="-1.69657">
        <ele>14.2</ele>
        <time>2020-06-03T11:03:56Z</time>
      </trkpt>
      <trkpt lat="46.45256" lon="-1.69662">
        <ele>14.3</ele>
        <time>2020-06-03T11:03:57Z</time>
      </trkpt>
      <trkpt lat="46.45258" lon="-1.69666">
        <ele>14.3</ele>
        <time>2020-06-03T11:03:58Z</time>
      </trkpt>
      <trkpt lat="46.45259" lon="-1.6967">
        <ele>14.4</ele>
        <time>2020-06-03T11:03:59Z</time>
      </trkpt>
      <trkpt lat="46.45261" lon="-1.69675">
        <ele>14.5</ele>
        <time>2020-06-03T11:04:00Z</time>
      </trkpt>
      <trkpt lat="46.45261" lon="-1.69681">
        <ele>14.6</ele>
        <time>2020-06-03T11:04:01Z</time>
      </trkpt>
      <trkpt lat="46.45262" lon="-1.69686">
        <ele>14.7</ele>
        <time>2020-06-03T11:04:02Z</time>
      </trkpt>
      <trkpt lat="46.45263" lon="-1.69691">
        <ele>14.8</ele>
        <time>2020-06-03T11:04:03Z</time>
      </trkpt>
      <trkpt lat="46.45263" lon="-1.69697">
        <ele>14.8</ele>
        <time>2020-06-03T11:04:04Z</time>
      </trkpt>
      <trkpt lat="46.45264" lon="-1.69703">
        <ele>14.9</ele>
        <time>2020-06-03T11:04:05Z</time>
      </trkpt>
      <trkpt lat="46.45264" lon="-1.69709">
        <ele>15</ele>
        <time>2020-06-03T11:04:06Z</time>
      </trkpt>
      <trkpt lat="46.45265" lon="-1.69715">
        <ele>15</ele>
        <time>2020-06-03T11:04:07Z</time>
      </trkpt>
      <trkpt lat="46.45265" lon="-1.69721">
        <ele>15.1</ele>
        <time>2020-06-03T11:04:08Z</time>
      </trkpt>
      <trkpt lat="46.45264" lon="-1.69727">
        <ele>15.1</ele>
        <time>2020-06-03T11:04:09Z</time>
      </trkpt>
      <trkpt lat="46.45264" lon="-1.69733">
        <ele>15.2</ele>
        <time>2020-06-03T11:04:10Z</time>
      </trkpt>
      <trkpt lat="46.45262" lon="-1.69738">
        <ele>15.2</ele>
        <time>2020-06-03T11:04:11Z</time>
      </trkpt>
      <trkpt lat="46.4526" lon="-1.69743">
        <ele>15.2</ele>
        <time>2020-06-03T11:04:12Z</time>
      </trkpt>
      <trkpt lat="46.45257" lon="-1.69748">
        <ele>15.3</ele>
        <time>2020-06-03T11:04:13Z</time>
      </trkpt>
      <trkpt lat="46.45254" lon="-1.69753">
        <ele>15.3</ele>
        <time>2020-06-03T11:04:14Z</time>
      </trkpt>
      <trkpt lat="46.45252" lon="-1.69758">
        <ele>15.3</ele>
        <time>2020-06-03T11:04:15Z</time>
      </trkpt>
      <trkpt lat="46.45248" lon="-1.69762">
        <ele>15.4</ele>
        <time>2020-06-03T11:04:16Z</time>
      </trkpt>
      <trkpt lat="46.45245" lon="-1.69767">
        <ele>15.4</ele>
        <time>2020-06-03T11:04:17Z</time>
      </trkpt>
      <trkpt lat="46.45242" lon="-1.69772">
        <ele>15.4</ele>
        <time>2020-06-03T11:04:18Z</time>
      </trkpt>
      <trkpt lat="46.45238" lon="-1.69777">
        <ele>15.5</ele>
        <time>2020-06-03T11:04:19Z</time>
      </trkpt>
      <trkpt lat="46.45235" lon="-1.69783">
        <ele>15.5</ele>
        <time>2020-06-03T11:04:20Z</time>
      </trkpt>
      <trkpt lat="46.45232" lon="-1.6979">
        <ele>15.6</ele>
        <time>2020-06-03T11:04:21Z</time>
      </trkpt>
      <trkpt lat="46.45229" lon="-1.69795">
        <ele>15.6</ele>
        <time>2020-06-03T11:04:22Z</time>
      </trkpt>
      <trkpt lat="46.45227" lon="-1.69802">
        <ele>15.7</ele>
        <time>2020-06-03T11:04:23Z</time>
      </trkpt>
      <trkpt lat="46.45226" lon="-1.69809">
        <ele>15.8</ele>
        <time>2020-06-03T11:04:24Z</time>
      </trkpt>
      <trkpt lat="46.45225" lon="-1.69816">
        <ele>15.9</ele>
        <time>2020-06-03T11:04:25Z</time>
      </trkpt>
      <trkpt lat="46.45224" lon="-1.69823">
        <ele>16</ele>
        <time>2020-06-03T11:04:26Z</time>
      </trkpt>
      <trkpt lat="46.45223" lon="-1.6983">
        <ele>16.2</ele>
        <time>2020-06-03T11:04:27Z</time>
      </trkpt>
      <trkpt lat="46.45223" lon="-1.69837">
        <ele>16.3</ele>
        <time>2020-06-03T11:04:28Z</time>
      </trkpt>
      <trkpt lat="46.45222" lon="-1.69844">
        <ele>16.5</ele>
        <time>2020-06-03T11:04:29Z</time>
      </trkpt>
      <trkpt lat="46.45221" lon="-1.6985">
        <ele>16.6</ele>
        <time>2020-06-03T11:04:30Z</time>
      </trkpt>
      <trkpt lat="46.4522" lon="-1.69856">
        <ele>16.8</ele>
        <time>2020-06-03T11:04:31Z</time>
      </trkpt>
      <trkpt lat="46.45219" lon="-1.69863">
        <ele>16.9</ele>
        <time>2020-06-03T11:04:32Z</time>
      </trkpt>
      <trkpt lat="46.45218" lon="-1.69868">
        <ele>17</ele>
        <time>2020-06-03T11:04:33Z</time>
      </trkpt>
      <trkpt lat="46.45216" lon="-1.69872">
        <ele>17.1</ele>
        <time>2020-06-03T11:04:34Z</time>
      </trkpt>
      <trkpt lat="46.45215" lon="-1.69877">
        <ele>17.2</ele>
        <time>2020-06-03T11:04:35Z</time>
      </trkpt>
      <trkpt lat="46.45215" lon="-1.69883">
        <ele>17.3</ele>
        <time>2020-06-03T11:04:36Z</time>
      </trkpt>
      <trkpt lat="46.45215" lon="-1.69886">
        <ele>17.4</ele>
        <time>2020-06-03T11:04:37Z</time>
      </trkpt>
      <trkpt lat="46.45215" lon="-1.6989">
        <ele>17.5</ele>
        <time>2020-06-03T11:04:38Z</time>
      </trkpt>
      <trkpt lat="46.45215" lon="-1.69895">
        <ele>17.6</ele>
        <time>2020-06-03T11:04:39Z</time>
      </trkpt>
      <trkpt lat="46.45214" lon="-1.699">
        <ele>17.6</ele>
        <time>2020-06-03T11:04:40Z</time>
      </trkpt>
      <trkpt lat="46.45214" lon="-1.69907">
        <ele>17.7</ele>
        <time>2020-06-03T11:04:41Z</time>
      </trkpt>
      <trkpt lat="46.45213" lon="-1.69912">
        <ele>17.8</ele>
        <time>2020-06-03T11:04:42Z</time>
      </trkpt>
      <trkpt lat="46.45212" lon="-1.69918">
        <ele>17.8</ele>
        <time>2020-06-03T11:04:43Z</time>
      </trkpt>
      <trkpt lat="46.45212" lon="-1.69923">
        <ele>17.9</ele>
        <time>2020-06-03T11:04:44Z</time>
      </trkpt>
      <trkpt lat="46.45211" lon="-1.69929">
        <ele>18</ele>
        <time>2020-06-03T11:04:45Z</time>
      </trkpt>
      <trkpt lat="46.45211" lon="-1.69935">
        <ele>18.2</ele>
        <time>2020-06-03T11:04:46Z</time>
      </trkpt>
      <trkpt lat="46.45211" lon="-1.69941">
        <ele>18.3</ele>
        <time>2020-06-03T11:04:47Z</time>
      </trkpt>
      <trkpt lat="46.45211" lon="-1.69948">
        <ele>18.4</ele>
        <time>2020-06-03T11:04:48Z</time>
      </trkpt>
      <trkpt lat="46.4521" lon="-1.69955">
        <ele>18.5</ele>
        <time>2020-06-03T11:04:49Z</time>
      </trkpt>
      <trkpt lat="46.45209" lon="-1.69961">
        <ele>18.6</ele>
        <time>2020-06-03T11:04:50Z</time>
      </trkpt>
      <trkpt lat="46.45209" lon="-1.69967">
        <ele>18.7</ele>
        <time>2020-06-03T11:04:51Z</time>
      </trkpt>
      <trkpt lat="46.45209" lon="-1.69973">
        <ele>18.8</ele>
        <time>2020-06-03T11:04:52Z</time>
      </trkpt>
      <trkpt lat="46.45208" lon="-1.69979">
        <ele>18.9</ele>
        <time>2020-06-03T11:04:53Z</time>
      </trkpt>
      <trkpt lat="46.45208" lon="-1.69984">
        <ele>19</ele>
        <time>2020-06-03T11:04:54Z</time>
      </trkpt>
      <trkpt lat="46.45207" lon="-1.69989">
        <ele>19.1</ele>
        <time>2020-06-03T11:04:55Z</time>
      </trkpt>
      <trkpt lat="46.45206" lon="-1.69996">
        <ele>19.2</ele>
        <time>2020-06-03T11:04:56Z</time>
      </trkpt>
      <trkpt lat="46.45205" lon="-1.70002">
        <ele>19.3</ele>
        <time>2020-06-03T11:04:57Z</time>
      </trkpt>
      <trkpt lat="46.45204" lon="-1.70008">
        <ele>19.4</ele>
        <time>2020-06-03T11:04:58Z</time>
      </trkpt>
      <trkpt lat="46.45205" lon="-1.70014">
        <ele>19.5</ele>
        <time>2020-06-03T11:04:59Z</time>
      </trkpt>
      <trkpt lat="46.45204" lon="-1.7002">
        <ele>19.6</ele>
        <time>2020-06-03T11:05:00Z</time>
      </trkpt>
      <trkpt lat="46.45203" lon="-1.70026">
        <ele>19.7</ele>
        <time>2020-06-03T11:05:01Z</time>
      </trkpt>
      <trkpt lat="46.45202" lon="-1.70032">
        <ele>19.7</ele>
        <time>2020-06-03T11:05:02Z</time>
      </trkpt>
      <trkpt lat="46.45201" lon="-1.70037">
        <ele>19.8</ele>
        <time>2020-06-03T11:05:03Z</time>
      </trkpt>
      <trkpt lat="46.45201" lon="-1.70042">
        <ele>19.9</ele>
        <time>2020-06-03T11:05:04Z</time>
      </trkpt>
      <trkpt lat="46.45201" lon="-1.70048">
        <ele>19.9</ele>
        <time>2020-06-03T11:05:05Z</time>
      </trkpt>
      <trkpt lat="46.452" lon="-1.70053">
        <ele>20</ele>
        <time>2020-06-03T11:05:06Z</time>
      </trkpt>
      <trkpt lat="46.452" lon="-1.70058">
        <ele>20</ele>
        <time>2020-06-03T11:05:07Z</time>
      </trkpt>
      <trkpt lat="46.45199" lon="-1.70064">
        <ele>20.1</ele>
        <time>2020-06-03T11:05:08Z</time>
      </trkpt>
      <trkpt lat="46.45199" lon="-1.7007">
        <ele>20.1</ele>
        <time>2020-06-03T11:05:09Z</time>
      </trkpt>
      <trkpt lat="46.45198" lon="-1.70077">
        <ele>20.1</ele>
        <time>2020-06-03T11:05:10Z</time>
      </trkpt>
      <trkpt lat="46.45197" lon="-1.70083">
        <ele>20.1</ele>
        <time>2020-06-03T11:05:11Z</time>
      </trkpt>
      <trkpt lat="46.45197" lon="-1.7009">
        <ele>20.1</ele>
        <time>2020-06-03T11:05:12Z</time>
      </trkpt>
      <trkpt lat="46.45197" lon="-1.70097">
        <ele>20.2</ele>
        <time>2020-06-03T11:05:13Z</time>
      </trkpt>
      <trkpt lat="46.45197" lon="-1.70103">
        <ele>20.2</ele>
        <time>2020-06-03T11:05:14Z</time>
      </trkpt>
      <trkpt lat="46.45197" lon="-1.70111">
        <ele>20.2</ele>
        <time>2020-06-03T11:05:15Z</time>
      </trkpt>
      <trkpt lat="46.45196" lon="-1.70117">
        <ele>20.2</ele>
        <time>2020-06-03T11:05:16Z</time>
      </trkpt>
      <trkpt lat="46.45196" lon="-1.70124">
        <ele>20.2</ele>
        <time>2020-06-03T11:05:17Z</time>
      </trkpt>
      <trkpt lat="46.45196" lon="-1.70131">
        <ele>20.2</ele>
        <time>2020-06-03T11:05:18Z</time>
      </trkpt>
      <trkpt lat="46.45195" lon="-1.70138">
        <ele>20.2</ele>
        <time>2020-06-03T11:05:19Z</time>
      </trkpt>
      <trkpt lat="46.45195" lon="-1.70145">
        <ele>20.2</ele>
        <time>2020-06-03T11:05:20Z</time>
      </trkpt>
      <trkpt lat="46.45195" lon="-1.70151">
        <ele>20.2</ele>
        <time>2020-06-03T11:05:21Z</time>
      </trkpt>
      <trkpt lat="46.45194" lon="-1.70157">
        <ele>20.2</ele>
        <time>2020-06-03T11:05:22Z</time>
      </trkpt>
      <trkpt lat="46.45194" lon="-1.70162">
        <ele>20.3</ele>
        <time>2020-06-03T11:05:23Z</time>
      </trkpt>
      <trkpt lat="46.45194" lon="-1.70167">
        <ele>20.3</ele>
        <time>2020-06-03T11:05:24Z</time>
      </trkpt>
      <trkpt lat="46.45193" lon="-1.70169">
        <ele>20.3</ele>
        <time>2020-06-03T11:05:25Z</time>
      </trkpt>
      <trkpt lat="46.45193" lon="-1.70171">
        <ele>20.3</ele>
        <time>2020-06-03T11:05:26Z</time>
      </trkpt>
      <trkpt lat="46.45196" lon="-1.70171">
        <ele>20.3</ele>
        <time>2020-06-03T11:05:27Z</time>
      </trkpt>
      <trkpt lat="46.45198" lon="-1.70169">
        <ele>20.3</ele>
        <time>2020-06-03T11:05:28Z</time>
      </trkpt>
      <trkpt lat="46.45198" lon="-1.70168">
        <ele>20.3</ele>
        <time>2020-06-03T11:05:29Z</time>
      </trkpt>
      <trkpt lat="46.45201" lon="-1.70168">
        <ele>20.4</ele>
        <time>2020-06-03T11:05:30Z</time>
      </trkpt>
      <trkpt lat="46.45204" lon="-1.70167">
        <ele>20.4</ele>
        <time>2020-06-03T11:05:31Z</time>
      </trkpt>
      <trkpt lat="46.45205" lon="-1.70166">
        <ele>20.4</ele>
        <time>2020-06-03T11:05:32Z</time>
      </trkpt>
      <trkpt lat="46.45208" lon="-1.70166">
        <ele>20.4</ele>
        <time>2020-06-03T11:05:33Z</time>
      </trkpt>
      <trkpt lat="46.45211" lon="-1.70168">
        <ele>20.4</ele>
        <time>2020-06-03T11:05:34Z</time>
      </trkpt>
      <trkpt lat="46.45212" lon="-1.70169">
        <ele>20.4</ele>
        <time>2020-06-03T11:05:35Z</time>
      </trkpt>
      <trkpt lat="46.45214" lon="-1.70173">
        <ele>20.4</ele>
        <time>2020-06-03T11:05:36Z</time>
      </trkpt>
      <trkpt lat="46.45217" lon="-1.70176">
        <ele>20.4</ele>
        <time>2020-06-03T11:05:37Z</time>
      </trkpt>
      <trkpt lat="46.4522" lon="-1.70176">
        <ele>20.4</ele>
        <time>2020-06-03T11:05:38Z</time>
      </trkpt>
      <trkpt lat="46.45221" lon="-1.70175">
        <ele>20.4</ele>
        <time>2020-06-03T11:05:39Z</time>
      </trkpt>
      <trkpt lat="46.45224" lon="-1.70176">
        <ele>20.4</ele>
        <time>2020-06-03T11:05:40Z</time>
      </trkpt>
      <trkpt lat="46.45225" lon="-1.70177">
        <ele>20.4</ele>
        <time>2020-06-03T11:05:41Z</time>
      </trkpt>
      <trkpt lat="46.45228" lon="-1.70179">
        <ele>20.4</ele>
        <time>2020-06-03T11:05:42Z</time>
      </trkpt>
      <trkpt lat="46.45232" lon="-1.70181">
        <ele>20.5</ele>
        <time>2020-06-03T11:05:43Z</time>
      </trkpt>
      <trkpt lat="46.45233" lon="-1.70182">
        <ele>20.5</ele>
        <time>2020-06-03T11:05:44Z</time>
      </trkpt>
      <trkpt lat="46.45236" lon="-1.70185">
        <ele>20.5</ele>
        <time>2020-06-03T11:05:45Z</time>
      </trkpt>
      <trkpt lat="46.45238" lon="-1.7019">
        <ele>20.5</ele>
        <time>2020-06-03T11:05:46Z</time>
      </trkpt>
      <trkpt lat="46.45238" lon="-1.70191">
        <ele>20.5</ele>
        <time>2020-06-03T11:05:47Z</time>
      </trkpt>
      <trkpt lat="46.45239" lon="-1.70195">
        <ele>20.5</ele>
        <time>2020-06-03T11:05:48Z</time>
      </trkpt>
      <trkpt lat="46.45239" lon="-1.702">
        <ele>20.5</ele>
        <time>2020-06-03T11:05:49Z</time>
      </trkpt>
      <trkpt lat="46.4524" lon="-1.70207">
        <ele>20.5</ele>
        <time>2020-06-03T11:05:50Z</time>
      </trkpt>
      <trkpt lat="46.45241" lon="-1.70213">
        <ele>20.5</ele>
        <time>2020-06-03T11:05:51Z</time>
      </trkpt>
      <trkpt lat="46.45242" lon="-1.70219">
        <ele>20.5</ele>
        <time>2020-06-03T11:05:52Z</time>
      </trkpt>
      <trkpt lat="46.45243" lon="-1.70224">
        <ele>20.5</ele>
        <time>2020-06-03T11:05:53Z</time>
      </trkpt>
      <trkpt lat="46.45243" lon="-1.70229">
        <ele>20.5</ele>
        <time>2020-06-03T11:05:54Z</time>
      </trkpt>
      <trkpt lat="46.45245" lon="-1.70234">
        <ele>20.5</ele>
        <time>2020-06-03T11:05:55Z</time>
      </trkpt>
      <trkpt lat="46.45246" lon="-1.70237">
        <ele>20.5</ele>
        <time>2020-06-03T11:05:56Z</time>
      </trkpt>
      <trkpt lat="46.45248" lon="-1.70242">
        <ele>20.4</ele>
        <time>2020-06-03T11:05:57Z</time>
      </trkpt>
      <trkpt lat="46.45249" lon="-1.70247">
        <ele>20.4</ele>
        <time>2020-06-03T11:05:58Z</time>
      </trkpt>
      <trkpt lat="46.4525" lon="-1.70252">
        <ele>20.4</ele>
        <time>2020-06-03T11:05:59Z</time>
      </trkpt>
      <trkpt lat="46.45248" lon="-1.70257">
        <ele>20.3</ele>
        <time>2020-06-03T11:06:00Z</time>
      </trkpt>
      <trkpt lat="46.45247" lon="-1.70258">
        <ele>20.3</ele>
        <time>2020-06-03T11:06:01Z</time>
      </trkpt>
      <trkpt lat="46.45244" lon="-1.70261">
        <ele>20.2</ele>
        <time>2020-06-03T11:06:02Z</time>
      </trkpt>
      <trkpt lat="46.45241" lon="-1.70265">
        <ele>20.1</ele>
        <time>2020-06-03T11:06:03Z</time>
      </trkpt>
      <trkpt lat="46.45238" lon="-1.70268">
        <ele>20.1</ele>
        <time>2020-06-03T11:06:04Z</time>
      </trkpt>
      <trkpt lat="46.45236" lon="-1.70271">
        <ele>20</ele>
        <time>2020-06-03T11:06:05Z</time>
      </trkpt>
      <trkpt lat="46.45233" lon="-1.70275">
        <ele>19.9</ele>
        <time>2020-06-03T11:06:06Z</time>
      </trkpt>
      <trkpt lat="46.4523" lon="-1.70277">
        <ele>19.9</ele>
        <time>2020-06-03T11:06:07Z</time>
      </trkpt>
      <trkpt lat="46.45228" lon="-1.70278">
        <ele>19.8</ele>
        <time>2020-06-03T11:06:08Z</time>
      </trkpt>
      <trkpt lat="46.45225" lon="-1.7028">
        <ele>19.8</ele>
        <time>2020-06-03T11:06:09Z</time>
      </trkpt>
      <trkpt lat="46.45222" lon="-1.70281">
        <ele>19.7</ele>
        <time>2020-06-03T11:06:10Z</time>
      </trkpt>
      <trkpt lat="46.45221" lon="-1.70281">
        <ele>19.7</ele>
        <time>2020-06-03T11:06:11Z</time>
      </trkpt>
      <trkpt lat="46.45218" lon="-1.70283">
        <ele>19.6</ele>
        <time>2020-06-03T11:06:12Z</time>
      </trkpt>
      <trkpt lat="46.45216" lon="-1.70285">
        <ele>19.6</ele>
        <time>2020-06-03T11:06:13Z</time>
      </trkpt>
      <trkpt lat="46.45217" lon="-1.70285">
        <ele>19.6</ele>
        <time>2020-06-03T11:06:14Z</time>
      </trkpt>
      <trkpt lat="46.45216" lon="-1.70286">
        <ele>19.6</ele>
        <time>2020-06-03T11:06:15Z</time>
      </trkpt>
      <trkpt lat="46.45216" lon="-1.70287">
        <ele>19.5</ele>
        <time>2020-06-03T11:06:16Z</time>
      </trkpt>
      <trkpt lat="46.45216" lon="-1.70287">
        <ele>19.5</ele>
        <time>2020-06-03T11:06:17Z</time>
      </trkpt>
      <trkpt lat="46.45215" lon="-1.70288">
        <ele>19.5</ele>
        <time>2020-06-03T11:06:18Z</time>
      </trkpt>
      <trkpt lat="46.45215" lon="-1.70288">
        <ele>19.5</ele>
        <time>2020-06-03T11:06:19Z</time>
      </trkpt>
      <trkpt lat="46.45215" lon="-1.70289">
        <ele>19.5</ele>
        <time>2020-06-03T11:06:20Z</time>
      </trkpt>
      <trkpt lat="46.45215" lon="-1.70283">
        <ele>19.6</ele>
        <time>2020-06-03T11:12:31Z</time>
      </trkpt>
      <trkpt lat="46.45216" lon="-1.70284">
        <ele>19.6</ele>
        <time>2020-06-03T11:12:32Z</time>
      </trkpt>
      <trkpt lat="46.45216" lon="-1.70285">
        <ele>19.6</ele>
        <time>2020-06-03T11:12:33Z</time>
      </trkpt>
      <trkpt lat="46.45217" lon="-1.70285">
        <ele>19.6</ele>
        <time>2020-06-03T11:12:34Z</time>
      </trkpt>
      <trkpt lat="46.45218" lon="-1.70285">
        <ele>19.6</ele>
        <time>2020-06-03T11:12:35Z</time>
      </trkpt>
      <trkpt lat="46.45218" lon="-1.70286">
        <ele>19.6</ele>
        <time>2020-06-03T11:12:36Z</time>
      </trkpt>
      <trkpt lat="46.45218" lon="-1.70286">
        <ele>19.6</ele>
        <time>2020-06-03T11:12:37Z</time>
      </trkpt>
      <trkpt lat="46.45219" lon="-1.70285">
        <ele>19.6</ele>
        <time>2020-06-03T11:12:38Z</time>
      </trkpt>
      <trkpt lat="46.45219" lon="-1.70285">
        <ele>19.6</ele>
        <time>2020-06-03T11:12:39Z</time>
      </trkpt>
      <trkpt lat="46.4522" lon="-1.70285">
        <ele>19.6</ele>
        <time>2020-06-03T11:12:40Z</time>
      </trkpt>
      <trkpt lat="46.4522" lon="-1.70287">
        <ele>19.6</ele>
        <time>2020-06-03T11:12:41Z</time>
      </trkpt>
      <trkpt lat="46.4522" lon="-1.70287">
        <ele>19.6</ele>
        <time>2020-06-03T11:12:42Z</time>
      </trkpt>
      <trkpt lat="46.45221" lon="-1.70286">
        <ele>19.7</ele>
        <time>2020-06-03T11:12:43Z</time>
      </trkpt>
      <trkpt lat="46.45221" lon="-1.70286">
        <ele>19.7</ele>
        <time>2020-06-03T11:12:44Z</time>
      </trkpt>
      <trkpt lat="46.45222" lon="-1.70287">
        <ele>19.7</ele>
        <time>2020-06-03T11:12:45Z</time>
      </trkpt>
      <trkpt lat="46.45222" lon="-1.70287">
        <ele>19.7</ele>
        <time>2020-06-03T11:12:46Z</time>
      </trkpt>
      <trkpt lat="46.45222" lon="-1.70287">
        <ele>19.7</ele>
        <time>2020-06-03T11:12:47Z</time>
      </trkpt>
      <trkpt lat="46.45222" lon="-1.70287">
        <ele>19.7</ele>
        <time>2020-06-03T11:12:48Z</time>
      </trkpt>
      <trkpt lat="46.45222" lon="-1.70287">
        <ele>19.7</ele>
        <time>2020-06-03T11:12:49Z</time>
      </trkpt>
      <trkpt lat="46.45222" lon="-1.70287">
        <ele>19.7</ele>
        <time>2020-06-03T11:12:50Z</time>
      </trkpt>
      <trkpt lat="46.45222" lon="-1.70287">
        <ele>19.7</ele>
        <time>2020-06-03T11:12:51Z</time>
      </trkpt>
      <trkpt lat="46.45222" lon="-1.70286">
        <ele>19.7</ele>
        <time>2020-06-03T11:12:52Z</time>
      </trkpt>
      <trkpt lat="46.45223" lon="-1.70286">
        <ele>19.7</ele>
        <time>2020-06-03T11:12:53Z</time>
      </trkpt>
      <trkpt lat="46.45223" lon="-1.70286">
        <ele>19.7</ele>
        <time>2020-06-03T11:12:54Z</time>
      </trkpt>
      <trkpt lat="46.45213" lon="-1.70294">
        <ele>19.5</ele>
        <time>2020-06-03T11:13:43Z</time>
      </trkpt>
      <trkpt lat="46.45213" lon="-1.70297">
        <ele>19.5</ele>
        <time>2020-06-03T11:13:44Z</time>
      </trkpt>
      <trkpt lat="46.45213" lon="-1.70297">
        <ele>19.5</ele>
        <time>2020-06-03T11:13:45Z</time>
      </trkpt>
      <trkpt lat="46.45214" lon="-1.703">
        <ele>19.4</ele>
        <time>2020-06-03T11:13:46Z</time>
      </trkpt>
      <trkpt lat="46.45215" lon="-1.70304">
        <ele>19.4</ele>
        <time>2020-06-03T11:13:47Z</time>
      </trkpt>
      <trkpt lat="46.45215" lon="-1.70311">
        <ele>19.3</ele>
        <time>2020-06-03T11:13:48Z</time>
      </trkpt>
      <trkpt lat="46.45215" lon="-1.70319">
        <ele>19.3</ele>
        <time>2020-06-03T11:13:49Z</time>
      </trkpt>
      <trkpt lat="46.45216" lon="-1.70327">
        <ele>19.2</ele>
        <time>2020-06-03T11:13:50Z</time>
      </trkpt>
      <trkpt lat="46.45217" lon="-1.70335">
        <ele>19.1</ele>
        <time>2020-06-03T11:13:51Z</time>
      </trkpt>
      <trkpt lat="46.45219" lon="-1.70344">
        <ele>19.1</ele>
        <time>2020-06-03T11:13:52Z</time>
      </trkpt>
      <trkpt lat="46.4522" lon="-1.70353">
        <ele>19.1</ele>
        <time>2020-06-03T11:13:53Z</time>
      </trkpt>
      <trkpt lat="46.45223" lon="-1.70362">
        <ele>19</ele>
        <time>2020-06-03T11:13:54Z</time>
      </trkpt>
      <trkpt lat="46.45225" lon="-1.7037">
        <ele>19</ele>
        <time>2020-06-03T11:13:55Z</time>
      </trkpt>
      <trkpt lat="46.45227" lon="-1.70379">
        <ele>19</ele>
        <time>2020-06-03T11:13:56Z</time>
      </trkpt>
      <trkpt lat="46.45229" lon="-1.70387">
        <ele>18.9</ele>
        <time>2020-06-03T11:13:57Z</time>
      </trkpt>
      <trkpt lat="46.45231" lon="-1.70396">
        <ele>18.8</ele>
        <time>2020-06-03T11:13:58Z</time>
      </trkpt>
      <trkpt lat="46.45232" lon="-1.70406">
        <ele>18.7</ele>
        <time>2020-06-03T11:13:59Z</time>
      </trkpt>
      <trkpt lat="46.45234" lon="-1.70415">
        <ele>18.6</ele>
        <time>2020-06-03T11:14:00Z</time>
      </trkpt>
      <trkpt lat="46.45235" lon="-1.70426">
        <ele>18.5</ele>
        <time>2020-06-03T11:14:01Z</time>
      </trkpt>
      <trkpt lat="46.45237" lon="-1.70437">
        <ele>18.4</ele>
        <time>2020-06-03T11:14:02Z</time>
      </trkpt>
      <trkpt lat="46.45239" lon="-1.70446">
        <ele>18.4</ele>
        <time>2020-06-03T11:14:03Z</time>
      </trkpt>
      <trkpt lat="46.45242" lon="-1.70454">
        <ele>18.3</ele>
        <time>2020-06-03T11:14:04Z</time>
      </trkpt>
      <trkpt lat="46.45244" lon="-1.70464">
        <ele>18.2</ele>
        <time>2020-06-03T11:14:05Z</time>
      </trkpt>
      <trkpt lat="46.45244" lon="-1.70473">
        <ele>18.1</ele>
        <time>2020-06-03T11:14:06Z</time>
      </trkpt>
      <trkpt lat="46.45246" lon="-1.7048">
        <ele>18</ele>
        <time>2020-06-03T11:14:07Z</time>
      </trkpt>
      <trkpt lat="46.4525" lon="-1.70486">
        <ele>18</ele>
        <time>2020-06-03T11:14:08Z</time>
      </trkpt>
      <trkpt lat="46.45253" lon="-1.70494">
        <ele>17.9</ele>
        <time>2020-06-03T11:14:09Z</time>
      </trkpt>
      <trkpt lat="46.45255" lon="-1.70502">
        <ele>17.8</ele>
        <time>2020-06-03T11:14:10Z</time>
      </trkpt>
      <trkpt lat="46.45257" lon="-1.70511">
        <ele>17.7</ele>
        <time>2020-06-03T11:14:11Z</time>
      </trkpt>
      <trkpt lat="46.45257" lon="-1.7052">
        <ele>17.7</ele>
        <time>2020-06-03T11:14:12Z</time>
      </trkpt>
      <trkpt lat="46.45258" lon="-1.70531">
        <ele>17.6</ele>
        <time>2020-06-03T11:14:13Z</time>
      </trkpt>
      <trkpt lat="46.45258" lon="-1.70541">
        <ele>17.5</ele>
        <time>2020-06-03T11:14:14Z</time>
      </trkpt>
      <trkpt lat="46.4526" lon="-1.7055">
        <ele>17.4</ele>
        <time>2020-06-03T11:14:15Z</time>
      </trkpt>
      <trkpt lat="46.4526" lon="-1.7056">
        <ele>17.3</ele>
        <time>2020-06-03T11:14:16Z</time>
      </trkpt>
      <trkpt lat="46.45262" lon="-1.7057">
        <ele>17.2</ele>
        <time>2020-06-03T11:14:17Z</time>
      </trkpt>
      <trkpt lat="46.45264" lon="-1.70581">
        <ele>17.1</ele>
        <time>2020-06-03T11:14:18Z</time>
      </trkpt>
      <trkpt lat="46.45266" lon="-1.70592">
        <ele>17</ele>
        <time>2020-06-03T11:14:19Z</time>
      </trkpt>
      <trkpt lat="46.45268" lon="-1.70603">
        <ele>16.9</ele>
        <time>2020-06-03T11:14:20Z</time>
      </trkpt>
      <trkpt lat="46.4527" lon="-1.70615">
        <ele>16.9</ele>
        <time>2020-06-03T11:14:21Z</time>
      </trkpt>
      <trkpt lat="46.45272" lon="-1.70625">
        <ele>16.9</ele>
        <time>2020-06-03T11:14:22Z</time>
      </trkpt>
      <trkpt lat="46.45275" lon="-1.70636">
        <ele>16.8</ele>
        <time>2020-06-03T11:14:23Z</time>
      </trkpt>
      <trkpt lat="46.45277" lon="-1.70648">
        <ele>16.7</ele>
        <time>2020-06-03T11:14:24Z</time>
      </trkpt>
      <trkpt lat="46.45279" lon="-1.70659">
        <ele>16.6</ele>
        <time>2020-06-03T11:14:25Z</time>
      </trkpt>
      <trkpt lat="46.45281" lon="-1.70669">
        <ele>16.4</ele>
        <time>2020-06-03T11:14:26Z</time>
      </trkpt>
      <trkpt lat="46.45284" lon="-1.7068">
        <ele>16.2</ele>
        <time>2020-06-03T11:14:27Z</time>
      </trkpt>
      <trkpt lat="46.45286" lon="-1.70691">
        <ele>16</ele>
        <time>2020-06-03T11:14:28Z</time>
      </trkpt>
      <trkpt lat="46.45288" lon="-1.70702">
        <ele>15.8</ele>
        <time>2020-06-03T11:14:29Z</time>
      </trkpt>
      <trkpt lat="46.4529" lon="-1.70714">
        <ele>15.8</ele>
        <time>2020-06-03T11:14:30Z</time>
      </trkpt>
      <trkpt lat="46.45293" lon="-1.70725">
        <ele>15.7</ele>
        <time>2020-06-03T11:14:31Z</time>
      </trkpt>
      <trkpt lat="46.45294" lon="-1.70736">
        <ele>15.6</ele>
        <time>2020-06-03T11:14:32Z</time>
      </trkpt>
      <trkpt lat="46.45296" lon="-1.70746">
        <ele>15.5</ele>
        <time>2020-06-03T11:14:33Z</time>
      </trkpt>
      <trkpt lat="46.45298" lon="-1.70757">
        <ele>15.4</ele>
        <time>2020-06-03T11:14:34Z</time>
      </trkpt>
      <trkpt lat="46.453" lon="-1.70768">
        <ele>15.3</ele>
        <time>2020-06-03T11:14:35Z</time>
      </trkpt>
      <trkpt lat="46.45302" lon="-1.70779">
        <ele>15.1</ele>
        <time>2020-06-03T11:14:36Z</time>
      </trkpt>
      <trkpt lat="46.45304" lon="-1.7079">
        <ele>15</ele>
        <time>2020-06-03T11:14:37Z</time>
      </trkpt>
      <trkpt lat="46.45305" lon="-1.70801">
        <ele>14.9</ele>
        <time>2020-06-03T11:14:38Z</time>
      </trkpt>
      <trkpt lat="46.45306" lon="-1.70811">
        <ele>14.8</ele>
        <time>2020-06-03T11:14:39Z</time>
      </trkpt>
      <trkpt lat="46.45308" lon="-1.70822">
        <ele>14.7</ele>
        <time>2020-06-03T11:14:40Z</time>
      </trkpt>
      <trkpt lat="46.4531" lon="-1.70832">
        <ele>14.6</ele>
        <time>2020-06-03T11:14:41Z</time>
      </trkpt>
      <trkpt lat="46.45313" lon="-1.70842">
        <ele>14.5</ele>
        <time>2020-06-03T11:14:42Z</time>
      </trkpt>
      <trkpt lat="46.45317" lon="-1.70852">
        <ele>14.4</ele>
        <time>2020-06-03T11:14:43Z</time>
      </trkpt>
      <trkpt lat="46.4532" lon="-1.70862">
        <ele>14.3</ele>
        <time>2020-06-03T11:14:44Z</time>
      </trkpt>
      <trkpt lat="46.45322" lon="-1.70872">
        <ele>14.1</ele>
        <time>2020-06-03T11:14:45Z</time>
      </trkpt>
      <trkpt lat="46.45324" lon="-1.70883">
        <ele>14</ele>
        <time>2020-06-03T11:14:46Z</time>
      </trkpt>
      <trkpt lat="46.45326" lon="-1.70893">
        <ele>13.8</ele>
        <time>2020-06-03T11:14:47Z</time>
      </trkpt>
      <trkpt lat="46.45328" lon="-1.70903">
        <ele>13.7</ele>
        <time>2020-06-03T11:14:48Z</time>
      </trkpt>
      <trkpt lat="46.4533" lon="-1.70912">
        <ele>13.5</ele>
        <time>2020-06-03T11:14:49Z</time>
      </trkpt>
      <trkpt lat="46.45332" lon="-1.70921">
        <ele>13.4</ele>
        <time>2020-06-03T11:14:50Z</time>
      </trkpt>
      <trkpt lat="46.45333" lon="-1.70931">
        <ele>13.2</ele>
        <time>2020-06-03T11:14:51Z</time>
      </trkpt>
      <trkpt lat="46.45334" lon="-1.7094">
        <ele>13.1</ele>
        <time>2020-06-03T11:14:52Z</time>
      </trkpt>
      <trkpt lat="46.45335" lon="-1.70949">
        <ele>12.9</ele>
        <time>2020-06-03T11:14:53Z</time>
      </trkpt>
      <trkpt lat="46.45337" lon="-1.70958">
        <ele>12.8</ele>
        <time>2020-06-03T11:14:54Z</time>
      </trkpt>
      <trkpt lat="46.45338" lon="-1.70966">
        <ele>12.6</ele>
        <time>2020-06-03T11:14:55Z</time>
      </trkpt>
      <trkpt lat="46.4534" lon="-1.70975">
        <ele>12.4</ele>
        <time>2020-06-03T11:14:56Z</time>
      </trkpt>
      <trkpt lat="46.45341" lon="-1.70982">
        <ele>12.3</ele>
        <time>2020-06-03T11:14:57Z</time>
      </trkpt>
      <trkpt lat="46.45342" lon="-1.70987">
        <ele>12.2</ele>
        <time>2020-06-03T11:14:58Z</time>
      </trkpt>
      <trkpt lat="46.45342" lon="-1.70992">
        <ele>12.2</ele>
        <time>2020-06-03T11:14:59Z</time>
      </trkpt>
      <trkpt lat="46.45343" lon="-1.70997">
        <ele>12</ele>
        <time>2020-06-03T11:15:00Z</time>
      </trkpt>
      <trkpt lat="46.45343" lon="-1.70999">
        <ele>12</ele>
        <time>2020-06-03T11:15:01Z</time>
      </trkpt>
      <trkpt lat="46.45344" lon="-1.71004">
        <ele>12</ele>
        <time>2020-06-03T11:15:02Z</time>
      </trkpt>
      <trkpt lat="46.45344" lon="-1.71005">
        <ele>12</ele>
        <time>2020-06-03T11:15:03Z</time>
      </trkpt>
      <trkpt lat="46.45341" lon="-1.71007">
        <ele>12</ele>
        <time>2020-06-03T11:15:04Z</time>
      </trkpt>
      <trkpt lat="46.4534" lon="-1.71008">
        <ele>12</ele>
        <time>2020-06-03T11:15:05Z</time>
      </trkpt>
      <trkpt lat="46.45339" lon="-1.71013">
        <ele>12</ele>
        <time>2020-06-03T11:15:06Z</time>
      </trkpt>
      <trkpt lat="46.45338" lon="-1.71018">
        <ele>11.8</ele>
        <time>2020-06-03T11:15:07Z</time>
      </trkpt>
      <trkpt lat="46.45339" lon="-1.71022">
        <ele>11.7</ele>
        <time>2020-06-03T11:15:08Z</time>
      </trkpt>
      <trkpt lat="46.45341" lon="-1.71026">
        <ele>11.6</ele>
        <time>2020-06-03T11:15:09Z</time>
      </trkpt>
      <trkpt lat="46.45344" lon="-1.71027">
        <ele>11.4</ele>
        <time>2020-06-03T11:15:10Z</time>
      </trkpt>
      <trkpt lat="46.45348" lon="-1.71029">
        <ele>11.3</ele>
        <time>2020-06-03T11:15:11Z</time>
      </trkpt>
      <trkpt lat="46.45351" lon="-1.7103">
        <ele>11.1</ele>
        <time>2020-06-03T11:15:12Z</time>
      </trkpt>
      <trkpt lat="46.45355" lon="-1.71032">
        <ele>11</ele>
        <time>2020-06-03T11:15:13Z</time>
      </trkpt>
      <trkpt lat="46.45359" lon="-1.71036">
        <ele>10.8</ele>
        <time>2020-06-03T11:15:14Z</time>
      </trkpt>
      <trkpt lat="46.45363" lon="-1.7104">
        <ele>10.6</ele>
        <time>2020-06-03T11:15:15Z</time>
      </trkpt>
      <trkpt lat="46.45367" lon="-1.71046">
        <ele>10.5</ele>
        <time>2020-06-03T11:15:16Z</time>
      </trkpt>
      <trkpt lat="46.45371" lon="-1.71051">
        <ele>10.3</ele>
        <time>2020-06-03T11:15:17Z</time>
      </trkpt>
      <trkpt lat="46.45375" lon="-1.71055">
        <ele>10.2</ele>
        <time>2020-06-03T11:15:18Z</time>
      </trkpt>
      <trkpt lat="46.4538" lon="-1.7106">
        <ele>10.1</ele>
        <time>2020-06-03T11:15:19Z</time>
      </trkpt>
      <trkpt lat="46.45384" lon="-1.71066">
        <ele>10</ele>
        <time>2020-06-03T11:15:20Z</time>
      </trkpt>
      <trkpt lat="46.45389" lon="-1.71072">
        <ele>10</ele>
        <time>2020-06-03T11:15:21Z</time>
      </trkpt>
      <trkpt lat="46.45392" lon="-1.71078">
        <ele>10</ele>
        <time>2020-06-03T11:15:22Z</time>
      </trkpt>
      <trkpt lat="46.45396" lon="-1.71085">
        <ele>10.1</ele>
        <time>2020-06-03T11:15:23Z</time>
      </trkpt>
      <trkpt lat="46.45399" lon="-1.71091">
        <ele>10.1</ele>
        <time>2020-06-03T11:15:24Z</time>
      </trkpt>
      <trkpt lat="46.45402" lon="-1.71097">
        <ele>10.2</ele>
        <time>2020-06-03T11:15:25Z</time>
      </trkpt>
      <trkpt lat="46.45405" lon="-1.71101">
        <ele>10.3</ele>
        <time>2020-06-03T11:15:26Z</time>
      </trkpt>
      <trkpt lat="46.45406" lon="-1.71107">
        <ele>10.4</ele>
        <time>2020-06-03T11:15:27Z</time>
      </trkpt>
      <trkpt lat="46.45408" lon="-1.71112">
        <ele>10.5</ele>
        <time>2020-06-03T11:15:28Z</time>
      </trkpt>
      <trkpt lat="46.45409" lon="-1.71118">
        <ele>10.6</ele>
        <time>2020-06-03T11:15:29Z</time>
      </trkpt>
      <trkpt lat="46.45411" lon="-1.71123">
        <ele>10.7</ele>
        <time>2020-06-03T11:15:30Z</time>
      </trkpt>
      <trkpt lat="46.45413" lon="-1.71128">
        <ele>10.8</ele>
        <time>2020-06-03T11:15:31Z</time>
      </trkpt>
      <trkpt lat="46.45415" lon="-1.71134">
        <ele>10.9</ele>
        <time>2020-06-03T11:15:32Z</time>
      </trkpt>
      <trkpt lat="46.45417" lon="-1.71139">
        <ele>11</ele>
        <time>2020-06-03T11:15:33Z</time>
      </trkpt>
      <trkpt lat="46.4542" lon="-1.71143">
        <ele>11.1</ele>
        <time>2020-06-03T11:15:34Z</time>
      </trkpt>
      <trkpt lat="46.45422" lon="-1.71148">
        <ele>11.2</ele>
        <time>2020-06-03T11:15:35Z</time>
      </trkpt>
      <trkpt lat="46.45425" lon="-1.71151">
        <ele>11.2</ele>
        <time>2020-06-03T11:15:36Z</time>
      </trkpt>
      <trkpt lat="46.45427" lon="-1.71155">
        <ele>11.3</ele>
        <time>2020-06-03T11:15:37Z</time>
      </trkpt>
      <trkpt lat="46.4543" lon="-1.71157">
        <ele>11.4</ele>
        <time>2020-06-03T11:15:38Z</time>
      </trkpt>
      <trkpt lat="46.45432" lon="-1.7116">
        <ele>11.4</ele>
        <time>2020-06-03T11:15:39Z</time>
      </trkpt>
      <trkpt lat="46.45435" lon="-1.71161">
        <ele>11.5</ele>
        <time>2020-06-03T11:15:40Z</time>
      </trkpt>
      <trkpt lat="46.45438" lon="-1.71165">
        <ele>11.6</ele>
        <time>2020-06-03T11:15:41Z</time>
      </trkpt>
      <trkpt lat="46.45439" lon="-1.71166">
        <ele>11.6</ele>
        <time>2020-06-03T11:15:42Z</time>
      </trkpt>
      <trkpt lat="46.45441" lon="-1.71168">
        <ele>11.6</ele>
        <time>2020-06-03T11:15:43Z</time>
      </trkpt>
      <trkpt lat="46.45442" lon="-1.71169">
        <ele>11.6</ele>
        <time>2020-06-03T11:15:44Z</time>
      </trkpt>
      <trkpt lat="46.45442" lon="-1.7117">
        <ele>11.7</ele>
        <time>2020-06-03T11:15:45Z</time>
      </trkpt>
      <trkpt lat="46.45442" lon="-1.7117">
        <ele>11.7</ele>
        <time>2020-06-03T11:15:46Z</time>
      </trkpt>
      <trkpt lat="46.45441" lon="-1.7117">
        <ele>11.7</ele>
        <time>2020-06-03T11:15:47Z</time>
      </trkpt>
      <trkpt lat="46.45441" lon="-1.71171">
        <ele>11.7</ele>
        <time>2020-06-03T11:15:48Z</time>
      </trkpt>
      <trkpt lat="46.45441" lon="-1.71171">
        <ele>11.7</ele>
        <time>2020-06-03T11:15:49Z</time>
      </trkpt>
      <trkpt lat="46.45442" lon="-1.71172">
        <ele>11.7</ele>
        <time>2020-06-03T11:15:50Z</time>
      </trkpt>
      <trkpt lat="46.45442" lon="-1.71172">
        <ele>11.7</ele>
        <time>2020-06-03T11:15:51Z</time>
      </trkpt>
      <trkpt lat="46.45442" lon="-1.71171">
        <ele>11.7</ele>
        <time>2020-06-03T11:15:52Z</time>
      </trkpt>
      <trkpt lat="46.45443" lon="-1.71171">
        <ele>11.7</ele>
        <time>2020-06-03T11:15:53Z</time>
      </trkpt>
      <trkpt lat="46.45443" lon="-1.7117">
        <ele>11.7</ele>
        <time>2020-06-03T11:15:54Z</time>
      </trkpt>
      <trkpt lat="46.45443" lon="-1.71171">
        <ele>11.7</ele>
        <time>2020-06-03T11:15:55Z</time>
      </trkpt>
      <trkpt lat="46.45432" lon="-1.71163">
        <ele>11.4</ele>
        <time>2020-06-03T11:16:35Z</time>
      </trkpt>
      <trkpt lat="46.45429" lon="-1.7116">
        <ele>11.4</ele>
        <time>2020-06-03T11:16:36Z</time>
      </trkpt>
      <trkpt lat="46.45426" lon="-1.71156">
        <ele>11.3</ele>
        <time>2020-06-03T11:16:37Z</time>
      </trkpt>
      <trkpt lat="46.45424" lon="-1.71151">
        <ele>11.3</ele>
        <time>2020-06-03T11:16:38Z</time>
      </trkpt>
      <trkpt lat="46.45421" lon="-1.71146">
        <ele>11.2</ele>
        <time>2020-06-03T11:16:39Z</time>
      </trkpt>
      <trkpt lat="46.45419" lon="-1.71141">
        <ele>11.2</ele>
        <time>2020-06-03T11:16:40Z</time>
      </trkpt>
      <trkpt lat="46.45418" lon="-1.71136">
        <ele>11.1</ele>
        <time>2020-06-03T11:16:41Z</time>
      </trkpt>
      <trkpt lat="46.45416" lon="-1.7113">
        <ele>11.1</ele>
        <time>2020-06-03T11:16:42Z</time>
      </trkpt>
      <trkpt lat="46.45414" lon="-1.71124">
        <ele>11</ele>
        <time>2020-06-03T11:16:43Z</time>
      </trkpt>
      <trkpt lat="46.45411" lon="-1.71119">
        <ele>11</ele>
        <time>2020-06-03T11:16:44Z</time>
      </trkpt>
      <trkpt lat="46.45408" lon="-1.71114">
        <ele>10.9</ele>
        <time>2020-06-03T11:16:45Z</time>
      </trkpt>
      <trkpt lat="46.45407" lon="-1.71109">
        <ele>10.9</ele>
        <time>2020-06-03T11:16:46Z</time>
      </trkpt>
      <trkpt lat="46.45405" lon="-1.71105">
        <ele>10.8</ele>
        <time>2020-06-03T11:16:47Z</time>
      </trkpt>
      <trkpt lat="46.45405" lon="-1.71101">
        <ele>10.8</ele>
        <time>2020-06-03T11:16:48Z</time>
      </trkpt>
      <trkpt lat="46.45402" lon="-1.71098">
        <ele>10.8</ele>
        <time>2020-06-03T11:16:49Z</time>
      </trkpt>
      <trkpt lat="46.45401" lon="-1.71097">
        <ele>10.8</ele>
        <time>2020-06-03T11:16:50Z</time>
      </trkpt>
      <trkpt lat="46.454" lon="-1.71101">
        <ele>10.7</ele>
        <time>2020-06-03T11:16:51Z</time>
      </trkpt>
      <trkpt lat="46.45399" lon="-1.71102">
        <ele>10.7</ele>
        <time>2020-06-03T11:16:52Z</time>
      </trkpt>
      <trkpt lat="46.45397" lon="-1.71105">
        <ele>10.7</ele>
        <time>2020-06-03T11:16:53Z</time>
      </trkpt>
      <trkpt lat="46.45397" lon="-1.71106">
        <ele>10.7</ele>
        <time>2020-06-03T11:16:54Z</time>
      </trkpt>
      <trkpt lat="46.45394" lon="-1.71108">
        <ele>10.6</ele>
        <time>2020-06-03T11:16:55Z</time>
      </trkpt>
      <trkpt lat="46.45393" lon="-1.71108">
        <ele>10.6</ele>
        <time>2020-06-03T11:16:56Z</time>
      </trkpt>
      <trkpt lat="46.45392" lon="-1.7111">
        <ele>10.6</ele>
        <time>2020-06-03T11:16:57Z</time>
      </trkpt>
      <trkpt lat="46.45392" lon="-1.71111">
        <ele>10.6</ele>
        <time>2020-06-03T11:16:58Z</time>
      </trkpt>
      <trkpt lat="46.45391" lon="-1.71112">
        <ele>10.6</ele>
        <time>2020-06-03T11:16:59Z</time>
      </trkpt>
      <trkpt lat="46.4539" lon="-1.71112">
        <ele>10.5</ele>
        <time>2020-06-03T11:17:00Z</time>
      </trkpt>
      <trkpt lat="46.4539" lon="-1.71112">
        <ele>10.5</ele>
        <time>2020-06-03T11:17:01Z</time>
      </trkpt>
      <trkpt lat="46.4539" lon="-1.71112">
        <ele>10.5</ele>
        <time>2020-06-03T11:17:02Z</time>
      </trkpt>
      <trkpt lat="46.4539" lon="-1.71113">
        <ele>10.5</ele>
        <time>2020-06-03T11:17:03Z</time>
      </trkpt>
      <trkpt lat="46.4539" lon="-1.71113">
        <ele>10.5</ele>
        <time>2020-06-03T11:17:04Z</time>
      </trkpt>
      <trkpt lat="46.4539" lon="-1.71113">
        <ele>10.5</ele>
        <time>2020-06-03T11:17:05Z</time>
      </trkpt>
      <trkpt lat="46.45389" lon="-1.71112">
        <ele>10.5</ele>
        <time>2020-06-03T11:17:06Z</time>
      </trkpt>
      <trkpt lat="46.45389" lon="-1.71113">
        <ele>10.5</ele>
        <time>2020-06-03T11:17:07Z</time>
      </trkpt>
      <trkpt lat="46.4539" lon="-1.71113">
        <ele>10.5</ele>
        <time>2020-06-03T11:17:08Z</time>
      </trkpt>
      <trkpt lat="46.4539" lon="-1.71114">
        <ele>10.5</ele>
        <time>2020-06-03T11:17:09Z</time>
      </trkpt>
      <trkpt lat="46.4539" lon="-1.71113">
        <ele>10.5</ele>
        <time>2020-06-03T11:17:10Z</time>
      </trkpt>
      <trkpt lat="46.45394" lon="-1.71097">
        <ele>10.3</ele>
        <time>2020-06-03T11:17:30Z</time>
      </trkpt>
      <trkpt lat="46.45395" lon="-1.71095">
        <ele>10.3</ele>
        <time>2020-06-03T11:17:31Z</time>
      </trkpt>
      <trkpt lat="46.45398" lon="-1.71092">
        <ele>10.3</ele>
        <time>2020-06-03T11:17:32Z</time>
      </trkpt>
      <trkpt lat="46.45399" lon="-1.71092">
        <ele>10.3</ele>
        <time>2020-06-03T11:17:33Z</time>
      </trkpt>
      <trkpt lat="46.454" lon="-1.71093">
        <ele>10.2</ele>
        <time>2020-06-03T11:17:34Z</time>
      </trkpt>
      <trkpt lat="46.45402" lon="-1.71095">
        <ele>10.2</ele>
        <time>2020-06-03T11:17:35Z</time>
      </trkpt>
      <trkpt lat="46.45403" lon="-1.711">
        <ele>10.3</ele>
        <time>2020-06-03T11:17:36Z</time>
      </trkpt>
      <trkpt lat="46.45403" lon="-1.71102">
        <ele>10.3</ele>
        <time>2020-06-03T11:17:37Z</time>
      </trkpt>
      <trkpt lat="46.45404" lon="-1.71105">
        <ele>10.4</ele>
        <time>2020-06-03T11:17:38Z</time>
      </trkpt>
      <trkpt lat="46.45406" lon="-1.7111">
        <ele>10.5</ele>
        <time>2020-06-03T11:17:39Z</time>
      </trkpt>
      <trkpt lat="46.45408" lon="-1.71115">
        <ele>10.6</ele>
        <time>2020-06-03T11:17:40Z</time>
      </trkpt>
      <trkpt lat="46.45411" lon="-1.7112">
        <ele>10.7</ele>
        <time>2020-06-03T11:17:41Z</time>
      </trkpt>
      <trkpt lat="46.45413" lon="-1.71126">
        <ele>10.8</ele>
        <time>2020-06-03T11:17:42Z</time>
      </trkpt>
      <trkpt lat="46.45415" lon="-1.71132">
        <ele>10.9</ele>
        <time>2020-06-03T11:17:43Z</time>
      </trkpt>
      <trkpt lat="46.45417" lon="-1.71137">
        <ele>11</ele>
        <time>2020-06-03T11:17:44Z</time>
      </trkpt>
      <trkpt lat="46.45419" lon="-1.71142">
        <ele>11</ele>
        <time>2020-06-03T11:17:45Z</time>
      </trkpt>
      <trkpt lat="46.45422" lon="-1.71147">
        <ele>11.1</ele>
        <time>2020-06-03T11:17:46Z</time>
      </trkpt>
      <trkpt lat="46.45424" lon="-1.71152">
        <ele>11.2</ele>
        <time>2020-06-03T11:17:47Z</time>
      </trkpt>
      <trkpt lat="46.45427" lon="-1.71155">
        <ele>11.3</ele>
        <time>2020-06-03T11:17:48Z</time>
      </trkpt>
      <trkpt lat="46.45429" lon="-1.71159">
        <ele>11.4</ele>
        <time>2020-06-03T11:17:49Z</time>
      </trkpt>
      <trkpt lat="46.45432" lon="-1.71162">
        <ele>11.4</ele>
        <time>2020-06-03T11:17:50Z</time>
      </trkpt>
      <trkpt lat="46.45435" lon="-1.71164">
        <ele>11.5</ele>
        <time>2020-06-03T11:17:51Z</time>
      </trkpt>
      <trkpt lat="46.45438" lon="-1.71167">
        <ele>11.6</ele>
        <time>2020-06-03T11:17:52Z</time>
      </trkpt>
      <trkpt lat="46.4544" lon="-1.71168">
        <ele>11.6</ele>
        <time>2020-06-03T11:17:53Z</time>
      </trkpt>
      <trkpt lat="46.45443" lon="-1.7117">
        <ele>11.6</ele>
        <time>2020-06-03T11:17:54Z</time>
      </trkpt>
      <trkpt lat="46.45443" lon="-1.71171">
        <ele>11.7</ele>
        <time>2020-06-03T11:17:55Z</time>
      </trkpt>
      <trkpt lat="46.45445" lon="-1.71172">
        <ele>11.7</ele>
        <time>2020-06-03T11:17:56Z</time>
      </trkpt>
      <trkpt lat="46.45445" lon="-1.71172">
        <ele>11.7</ele>
        <time>2020-06-03T11:17:57Z</time>
      </trkpt>
      <trkpt lat="46.45445" lon="-1.71172">
        <ele>11.7</ele>
        <time>2020-06-03T11:17:58Z</time>
      </trkpt>
      <trkpt lat="46.45446" lon="-1.71172">
        <ele>11.7</ele>
        <time>2020-06-03T11:17:59Z</time>
      </trkpt>
      <trkpt lat="46.45446" lon="-1.71173">
        <ele>11.7</ele>
        <time>2020-06-03T11:18:00Z</time>
      </trkpt>
      <trkpt lat="46.45446" lon="-1.71173">
        <ele>11.7</ele>
        <time>2020-06-03T11:18:01Z</time>
      </trkpt>
      <trkpt lat="46.45447" lon="-1.71173">
        <ele>11.7</ele>
        <time>2020-06-03T11:18:02Z</time>
      </trkpt>
      <trkpt lat="46.45447" lon="-1.71173">
        <ele>11.7</ele>
        <time>2020-06-03T11:18:03Z</time>
      </trkpt>
      <trkpt lat="46.45447" lon="-1.71173">
        <ele>11.7</ele>
        <time>2020-06-03T11:18:04Z</time>
      </trkpt>
      <trkpt lat="46.45448" lon="-1.71173">
        <ele>11.7</ele>
        <time>2020-06-03T11:18:05Z</time>
      </trkpt>
      <trkpt lat="46.45448" lon="-1.71173">
        <ele>11.7</ele>
        <time>2020-06-03T11:18:06Z</time>
      </trkpt>
      <trkpt lat="46.45448" lon="-1.71173">
        <ele>11.8</ele>
        <time>2020-06-03T11:18:07Z</time>
      </trkpt>
      <trkpt lat="46.45449" lon="-1.71174">
        <ele>11.8</ele>
        <time>2020-06-03T11:18:08Z</time>
      </trkpt>
      <trkpt lat="46.45449" lon="-1.71174">
        <ele>11.8</ele>
        <time>2020-06-03T11:18:09Z</time>
      </trkpt>
      <trkpt lat="46.45449" lon="-1.71174">
        <ele>11.8</ele>
        <time>2020-06-03T11:18:32Z</time>
      </trkpt>
      <trkpt lat="46.4545" lon="-1.71174">
        <ele>11.8</ele>
        <time>2020-06-03T11:18:33Z</time>
      </trkpt>
      <trkpt lat="46.45454" lon="-1.71175">
        <ele>11.8</ele>
        <time>2020-06-03T11:18:34Z</time>
      </trkpt>
      <trkpt lat="46.45455" lon="-1.71175">
        <ele>11.9</ele>
        <time>2020-06-03T11:18:35Z</time>
      </trkpt>
      <trkpt lat="46.45458" lon="-1.71175">
        <ele>11.9</ele>
        <time>2020-06-03T11:18:36Z</time>
      </trkpt>
      <trkpt lat="46.45461" lon="-1.71176">
        <ele>12</ele>
        <time>2020-06-03T11:18:37Z</time>
      </trkpt>
      <trkpt lat="46.45464" lon="-1.71174">
        <ele>12.1</ele>
        <time>2020-06-03T11:18:38Z</time>
      </trkpt>
      <trkpt lat="46.45465" lon="-1.71174">
        <ele>12.1</ele>
        <time>2020-06-03T11:18:39Z</time>
      </trkpt>
      <trkpt lat="46.45469" lon="-1.71173">
        <ele>12.2</ele>
        <time>2020-06-03T11:18:40Z</time>
      </trkpt>
      <trkpt lat="46.45471" lon="-1.71173">
        <ele>12.2</ele>
        <time>2020-06-03T11:18:41Z</time>
      </trkpt>
      <trkpt lat="46.45473" lon="-1.71172">
        <ele>12.3</ele>
        <time>2020-06-03T11:18:42Z</time>
      </trkpt>
      <trkpt lat="46.45477" lon="-1.71171">
        <ele>12.4</ele>
        <time>2020-06-03T11:18:43Z</time>
      </trkpt>
      <trkpt lat="46.4548" lon="-1.71171">
        <ele>12.4</ele>
        <time>2020-06-03T11:18:44Z</time>
      </trkpt>
      <trkpt lat="46.45484" lon="-1.71171">
        <ele>12.5</ele>
        <time>2020-06-03T11:18:45Z</time>
      </trkpt>
      <trkpt lat="46.45488" lon="-1.71172">
        <ele>12.6</ele>
        <time>2020-06-03T11:18:46Z</time>
      </trkpt>
      <trkpt lat="46.45491" lon="-1.71173">
        <ele>12.6</ele>
        <time>2020-06-03T11:18:47Z</time>
      </trkpt>
      <trkpt lat="46.45495" lon="-1.71175">
        <ele>12.7</ele>
        <time>2020-06-03T11:18:48Z</time>
      </trkpt>
      <trkpt lat="46.455" lon="-1.71177">
        <ele>12.8</ele>
        <time>2020-06-03T11:18:49Z</time>
      </trkpt>
      <trkpt lat="46.45504" lon="-1.71178">
        <ele>12.9</ele>
        <time>2020-06-03T11:18:50Z</time>
      </trkpt>
      <trkpt lat="46.45509" lon="-1.71178">
        <ele>13</ele>
        <time>2020-06-03T11:18:51Z</time>
      </trkpt>
      <trkpt lat="46.45513" lon="-1.71179">
        <ele>13.1</ele>
        <time>2020-06-03T11:18:52Z</time>
      </trkpt>
      <trkpt lat="46.45518" lon="-1.7118">
        <ele>13.2</ele>
        <time>2020-06-03T11:18:53Z</time>
      </trkpt>
      <trkpt lat="46.45523" lon="-1.71182">
        <ele>13.2</ele>
        <time>2020-06-03T11:18:54Z</time>
      </trkpt>
      <trkpt lat="46.45528" lon="-1.71184">
        <ele>13.3</ele>
        <time>2020-06-03T11:18:55Z</time>
      </trkpt>
      <trkpt lat="46.45532" lon="-1.71185">
        <ele>13.4</ele>
        <time>2020-06-03T11:18:56Z</time>
      </trkpt>
      <trkpt lat="46.45536" lon="-1.71187">
        <ele>13.5</ele>
        <time>2020-06-03T11:18:57Z</time>
      </trkpt>
      <trkpt lat="46.45539" lon="-1.71188">
        <ele>13.5</ele>
        <time>2020-06-03T11:18:58Z</time>
      </trkpt>
      <trkpt lat="46.45543" lon="-1.71189">
        <ele>13.6</ele>
        <time>2020-06-03T11:18:59Z</time>
      </trkpt>
      <trkpt lat="46.45546" lon="-1.7119">
        <ele>13.6</ele>
        <time>2020-06-03T11:19:00Z</time>
      </trkpt>
      <trkpt lat="46.4555" lon="-1.7119">
        <ele>13.7</ele>
        <time>2020-06-03T11:19:01Z</time>
      </trkpt>
      <trkpt lat="46.45554" lon="-1.71191">
        <ele>13.7</ele>
        <time>2020-06-03T11:19:02Z</time>
      </trkpt>
      <trkpt lat="46.45558" lon="-1.71193">
        <ele>13.8</ele>
        <time>2020-06-03T11:19:03Z</time>
      </trkpt>
      <trkpt lat="46.45561" lon="-1.71197">
        <ele>13.8</ele>
        <time>2020-06-03T11:19:04Z</time>
      </trkpt>
      <trkpt lat="46.45565" lon="-1.71199">
        <ele>13.9</ele>
        <time>2020-06-03T11:19:05Z</time>
      </trkpt>
      <trkpt lat="46.45569" lon="-1.71199">
        <ele>13.9</ele>
        <time>2020-06-03T11:19:06Z</time>
      </trkpt>
      <trkpt lat="46.45573" lon="-1.712">
        <ele>14</ele>
        <time>2020-06-03T11:19:07Z</time>
      </trkpt>
      <trkpt lat="46.45577" lon="-1.71201">
        <ele>14</ele>
        <time>2020-06-03T11:19:08Z</time>
      </trkpt>
      <trkpt lat="46.45581" lon="-1.71203">
        <ele>14.1</ele>
        <time>2020-06-03T11:19:09Z</time>
      </trkpt>
      <trkpt lat="46.45584" lon="-1.71204">
        <ele>14.2</ele>
        <time>2020-06-03T11:19:10Z</time>
      </trkpt>
      <trkpt lat="46.45587" lon="-1.71204">
        <ele>14.2</ele>
        <time>2020-06-03T11:19:11Z</time>
      </trkpt>
      <trkpt lat="46.45591" lon="-1.71205">
        <ele>14.3</ele>
        <time>2020-06-03T11:19:12Z</time>
      </trkpt>
      <trkpt lat="46.45596" lon="-1.71205">
        <ele>14.4</ele>
        <time>2020-06-03T11:19:13Z</time>
      </trkpt>
      <trkpt lat="46.456" lon="-1.71206">
        <ele>14.5</ele>
        <time>2020-06-03T11:19:14Z</time>
      </trkpt>
      <trkpt lat="46.45604" lon="-1.71205">
        <ele>14.5</ele>
        <time>2020-06-03T11:19:15Z</time>
      </trkpt>
      <trkpt lat="46.45608" lon="-1.71204">
        <ele>14.6</ele>
        <time>2020-06-03T11:19:16Z</time>
      </trkpt>
      <trkpt lat="46.45612" lon="-1.71203">
        <ele>14.6</ele>
        <time>2020-06-03T11:19:17Z</time>
      </trkpt>
      <trkpt lat="46.45616" lon="-1.71202">
        <ele>14.7</ele>
        <time>2020-06-03T11:19:18Z</time>
      </trkpt>
      <trkpt lat="46.45619" lon="-1.71202">
        <ele>14.7</ele>
        <time>2020-06-03T11:19:19Z</time>
      </trkpt>
      <trkpt lat="46.45623" lon="-1.71203">
        <ele>14.8</ele>
        <time>2020-06-03T11:19:20Z</time>
      </trkpt>
      <trkpt lat="46.45626" lon="-1.71206">
        <ele>14.9</ele>
        <time>2020-06-03T11:19:21Z</time>
      </trkpt>
      <trkpt lat="46.45631" lon="-1.71208">
        <ele>14.9</ele>
        <time>2020-06-03T11:19:22Z</time>
      </trkpt>
      <trkpt lat="46.45635" lon="-1.7121">
        <ele>15</ele>
        <time>2020-06-03T11:19:23Z</time>
      </trkpt>
      <trkpt lat="46.45639" lon="-1.71211">
        <ele>15</ele>
        <time>2020-06-03T11:19:24Z</time>
      </trkpt>
      <trkpt lat="46.45643" lon="-1.71213">
        <ele>15.1</ele>
        <time>2020-06-03T11:19:25Z</time>
      </trkpt>
      <trkpt lat="46.45647" lon="-1.71215">
        <ele>15.1</ele>
        <time>2020-06-03T11:19:26Z</time>
      </trkpt>
      <trkpt lat="46.45651" lon="-1.71217">
        <ele>15.1</ele>
        <time>2020-06-03T11:19:27Z</time>
      </trkpt>
      <trkpt lat="46.45655" lon="-1.71219">
        <ele>15.2</ele>
        <time>2020-06-03T11:19:28Z</time>
      </trkpt>
      <trkpt lat="46.45658" lon="-1.71222">
        <ele>15.2</ele>
        <time>2020-06-03T11:19:29Z</time>
      </trkpt>
      <trkpt lat="46.45662" lon="-1.71225">
        <ele>15.2</ele>
        <time>2020-06-03T11:19:30Z</time>
      </trkpt>
      <trkpt lat="46.45667" lon="-1.71228">
        <ele>15.2</ele>
        <time>2020-06-03T11:19:31Z</time>
      </trkpt>
      <trkpt lat="46.45671" lon="-1.71231">
        <ele>15.2</ele>
        <time>2020-06-03T11:19:32Z</time>
      </trkpt>
      <trkpt lat="46.45675" lon="-1.71234">
        <ele>15.2</ele>
        <time>2020-06-03T11:19:33Z</time>
      </trkpt>
      <trkpt lat="46.45679" lon="-1.71238">
        <ele>15.2</ele>
        <time>2020-06-03T11:19:34Z</time>
      </trkpt>
      <trkpt lat="46.45683" lon="-1.71241">
        <ele>15.2</ele>
        <time>2020-06-03T11:19:35Z</time>
      </trkpt>
      <trkpt lat="46.45687" lon="-1.71245">
        <ele>15.1</ele>
        <time>2020-06-03T11:19:36Z</time>
      </trkpt>
      <trkpt lat="46.45691" lon="-1.71249">
        <ele>15</ele>
        <time>2020-06-03T11:19:37Z</time>
      </trkpt>
      <trkpt lat="46.45696" lon="-1.71252">
        <ele>15</ele>
        <time>2020-06-03T11:19:38Z</time>
      </trkpt>
      <trkpt lat="46.457" lon="-1.71254">
        <ele>14.9</ele>
        <time>2020-06-03T11:19:39Z</time>
      </trkpt>
      <trkpt lat="46.45704" lon="-1.71257">
        <ele>14.8</ele>
        <time>2020-06-03T11:19:40Z</time>
      </trkpt>
      <trkpt lat="46.45708" lon="-1.7126">
        <ele>14.7</ele>
        <time>2020-06-03T11:19:41Z</time>
      </trkpt>
      <trkpt lat="46.45712" lon="-1.71264">
        <ele>14.7</ele>
        <time>2020-06-03T11:19:42Z</time>
      </trkpt>
      <trkpt lat="46.45717" lon="-1.71268">
        <ele>14.6</ele>
        <time>2020-06-03T11:19:43Z</time>
      </trkpt>
      <trkpt lat="46.4572" lon="-1.71272">
        <ele>14.5</ele>
        <time>2020-06-03T11:19:44Z</time>
      </trkpt>
      <trkpt lat="46.45724" lon="-1.71276">
        <ele>14.4</ele>
        <time>2020-06-03T11:19:45Z</time>
      </trkpt>
      <trkpt lat="46.45727" lon="-1.71282">
        <ele>14.3</ele>
        <time>2020-06-03T11:19:46Z</time>
      </trkpt>
      <trkpt lat="46.45729" lon="-1.71287">
        <ele>14.2</ele>
        <time>2020-06-03T11:19:47Z</time>
      </trkpt>
      <trkpt lat="46.4573" lon="-1.71292">
        <ele>14.1</ele>
        <time>2020-06-03T11:19:48Z</time>
      </trkpt>
      <trkpt lat="46.45732" lon="-1.71298">
        <ele>14</ele>
        <time>2020-06-03T11:19:49Z</time>
      </trkpt>
      <trkpt lat="46.45734" lon="-1.71302">
        <ele>13.9</ele>
        <time>2020-06-03T11:19:50Z</time>
      </trkpt>
      <trkpt lat="46.45737" lon="-1.71304">
        <ele>13.8</ele>
        <time>2020-06-03T11:19:51Z</time>
      </trkpt>
      <trkpt lat="46.45741" lon="-1.71305">
        <ele>13.7</ele>
        <time>2020-06-03T11:19:52Z</time>
      </trkpt>
      <trkpt lat="46.45743" lon="-1.71305">
        <ele>13.7</ele>
        <time>2020-06-03T11:19:53Z</time>
      </trkpt>
      <trkpt lat="46.45747" lon="-1.71305">
        <ele>13.6</ele>
        <time>2020-06-03T11:19:54Z</time>
      </trkpt>
      <trkpt lat="46.45751" lon="-1.71305">
        <ele>13.4</ele>
        <time>2020-06-03T11:19:55Z</time>
      </trkpt>
      <trkpt lat="46.45755" lon="-1.71305">
        <ele>13.3</ele>
        <time>2020-06-03T11:19:56Z</time>
      </trkpt>
      <trkpt lat="46.45759" lon="-1.71306">
        <ele>13.2</ele>
        <time>2020-06-03T11:19:57Z</time>
      </trkpt>
      <trkpt lat="46.45762" lon="-1.71306">
        <ele>13.1</ele>
        <time>2020-06-03T11:19:58Z</time>
      </trkpt>
      <trkpt lat="46.45766" lon="-1.71307">
        <ele>13</ele>
        <time>2020-06-03T11:19:59Z</time>
      </trkpt>
      <trkpt lat="46.45768" lon="-1.71311">
        <ele>12.8</ele>
        <time>2020-06-03T11:20:00Z</time>
      </trkpt>
      <trkpt lat="46.45772" lon="-1.71315">
        <ele>12.7</ele>
        <time>2020-06-03T11:20:01Z</time>
      </trkpt>
      <trkpt lat="46.45776" lon="-1.71319">
        <ele>12.5</ele>
        <time>2020-06-03T11:20:02Z</time>
      </trkpt>
      <trkpt lat="46.4578" lon="-1.71324">
        <ele>12.3</ele>
        <time>2020-06-03T11:20:03Z</time>
      </trkpt>
      <trkpt lat="46.45785" lon="-1.71328">
        <ele>12</ele>
        <time>2020-06-03T11:20:04Z</time>
      </trkpt>
      <trkpt lat="46.4579" lon="-1.71333">
        <ele>11.8</ele>
        <time>2020-06-03T11:20:05Z</time>
      </trkpt>
      <trkpt lat="46.45795" lon="-1.71338">
        <ele>11.4</ele>
        <time>2020-06-03T11:20:06Z</time>
      </trkpt>
      <trkpt lat="46.458" lon="-1.71342">
        <ele>11.1</ele>
        <time>2020-06-03T11:20:07Z</time>
      </trkpt>
      <trkpt lat="46.45806" lon="-1.71347">
        <ele>10.7</ele>
        <time>2020-06-03T11:20:08Z</time>
      </trkpt>
      <trkpt lat="46.45811" lon="-1.71352">
        <ele>10.3</ele>
        <time>2020-06-03T11:20:09Z</time>
      </trkpt>
      <trkpt lat="46.45818" lon="-1.71357">
        <ele>9.8</ele>
        <time>2020-06-03T11:20:10Z</time>
      </trkpt>
      <trkpt lat="46.45824" lon="-1.71362">
        <ele>9.4</ele>
        <time>2020-06-03T11:20:11Z</time>
      </trkpt>
      <trkpt lat="46.4583" lon="-1.71365">
        <ele>8.9</ele>
        <time>2020-06-03T11:20:12Z</time>
      </trkpt>
      <trkpt lat="46.45837" lon="-1.71369">
        <ele>8.6</ele>
        <time>2020-06-03T11:20:13Z</time>
      </trkpt>
      <trkpt lat="46.45844" lon="-1.71373">
        <ele>8.2</ele>
        <time>2020-06-03T11:20:14Z</time>
      </trkpt>
      <trkpt lat="46.45849" lon="-1.71376">
        <ele>8</ele>
        <time>2020-06-03T11:20:15Z</time>
      </trkpt>
      <trkpt lat="46.45855" lon="-1.71379">
        <ele>7.8</ele>
        <time>2020-06-03T11:20:16Z</time>
      </trkpt>
      <trkpt lat="46.45861" lon="-1.71382">
        <ele>7.6</ele>
        <time>2020-06-03T11:20:17Z</time>
      </trkpt>
      <trkpt lat="46.45868" lon="-1.71386">
        <ele>7.4</ele>
        <time>2020-06-03T11:20:18Z</time>
      </trkpt>
      <trkpt lat="46.45874" lon="-1.71389">
        <ele>7.3</ele>
        <time>2020-06-03T11:20:19Z</time>
      </trkpt>
      <trkpt lat="46.4588" lon="-1.71392">
        <ele>7.3</ele>
        <time>2020-06-03T11:20:20Z</time>
      </trkpt>
      <trkpt lat="46.45886" lon="-1.71397">
        <ele>7.3</ele>
        <time>2020-06-03T11:20:21Z</time>
      </trkpt>
      <trkpt lat="46.45891" lon="-1.71401">
        <ele>7.3</ele>
        <time>2020-06-03T11:20:22Z</time>
      </trkpt>
      <trkpt lat="46.45894" lon="-1.71406">
        <ele>7.4</ele>
        <time>2020-06-03T11:20:23Z</time>
      </trkpt>
      <trkpt lat="46.45898" lon="-1.71411">
        <ele>7.5</ele>
        <time>2020-06-03T11:20:24Z</time>
      </trkpt>
      <trkpt lat="46.45902" lon="-1.71418">
        <ele>7.7</ele>
        <time>2020-06-03T11:20:25Z</time>
      </trkpt>
      <trkpt lat="46.45904" lon="-1.71427">
        <ele>8</ele>
        <time>2020-06-03T11:20:26Z</time>
      </trkpt>
      <trkpt lat="46.45905" lon="-1.71435">
        <ele>8.4</ele>
        <time>2020-06-03T11:20:27Z</time>
      </trkpt>
      <trkpt lat="46.45907" lon="-1.71443">
        <ele>8.7</ele>
        <time>2020-06-03T11:20:28Z</time>
      </trkpt>
      <trkpt lat="46.45908" lon="-1.7145">
        <ele>9.1</ele>
        <time>2020-06-03T11:20:29Z</time>
      </trkpt>
      <trkpt lat="46.45909" lon="-1.71457">
        <ele>9.4</ele>
        <time>2020-06-03T11:20:30Z</time>
      </trkpt>
      <trkpt lat="46.4591" lon="-1.71463">
        <ele>9.8</ele>
        <time>2020-06-03T11:20:31Z</time>
      </trkpt>
      <trkpt lat="46.4591" lon="-1.7147">
        <ele>10.3</ele>
        <time>2020-06-03T11:20:32Z</time>
      </trkpt>
      <trkpt lat="46.45912" lon="-1.71476">
        <ele>10.6</ele>
        <time>2020-06-03T11:20:33Z</time>
      </trkpt>
      <trkpt lat="46.45915" lon="-1.71481">
        <ele>11</ele>
        <time>2020-06-03T11:20:34Z</time>
      </trkpt>
      <trkpt lat="46.45917" lon="-1.71487">
        <ele>11.3</ele>
        <time>2020-06-03T11:20:35Z</time>
      </trkpt>
      <trkpt lat="46.45919" lon="-1.71492">
        <ele>11.5</ele>
        <time>2020-06-03T11:20:36Z</time>
      </trkpt>
      <trkpt lat="46.4592" lon="-1.71496">
        <ele>11.7</ele>
        <time>2020-06-03T11:20:37Z</time>
      </trkpt>
      <trkpt lat="46.45921" lon="-1.71497">
        <ele>11.7</ele>
        <time>2020-06-03T11:20:38Z</time>
      </trkpt>
      <trkpt lat="46.45923" lon="-1.71501">
        <ele>11.9</ele>
        <time>2020-06-03T11:20:39Z</time>
      </trkpt>
      <trkpt lat="46.45924" lon="-1.71506">
        <ele>12</ele>
        <time>2020-06-03T11:20:40Z</time>
      </trkpt>
      <trkpt lat="46.45926" lon="-1.71509">
        <ele>12</ele>
        <time>2020-06-03T11:20:41Z</time>
      </trkpt>
      <trkpt lat="46.45929" lon="-1.71513">
        <ele>12.1</ele>
        <time>2020-06-03T11:20:42Z</time>
      </trkpt>
      <trkpt lat="46.45931" lon="-1.71515">
        <ele>12.1</ele>
        <time>2020-06-03T11:20:43Z</time>
      </trkpt>
      <trkpt lat="46.45933" lon="-1.71518">
        <ele>12.2</ele>
        <time>2020-06-03T11:20:44Z</time>
      </trkpt>
      <trkpt lat="46.45934" lon="-1.71519">
        <ele>12.2</ele>
        <time>2020-06-03T11:20:45Z</time>
      </trkpt>
      <trkpt lat="46.45936" lon="-1.71521">
        <ele>12.3</ele>
        <time>2020-06-03T11:20:46Z</time>
      </trkpt>
      <trkpt lat="46.45937" lon="-1.71523">
        <ele>12.3</ele>
        <time>2020-06-03T11:20:47Z</time>
      </trkpt>
      <trkpt lat="46.45939" lon="-1.71526">
        <ele>12.5</ele>
        <time>2020-06-03T11:20:48Z</time>
      </trkpt>
      <trkpt lat="46.45942" lon="-1.71529">
        <ele>12.7</ele>
        <time>2020-06-03T11:20:49Z</time>
      </trkpt>
      <trkpt lat="46.45944" lon="-1.71531">
        <ele>12.8</ele>
        <time>2020-06-03T11:20:50Z</time>
      </trkpt>
      <trkpt lat="46.45946" lon="-1.71533">
        <ele>12.9</ele>
        <time>2020-06-03T11:20:51Z</time>
      </trkpt>
      <trkpt lat="46.4595" lon="-1.71538">
        <ele>13.1</ele>
        <time>2020-06-03T11:20:52Z</time>
      </trkpt>
      <trkpt lat="46.45952" lon="-1.71542">
        <ele>13.3</ele>
        <time>2020-06-03T11:20:53Z</time>
      </trkpt>
      <trkpt lat="46.45955" lon="-1.71546">
        <ele>13.5</ele>
        <time>2020-06-03T11:20:54Z</time>
      </trkpt>
      <trkpt lat="46.45958" lon="-1.71551">
        <ele>13.6</ele>
        <time>2020-06-03T11:20:55Z</time>
      </trkpt>
      <trkpt lat="46.45961" lon="-1.71554">
        <ele>13.7</ele>
        <time>2020-06-03T11:20:56Z</time>
      </trkpt>
      <trkpt lat="46.45963" lon="-1.71558">
        <ele>13.8</ele>
        <time>2020-06-03T11:20:57Z</time>
      </trkpt>
      <trkpt lat="46.45965" lon="-1.71563">
        <ele>13.9</ele>
        <time>2020-06-03T11:20:58Z</time>
      </trkpt>
      <trkpt lat="46.45966" lon="-1.71565">
        <ele>13.9</ele>
        <time>2020-06-03T11:20:59Z</time>
      </trkpt>
      <trkpt lat="46.45968" lon="-1.71569">
        <ele>14</ele>
        <time>2020-06-03T11:21:00Z</time>
      </trkpt>
      <trkpt lat="46.45971" lon="-1.71573">
        <ele>14.1</ele>
        <time>2020-06-03T11:21:01Z</time>
      </trkpt>
      <trkpt lat="46.45971" lon="-1.71575">
        <ele>14.2</ele>
        <time>2020-06-03T11:21:02Z</time>
      </trkpt>
      <trkpt lat="46.45973" lon="-1.71579">
        <ele>14.3</ele>
        <time>2020-06-03T11:21:03Z</time>
      </trkpt>
      <trkpt lat="46.45976" lon="-1.71582">
        <ele>14.4</ele>
        <time>2020-06-03T11:21:04Z</time>
      </trkpt>
      <trkpt lat="46.45977" lon="-1.71587">
        <ele>14.5</ele>
        <time>2020-06-03T11:21:05Z</time>
      </trkpt>
      <trkpt lat="46.45978" lon="-1.71591">
        <ele>14.6</ele>
        <time>2020-06-03T11:21:06Z</time>
      </trkpt>
      <trkpt lat="46.4598" lon="-1.71595">
        <ele>14.7</ele>
        <time>2020-06-03T11:21:07Z</time>
      </trkpt>
      <trkpt lat="46.45982" lon="-1.71598">
        <ele>14.8</ele>
        <time>2020-06-03T11:21:08Z</time>
      </trkpt>
      <trkpt lat="46.45984" lon="-1.71603">
        <ele>14.9</ele>
        <time>2020-06-03T11:21:09Z</time>
      </trkpt>
      <trkpt lat="46.45986" lon="-1.71607">
        <ele>15</ele>
        <time>2020-06-03T11:21:10Z</time>
      </trkpt>
      <trkpt lat="46.45988" lon="-1.7161">
        <ele>15.1</ele>
        <time>2020-06-03T11:21:11Z</time>
      </trkpt>
      <trkpt lat="46.4599" lon="-1.71613">
        <ele>15.2</ele>
        <time>2020-06-03T11:21:12Z</time>
      </trkpt>
      <trkpt lat="46.45993" lon="-1.71616">
        <ele>15.3</ele>
        <time>2020-06-03T11:21:13Z</time>
      </trkpt>
      <trkpt lat="46.45996" lon="-1.71621">
        <ele>15.4</ele>
        <time>2020-06-03T11:21:14Z</time>
      </trkpt>
      <trkpt lat="46.45998" lon="-1.71625">
        <ele>15.6</ele>
        <time>2020-06-03T11:21:15Z</time>
      </trkpt>
      <trkpt lat="46.46001" lon="-1.71629">
        <ele>15.7</ele>
        <time>2020-06-03T11:21:16Z</time>
      </trkpt>
      <trkpt lat="46.46003" lon="-1.71631">
        <ele>15.7</ele>
        <time>2020-06-03T11:21:17Z</time>
      </trkpt>
      <trkpt lat="46.46006" lon="-1.71636">
        <ele>15.8</ele>
        <time>2020-06-03T11:21:18Z</time>
      </trkpt>
      <trkpt lat="46.46007" lon="-1.71638">
        <ele>15.9</ele>
        <time>2020-06-03T11:21:19Z</time>
      </trkpt>
      <trkpt lat="46.46009" lon="-1.71641">
        <ele>16</ele>
        <time>2020-06-03T11:21:20Z</time>
      </trkpt>
      <trkpt lat="46.46012" lon="-1.71645">
        <ele>16.1</ele>
        <time>2020-06-03T11:21:21Z</time>
      </trkpt>
      <trkpt lat="46.46013" lon="-1.71646">
        <ele>16.1</ele>
        <time>2020-06-03T11:21:22Z</time>
      </trkpt>
      <trkpt lat="46.46016" lon="-1.71649">
        <ele>16.2</ele>
        <time>2020-06-03T11:21:23Z</time>
      </trkpt>
      <trkpt lat="46.4602" lon="-1.71653">
        <ele>16.4</ele>
        <time>2020-06-03T11:21:24Z</time>
      </trkpt>
      <trkpt lat="46.46023" lon="-1.71655">
        <ele>16.5</ele>
        <time>2020-06-03T11:21:25Z</time>
      </trkpt>
      <trkpt lat="46.46026" lon="-1.71657">
        <ele>16.6</ele>
        <time>2020-06-03T11:21:26Z</time>
      </trkpt>
      <trkpt lat="46.46027" lon="-1.71658">
        <ele>16.7</ele>
        <time>2020-06-03T11:21:27Z</time>
      </trkpt>
      <trkpt lat="46.46031" lon="-1.71662">
        <ele>16.8</ele>
        <time>2020-06-03T11:21:28Z</time>
      </trkpt>
      <trkpt lat="46.46032" lon="-1.71663">
        <ele>16.8</ele>
        <time>2020-06-03T11:21:29Z</time>
      </trkpt>
      <trkpt lat="46.46035" lon="-1.71667">
        <ele>17</ele>
        <time>2020-06-03T11:21:30Z</time>
      </trkpt>
      <trkpt lat="46.46037" lon="-1.7167">
        <ele>17.1</ele>
        <time>2020-06-03T11:21:31Z</time>
      </trkpt>
      <trkpt lat="46.46039" lon="-1.71673">
        <ele>17.1</ele>
        <time>2020-06-03T11:21:32Z</time>
      </trkpt>
      <trkpt lat="46.46041" lon="-1.71675">
        <ele>17.2</ele>
        <time>2020-06-03T11:21:33Z</time>
      </trkpt>
      <trkpt lat="46.46042" lon="-1.71677">
        <ele>17.3</ele>
        <time>2020-06-03T11:21:34Z</time>
      </trkpt>
      <trkpt lat="46.46045" lon="-1.71681">
        <ele>17.4</ele>
        <time>2020-06-03T11:21:35Z</time>
      </trkpt>
      <trkpt lat="46.46048" lon="-1.71685">
        <ele>17.5</ele>
        <time>2020-06-03T11:21:36Z</time>
      </trkpt>
      <trkpt lat="46.46051" lon="-1.7169">
        <ele>17.7</ele>
        <time>2020-06-03T11:21:37Z</time>
      </trkpt>
      <trkpt lat="46.46052" lon="-1.71693">
        <ele>17.8</ele>
        <time>2020-06-03T11:21:38Z</time>
      </trkpt>
      <trkpt lat="46.46055" lon="-1.71698">
        <ele>17.9</ele>
        <time>2020-06-03T11:21:39Z</time>
      </trkpt>
      <trkpt lat="46.46058" lon="-1.71703">
        <ele>18.1</ele>
        <time>2020-06-03T11:21:40Z</time>
      </trkpt>
      <trkpt lat="46.4606" lon="-1.71709">
        <ele>18.2</ele>
        <time>2020-06-03T11:21:41Z</time>
      </trkpt>
      <trkpt lat="46.46063" lon="-1.71713">
        <ele>18.3</ele>
        <time>2020-06-03T11:21:42Z</time>
      </trkpt>
      <trkpt lat="46.46065" lon="-1.71717">
        <ele>18.4</ele>
        <time>2020-06-03T11:21:43Z</time>
      </trkpt>
      <trkpt lat="46.46067" lon="-1.71721">
        <ele>18.5</ele>
        <time>2020-06-03T11:21:44Z</time>
      </trkpt>
      <trkpt lat="46.46069" lon="-1.71724">
        <ele>18.6</ele>
        <time>2020-06-03T11:21:45Z</time>
      </trkpt>
      <trkpt lat="46.46072" lon="-1.71728">
        <ele>18.7</ele>
        <time>2020-06-03T11:21:46Z</time>
      </trkpt>
      <trkpt lat="46.46072" lon="-1.71729">
        <ele>18.7</ele>
        <time>2020-06-03T11:21:47Z</time>
      </trkpt>
      <trkpt lat="46.46074" lon="-1.71733">
        <ele>18.8</ele>
        <time>2020-06-03T11:21:48Z</time>
      </trkpt>
      <trkpt lat="46.46076" lon="-1.71736">
        <ele>18.9</ele>
        <time>2020-06-03T11:21:49Z</time>
      </trkpt>
      <trkpt lat="46.46078" lon="-1.71739">
        <ele>19</ele>
        <time>2020-06-03T11:21:50Z</time>
      </trkpt>
      <trkpt lat="46.4608" lon="-1.71744">
        <ele>19.2</ele>
        <time>2020-06-03T11:21:51Z</time>
      </trkpt>
      <trkpt lat="46.46083" lon="-1.71748">
        <ele>19.3</ele>
        <time>2020-06-03T11:21:52Z</time>
      </trkpt>
      <trkpt lat="46.46086" lon="-1.71751">
        <ele>19.4</ele>
        <time>2020-06-03T11:21:53Z</time>
      </trkpt>
      <trkpt lat="46.46088" lon="-1.71754">
        <ele>19.5</ele>
        <time>2020-06-03T11:21:54Z</time>
      </trkpt>
      <trkpt lat="46.46091" lon="-1.71756">
        <ele>19.6</ele>
        <time>2020-06-03T11:21:55Z</time>
      </trkpt>
      <trkpt lat="46.46093" lon="-1.71759">
        <ele>19.7</ele>
        <time>2020-06-03T11:21:56Z</time>
      </trkpt>
      <trkpt lat="46.46096" lon="-1.71761">
        <ele>19.8</ele>
        <time>2020-06-03T11:21:57Z</time>
      </trkpt>
      <trkpt lat="46.46099" lon="-1.71765">
        <ele>19.9</ele>
        <time>2020-06-03T11:21:58Z</time>
      </trkpt>
      <trkpt lat="46.46102" lon="-1.71768">
        <ele>19.9</ele>
        <time>2020-06-03T11:21:59Z</time>
      </trkpt>
      <trkpt lat="46.46105" lon="-1.71771">
        <ele>20</ele>
        <time>2020-06-03T11:22:00Z</time>
      </trkpt>
      <trkpt lat="46.46109" lon="-1.71774">
        <ele>20.1</ele>
        <time>2020-06-03T11:22:01Z</time>
      </trkpt>
      <trkpt lat="46.46112" lon="-1.71777">
        <ele>20.1</ele>
        <time>2020-06-03T11:22:02Z</time>
      </trkpt>
      <trkpt lat="46.46115" lon="-1.7178">
        <ele>20.2</ele>
        <time>2020-06-03T11:22:03Z</time>
      </trkpt>
      <trkpt lat="46.46119" lon="-1.71782">
        <ele>20.2</ele>
        <time>2020-06-03T11:22:04Z</time>
      </trkpt>
      <trkpt lat="46.46122" lon="-1.71784">
        <ele>20.3</ele>
        <time>2020-06-03T11:22:05Z</time>
      </trkpt>
      <trkpt lat="46.46126" lon="-1.71788">
        <ele>20.3</ele>
        <time>2020-06-03T11:22:06Z</time>
      </trkpt>
      <trkpt lat="46.4613" lon="-1.71791">
        <ele>20.4</ele>
        <time>2020-06-03T11:22:07Z</time>
      </trkpt>
      <trkpt lat="46.46134" lon="-1.71796">
        <ele>20.5</ele>
        <time>2020-06-03T11:22:08Z</time>
      </trkpt>
      <trkpt lat="46.46137" lon="-1.71798">
        <ele>20.5</ele>
        <time>2020-06-03T11:22:09Z</time>
      </trkpt>
      <trkpt lat="46.46141" lon="-1.718">
        <ele>20.6</ele>
        <time>2020-06-03T11:22:10Z</time>
      </trkpt>
      <trkpt lat="46.46144" lon="-1.71803">
        <ele>20.6</ele>
        <time>2020-06-03T11:22:11Z</time>
      </trkpt>
      <trkpt lat="46.46147" lon="-1.71805">
        <ele>20.7</ele>
        <time>2020-06-03T11:22:12Z</time>
      </trkpt>
      <trkpt lat="46.46151" lon="-1.71807">
        <ele>20.8</ele>
        <time>2020-06-03T11:22:13Z</time>
      </trkpt>
      <trkpt lat="46.46155" lon="-1.7181">
        <ele>20.8</ele>
        <time>2020-06-03T11:22:14Z</time>
      </trkpt>
      <trkpt lat="46.46158" lon="-1.71813">
        <ele>20.9</ele>
        <time>2020-06-03T11:22:15Z</time>
      </trkpt>
      <trkpt lat="46.46162" lon="-1.71817">
        <ele>21</ele>
        <time>2020-06-03T11:22:16Z</time>
      </trkpt>
      <trkpt lat="46.46166" lon="-1.71822">
        <ele>21</ele>
        <time>2020-06-03T11:22:17Z</time>
      </trkpt>
      <trkpt lat="46.46169" lon="-1.71826">
        <ele>21.1</ele>
        <time>2020-06-03T11:22:18Z</time>
      </trkpt>
      <trkpt lat="46.46174" lon="-1.71831">
        <ele>21.1</ele>
        <time>2020-06-03T11:22:19Z</time>
      </trkpt>
      <trkpt lat="46.46178" lon="-1.71835">
        <ele>21.2</ele>
        <time>2020-06-03T11:22:20Z</time>
      </trkpt>
      <trkpt lat="46.46181" lon="-1.71837">
        <ele>21.2</ele>
        <time>2020-06-03T11:22:21Z</time>
      </trkpt>
      <trkpt lat="46.46184" lon="-1.71841">
        <ele>21.2</ele>
        <time>2020-06-03T11:22:22Z</time>
      </trkpt>
      <trkpt lat="46.46188" lon="-1.71844">
        <ele>21.2</ele>
        <time>2020-06-03T11:22:23Z</time>
      </trkpt>
      <trkpt lat="46.46192" lon="-1.71849">
        <ele>21.2</ele>
        <time>2020-06-03T11:22:24Z</time>
      </trkpt>
      <trkpt lat="46.46196" lon="-1.71854">
        <ele>21.2</ele>
        <time>2020-06-03T11:22:25Z</time>
      </trkpt>
      <trkpt lat="46.46199" lon="-1.71857">
        <ele>21.2</ele>
        <time>2020-06-03T11:22:26Z</time>
      </trkpt>
      <trkpt lat="46.46201" lon="-1.71861">
        <ele>21.2</ele>
        <time>2020-06-03T11:22:27Z</time>
      </trkpt>
      <trkpt lat="46.46204" lon="-1.71866">
        <ele>21.2</ele>
        <time>2020-06-03T11:22:28Z</time>
      </trkpt>
      <trkpt lat="46.46207" lon="-1.71868">
        <ele>21.2</ele>
        <time>2020-06-03T11:22:29Z</time>
      </trkpt>
      <trkpt lat="46.4621" lon="-1.7187">
        <ele>21.1</ele>
        <time>2020-06-03T11:22:30Z</time>
      </trkpt>
      <trkpt lat="46.46213" lon="-1.71872">
        <ele>21.1</ele>
        <time>2020-06-03T11:22:31Z</time>
      </trkpt>
      <trkpt lat="46.46215" lon="-1.71875">
        <ele>21.1</ele>
        <time>2020-06-03T11:22:32Z</time>
      </trkpt>
      <trkpt lat="46.46218" lon="-1.71877">
        <ele>21.1</ele>
        <time>2020-06-03T11:22:33Z</time>
      </trkpt>
      <trkpt lat="46.4622" lon="-1.71881">
        <ele>21.1</ele>
        <time>2020-06-03T11:22:34Z</time>
      </trkpt>
      <trkpt lat="46.46223" lon="-1.71885">
        <ele>21.1</ele>
        <time>2020-06-03T11:22:35Z</time>
      </trkpt>
      <trkpt lat="46.46226" lon="-1.7189">
        <ele>21.1</ele>
        <time>2020-06-03T11:22:36Z</time>
      </trkpt>
      <trkpt lat="46.46228" lon="-1.71895">
        <ele>21.1</ele>
        <time>2020-06-03T11:22:37Z</time>
      </trkpt>
      <trkpt lat="46.46231" lon="-1.71901">
        <ele>21</ele>
        <time>2020-06-03T11:22:38Z</time>
      </trkpt>
      <trkpt lat="46.46234" lon="-1.71906">
        <ele>21</ele>
        <time>2020-06-03T11:22:39Z</time>
      </trkpt>
      <trkpt lat="46.46237" lon="-1.71911">
        <ele>21</ele>
        <time>2020-06-03T11:22:40Z</time>
      </trkpt>
      <trkpt lat="46.4624" lon="-1.71916">
        <ele>21</ele>
        <time>2020-06-03T11:22:41Z</time>
      </trkpt>
      <trkpt lat="46.46242" lon="-1.71922">
        <ele>21</ele>
        <time>2020-06-03T11:22:42Z</time>
      </trkpt>
      <trkpt lat="46.46245" lon="-1.71927">
        <ele>21</ele>
        <time>2020-06-03T11:22:43Z</time>
      </trkpt>
      <trkpt lat="46.46249" lon="-1.71934">
        <ele>20.9</ele>
        <time>2020-06-03T11:22:44Z</time>
      </trkpt>
      <trkpt lat="46.46252" lon="-1.7194">
        <ele>20.9</ele>
        <time>2020-06-03T11:22:45Z</time>
      </trkpt>
      <trkpt lat="46.46254" lon="-1.71946">
        <ele>20.9</ele>
        <time>2020-06-03T11:22:46Z</time>
      </trkpt>
      <trkpt lat="46.46257" lon="-1.71951">
        <ele>20.9</ele>
        <time>2020-06-03T11:22:47Z</time>
      </trkpt>
      <trkpt lat="46.4626" lon="-1.71957">
        <ele>20.8</ele>
        <time>2020-06-03T11:22:48Z</time>
      </trkpt>
      <trkpt lat="46.46262" lon="-1.71963">
        <ele>20.8</ele>
        <time>2020-06-03T11:22:49Z</time>
      </trkpt>
      <trkpt lat="46.46266" lon="-1.71968">
        <ele>20.8</ele>
        <time>2020-06-03T11:22:50Z</time>
      </trkpt>
      <trkpt lat="46.46268" lon="-1.71973">
        <ele>20.8</ele>
        <time>2020-06-03T11:22:51Z</time>
      </trkpt>
      <trkpt lat="46.46272" lon="-1.71978">
        <ele>20.8</ele>
        <time>2020-06-03T11:22:52Z</time>
      </trkpt>
      <trkpt lat="46.46274" lon="-1.71983">
        <ele>20.9</ele>
        <time>2020-06-03T11:22:53Z</time>
      </trkpt>
      <trkpt lat="46.46277" lon="-1.71988">
        <ele>20.9</ele>
        <time>2020-06-03T11:22:54Z</time>
      </trkpt>
      <trkpt lat="46.46279" lon="-1.71994">
        <ele>21</ele>
        <time>2020-06-03T11:22:55Z</time>
      </trkpt>
      <trkpt lat="46.46282" lon="-1.72">
        <ele>21</ele>
        <time>2020-06-03T11:22:56Z</time>
      </trkpt>
      <trkpt lat="46.46284" lon="-1.72007">
        <ele>21.1</ele>
        <time>2020-06-03T11:22:57Z</time>
      </trkpt>
      <trkpt lat="46.46287" lon="-1.72013">
        <ele>21.2</ele>
        <time>2020-06-03T11:22:58Z</time>
      </trkpt>
      <trkpt lat="46.46289" lon="-1.7202">
        <ele>21.2</ele>
        <time>2020-06-03T11:22:59Z</time>
      </trkpt>
      <trkpt lat="46.46292" lon="-1.72026">
        <ele>21.3</ele>
        <time>2020-06-03T11:23:00Z</time>
      </trkpt>
      <trkpt lat="46.46295" lon="-1.72032">
        <ele>21.3</ele>
        <time>2020-06-03T11:23:01Z</time>
      </trkpt>
      <trkpt lat="46.46297" lon="-1.7204">
        <ele>21.4</ele>
        <time>2020-06-03T11:23:02Z</time>
      </trkpt>
      <trkpt lat="46.46299" lon="-1.72046">
        <ele>21.4</ele>
        <time>2020-06-03T11:23:03Z</time>
      </trkpt>
      <trkpt lat="46.46301" lon="-1.72053">
        <ele>21.4</ele>
        <time>2020-06-03T11:23:04Z</time>
      </trkpt>
      <trkpt lat="46.46303" lon="-1.72059">
        <ele>21.4</ele>
        <time>2020-06-03T11:23:05Z</time>
      </trkpt>
      <trkpt lat="46.46306" lon="-1.72066">
        <ele>21.5</ele>
        <time>2020-06-03T11:23:06Z</time>
      </trkpt>
      <trkpt lat="46.46307" lon="-1.72073">
        <ele>21.5</ele>
        <time>2020-06-03T11:23:07Z</time>
      </trkpt>
      <trkpt lat="46.46308" lon="-1.7208">
        <ele>21.5</ele>
        <time>2020-06-03T11:23:08Z</time>
      </trkpt>
      <trkpt lat="46.4631" lon="-1.72088">
        <ele>21.5</ele>
        <time>2020-06-03T11:23:09Z</time>
      </trkpt>
      <trkpt lat="46.4631" lon="-1.72095">
        <ele>21.5</ele>
        <time>2020-06-03T11:23:10Z</time>
      </trkpt>
      <trkpt lat="46.46311" lon="-1.72101">
        <ele>21.5</ele>
        <time>2020-06-03T11:23:11Z</time>
      </trkpt>
      <trkpt lat="46.46312" lon="-1.72109">
        <ele>21.5</ele>
        <time>2020-06-03T11:23:12Z</time>
      </trkpt>
      <trkpt lat="46.46312" lon="-1.72116">
        <ele>21.5</ele>
        <time>2020-06-03T11:23:13Z</time>
      </trkpt>
      <trkpt lat="46.46314" lon="-1.72123">
        <ele>21.6</ele>
        <time>2020-06-03T11:23:14Z</time>
      </trkpt>
      <trkpt lat="46.46315" lon="-1.7213">
        <ele>21.6</ele>
        <time>2020-06-03T11:23:15Z</time>
      </trkpt>
      <trkpt lat="46.46317" lon="-1.72137">
        <ele>21.6</ele>
        <time>2020-06-03T11:23:16Z</time>
      </trkpt>
      <trkpt lat="46.46318" lon="-1.72144">
        <ele>21.6</ele>
        <time>2020-06-03T11:23:17Z</time>
      </trkpt>
      <trkpt lat="46.46319" lon="-1.7215">
        <ele>21.6</ele>
        <time>2020-06-03T11:23:18Z</time>
      </trkpt>
      <trkpt lat="46.4632" lon="-1.72158">
        <ele>21.6</ele>
        <time>2020-06-03T11:23:19Z</time>
      </trkpt>
      <trkpt lat="46.46321" lon="-1.72166">
        <ele>21.7</ele>
        <time>2020-06-03T11:23:20Z</time>
      </trkpt>
      <trkpt lat="46.46321" lon="-1.72173">
        <ele>21.7</ele>
        <time>2020-06-03T11:23:21Z</time>
      </trkpt>
      <trkpt lat="46.46322" lon="-1.72179">
        <ele>21.8</ele>
        <time>2020-06-03T11:23:22Z</time>
      </trkpt>
      <trkpt lat="46.46323" lon="-1.72186">
        <ele>21.8</ele>
        <time>2020-06-03T11:23:23Z</time>
      </trkpt>
      <trkpt lat="46.46324" lon="-1.72192">
        <ele>21.8</ele>
        <time>2020-06-03T11:23:24Z</time>
      </trkpt>
      <trkpt lat="46.46325" lon="-1.72198">
        <ele>21.9</ele>
        <time>2020-06-03T11:23:25Z</time>
      </trkpt>
      <trkpt lat="46.46327" lon="-1.72205">
        <ele>21.9</ele>
        <time>2020-06-03T11:23:26Z</time>
      </trkpt>
      <trkpt lat="46.46329" lon="-1.72212">
        <ele>22</ele>
        <time>2020-06-03T11:23:27Z</time>
      </trkpt>
      <trkpt lat="46.4633" lon="-1.72218">
        <ele>22</ele>
        <time>2020-06-03T11:23:28Z</time>
      </trkpt>
      <trkpt lat="46.46331" lon="-1.72225">
        <ele>22.1</ele>
        <time>2020-06-03T11:23:29Z</time>
      </trkpt>
      <trkpt lat="46.46333" lon="-1.72232">
        <ele>22.1</ele>
        <time>2020-06-03T11:23:30Z</time>
      </trkpt>
      <trkpt lat="46.46335" lon="-1.72238">
        <ele>22.2</ele>
        <time>2020-06-03T11:23:31Z</time>
      </trkpt>
      <trkpt lat="46.46336" lon="-1.72244">
        <ele>22.2</ele>
        <time>2020-06-03T11:23:32Z</time>
      </trkpt>
      <trkpt lat="46.46337" lon="-1.72251">
        <ele>22.2</ele>
        <time>2020-06-03T11:23:33Z</time>
      </trkpt>
      <trkpt lat="46.46339" lon="-1.72258">
        <ele>22.2</ele>
        <time>2020-06-03T11:23:34Z</time>
      </trkpt>
      <trkpt lat="46.4634" lon="-1.72265">
        <ele>22.3</ele>
        <time>2020-06-03T11:23:35Z</time>
      </trkpt>
      <trkpt lat="46.46342" lon="-1.72272">
        <ele>22.3</ele>
        <time>2020-06-03T11:23:36Z</time>
      </trkpt>
      <trkpt lat="46.46343" lon="-1.7228">
        <ele>22.3</ele>
        <time>2020-06-03T11:23:37Z</time>
      </trkpt>
      <trkpt lat="46.46344" lon="-1.72287">
        <ele>22.3</ele>
        <time>2020-06-03T11:23:38Z</time>
      </trkpt>
      <trkpt lat="46.46346" lon="-1.72292">
        <ele>22.3</ele>
        <time>2020-06-03T11:23:39Z</time>
      </trkpt>
      <trkpt lat="46.46347" lon="-1.72299">
        <ele>22.3</ele>
        <time>2020-06-03T11:23:40Z</time>
      </trkpt>
      <trkpt lat="46.46349" lon="-1.72306">
        <ele>22.3</ele>
        <time>2020-06-03T11:23:41Z</time>
      </trkpt>
      <trkpt lat="46.4635" lon="-1.72313">
        <ele>22.3</ele>
        <time>2020-06-03T11:23:42Z</time>
      </trkpt>
      <trkpt lat="46.4635" lon="-1.7232">
        <ele>22.3</ele>
        <time>2020-06-03T11:23:43Z</time>
      </trkpt>
      <trkpt lat="46.4635" lon="-1.72327">
        <ele>22.3</ele>
        <time>2020-06-03T11:23:44Z</time>
      </trkpt>
      <trkpt lat="46.46351" lon="-1.72334">
        <ele>22.3</ele>
        <time>2020-06-03T11:23:45Z</time>
      </trkpt>
      <trkpt lat="46.46352" lon="-1.72341">
        <ele>22.3</ele>
        <time>2020-06-03T11:23:46Z</time>
      </trkpt>
      <trkpt lat="46.46353" lon="-1.72347">
        <ele>22.3</ele>
        <time>2020-06-03T11:23:47Z</time>
      </trkpt>
      <trkpt lat="46.46354" lon="-1.72355">
        <ele>22.3</ele>
        <time>2020-06-03T11:23:48Z</time>
      </trkpt>
      <trkpt lat="46.46355" lon="-1.72362">
        <ele>22.3</ele>
        <time>2020-06-03T11:23:49Z</time>
      </trkpt>
      <trkpt lat="46.46355" lon="-1.72369">
        <ele>22.3</ele>
        <time>2020-06-03T11:23:50Z</time>
      </trkpt>
      <trkpt lat="46.46356" lon="-1.72376">
        <ele>22.3</ele>
        <time>2020-06-03T11:23:51Z</time>
      </trkpt>
      <trkpt lat="46.46356" lon="-1.72383">
        <ele>22.3</ele>
        <time>2020-06-03T11:23:52Z</time>
      </trkpt>
      <trkpt lat="46.46356" lon="-1.72391">
        <ele>22.3</ele>
        <time>2020-06-03T11:23:53Z</time>
      </trkpt>
      <trkpt lat="46.46356" lon="-1.72397">
        <ele>22.3</ele>
        <time>2020-06-03T11:23:54Z</time>
      </trkpt>
      <trkpt lat="46.46357" lon="-1.72404">
        <ele>22.3</ele>
        <time>2020-06-03T11:23:55Z</time>
      </trkpt>
      <trkpt lat="46.46358" lon="-1.7241">
        <ele>22.3</ele>
        <time>2020-06-03T11:23:56Z</time>
      </trkpt>
      <trkpt lat="46.46358" lon="-1.72417">
        <ele>22.3</ele>
        <time>2020-06-03T11:23:57Z</time>
      </trkpt>
      <trkpt lat="46.46358" lon="-1.72424">
        <ele>22.3</ele>
        <time>2020-06-03T11:23:58Z</time>
      </trkpt>
      <trkpt lat="46.46358" lon="-1.7243">
        <ele>22.2</ele>
        <time>2020-06-03T11:23:59Z</time>
      </trkpt>
      <trkpt lat="46.46359" lon="-1.72436">
        <ele>22.2</ele>
        <time>2020-06-03T11:24:00Z</time>
      </trkpt>
      <trkpt lat="46.46359" lon="-1.72443">
        <ele>22.2</ele>
        <time>2020-06-03T11:24:01Z</time>
      </trkpt>
      <trkpt lat="46.46359" lon="-1.7245">
        <ele>22.2</ele>
        <time>2020-06-03T11:24:02Z</time>
      </trkpt>
      <trkpt lat="46.46361" lon="-1.72456">
        <ele>22.2</ele>
        <time>2020-06-03T11:24:03Z</time>
      </trkpt>
      <trkpt lat="46.46363" lon="-1.72462">
        <ele>22.2</ele>
        <time>2020-06-03T11:24:04Z</time>
      </trkpt>
      <trkpt lat="46.46364" lon="-1.72468">
        <ele>22.2</ele>
        <time>2020-06-03T11:24:05Z</time>
      </trkpt>
      <trkpt lat="46.46364" lon="-1.72474">
        <ele>22.2</ele>
        <time>2020-06-03T11:24:06Z</time>
      </trkpt>
      <trkpt lat="46.46364" lon="-1.7248">
        <ele>22.2</ele>
        <time>2020-06-03T11:24:07Z</time>
      </trkpt>
      <trkpt lat="46.46365" lon="-1.72486">
        <ele>22.2</ele>
        <time>2020-06-03T11:24:08Z</time>
      </trkpt>
      <trkpt lat="46.46365" lon="-1.72492">
        <ele>22.2</ele>
        <time>2020-06-03T11:24:09Z</time>
      </trkpt>
      <trkpt lat="46.46365" lon="-1.72498">
        <ele>22.2</ele>
        <time>2020-06-03T11:24:10Z</time>
      </trkpt>
      <trkpt lat="46.46366" lon="-1.72505">
        <ele>22.1</ele>
        <time>2020-06-03T11:24:11Z</time>
      </trkpt>
      <trkpt lat="46.46366" lon="-1.72511">
        <ele>22.1</ele>
        <time>2020-06-03T11:24:12Z</time>
      </trkpt>
      <trkpt lat="46.46367" lon="-1.72517">
        <ele>22.1</ele>
        <time>2020-06-03T11:24:13Z</time>
      </trkpt>
      <trkpt lat="46.46368" lon="-1.72522">
        <ele>22.1</ele>
        <time>2020-06-03T11:24:14Z</time>
      </trkpt>
      <trkpt lat="46.46369" lon="-1.72529">
        <ele>22.1</ele>
        <time>2020-06-03T11:24:15Z</time>
      </trkpt>
      <trkpt lat="46.46371" lon="-1.72535">
        <ele>22.1</ele>
        <time>2020-06-03T11:24:16Z</time>
      </trkpt>
      <trkpt lat="46.46371" lon="-1.72541">
        <ele>22</ele>
        <time>2020-06-03T11:24:17Z</time>
      </trkpt>
      <trkpt lat="46.46372" lon="-1.72548">
        <ele>22</ele>
        <time>2020-06-03T11:24:18Z</time>
      </trkpt>
      <trkpt lat="46.46372" lon="-1.72554">
        <ele>21.9</ele>
        <time>2020-06-03T11:24:19Z</time>
      </trkpt>
      <trkpt lat="46.46373" lon="-1.7256">
        <ele>21.9</ele>
        <time>2020-06-03T11:24:20Z</time>
      </trkpt>
      <trkpt lat="46.46373" lon="-1.72565">
        <ele>21.9</ele>
        <time>2020-06-03T11:24:21Z</time>
      </trkpt>
      <trkpt lat="46.46374" lon="-1.72571">
        <ele>21.8</ele>
        <time>2020-06-03T11:24:22Z</time>
      </trkpt>
      <trkpt lat="46.46375" lon="-1.72578">
        <ele>21.8</ele>
        <time>2020-06-03T11:24:23Z</time>
      </trkpt>
      <trkpt lat="46.46375" lon="-1.72585">
        <ele>21.7</ele>
        <time>2020-06-03T11:24:24Z</time>
      </trkpt>
      <trkpt lat="46.46375" lon="-1.72591">
        <ele>21.7</ele>
        <time>2020-06-03T11:24:25Z</time>
      </trkpt>
      <trkpt lat="46.46376" lon="-1.72597">
        <ele>21.7</ele>
        <time>2020-06-03T11:24:26Z</time>
      </trkpt>
      <trkpt lat="46.46377" lon="-1.72603">
        <ele>21.6</ele>
        <time>2020-06-03T11:24:27Z</time>
      </trkpt>
      <trkpt lat="46.46378" lon="-1.72609">
        <ele>21.6</ele>
        <time>2020-06-03T11:24:28Z</time>
      </trkpt>
      <trkpt lat="46.4638" lon="-1.72615">
        <ele>21.5</ele>
        <time>2020-06-03T11:24:29Z</time>
      </trkpt>
      <trkpt lat="46.46381" lon="-1.72622">
        <ele>21.5</ele>
        <time>2020-06-03T11:24:30Z</time>
      </trkpt>
      <trkpt lat="46.46382" lon="-1.72629">
        <ele>21.4</ele>
        <time>2020-06-03T11:24:31Z</time>
      </trkpt>
      <trkpt lat="46.46382" lon="-1.72635">
        <ele>21.3</ele>
        <time>2020-06-03T11:24:32Z</time>
      </trkpt>
      <trkpt lat="46.46382" lon="-1.72642">
        <ele>21.2</ele>
        <time>2020-06-03T11:24:33Z</time>
      </trkpt>
      <trkpt lat="46.46383" lon="-1.72649">
        <ele>21.1</ele>
        <time>2020-06-03T11:24:34Z</time>
      </trkpt>
      <trkpt lat="46.46383" lon="-1.72656">
        <ele>21</ele>
        <time>2020-06-03T11:24:35Z</time>
      </trkpt>
      <trkpt lat="46.46382" lon="-1.72663">
        <ele>20.9</ele>
        <time>2020-06-03T11:24:36Z</time>
      </trkpt>
      <trkpt lat="46.46382" lon="-1.72671">
        <ele>20.8</ele>
        <time>2020-06-03T11:24:37Z</time>
      </trkpt>
      <trkpt lat="46.46382" lon="-1.72677">
        <ele>20.7</ele>
        <time>2020-06-03T11:24:38Z</time>
      </trkpt>
      <trkpt lat="46.46382" lon="-1.72683">
        <ele>20.6</ele>
        <time>2020-06-03T11:24:39Z</time>
      </trkpt>
      <trkpt lat="46.46382" lon="-1.72689">
        <ele>20.5</ele>
        <time>2020-06-03T11:24:40Z</time>
      </trkpt>
      <trkpt lat="46.46381" lon="-1.72694">
        <ele>20.4</ele>
        <time>2020-06-03T11:24:41Z</time>
      </trkpt>
      <trkpt lat="46.46381" lon="-1.72701">
        <ele>20.3</ele>
        <time>2020-06-03T11:24:42Z</time>
      </trkpt>
      <trkpt lat="46.46381" lon="-1.72707">
        <ele>20.2</ele>
        <time>2020-06-03T11:24:43Z</time>
      </trkpt>
      <trkpt lat="46.4638" lon="-1.72713">
        <ele>20.1</ele>
        <time>2020-06-03T11:24:44Z</time>
      </trkpt>
      <trkpt lat="46.46379" lon="-1.72719">
        <ele>20</ele>
        <time>2020-06-03T11:24:45Z</time>
      </trkpt>
      <trkpt lat="46.46378" lon="-1.72726">
        <ele>19.8</ele>
        <time>2020-06-03T11:24:46Z</time>
      </trkpt>
      <trkpt lat="46.46377" lon="-1.72733">
        <ele>19.7</ele>
        <time>2020-06-03T11:24:47Z</time>
      </trkpt>
      <trkpt lat="46.46376" lon="-1.7274">
        <ele>19.6</ele>
        <time>2020-06-03T11:24:48Z</time>
      </trkpt>
      <trkpt lat="46.46376" lon="-1.72747">
        <ele>19.4</ele>
        <time>2020-06-03T11:24:49Z</time>
      </trkpt>
      <trkpt lat="46.46376" lon="-1.72753">
        <ele>19.3</ele>
        <time>2020-06-03T11:24:50Z</time>
      </trkpt>
      <trkpt lat="46.46375" lon="-1.72761">
        <ele>19.1</ele>
        <time>2020-06-03T11:24:51Z</time>
      </trkpt>
      <trkpt lat="46.46374" lon="-1.72768">
        <ele>18.9</ele>
        <time>2020-06-03T11:24:52Z</time>
      </trkpt>
      <trkpt lat="46.46373" lon="-1.72775">
        <ele>18.8</ele>
        <time>2020-06-03T11:24:53Z</time>
      </trkpt>
      <trkpt lat="46.46373" lon="-1.72781">
        <ele>18.6</ele>
        <time>2020-06-03T11:24:54Z</time>
      </trkpt>
      <trkpt lat="46.46372" lon="-1.72788">
        <ele>18.4</ele>
        <time>2020-06-03T11:24:55Z</time>
      </trkpt>
      <trkpt lat="46.46372" lon="-1.72794">
        <ele>18.2</ele>
        <time>2020-06-03T11:24:56Z</time>
      </trkpt>
      <trkpt lat="46.46372" lon="-1.728">
        <ele>18.1</ele>
        <time>2020-06-03T11:24:57Z</time>
      </trkpt>
      <trkpt lat="46.46373" lon="-1.72807">
        <ele>17.8</ele>
        <time>2020-06-03T11:24:58Z</time>
      </trkpt>
      <trkpt lat="46.46374" lon="-1.72814">
        <ele>17.6</ele>
        <time>2020-06-03T11:24:59Z</time>
      </trkpt>
      <trkpt lat="46.46375" lon="-1.72821">
        <ele>17.4</ele>
        <time>2020-06-03T11:25:00Z</time>
      </trkpt>
      <trkpt lat="46.46376" lon="-1.72828">
        <ele>17.2</ele>
        <time>2020-06-03T11:25:01Z</time>
      </trkpt>
      <trkpt lat="46.46378" lon="-1.72836">
        <ele>16.9</ele>
        <time>2020-06-03T11:25:02Z</time>
      </trkpt>
      <trkpt lat="46.4638" lon="-1.72843">
        <ele>16.7</ele>
        <time>2020-06-03T11:25:03Z</time>
      </trkpt>
      <trkpt lat="46.46382" lon="-1.72851">
        <ele>16.4</ele>
        <time>2020-06-03T11:25:04Z</time>
      </trkpt>
      <trkpt lat="46.46383" lon="-1.7286">
        <ele>16.2</ele>
        <time>2020-06-03T11:25:05Z</time>
      </trkpt>
      <trkpt lat="46.46385" lon="-1.72867">
        <ele>16</ele>
        <time>2020-06-03T11:25:06Z</time>
      </trkpt>
      <trkpt lat="46.46386" lon="-1.72876">
        <ele>15.7</ele>
        <time>2020-06-03T11:25:07Z</time>
      </trkpt>
      <trkpt lat="46.46388" lon="-1.72885">
        <ele>15.4</ele>
        <time>2020-06-03T11:25:08Z</time>
      </trkpt>
      <trkpt lat="46.4639" lon="-1.72893">
        <ele>15.1</ele>
        <time>2020-06-03T11:25:09Z</time>
      </trkpt>
      <trkpt lat="46.46393" lon="-1.72902">
        <ele>14.8</ele>
        <time>2020-06-03T11:25:10Z</time>
      </trkpt>
      <trkpt lat="46.46395" lon="-1.72912">
        <ele>14.6</ele>
        <time>2020-06-03T11:25:11Z</time>
      </trkpt>
      <trkpt lat="46.46397" lon="-1.7292">
        <ele>14.3</ele>
        <time>2020-06-03T11:25:12Z</time>
      </trkpt>
      <trkpt lat="46.46399" lon="-1.72928">
        <ele>14.1</ele>
        <time>2020-06-03T11:25:13Z</time>
      </trkpt>
      <trkpt lat="46.46401" lon="-1.72936">
        <ele>13.8</ele>
        <time>2020-06-03T11:25:14Z</time>
      </trkpt>
      <trkpt lat="46.46404" lon="-1.72944">
        <ele>13.5</ele>
        <time>2020-06-03T11:25:15Z</time>
      </trkpt>
      <trkpt lat="46.46406" lon="-1.72953">
        <ele>13.2</ele>
        <time>2020-06-03T11:25:16Z</time>
      </trkpt>
      <trkpt lat="46.46407" lon="-1.72962">
        <ele>12.9</ele>
        <time>2020-06-03T11:25:17Z</time>
      </trkpt>
      <trkpt lat="46.46409" lon="-1.7297">
        <ele>12.7</ele>
        <time>2020-06-03T11:25:18Z</time>
      </trkpt>
      <trkpt lat="46.46411" lon="-1.72978">
        <ele>12.6</ele>
        <time>2020-06-03T11:25:19Z</time>
      </trkpt>
      <trkpt lat="46.46412" lon="-1.72986">
        <ele>12.5</ele>
        <time>2020-06-03T11:25:20Z</time>
      </trkpt>
      <trkpt lat="46.46414" lon="-1.72994">
        <ele>12.4</ele>
        <time>2020-06-03T11:25:21Z</time>
      </trkpt>
      <trkpt lat="46.46416" lon="-1.73003">
        <ele>12.3</ele>
        <time>2020-06-03T11:25:22Z</time>
      </trkpt>
      <trkpt lat="46.46419" lon="-1.73011">
        <ele>12.2</ele>
        <time>2020-06-03T11:25:23Z</time>
      </trkpt>
      <trkpt lat="46.4642" lon="-1.73019">
        <ele>12</ele>
        <time>2020-06-03T11:25:24Z</time>
      </trkpt>
      <trkpt lat="46.46421" lon="-1.73026">
        <ele>11.9</ele>
        <time>2020-06-03T11:25:25Z</time>
      </trkpt>
      <trkpt lat="46.46422" lon="-1.73034">
        <ele>11.8</ele>
        <time>2020-06-03T11:25:26Z</time>
      </trkpt>
      <trkpt lat="46.46424" lon="-1.73042">
        <ele>11.7</ele>
        <time>2020-06-03T11:25:27Z</time>
      </trkpt>
      <trkpt lat="46.46426" lon="-1.73049">
        <ele>11.5</ele>
        <time>2020-06-03T11:25:28Z</time>
      </trkpt>
      <trkpt lat="46.46428" lon="-1.73057">
        <ele>11.4</ele>
        <time>2020-06-03T11:25:29Z</time>
      </trkpt>
      <trkpt lat="46.4643" lon="-1.73065">
        <ele>11.2</ele>
        <time>2020-06-03T11:25:30Z</time>
      </trkpt>
      <trkpt lat="46.46433" lon="-1.73071">
        <ele>11</ele>
        <time>2020-06-03T11:25:31Z</time>
      </trkpt>
      <trkpt lat="46.46437" lon="-1.73077">
        <ele>10.9</ele>
        <time>2020-06-03T11:25:32Z</time>
      </trkpt>
      <trkpt lat="46.4644" lon="-1.73082">
        <ele>10.8</ele>
        <time>2020-06-03T11:25:33Z</time>
      </trkpt>
      <trkpt lat="46.46444" lon="-1.73089">
        <ele>10.7</ele>
        <time>2020-06-03T11:25:34Z</time>
      </trkpt>
      <trkpt lat="46.46447" lon="-1.73097">
        <ele>10.5</ele>
        <time>2020-06-03T11:25:35Z</time>
      </trkpt>
      <trkpt lat="46.4645" lon="-1.73104">
        <ele>10.4</ele>
        <time>2020-06-03T11:25:36Z</time>
      </trkpt>
      <trkpt lat="46.46453" lon="-1.73111">
        <ele>10.3</ele>
        <time>2020-06-03T11:25:37Z</time>
      </trkpt>
      <trkpt lat="46.46455" lon="-1.73117">
        <ele>10.2</ele>
        <time>2020-06-03T11:25:38Z</time>
      </trkpt>
      <trkpt lat="46.46457" lon="-1.73124">
        <ele>10.1</ele>
        <time>2020-06-03T11:25:39Z</time>
      </trkpt>
      <trkpt lat="46.4646" lon="-1.73132">
        <ele>9.9</ele>
        <time>2020-06-03T11:25:40Z</time>
      </trkpt>
      <trkpt lat="46.46463" lon="-1.73139">
        <ele>9.8</ele>
        <time>2020-06-03T11:25:41Z</time>
      </trkpt>
      <trkpt lat="46.46468" lon="-1.73146">
        <ele>9.8</ele>
        <time>2020-06-03T11:25:42Z</time>
      </trkpt>
      <trkpt lat="46.46473" lon="-1.73151">
        <ele>9.9</ele>
        <time>2020-06-03T11:25:43Z</time>
      </trkpt>
      <trkpt lat="46.46479" lon="-1.73154">
        <ele>10</ele>
        <time>2020-06-03T11:25:44Z</time>
      </trkpt>
      <trkpt lat="46.46485" lon="-1.73157">
        <ele>10.1</ele>
        <time>2020-06-03T11:25:45Z</time>
      </trkpt>
      <trkpt lat="46.46491" lon="-1.73159">
        <ele>10.2</ele>
        <time>2020-06-03T11:25:46Z</time>
      </trkpt>
      <trkpt lat="46.46496" lon="-1.7316">
        <ele>10.3</ele>
        <time>2020-06-03T11:25:47Z</time>
      </trkpt>
      <trkpt lat="46.46501" lon="-1.73162">
        <ele>10.5</ele>
        <time>2020-06-03T11:25:48Z</time>
      </trkpt>
      <trkpt lat="46.46506" lon="-1.73164">
        <ele>10.6</ele>
        <time>2020-06-03T11:25:49Z</time>
      </trkpt>
      <trkpt lat="46.46511" lon="-1.73166">
        <ele>10.7</ele>
        <time>2020-06-03T11:25:50Z</time>
      </trkpt>
      <trkpt lat="46.46516" lon="-1.73167">
        <ele>10.8</ele>
        <time>2020-06-03T11:25:51Z</time>
      </trkpt>
      <trkpt lat="46.46522" lon="-1.73168">
        <ele>10.9</ele>
        <time>2020-06-03T11:25:52Z</time>
      </trkpt>
      <trkpt lat="46.46526" lon="-1.73169">
        <ele>11</ele>
        <time>2020-06-03T11:25:53Z</time>
      </trkpt>
      <trkpt lat="46.46531" lon="-1.73171">
        <ele>11.1</ele>
        <time>2020-06-03T11:25:54Z</time>
      </trkpt>
      <trkpt lat="46.46535" lon="-1.73174">
        <ele>11.2</ele>
        <time>2020-06-03T11:25:55Z</time>
      </trkpt>
      <trkpt lat="46.46538" lon="-1.73176">
        <ele>11.3</ele>
        <time>2020-06-03T11:25:56Z</time>
      </trkpt>
      <trkpt lat="46.46543" lon="-1.73179">
        <ele>11.4</ele>
        <time>2020-06-03T11:25:57Z</time>
      </trkpt>
      <trkpt lat="46.46547" lon="-1.73182">
        <ele>11.5</ele>
        <time>2020-06-03T11:25:58Z</time>
      </trkpt>
      <trkpt lat="46.46551" lon="-1.73185">
        <ele>11.5</ele>
        <time>2020-06-03T11:25:59Z</time>
      </trkpt>
      <trkpt lat="46.46556" lon="-1.73188">
        <ele>11.6</ele>
        <time>2020-06-03T11:26:00Z</time>
      </trkpt>
      <trkpt lat="46.4656" lon="-1.7319">
        <ele>11.6</ele>
        <time>2020-06-03T11:26:01Z</time>
      </trkpt>
      <trkpt lat="46.46565" lon="-1.73192">
        <ele>11.6</ele>
        <time>2020-06-03T11:26:02Z</time>
      </trkpt>
      <trkpt lat="46.46569" lon="-1.73193">
        <ele>11.6</ele>
        <time>2020-06-03T11:26:03Z</time>
      </trkpt>
      <trkpt lat="46.46574" lon="-1.73194">
        <ele>11.7</ele>
        <time>2020-06-03T11:26:04Z</time>
      </trkpt>
      <trkpt lat="46.46578" lon="-1.73196">
        <ele>11.7</ele>
        <time>2020-06-03T11:26:05Z</time>
      </trkpt>
      <trkpt lat="46.46583" lon="-1.73197">
        <ele>11.7</ele>
        <time>2020-06-03T11:26:06Z</time>
      </trkpt>
      <trkpt lat="46.46588" lon="-1.732">
        <ele>11.7</ele>
        <time>2020-06-03T11:26:07Z</time>
      </trkpt>
      <trkpt lat="46.46592" lon="-1.73204">
        <ele>11.7</ele>
        <time>2020-06-03T11:26:08Z</time>
      </trkpt>
      <trkpt lat="46.46594" lon="-1.7321">
        <ele>11.7</ele>
        <time>2020-06-03T11:26:09Z</time>
      </trkpt>
      <trkpt lat="46.46596" lon="-1.73216">
        <ele>11.7</ele>
        <time>2020-06-03T11:26:10Z</time>
      </trkpt>
      <trkpt lat="46.46599" lon="-1.73223">
        <ele>11.6</ele>
        <time>2020-06-03T11:26:11Z</time>
      </trkpt>
      <trkpt lat="46.46601" lon="-1.73231">
        <ele>11.6</ele>
        <time>2020-06-03T11:26:12Z</time>
      </trkpt>
      <trkpt lat="46.46603" lon="-1.73239">
        <ele>11.6</ele>
        <time>2020-06-03T11:26:13Z</time>
      </trkpt>
      <trkpt lat="46.46604" lon="-1.73247">
        <ele>11.6</ele>
        <time>2020-06-03T11:26:14Z</time>
      </trkpt>
      <trkpt lat="46.46605" lon="-1.73254">
        <ele>11.6</ele>
        <time>2020-06-03T11:26:15Z</time>
      </trkpt>
      <trkpt lat="46.46606" lon="-1.73263">
        <ele>11.6</ele>
        <time>2020-06-03T11:26:16Z</time>
      </trkpt>
      <trkpt lat="46.46609" lon="-1.73271">
        <ele>11.6</ele>
        <time>2020-06-03T11:26:17Z</time>
      </trkpt>
      <trkpt lat="46.4661" lon="-1.73279">
        <ele>11.6</ele>
        <time>2020-06-03T11:26:18Z</time>
      </trkpt>
      <trkpt lat="46.46613" lon="-1.73286">
        <ele>11.6</ele>
        <time>2020-06-03T11:26:19Z</time>
      </trkpt>
      <trkpt lat="46.46614" lon="-1.73294">
        <ele>11.5</ele>
        <time>2020-06-03T11:26:20Z</time>
      </trkpt>
      <trkpt lat="46.46616" lon="-1.73303">
        <ele>11.5</ele>
        <time>2020-06-03T11:26:21Z</time>
      </trkpt>
      <trkpt lat="46.46619" lon="-1.73311">
        <ele>11.5</ele>
        <time>2020-06-03T11:26:22Z</time>
      </trkpt>
      <trkpt lat="46.46621" lon="-1.7332">
        <ele>11.4</ele>
        <time>2020-06-03T11:26:23Z</time>
      </trkpt>
      <trkpt lat="46.46622" lon="-1.73328">
        <ele>11.4</ele>
        <time>2020-06-03T11:26:24Z</time>
      </trkpt>
      <trkpt lat="46.46625" lon="-1.73336">
        <ele>11.4</ele>
        <time>2020-06-03T11:26:25Z</time>
      </trkpt>
      <trkpt lat="46.46627" lon="-1.73345">
        <ele>11.4</ele>
        <time>2020-06-03T11:26:26Z</time>
      </trkpt>
      <trkpt lat="46.46629" lon="-1.73353">
        <ele>11.4</ele>
        <time>2020-06-03T11:26:27Z</time>
      </trkpt>
      <trkpt lat="46.4663" lon="-1.7336">
        <ele>11.4</ele>
        <time>2020-06-03T11:26:28Z</time>
      </trkpt>
      <trkpt lat="46.46632" lon="-1.73367">
        <ele>11.4</ele>
        <time>2020-06-03T11:26:29Z</time>
      </trkpt>
      <trkpt lat="46.46634" lon="-1.73375">
        <ele>11.4</ele>
        <time>2020-06-03T11:26:30Z</time>
      </trkpt>
      <trkpt lat="46.46636" lon="-1.73383">
        <ele>11.4</ele>
        <time>2020-06-03T11:26:31Z</time>
      </trkpt>
      <trkpt lat="46.46637" lon="-1.73391">
        <ele>11.4</ele>
        <time>2020-06-03T11:26:32Z</time>
      </trkpt>
      <trkpt lat="46.46639" lon="-1.734">
        <ele>11.3</ele>
        <time>2020-06-03T11:26:33Z</time>
      </trkpt>
      <trkpt lat="46.46641" lon="-1.73408">
        <ele>11.3</ele>
        <time>2020-06-03T11:26:34Z</time>
      </trkpt>
      <trkpt lat="46.46642" lon="-1.73416">
        <ele>11.3</ele>
        <time>2020-06-03T11:26:35Z</time>
      </trkpt>
      <trkpt lat="46.46644" lon="-1.73424">
        <ele>11.3</ele>
        <time>2020-06-03T11:26:36Z</time>
      </trkpt>
      <trkpt lat="46.46646" lon="-1.7343">
        <ele>11.3</ele>
        <time>2020-06-03T11:26:37Z</time>
      </trkpt>
      <trkpt lat="46.46648" lon="-1.73438">
        <ele>11.3</ele>
        <time>2020-06-03T11:26:38Z</time>
      </trkpt>
      <trkpt lat="46.46649" lon="-1.73445">
        <ele>11.3</ele>
        <time>2020-06-03T11:26:39Z</time>
      </trkpt>
      <trkpt lat="46.4665" lon="-1.73454">
        <ele>11.3</ele>
        <time>2020-06-03T11:26:40Z</time>
      </trkpt>
      <trkpt lat="46.46652" lon="-1.73461">
        <ele>11.3</ele>
        <time>2020-06-03T11:26:41Z</time>
      </trkpt>
      <trkpt lat="46.46654" lon="-1.73467">
        <ele>11.3</ele>
        <time>2020-06-03T11:26:42Z</time>
      </trkpt>
      <trkpt lat="46.46656" lon="-1.73474">
        <ele>11.3</ele>
        <time>2020-06-03T11:26:43Z</time>
      </trkpt>
      <trkpt lat="46.46657" lon="-1.7348">
        <ele>11.3</ele>
        <time>2020-06-03T11:26:44Z</time>
      </trkpt>
      <trkpt lat="46.46659" lon="-1.73487">
        <ele>11.3</ele>
        <time>2020-06-03T11:26:45Z</time>
      </trkpt>
      <trkpt lat="46.4666" lon="-1.73494">
        <ele>11.4</ele>
        <time>2020-06-03T11:26:46Z</time>
      </trkpt>
      <trkpt lat="46.46661" lon="-1.73501">
        <ele>11.4</ele>
        <time>2020-06-03T11:26:47Z</time>
      </trkpt>
      <trkpt lat="46.46663" lon="-1.73509">
        <ele>11.4</ele>
        <time>2020-06-03T11:26:48Z</time>
      </trkpt>
      <trkpt lat="46.46665" lon="-1.73516">
        <ele>11.4</ele>
        <time>2020-06-03T11:26:49Z</time>
      </trkpt>
      <trkpt lat="46.46666" lon="-1.73522">
        <ele>11.4</ele>
        <time>2020-06-03T11:26:50Z</time>
      </trkpt>
      <trkpt lat="46.46667" lon="-1.73528">
        <ele>11.3</ele>
        <time>2020-06-03T11:26:51Z</time>
      </trkpt>
      <trkpt lat="46.46669" lon="-1.73533">
        <ele>11.3</ele>
        <time>2020-06-03T11:26:52Z</time>
      </trkpt>
      <trkpt lat="46.4667" lon="-1.73538">
        <ele>11.3</ele>
        <time>2020-06-03T11:26:53Z</time>
      </trkpt>
      <trkpt lat="46.46671" lon="-1.73544">
        <ele>11.2</ele>
        <time>2020-06-03T11:26:54Z</time>
      </trkpt>
      <trkpt lat="46.46672" lon="-1.73549">
        <ele>11.2</ele>
        <time>2020-06-03T11:26:55Z</time>
      </trkpt>
      <trkpt lat="46.46673" lon="-1.73555">
        <ele>11.1</ele>
        <time>2020-06-03T11:26:56Z</time>
      </trkpt>
      <trkpt lat="46.46675" lon="-1.7356">
        <ele>11.1</ele>
        <time>2020-06-03T11:26:57Z</time>
      </trkpt>
      <trkpt lat="46.46676" lon="-1.73565">
        <ele>11</ele>
        <time>2020-06-03T11:26:58Z</time>
      </trkpt>
      <trkpt lat="46.46679" lon="-1.7357">
        <ele>10.9</ele>
        <time>2020-06-03T11:26:59Z</time>
      </trkpt>
      <trkpt lat="46.46682" lon="-1.73575">
        <ele>10.9</ele>
        <time>2020-06-03T11:27:00Z</time>
      </trkpt>
      <trkpt lat="46.46686" lon="-1.73579">
        <ele>10.8</ele>
        <time>2020-06-03T11:27:01Z</time>
      </trkpt>
      <trkpt lat="46.46689" lon="-1.73583">
        <ele>10.7</ele>
        <time>2020-06-03T11:27:02Z</time>
      </trkpt>
      <trkpt lat="46.46693" lon="-1.73589">
        <ele>10.6</ele>
        <time>2020-06-03T11:27:03Z</time>
      </trkpt>
      <trkpt lat="46.46697" lon="-1.73594">
        <ele>10.5</ele>
        <time>2020-06-03T11:27:04Z</time>
      </trkpt>
      <trkpt lat="46.46701" lon="-1.73599">
        <ele>10.4</ele>
        <time>2020-06-03T11:27:05Z</time>
      </trkpt>
      <trkpt lat="46.46705" lon="-1.73606">
        <ele>10.3</ele>
        <time>2020-06-03T11:27:06Z</time>
      </trkpt>
      <trkpt lat="46.46709" lon="-1.73612">
        <ele>10.2</ele>
        <time>2020-06-03T11:27:07Z</time>
      </trkpt>
      <trkpt lat="46.46712" lon="-1.73617">
        <ele>10.1</ele>
        <time>2020-06-03T11:27:08Z</time>
      </trkpt>
      <trkpt lat="46.46716" lon="-1.73622">
        <ele>10</ele>
        <time>2020-06-03T11:27:09Z</time>
      </trkpt>
      <trkpt lat="46.4672" lon="-1.73628">
        <ele>9.8</ele>
        <time>2020-06-03T11:27:10Z</time>
      </trkpt>
      <trkpt lat="46.46723" lon="-1.73633">
        <ele>9.7</ele>
        <time>2020-06-03T11:27:11Z</time>
      </trkpt>
      <trkpt lat="46.46726" lon="-1.73639">
        <ele>9.6</ele>
        <time>2020-06-03T11:27:12Z</time>
      </trkpt>
      <trkpt lat="46.46729" lon="-1.73645">
        <ele>9.5</ele>
        <time>2020-06-03T11:27:13Z</time>
      </trkpt>
      <trkpt lat="46.46733" lon="-1.7365">
        <ele>9.3</ele>
        <time>2020-06-03T11:27:14Z</time>
      </trkpt>
      <trkpt lat="46.46736" lon="-1.73655">
        <ele>9.1</ele>
        <time>2020-06-03T11:27:15Z</time>
      </trkpt>
      <trkpt lat="46.46738" lon="-1.73659">
        <ele>9</ele>
        <time>2020-06-03T11:27:16Z</time>
      </trkpt>
      <trkpt lat="46.4674" lon="-1.73664">
        <ele>8.9</ele>
        <time>2020-06-03T11:27:17Z</time>
      </trkpt>
      <trkpt lat="46.46743" lon="-1.73669">
        <ele>8.7</ele>
        <time>2020-06-03T11:27:18Z</time>
      </trkpt>
      <trkpt lat="46.46747" lon="-1.73674">
        <ele>8.5</ele>
        <time>2020-06-03T11:27:19Z</time>
      </trkpt>
      <trkpt lat="46.46751" lon="-1.73679">
        <ele>8.3</ele>
        <time>2020-06-03T11:27:20Z</time>
      </trkpt>
      <trkpt lat="46.46755" lon="-1.73683">
        <ele>8.1</ele>
        <time>2020-06-03T11:27:21Z</time>
      </trkpt>
      <trkpt lat="46.4676" lon="-1.73687">
        <ele>7.9</ele>
        <time>2020-06-03T11:27:22Z</time>
      </trkpt>
      <trkpt lat="46.46765" lon="-1.73687">
        <ele>7.8</ele>
        <time>2020-06-03T11:27:23Z</time>
      </trkpt>
      <trkpt lat="46.46771" lon="-1.73687">
        <ele>7.5</ele>
        <time>2020-06-03T11:27:24Z</time>
      </trkpt>
      <trkpt lat="46.46777" lon="-1.73687">
        <ele>7.3</ele>
        <time>2020-06-03T11:27:25Z</time>
      </trkpt>
      <trkpt lat="46.46784" lon="-1.73686">
        <ele>7.1</ele>
        <time>2020-06-03T11:27:26Z</time>
      </trkpt>
      <trkpt lat="46.46791" lon="-1.73685">
        <ele>6.8</ele>
        <time>2020-06-03T11:27:27Z</time>
      </trkpt>
      <trkpt lat="46.46799" lon="-1.73685">
        <ele>6.6</ele>
        <time>2020-06-03T11:27:28Z</time>
      </trkpt>
      <trkpt lat="46.46806" lon="-1.73685">
        <ele>6.6</ele>
        <time>2020-06-03T11:27:29Z</time>
      </trkpt>
      <trkpt lat="46.46813" lon="-1.73687">
        <ele>6.6</ele>
        <time>2020-06-03T11:27:30Z</time>
      </trkpt>
      <trkpt lat="46.4682" lon="-1.7369">
        <ele>6.6</ele>
        <time>2020-06-03T11:27:31Z</time>
      </trkpt>
      <trkpt lat="46.46826" lon="-1.73694">
        <ele>6.6</ele>
        <time>2020-06-03T11:27:32Z</time>
      </trkpt>
      <trkpt lat="46.46832" lon="-1.73702">
        <ele>6.6</ele>
        <time>2020-06-03T11:27:33Z</time>
      </trkpt>
      <trkpt lat="46.46837" lon="-1.7371">
        <ele>6.7</ele>
        <time>2020-06-03T11:27:34Z</time>
      </trkpt>
      <trkpt lat="46.46841" lon="-1.73718">
        <ele>6.7</ele>
        <time>2020-06-03T11:27:35Z</time>
      </trkpt>
      <trkpt lat="46.46845" lon="-1.73729">
        <ele>6.7</ele>
        <time>2020-06-03T11:27:36Z</time>
      </trkpt>
      <trkpt lat="46.46849" lon="-1.73738">
        <ele>6.8</ele>
        <time>2020-06-03T11:27:37Z</time>
      </trkpt>
      <trkpt lat="46.46851" lon="-1.7375">
        <ele>6.9</ele>
        <time>2020-06-03T11:27:38Z</time>
      </trkpt>
      <trkpt lat="46.46851" lon="-1.73761">
        <ele>7.2</ele>
        <time>2020-06-03T11:27:39Z</time>
      </trkpt>
      <trkpt lat="46.46851" lon="-1.73771">
        <ele>7.4</ele>
        <time>2020-06-03T11:27:40Z</time>
      </trkpt>
      <trkpt lat="46.4685" lon="-1.73779">
        <ele>7.6</ele>
        <time>2020-06-03T11:27:41Z</time>
      </trkpt>
      <trkpt lat="46.46847" lon="-1.73787">
        <ele>7.7</ele>
        <time>2020-06-03T11:27:42Z</time>
      </trkpt>
      <trkpt lat="46.46845" lon="-1.73795">
        <ele>7.9</ele>
        <time>2020-06-03T11:27:43Z</time>
      </trkpt>
      <trkpt lat="46.46843" lon="-1.73803">
        <ele>8</ele>
        <time>2020-06-03T11:27:44Z</time>
      </trkpt>
      <trkpt lat="46.46841" lon="-1.73811">
        <ele>8.2</ele>
        <time>2020-06-03T11:27:45Z</time>
      </trkpt>
      <trkpt lat="46.46838" lon="-1.73817">
        <ele>8.3</ele>
        <time>2020-06-03T11:27:46Z</time>
      </trkpt>
      <trkpt lat="46.46837" lon="-1.73825">
        <ele>8.4</ele>
        <time>2020-06-03T11:27:47Z</time>
      </trkpt>
      <trkpt lat="46.46837" lon="-1.73832">
        <ele>8.6</ele>
        <time>2020-06-03T11:27:48Z</time>
      </trkpt>
      <trkpt lat="46.46836" lon="-1.73839">
        <ele>8.7</ele>
        <time>2020-06-03T11:27:49Z</time>
      </trkpt>
      <trkpt lat="46.46835" lon="-1.73845">
        <ele>8.9</ele>
        <time>2020-06-03T11:27:50Z</time>
      </trkpt>
      <trkpt lat="46.46833" lon="-1.73851">
        <ele>9</ele>
        <time>2020-06-03T11:27:51Z</time>
      </trkpt>
      <trkpt lat="46.46832" lon="-1.73857">
        <ele>9.2</ele>
        <time>2020-06-03T11:27:52Z</time>
      </trkpt>
      <trkpt lat="46.46832" lon="-1.73863">
        <ele>9.3</ele>
        <time>2020-06-03T11:27:53Z</time>
      </trkpt>
      <trkpt lat="46.46831" lon="-1.73869">
        <ele>9.4</ele>
        <time>2020-06-03T11:27:54Z</time>
      </trkpt>
      <trkpt lat="46.46831" lon="-1.73876">
        <ele>9.5</ele>
        <time>2020-06-03T11:27:55Z</time>
      </trkpt>
      <trkpt lat="46.46831" lon="-1.73883">
        <ele>9.6</ele>
        <time>2020-06-03T11:27:56Z</time>
      </trkpt>
      <trkpt lat="46.46832" lon="-1.7389">
        <ele>9.7</ele>
        <time>2020-06-03T11:27:57Z</time>
      </trkpt>
      <trkpt lat="46.46833" lon="-1.73896">
        <ele>9.8</ele>
        <time>2020-06-03T11:27:58Z</time>
      </trkpt>
      <trkpt lat="46.46836" lon="-1.73904">
        <ele>9.9</ele>
        <time>2020-06-03T11:27:59Z</time>
      </trkpt>
      <trkpt lat="46.46838" lon="-1.73911">
        <ele>10</ele>
        <time>2020-06-03T11:28:00Z</time>
      </trkpt>
      <trkpt lat="46.46839" lon="-1.73918">
        <ele>10.1</ele>
        <time>2020-06-03T11:28:01Z</time>
      </trkpt>
      <trkpt lat="46.46841" lon="-1.73924">
        <ele>10.1</ele>
        <time>2020-06-03T11:28:02Z</time>
      </trkpt>
      <trkpt lat="46.46842" lon="-1.73931">
        <ele>10.2</ele>
        <time>2020-06-03T11:28:03Z</time>
      </trkpt>
      <trkpt lat="46.46844" lon="-1.73938">
        <ele>10.2</ele>
        <time>2020-06-03T11:28:04Z</time>
      </trkpt>
      <trkpt lat="46.46845" lon="-1.73945">
        <ele>10.3</ele>
        <time>2020-06-03T11:28:05Z</time>
      </trkpt>
      <trkpt lat="46.46846" lon="-1.73952">
        <ele>10.3</ele>
        <time>2020-06-03T11:28:06Z</time>
      </trkpt>
      <trkpt lat="46.46847" lon="-1.73958">
        <ele>10.4</ele>
        <time>2020-06-03T11:28:07Z</time>
      </trkpt>
      <trkpt lat="46.46848" lon="-1.73964">
        <ele>10.5</ele>
        <time>2020-06-03T11:28:08Z</time>
      </trkpt>
      <trkpt lat="46.46848" lon="-1.73971">
        <ele>10.6</ele>
        <time>2020-06-03T11:28:09Z</time>
      </trkpt>
      <trkpt lat="46.46849" lon="-1.73978">
        <ele>10.7</ele>
        <time>2020-06-03T11:28:10Z</time>
      </trkpt>
      <trkpt lat="46.46849" lon="-1.73985">
        <ele>10.8</ele>
        <time>2020-06-03T11:28:11Z</time>
      </trkpt>
      <trkpt lat="46.46849" lon="-1.73991">
        <ele>10.8</ele>
        <time>2020-06-03T11:28:12Z</time>
      </trkpt>
      <trkpt lat="46.46849" lon="-1.73997">
        <ele>10.9</ele>
        <time>2020-06-03T11:28:13Z</time>
      </trkpt>
      <trkpt lat="46.46849" lon="-1.74003">
        <ele>10.9</ele>
        <time>2020-06-03T11:28:14Z</time>
      </trkpt>
      <trkpt lat="46.46849" lon="-1.74008">
        <ele>11</ele>
        <time>2020-06-03T11:28:15Z</time>
      </trkpt>
      <trkpt lat="46.46849" lon="-1.74014">
        <ele>11</ele>
        <time>2020-06-03T11:28:16Z</time>
      </trkpt>
      <trkpt lat="46.46849" lon="-1.7402">
        <ele>11</ele>
        <time>2020-06-03T11:28:17Z</time>
      </trkpt>
      <trkpt lat="46.4685" lon="-1.74025">
        <ele>11.1</ele>
        <time>2020-06-03T11:28:18Z</time>
      </trkpt>
      <trkpt lat="46.4685" lon="-1.7403">
        <ele>11.1</ele>
        <time>2020-06-03T11:28:19Z</time>
      </trkpt>
      <trkpt lat="46.46851" lon="-1.74036">
        <ele>11.1</ele>
        <time>2020-06-03T11:28:20Z</time>
      </trkpt>
      <trkpt lat="46.46852" lon="-1.74042">
        <ele>11.1</ele>
        <time>2020-06-03T11:28:21Z</time>
      </trkpt>
      <trkpt lat="46.46853" lon="-1.74048">
        <ele>11.1</ele>
        <time>2020-06-03T11:28:22Z</time>
      </trkpt>
      <trkpt lat="46.46853" lon="-1.74053">
        <ele>11.1</ele>
        <time>2020-06-03T11:28:23Z</time>
      </trkpt>
      <trkpt lat="46.46855" lon="-1.74059">
        <ele>11.1</ele>
        <time>2020-06-03T11:28:24Z</time>
      </trkpt>
      <trkpt lat="46.46857" lon="-1.74063">
        <ele>11.1</ele>
        <time>2020-06-03T11:28:25Z</time>
      </trkpt>
      <trkpt lat="46.46858" lon="-1.74069">
        <ele>11.1</ele>
        <time>2020-06-03T11:28:26Z</time>
      </trkpt>
      <trkpt lat="46.4686" lon="-1.74076">
        <ele>11.1</ele>
        <time>2020-06-03T11:28:27Z</time>
      </trkpt>
      <trkpt lat="46.46861" lon="-1.74081">
        <ele>11.1</ele>
        <time>2020-06-03T11:28:28Z</time>
      </trkpt>
      <trkpt lat="46.46863" lon="-1.74086">
        <ele>11.1</ele>
        <time>2020-06-03T11:28:29Z</time>
      </trkpt>
      <trkpt lat="46.46865" lon="-1.74092">
        <ele>11.1</ele>
        <time>2020-06-03T11:28:30Z</time>
      </trkpt>
      <trkpt lat="46.46866" lon="-1.74097">
        <ele>11</ele>
        <time>2020-06-03T11:28:31Z</time>
      </trkpt>
      <trkpt lat="46.46868" lon="-1.74103">
        <ele>11</ele>
        <time>2020-06-03T11:28:32Z</time>
      </trkpt>
      <trkpt lat="46.46871" lon="-1.74108">
        <ele>11</ele>
        <time>2020-06-03T11:28:33Z</time>
      </trkpt>
      <trkpt lat="46.46873" lon="-1.74113">
        <ele>11</ele>
        <time>2020-06-03T11:28:34Z</time>
      </trkpt>
      <trkpt lat="46.46875" lon="-1.74118">
        <ele>11</ele>
        <time>2020-06-03T11:28:35Z</time>
      </trkpt>
      <trkpt lat="46.46878" lon="-1.74122">
        <ele>11</ele>
        <time>2020-06-03T11:28:36Z</time>
      </trkpt>
      <trkpt lat="46.46881" lon="-1.74128">
        <ele>11</ele>
        <time>2020-06-03T11:28:37Z</time>
      </trkpt>
      <trkpt lat="46.46884" lon="-1.74132">
        <ele>11</ele>
        <time>2020-06-03T11:28:38Z</time>
      </trkpt>
      <trkpt lat="46.46888" lon="-1.74137">
        <ele>11</ele>
        <time>2020-06-03T11:28:39Z</time>
      </trkpt>
      <trkpt lat="46.46892" lon="-1.74142">
        <ele>11</ele>
        <time>2020-06-03T11:28:40Z</time>
      </trkpt>
      <trkpt lat="46.46896" lon="-1.74146">
        <ele>11</ele>
        <time>2020-06-03T11:28:41Z</time>
      </trkpt>
      <trkpt lat="46.46899" lon="-1.74149">
        <ele>11</ele>
        <time>2020-06-03T11:28:42Z</time>
      </trkpt>
      <trkpt lat="46.46903" lon="-1.74152">
        <ele>11</ele>
        <time>2020-06-03T11:28:43Z</time>
      </trkpt>
      <trkpt lat="46.46906" lon="-1.74154">
        <ele>11</ele>
        <time>2020-06-03T11:28:44Z</time>
      </trkpt>
      <trkpt lat="46.4691" lon="-1.74158">
        <ele>11</ele>
        <time>2020-06-03T11:28:45Z</time>
      </trkpt>
      <trkpt lat="46.46914" lon="-1.74161">
        <ele>10.9</ele>
        <time>2020-06-03T11:28:46Z</time>
      </trkpt>
      <trkpt lat="46.46919" lon="-1.74164">
        <ele>10.9</ele>
        <time>2020-06-03T11:28:47Z</time>
      </trkpt>
      <trkpt lat="46.46923" lon="-1.74166">
        <ele>10.9</ele>
        <time>2020-06-03T11:28:48Z</time>
      </trkpt>
      <trkpt lat="46.46927" lon="-1.74168">
        <ele>11</ele>
        <time>2020-06-03T11:28:49Z</time>
      </trkpt>
      <trkpt lat="46.46931" lon="-1.7417">
        <ele>11</ele>
        <time>2020-06-03T11:28:50Z</time>
      </trkpt>
      <trkpt lat="46.46936" lon="-1.74172">
        <ele>11</ele>
        <time>2020-06-03T11:28:51Z</time>
      </trkpt>
      <trkpt lat="46.46939" lon="-1.74174">
        <ele>11</ele>
        <time>2020-06-03T11:28:52Z</time>
      </trkpt>
      <trkpt lat="46.46944" lon="-1.74176">
        <ele>11</ele>
        <time>2020-06-03T11:28:53Z</time>
      </trkpt>
      <trkpt lat="46.46948" lon="-1.74178">
        <ele>11</ele>
        <time>2020-06-03T11:28:54Z</time>
      </trkpt>
      <trkpt lat="46.46952" lon="-1.7418">
        <ele>11</ele>
        <time>2020-06-03T11:28:55Z</time>
      </trkpt>
      <trkpt lat="46.46956" lon="-1.74182">
        <ele>11</ele>
        <time>2020-06-03T11:28:56Z</time>
      </trkpt>
      <trkpt lat="46.4696" lon="-1.74184">
        <ele>11.1</ele>
        <time>2020-06-03T11:28:57Z</time>
      </trkpt>
      <trkpt lat="46.46964" lon="-1.74187">
        <ele>11.1</ele>
        <time>2020-06-03T11:28:58Z</time>
      </trkpt>
      <trkpt lat="46.46968" lon="-1.74189">
        <ele>11.1</ele>
        <time>2020-06-03T11:28:59Z</time>
      </trkpt>
      <trkpt lat="46.46973" lon="-1.74191">
        <ele>11.1</ele>
        <time>2020-06-03T11:29:00Z</time>
      </trkpt>
      <trkpt lat="46.46977" lon="-1.74192">
        <ele>11.1</ele>
        <time>2020-06-03T11:29:01Z</time>
      </trkpt>
      <trkpt lat="46.46981" lon="-1.74194">
        <ele>11.1</ele>
        <time>2020-06-03T11:29:02Z</time>
      </trkpt>
      <trkpt lat="46.46985" lon="-1.74196">
        <ele>11.2</ele>
        <time>2020-06-03T11:29:03Z</time>
      </trkpt>
      <trkpt lat="46.4699" lon="-1.74199">
        <ele>11.2</ele>
        <time>2020-06-03T11:29:04Z</time>
      </trkpt>
      <trkpt lat="46.46994" lon="-1.74202">
        <ele>11.2</ele>
        <time>2020-06-03T11:29:05Z</time>
      </trkpt>
      <trkpt lat="46.46998" lon="-1.74206">
        <ele>11.2</ele>
        <time>2020-06-03T11:29:06Z</time>
      </trkpt>
      <trkpt lat="46.47002" lon="-1.74211">
        <ele>11.2</ele>
        <time>2020-06-03T11:29:07Z</time>
      </trkpt>
      <trkpt lat="46.47006" lon="-1.74216">
        <ele>11.3</ele>
        <time>2020-06-03T11:29:08Z</time>
      </trkpt>
      <trkpt lat="46.4701" lon="-1.74221">
        <ele>11.3</ele>
        <time>2020-06-03T11:29:09Z</time>
      </trkpt>
      <trkpt lat="46.47013" lon="-1.74226">
        <ele>11.3</ele>
        <time>2020-06-03T11:29:10Z</time>
      </trkpt>
      <trkpt lat="46.47016" lon="-1.7423">
        <ele>11.3</ele>
        <time>2020-06-03T11:29:11Z</time>
      </trkpt>
      <trkpt lat="46.4702" lon="-1.74234">
        <ele>11.3</ele>
        <time>2020-06-03T11:29:12Z</time>
      </trkpt>
      <trkpt lat="46.47023" lon="-1.74238">
        <ele>11.3</ele>
        <time>2020-06-03T11:29:13Z</time>
      </trkpt>
      <trkpt lat="46.47027" lon="-1.74242">
        <ele>11.3</ele>
        <time>2020-06-03T11:29:14Z</time>
      </trkpt>
      <trkpt lat="46.4703" lon="-1.74246">
        <ele>11.3</ele>
        <time>2020-06-03T11:29:15Z</time>
      </trkpt>
      <trkpt lat="46.47034" lon="-1.7425">
        <ele>11.2</ele>
        <time>2020-06-03T11:29:16Z</time>
      </trkpt>
      <trkpt lat="46.47037" lon="-1.74254">
        <ele>11.2</ele>
        <time>2020-06-03T11:29:17Z</time>
      </trkpt>
      <trkpt lat="46.4704" lon="-1.74259">
        <ele>11.2</ele>
        <time>2020-06-03T11:29:18Z</time>
      </trkpt>
      <trkpt lat="46.47043" lon="-1.74264">
        <ele>11.1</ele>
        <time>2020-06-03T11:29:19Z</time>
      </trkpt>
      <trkpt lat="46.47047" lon="-1.74268">
        <ele>11.1</ele>
        <time>2020-06-03T11:29:20Z</time>
      </trkpt>
      <trkpt lat="46.4705" lon="-1.74273">
        <ele>11</ele>
        <time>2020-06-03T11:29:21Z</time>
      </trkpt>
      <trkpt lat="46.47053" lon="-1.74277">
        <ele>11</ele>
        <time>2020-06-03T11:29:22Z</time>
      </trkpt>
      <trkpt lat="46.47058" lon="-1.74283">
        <ele>10.9</ele>
        <time>2020-06-03T11:29:23Z</time>
      </trkpt>
      <trkpt lat="46.47061" lon="-1.74288">
        <ele>10.9</ele>
        <time>2020-06-03T11:29:24Z</time>
      </trkpt>
      <trkpt lat="46.47064" lon="-1.74294">
        <ele>10.8</ele>
        <time>2020-06-03T11:29:25Z</time>
      </trkpt>
      <trkpt lat="46.47067" lon="-1.74298">
        <ele>10.8</ele>
        <time>2020-06-03T11:29:26Z</time>
      </trkpt>
      <trkpt lat="46.4707" lon="-1.74303">
        <ele>10.8</ele>
        <time>2020-06-03T11:29:27Z</time>
      </trkpt>
      <trkpt lat="46.47073" lon="-1.74308">
        <ele>10.8</ele>
        <time>2020-06-03T11:29:28Z</time>
      </trkpt>
      <trkpt lat="46.47076" lon="-1.74313">
        <ele>10.8</ele>
        <time>2020-06-03T11:29:29Z</time>
      </trkpt>
      <trkpt lat="46.47078" lon="-1.74318">
        <ele>10.8</ele>
        <time>2020-06-03T11:29:30Z</time>
      </trkpt>
      <trkpt lat="46.4708" lon="-1.74321">
        <ele>10.8</ele>
        <time>2020-06-03T11:29:31Z</time>
      </trkpt>
      <trkpt lat="46.47082" lon="-1.74325">
        <ele>10.8</ele>
        <time>2020-06-03T11:29:32Z</time>
      </trkpt>
      <trkpt lat="46.47085" lon="-1.74329">
        <ele>10.8</ele>
        <time>2020-06-03T11:29:33Z</time>
      </trkpt>
      <trkpt lat="46.47088" lon="-1.74334">
        <ele>10.8</ele>
        <time>2020-06-03T11:29:34Z</time>
      </trkpt>
      <trkpt lat="46.47091" lon="-1.74338">
        <ele>10.8</ele>
        <time>2020-06-03T11:29:35Z</time>
      </trkpt>
      <trkpt lat="46.47093" lon="-1.74341">
        <ele>10.8</ele>
        <time>2020-06-03T11:29:36Z</time>
      </trkpt>
      <trkpt lat="46.47094" lon="-1.74344">
        <ele>10.8</ele>
        <time>2020-06-03T11:29:37Z</time>
      </trkpt>
      <trkpt lat="46.47096" lon="-1.74348">
        <ele>10.8</ele>
        <time>2020-06-03T11:29:38Z</time>
      </trkpt>
      <trkpt lat="46.47099" lon="-1.74351">
        <ele>10.8</ele>
        <time>2020-06-03T11:29:39Z</time>
      </trkpt>
      <trkpt lat="46.47101" lon="-1.74354">
        <ele>10.8</ele>
        <time>2020-06-03T11:29:40Z</time>
      </trkpt>
      <trkpt lat="46.47103" lon="-1.74358">
        <ele>10.8</ele>
        <time>2020-06-03T11:29:41Z</time>
      </trkpt>
      <trkpt lat="46.47106" lon="-1.74361">
        <ele>10.8</ele>
        <time>2020-06-03T11:29:42Z</time>
      </trkpt>
      <trkpt lat="46.47108" lon="-1.74365">
        <ele>10.8</ele>
        <time>2020-06-03T11:29:43Z</time>
      </trkpt>
      <trkpt lat="46.47111" lon="-1.74369">
        <ele>10.7</ele>
        <time>2020-06-03T11:29:44Z</time>
      </trkpt>
      <trkpt lat="46.47112" lon="-1.74371">
        <ele>10.7</ele>
        <time>2020-06-03T11:29:45Z</time>
      </trkpt>
      <trkpt lat="46.47114" lon="-1.74375">
        <ele>10.7</ele>
        <time>2020-06-03T11:29:46Z</time>
      </trkpt>
      <trkpt lat="46.47116" lon="-1.74378">
        <ele>10.7</ele>
        <time>2020-06-03T11:29:47Z</time>
      </trkpt>
      <trkpt lat="46.47119" lon="-1.74383">
        <ele>10.7</ele>
        <time>2020-06-03T11:29:48Z</time>
      </trkpt>
      <trkpt lat="46.47121" lon="-1.74386">
        <ele>10.7</ele>
        <time>2020-06-03T11:29:49Z</time>
      </trkpt>
      <trkpt lat="46.47123" lon="-1.74389">
        <ele>10.7</ele>
        <time>2020-06-03T11:29:50Z</time>
      </trkpt>
      <trkpt lat="46.47126" lon="-1.74393">
        <ele>10.7</ele>
        <time>2020-06-03T11:29:51Z</time>
      </trkpt>
      <trkpt lat="46.47127" lon="-1.74396">
        <ele>10.7</ele>
        <time>2020-06-03T11:29:52Z</time>
      </trkpt>
      <trkpt lat="46.47129" lon="-1.744">
        <ele>10.7</ele>
        <time>2020-06-03T11:29:53Z</time>
      </trkpt>
      <trkpt lat="46.47132" lon="-1.74404">
        <ele>10.7</ele>
        <time>2020-06-03T11:29:54Z</time>
      </trkpt>
      <trkpt lat="46.47133" lon="-1.74409">
        <ele>10.7</ele>
        <time>2020-06-03T11:29:55Z</time>
      </trkpt>
      <trkpt lat="46.47135" lon="-1.74413">
        <ele>10.7</ele>
        <time>2020-06-03T11:29:56Z</time>
      </trkpt>
      <trkpt lat="46.47138" lon="-1.74418">
        <ele>10.7</ele>
        <time>2020-06-03T11:29:57Z</time>
      </trkpt>
      <trkpt lat="46.4714" lon="-1.74424">
        <ele>10.7</ele>
        <time>2020-06-03T11:29:58Z</time>
      </trkpt>
      <trkpt lat="46.47143" lon="-1.74429">
        <ele>10.7</ele>
        <time>2020-06-03T11:29:59Z</time>
      </trkpt>
      <trkpt lat="46.47146" lon="-1.74434">
        <ele>10.7</ele>
        <time>2020-06-03T11:30:00Z</time>
      </trkpt>
      <trkpt lat="46.47149" lon="-1.74439">
        <ele>10.7</ele>
        <time>2020-06-03T11:30:01Z</time>
      </trkpt>
      <trkpt lat="46.47151" lon="-1.74444">
        <ele>10.7</ele>
        <time>2020-06-03T11:30:02Z</time>
      </trkpt>
      <trkpt lat="46.47154" lon="-1.74449">
        <ele>10.7</ele>
        <time>2020-06-03T11:30:03Z</time>
      </trkpt>
      <trkpt lat="46.47157" lon="-1.74454">
        <ele>10.7</ele>
        <time>2020-06-03T11:30:04Z</time>
      </trkpt>
      <trkpt lat="46.4716" lon="-1.74459">
        <ele>10.7</ele>
        <time>2020-06-03T11:30:05Z</time>
      </trkpt>
      <trkpt lat="46.47163" lon="-1.74464">
        <ele>10.7</ele>
        <time>2020-06-03T11:30:06Z</time>
      </trkpt>
      <trkpt lat="46.47166" lon="-1.7447">
        <ele>10.7</ele>
        <time>2020-06-03T11:30:07Z</time>
      </trkpt>
      <trkpt lat="46.47169" lon="-1.74476">
        <ele>10.7</ele>
        <time>2020-06-03T11:30:08Z</time>
      </trkpt>
      <trkpt lat="46.47172" lon="-1.74481">
        <ele>10.7</ele>
        <time>2020-06-03T11:30:09Z</time>
      </trkpt>
      <trkpt lat="46.47174" lon="-1.74485">
        <ele>10.6</ele>
        <time>2020-06-03T11:30:10Z</time>
      </trkpt>
      <trkpt lat="46.47176" lon="-1.7449">
        <ele>10.6</ele>
        <time>2020-06-03T11:30:11Z</time>
      </trkpt>
      <trkpt lat="46.47178" lon="-1.74495">
        <ele>10.6</ele>
        <time>2020-06-03T11:30:12Z</time>
      </trkpt>
      <trkpt lat="46.47181" lon="-1.745">
        <ele>10.6</ele>
        <time>2020-06-03T11:30:13Z</time>
      </trkpt>
      <trkpt lat="46.47184" lon="-1.74504">
        <ele>10.6</ele>
        <time>2020-06-03T11:30:14Z</time>
      </trkpt>
      <trkpt lat="46.47186" lon="-1.74508">
        <ele>10.6</ele>
        <time>2020-06-03T11:30:15Z</time>
      </trkpt>
      <trkpt lat="46.47189" lon="-1.74513">
        <ele>10.6</ele>
        <time>2020-06-03T11:30:16Z</time>
      </trkpt>
      <trkpt lat="46.47191" lon="-1.74517">
        <ele>10.6</ele>
        <time>2020-06-03T11:30:17Z</time>
      </trkpt>
      <trkpt lat="46.47192" lon="-1.74521">
        <ele>10.6</ele>
        <time>2020-06-03T11:30:18Z</time>
      </trkpt>
      <trkpt lat="46.47194" lon="-1.74525">
        <ele>10.6</ele>
        <time>2020-06-03T11:30:19Z</time>
      </trkpt>
      <trkpt lat="46.47196" lon="-1.74529">
        <ele>10.6</ele>
        <time>2020-06-03T11:30:20Z</time>
      </trkpt>
      <trkpt lat="46.47198" lon="-1.74534">
        <ele>10.6</ele>
        <time>2020-06-03T11:30:21Z</time>
      </trkpt>
      <trkpt lat="46.47198" lon="-1.74535">
        <ele>10.6</ele>
        <time>2020-06-03T11:30:22Z</time>
      </trkpt>
      <trkpt lat="46.47198" lon="-1.74536">
        <ele>10.6</ele>
        <time>2020-06-03T11:30:23Z</time>
      </trkpt>
      <trkpt lat="46.47198" lon="-1.74536">
        <ele>10.6</ele>
        <time>2020-06-03T11:30:24Z</time>
      </trkpt>
      <trkpt lat="46.47197" lon="-1.74535">
        <ele>10.6</ele>
        <time>2020-06-03T11:30:25Z</time>
      </trkpt>
      <trkpt lat="46.47197" lon="-1.74535">
        <ele>10.6</ele>
        <time>2020-06-03T11:30:26Z</time>
      </trkpt>
      <trkpt lat="46.47197" lon="-1.74535">
        <ele>10.6</ele>
        <time>2020-06-03T11:30:27Z</time>
      </trkpt>
      <trkpt lat="46.47197" lon="-1.74536">
        <ele>10.6</ele>
        <time>2020-06-03T11:30:28Z</time>
      </trkpt>
      <trkpt lat="46.47198" lon="-1.74535">
        <ele>10.6</ele>
        <time>2020-06-03T11:30:29Z</time>
      </trkpt>
      <trkpt lat="46.47198" lon="-1.74535">
        <ele>10.6</ele>
        <time>2020-06-03T11:30:30Z</time>
      </trkpt>
      <trkpt lat="46.47198" lon="-1.74535">
        <ele>10.6</ele>
        <time>2020-06-03T11:30:31Z</time>
      </trkpt>
      <trkpt lat="46.47198" lon="-1.74535">
        <ele>10.6</ele>
        <time>2020-06-03T11:30:32Z</time>
      </trkpt>
      <trkpt lat="46.47198" lon="-1.74535">
        <ele>10.6</ele>
        <time>2020-06-03T11:30:33Z</time>
      </trkpt>
      <trkpt lat="46.47198" lon="-1.74535">
        <ele>10.6</ele>
        <time>2020-06-03T11:30:34Z</time>
      </trkpt>
      <trkpt lat="46.47199" lon="-1.74533">
        <ele>10.6</ele>
        <time>2020-06-03T11:30:35Z</time>
      </trkpt>
      <trkpt lat="46.47199" lon="-1.74534">
        <ele>10.6</ele>
        <time>2020-06-03T11:30:36Z</time>
      </trkpt>
      <trkpt lat="46.47199" lon="-1.74534">
        <ele>10.6</ele>
        <time>2020-06-03T11:30:37Z</time>
      </trkpt>
      <trkpt lat="46.47199" lon="-1.74533">
        <ele>10.6</ele>
        <time>2020-06-03T11:30:38Z</time>
      </trkpt>
      <trkpt lat="46.47199" lon="-1.74533">
        <ele>10.6</ele>
        <time>2020-06-03T11:30:39Z</time>
      </trkpt>
      <trkpt lat="46.47203" lon="-1.74542">
        <ele>10.7</ele>
        <time>2020-06-03T11:32:49Z</time>
      </trkpt>
      <trkpt lat="46.47204" lon="-1.74544">
        <ele>10.7</ele>
        <time>2020-06-03T11:32:50Z</time>
      </trkpt>
      <trkpt lat="46.47206" lon="-1.74549">
        <ele>10.7</ele>
        <time>2020-06-03T11:32:51Z</time>
      </trkpt>
      <trkpt lat="46.47207" lon="-1.7455">
        <ele>10.8</ele>
        <time>2020-06-03T11:32:52Z</time>
      </trkpt>
      <trkpt lat="46.47209" lon="-1.74555">
        <ele>10.8</ele>
        <time>2020-06-03T11:32:53Z</time>
      </trkpt>
      <trkpt lat="46.47211" lon="-1.74558">
        <ele>10.8</ele>
        <time>2020-06-03T11:32:54Z</time>
      </trkpt>
      <trkpt lat="46.47213" lon="-1.74563">
        <ele>10.9</ele>
        <time>2020-06-03T11:32:55Z</time>
      </trkpt>
      <trkpt lat="46.47213" lon="-1.74564">
        <ele>10.9</ele>
        <time>2020-06-03T11:32:56Z</time>
      </trkpt>
      <trkpt lat="46.47216" lon="-1.74567">
        <ele>10.9</ele>
        <time>2020-06-03T11:32:57Z</time>
      </trkpt>
      <trkpt lat="46.47218" lon="-1.74571">
        <ele>11</ele>
        <time>2020-06-03T11:32:58Z</time>
      </trkpt>
      <trkpt lat="46.4722" lon="-1.74576">
        <ele>11</ele>
        <time>2020-06-03T11:32:59Z</time>
      </trkpt>
      <trkpt lat="46.47222" lon="-1.74581">
        <ele>11.1</ele>
        <time>2020-06-03T11:33:00Z</time>
      </trkpt>
      <trkpt lat="46.47224" lon="-1.74586">
        <ele>11.1</ele>
        <time>2020-06-03T11:33:01Z</time>
      </trkpt>
      <trkpt lat="46.47227" lon="-1.74591">
        <ele>11.2</ele>
        <time>2020-06-03T11:33:02Z</time>
      </trkpt>
      <trkpt lat="46.4723" lon="-1.74595">
        <ele>11.2</ele>
        <time>2020-06-03T11:33:03Z</time>
      </trkpt>
      <trkpt lat="46.47232" lon="-1.746">
        <ele>11.2</ele>
        <time>2020-06-03T11:33:04Z</time>
      </trkpt>
      <trkpt lat="46.47234" lon="-1.74605">
        <ele>11.2</ele>
        <time>2020-06-03T11:33:05Z</time>
      </trkpt>
      <trkpt lat="46.47236" lon="-1.74609">
        <ele>11.2</ele>
        <time>2020-06-03T11:33:06Z</time>
      </trkpt>
      <trkpt lat="46.47239" lon="-1.74613">
        <ele>11.2</ele>
        <time>2020-06-03T11:33:07Z</time>
      </trkpt>
      <trkpt lat="46.47241" lon="-1.74617">
        <ele>11.2</ele>
        <time>2020-06-03T11:33:08Z</time>
      </trkpt>
      <trkpt lat="46.47243" lon="-1.7462">
        <ele>11.2</ele>
        <time>2020-06-03T11:33:09Z</time>
      </trkpt>
      <trkpt lat="46.47246" lon="-1.74624">
        <ele>11.2</ele>
        <time>2020-06-03T11:33:10Z</time>
      </trkpt>
      <trkpt lat="46.47247" lon="-1.74629">
        <ele>11.1</ele>
        <time>2020-06-03T11:33:11Z</time>
      </trkpt>
      <trkpt lat="46.47249" lon="-1.74633">
        <ele>11.1</ele>
        <time>2020-06-03T11:33:12Z</time>
      </trkpt>
      <trkpt lat="46.4725" lon="-1.74635">
        <ele>11.1</ele>
        <time>2020-06-03T11:33:13Z</time>
      </trkpt>
      <trkpt lat="46.47252" lon="-1.74639">
        <ele>11.1</ele>
        <time>2020-06-03T11:33:14Z</time>
      </trkpt>
      <trkpt lat="46.47252" lon="-1.7464">
        <ele>11.1</ele>
        <time>2020-06-03T11:33:15Z</time>
      </trkpt>
      <trkpt lat="46.47255" lon="-1.74644">
        <ele>11.1</ele>
        <time>2020-06-03T11:33:16Z</time>
      </trkpt>
      <trkpt lat="46.47255" lon="-1.74645">
        <ele>11.1</ele>
        <time>2020-06-03T11:33:17Z</time>
      </trkpt>
      <trkpt lat="46.47258" lon="-1.74649">
        <ele>11.1</ele>
        <time>2020-06-03T11:33:18Z</time>
      </trkpt>
      <trkpt lat="46.47259" lon="-1.74651">
        <ele>11.1</ele>
        <time>2020-06-03T11:33:19Z</time>
      </trkpt>
      <trkpt lat="46.47263" lon="-1.74654">
        <ele>11.1</ele>
        <time>2020-06-03T11:33:20Z</time>
      </trkpt>
      <trkpt lat="46.47264" lon="-1.74656">
        <ele>11.1</ele>
        <time>2020-06-03T11:33:21Z</time>
      </trkpt>
      <trkpt lat="46.47266" lon="-1.74659">
        <ele>11.1</ele>
        <time>2020-06-03T11:33:22Z</time>
      </trkpt>
      <trkpt lat="46.47268" lon="-1.74662">
        <ele>11.1</ele>
        <time>2020-06-03T11:33:23Z</time>
      </trkpt>
      <trkpt lat="46.4727" lon="-1.74665">
        <ele>11.1</ele>
        <time>2020-06-03T11:33:24Z</time>
      </trkpt>
      <trkpt lat="46.47274" lon="-1.74669">
        <ele>11</ele>
        <time>2020-06-03T11:33:25Z</time>
      </trkpt>
      <trkpt lat="46.47277" lon="-1.74673">
        <ele>11</ele>
        <time>2020-06-03T11:33:26Z</time>
      </trkpt>
      <trkpt lat="46.4728" lon="-1.74677">
        <ele>11</ele>
        <time>2020-06-03T11:33:27Z</time>
      </trkpt>
      <trkpt lat="46.47283" lon="-1.74682">
        <ele>11</ele>
        <time>2020-06-03T11:33:28Z</time>
      </trkpt>
      <trkpt lat="46.47286" lon="-1.74686">
        <ele>11</ele>
        <time>2020-06-03T11:33:29Z</time>
      </trkpt>
      <trkpt lat="46.4729" lon="-1.74691">
        <ele>11</ele>
        <time>2020-06-03T11:33:30Z</time>
      </trkpt>
      <trkpt lat="46.47293" lon="-1.74696">
        <ele>11</ele>
        <time>2020-06-03T11:33:31Z</time>
      </trkpt>
      <trkpt lat="46.47297" lon="-1.74701">
        <ele>11</ele>
        <time>2020-06-03T11:33:32Z</time>
      </trkpt>
      <trkpt lat="46.473" lon="-1.74706">
        <ele>11</ele>
        <time>2020-06-03T11:33:33Z</time>
      </trkpt>
      <trkpt lat="46.47303" lon="-1.74711">
        <ele>11</ele>
        <time>2020-06-03T11:33:34Z</time>
      </trkpt>
      <trkpt lat="46.47306" lon="-1.74715">
        <ele>11</ele>
        <time>2020-06-03T11:33:35Z</time>
      </trkpt>
      <trkpt lat="46.47309" lon="-1.74721">
        <ele>11</ele>
        <time>2020-06-03T11:33:36Z</time>
      </trkpt>
      <trkpt lat="46.47313" lon="-1.74727">
        <ele>11</ele>
        <time>2020-06-03T11:33:37Z</time>
      </trkpt>
      <trkpt lat="46.47316" lon="-1.74732">
        <ele>11</ele>
        <time>2020-06-03T11:33:38Z</time>
      </trkpt>
      <trkpt lat="46.47319" lon="-1.74737">
        <ele>11</ele>
        <time>2020-06-03T11:33:39Z</time>
      </trkpt>
      <trkpt lat="46.47323" lon="-1.74743">
        <ele>11</ele>
        <time>2020-06-03T11:33:40Z</time>
      </trkpt>
      <trkpt lat="46.47327" lon="-1.74748">
        <ele>11</ele>
        <time>2020-06-03T11:33:41Z</time>
      </trkpt>
      <trkpt lat="46.4733" lon="-1.74754">
        <ele>11</ele>
        <time>2020-06-03T11:33:42Z</time>
      </trkpt>
      <trkpt lat="46.47333" lon="-1.74759">
        <ele>11</ele>
        <time>2020-06-03T11:33:43Z</time>
      </trkpt>
      <trkpt lat="46.47336" lon="-1.74765">
        <ele>11</ele>
        <time>2020-06-03T11:33:44Z</time>
      </trkpt>
      <trkpt lat="46.4734" lon="-1.74771">
        <ele>11</ele>
        <time>2020-06-03T11:33:45Z</time>
      </trkpt>
      <trkpt lat="46.47343" lon="-1.74777">
        <ele>10.9</ele>
        <time>2020-06-03T11:33:46Z</time>
      </trkpt>
      <trkpt lat="46.47346" lon="-1.74783">
        <ele>10.9</ele>
        <time>2020-06-03T11:33:47Z</time>
      </trkpt>
      <trkpt lat="46.47349" lon="-1.7479">
        <ele>10.9</ele>
        <time>2020-06-03T11:33:48Z</time>
      </trkpt>
      <trkpt lat="46.47352" lon="-1.74796">
        <ele>10.9</ele>
        <time>2020-06-03T11:33:49Z</time>
      </trkpt>
      <trkpt lat="46.47355" lon="-1.74803">
        <ele>10.9</ele>
        <time>2020-06-03T11:33:50Z</time>
      </trkpt>
      <trkpt lat="46.47358" lon="-1.7481">
        <ele>10.9</ele>
        <time>2020-06-03T11:33:51Z</time>
      </trkpt>
      <trkpt lat="46.47361" lon="-1.74817">
        <ele>10.8</ele>
        <time>2020-06-03T11:33:52Z</time>
      </trkpt>
      <trkpt lat="46.47363" lon="-1.74824">
        <ele>10.8</ele>
        <time>2020-06-03T11:33:53Z</time>
      </trkpt>
      <trkpt lat="46.47366" lon="-1.74831">
        <ele>10.8</ele>
        <time>2020-06-03T11:33:54Z</time>
      </trkpt>
      <trkpt lat="46.47368" lon="-1.74837">
        <ele>10.8</ele>
        <time>2020-06-03T11:33:55Z</time>
      </trkpt>
      <trkpt lat="46.47371" lon="-1.74844">
        <ele>10.8</ele>
        <time>2020-06-03T11:33:56Z</time>
      </trkpt>
      <trkpt lat="46.47372" lon="-1.7485">
        <ele>10.8</ele>
        <time>2020-06-03T11:33:57Z</time>
      </trkpt>
      <trkpt lat="46.47374" lon="-1.74855">
        <ele>10.8</ele>
        <time>2020-06-03T11:33:58Z</time>
      </trkpt>
      <trkpt lat="46.47376" lon="-1.74861">
        <ele>10.9</ele>
        <time>2020-06-03T11:33:59Z</time>
      </trkpt>
      <trkpt lat="46.47377" lon="-1.74866">
        <ele>10.9</ele>
        <time>2020-06-03T11:34:00Z</time>
      </trkpt>
      <trkpt lat="46.47379" lon="-1.74871">
        <ele>10.9</ele>
        <time>2020-06-03T11:34:01Z</time>
      </trkpt>
      <trkpt lat="46.4738" lon="-1.74875">
        <ele>10.9</ele>
        <time>2020-06-03T11:34:02Z</time>
      </trkpt>
      <trkpt lat="46.4738" lon="-1.74881">
        <ele>10.9</ele>
        <time>2020-06-03T11:34:03Z</time>
      </trkpt>
      <trkpt lat="46.4738" lon="-1.74888">
        <ele>10.9</ele>
        <time>2020-06-03T11:34:04Z</time>
      </trkpt>
      <trkpt lat="46.47382" lon="-1.74896">
        <ele>10.9</ele>
        <time>2020-06-03T11:34:05Z</time>
      </trkpt>
      <trkpt lat="46.47383" lon="-1.74901">
        <ele>10.9</ele>
        <time>2020-06-03T11:34:06Z</time>
      </trkpt>
      <trkpt lat="46.47384" lon="-1.74908">
        <ele>10.9</ele>
        <time>2020-06-03T11:34:07Z</time>
      </trkpt>
      <trkpt lat="46.47386" lon="-1.74915">
        <ele>10.9</ele>
        <time>2020-06-03T11:34:08Z</time>
      </trkpt>
      <trkpt lat="46.47387" lon="-1.74922">
        <ele>10.9</ele>
        <time>2020-06-03T11:34:09Z</time>
      </trkpt>
      <trkpt lat="46.47388" lon="-1.74929">
        <ele>10.9</ele>
        <time>2020-06-03T11:34:10Z</time>
      </trkpt>
      <trkpt lat="46.4739" lon="-1.74935">
        <ele>10.9</ele>
        <time>2020-06-03T11:34:11Z</time>
      </trkpt>
      <trkpt lat="46.47391" lon="-1.74941">
        <ele>10.9</ele>
        <time>2020-06-03T11:34:12Z</time>
      </trkpt>
      <trkpt lat="46.47392" lon="-1.74948">
        <ele>10.9</ele>
        <time>2020-06-03T11:34:13Z</time>
      </trkpt>
      <trkpt lat="46.47393" lon="-1.74955">
        <ele>10.9</ele>
        <time>2020-06-03T11:34:14Z</time>
      </trkpt>
      <trkpt lat="46.47394" lon="-1.74962">
        <ele>10.8</ele>
        <time>2020-06-03T11:34:15Z</time>
      </trkpt>
      <trkpt lat="46.47395" lon="-1.74968">
        <ele>10.8</ele>
        <time>2020-06-03T11:34:16Z</time>
      </trkpt>
      <trkpt lat="46.47396" lon="-1.74975">
        <ele>10.8</ele>
        <time>2020-06-03T11:34:17Z</time>
      </trkpt>
      <trkpt lat="46.47398" lon="-1.74982">
        <ele>10.8</ele>
        <time>2020-06-03T11:34:18Z</time>
      </trkpt>
      <trkpt lat="46.47399" lon="-1.74988">
        <ele>10.8</ele>
        <time>2020-06-03T11:34:19Z</time>
      </trkpt>
      <trkpt lat="46.47401" lon="-1.74995">
        <ele>10.7</ele>
        <time>2020-06-03T11:34:20Z</time>
      </trkpt>
      <trkpt lat="46.47402" lon="-1.75001">
        <ele>10.7</ele>
        <time>2020-06-03T11:34:21Z</time>
      </trkpt>
      <trkpt lat="46.47403" lon="-1.75008">
        <ele>10.7</ele>
        <time>2020-06-03T11:34:22Z</time>
      </trkpt>
      <trkpt lat="46.47405" lon="-1.75015">
        <ele>10.7</ele>
        <time>2020-06-03T11:34:23Z</time>
      </trkpt>
      <trkpt lat="46.47406" lon="-1.75022">
        <ele>10.6</ele>
        <time>2020-06-03T11:34:24Z</time>
      </trkpt>
      <trkpt lat="46.47408" lon="-1.75027">
        <ele>10.6</ele>
        <time>2020-06-03T11:34:25Z</time>
      </trkpt>
      <trkpt lat="46.4741" lon="-1.75033">
        <ele>10.6</ele>
        <time>2020-06-03T11:34:26Z</time>
      </trkpt>
      <trkpt lat="46.47411" lon="-1.75039">
        <ele>10.6</ele>
        <time>2020-06-03T11:34:27Z</time>
      </trkpt>
      <trkpt lat="46.47413" lon="-1.75047">
        <ele>10.6</ele>
        <time>2020-06-03T11:34:28Z</time>
      </trkpt>
      <trkpt lat="46.47414" lon="-1.75054">
        <ele>10.5</ele>
        <time>2020-06-03T11:34:29Z</time>
      </trkpt>
      <trkpt lat="46.47415" lon="-1.75061">
        <ele>10.5</ele>
        <time>2020-06-03T11:34:30Z</time>
      </trkpt>
      <trkpt lat="46.47417" lon="-1.75068">
        <ele>10.4</ele>
        <time>2020-06-03T11:34:31Z</time>
      </trkpt>
      <trkpt lat="46.47418" lon="-1.75075">
        <ele>10.4</ele>
        <time>2020-06-03T11:34:32Z</time>
      </trkpt>
      <trkpt lat="46.4742" lon="-1.75082">
        <ele>10.3</ele>
        <time>2020-06-03T11:34:33Z</time>
      </trkpt>
      <trkpt lat="46.47422" lon="-1.75091">
        <ele>10.2</ele>
        <time>2020-06-03T11:34:34Z</time>
      </trkpt>
      <trkpt lat="46.47424" lon="-1.75099">
        <ele>10.2</ele>
        <time>2020-06-03T11:34:35Z</time>
      </trkpt>
      <trkpt lat="46.47425" lon="-1.75107">
        <ele>10.1</ele>
        <time>2020-06-03T11:34:36Z</time>
      </trkpt>
      <trkpt lat="46.47427" lon="-1.75114">
        <ele>10</ele>
        <time>2020-06-03T11:34:37Z</time>
      </trkpt>
      <trkpt lat="46.47429" lon="-1.75122">
        <ele>10</ele>
        <time>2020-06-03T11:34:38Z</time>
      </trkpt>
      <trkpt lat="46.47431" lon="-1.75127">
        <ele>9.9</ele>
        <time>2020-06-03T11:34:39Z</time>
      </trkpt>
      <trkpt lat="46.47432" lon="-1.75134">
        <ele>9.8</ele>
        <time>2020-06-03T11:34:40Z</time>
      </trkpt>
      <trkpt lat="46.47433" lon="-1.7514">
        <ele>9.7</ele>
        <time>2020-06-03T11:34:41Z</time>
      </trkpt>
      <trkpt lat="46.47435" lon="-1.75147">
        <ele>9.7</ele>
        <time>2020-06-03T11:34:42Z</time>
      </trkpt>
      <trkpt lat="46.47436" lon="-1.75153">
        <ele>9.6</ele>
        <time>2020-06-03T11:34:43Z</time>
      </trkpt>
      <trkpt lat="46.47437" lon="-1.7516">
        <ele>9.5</ele>
        <time>2020-06-03T11:34:44Z</time>
      </trkpt>
      <trkpt lat="46.47437" lon="-1.75166">
        <ele>9.5</ele>
        <time>2020-06-03T11:34:45Z</time>
      </trkpt>
      <trkpt lat="46.47439" lon="-1.75173">
        <ele>9.4</ele>
        <time>2020-06-03T11:34:46Z</time>
      </trkpt>
      <trkpt lat="46.47439" lon="-1.75181">
        <ele>9.3</ele>
        <time>2020-06-03T11:34:47Z</time>
      </trkpt>
      <trkpt lat="46.47441" lon="-1.75188">
        <ele>9.3</ele>
        <time>2020-06-03T11:34:48Z</time>
      </trkpt>
      <trkpt lat="46.47442" lon="-1.75194">
        <ele>9.2</ele>
        <time>2020-06-03T11:34:49Z</time>
      </trkpt>
      <trkpt lat="46.47442" lon="-1.75199">
        <ele>9</ele>
        <time>2020-06-03T11:34:50Z</time>
      </trkpt>
      <trkpt lat="46.4744" lon="-1.75203">
        <ele>8.9</ele>
        <time>2020-06-03T11:34:51Z</time>
      </trkpt>
      <trkpt lat="46.47437" lon="-1.75206">
        <ele>8.8</ele>
        <time>2020-06-03T11:34:52Z</time>
      </trkpt>
      <trkpt lat="46.47434" lon="-1.75211">
        <ele>8.5</ele>
        <time>2020-06-03T11:34:53Z</time>
      </trkpt>
      <trkpt lat="46.47432" lon="-1.75218">
        <ele>8.4</ele>
        <time>2020-06-03T11:34:54Z</time>
      </trkpt>
      <trkpt lat="46.47433" lon="-1.75225">
        <ele>8.4</ele>
        <time>2020-06-03T11:34:55Z</time>
      </trkpt>
      <trkpt lat="46.47434" lon="-1.75231">
        <ele>8.4</ele>
        <time>2020-06-03T11:34:56Z</time>
      </trkpt>
      <trkpt lat="46.47435" lon="-1.75238">
        <ele>8.4</ele>
        <time>2020-06-03T11:34:57Z</time>
      </trkpt>
      <trkpt lat="46.47437" lon="-1.75245">
        <ele>8.4</ele>
        <time>2020-06-03T11:34:58Z</time>
      </trkpt>
      <trkpt lat="46.47438" lon="-1.75251">
        <ele>8.3</ele>
        <time>2020-06-03T11:34:59Z</time>
      </trkpt>
      <trkpt lat="46.4744" lon="-1.75258">
        <ele>8.3</ele>
        <time>2020-06-03T11:35:00Z</time>
      </trkpt>
      <trkpt lat="46.47441" lon="-1.75264">
        <ele>8.3</ele>
        <time>2020-06-03T11:35:01Z</time>
      </trkpt>
      <trkpt lat="46.47442" lon="-1.75269">
        <ele>8.3</ele>
        <time>2020-06-03T11:35:02Z</time>
      </trkpt>
      <trkpt lat="46.47444" lon="-1.75275">
        <ele>8.3</ele>
        <time>2020-06-03T11:35:03Z</time>
      </trkpt>
      <trkpt lat="46.47445" lon="-1.75281">
        <ele>8.2</ele>
        <time>2020-06-03T11:35:04Z</time>
      </trkpt>
      <trkpt lat="46.47446" lon="-1.75287">
        <ele>8.2</ele>
        <time>2020-06-03T11:35:05Z</time>
      </trkpt>
      <trkpt lat="46.47447" lon="-1.75294">
        <ele>8.1</ele>
        <time>2020-06-03T11:35:06Z</time>
      </trkpt>
      <trkpt lat="46.47447" lon="-1.75301">
        <ele>8.1</ele>
        <time>2020-06-03T11:35:07Z</time>
      </trkpt>
      <trkpt lat="46.47447" lon="-1.75308">
        <ele>8</ele>
        <time>2020-06-03T11:35:08Z</time>
      </trkpt>
      <trkpt lat="46.47449" lon="-1.75316">
        <ele>7.9</ele>
        <time>2020-06-03T11:35:09Z</time>
      </trkpt>
      <trkpt lat="46.47449" lon="-1.75323">
        <ele>7.8</ele>
        <time>2020-06-03T11:35:10Z</time>
      </trkpt>
      <trkpt lat="46.4745" lon="-1.7533">
        <ele>7.7</ele>
        <time>2020-06-03T11:35:11Z</time>
      </trkpt>
      <trkpt lat="46.47452" lon="-1.75338">
        <ele>7.6</ele>
        <time>2020-06-03T11:35:12Z</time>
      </trkpt>
      <trkpt lat="46.47454" lon="-1.75344">
        <ele>7.6</ele>
        <time>2020-06-03T11:35:13Z</time>
      </trkpt>
      <trkpt lat="46.47458" lon="-1.75348">
        <ele>7.5</ele>
        <time>2020-06-03T11:35:14Z</time>
      </trkpt>
      <trkpt lat="46.47462" lon="-1.7535">
        <ele>7.5</ele>
        <time>2020-06-03T11:35:15Z</time>
      </trkpt>
      <trkpt lat="46.47466" lon="-1.75354">
        <ele>7.5</ele>
        <time>2020-06-03T11:35:16Z</time>
      </trkpt>
      <trkpt lat="46.47468" lon="-1.75361">
        <ele>7.4</ele>
        <time>2020-06-03T11:35:17Z</time>
      </trkpt>
      <trkpt lat="46.47468" lon="-1.75369">
        <ele>7.4</ele>
        <time>2020-06-03T11:35:18Z</time>
      </trkpt>
      <trkpt lat="46.47469" lon="-1.75375">
        <ele>7.3</ele>
        <time>2020-06-03T11:35:19Z</time>
      </trkpt>
      <trkpt lat="46.4747" lon="-1.75383">
        <ele>7.3</ele>
        <time>2020-06-03T11:35:20Z</time>
      </trkpt>
      <trkpt lat="46.47471" lon="-1.7539">
        <ele>7.3</ele>
        <time>2020-06-03T11:35:21Z</time>
      </trkpt>
      <trkpt lat="46.47472" lon="-1.75397">
        <ele>7.2</ele>
        <time>2020-06-03T11:35:22Z</time>
      </trkpt>
      <trkpt lat="46.47474" lon="-1.75404">
        <ele>7.2</ele>
        <time>2020-06-03T11:35:23Z</time>
      </trkpt>
      <trkpt lat="46.47476" lon="-1.7541">
        <ele>7.2</ele>
        <time>2020-06-03T11:35:24Z</time>
      </trkpt>
      <trkpt lat="46.4748" lon="-1.75413">
        <ele>7.8</ele>
        <time>2020-06-03T11:35:25Z</time>
      </trkpt>
      <trkpt lat="46.47483" lon="-1.75417">
        <ele>7.9</ele>
        <time>2020-06-03T11:35:26Z</time>
      </trkpt>
      <trkpt lat="46.47486" lon="-1.75421">
        <ele>7.9</ele>
        <time>2020-06-03T11:35:27Z</time>
      </trkpt>
      <trkpt lat="46.47488" lon="-1.75425">
        <ele>8</ele>
        <time>2020-06-03T11:35:28Z</time>
      </trkpt>
      <trkpt lat="46.4749" lon="-1.7543">
        <ele>8.1</ele>
        <time>2020-06-03T11:35:29Z</time>
      </trkpt>
      <trkpt lat="46.4749" lon="-1.75435">
        <ele>8.1</ele>
        <time>2020-06-03T11:35:30Z</time>
      </trkpt>
      <trkpt lat="46.47491" lon="-1.75439">
        <ele>8.2</ele>
        <time>2020-06-03T11:35:31Z</time>
      </trkpt>
      <trkpt lat="46.47491" lon="-1.75443">
        <ele>8.3</ele>
        <time>2020-06-03T11:35:32Z</time>
      </trkpt>
      <trkpt lat="46.47492" lon="-1.75449">
        <ele>8.4</ele>
        <time>2020-06-03T11:35:33Z</time>
      </trkpt>
      <trkpt lat="46.47494" lon="-1.75455">
        <ele>8.4</ele>
        <time>2020-06-03T11:35:34Z</time>
      </trkpt>
      <trkpt lat="46.47494" lon="-1.7546">
        <ele>8.5</ele>
        <time>2020-06-03T11:35:35Z</time>
      </trkpt>
      <trkpt lat="46.47496" lon="-1.75465">
        <ele>8.6</ele>
        <time>2020-06-03T11:35:36Z</time>
      </trkpt>
      <trkpt lat="46.47497" lon="-1.7547">
        <ele>8.6</ele>
        <time>2020-06-03T11:35:37Z</time>
      </trkpt>
      <trkpt lat="46.47498" lon="-1.75475">
        <ele>8.7</ele>
        <time>2020-06-03T11:35:38Z</time>
      </trkpt>
      <trkpt lat="46.475" lon="-1.75481">
        <ele>8.8</ele>
        <time>2020-06-03T11:35:39Z</time>
      </trkpt>
      <trkpt lat="46.47501" lon="-1.75486">
        <ele>8.8</ele>
        <time>2020-06-03T11:35:40Z</time>
      </trkpt>
      <trkpt lat="46.47503" lon="-1.75492">
        <ele>8.9</ele>
        <time>2020-06-03T11:35:41Z</time>
      </trkpt>
      <trkpt lat="46.47504" lon="-1.75498">
        <ele>9</ele>
        <time>2020-06-03T11:35:42Z</time>
      </trkpt>
      <trkpt lat="46.47505" lon="-1.75504">
        <ele>9</ele>
        <time>2020-06-03T11:35:43Z</time>
      </trkpt>
      <trkpt lat="46.47506" lon="-1.75511">
        <ele>9.1</ele>
        <time>2020-06-03T11:35:44Z</time>
      </trkpt>
      <trkpt lat="46.47506" lon="-1.75518">
        <ele>9.2</ele>
        <time>2020-06-03T11:35:45Z</time>
      </trkpt>
      <trkpt lat="46.47507" lon="-1.75524">
        <ele>9.2</ele>
        <time>2020-06-03T11:35:46Z</time>
      </trkpt>
      <trkpt lat="46.47507" lon="-1.7553">
        <ele>9.2</ele>
        <time>2020-06-03T11:35:47Z</time>
      </trkpt>
      <trkpt lat="46.47507" lon="-1.75535">
        <ele>9.3</ele>
        <time>2020-06-03T11:35:48Z</time>
      </trkpt>
      <trkpt lat="46.47508" lon="-1.7554">
        <ele>9.3</ele>
        <time>2020-06-03T11:35:49Z</time>
      </trkpt>
      <trkpt lat="46.47508" lon="-1.75546">
        <ele>9.3</ele>
        <time>2020-06-03T11:35:50Z</time>
      </trkpt>
      <trkpt lat="46.47509" lon="-1.75553">
        <ele>9.3</ele>
        <time>2020-06-03T11:35:51Z</time>
      </trkpt>
      <trkpt lat="46.4751" lon="-1.75559">
        <ele>9.3</ele>
        <time>2020-06-03T11:35:52Z</time>
      </trkpt>
      <trkpt lat="46.47511" lon="-1.75565">
        <ele>9.3</ele>
        <time>2020-06-03T11:35:53Z</time>
      </trkpt>
      <trkpt lat="46.47512" lon="-1.75571">
        <ele>9.3</ele>
        <time>2020-06-03T11:35:54Z</time>
      </trkpt>
      <trkpt lat="46.47513" lon="-1.75577">
        <ele>9.3</ele>
        <time>2020-06-03T11:35:55Z</time>
      </trkpt>
      <trkpt lat="46.47514" lon="-1.75582">
        <ele>9.3</ele>
        <time>2020-06-03T11:35:56Z</time>
      </trkpt>
      <trkpt lat="46.47516" lon="-1.75589">
        <ele>9.3</ele>
        <time>2020-06-03T11:35:57Z</time>
      </trkpt>
      <trkpt lat="46.47518" lon="-1.75594">
        <ele>9.3</ele>
        <time>2020-06-03T11:35:58Z</time>
      </trkpt>
      <trkpt lat="46.4752" lon="-1.75599">
        <ele>9.3</ele>
        <time>2020-06-03T11:35:59Z</time>
      </trkpt>
      <trkpt lat="46.47522" lon="-1.75604">
        <ele>9.3</ele>
        <time>2020-06-03T11:36:00Z</time>
      </trkpt>
      <trkpt lat="46.47525" lon="-1.7561">
        <ele>9.3</ele>
        <time>2020-06-03T11:36:01Z</time>
      </trkpt>
      <trkpt lat="46.47528" lon="-1.75616">
        <ele>9.3</ele>
        <time>2020-06-03T11:36:02Z</time>
      </trkpt>
      <trkpt lat="46.47532" lon="-1.7562">
        <ele>9.3</ele>
        <time>2020-06-03T11:36:03Z</time>
      </trkpt>
      <trkpt lat="46.47534" lon="-1.75625">
        <ele>9.3</ele>
        <time>2020-06-03T11:36:04Z</time>
      </trkpt>
      <trkpt lat="46.47537" lon="-1.75629">
        <ele>9.3</ele>
        <time>2020-06-03T11:36:05Z</time>
      </trkpt>
      <trkpt lat="46.47539" lon="-1.75634">
        <ele>9.3</ele>
        <time>2020-06-03T11:36:06Z</time>
      </trkpt>
      <trkpt lat="46.47542" lon="-1.75638">
        <ele>9.2</ele>
        <time>2020-06-03T11:36:07Z</time>
      </trkpt>
      <trkpt lat="46.47545" lon="-1.75642">
        <ele>9.2</ele>
        <time>2020-06-03T11:36:08Z</time>
      </trkpt>
      <trkpt lat="46.47548" lon="-1.75646">
        <ele>9.2</ele>
        <time>2020-06-03T11:36:09Z</time>
      </trkpt>
      <trkpt lat="46.47551" lon="-1.7565">
        <ele>9.3</ele>
        <time>2020-06-03T11:36:10Z</time>
      </trkpt>
      <trkpt lat="46.47555" lon="-1.75654">
        <ele>9.3</ele>
        <time>2020-06-03T11:36:11Z</time>
      </trkpt>
      <trkpt lat="46.47559" lon="-1.75659">
        <ele>9.4</ele>
        <time>2020-06-03T11:36:12Z</time>
      </trkpt>
      <trkpt lat="46.47564" lon="-1.75663">
        <ele>9.4</ele>
        <time>2020-06-03T11:36:13Z</time>
      </trkpt>
      <trkpt lat="46.47568" lon="-1.75668">
        <ele>9.5</ele>
        <time>2020-06-03T11:36:14Z</time>
      </trkpt>
      <trkpt lat="46.47573" lon="-1.75672">
        <ele>9.5</ele>
        <time>2020-06-03T11:36:15Z</time>
      </trkpt>
      <trkpt lat="46.47578" lon="-1.75676">
        <ele>9.6</ele>
        <time>2020-06-03T11:36:16Z</time>
      </trkpt>
      <trkpt lat="46.47583" lon="-1.75681">
        <ele>9.6</ele>
        <time>2020-06-03T11:36:17Z</time>
      </trkpt>
      <trkpt lat="46.47588" lon="-1.75687">
        <ele>9.7</ele>
        <time>2020-06-03T11:36:18Z</time>
      </trkpt>
      <trkpt lat="46.47594" lon="-1.75694">
        <ele>9.7</ele>
        <time>2020-06-03T11:36:19Z</time>
      </trkpt>
      <trkpt lat="46.47598" lon="-1.757">
        <ele>9.7</ele>
        <time>2020-06-03T11:36:20Z</time>
      </trkpt>
      <trkpt lat="46.47603" lon="-1.75706">
        <ele>9.7</ele>
        <time>2020-06-03T11:36:21Z</time>
      </trkpt>
      <trkpt lat="46.47606" lon="-1.75711">
        <ele>9.7</ele>
        <time>2020-06-03T11:36:22Z</time>
      </trkpt>
      <trkpt lat="46.4761" lon="-1.75717">
        <ele>9.7</ele>
        <time>2020-06-03T11:36:23Z</time>
      </trkpt>
      <trkpt lat="46.47614" lon="-1.75723">
        <ele>9.6</ele>
        <time>2020-06-03T11:36:24Z</time>
      </trkpt>
      <trkpt lat="46.47618" lon="-1.7573">
        <ele>9.5</ele>
        <time>2020-06-03T11:36:25Z</time>
      </trkpt>
      <trkpt lat="46.47622" lon="-1.75737">
        <ele>9.3</ele>
        <time>2020-06-03T11:36:26Z</time>
      </trkpt>
      <trkpt lat="46.47625" lon="-1.75744">
        <ele>9.2</ele>
        <time>2020-06-03T11:36:27Z</time>
      </trkpt>
      <trkpt lat="46.47628" lon="-1.75748">
        <ele>9.1</ele>
        <time>2020-06-03T11:36:28Z</time>
      </trkpt>
      <trkpt lat="46.47632" lon="-1.75752">
        <ele>9</ele>
        <time>2020-06-03T11:36:29Z</time>
      </trkpt>
      <trkpt lat="46.47636" lon="-1.75754">
        <ele>8.9</ele>
        <time>2020-06-03T11:36:30Z</time>
      </trkpt>
      <trkpt lat="46.4764" lon="-1.75752">
        <ele>9.3</ele>
        <time>2020-06-03T11:36:31Z</time>
      </trkpt>
      <trkpt lat="46.47644" lon="-1.75749">
        <ele>9.3</ele>
        <time>2020-06-03T11:36:32Z</time>
      </trkpt>
      <trkpt lat="46.47648" lon="-1.7575">
        <ele>9.3</ele>
        <time>2020-06-03T11:36:33Z</time>
      </trkpt>
      <trkpt lat="46.47653" lon="-1.75756">
        <ele>9.2</ele>
        <time>2020-06-03T11:36:34Z</time>
      </trkpt>
      <trkpt lat="46.47658" lon="-1.7576">
        <ele>9.2</ele>
        <time>2020-06-03T11:36:35Z</time>
      </trkpt>
      <trkpt lat="46.47663" lon="-1.75766">
        <ele>9.1</ele>
        <time>2020-06-03T11:36:36Z</time>
      </trkpt>
      <trkpt lat="46.4767" lon="-1.75772">
        <ele>9</ele>
        <time>2020-06-03T11:36:37Z</time>
      </trkpt>
      <trkpt lat="46.47676" lon="-1.75778">
        <ele>9</ele>
        <time>2020-06-03T11:36:38Z</time>
      </trkpt>
      <trkpt lat="46.4768" lon="-1.75783">
        <ele>9</ele>
        <time>2020-06-03T11:36:39Z</time>
      </trkpt>
      <trkpt lat="46.47687" lon="-1.75792">
        <ele>8.9</ele>
        <time>2020-06-03T11:36:40Z</time>
      </trkpt>
      <trkpt lat="46.47694" lon="-1.75799">
        <ele>8.9</ele>
        <time>2020-06-03T11:36:41Z</time>
      </trkpt>
      <trkpt lat="46.477" lon="-1.75808">
        <ele>8.8</ele>
        <time>2020-06-03T11:36:42Z</time>
      </trkpt>
      <trkpt lat="46.47706" lon="-1.75817">
        <ele>8.8</ele>
        <time>2020-06-03T11:36:43Z</time>
      </trkpt>
      <trkpt lat="46.47711" lon="-1.75825">
        <ele>8.8</ele>
        <time>2020-06-03T11:36:44Z</time>
      </trkpt>
      <trkpt lat="46.47718" lon="-1.75835">
        <ele>8.8</ele>
        <time>2020-06-03T11:36:45Z</time>
      </trkpt>
      <trkpt lat="46.47723" lon="-1.75845">
        <ele>8.8</ele>
        <time>2020-06-03T11:36:46Z</time>
      </trkpt>
      <trkpt lat="46.47728" lon="-1.75855">
        <ele>8.9</ele>
        <time>2020-06-03T11:36:47Z</time>
      </trkpt>
      <trkpt lat="46.47733" lon="-1.75863">
        <ele>8.9</ele>
        <time>2020-06-03T11:36:48Z</time>
      </trkpt>
      <trkpt lat="46.47739" lon="-1.75872">
        <ele>8.9</ele>
        <time>2020-06-03T11:36:49Z</time>
      </trkpt>
      <trkpt lat="46.47745" lon="-1.75881">
        <ele>8.9</ele>
        <time>2020-06-03T11:36:50Z</time>
      </trkpt>
      <trkpt lat="46.4775" lon="-1.75891">
        <ele>8.9</ele>
        <time>2020-06-03T11:36:51Z</time>
      </trkpt>
      <trkpt lat="46.47756" lon="-1.759">
        <ele>8.9</ele>
        <time>2020-06-03T11:36:52Z</time>
      </trkpt>
      <trkpt lat="46.47762" lon="-1.75908">
        <ele>8.9</ele>
        <time>2020-06-03T11:36:53Z</time>
      </trkpt>
      <trkpt lat="46.47767" lon="-1.75915">
        <ele>9</ele>
        <time>2020-06-03T11:36:54Z</time>
      </trkpt>
      <trkpt lat="46.47772" lon="-1.75921">
        <ele>9</ele>
        <time>2020-06-03T11:36:55Z</time>
      </trkpt>
      <trkpt lat="46.47777" lon="-1.75927">
        <ele>9.1</ele>
        <time>2020-06-03T11:36:56Z</time>
      </trkpt>
      <trkpt lat="46.47781" lon="-1.75932">
        <ele>9.2</ele>
        <time>2020-06-03T11:36:57Z</time>
      </trkpt>
      <trkpt lat="46.47784" lon="-1.75937">
        <ele>9.2</ele>
        <time>2020-06-03T11:36:58Z</time>
      </trkpt>
      <trkpt lat="46.47789" lon="-1.75941">
        <ele>9.3</ele>
        <time>2020-06-03T11:36:59Z</time>
      </trkpt>
      <trkpt lat="46.47792" lon="-1.75945">
        <ele>9.3</ele>
        <time>2020-06-03T11:37:00Z</time>
      </trkpt>
      <trkpt lat="46.47795" lon="-1.75949">
        <ele>9.3</ele>
        <time>2020-06-03T11:37:01Z</time>
      </trkpt>
      <trkpt lat="46.47798" lon="-1.75952">
        <ele>9.4</ele>
        <time>2020-06-03T11:37:02Z</time>
      </trkpt>
      <trkpt lat="46.478" lon="-1.75955">
        <ele>9.4</ele>
        <time>2020-06-03T11:37:03Z</time>
      </trkpt>
      <trkpt lat="46.47803" lon="-1.75958">
        <ele>9.4</ele>
        <time>2020-06-03T11:37:04Z</time>
      </trkpt>
      <trkpt lat="46.47804" lon="-1.75962">
        <ele>9.5</ele>
        <time>2020-06-03T11:37:05Z</time>
      </trkpt>
      <trkpt lat="46.47807" lon="-1.75966">
        <ele>9.5</ele>
        <time>2020-06-03T11:37:06Z</time>
      </trkpt>
      <trkpt lat="46.4781" lon="-1.75969">
        <ele>9.6</ele>
        <time>2020-06-03T11:37:07Z</time>
      </trkpt>
      <trkpt lat="46.47813" lon="-1.75973">
        <ele>9.6</ele>
        <time>2020-06-03T11:37:08Z</time>
      </trkpt>
      <trkpt lat="46.47816" lon="-1.75976">
        <ele>9.6</ele>
        <time>2020-06-03T11:37:09Z</time>
      </trkpt>
      <trkpt lat="46.4782" lon="-1.75979">
        <ele>9.6</ele>
        <time>2020-06-03T11:37:10Z</time>
      </trkpt>
      <trkpt lat="46.47824" lon="-1.75983">
        <ele>9.6</ele>
        <time>2020-06-03T11:37:11Z</time>
      </trkpt>
      <trkpt lat="46.47828" lon="-1.75986">
        <ele>9.7</ele>
        <time>2020-06-03T11:37:12Z</time>
      </trkpt>
      <trkpt lat="46.47831" lon="-1.75989">
        <ele>9.7</ele>
        <time>2020-06-03T11:37:13Z</time>
      </trkpt>
      <trkpt lat="46.47835" lon="-1.75993">
        <ele>9.7</ele>
        <time>2020-06-03T11:37:14Z</time>
      </trkpt>
      <trkpt lat="46.47836" lon="-1.75996">
        <ele>9.7</ele>
        <time>2020-06-03T11:37:15Z</time>
      </trkpt>
      <trkpt lat="46.47837" lon="-1.76001">
        <ele>9.7</ele>
        <time>2020-06-03T11:37:16Z</time>
      </trkpt>
      <trkpt lat="46.47836" lon="-1.76003">
        <ele>9.7</ele>
        <time>2020-06-03T11:37:17Z</time>
      </trkpt>
      <trkpt lat="46.47834" lon="-1.76006">
        <ele>9.2</ele>
        <time>2020-06-03T11:37:18Z</time>
      </trkpt>
      <trkpt lat="46.47831" lon="-1.76007">
        <ele>9.2</ele>
        <time>2020-06-03T11:37:19Z</time>
      </trkpt>
      <trkpt lat="46.47829" lon="-1.76011">
        <ele>9.3</ele>
        <time>2020-06-03T11:37:20Z</time>
      </trkpt>
      <trkpt lat="46.47828" lon="-1.76012">
        <ele>9.3</ele>
        <time>2020-06-03T11:37:21Z</time>
      </trkpt>
      <trkpt lat="46.47826" lon="-1.76017">
        <ele>9.3</ele>
        <time>2020-06-03T11:37:22Z</time>
      </trkpt>
      <trkpt lat="46.47826" lon="-1.76018">
        <ele>9.3</ele>
        <time>2020-06-03T11:37:23Z</time>
      </trkpt>
      <trkpt lat="46.47825" lon="-1.76021">
        <ele>9.4</ele>
        <time>2020-06-03T11:37:24Z</time>
      </trkpt>
      <trkpt lat="46.47825" lon="-1.76021">
        <ele>9.4</ele>
        <time>2020-06-03T11:37:25Z</time>
      </trkpt>
      <trkpt lat="46.47827" lon="-1.76023">
        <ele>9.4</ele>
        <time>2020-06-03T11:37:26Z</time>
      </trkpt>
      <trkpt lat="46.4783" lon="-1.76023">
        <ele>9.4</ele>
        <time>2020-06-03T11:37:27Z</time>
      </trkpt>
      <trkpt lat="46.47833" lon="-1.76024">
        <ele>9.4</ele>
        <time>2020-06-03T11:37:28Z</time>
      </trkpt>
      <trkpt lat="46.47834" lon="-1.76025">
        <ele>9.5</ele>
        <time>2020-06-03T11:37:29Z</time>
      </trkpt>
      <trkpt lat="46.47837" lon="-1.76026">
        <ele>9.5</ele>
        <time>2020-06-03T11:37:30Z</time>
      </trkpt>
      <trkpt lat="46.47838" lon="-1.76026">
        <ele>9.5</ele>
        <time>2020-06-03T11:37:31Z</time>
      </trkpt>
      <trkpt lat="46.47841" lon="-1.76027">
        <ele>9.5</ele>
        <time>2020-06-03T11:37:32Z</time>
      </trkpt>
      <trkpt lat="46.47844" lon="-1.76026">
        <ele>9.6</ele>
        <time>2020-06-03T11:37:33Z</time>
      </trkpt>
      <trkpt lat="46.47848" lon="-1.76026">
        <ele>9.6</ele>
        <time>2020-06-03T11:37:34Z</time>
      </trkpt>
      <trkpt lat="46.4785" lon="-1.76024">
        <ele>9.6</ele>
        <time>2020-06-03T11:37:35Z</time>
      </trkpt>
      <trkpt lat="46.47853" lon="-1.76022">
        <ele>9.7</ele>
        <time>2020-06-03T11:37:36Z</time>
      </trkpt>
      <trkpt lat="46.47856" lon="-1.76021">
        <ele>9.7</ele>
        <time>2020-06-03T11:37:37Z</time>
      </trkpt>
      <trkpt lat="46.4786" lon="-1.7602">
        <ele>9.7</ele>
        <time>2020-06-03T11:37:38Z</time>
      </trkpt>
      <trkpt lat="46.47863" lon="-1.76021">
        <ele>9.7</ele>
        <time>2020-06-03T11:37:39Z</time>
      </trkpt>
      <trkpt lat="46.47866" lon="-1.76021">
        <ele>9.7</ele>
        <time>2020-06-03T11:37:40Z</time>
      </trkpt>
      <trkpt lat="46.47869" lon="-1.76023">
        <ele>9.7</ele>
        <time>2020-06-03T11:37:41Z</time>
      </trkpt>
      <trkpt lat="46.47872" lon="-1.76025">
        <ele>9.6</ele>
        <time>2020-06-03T11:37:42Z</time>
      </trkpt>
      <trkpt lat="46.47875" lon="-1.76026">
        <ele>9.6</ele>
        <time>2020-06-03T11:37:43Z</time>
      </trkpt>
      <trkpt lat="46.47879" lon="-1.76028">
        <ele>9.6</ele>
        <time>2020-06-03T11:37:44Z</time>
      </trkpt>
      <trkpt lat="46.47883" lon="-1.76029">
        <ele>9.6</ele>
        <time>2020-06-03T11:37:45Z</time>
      </trkpt>
      <trkpt lat="46.47886" lon="-1.7603">
        <ele>9.6</ele>
        <time>2020-06-03T11:37:46Z</time>
      </trkpt>
      <trkpt lat="46.4789" lon="-1.76032">
        <ele>9.6</ele>
        <time>2020-06-03T11:37:47Z</time>
      </trkpt>
      <trkpt lat="46.47894" lon="-1.76034">
        <ele>9.6</ele>
        <time>2020-06-03T11:37:48Z</time>
      </trkpt>
      <trkpt lat="46.47898" lon="-1.76034">
        <ele>9.6</ele>
        <time>2020-06-03T11:37:49Z</time>
      </trkpt>
      <trkpt lat="46.47901" lon="-1.76035">
        <ele>9.6</ele>
        <time>2020-06-03T11:37:50Z</time>
      </trkpt>
      <trkpt lat="46.47905" lon="-1.76036">
        <ele>9.5</ele>
        <time>2020-06-03T11:37:51Z</time>
      </trkpt>
      <trkpt lat="46.47909" lon="-1.76038">
        <ele>9.5</ele>
        <time>2020-06-03T11:37:52Z</time>
      </trkpt>
      <trkpt lat="46.47913" lon="-1.76038">
        <ele>9.5</ele>
        <time>2020-06-03T11:37:53Z</time>
      </trkpt>
      <trkpt lat="46.47916" lon="-1.76039">
        <ele>9.5</ele>
        <time>2020-06-03T11:37:54Z</time>
      </trkpt>
      <trkpt lat="46.4792" lon="-1.76041">
        <ele>9.4</ele>
        <time>2020-06-03T11:37:55Z</time>
      </trkpt>
      <trkpt lat="46.47924" lon="-1.76042">
        <ele>9.3</ele>
        <time>2020-06-03T11:37:56Z</time>
      </trkpt>
      <trkpt lat="46.47927" lon="-1.76043">
        <ele>9.3</ele>
        <time>2020-06-03T11:37:57Z</time>
      </trkpt>
      <trkpt lat="46.47931" lon="-1.76043">
        <ele>9.2</ele>
        <time>2020-06-03T11:37:58Z</time>
      </trkpt>
      <trkpt lat="46.47934" lon="-1.76045">
        <ele>9.1</ele>
        <time>2020-06-03T11:37:59Z</time>
      </trkpt>
      <trkpt lat="46.47937" lon="-1.76045">
        <ele>9.1</ele>
        <time>2020-06-03T11:38:00Z</time>
      </trkpt>
      <trkpt lat="46.4794" lon="-1.76046">
        <ele>9</ele>
        <time>2020-06-03T11:38:01Z</time>
      </trkpt>
      <trkpt lat="46.47944" lon="-1.76046">
        <ele>9</ele>
        <time>2020-06-03T11:38:02Z</time>
      </trkpt>
      <trkpt lat="46.47947" lon="-1.76047">
        <ele>8.9</ele>
        <time>2020-06-03T11:38:03Z</time>
      </trkpt>
      <trkpt lat="46.4795" lon="-1.76046">
        <ele>8.9</ele>
        <time>2020-06-03T11:38:04Z</time>
      </trkpt>
      <trkpt lat="46.47953" lon="-1.76047">
        <ele>8.8</ele>
        <time>2020-06-03T11:38:05Z</time>
      </trkpt>
      <trkpt lat="46.47957" lon="-1.76048">
        <ele>8.8</ele>
        <time>2020-06-03T11:38:06Z</time>
      </trkpt>
      <trkpt lat="46.4796" lon="-1.76049">
        <ele>8.7</ele>
        <time>2020-06-03T11:38:07Z</time>
      </trkpt>
      <trkpt lat="46.47963" lon="-1.7605">
        <ele>8.7</ele>
        <time>2020-06-03T11:38:08Z</time>
      </trkpt>
      <trkpt lat="46.47966" lon="-1.76051">
        <ele>8.6</ele>
        <time>2020-06-03T11:38:09Z</time>
      </trkpt>
      <trkpt lat="46.47969" lon="-1.76052">
        <ele>8.6</ele>
        <time>2020-06-03T11:38:10Z</time>
      </trkpt>
      <trkpt lat="46.47973" lon="-1.76053">
        <ele>8.5</ele>
        <time>2020-06-03T11:38:11Z</time>
      </trkpt>
      <trkpt lat="46.47976" lon="-1.76054">
        <ele>8.4</ele>
        <time>2020-06-03T11:38:12Z</time>
      </trkpt>
      <trkpt lat="46.47979" lon="-1.76055">
        <ele>8.4</ele>
        <time>2020-06-03T11:38:13Z</time>
      </trkpt>
      <trkpt lat="46.47982" lon="-1.76056">
        <ele>8.3</ele>
        <time>2020-06-03T11:38:14Z</time>
      </trkpt>
      <trkpt lat="46.47985" lon="-1.76055">
        <ele>8.3</ele>
        <time>2020-06-03T11:38:15Z</time>
      </trkpt>
      <trkpt lat="46.47988" lon="-1.76055">
        <ele>8.2</ele>
        <time>2020-06-03T11:38:16Z</time>
      </trkpt>
      <trkpt lat="46.47991" lon="-1.76058">
        <ele>8.2</ele>
        <time>2020-06-03T11:38:17Z</time>
      </trkpt>
      <trkpt lat="46.47994" lon="-1.7606">
        <ele>8.1</ele>
        <time>2020-06-03T11:38:18Z</time>
      </trkpt>
      <trkpt lat="46.47997" lon="-1.76061">
        <ele>8.1</ele>
        <time>2020-06-03T11:38:19Z</time>
      </trkpt>
      <trkpt lat="46.48" lon="-1.76063">
        <ele>8</ele>
        <time>2020-06-03T11:38:20Z</time>
      </trkpt>
      <trkpt lat="46.48003" lon="-1.76063">
        <ele>8</ele>
        <time>2020-06-03T11:38:21Z</time>
      </trkpt>
      <trkpt lat="46.48006" lon="-1.76064">
        <ele>7.9</ele>
        <time>2020-06-03T11:38:22Z</time>
      </trkpt>
      <trkpt lat="46.48009" lon="-1.76065">
        <ele>7.9</ele>
        <time>2020-06-03T11:38:23Z</time>
      </trkpt>
      <trkpt lat="46.48012" lon="-1.76067">
        <ele>7.9</ele>
        <time>2020-06-03T11:38:24Z</time>
      </trkpt>
      <trkpt lat="46.48015" lon="-1.76068">
        <ele>7.8</ele>
        <time>2020-06-03T11:38:25Z</time>
      </trkpt>
      <trkpt lat="46.48018" lon="-1.76069">
        <ele>7.7</ele>
        <time>2020-06-03T11:38:26Z</time>
      </trkpt>
      <trkpt lat="46.48021" lon="-1.7607">
        <ele>7.7</ele>
        <time>2020-06-03T11:38:27Z</time>
      </trkpt>
      <trkpt lat="46.48024" lon="-1.76071">
        <ele>7.6</ele>
        <time>2020-06-03T11:38:28Z</time>
      </trkpt>
      <trkpt lat="46.48027" lon="-1.76071">
        <ele>7.6</ele>
        <time>2020-06-03T11:38:29Z</time>
      </trkpt>
      <trkpt lat="46.4803" lon="-1.76071">
        <ele>7.6</ele>
        <time>2020-06-03T11:38:30Z</time>
      </trkpt>
      <trkpt lat="46.48033" lon="-1.76073">
        <ele>7.5</ele>
        <time>2020-06-03T11:38:31Z</time>
      </trkpt>
      <trkpt lat="46.48036" lon="-1.76074">
        <ele>7.5</ele>
        <time>2020-06-03T11:38:32Z</time>
      </trkpt>
      <trkpt lat="46.48038" lon="-1.76075">
        <ele>7.5</ele>
        <time>2020-06-03T11:38:33Z</time>
      </trkpt>
      <trkpt lat="46.48042" lon="-1.76077">
        <ele>7.4</ele>
        <time>2020-06-03T11:38:34Z</time>
      </trkpt>
      <trkpt lat="46.48043" lon="-1.76078">
        <ele>7.4</ele>
        <time>2020-06-03T11:38:35Z</time>
      </trkpt>
      <trkpt lat="46.48046" lon="-1.76079">
        <ele>7.4</ele>
        <time>2020-06-03T11:38:36Z</time>
      </trkpt>
      <trkpt lat="46.48049" lon="-1.7608">
        <ele>7.3</ele>
        <time>2020-06-03T11:38:37Z</time>
      </trkpt>
      <trkpt lat="46.48052" lon="-1.76079">
        <ele>7.3</ele>
        <time>2020-06-03T11:38:38Z</time>
      </trkpt>
      <trkpt lat="46.48054" lon="-1.7608">
        <ele>7.2</ele>
        <time>2020-06-03T11:38:39Z</time>
      </trkpt>
      <trkpt lat="46.48057" lon="-1.76081">
        <ele>7.2</ele>
        <time>2020-06-03T11:38:40Z</time>
      </trkpt>
      <trkpt lat="46.4806" lon="-1.76083">
        <ele>7.1</ele>
        <time>2020-06-03T11:38:41Z</time>
      </trkpt>
      <trkpt lat="46.48063" lon="-1.76084">
        <ele>7.1</ele>
        <time>2020-06-03T11:38:42Z</time>
      </trkpt>
      <trkpt lat="46.48067" lon="-1.76085">
        <ele>7.1</ele>
        <time>2020-06-03T11:38:43Z</time>
      </trkpt>
      <trkpt lat="46.48071" lon="-1.76085">
        <ele>7.1</ele>
        <time>2020-06-03T11:38:44Z</time>
      </trkpt>
      <trkpt lat="46.48075" lon="-1.76086">
        <ele>7.1</ele>
        <time>2020-06-03T11:38:45Z</time>
      </trkpt>
      <trkpt lat="46.48078" lon="-1.76088">
        <ele>7.1</ele>
        <time>2020-06-03T11:38:46Z</time>
      </trkpt>
      <trkpt lat="46.48082" lon="-1.76089">
        <ele>7</ele>
        <time>2020-06-03T11:38:47Z</time>
      </trkpt>
      <trkpt lat="46.48084" lon="-1.76091">
        <ele>7</ele>
        <time>2020-06-03T11:38:48Z</time>
      </trkpt>
      <trkpt lat="46.48087" lon="-1.76094">
        <ele>7</ele>
        <time>2020-06-03T11:38:49Z</time>
      </trkpt>
      <trkpt lat="46.4809" lon="-1.76097">
        <ele>7</ele>
        <time>2020-06-03T11:38:50Z</time>
      </trkpt>
      <trkpt lat="46.48093" lon="-1.761">
        <ele>7</ele>
        <time>2020-06-03T11:38:51Z</time>
      </trkpt>
      <trkpt lat="46.48096" lon="-1.76103">
        <ele>7</ele>
        <time>2020-06-03T11:38:52Z</time>
      </trkpt>
      <trkpt lat="46.48099" lon="-1.76106">
        <ele>7</ele>
        <time>2020-06-03T11:38:53Z</time>
      </trkpt>
      <trkpt lat="46.48102" lon="-1.76109">
        <ele>7</ele>
        <time>2020-06-03T11:38:54Z</time>
      </trkpt>
      <trkpt lat="46.48105" lon="-1.76113">
        <ele>7</ele>
        <time>2020-06-03T11:38:55Z</time>
      </trkpt>
      <trkpt lat="46.48109" lon="-1.76116">
        <ele>7</ele>
        <time>2020-06-03T11:38:56Z</time>
      </trkpt>
      <trkpt lat="46.48112" lon="-1.76119">
        <ele>7</ele>
        <time>2020-06-03T11:38:57Z</time>
      </trkpt>
      <trkpt lat="46.48115" lon="-1.76125">
        <ele>7</ele>
        <time>2020-06-03T11:38:58Z</time>
      </trkpt>
      <trkpt lat="46.48118" lon="-1.7613">
        <ele>7</ele>
        <time>2020-06-03T11:38:59Z</time>
      </trkpt>
      <trkpt lat="46.48122" lon="-1.76134">
        <ele>7</ele>
        <time>2020-06-03T11:39:00Z</time>
      </trkpt>
      <trkpt lat="46.48126" lon="-1.76138">
        <ele>7</ele>
        <time>2020-06-03T11:39:01Z</time>
      </trkpt>
      <trkpt lat="46.48129" lon="-1.76142">
        <ele>7</ele>
        <time>2020-06-03T11:39:02Z</time>
      </trkpt>
      <trkpt lat="46.48133" lon="-1.76145">
        <ele>7</ele>
        <time>2020-06-03T11:39:03Z</time>
      </trkpt>
      <trkpt lat="46.48138" lon="-1.76149">
        <ele>7</ele>
        <time>2020-06-03T11:39:04Z</time>
      </trkpt>
      <trkpt lat="46.48141" lon="-1.76153">
        <ele>7</ele>
        <time>2020-06-03T11:39:05Z</time>
      </trkpt>
      <trkpt lat="46.48144" lon="-1.76158">
        <ele>7</ele>
        <time>2020-06-03T11:39:06Z</time>
      </trkpt>
      <trkpt lat="46.48148" lon="-1.76162">
        <ele>7.1</ele>
        <time>2020-06-03T11:39:07Z</time>
      </trkpt>
      <trkpt lat="46.48152" lon="-1.76167">
        <ele>7.1</ele>
        <time>2020-06-03T11:39:08Z</time>
      </trkpt>
      <trkpt lat="46.48157" lon="-1.76172">
        <ele>7.1</ele>
        <time>2020-06-03T11:39:09Z</time>
      </trkpt>
      <trkpt lat="46.48161" lon="-1.76177">
        <ele>7.1</ele>
        <time>2020-06-03T11:39:10Z</time>
      </trkpt>
      <trkpt lat="46.48166" lon="-1.76181">
        <ele>7.1</ele>
        <time>2020-06-03T11:39:11Z</time>
      </trkpt>
      <trkpt lat="46.4817" lon="-1.76187">
        <ele>7.1</ele>
        <time>2020-06-03T11:39:12Z</time>
      </trkpt>
      <trkpt lat="46.48174" lon="-1.76192">
        <ele>7.1</ele>
        <time>2020-06-03T11:39:13Z</time>
      </trkpt>
      <trkpt lat="46.48179" lon="-1.76197">
        <ele>7.1</ele>
        <time>2020-06-03T11:39:14Z</time>
      </trkpt>
      <trkpt lat="46.48182" lon="-1.76202">
        <ele>7.2</ele>
        <time>2020-06-03T11:39:15Z</time>
      </trkpt>
      <trkpt lat="46.48186" lon="-1.76206">
        <ele>7.2</ele>
        <time>2020-06-03T11:39:16Z</time>
      </trkpt>
      <trkpt lat="46.48189" lon="-1.76211">
        <ele>7.2</ele>
        <time>2020-06-03T11:39:17Z</time>
      </trkpt>
      <trkpt lat="46.48193" lon="-1.76216">
        <ele>7.2</ele>
        <time>2020-06-03T11:39:18Z</time>
      </trkpt>
      <trkpt lat="46.48197" lon="-1.76221">
        <ele>7.2</ele>
        <time>2020-06-03T11:39:19Z</time>
      </trkpt>
      <trkpt lat="46.48201" lon="-1.76226">
        <ele>7.2</ele>
        <time>2020-06-03T11:39:20Z</time>
      </trkpt>
      <trkpt lat="46.48205" lon="-1.76232">
        <ele>7.2</ele>
        <time>2020-06-03T11:39:21Z</time>
      </trkpt>
      <trkpt lat="46.4821" lon="-1.76237">
        <ele>7.2</ele>
        <time>2020-06-03T11:39:22Z</time>
      </trkpt>
      <trkpt lat="46.48212" lon="-1.76241">
        <ele>7.3</ele>
        <time>2020-06-03T11:39:23Z</time>
      </trkpt>
      <trkpt lat="46.48215" lon="-1.76245">
        <ele>7.3</ele>
        <time>2020-06-03T11:39:24Z</time>
      </trkpt>
      <trkpt lat="46.4822" lon="-1.76251">
        <ele>7.3</ele>
        <time>2020-06-03T11:39:25Z</time>
      </trkpt>
      <trkpt lat="46.48224" lon="-1.76257">
        <ele>7.3</ele>
        <time>2020-06-03T11:39:26Z</time>
      </trkpt>
      <trkpt lat="46.48228" lon="-1.76261">
        <ele>7.3</ele>
        <time>2020-06-03T11:39:27Z</time>
      </trkpt>
      <trkpt lat="46.48233" lon="-1.76266">
        <ele>7.3</ele>
        <time>2020-06-03T11:39:28Z</time>
      </trkpt>
      <trkpt lat="46.48237" lon="-1.76271">
        <ele>7.4</ele>
        <time>2020-06-03T11:39:29Z</time>
      </trkpt>
      <trkpt lat="46.48241" lon="-1.76275">
        <ele>7.4</ele>
        <time>2020-06-03T11:39:30Z</time>
      </trkpt>
      <trkpt lat="46.48244" lon="-1.76279">
        <ele>7.4</ele>
        <time>2020-06-03T11:39:31Z</time>
      </trkpt>
      <trkpt lat="46.48249" lon="-1.76285">
        <ele>7.4</ele>
        <time>2020-06-03T11:39:32Z</time>
      </trkpt>
      <trkpt lat="46.48254" lon="-1.7629">
        <ele>7.4</ele>
        <time>2020-06-03T11:39:33Z</time>
      </trkpt>
      <trkpt lat="46.48258" lon="-1.76295">
        <ele>7.4</ele>
        <time>2020-06-03T11:39:34Z</time>
      </trkpt>
      <trkpt lat="46.48263" lon="-1.763">
        <ele>7.4</ele>
        <time>2020-06-03T11:39:35Z</time>
      </trkpt>
      <trkpt lat="46.48268" lon="-1.76304">
        <ele>7.5</ele>
        <time>2020-06-03T11:39:36Z</time>
      </trkpt>
      <trkpt lat="46.48272" lon="-1.76309">
        <ele>7.5</ele>
        <time>2020-06-03T11:39:37Z</time>
      </trkpt>
      <trkpt lat="46.48277" lon="-1.76315">
        <ele>7.5</ele>
        <time>2020-06-03T11:39:38Z</time>
      </trkpt>
      <trkpt lat="46.48281" lon="-1.7632">
        <ele>7.5</ele>
        <time>2020-06-03T11:39:39Z</time>
      </trkpt>
      <trkpt lat="46.48286" lon="-1.76326">
        <ele>7.5</ele>
        <time>2020-06-03T11:39:40Z</time>
      </trkpt>
      <trkpt lat="46.48291" lon="-1.76332">
        <ele>7.5</ele>
        <time>2020-06-03T11:39:41Z</time>
      </trkpt>
      <trkpt lat="46.48296" lon="-1.76338">
        <ele>7.6</ele>
        <time>2020-06-03T11:39:42Z</time>
      </trkpt>
      <trkpt lat="46.48301" lon="-1.76344">
        <ele>7.6</ele>
        <time>2020-06-03T11:39:43Z</time>
      </trkpt>
      <trkpt lat="46.48304" lon="-1.76349">
        <ele>7.6</ele>
        <time>2020-06-03T11:39:44Z</time>
      </trkpt>
      <trkpt lat="46.48308" lon="-1.76353">
        <ele>7.6</ele>
        <time>2020-06-03T11:39:45Z</time>
      </trkpt>
      <trkpt lat="46.48312" lon="-1.76358">
        <ele>7.6</ele>
        <time>2020-06-03T11:39:46Z</time>
      </trkpt>
      <trkpt lat="46.48315" lon="-1.76362">
        <ele>7.6</ele>
        <time>2020-06-03T11:39:47Z</time>
      </trkpt>
      <trkpt lat="46.48318" lon="-1.76367">
        <ele>7.6</ele>
        <time>2020-06-03T11:39:48Z</time>
      </trkpt>
      <trkpt lat="46.48323" lon="-1.76372">
        <ele>7.6</ele>
        <time>2020-06-03T11:39:49Z</time>
      </trkpt>
      <trkpt lat="46.48327" lon="-1.76377">
        <ele>7.7</ele>
        <time>2020-06-03T11:39:50Z</time>
      </trkpt>
      <trkpt lat="46.48332" lon="-1.76381">
        <ele>7.7</ele>
        <time>2020-06-03T11:39:51Z</time>
      </trkpt>
      <trkpt lat="46.48336" lon="-1.76385">
        <ele>7.7</ele>
        <time>2020-06-03T11:39:52Z</time>
      </trkpt>
      <trkpt lat="46.4834" lon="-1.7639">
        <ele>7.7</ele>
        <time>2020-06-03T11:39:53Z</time>
      </trkpt>
      <trkpt lat="46.48344" lon="-1.76395">
        <ele>7.7</ele>
        <time>2020-06-03T11:39:54Z</time>
      </trkpt>
      <trkpt lat="46.48349" lon="-1.76399">
        <ele>7.7</ele>
        <time>2020-06-03T11:39:55Z</time>
      </trkpt>
      <trkpt lat="46.48353" lon="-1.76405">
        <ele>7.8</ele>
        <time>2020-06-03T11:39:56Z</time>
      </trkpt>
      <trkpt lat="46.48357" lon="-1.7641">
        <ele>7.8</ele>
        <time>2020-06-03T11:39:57Z</time>
      </trkpt>
      <trkpt lat="46.4836" lon="-1.76415">
        <ele>7.8</ele>
        <time>2020-06-03T11:39:58Z</time>
      </trkpt>
      <trkpt lat="46.48364" lon="-1.7642">
        <ele>7.8</ele>
        <time>2020-06-03T11:39:59Z</time>
      </trkpt>
      <trkpt lat="46.48368" lon="-1.76425">
        <ele>7.8</ele>
        <time>2020-06-03T11:40:00Z</time>
      </trkpt>
      <trkpt lat="46.48372" lon="-1.7643">
        <ele>7.9</ele>
        <time>2020-06-03T11:40:01Z</time>
      </trkpt>
      <trkpt lat="46.48377" lon="-1.76435">
        <ele>7.9</ele>
        <time>2020-06-03T11:40:02Z</time>
      </trkpt>
      <trkpt lat="46.48383" lon="-1.76441">
        <ele>7.9</ele>
        <time>2020-06-03T11:40:03Z</time>
      </trkpt>
      <trkpt lat="46.48388" lon="-1.76447">
        <ele>7.9</ele>
        <time>2020-06-03T11:40:04Z</time>
      </trkpt>
      <trkpt lat="46.48392" lon="-1.76452">
        <ele>7.9</ele>
        <time>2020-06-03T11:40:05Z</time>
      </trkpt>
      <trkpt lat="46.48397" lon="-1.76458">
        <ele>8</ele>
        <time>2020-06-03T11:40:06Z</time>
      </trkpt>
      <trkpt lat="46.48402" lon="-1.76463">
        <ele>8</ele>
        <time>2020-06-03T11:40:07Z</time>
      </trkpt>
      <trkpt lat="46.48406" lon="-1.76469">
        <ele>8</ele>
        <time>2020-06-03T11:40:08Z</time>
      </trkpt>
      <trkpt lat="46.48411" lon="-1.76474">
        <ele>8</ele>
        <time>2020-06-03T11:40:09Z</time>
      </trkpt>
      <trkpt lat="46.48414" lon="-1.76479">
        <ele>8</ele>
        <time>2020-06-03T11:40:10Z</time>
      </trkpt>
      <trkpt lat="46.48418" lon="-1.76485">
        <ele>8</ele>
        <time>2020-06-03T11:40:11Z</time>
      </trkpt>
      <trkpt lat="46.48422" lon="-1.7649">
        <ele>8</ele>
        <time>2020-06-03T11:40:12Z</time>
      </trkpt>
      <trkpt lat="46.48426" lon="-1.76495">
        <ele>8</ele>
        <time>2020-06-03T11:40:13Z</time>
      </trkpt>
      <trkpt lat="46.4843" lon="-1.765">
        <ele>8</ele>
        <time>2020-06-03T11:40:14Z</time>
      </trkpt>
      <trkpt lat="46.48434" lon="-1.76504">
        <ele>8</ele>
        <time>2020-06-03T11:40:15Z</time>
      </trkpt>
      <trkpt lat="46.48438" lon="-1.76509">
        <ele>8</ele>
        <time>2020-06-03T11:40:16Z</time>
      </trkpt>
      <trkpt lat="46.48442" lon="-1.76513">
        <ele>8</ele>
        <time>2020-06-03T11:40:17Z</time>
      </trkpt>
      <trkpt lat="46.48446" lon="-1.76518">
        <ele>8</ele>
        <time>2020-06-03T11:40:18Z</time>
      </trkpt>
      <trkpt lat="46.4845" lon="-1.76522">
        <ele>8</ele>
        <time>2020-06-03T11:40:19Z</time>
      </trkpt>
      <trkpt lat="46.48454" lon="-1.76525">
        <ele>8</ele>
        <time>2020-06-03T11:40:20Z</time>
      </trkpt>
      <trkpt lat="46.48458" lon="-1.76528">
        <ele>8.1</ele>
        <time>2020-06-03T11:40:21Z</time>
      </trkpt>
      <trkpt lat="46.48463" lon="-1.76529">
        <ele>8.1</ele>
        <time>2020-06-03T11:40:22Z</time>
      </trkpt>
      <trkpt lat="46.48468" lon="-1.76529">
        <ele>8.1</ele>
        <time>2020-06-03T11:40:23Z</time>
      </trkpt>
      <trkpt lat="46.48474" lon="-1.76531">
        <ele>8.1</ele>
        <time>2020-06-03T11:40:24Z</time>
      </trkpt>
      <trkpt lat="46.48477" lon="-1.76533">
        <ele>8.1</ele>
        <time>2020-06-03T11:40:25Z</time>
      </trkpt>
      <trkpt lat="46.4848" lon="-1.76535">
        <ele>8.1</ele>
        <time>2020-06-03T11:40:26Z</time>
      </trkpt>
      <trkpt lat="46.48484" lon="-1.76538">
        <ele>8.1</ele>
        <time>2020-06-03T11:40:27Z</time>
      </trkpt>
      <trkpt lat="46.48488" lon="-1.76544">
        <ele>8.1</ele>
        <time>2020-06-03T11:40:28Z</time>
      </trkpt>
      <trkpt lat="46.4849" lon="-1.7655">
        <ele>8.1</ele>
        <time>2020-06-03T11:40:29Z</time>
      </trkpt>
      <trkpt lat="46.48494" lon="-1.76557">
        <ele>8.1</ele>
        <time>2020-06-03T11:40:30Z</time>
      </trkpt>
      <trkpt lat="46.48497" lon="-1.76563">
        <ele>8.1</ele>
        <time>2020-06-03T11:40:31Z</time>
      </trkpt>
      <trkpt lat="46.48501" lon="-1.76568">
        <ele>8.1</ele>
        <time>2020-06-03T11:40:32Z</time>
      </trkpt>
      <trkpt lat="46.48507" lon="-1.76572">
        <ele>8.1</ele>
        <time>2020-06-03T11:40:33Z</time>
      </trkpt>
      <trkpt lat="46.48512" lon="-1.76576">
        <ele>8.1</ele>
        <time>2020-06-03T11:40:34Z</time>
      </trkpt>
      <trkpt lat="46.48516" lon="-1.76581">
        <ele>8.1</ele>
        <time>2020-06-03T11:40:35Z</time>
      </trkpt>
      <trkpt lat="46.48521" lon="-1.76585">
        <ele>8.1</ele>
        <time>2020-06-03T11:40:36Z</time>
      </trkpt>
      <trkpt lat="46.48525" lon="-1.7659">
        <ele>8</ele>
        <time>2020-06-03T11:40:37Z</time>
      </trkpt>
      <trkpt lat="46.4853" lon="-1.76594">
        <ele>8</ele>
        <time>2020-06-03T11:40:38Z</time>
      </trkpt>
      <trkpt lat="46.48534" lon="-1.76599">
        <ele>8</ele>
        <time>2020-06-03T11:40:39Z</time>
      </trkpt>
      <trkpt lat="46.48537" lon="-1.76602">
        <ele>8</ele>
        <time>2020-06-03T11:40:40Z</time>
      </trkpt>
      <trkpt lat="46.48541" lon="-1.76606">
        <ele>7.9</ele>
        <time>2020-06-03T11:40:41Z</time>
      </trkpt>
      <trkpt lat="46.48545" lon="-1.76611">
        <ele>7.9</ele>
        <time>2020-06-03T11:40:42Z</time>
      </trkpt>
      <trkpt lat="46.4855" lon="-1.76614">
        <ele>7.9</ele>
        <time>2020-06-03T11:40:43Z</time>
      </trkpt>
      <trkpt lat="46.48556" lon="-1.76619">
        <ele>7.9</ele>
        <time>2020-06-03T11:40:44Z</time>
      </trkpt>
      <trkpt lat="46.48559" lon="-1.76623">
        <ele>7.9</ele>
        <time>2020-06-03T11:40:45Z</time>
      </trkpt>
      <trkpt lat="46.48562" lon="-1.76628">
        <ele>7.9</ele>
        <time>2020-06-03T11:40:46Z</time>
      </trkpt>
      <trkpt lat="46.48566" lon="-1.76632">
        <ele>7.9</ele>
        <time>2020-06-03T11:40:47Z</time>
      </trkpt>
      <trkpt lat="46.48569" lon="-1.76635">
        <ele>7.9</ele>
        <time>2020-06-03T11:40:48Z</time>
      </trkpt>
      <trkpt lat="46.48573" lon="-1.7664">
        <ele>7.9</ele>
        <time>2020-06-03T11:40:49Z</time>
      </trkpt>
      <trkpt lat="46.48578" lon="-1.76646">
        <ele>7.9</ele>
        <time>2020-06-03T11:40:50Z</time>
      </trkpt>
      <trkpt lat="46.48582" lon="-1.76651">
        <ele>8</ele>
        <time>2020-06-03T11:40:51Z</time>
      </trkpt>
      <trkpt lat="46.48587" lon="-1.76655">
        <ele>8</ele>
        <time>2020-06-03T11:40:52Z</time>
      </trkpt>
      <trkpt lat="46.48592" lon="-1.7666">
        <ele>8</ele>
        <time>2020-06-03T11:40:53Z</time>
      </trkpt>
      <trkpt lat="46.48597" lon="-1.76665">
        <ele>8.1</ele>
        <time>2020-06-03T11:40:54Z</time>
      </trkpt>
      <trkpt lat="46.48601" lon="-1.7667">
        <ele>8.1</ele>
        <time>2020-06-03T11:40:55Z</time>
      </trkpt>
      <trkpt lat="46.48607" lon="-1.76674">
        <ele>8.1</ele>
        <time>2020-06-03T11:40:56Z</time>
      </trkpt>
      <trkpt lat="46.48612" lon="-1.76679">
        <ele>8.1</ele>
        <time>2020-06-03T11:40:57Z</time>
      </trkpt>
      <trkpt lat="46.48617" lon="-1.76686">
        <ele>8.1</ele>
        <time>2020-06-03T11:40:58Z</time>
      </trkpt>
      <trkpt lat="46.48622" lon="-1.76691">
        <ele>8.2</ele>
        <time>2020-06-03T11:40:59Z</time>
      </trkpt>
      <trkpt lat="46.48627" lon="-1.76696">
        <ele>8.3</ele>
        <time>2020-06-03T11:41:00Z</time>
      </trkpt>
      <trkpt lat="46.48632" lon="-1.767">
        <ele>8.3</ele>
        <time>2020-06-03T11:41:01Z</time>
      </trkpt>
      <trkpt lat="46.48637" lon="-1.76706">
        <ele>8.4</ele>
        <time>2020-06-03T11:41:02Z</time>
      </trkpt>
      <trkpt lat="46.48642" lon="-1.7671">
        <ele>8.5</ele>
        <time>2020-06-03T11:41:03Z</time>
      </trkpt>
      <trkpt lat="46.48646" lon="-1.76715">
        <ele>8.5</ele>
        <time>2020-06-03T11:41:04Z</time>
      </trkpt>
      <trkpt lat="46.48651" lon="-1.76721">
        <ele>8.6</ele>
        <time>2020-06-03T11:41:05Z</time>
      </trkpt>
      <trkpt lat="46.48655" lon="-1.76727">
        <ele>8.7</ele>
        <time>2020-06-03T11:41:06Z</time>
      </trkpt>
      <trkpt lat="46.48661" lon="-1.76733">
        <ele>8.8</ele>
        <time>2020-06-03T11:41:07Z</time>
      </trkpt>
      <trkpt lat="46.48665" lon="-1.76739">
        <ele>8.9</ele>
        <time>2020-06-03T11:41:08Z</time>
      </trkpt>
      <trkpt lat="46.48669" lon="-1.76746">
        <ele>9</ele>
        <time>2020-06-03T11:41:09Z</time>
      </trkpt>
      <trkpt lat="46.48675" lon="-1.7675">
        <ele>9.1</ele>
        <time>2020-06-03T11:41:10Z</time>
      </trkpt>
      <trkpt lat="46.48682" lon="-1.76754">
        <ele>9.1</ele>
        <time>2020-06-03T11:41:11Z</time>
      </trkpt>
      <trkpt lat="46.48687" lon="-1.76758">
        <ele>9.2</ele>
        <time>2020-06-03T11:41:12Z</time>
      </trkpt>
      <trkpt lat="46.48692" lon="-1.7676">
        <ele>9.2</ele>
        <time>2020-06-03T11:41:13Z</time>
      </trkpt>
      <trkpt lat="46.48698" lon="-1.76765">
        <ele>9.2</ele>
        <time>2020-06-03T11:41:14Z</time>
      </trkpt>
      <trkpt lat="46.48702" lon="-1.76771">
        <ele>9.2</ele>
        <time>2020-06-03T11:41:15Z</time>
      </trkpt>
      <trkpt lat="46.48707" lon="-1.76777">
        <ele>9.2</ele>
        <time>2020-06-03T11:41:16Z</time>
      </trkpt>
      <trkpt lat="46.48711" lon="-1.76782">
        <ele>9.2</ele>
        <time>2020-06-03T11:41:17Z</time>
      </trkpt>
      <trkpt lat="46.48715" lon="-1.76787">
        <ele>9.2</ele>
        <time>2020-06-03T11:41:18Z</time>
      </trkpt>
      <trkpt lat="46.4872" lon="-1.7679">
        <ele>9.2</ele>
        <time>2020-06-03T11:41:19Z</time>
      </trkpt>
      <trkpt lat="46.48725" lon="-1.76795">
        <ele>9.2</ele>
        <time>2020-06-03T11:41:20Z</time>
      </trkpt>
      <trkpt lat="46.4873" lon="-1.76799">
        <ele>9.2</ele>
        <time>2020-06-03T11:41:21Z</time>
      </trkpt>
      <trkpt lat="46.48735" lon="-1.76802">
        <ele>9.2</ele>
        <time>2020-06-03T11:41:22Z</time>
      </trkpt>
      <trkpt lat="46.48741" lon="-1.76806">
        <ele>9.2</ele>
        <time>2020-06-03T11:41:23Z</time>
      </trkpt>
      <trkpt lat="46.48746" lon="-1.76811">
        <ele>9.1</ele>
        <time>2020-06-03T11:41:24Z</time>
      </trkpt>
      <trkpt lat="46.48751" lon="-1.76817">
        <ele>9</ele>
        <time>2020-06-03T11:41:25Z</time>
      </trkpt>
      <trkpt lat="46.48756" lon="-1.76823">
        <ele>9</ele>
        <time>2020-06-03T11:41:26Z</time>
      </trkpt>
      <trkpt lat="46.48761" lon="-1.76828">
        <ele>9</ele>
        <time>2020-06-03T11:41:27Z</time>
      </trkpt>
      <trkpt lat="46.48766" lon="-1.76832">
        <ele>9</ele>
        <time>2020-06-03T11:41:28Z</time>
      </trkpt>
      <trkpt lat="46.4877" lon="-1.76838">
        <ele>9</ele>
        <time>2020-06-03T11:41:29Z</time>
      </trkpt>
      <trkpt lat="46.48776" lon="-1.76843">
        <ele>8.9</ele>
        <time>2020-06-03T11:41:30Z</time>
      </trkpt>
      <trkpt lat="46.4878" lon="-1.76852">
        <ele>8.8</ele>
        <time>2020-06-03T11:41:31Z</time>
      </trkpt>
      <trkpt lat="46.48785" lon="-1.76858">
        <ele>8.8</ele>
        <time>2020-06-03T11:41:32Z</time>
      </trkpt>
      <trkpt lat="46.4879" lon="-1.76862">
        <ele>8.7</ele>
        <time>2020-06-03T11:41:33Z</time>
      </trkpt>
      <trkpt lat="46.48795" lon="-1.76869">
        <ele>8.6</ele>
        <time>2020-06-03T11:41:34Z</time>
      </trkpt>
      <trkpt lat="46.48801" lon="-1.76875">
        <ele>8.6</ele>
        <time>2020-06-03T11:41:35Z</time>
      </trkpt>
      <trkpt lat="46.48807" lon="-1.76881">
        <ele>8.6</ele>
        <time>2020-06-03T11:41:36Z</time>
      </trkpt>
      <trkpt lat="46.48814" lon="-1.76883">
        <ele>8.5</ele>
        <time>2020-06-03T11:41:37Z</time>
      </trkpt>
      <trkpt lat="46.48817" lon="-1.76889">
        <ele>8.5</ele>
        <time>2020-06-03T11:41:38Z</time>
      </trkpt>
      <trkpt lat="46.48823" lon="-1.76894">
        <ele>8.4</ele>
        <time>2020-06-03T11:41:39Z</time>
      </trkpt>
      <trkpt lat="46.48829" lon="-1.76898">
        <ele>8.3</ele>
        <time>2020-06-03T11:41:40Z</time>
      </trkpt>
      <trkpt lat="46.48834" lon="-1.76903">
        <ele>8.2</ele>
        <time>2020-06-03T11:41:41Z</time>
      </trkpt>
      <trkpt lat="46.48839" lon="-1.76907">
        <ele>8.1</ele>
        <time>2020-06-03T11:41:42Z</time>
      </trkpt>
      <trkpt lat="46.48843" lon="-1.76913">
        <ele>8.1</ele>
        <time>2020-06-03T11:41:43Z</time>
      </trkpt>
      <trkpt lat="46.48848" lon="-1.76918">
        <ele>8</ele>
        <time>2020-06-03T11:41:44Z</time>
      </trkpt>
      <trkpt lat="46.48853" lon="-1.76923">
        <ele>7.9</ele>
        <time>2020-06-03T11:41:45Z</time>
      </trkpt>
      <trkpt lat="46.48859" lon="-1.76927">
        <ele>7.8</ele>
        <time>2020-06-03T11:41:46Z</time>
      </trkpt>
      <trkpt lat="46.48864" lon="-1.76932">
        <ele>8</ele>
        <time>2020-06-03T11:41:47Z</time>
      </trkpt>
      <trkpt lat="46.48869" lon="-1.76937">
        <ele>8.1</ele>
        <time>2020-06-03T11:41:48Z</time>
      </trkpt>
      <trkpt lat="46.48873" lon="-1.76942">
        <ele>8.1</ele>
        <time>2020-06-03T11:41:49Z</time>
      </trkpt>
      <trkpt lat="46.48878" lon="-1.76945">
        <ele>8.1</ele>
        <time>2020-06-03T11:41:50Z</time>
      </trkpt>
      <trkpt lat="46.48882" lon="-1.76946">
        <ele>8.2</ele>
        <time>2020-06-03T11:41:51Z</time>
      </trkpt>
      <trkpt lat="46.48885" lon="-1.76941">
        <ele>8.3</ele>
        <time>2020-06-03T11:41:52Z</time>
      </trkpt>
      <trkpt lat="46.48891" lon="-1.76928">
        <ele>8.4</ele>
        <time>2020-06-03T11:41:53Z</time>
      </trkpt>
      <trkpt lat="46.48897" lon="-1.7692">
        <ele>8.5</ele>
        <time>2020-06-03T11:41:54Z</time>
      </trkpt>
      <trkpt lat="46.489" lon="-1.76918">
        <ele>8.5</ele>
        <time>2020-06-03T11:41:55Z</time>
      </trkpt>
      <trkpt lat="46.48903" lon="-1.76916">
        <ele>8.8</ele>
        <time>2020-06-03T11:41:56Z</time>
      </trkpt>
      <trkpt lat="46.48904" lon="-1.76914">
        <ele>8.8</ele>
        <time>2020-06-03T11:41:57Z</time>
      </trkpt>
      <trkpt lat="46.48906" lon="-1.76911">
        <ele>8.9</ele>
        <time>2020-06-03T11:41:58Z</time>
      </trkpt>
      <trkpt lat="46.48908" lon="-1.76909">
        <ele>8.9</ele>
        <time>2020-06-03T11:41:59Z</time>
      </trkpt>
      <trkpt lat="46.48909" lon="-1.76906">
        <ele>8.9</ele>
        <time>2020-06-03T11:42:00Z</time>
      </trkpt>
      <trkpt lat="46.48909" lon="-1.76904">
        <ele>8.9</ele>
        <time>2020-06-03T11:42:01Z</time>
      </trkpt>
      <trkpt lat="46.48909" lon="-1.76899">
        <ele>9.1</ele>
        <time>2020-06-03T11:42:02Z</time>
      </trkpt>
      <trkpt lat="46.48909" lon="-1.76897">
        <ele>9.1</ele>
        <time>2020-06-03T11:42:03Z</time>
      </trkpt>
      <trkpt lat="46.48909" lon="-1.76892">
        <ele>9.1</ele>
        <time>2020-06-03T11:42:04Z</time>
      </trkpt>
      <trkpt lat="46.48909" lon="-1.76885">
        <ele>9.2</ele>
        <time>2020-06-03T11:42:05Z</time>
      </trkpt>
      <trkpt lat="46.4891" lon="-1.76881">
        <ele>9.3</ele>
        <time>2020-06-03T11:42:06Z</time>
      </trkpt>
      <trkpt lat="46.4891" lon="-1.76876">
        <ele>9.4</ele>
        <time>2020-06-03T11:42:07Z</time>
      </trkpt>
      <trkpt lat="46.4891" lon="-1.76876">
        <ele>9.4</ele>
        <time>2020-06-03T11:42:08Z</time>
      </trkpt>
      <trkpt lat="46.48911" lon="-1.76871">
        <ele>9.4</ele>
        <time>2020-06-03T11:42:09Z</time>
      </trkpt>
      <trkpt lat="46.48911" lon="-1.7687">
        <ele>9.5</ele>
        <time>2020-06-03T11:42:10Z</time>
      </trkpt>
      <trkpt lat="46.48911" lon="-1.76868">
        <ele>9.5</ele>
        <time>2020-06-03T11:42:11Z</time>
      </trkpt>
      <trkpt lat="46.48912" lon="-1.76866">
        <ele>9.5</ele>
        <time>2020-06-03T11:42:12Z</time>
      </trkpt>
      <trkpt lat="46.48912" lon="-1.76863">
        <ele>9.6</ele>
        <time>2020-06-03T11:42:13Z</time>
      </trkpt>
      <trkpt lat="46.48913" lon="-1.76861">
        <ele>9.6</ele>
        <time>2020-06-03T11:42:14Z</time>
      </trkpt>
      <trkpt lat="46.48913" lon="-1.7686">
        <ele>9.6</ele>
        <time>2020-06-03T11:42:15Z</time>
      </trkpt>
      <trkpt lat="46.48913" lon="-1.76858">
        <ele>9.7</ele>
        <time>2020-06-03T11:42:16Z</time>
      </trkpt>
      <trkpt lat="46.48913" lon="-1.76857">
        <ele>9.7</ele>
        <time>2020-06-03T11:42:17Z</time>
      </trkpt>
      <trkpt lat="46.48913" lon="-1.76857">
        <ele>9.7</ele>
        <time>2020-06-03T11:42:18Z</time>
      </trkpt>
      <trkpt lat="46.48913" lon="-1.76857">
        <ele>9.7</ele>
        <time>2020-06-03T11:42:19Z</time>
      </trkpt>
      <trkpt lat="46.48913" lon="-1.76857">
        <ele>9.7</ele>
        <time>2020-06-03T11:42:20Z</time>
      </trkpt>
      <trkpt lat="46.48913" lon="-1.76857">
        <ele>9.7</ele>
        <time>2020-06-03T11:42:21Z</time>
      </trkpt>
      <trkpt lat="46.48913" lon="-1.76857">
        <ele>9.7</ele>
        <time>2020-06-03T11:42:22Z</time>
      </trkpt>
      <trkpt lat="46.48913" lon="-1.76857">
        <ele>9.7</ele>
        <time>2020-06-03T11:42:23Z</time>
      </trkpt>
      <trkpt lat="46.48914" lon="-1.76857">
        <ele>9.7</ele>
        <time>2020-06-03T11:42:24Z</time>
      </trkpt>
      <trkpt lat="46.48913" lon="-1.76858">
        <ele>9.7</ele>
        <time>2020-06-03T11:42:25Z</time>
      </trkpt>
      <trkpt lat="46.48913" lon="-1.76859">
        <ele>9.7</ele>
        <time>2020-06-03T11:42:26Z</time>
      </trkpt>
      <trkpt lat="46.48914" lon="-1.76858">
        <ele>9.7</ele>
        <time>2020-06-03T11:42:27Z</time>
      </trkpt>
      <trkpt lat="46.48914" lon="-1.76858">
        <ele>9.7</ele>
        <time>2020-06-03T11:42:28Z</time>
      </trkpt>
      <trkpt lat="46.48914" lon="-1.76857">
        <ele>9.7</ele>
        <time>2020-06-03T11:42:29Z</time>
      </trkpt>
      <trkpt lat="46.48914" lon="-1.76856">
        <ele>9.7</ele>
        <time>2020-06-03T11:42:30Z</time>
      </trkpt>
      <trkpt lat="46.48914" lon="-1.76856">
        <ele>9.7</ele>
        <time>2020-06-03T11:42:31Z</time>
      </trkpt>
      <trkpt lat="46.48914" lon="-1.76855">
        <ele>9.7</ele>
        <time>2020-06-03T11:42:32Z</time>
      </trkpt>
      <trkpt lat="46.48914" lon="-1.76855">
        <ele>9.7</ele>
        <time>2020-06-03T11:42:33Z</time>
      </trkpt>
      <trkpt lat="46.48914" lon="-1.76854">
        <ele>9.8</ele>
        <time>2020-06-03T11:42:34Z</time>
      </trkpt>
      <trkpt lat="46.48913" lon="-1.76853">
        <ele>9.8</ele>
        <time>2020-06-03T11:42:35Z</time>
      </trkpt>
      <trkpt lat="46.48913" lon="-1.76852">
        <ele>9.8</ele>
        <time>2020-06-03T11:42:36Z</time>
      </trkpt>
      <trkpt lat="46.48913" lon="-1.76851">
        <ele>9.8</ele>
        <time>2020-06-03T11:42:37Z</time>
      </trkpt>
      <trkpt lat="46.48913" lon="-1.76851">
        <ele>9.8</ele>
        <time>2020-06-03T11:42:38Z</time>
      </trkpt>
      <trkpt lat="46.48913" lon="-1.76851">
        <ele>9.8</ele>
        <time>2020-06-03T11:42:39Z</time>
      </trkpt>
      <trkpt lat="46.48913" lon="-1.76851">
        <ele>9.8</ele>
        <time>2020-06-03T11:42:40Z</time>
      </trkpt>
      <trkpt lat="46.48912" lon="-1.76851">
        <ele>9.8</ele>
        <time>2020-06-03T11:42:41Z</time>
      </trkpt>
      <trkpt lat="46.48912" lon="-1.76851">
        <ele>9.8</ele>
        <time>2020-06-03T11:42:42Z</time>
      </trkpt>
      <trkpt lat="46.48912" lon="-1.76851">
        <ele>9.8</ele>
        <time>2020-06-03T11:42:43Z</time>
      </trkpt>
      <trkpt lat="46.48912" lon="-1.76851">
        <ele>9.8</ele>
        <time>2020-06-03T11:42:44Z</time>
      </trkpt>
      <trkpt lat="46.48911" lon="-1.76851">
        <ele>9.8</ele>
        <time>2020-06-03T11:42:45Z</time>
      </trkpt>
      <trkpt lat="46.48911" lon="-1.7685">
        <ele>9.8</ele>
        <time>2020-06-03T11:42:46Z</time>
      </trkpt>
      <trkpt lat="46.4891" lon="-1.7685">
        <ele>9.8</ele>
        <time>2020-06-03T11:42:47Z</time>
      </trkpt>
      <trkpt lat="46.48911" lon="-1.76849">
        <ele>9.8</ele>
        <time>2020-06-03T11:42:48Z</time>
      </trkpt>
      <trkpt lat="46.4891" lon="-1.76848">
        <ele>9.8</ele>
        <time>2020-06-03T11:42:49Z</time>
      </trkpt>
      <trkpt lat="46.4891" lon="-1.76847">
        <ele>9.9</ele>
        <time>2020-06-03T11:42:50Z</time>
      </trkpt>
      <trkpt lat="46.4891" lon="-1.76847">
        <ele>9.9</ele>
        <time>2020-06-03T11:42:51Z</time>
      </trkpt>
      <trkpt lat="46.4891" lon="-1.76847">
        <ele>9.9</ele>
        <time>2020-06-03T11:42:52Z</time>
      </trkpt>
      <trkpt lat="46.4891" lon="-1.76846">
        <ele>9.9</ele>
        <time>2020-06-03T11:42:53Z</time>
      </trkpt>
      <trkpt lat="46.4891" lon="-1.76846">
        <ele>9.9</ele>
        <time>2020-06-03T11:42:54Z</time>
      </trkpt>
      <trkpt lat="46.48911" lon="-1.76845">
        <ele>9.9</ele>
        <time>2020-06-03T11:42:55Z</time>
      </trkpt>
      <trkpt lat="46.4891" lon="-1.76844">
        <ele>9.9</ele>
        <time>2020-06-03T11:42:56Z</time>
      </trkpt>
      <trkpt lat="46.4891" lon="-1.76843">
        <ele>9.9</ele>
        <time>2020-06-03T11:42:57Z</time>
      </trkpt>
      <trkpt lat="46.48909" lon="-1.76841">
        <ele>9.9</ele>
        <time>2020-06-03T11:42:58Z</time>
      </trkpt>
      <trkpt lat="46.48908" lon="-1.76839">
        <ele>9.9</ele>
        <time>2020-06-03T11:42:59Z</time>
      </trkpt>
      <trkpt lat="46.48908" lon="-1.76839">
        <ele>9.9</ele>
        <time>2020-06-03T11:43:00Z</time>
      </trkpt>
      <trkpt lat="46.48908" lon="-1.76838">
        <ele>10</ele>
        <time>2020-06-03T11:43:01Z</time>
      </trkpt>
      <trkpt lat="46.48908" lon="-1.76837">
        <ele>10</ele>
        <time>2020-06-03T11:43:02Z</time>
      </trkpt>
      <trkpt lat="46.48909" lon="-1.76837">
        <ele>10</ele>
        <time>2020-06-03T11:43:03Z</time>
      </trkpt>
      <trkpt lat="46.4891" lon="-1.76837">
        <ele>10</ele>
        <time>2020-06-03T11:43:04Z</time>
      </trkpt>
      <trkpt lat="46.48911" lon="-1.76838">
        <ele>10</ele>
        <time>2020-06-03T11:43:05Z</time>
      </trkpt>
      <trkpt lat="46.48912" lon="-1.76838">
        <ele>10</ele>
        <time>2020-06-03T11:43:06Z</time>
      </trkpt>
      <trkpt lat="46.48913" lon="-1.76838">
        <ele>10.1</ele>
        <time>2020-06-03T11:43:07Z</time>
      </trkpt>
      <trkpt lat="46.48914" lon="-1.76839">
        <ele>10.1</ele>
        <time>2020-06-03T11:43:08Z</time>
      </trkpt>
      <trkpt lat="46.48915" lon="-1.76839">
        <ele>10.1</ele>
        <time>2020-06-03T11:43:09Z</time>
      </trkpt>
      <trkpt lat="46.48917" lon="-1.76839">
        <ele>10.1</ele>
        <time>2020-06-03T11:43:10Z</time>
      </trkpt>
      <trkpt lat="46.48918" lon="-1.7684">
        <ele>10.1</ele>
        <time>2020-06-03T11:43:11Z</time>
      </trkpt>
      <trkpt lat="46.48919" lon="-1.7684">
        <ele>10.1</ele>
        <time>2020-06-03T11:43:12Z</time>
      </trkpt>
      <trkpt lat="46.4892" lon="-1.7684">
        <ele>10</ele>
        <time>2020-06-03T11:43:13Z</time>
      </trkpt>
      <trkpt lat="46.48921" lon="-1.76841">
        <ele>10</ele>
        <time>2020-06-03T11:44:55Z</time>
      </trkpt>
      <trkpt lat="46.48922" lon="-1.76841">
        <ele>10</ele>
        <time>2020-06-03T11:44:56Z</time>
      </trkpt>
      <trkpt lat="46.48923" lon="-1.76842">
        <ele>10</ele>
        <time>2020-06-03T11:44:57Z</time>
      </trkpt>
      <trkpt lat="46.48924" lon="-1.76842">
        <ele>10</ele>
        <time>2020-06-03T11:44:58Z</time>
      </trkpt>
      <trkpt lat="46.48925" lon="-1.76842">
        <ele>10</ele>
        <time>2020-06-03T11:44:59Z</time>
      </trkpt>
      <trkpt lat="46.48926" lon="-1.76843">
        <ele>10</ele>
        <time>2020-06-03T11:45:00Z</time>
      </trkpt>
      <trkpt lat="46.48927" lon="-1.76843">
        <ele>10</ele>
        <time>2020-06-03T11:45:01Z</time>
      </trkpt>
      <trkpt lat="46.48928" lon="-1.76843">
        <ele>9.9</ele>
        <time>2020-06-03T11:45:02Z</time>
      </trkpt>
      <trkpt lat="46.48929" lon="-1.76844">
        <ele>9.9</ele>
        <time>2020-06-03T11:45:03Z</time>
      </trkpt>
      <trkpt lat="46.48931" lon="-1.76844">
        <ele>9.9</ele>
        <time>2020-06-03T11:45:04Z</time>
      </trkpt>
      <trkpt lat="46.4893" lon="-1.76844">
        <ele>9.9</ele>
        <time>2020-06-03T11:45:05Z</time>
      </trkpt>
      <trkpt lat="46.4893" lon="-1.76845">
        <ele>9.9</ele>
        <time>2020-06-03T11:45:06Z</time>
      </trkpt>
      <trkpt lat="46.4893" lon="-1.76847">
        <ele>9.9</ele>
        <time>2020-06-03T11:45:07Z</time>
      </trkpt>
      <trkpt lat="46.4893" lon="-1.76848">
        <ele>9.9</ele>
        <time>2020-06-03T11:45:08Z</time>
      </trkpt>
      <trkpt lat="46.48929" lon="-1.76849">
        <ele>9.9</ele>
        <time>2020-06-03T11:45:09Z</time>
      </trkpt>
      <trkpt lat="46.48929" lon="-1.7685">
        <ele>9.9</ele>
        <time>2020-06-03T11:45:10Z</time>
      </trkpt>
      <trkpt lat="46.48929" lon="-1.7685">
        <ele>9.9</ele>
        <time>2020-06-03T11:45:11Z</time>
      </trkpt>
      <trkpt lat="46.48929" lon="-1.76849">
        <ele>9.9</ele>
        <time>2020-06-03T11:45:12Z</time>
      </trkpt>
      <trkpt lat="46.48928" lon="-1.7685">
        <ele>9.8</ele>
        <time>2020-06-03T11:45:13Z</time>
      </trkpt>
      <trkpt lat="46.48927" lon="-1.7685">
        <ele>9.8</ele>
        <time>2020-06-03T11:45:14Z</time>
      </trkpt>
      <trkpt lat="46.48926" lon="-1.76852">
        <ele>9.8</ele>
        <time>2020-06-03T11:45:15Z</time>
      </trkpt>
      <trkpt lat="46.48924" lon="-1.76852">
        <ele>9.8</ele>
        <time>2020-06-03T11:45:16Z</time>
      </trkpt>
      <trkpt lat="46.48923" lon="-1.76852">
        <ele>9.8</ele>
        <time>2020-06-03T11:45:17Z</time>
      </trkpt>
      <trkpt lat="46.48922" lon="-1.76851">
        <ele>9.8</ele>
        <time>2020-06-03T11:45:18Z</time>
      </trkpt>
      <trkpt lat="46.48922" lon="-1.76851">
        <ele>9.8</ele>
        <time>2020-06-03T11:45:19Z</time>
      </trkpt>
      <trkpt lat="46.48922" lon="-1.7685">
        <ele>9.8</ele>
        <time>2020-06-03T11:45:20Z</time>
      </trkpt>
      <trkpt lat="46.48922" lon="-1.7685">
        <ele>9.8</ele>
        <time>2020-06-03T11:45:21Z</time>
      </trkpt>
      <trkpt lat="46.48923" lon="-1.7685">
        <ele>9.8</ele>
        <time>2020-06-03T11:45:22Z</time>
      </trkpt>
      <trkpt lat="46.48922" lon="-1.7685">
        <ele>9.8</ele>
        <time>2020-06-03T11:45:23Z</time>
      </trkpt>
      <trkpt lat="46.48922" lon="-1.76851">
        <ele>9.7</ele>
        <time>2020-06-03T11:45:24Z</time>
      </trkpt>
      <trkpt lat="46.48921" lon="-1.76852">
        <ele>9.7</ele>
        <time>2020-06-03T11:45:25Z</time>
      </trkpt>
      <trkpt lat="46.48922" lon="-1.76858">
        <ele>9.7</ele>
        <time>2020-06-03T11:50:04Z</time>
      </trkpt>
      <trkpt lat="46.48922" lon="-1.7686">
        <ele>9.7</ele>
        <time>2020-06-03T11:50:05Z</time>
      </trkpt>
      <trkpt lat="46.48922" lon="-1.76862">
        <ele>9.7</ele>
        <time>2020-06-03T11:50:06Z</time>
      </trkpt>
      <trkpt lat="46.48923" lon="-1.76864">
        <ele>9.6</ele>
        <time>2020-06-03T11:50:07Z</time>
      </trkpt>
      <trkpt lat="46.48923" lon="-1.76869">
        <ele>9.6</ele>
        <time>2020-06-03T11:50:08Z</time>
      </trkpt>
      <trkpt lat="46.48923" lon="-1.76871">
        <ele>9.5</ele>
        <time>2020-06-03T11:50:09Z</time>
      </trkpt>
      <trkpt lat="46.4892" lon="-1.76876">
        <ele>9.5</ele>
        <time>2020-06-03T11:50:10Z</time>
      </trkpt>
      <trkpt lat="46.48919" lon="-1.76878">
        <ele>9.4</ele>
        <time>2020-06-03T11:50:11Z</time>
      </trkpt>
      <trkpt lat="46.48917" lon="-1.76883">
        <ele>9.3</ele>
        <time>2020-06-03T11:50:12Z</time>
      </trkpt>
      <trkpt lat="46.48917" lon="-1.76885">
        <ele>9.3</ele>
        <time>2020-06-03T11:50:13Z</time>
      </trkpt>
      <trkpt lat="46.48917" lon="-1.76889">
        <ele>9.2</ele>
        <time>2020-06-03T11:50:14Z</time>
      </trkpt>
      <trkpt lat="46.48917" lon="-1.76895">
        <ele>9.1</ele>
        <time>2020-06-03T11:50:15Z</time>
      </trkpt>
      <trkpt lat="46.48917" lon="-1.76901">
        <ele>9</ele>
        <time>2020-06-03T11:50:16Z</time>
      </trkpt>
      <trkpt lat="46.48918" lon="-1.76906">
        <ele>9</ele>
        <time>2020-06-03T11:50:17Z</time>
      </trkpt>
      <trkpt lat="46.48919" lon="-1.7691">
        <ele>9</ele>
        <time>2020-06-03T11:50:18Z</time>
      </trkpt>
      <trkpt lat="46.48919" lon="-1.76916">
        <ele>8.9</ele>
        <time>2020-06-03T11:50:19Z</time>
      </trkpt>
      <trkpt lat="46.4892" lon="-1.76921">
        <ele>8.8</ele>
        <time>2020-06-03T11:50:20Z</time>
      </trkpt>
      <trkpt lat="46.4892" lon="-1.76926">
        <ele>8.7</ele>
        <time>2020-06-03T11:50:21Z</time>
      </trkpt>
      <trkpt lat="46.48921" lon="-1.76932">
        <ele>8.6</ele>
        <time>2020-06-03T11:50:22Z</time>
      </trkpt>
      <trkpt lat="46.48923" lon="-1.76937">
        <ele>8.6</ele>
        <time>2020-06-03T11:50:23Z</time>
      </trkpt>
      <trkpt lat="46.48924" lon="-1.76943">
        <ele>8.3</ele>
        <time>2020-06-03T11:50:24Z</time>
      </trkpt>
      <trkpt lat="46.48925" lon="-1.76949">
        <ele>8.3</ele>
        <time>2020-06-03T11:50:25Z</time>
      </trkpt>
      <trkpt lat="46.48925" lon="-1.76956">
        <ele>8.2</ele>
        <time>2020-06-03T11:50:26Z</time>
      </trkpt>
      <trkpt lat="46.48926" lon="-1.76961">
        <ele>8.1</ele>
        <time>2020-06-03T11:50:27Z</time>
      </trkpt>
      <trkpt lat="46.48927" lon="-1.76967">
        <ele>8</ele>
        <time>2020-06-03T11:50:28Z</time>
      </trkpt>
      <trkpt lat="46.48929" lon="-1.76973">
        <ele>7.9</ele>
        <time>2020-06-03T11:50:29Z</time>
      </trkpt>
      <trkpt lat="46.48931" lon="-1.76979">
        <ele>7.8</ele>
        <time>2020-06-03T11:50:30Z</time>
      </trkpt>
      <trkpt lat="46.48933" lon="-1.76985">
        <ele>7.6</ele>
        <time>2020-06-03T11:50:31Z</time>
      </trkpt>
      <trkpt lat="46.48936" lon="-1.76992">
        <ele>7.5</ele>
        <time>2020-06-03T11:50:32Z</time>
      </trkpt>
      <trkpt lat="46.48939" lon="-1.76999">
        <ele>7.4</ele>
        <time>2020-06-03T11:50:33Z</time>
      </trkpt>
      <trkpt lat="46.48941" lon="-1.77005">
        <ele>7.3</ele>
        <time>2020-06-03T11:50:34Z</time>
      </trkpt>
      <trkpt lat="46.48944" lon="-1.77011">
        <ele>7.2</ele>
        <time>2020-06-03T11:50:35Z</time>
      </trkpt>
      <trkpt lat="46.48946" lon="-1.77018">
        <ele>7.1</ele>
        <time>2020-06-03T11:50:36Z</time>
      </trkpt>
      <trkpt lat="46.48949" lon="-1.77025">
        <ele>7.1</ele>
        <time>2020-06-03T11:50:37Z</time>
      </trkpt>
      <trkpt lat="46.48951" lon="-1.77031">
        <ele>7</ele>
        <time>2020-06-03T11:50:38Z</time>
      </trkpt>
      <trkpt lat="46.48952" lon="-1.77036">
        <ele>7</ele>
        <time>2020-06-03T11:50:39Z</time>
      </trkpt>
      <trkpt lat="46.48955" lon="-1.77043">
        <ele>7</ele>
        <time>2020-06-03T11:50:40Z</time>
      </trkpt>
      <trkpt lat="46.48957" lon="-1.77049">
        <ele>7</ele>
        <time>2020-06-03T11:50:41Z</time>
      </trkpt>
      <trkpt lat="46.48959" lon="-1.77055">
        <ele>6.9</ele>
        <time>2020-06-03T11:50:42Z</time>
      </trkpt>
      <trkpt lat="46.48961" lon="-1.77061">
        <ele>6.9</ele>
        <time>2020-06-03T11:50:43Z</time>
      </trkpt>
      <trkpt lat="46.48964" lon="-1.77067">
        <ele>6.9</ele>
        <time>2020-06-03T11:50:44Z</time>
      </trkpt>
      <trkpt lat="46.48966" lon="-1.77073">
        <ele>6.9</ele>
        <time>2020-06-03T11:50:45Z</time>
      </trkpt>
      <trkpt lat="46.48969" lon="-1.77078">
        <ele>6.9</ele>
        <time>2020-06-03T11:50:46Z</time>
      </trkpt>
      <trkpt lat="46.48972" lon="-1.77082">
        <ele>6.9</ele>
        <time>2020-06-03T11:50:47Z</time>
      </trkpt>
      <trkpt lat="46.48976" lon="-1.77087">
        <ele>6.9</ele>
        <time>2020-06-03T11:50:48Z</time>
      </trkpt>
      <trkpt lat="46.48979" lon="-1.77094">
        <ele>6.8</ele>
        <time>2020-06-03T11:50:49Z</time>
      </trkpt>
      <trkpt lat="46.48982" lon="-1.77097">
        <ele>6.8</ele>
        <time>2020-06-03T11:50:50Z</time>
      </trkpt>
      <trkpt lat="46.48984" lon="-1.77102">
        <ele>6.8</ele>
        <time>2020-06-03T11:50:51Z</time>
      </trkpt>
      <trkpt lat="46.48986" lon="-1.77107">
        <ele>6.8</ele>
        <time>2020-06-03T11:50:52Z</time>
      </trkpt>
      <trkpt lat="46.48988" lon="-1.77113">
        <ele>6.8</ele>
        <time>2020-06-03T11:50:53Z</time>
      </trkpt>
      <trkpt lat="46.48991" lon="-1.77119">
        <ele>6.8</ele>
        <time>2020-06-03T11:50:54Z</time>
      </trkpt>
      <trkpt lat="46.48993" lon="-1.77126">
        <ele>6.8</ele>
        <time>2020-06-03T11:50:55Z</time>
      </trkpt>
      <trkpt lat="46.48996" lon="-1.77132">
        <ele>6.8</ele>
        <time>2020-06-03T11:50:56Z</time>
      </trkpt>
      <trkpt lat="46.48998" lon="-1.77136">
        <ele>6.8</ele>
        <time>2020-06-03T11:50:57Z</time>
      </trkpt>
      <trkpt lat="46.49" lon="-1.7714">
        <ele>6.8</ele>
        <time>2020-06-03T11:50:58Z</time>
      </trkpt>
      <trkpt lat="46.49003" lon="-1.77145">
        <ele>6.8</ele>
        <time>2020-06-03T11:50:59Z</time>
      </trkpt>
      <trkpt lat="46.49005" lon="-1.7715">
        <ele>6.8</ele>
        <time>2020-06-03T11:51:00Z</time>
      </trkpt>
      <trkpt lat="46.49007" lon="-1.77156">
        <ele>6.7</ele>
        <time>2020-06-03T11:51:01Z</time>
      </trkpt>
      <trkpt lat="46.4901" lon="-1.77163">
        <ele>6.7</ele>
        <time>2020-06-03T11:51:02Z</time>
      </trkpt>
      <trkpt lat="46.49012" lon="-1.77169">
        <ele>6.7</ele>
        <time>2020-06-03T11:51:03Z</time>
      </trkpt>
      <trkpt lat="46.49015" lon="-1.77176">
        <ele>6.7</ele>
        <time>2020-06-03T11:51:04Z</time>
      </trkpt>
      <trkpt lat="46.49018" lon="-1.7718">
        <ele>6.7</ele>
        <time>2020-06-03T11:51:05Z</time>
      </trkpt>
      <trkpt lat="46.49021" lon="-1.77186">
        <ele>6.7</ele>
        <time>2020-06-03T11:51:06Z</time>
      </trkpt>
      <trkpt lat="46.49024" lon="-1.77192">
        <ele>6.7</ele>
        <time>2020-06-03T11:51:07Z</time>
      </trkpt>
      <trkpt lat="46.49027" lon="-1.77198">
        <ele>6.6</ele>
        <time>2020-06-03T11:51:08Z</time>
      </trkpt>
      <trkpt lat="46.49029" lon="-1.77205">
        <ele>6.6</ele>
        <time>2020-06-03T11:51:09Z</time>
      </trkpt>
      <trkpt lat="46.49032" lon="-1.77212">
        <ele>6.6</ele>
        <time>2020-06-03T11:51:10Z</time>
      </trkpt>
      <trkpt lat="46.49035" lon="-1.77218">
        <ele>6.6</ele>
        <time>2020-06-03T11:51:11Z</time>
      </trkpt>
      <trkpt lat="46.49039" lon="-1.77223">
        <ele>6.6</ele>
        <time>2020-06-03T11:51:12Z</time>
      </trkpt>
      <trkpt lat="46.49042" lon="-1.77231">
        <ele>6.6</ele>
        <time>2020-06-03T11:51:13Z</time>
      </trkpt>
      <trkpt lat="46.49044" lon="-1.77237">
        <ele>6.6</ele>
        <time>2020-06-03T11:51:14Z</time>
      </trkpt>
      <trkpt lat="46.49046" lon="-1.77242">
        <ele>6.6</ele>
        <time>2020-06-03T11:51:15Z</time>
      </trkpt>
      <trkpt lat="46.49048" lon="-1.77247">
        <ele>6.6</ele>
        <time>2020-06-03T11:51:16Z</time>
      </trkpt>
      <trkpt lat="46.49052" lon="-1.7725">
        <ele>6.6</ele>
        <time>2020-06-03T11:51:17Z</time>
      </trkpt>
      <trkpt lat="46.49056" lon="-1.77252">
        <ele>6.5</ele>
        <time>2020-06-03T11:51:18Z</time>
      </trkpt>
      <trkpt lat="46.49059" lon="-1.77256">
        <ele>6.5</ele>
        <time>2020-06-03T11:51:19Z</time>
      </trkpt>
      <trkpt lat="46.49061" lon="-1.77262">
        <ele>6.3</ele>
        <time>2020-06-03T11:51:20Z</time>
      </trkpt>
      <trkpt lat="46.49063" lon="-1.7727">
        <ele>6.3</ele>
        <time>2020-06-03T11:51:21Z</time>
      </trkpt>
      <trkpt lat="46.49065" lon="-1.77277">
        <ele>6.2</ele>
        <time>2020-06-03T11:51:22Z</time>
      </trkpt>
      <trkpt lat="46.49067" lon="-1.77281">
        <ele>6.2</ele>
        <time>2020-06-03T11:51:23Z</time>
      </trkpt>
      <trkpt lat="46.49069" lon="-1.77283">
        <ele>6.2</ele>
        <time>2020-06-03T11:51:24Z</time>
      </trkpt>
      <trkpt lat="46.49071" lon="-1.77288">
        <ele>6.2</ele>
        <time>2020-06-03T11:51:25Z</time>
      </trkpt>
      <trkpt lat="46.49073" lon="-1.77292">
        <ele>6.2</ele>
        <time>2020-06-03T11:51:26Z</time>
      </trkpt>
      <trkpt lat="46.49075" lon="-1.77296">
        <ele>6.1</ele>
        <time>2020-06-03T11:51:27Z</time>
      </trkpt>
      <trkpt lat="46.49077" lon="-1.77302">
        <ele>6.1</ele>
        <time>2020-06-03T11:51:28Z</time>
      </trkpt>
      <trkpt lat="46.49078" lon="-1.77307">
        <ele>6</ele>
        <time>2020-06-03T11:51:29Z</time>
      </trkpt>
      <trkpt lat="46.49079" lon="-1.77315">
        <ele>5.9</ele>
        <time>2020-06-03T11:51:30Z</time>
      </trkpt>
      <trkpt lat="46.49081" lon="-1.77321">
        <ele>5.9</ele>
        <time>2020-06-03T11:51:31Z</time>
      </trkpt>
      <trkpt lat="46.49082" lon="-1.77326">
        <ele>5.8</ele>
        <time>2020-06-03T11:51:32Z</time>
      </trkpt>
      <trkpt lat="46.49085" lon="-1.77331">
        <ele>5.8</ele>
        <time>2020-06-03T11:51:33Z</time>
      </trkpt>
      <trkpt lat="46.49088" lon="-1.77336">
        <ele>5.7</ele>
        <time>2020-06-03T11:51:34Z</time>
      </trkpt>
      <trkpt lat="46.49089" lon="-1.77342">
        <ele>5.7</ele>
        <time>2020-06-03T11:51:35Z</time>
      </trkpt>
      <trkpt lat="46.49092" lon="-1.77347">
        <ele>5.7</ele>
        <time>2020-06-03T11:51:36Z</time>
      </trkpt>
      <trkpt lat="46.49093" lon="-1.77352">
        <ele>5.6</ele>
        <time>2020-06-03T11:51:37Z</time>
      </trkpt>
      <trkpt lat="46.49095" lon="-1.77356">
        <ele>5.6</ele>
        <time>2020-06-03T11:51:38Z</time>
      </trkpt>
      <trkpt lat="46.49096" lon="-1.7736">
        <ele>5.6</ele>
        <time>2020-06-03T11:51:39Z</time>
      </trkpt>
      <trkpt lat="46.49097" lon="-1.77366">
        <ele>5.6</ele>
        <time>2020-06-03T11:51:40Z</time>
      </trkpt>
      <trkpt lat="46.49099" lon="-1.77369">
        <ele>5.6</ele>
        <time>2020-06-03T11:51:41Z</time>
      </trkpt>
      <trkpt lat="46.491" lon="-1.77373">
        <ele>5.6</ele>
        <time>2020-06-03T11:51:42Z</time>
      </trkpt>
      <trkpt lat="46.491" lon="-1.77377">
        <ele>5.6</ele>
        <time>2020-06-03T11:51:43Z</time>
      </trkpt>
      <trkpt lat="46.49099" lon="-1.77381">
        <ele>5.6</ele>
        <time>2020-06-03T11:51:44Z</time>
      </trkpt>
      <trkpt lat="46.49099" lon="-1.77387">
        <ele>5.5</ele>
        <time>2020-06-03T11:51:45Z</time>
      </trkpt>
      <trkpt lat="46.49099" lon="-1.77389">
        <ele>5.5</ele>
        <time>2020-06-03T11:51:46Z</time>
      </trkpt>
      <trkpt lat="46.491" lon="-1.77394">
        <ele>5.5</ele>
        <time>2020-06-03T11:51:47Z</time>
      </trkpt>
      <trkpt lat="46.49101" lon="-1.77398">
        <ele>5.4</ele>
        <time>2020-06-03T11:51:48Z</time>
      </trkpt>
      <trkpt lat="46.49102" lon="-1.77402">
        <ele>5.4</ele>
        <time>2020-06-03T11:51:49Z</time>
      </trkpt>
      <trkpt lat="46.49103" lon="-1.77406">
        <ele>5.3</ele>
        <time>2020-06-03T11:51:50Z</time>
      </trkpt>
      <trkpt lat="46.49104" lon="-1.77411">
        <ele>5.3</ele>
        <time>2020-06-03T11:51:51Z</time>
      </trkpt>
      <trkpt lat="46.49105" lon="-1.77416">
        <ele>5.2</ele>
        <time>2020-06-03T11:51:52Z</time>
      </trkpt>
      <trkpt lat="46.49107" lon="-1.77419">
        <ele>5.2</ele>
        <time>2020-06-03T11:51:53Z</time>
      </trkpt>
      <trkpt lat="46.49109" lon="-1.77423">
        <ele>5.2</ele>
        <time>2020-06-03T11:51:54Z</time>
      </trkpt>
      <trkpt lat="46.4911" lon="-1.77428">
        <ele>5.2</ele>
        <time>2020-06-03T11:51:55Z</time>
      </trkpt>
      <trkpt lat="46.49112" lon="-1.77433">
        <ele>5.1</ele>
        <time>2020-06-03T11:51:56Z</time>
      </trkpt>
      <trkpt lat="46.49115" lon="-1.77438">
        <ele>5.1</ele>
        <time>2020-06-03T11:51:57Z</time>
      </trkpt>
      <trkpt lat="46.49117" lon="-1.77443">
        <ele>5.1</ele>
        <time>2020-06-03T11:51:58Z</time>
      </trkpt>
      <trkpt lat="46.49119" lon="-1.77449">
        <ele>5.1</ele>
        <time>2020-06-03T11:51:59Z</time>
      </trkpt>
      <trkpt lat="46.49122" lon="-1.77455">
        <ele>5.1</ele>
        <time>2020-06-03T11:52:00Z</time>
      </trkpt>
      <trkpt lat="46.49124" lon="-1.77461">
        <ele>5.1</ele>
        <time>2020-06-03T11:52:01Z</time>
      </trkpt>
      <trkpt lat="46.49126" lon="-1.77468">
        <ele>5.1</ele>
        <time>2020-06-03T11:52:02Z</time>
      </trkpt>
      <trkpt lat="46.49128" lon="-1.77474">
        <ele>5</ele>
        <time>2020-06-03T11:52:03Z</time>
      </trkpt>
      <trkpt lat="46.4913" lon="-1.77479">
        <ele>5</ele>
        <time>2020-06-03T11:52:04Z</time>
      </trkpt>
      <trkpt lat="46.49133" lon="-1.77484">
        <ele>5</ele>
        <time>2020-06-03T11:52:05Z</time>
      </trkpt>
      <trkpt lat="46.49136" lon="-1.7749">
        <ele>5</ele>
        <time>2020-06-03T11:52:06Z</time>
      </trkpt>
      <trkpt lat="46.49139" lon="-1.77494">
        <ele>5</ele>
        <time>2020-06-03T11:52:07Z</time>
      </trkpt>
      <trkpt lat="46.49144" lon="-1.77499">
        <ele>5</ele>
        <time>2020-06-03T11:52:08Z</time>
      </trkpt>
      <trkpt lat="46.49146" lon="-1.77504">
        <ele>5</ele>
        <time>2020-06-03T11:52:09Z</time>
      </trkpt>
      <trkpt lat="46.49149" lon="-1.77509">
        <ele>5</ele>
        <time>2020-06-03T11:52:10Z</time>
      </trkpt>
      <trkpt lat="46.49152" lon="-1.77513">
        <ele>5</ele>
        <time>2020-06-03T11:52:11Z</time>
      </trkpt>
      <trkpt lat="46.49155" lon="-1.77518">
        <ele>5</ele>
        <time>2020-06-03T11:52:12Z</time>
      </trkpt>
      <trkpt lat="46.49159" lon="-1.77521">
        <ele>5</ele>
        <time>2020-06-03T11:52:13Z</time>
      </trkpt>
      <trkpt lat="46.49162" lon="-1.77525">
        <ele>5</ele>
        <time>2020-06-03T11:52:14Z</time>
      </trkpt>
      <trkpt lat="46.49166" lon="-1.77529">
        <ele>5</ele>
        <time>2020-06-03T11:52:15Z</time>
      </trkpt>
      <trkpt lat="46.49169" lon="-1.77535">
        <ele>5</ele>
        <time>2020-06-03T11:52:16Z</time>
      </trkpt>
      <trkpt lat="46.49173" lon="-1.77538">
        <ele>5</ele>
        <time>2020-06-03T11:52:17Z</time>
      </trkpt>
      <trkpt lat="46.49176" lon="-1.77543">
        <ele>5</ele>
        <time>2020-06-03T11:52:18Z</time>
      </trkpt>
      <trkpt lat="46.4918" lon="-1.77547">
        <ele>5</ele>
        <time>2020-06-03T11:52:19Z</time>
      </trkpt>
      <trkpt lat="46.49184" lon="-1.77551">
        <ele>5</ele>
        <time>2020-06-03T11:52:20Z</time>
      </trkpt>
      <trkpt lat="46.49187" lon="-1.77556">
        <ele>5.1</ele>
        <time>2020-06-03T11:52:21Z</time>
      </trkpt>
      <trkpt lat="46.4919" lon="-1.77561">
        <ele>5.1</ele>
        <time>2020-06-03T11:52:22Z</time>
      </trkpt>
      <trkpt lat="46.49195" lon="-1.77563">
        <ele>5.1</ele>
        <time>2020-06-03T11:52:23Z</time>
      </trkpt>
      <trkpt lat="46.49197" lon="-1.77568">
        <ele>5.1</ele>
        <time>2020-06-03T11:52:24Z</time>
      </trkpt>
      <trkpt lat="46.49201" lon="-1.77573">
        <ele>5.1</ele>
        <time>2020-06-03T11:52:25Z</time>
      </trkpt>
      <trkpt lat="46.49203" lon="-1.77579">
        <ele>5.1</ele>
        <time>2020-06-03T11:52:26Z</time>
      </trkpt>
      <trkpt lat="46.49206" lon="-1.77584">
        <ele>5.2</ele>
        <time>2020-06-03T11:52:27Z</time>
      </trkpt>
      <trkpt lat="46.49209" lon="-1.77589">
        <ele>5.2</ele>
        <time>2020-06-03T11:52:28Z</time>
      </trkpt>
      <trkpt lat="46.49212" lon="-1.77595">
        <ele>5.2</ele>
        <time>2020-06-03T11:52:29Z</time>
      </trkpt>
      <trkpt lat="46.49216" lon="-1.776">
        <ele>5.2</ele>
        <time>2020-06-03T11:52:30Z</time>
      </trkpt>
      <trkpt lat="46.49219" lon="-1.77604">
        <ele>5.2</ele>
        <time>2020-06-03T11:52:31Z</time>
      </trkpt>
      <trkpt lat="46.49223" lon="-1.77608">
        <ele>5.2</ele>
        <time>2020-06-03T11:52:32Z</time>
      </trkpt>
      <trkpt lat="46.49226" lon="-1.77611">
        <ele>5.2</ele>
        <time>2020-06-03T11:52:33Z</time>
      </trkpt>
      <trkpt lat="46.49228" lon="-1.77613">
        <ele>5.2</ele>
        <time>2020-06-03T11:52:34Z</time>
      </trkpt>
      <trkpt lat="46.4923" lon="-1.77616">
        <ele>5.2</ele>
        <time>2020-06-03T11:52:35Z</time>
      </trkpt>
      <trkpt lat="46.49234" lon="-1.77619">
        <ele>5.3</ele>
        <time>2020-06-03T11:52:36Z</time>
      </trkpt>
      <trkpt lat="46.49236" lon="-1.77624">
        <ele>5.3</ele>
        <time>2020-06-03T11:52:37Z</time>
      </trkpt>
      <trkpt lat="46.49239" lon="-1.77627">
        <ele>5.3</ele>
        <time>2020-06-03T11:52:38Z</time>
      </trkpt>
      <trkpt lat="46.49242" lon="-1.77631">
        <ele>5.3</ele>
        <time>2020-06-03T11:52:39Z</time>
      </trkpt>
      <trkpt lat="46.49245" lon="-1.77635">
        <ele>5.4</ele>
        <time>2020-06-03T11:52:40Z</time>
      </trkpt>
      <trkpt lat="46.49248" lon="-1.77638">
        <ele>5.4</ele>
        <time>2020-06-03T11:52:41Z</time>
      </trkpt>
      <trkpt lat="46.4925" lon="-1.7764">
        <ele>5.4</ele>
        <time>2020-06-03T11:52:42Z</time>
      </trkpt>
      <trkpt lat="46.49253" lon="-1.77645">
        <ele>5.4</ele>
        <time>2020-06-03T11:52:43Z</time>
      </trkpt>
      <trkpt lat="46.49255" lon="-1.77647">
        <ele>5.5</ele>
        <time>2020-06-03T11:52:44Z</time>
      </trkpt>
      <trkpt lat="46.49257" lon="-1.77649">
        <ele>5.5</ele>
        <time>2020-06-03T11:52:45Z</time>
      </trkpt>
      <trkpt lat="46.4926" lon="-1.77651">
        <ele>5.5</ele>
        <time>2020-06-03T11:52:46Z</time>
      </trkpt>
      <trkpt lat="46.4926" lon="-1.77652">
        <ele>5.5</ele>
        <time>2020-06-03T11:52:47Z</time>
      </trkpt>
      <trkpt lat="46.4926" lon="-1.77653">
        <ele>5.5</ele>
        <time>2020-06-03T11:52:48Z</time>
      </trkpt>
      <trkpt lat="46.4926" lon="-1.77655">
        <ele>5.5</ele>
        <time>2020-06-03T11:52:49Z</time>
      </trkpt>
      <trkpt lat="46.49261" lon="-1.77656">
        <ele>5.5</ele>
        <time>2020-06-03T11:52:50Z</time>
      </trkpt>
      <trkpt lat="46.49261" lon="-1.77658">
        <ele>5.5</ele>
        <time>2020-06-03T11:52:51Z</time>
      </trkpt>
      <trkpt lat="46.4926" lon="-1.77656">
        <ele>5.5</ele>
        <time>2020-06-03T11:52:52Z</time>
      </trkpt>
      <trkpt lat="46.4926" lon="-1.77656">
        <ele>5.5</ele>
        <time>2020-06-03T11:52:53Z</time>
      </trkpt>
      <trkpt lat="46.4926" lon="-1.77656">
        <ele>5.5</ele>
        <time>2020-06-03T11:52:54Z</time>
      </trkpt>
      <trkpt lat="46.4926" lon="-1.77656">
        <ele>5.5</ele>
        <time>2020-06-03T11:52:55Z</time>
      </trkpt>
      <trkpt lat="46.4926" lon="-1.77657">
        <ele>5.5</ele>
        <time>2020-06-03T11:52:56Z</time>
      </trkpt>
      <trkpt lat="46.4926" lon="-1.77658">
        <ele>5.5</ele>
        <time>2020-06-03T11:52:57Z</time>
      </trkpt>
      <trkpt lat="46.4926" lon="-1.77657">
        <ele>5.5</ele>
        <time>2020-06-03T11:52:58Z</time>
      </trkpt>
      <trkpt lat="46.4926" lon="-1.77657">
        <ele>5.5</ele>
        <time>2020-06-03T11:52:59Z</time>
      </trkpt>
      <trkpt lat="46.4926" lon="-1.77657">
        <ele>5.5</ele>
        <time>2020-06-03T11:53:00Z</time>
      </trkpt>
      <trkpt lat="46.4926" lon="-1.77657">
        <ele>5.5</ele>
        <time>2020-06-03T11:53:01Z</time>
      </trkpt>
      <trkpt lat="46.4926" lon="-1.77657">
        <ele>5.5</ele>
        <time>2020-06-03T11:53:02Z</time>
      </trkpt>
      <trkpt lat="46.4926" lon="-1.77657">
        <ele>5.5</ele>
        <time>2020-06-03T11:53:03Z</time>
      </trkpt>
      <trkpt lat="46.4926" lon="-1.77657">
        <ele>5.5</ele>
        <time>2020-06-03T11:53:04Z</time>
      </trkpt>
      <trkpt lat="46.4926" lon="-1.77657">
        <ele>5.5</ele>
        <time>2020-06-03T11:53:05Z</time>
      </trkpt>
      <trkpt lat="46.4926" lon="-1.77657">
        <ele>5.5</ele>
        <time>2020-06-03T11:53:06Z</time>
      </trkpt>
      <trkpt lat="46.4926" lon="-1.77657">
        <ele>5.5</ele>
        <time>2020-06-03T11:53:07Z</time>
      </trkpt>
      <trkpt lat="46.49257" lon="-1.77657">
        <ele>5.5</ele>
        <time>2020-06-03T11:53:11Z</time>
      </trkpt>
      <trkpt lat="46.49257" lon="-1.7766">
        <ele>5.5</ele>
        <time>2020-06-03T11:53:12Z</time>
      </trkpt>
      <trkpt lat="46.49257" lon="-1.77661">
        <ele>5.5</ele>
        <time>2020-06-03T11:53:13Z</time>
      </trkpt>
      <trkpt lat="46.49257" lon="-1.77663">
        <ele>5.5</ele>
        <time>2020-06-03T11:53:14Z</time>
      </trkpt>
      <trkpt lat="46.49257" lon="-1.77663">
        <ele>5.5</ele>
        <time>2020-06-03T11:53:15Z</time>
      </trkpt>
      <trkpt lat="46.49257" lon="-1.77663">
        <ele>5.5</ele>
        <time>2020-06-03T11:53:16Z</time>
      </trkpt>
      <trkpt lat="46.49258" lon="-1.77664">
        <ele>5.5</ele>
        <time>2020-06-03T11:53:17Z</time>
      </trkpt>
      <trkpt lat="46.49258" lon="-1.77664">
        <ele>5.5</ele>
        <time>2020-06-03T11:53:18Z</time>
      </trkpt>
      <trkpt lat="46.49258" lon="-1.77664">
        <ele>5.5</ele>
        <time>2020-06-03T11:53:19Z</time>
      </trkpt>
      <trkpt lat="46.49258" lon="-1.77664">
        <ele>5.5</ele>
        <time>2020-06-03T11:53:20Z</time>
      </trkpt>
      <trkpt lat="46.49258" lon="-1.77664">
        <ele>5.5</ele>
        <time>2020-06-03T11:53:21Z</time>
      </trkpt>
      <trkpt lat="46.49258" lon="-1.77664">
        <ele>5.5</ele>
        <time>2020-06-03T11:53:22Z</time>
      </trkpt>
      <trkpt lat="46.49258" lon="-1.77665">
        <ele>5.5</ele>
        <time>2020-06-03T11:53:23Z</time>
      </trkpt>
      <trkpt lat="46.49259" lon="-1.77666">
        <ele>5.5</ele>
        <time>2020-06-03T11:53:24Z</time>
      </trkpt>
      <trkpt lat="46.49261" lon="-1.77668">
        <ele>5.5</ele>
        <time>2020-06-03T11:53:26Z</time>
      </trkpt>
      <trkpt lat="46.49262" lon="-1.77669">
        <ele>5.5</ele>
        <time>2020-06-03T11:53:27Z</time>
      </trkpt>
      <trkpt lat="46.49262" lon="-1.77671">
        <ele>5.5</ele>
        <time>2020-06-03T11:53:28Z</time>
      </trkpt>
      <trkpt lat="46.49264" lon="-1.77671">
        <ele>5.5</ele>
        <time>2020-06-03T11:53:29Z</time>
      </trkpt>
      <trkpt lat="46.49265" lon="-1.77671">
        <ele>5.5</ele>
        <time>2020-06-03T11:53:30Z</time>
      </trkpt>
      <trkpt lat="46.49266" lon="-1.77672">
        <ele>5.5</ele>
        <time>2020-06-03T11:53:31Z</time>
      </trkpt>
      <trkpt lat="46.49267" lon="-1.77673">
        <ele>5.5</ele>
        <time>2020-06-03T11:53:32Z</time>
      </trkpt>
      <trkpt lat="46.49268" lon="-1.77673">
        <ele>5.5</ele>
        <time>2020-06-03T11:53:33Z</time>
      </trkpt>
      <trkpt lat="46.49269" lon="-1.77675">
        <ele>5.5</ele>
        <time>2020-06-03T11:53:34Z</time>
      </trkpt>
      <trkpt lat="46.4927" lon="-1.77675">
        <ele>5.5</ele>
        <time>2020-06-03T11:53:35Z</time>
      </trkpt>
      <trkpt lat="46.49271" lon="-1.77676">
        <ele>5.5</ele>
        <time>2020-06-03T11:53:36Z</time>
      </trkpt>
      <trkpt lat="46.49272" lon="-1.77677">
        <ele>5.5</ele>
        <time>2020-06-03T11:53:37Z</time>
      </trkpt>
      <trkpt lat="46.49273" lon="-1.77678">
        <ele>5.5</ele>
        <time>2020-06-03T11:53:38Z</time>
      </trkpt>
      <trkpt lat="46.49273" lon="-1.7768">
        <ele>5.5</ele>
        <time>2020-06-03T11:53:39Z</time>
      </trkpt>
      <trkpt lat="46.49274" lon="-1.77681">
        <ele>5.5</ele>
        <time>2020-06-03T11:53:40Z</time>
      </trkpt>
      <trkpt lat="46.49275" lon="-1.77683">
        <ele>5.5</ele>
        <time>2020-06-03T11:53:41Z</time>
      </trkpt>
      <trkpt lat="46.49277" lon="-1.77685">
        <ele>5.5</ele>
        <time>2020-06-03T11:53:42Z</time>
      </trkpt>
      <trkpt lat="46.49277" lon="-1.77686">
        <ele>5.5</ele>
        <time>2020-06-03T11:53:43Z</time>
      </trkpt>
      <trkpt lat="46.49278" lon="-1.77687">
        <ele>5.5</ele>
        <time>2020-06-03T11:53:44Z</time>
      </trkpt>
      <trkpt lat="46.49279" lon="-1.77689">
        <ele>5.5</ele>
        <time>2020-06-03T11:53:45Z</time>
      </trkpt>
      <trkpt lat="46.49279" lon="-1.77691">
        <ele>5.5</ele>
        <time>2020-06-03T11:53:46Z</time>
      </trkpt>
      <trkpt lat="46.49279" lon="-1.77692">
        <ele>5.5</ele>
        <time>2020-06-03T11:53:47Z</time>
      </trkpt>
      <trkpt lat="46.4928" lon="-1.77693">
        <ele>5.5</ele>
        <time>2020-06-03T11:53:48Z</time>
      </trkpt>
      <trkpt lat="46.49281" lon="-1.77696">
        <ele>5.6</ele>
        <time>2020-06-03T11:53:49Z</time>
      </trkpt>
      <trkpt lat="46.49281" lon="-1.77697">
        <ele>5.6</ele>
        <time>2020-06-03T11:53:50Z</time>
      </trkpt>
      <trkpt lat="46.49282" lon="-1.77698">
        <ele>5.6</ele>
        <time>2020-06-03T11:53:51Z</time>
      </trkpt>
      <trkpt lat="46.49283" lon="-1.77699">
        <ele>5.6</ele>
        <time>2020-06-03T11:53:52Z</time>
      </trkpt>
      <trkpt lat="46.49285" lon="-1.777">
        <ele>5.6</ele>
        <time>2020-06-03T11:53:53Z</time>
      </trkpt>
      <trkpt lat="46.49285" lon="-1.77702">
        <ele>5.6</ele>
        <time>2020-06-03T11:53:54Z</time>
      </trkpt>
      <trkpt lat="46.49287" lon="-1.77703">
        <ele>5.6</ele>
        <time>2020-06-03T11:53:55Z</time>
      </trkpt>
      <trkpt lat="46.49288" lon="-1.77704">
        <ele>5.6</ele>
        <time>2020-06-03T11:53:56Z</time>
      </trkpt>
      <trkpt lat="46.49289" lon="-1.77706">
        <ele>5.6</ele>
        <time>2020-06-03T11:53:57Z</time>
      </trkpt>
      <trkpt lat="46.4929" lon="-1.77708">
        <ele>5.6</ele>
        <time>2020-06-03T11:53:58Z</time>
      </trkpt>
      <trkpt lat="46.49291" lon="-1.7771">
        <ele>5.6</ele>
        <time>2020-06-03T11:53:59Z</time>
      </trkpt>
      <trkpt lat="46.49292" lon="-1.77711">
        <ele>5.6</ele>
        <time>2020-06-03T11:54:00Z</time>
      </trkpt>
      <trkpt lat="46.49293" lon="-1.77714">
        <ele>5.6</ele>
        <time>2020-06-03T11:54:01Z</time>
      </trkpt>
      <trkpt lat="46.49293" lon="-1.77715">
        <ele>5.6</ele>
        <time>2020-06-03T11:54:02Z</time>
      </trkpt>
      <trkpt lat="46.49294" lon="-1.77716">
        <ele>5.6</ele>
        <time>2020-06-03T11:54:03Z</time>
      </trkpt>
      <trkpt lat="46.49295" lon="-1.77717">
        <ele>5.6</ele>
        <time>2020-06-03T11:54:04Z</time>
      </trkpt>
      <trkpt lat="46.49296" lon="-1.77719">
        <ele>5.6</ele>
        <time>2020-06-03T11:54:05Z</time>
      </trkpt>
      <trkpt lat="46.49297" lon="-1.7772">
        <ele>5.6</ele>
        <time>2020-06-03T11:54:06Z</time>
      </trkpt>
      <trkpt lat="46.49298" lon="-1.77722">
        <ele>5.6</ele>
        <time>2020-06-03T11:54:07Z</time>
      </trkpt>
      <trkpt lat="46.49299" lon="-1.77723">
        <ele>5.6</ele>
        <time>2020-06-03T11:54:08Z</time>
      </trkpt>
      <trkpt lat="46.49299" lon="-1.77724">
        <ele>5.6</ele>
        <time>2020-06-03T11:54:09Z</time>
      </trkpt>
      <trkpt lat="46.493" lon="-1.77727">
        <ele>5.6</ele>
        <time>2020-06-03T11:54:10Z</time>
      </trkpt>
      <trkpt lat="46.493" lon="-1.77729">
        <ele>5.6</ele>
        <time>2020-06-03T11:54:11Z</time>
      </trkpt>
      <trkpt lat="46.493" lon="-1.77731">
        <ele>5.6</ele>
        <time>2020-06-03T11:54:12Z</time>
      </trkpt>
      <trkpt lat="46.49301" lon="-1.77732">
        <ele>5.6</ele>
        <time>2020-06-03T11:54:13Z</time>
      </trkpt>
      <trkpt lat="46.49301" lon="-1.77733">
        <ele>5.6</ele>
        <time>2020-06-03T11:54:14Z</time>
      </trkpt>
      <trkpt lat="46.49302" lon="-1.77734">
        <ele>5.6</ele>
        <time>2020-06-03T11:54:15Z</time>
      </trkpt>
      <trkpt lat="46.49303" lon="-1.77735">
        <ele>5.6</ele>
        <time>2020-06-03T11:54:16Z</time>
      </trkpt>
      <trkpt lat="46.49303" lon="-1.77737">
        <ele>5.6</ele>
        <time>2020-06-03T11:54:17Z</time>
      </trkpt>
      <trkpt lat="46.49304" lon="-1.7774">
        <ele>5.6</ele>
        <time>2020-06-03T11:54:18Z</time>
      </trkpt>
      <trkpt lat="46.49305" lon="-1.77741">
        <ele>5.6</ele>
        <time>2020-06-03T11:54:19Z</time>
      </trkpt>
      <trkpt lat="46.49306" lon="-1.77742">
        <ele>5.6</ele>
        <time>2020-06-03T11:54:20Z</time>
      </trkpt>
      <trkpt lat="46.49307" lon="-1.77743">
        <ele>5.6</ele>
        <time>2020-06-03T11:54:21Z</time>
      </trkpt>
      <trkpt lat="46.49308" lon="-1.77744">
        <ele>5.6</ele>
        <time>2020-06-03T11:54:22Z</time>
      </trkpt>
      <trkpt lat="46.4931" lon="-1.77745">
        <ele>5.6</ele>
        <time>2020-06-03T11:54:23Z</time>
      </trkpt>
      <trkpt lat="46.4931" lon="-1.77746">
        <ele>5.6</ele>
        <time>2020-06-03T11:54:24Z</time>
      </trkpt>
      <trkpt lat="46.49311" lon="-1.77748">
        <ele>5.6</ele>
        <time>2020-06-03T11:54:25Z</time>
      </trkpt>
      <trkpt lat="46.49312" lon="-1.77749">
        <ele>5.6</ele>
        <time>2020-06-03T11:54:26Z</time>
      </trkpt>
      <trkpt lat="46.49312" lon="-1.77751">
        <ele>5.6</ele>
        <time>2020-06-03T11:54:27Z</time>
      </trkpt>
      <trkpt lat="46.49312" lon="-1.77753">
        <ele>5.6</ele>
        <time>2020-06-03T11:54:28Z</time>
      </trkpt>
      <trkpt lat="46.49313" lon="-1.77754">
        <ele>5.6</ele>
        <time>2020-06-03T11:54:29Z</time>
      </trkpt>
      <trkpt lat="46.49313" lon="-1.77755">
        <ele>5.6</ele>
        <time>2020-06-03T11:54:30Z</time>
      </trkpt>
      <trkpt lat="46.49313" lon="-1.77756">
        <ele>5.6</ele>
        <time>2020-06-03T11:54:31Z</time>
      </trkpt>
      <trkpt lat="46.49314" lon="-1.77757">
        <ele>5.6</ele>
        <time>2020-06-03T11:54:32Z</time>
      </trkpt>
      <trkpt lat="46.49314" lon="-1.77758">
        <ele>5.6</ele>
        <time>2020-06-03T11:54:33Z</time>
      </trkpt>
      <trkpt lat="46.49314" lon="-1.77758">
        <ele>5.6</ele>
        <time>2020-06-03T11:54:34Z</time>
      </trkpt>
      <trkpt lat="46.49314" lon="-1.77759">
        <ele>5.6</ele>
        <time>2020-06-03T11:54:35Z</time>
      </trkpt>
      <trkpt lat="46.49314" lon="-1.77759">
        <ele>5.6</ele>
        <time>2020-06-03T11:54:36Z</time>
      </trkpt>
      <trkpt lat="46.49314" lon="-1.77759">
        <ele>5.6</ele>
        <time>2020-06-03T11:54:37Z</time>
      </trkpt>
      <trkpt lat="46.49314" lon="-1.77759">
        <ele>5.6</ele>
        <time>2020-06-03T11:54:38Z</time>
      </trkpt>
      <trkpt lat="46.49314" lon="-1.77759">
        <ele>5.6</ele>
        <time>2020-06-03T11:54:39Z</time>
      </trkpt>
      <trkpt lat="46.49314" lon="-1.77759">
        <ele>5.6</ele>
        <time>2020-06-03T11:54:40Z</time>
      </trkpt>
      <trkpt lat="46.49314" lon="-1.7776">
        <ele>5.6</ele>
        <time>2020-06-03T11:54:41Z</time>
      </trkpt>
      <trkpt lat="46.49315" lon="-1.77761">
        <ele>5.7</ele>
        <time>2020-06-03T11:54:42Z</time>
      </trkpt>
      <trkpt lat="46.49315" lon="-1.77762">
        <ele>5.7</ele>
        <time>2020-06-03T11:54:43Z</time>
      </trkpt>
      <trkpt lat="46.49316" lon="-1.77763">
        <ele>5.7</ele>
        <time>2020-06-03T11:54:44Z</time>
      </trkpt>
      <trkpt lat="46.49317" lon="-1.77764">
        <ele>5.7</ele>
        <time>2020-06-03T11:54:45Z</time>
      </trkpt>
      <trkpt lat="46.49319" lon="-1.77765">
        <ele>5.7</ele>
        <time>2020-06-03T11:54:46Z</time>
      </trkpt>
      <trkpt lat="46.4932" lon="-1.77767">
        <ele>5.7</ele>
        <time>2020-06-03T11:54:47Z</time>
      </trkpt>
      <trkpt lat="46.4932" lon="-1.77769">
        <ele>5.7</ele>
        <time>2020-06-03T11:54:48Z</time>
      </trkpt>
      <trkpt lat="46.49322" lon="-1.77772">
        <ele>5.7</ele>
        <time>2020-06-03T11:54:49Z</time>
      </trkpt>
      <trkpt lat="46.49322" lon="-1.77773">
        <ele>5.7</ele>
        <time>2020-06-03T11:54:50Z</time>
      </trkpt>
      <trkpt lat="46.49323" lon="-1.77776">
        <ele>5.7</ele>
        <time>2020-06-03T11:54:51Z</time>
      </trkpt>
      <trkpt lat="46.49323" lon="-1.77778">
        <ele>5.7</ele>
        <time>2020-06-03T11:54:52Z</time>
      </trkpt>
      <trkpt lat="46.49324" lon="-1.7778">
        <ele>5.7</ele>
        <time>2020-06-03T11:54:53Z</time>
      </trkpt>
      <trkpt lat="46.49325" lon="-1.77782">
        <ele>5.7</ele>
        <time>2020-06-03T11:54:54Z</time>
      </trkpt>
      <trkpt lat="46.49326" lon="-1.77784">
        <ele>5.7</ele>
        <time>2020-06-03T11:54:55Z</time>
      </trkpt>
      <trkpt lat="46.49327" lon="-1.77785">
        <ele>5.7</ele>
        <time>2020-06-03T11:54:56Z</time>
      </trkpt>
      <trkpt lat="46.49327" lon="-1.77787">
        <ele>5.7</ele>
        <time>2020-06-03T11:54:57Z</time>
      </trkpt>
      <trkpt lat="46.49328" lon="-1.77788">
        <ele>5.7</ele>
        <time>2020-06-03T11:54:58Z</time>
      </trkpt>
      <trkpt lat="46.49329" lon="-1.77789">
        <ele>5.7</ele>
        <time>2020-06-03T11:54:59Z</time>
      </trkpt>
      <trkpt lat="46.4933" lon="-1.77789">
        <ele>5.7</ele>
        <time>2020-06-03T11:55:00Z</time>
      </trkpt>
      <trkpt lat="46.4933" lon="-1.7779">
        <ele>5.7</ele>
        <time>2020-06-03T11:55:01Z</time>
      </trkpt>
      <trkpt lat="46.49327" lon="-1.77792">
        <ele>5.7</ele>
        <time>2020-06-03T11:55:02Z</time>
      </trkpt>
      <trkpt lat="46.49326" lon="-1.77791">
        <ele>5.7</ele>
        <time>2020-06-03T11:55:03Z</time>
      </trkpt>
      <trkpt lat="46.49325" lon="-1.77793">
        <ele>5.7</ele>
        <time>2020-06-03T11:55:04Z</time>
      </trkpt>
      <trkpt lat="46.49324" lon="-1.77794">
        <ele>5.7</ele>
        <time>2020-06-03T11:55:05Z</time>
      </trkpt>
      <trkpt lat="46.49323" lon="-1.77796">
        <ele>5.7</ele>
        <time>2020-06-03T11:55:06Z</time>
      </trkpt>
      <trkpt lat="46.49322" lon="-1.77798">
        <ele>5.7</ele>
        <time>2020-06-03T11:55:07Z</time>
      </trkpt>
      <trkpt lat="46.49322" lon="-1.77799">
        <ele>5.7</ele>
        <time>2020-06-03T11:55:08Z</time>
      </trkpt>
      <trkpt lat="46.49322" lon="-1.778">
        <ele>5.7</ele>
        <time>2020-06-03T11:55:09Z</time>
      </trkpt>
      <trkpt lat="46.49322" lon="-1.77802">
        <ele>5.8</ele>
        <time>2020-06-03T11:55:10Z</time>
      </trkpt>
      <trkpt lat="46.49322" lon="-1.77803">
        <ele>5.8</ele>
        <time>2020-06-03T11:55:11Z</time>
      </trkpt>
      <trkpt lat="46.49322" lon="-1.77805">
        <ele>5.8</ele>
        <time>2020-06-03T11:55:12Z</time>
      </trkpt>
      <trkpt lat="46.49322" lon="-1.77806">
        <ele>5.8</ele>
        <time>2020-06-03T11:55:13Z</time>
      </trkpt>
      <trkpt lat="46.49322" lon="-1.77807">
        <ele>5.8</ele>
        <time>2020-06-03T11:55:14Z</time>
      </trkpt>
      <trkpt lat="46.49322" lon="-1.77808">
        <ele>5.8</ele>
        <time>2020-06-03T11:55:15Z</time>
      </trkpt>
      <trkpt lat="46.49321" lon="-1.77808">
        <ele>5.8</ele>
        <time>2020-06-03T11:55:16Z</time>
      </trkpt>
      <trkpt lat="46.49321" lon="-1.77809">
        <ele>5.8</ele>
        <time>2020-06-03T11:55:17Z</time>
      </trkpt>
      <trkpt lat="46.4932" lon="-1.7781">
        <ele>5.8</ele>
        <time>2020-06-03T11:55:18Z</time>
      </trkpt>
      <trkpt lat="46.49319" lon="-1.77811">
        <ele>5.8</ele>
        <time>2020-06-03T11:55:19Z</time>
      </trkpt>
      <trkpt lat="46.4932" lon="-1.77812">
        <ele>5.8</ele>
        <time>2020-06-03T11:55:20Z</time>
      </trkpt>
      <trkpt lat="46.49321" lon="-1.77812">
        <ele>5.8</ele>
        <time>2020-06-03T11:55:21Z</time>
      </trkpt>
      <trkpt lat="46.49322" lon="-1.77813">
        <ele>5.8</ele>
        <time>2020-06-03T11:55:22Z</time>
      </trkpt>
      <trkpt lat="46.49322" lon="-1.77814">
        <ele>5.8</ele>
        <time>2020-06-03T11:55:23Z</time>
      </trkpt>
      <trkpt lat="46.49323" lon="-1.77814">
        <ele>5.8</ele>
        <time>2020-06-03T11:55:24Z</time>
      </trkpt>
      <trkpt lat="46.49325" lon="-1.77816">
        <ele>5.8</ele>
        <time>2020-06-03T11:55:25Z</time>
      </trkpt>
      <trkpt lat="46.49325" lon="-1.77817">
        <ele>5.8</ele>
        <time>2020-06-03T11:55:26Z</time>
      </trkpt>
      <trkpt lat="46.49326" lon="-1.77819">
        <ele>5.8</ele>
        <time>2020-06-03T11:55:27Z</time>
      </trkpt>
      <trkpt lat="46.49326" lon="-1.77821">
        <ele>5.8</ele>
        <time>2020-06-03T11:55:28Z</time>
      </trkpt>
      <trkpt lat="46.49327" lon="-1.77821">
        <ele>5.8</ele>
        <time>2020-06-03T11:55:29Z</time>
      </trkpt>
      <trkpt lat="46.49327" lon="-1.77822">
        <ele>5.8</ele>
        <time>2020-06-03T11:55:30Z</time>
      </trkpt>
      <trkpt lat="46.49328" lon="-1.77823">
        <ele>5.8</ele>
        <time>2020-06-03T11:55:31Z</time>
      </trkpt>
      <trkpt lat="46.49327" lon="-1.77823">
        <ele>5.8</ele>
        <time>2020-06-03T11:55:32Z</time>
      </trkpt>
      <trkpt lat="46.49327" lon="-1.77824">
        <ele>5.8</ele>
        <time>2020-06-03T11:55:33Z</time>
      </trkpt>
      <trkpt lat="46.49328" lon="-1.77824">
        <ele>5.8</ele>
        <time>2020-06-03T11:55:34Z</time>
      </trkpt>
      <trkpt lat="46.49328" lon="-1.77824">
        <ele>5.8</ele>
        <time>2020-06-03T11:55:35Z</time>
      </trkpt>
      <trkpt lat="46.49327" lon="-1.77825">
        <ele>5.8</ele>
        <time>2020-06-03T11:55:36Z</time>
      </trkpt>
      <trkpt lat="46.49326" lon="-1.77825">
        <ele>5.8</ele>
        <time>2020-06-03T11:55:37Z</time>
      </trkpt>
      <trkpt lat="46.49325" lon="-1.77825">
        <ele>5.8</ele>
        <time>2020-06-03T11:55:38Z</time>
      </trkpt>
      <trkpt lat="46.49325" lon="-1.77826">
        <ele>5.8</ele>
        <time>2020-06-03T11:55:39Z</time>
      </trkpt>
      <trkpt lat="46.49325" lon="-1.77826">
        <ele>5.8</ele>
        <time>2020-06-03T11:55:40Z</time>
      </trkpt>
      <trkpt lat="46.49325" lon="-1.77826">
        <ele>5.8</ele>
        <time>2020-06-03T11:55:41Z</time>
      </trkpt>
      <trkpt lat="46.49326" lon="-1.77825">
        <ele>5.8</ele>
        <time>2020-06-03T11:55:42Z</time>
      </trkpt>
      <trkpt lat="46.49326" lon="-1.77825">
        <ele>5.8</ele>
        <time>2020-06-03T11:55:43Z</time>
      </trkpt>
      <trkpt lat="46.49327" lon="-1.77825">
        <ele>5.8</ele>
        <time>2020-06-03T11:55:44Z</time>
      </trkpt>
      <trkpt lat="46.49327" lon="-1.77833">
        <ele>5.8</ele>
        <time>2020-06-03T11:55:48Z</time>
      </trkpt>
      <trkpt lat="46.49328" lon="-1.77834">
        <ele>5.8</ele>
        <time>2020-06-03T11:55:49Z</time>
      </trkpt>
      <trkpt lat="46.49329" lon="-1.77836">
        <ele>5.8</ele>
        <time>2020-06-03T11:55:50Z</time>
      </trkpt>
      <trkpt lat="46.4933" lon="-1.77838">
        <ele>5.9</ele>
        <time>2020-06-03T11:55:51Z</time>
      </trkpt>
      <trkpt lat="46.4933" lon="-1.7784">
        <ele>5.9</ele>
        <time>2020-06-03T11:55:52Z</time>
      </trkpt>
      <trkpt lat="46.49331" lon="-1.77842">
        <ele>5.9</ele>
        <time>2020-06-03T11:55:53Z</time>
      </trkpt>
      <trkpt lat="46.49332" lon="-1.77843">
        <ele>5.9</ele>
        <time>2020-06-03T11:55:54Z</time>
      </trkpt>
      <trkpt lat="46.49334" lon="-1.77844">
        <ele>5.9</ele>
        <time>2020-06-03T11:55:55Z</time>
      </trkpt>
      <trkpt lat="46.49335" lon="-1.77845">
        <ele>5.9</ele>
        <time>2020-06-03T11:55:56Z</time>
      </trkpt>
      <trkpt lat="46.49334" lon="-1.77848">
        <ele>5.9</ele>
        <time>2020-06-03T11:55:57Z</time>
      </trkpt>
      <trkpt lat="46.49334" lon="-1.77849">
        <ele>5.9</ele>
        <time>2020-06-03T11:55:58Z</time>
      </trkpt>
      <trkpt lat="46.49336" lon="-1.77851">
        <ele>5.9</ele>
        <time>2020-06-03T11:55:59Z</time>
      </trkpt>
      <trkpt lat="46.49337" lon="-1.77851">
        <ele>5.9</ele>
        <time>2020-06-03T11:56:00Z</time>
      </trkpt>
      <trkpt lat="46.49338" lon="-1.77852">
        <ele>5.9</ele>
        <time>2020-06-03T11:56:01Z</time>
      </trkpt>
      <trkpt lat="46.49339" lon="-1.77855">
        <ele>5.9</ele>
        <time>2020-06-03T11:56:02Z</time>
      </trkpt>
      <trkpt lat="46.49339" lon="-1.77856">
        <ele>5.9</ele>
        <time>2020-06-03T11:56:03Z</time>
      </trkpt>
      <trkpt lat="46.4934" lon="-1.77857">
        <ele>5.9</ele>
        <time>2020-06-03T11:56:04Z</time>
      </trkpt>
      <trkpt lat="46.49341" lon="-1.77858">
        <ele>5.9</ele>
        <time>2020-06-03T11:56:05Z</time>
      </trkpt>
      <trkpt lat="46.49341" lon="-1.77861">
        <ele>5.9</ele>
        <time>2020-06-03T11:56:06Z</time>
      </trkpt>
      <trkpt lat="46.49342" lon="-1.77863">
        <ele>5.9</ele>
        <time>2020-06-03T11:56:07Z</time>
      </trkpt>
      <trkpt lat="46.49343" lon="-1.77865">
        <ele>5.9</ele>
        <time>2020-06-03T11:56:08Z</time>
      </trkpt>
      <trkpt lat="46.49344" lon="-1.77866">
        <ele>5.9</ele>
        <time>2020-06-03T11:56:09Z</time>
      </trkpt>
      <trkpt lat="46.49345" lon="-1.77868">
        <ele>5.9</ele>
        <time>2020-06-03T11:56:10Z</time>
      </trkpt>
      <trkpt lat="46.49346" lon="-1.7787">
        <ele>5.9</ele>
        <time>2020-06-03T11:56:11Z</time>
      </trkpt>
      <trkpt lat="46.49347" lon="-1.77871">
        <ele>5.9</ele>
        <time>2020-06-03T11:56:12Z</time>
      </trkpt>
      <trkpt lat="46.49347" lon="-1.77872">
        <ele>5.9</ele>
        <time>2020-06-03T11:56:13Z</time>
      </trkpt>
      <trkpt lat="46.49349" lon="-1.77873">
        <ele>5.9</ele>
        <time>2020-06-03T11:56:14Z</time>
      </trkpt>
      <trkpt lat="46.4935" lon="-1.77875">
        <ele>5.9</ele>
        <time>2020-06-03T11:56:15Z</time>
      </trkpt>
      <trkpt lat="46.49351" lon="-1.77877">
        <ele>5.9</ele>
        <time>2020-06-03T11:56:16Z</time>
      </trkpt>
      <trkpt lat="46.49352" lon="-1.77878">
        <ele>5.9</ele>
        <time>2020-06-03T11:56:17Z</time>
      </trkpt>
      <trkpt lat="46.49352" lon="-1.77878">
        <ele>5.9</ele>
        <time>2020-06-03T11:56:18Z</time>
      </trkpt>
      <trkpt lat="46.49353" lon="-1.77881">
        <ele>5.9</ele>
        <time>2020-06-03T11:56:19Z</time>
      </trkpt>
      <trkpt lat="46.49353" lon="-1.77883">
        <ele>5.9</ele>
        <time>2020-06-03T11:56:20Z</time>
      </trkpt>
      <trkpt lat="46.49353" lon="-1.77884">
        <ele>5.9</ele>
        <time>2020-06-03T11:56:21Z</time>
      </trkpt>
      <trkpt lat="46.49354" lon="-1.77886">
        <ele>5.9</ele>
        <time>2020-06-03T11:56:22Z</time>
      </trkpt>
      <trkpt lat="46.49354" lon="-1.77888">
        <ele>5.9</ele>
        <time>2020-06-03T11:56:23Z</time>
      </trkpt>
      <trkpt lat="46.49355" lon="-1.77889">
        <ele>5.9</ele>
        <time>2020-06-03T11:56:24Z</time>
      </trkpt>
      <trkpt lat="46.49356" lon="-1.77891">
        <ele>5.9</ele>
        <time>2020-06-03T11:56:25Z</time>
      </trkpt>
      <trkpt lat="46.49356" lon="-1.77893">
        <ele>5.9</ele>
        <time>2020-06-03T11:56:26Z</time>
      </trkpt>
      <trkpt lat="46.49357" lon="-1.77894">
        <ele>5.9</ele>
        <time>2020-06-03T11:56:27Z</time>
      </trkpt>
      <trkpt lat="46.49358" lon="-1.77895">
        <ele>6</ele>
        <time>2020-06-03T11:56:28Z</time>
      </trkpt>
      <trkpt lat="46.49359" lon="-1.77897">
        <ele>6</ele>
        <time>2020-06-03T11:56:29Z</time>
      </trkpt>
      <trkpt lat="46.4936" lon="-1.77898">
        <ele>6</ele>
        <time>2020-06-03T11:56:30Z</time>
      </trkpt>
      <trkpt lat="46.49361" lon="-1.779">
        <ele>6</ele>
        <time>2020-06-03T11:56:31Z</time>
      </trkpt>
      <trkpt lat="46.49361" lon="-1.77902">
        <ele>6</ele>
        <time>2020-06-03T11:56:32Z</time>
      </trkpt>
      <trkpt lat="46.49361" lon="-1.77905">
        <ele>6</ele>
        <time>2020-06-03T11:56:33Z</time>
      </trkpt>
      <trkpt lat="46.49361" lon="-1.77907">
        <ele>6</ele>
        <time>2020-06-03T11:56:34Z</time>
      </trkpt>
      <trkpt lat="46.49361" lon="-1.77908">
        <ele>6</ele>
        <time>2020-06-03T11:56:35Z</time>
      </trkpt>
      <trkpt lat="46.49362" lon="-1.77909">
        <ele>6</ele>
        <time>2020-06-03T11:56:36Z</time>
      </trkpt>
      <trkpt lat="46.49363" lon="-1.77911">
        <ele>6</ele>
        <time>2020-06-03T11:56:37Z</time>
      </trkpt>
      <trkpt lat="46.49364" lon="-1.77912">
        <ele>6</ele>
        <time>2020-06-03T11:56:38Z</time>
      </trkpt>
      <trkpt lat="46.49364" lon="-1.77913">
        <ele>6</ele>
        <time>2020-06-03T11:56:39Z</time>
      </trkpt>
      <trkpt lat="46.49365" lon="-1.77914">
        <ele>6</ele>
        <time>2020-06-03T11:56:40Z</time>
      </trkpt>
      <trkpt lat="46.49366" lon="-1.77915">
        <ele>6</ele>
        <time>2020-06-03T11:56:41Z</time>
      </trkpt>
      <trkpt lat="46.49366" lon="-1.77917">
        <ele>6</ele>
        <time>2020-06-03T11:56:42Z</time>
      </trkpt>
      <trkpt lat="46.49367" lon="-1.77918">
        <ele>6</ele>
        <time>2020-06-03T11:56:43Z</time>
      </trkpt>
      <trkpt lat="46.49367" lon="-1.77919">
        <ele>6</ele>
        <time>2020-06-03T11:56:44Z</time>
      </trkpt>
      <trkpt lat="46.49368" lon="-1.7792">
        <ele>6</ele>
        <time>2020-06-03T11:56:45Z</time>
      </trkpt>
      <trkpt lat="46.49369" lon="-1.7792">
        <ele>6</ele>
        <time>2020-06-03T11:56:46Z</time>
      </trkpt>
      <trkpt lat="46.4937" lon="-1.77921">
        <ele>6</ele>
        <time>2020-06-03T11:56:47Z</time>
      </trkpt>
      <trkpt lat="46.49371" lon="-1.77922">
        <ele>6</ele>
        <time>2020-06-03T11:56:48Z</time>
      </trkpt>
      <trkpt lat="46.49371" lon="-1.77923">
        <ele>6</ele>
        <time>2020-06-03T11:56:49Z</time>
      </trkpt>
      <trkpt lat="46.49371" lon="-1.77924">
        <ele>6</ele>
        <time>2020-06-03T11:56:50Z</time>
      </trkpt>
      <trkpt lat="46.4937" lon="-1.77926">
        <ele>6</ele>
        <time>2020-06-03T11:56:51Z</time>
      </trkpt>
      <trkpt lat="46.49371" lon="-1.77927">
        <ele>6</ele>
        <time>2020-06-03T11:56:52Z</time>
      </trkpt>
      <trkpt lat="46.49372" lon="-1.77927">
        <ele>6</ele>
        <time>2020-06-03T11:56:53Z</time>
      </trkpt>
      <trkpt lat="46.49372" lon="-1.77929">
        <ele>6</ele>
        <time>2020-06-03T11:56:54Z</time>
      </trkpt>
      <trkpt lat="46.49374" lon="-1.77931">
        <ele>6</ele>
        <time>2020-06-03T11:56:55Z</time>
      </trkpt>
      <trkpt lat="46.49373" lon="-1.77932">
        <ele>6</ele>
        <time>2020-06-03T11:56:56Z</time>
      </trkpt>
      <trkpt lat="46.49373" lon="-1.77934">
        <ele>6</ele>
        <time>2020-06-03T11:56:57Z</time>
      </trkpt>
      <trkpt lat="46.49373" lon="-1.77937">
        <ele>6</ele>
        <time>2020-06-03T11:56:58Z</time>
      </trkpt>
      <trkpt lat="46.49373" lon="-1.77938">
        <ele>6</ele>
        <time>2020-06-03T11:56:59Z</time>
      </trkpt>
      <trkpt lat="46.49374" lon="-1.77939">
        <ele>6</ele>
        <time>2020-06-03T11:57:00Z</time>
      </trkpt>
      <trkpt lat="46.49375" lon="-1.7794">
        <ele>6</ele>
        <time>2020-06-03T11:57:01Z</time>
      </trkpt>
      <trkpt lat="46.49376" lon="-1.77942">
        <ele>6</ele>
        <time>2020-06-03T11:57:02Z</time>
      </trkpt>
      <trkpt lat="46.49375" lon="-1.77943">
        <ele>6</ele>
        <time>2020-06-03T11:57:03Z</time>
      </trkpt>
      <trkpt lat="46.49376" lon="-1.77944">
        <ele>6</ele>
        <time>2020-06-03T11:57:04Z</time>
      </trkpt>
      <trkpt lat="46.49376" lon="-1.77946">
        <ele>6</ele>
        <time>2020-06-03T11:57:05Z</time>
      </trkpt>
      <trkpt lat="46.49376" lon="-1.77948">
        <ele>6</ele>
        <time>2020-06-03T11:57:06Z</time>
      </trkpt>
      <trkpt lat="46.49378" lon="-1.77949">
        <ele>6</ele>
        <time>2020-06-03T11:57:07Z</time>
      </trkpt>
      <trkpt lat="46.4938" lon="-1.7795">
        <ele>6</ele>
        <time>2020-06-03T11:57:08Z</time>
      </trkpt>
      <trkpt lat="46.4938" lon="-1.7795">
        <ele>6</ele>
        <time>2020-06-03T11:57:09Z</time>
      </trkpt>
      <trkpt lat="46.49381" lon="-1.77952">
        <ele>6.1</ele>
        <time>2020-06-03T11:57:10Z</time>
      </trkpt>
      <trkpt lat="46.49381" lon="-1.77953">
        <ele>6.1</ele>
        <time>2020-06-03T11:57:11Z</time>
      </trkpt>
      <trkpt lat="46.49383" lon="-1.77954">
        <ele>6.1</ele>
        <time>2020-06-03T11:57:12Z</time>
      </trkpt>
      <trkpt lat="46.49382" lon="-1.77956">
        <ele>6.1</ele>
        <time>2020-06-03T11:57:13Z</time>
      </trkpt>
      <trkpt lat="46.49383" lon="-1.77956">
        <ele>6.1</ele>
        <time>2020-06-03T11:57:14Z</time>
      </trkpt>
      <trkpt lat="46.49383" lon="-1.77957">
        <ele>6.1</ele>
        <time>2020-06-03T11:57:15Z</time>
      </trkpt>
      <trkpt lat="46.49383" lon="-1.77957">
        <ele>6.1</ele>
        <time>2020-06-03T11:57:16Z</time>
      </trkpt>
      <trkpt lat="46.49382" lon="-1.77958">
        <ele>6.1</ele>
        <time>2020-06-03T11:57:17Z</time>
      </trkpt>
      <trkpt lat="46.49382" lon="-1.77959">
        <ele>6.1</ele>
        <time>2020-06-03T11:57:18Z</time>
      </trkpt>
      <trkpt lat="46.49383" lon="-1.77959">
        <ele>6.1</ele>
        <time>2020-06-03T11:57:19Z</time>
      </trkpt>
      <trkpt lat="46.49384" lon="-1.77959">
        <ele>6.1</ele>
        <time>2020-06-03T11:57:20Z</time>
      </trkpt>
      <trkpt lat="46.49384" lon="-1.77959">
        <ele>6.1</ele>
        <time>2020-06-03T11:57:21Z</time>
      </trkpt>
      <trkpt lat="46.49387" lon="-1.7796">
        <ele>6.1</ele>
        <time>2020-06-03T11:57:22Z</time>
      </trkpt>
      <trkpt lat="46.49388" lon="-1.77961">
        <ele>6.1</ele>
        <time>2020-06-03T11:57:23Z</time>
      </trkpt>
      <trkpt lat="46.49389" lon="-1.77962">
        <ele>6.1</ele>
        <time>2020-06-03T11:57:24Z</time>
      </trkpt>
      <trkpt lat="46.49389" lon="-1.77963">
        <ele>6.1</ele>
        <time>2020-06-03T11:57:25Z</time>
      </trkpt>
      <trkpt lat="46.49389" lon="-1.77964">
        <ele>6.1</ele>
        <time>2020-06-03T11:57:26Z</time>
      </trkpt>
      <trkpt lat="46.49389" lon="-1.77967">
        <ele>6.1</ele>
        <time>2020-06-03T11:57:27Z</time>
      </trkpt>
      <trkpt lat="46.49389" lon="-1.77969">
        <ele>6.1</ele>
        <time>2020-06-03T11:57:28Z</time>
      </trkpt>
      <trkpt lat="46.4939" lon="-1.7797">
        <ele>6.1</ele>
        <time>2020-06-03T11:57:29Z</time>
      </trkpt>
      <trkpt lat="46.4939" lon="-1.77972">
        <ele>6.1</ele>
        <time>2020-06-03T11:57:30Z</time>
      </trkpt>
      <trkpt lat="46.4939" lon="-1.77973">
        <ele>6.1</ele>
        <time>2020-06-03T11:57:31Z</time>
      </trkpt>
      <trkpt lat="46.49391" lon="-1.77974">
        <ele>6.1</ele>
        <time>2020-06-03T11:57:32Z</time>
      </trkpt>
      <trkpt lat="46.49392" lon="-1.77976">
        <ele>6.1</ele>
        <time>2020-06-03T11:57:33Z</time>
      </trkpt>
      <trkpt lat="46.49393" lon="-1.77977">
        <ele>6.1</ele>
        <time>2020-06-03T11:57:34Z</time>
      </trkpt>
      <trkpt lat="46.49393" lon="-1.77979">
        <ele>6.1</ele>
        <time>2020-06-03T11:57:35Z</time>
      </trkpt>
      <trkpt lat="46.49393" lon="-1.77981">
        <ele>6.1</ele>
        <time>2020-06-03T11:57:36Z</time>
      </trkpt>
      <trkpt lat="46.49393" lon="-1.77982">
        <ele>6.1</ele>
        <time>2020-06-03T11:57:37Z</time>
      </trkpt>
      <trkpt lat="46.49393" lon="-1.77985">
        <ele>6.1</ele>
        <time>2020-06-03T11:57:38Z</time>
      </trkpt>
      <trkpt lat="46.49393" lon="-1.77986">
        <ele>6.1</ele>
        <time>2020-06-03T11:57:39Z</time>
      </trkpt>
      <trkpt lat="46.49393" lon="-1.77987">
        <ele>6.1</ele>
        <time>2020-06-03T11:57:40Z</time>
      </trkpt>
      <trkpt lat="46.49393" lon="-1.77989">
        <ele>6.1</ele>
        <time>2020-06-03T11:57:41Z</time>
      </trkpt>
      <trkpt lat="46.49394" lon="-1.77991">
        <ele>6.1</ele>
        <time>2020-06-03T11:57:42Z</time>
      </trkpt>
      <trkpt lat="46.49395" lon="-1.77992">
        <ele>6.1</ele>
        <time>2020-06-03T11:57:43Z</time>
      </trkpt>
      <trkpt lat="46.49396" lon="-1.77993">
        <ele>6.1</ele>
        <time>2020-06-03T11:57:44Z</time>
      </trkpt>
      <trkpt lat="46.49395" lon="-1.77995">
        <ele>6.1</ele>
        <time>2020-06-03T11:57:45Z</time>
      </trkpt>
      <trkpt lat="46.49395" lon="-1.77995">
        <ele>6.1</ele>
        <time>2020-06-03T11:57:46Z</time>
      </trkpt>
      <trkpt lat="46.49395" lon="-1.77995">
        <ele>6.1</ele>
        <time>2020-06-03T11:57:47Z</time>
      </trkpt>
      <trkpt lat="46.49394" lon="-1.77996">
        <ele>6.1</ele>
        <time>2020-06-03T11:57:48Z</time>
      </trkpt>
      <trkpt lat="46.49394" lon="-1.77996">
        <ele>6.1</ele>
        <time>2020-06-03T11:57:49Z</time>
      </trkpt>
      <trkpt lat="46.49393" lon="-1.77997">
        <ele>6.1</ele>
        <time>2020-06-03T11:57:50Z</time>
      </trkpt>
      <trkpt lat="46.49393" lon="-1.77997">
        <ele>6.1</ele>
        <time>2020-06-03T11:57:51Z</time>
      </trkpt>
      <trkpt lat="46.49392" lon="-1.77997">
        <ele>6.1</ele>
        <time>2020-06-03T11:57:52Z</time>
      </trkpt>
      <trkpt lat="46.49392" lon="-1.77998">
        <ele>6.1</ele>
        <time>2020-06-03T11:57:53Z</time>
      </trkpt>
      <trkpt lat="46.49391" lon="-1.77998">
        <ele>6.1</ele>
        <time>2020-06-03T11:57:54Z</time>
      </trkpt>
      <trkpt lat="46.49392" lon="-1.77998">
        <ele>6.1</ele>
        <time>2020-06-03T11:57:55Z</time>
      </trkpt>
      <trkpt lat="46.49392" lon="-1.77998">
        <ele>6.1</ele>
        <time>2020-06-03T11:57:56Z</time>
      </trkpt>
      <trkpt lat="46.49393" lon="-1.77997">
        <ele>6.1</ele>
        <time>2020-06-03T11:57:57Z</time>
      </trkpt>
      <trkpt lat="46.49394" lon="-1.78004">
        <ele>6.2</ele>
        <time>2020-06-03T11:58:04Z</time>
      </trkpt>
      <trkpt lat="46.49394" lon="-1.78005">
        <ele>6.2</ele>
        <time>2020-06-03T11:58:05Z</time>
      </trkpt>
      <trkpt lat="46.49394" lon="-1.78006">
        <ele>6.2</ele>
        <time>2020-06-03T11:58:06Z</time>
      </trkpt>
      <trkpt lat="46.49395" lon="-1.78007">
        <ele>6.2</ele>
        <time>2020-06-03T11:58:07Z</time>
      </trkpt>
      <trkpt lat="46.49395" lon="-1.78008">
        <ele>6.2</ele>
        <time>2020-06-03T11:58:08Z</time>
      </trkpt>
      <trkpt lat="46.49395" lon="-1.7801">
        <ele>6.2</ele>
        <time>2020-06-03T11:58:09Z</time>
      </trkpt>
      <trkpt lat="46.49396" lon="-1.7801">
        <ele>6.2</ele>
        <time>2020-06-03T11:58:10Z</time>
      </trkpt>
      <trkpt lat="46.49396" lon="-1.78011">
        <ele>6.2</ele>
        <time>2020-06-03T11:58:11Z</time>
      </trkpt>
      <trkpt lat="46.49396" lon="-1.78012">
        <ele>6.2</ele>
        <time>2020-06-03T11:58:12Z</time>
      </trkpt>
      <trkpt lat="46.49395" lon="-1.78012">
        <ele>6.2</ele>
        <time>2020-06-03T11:58:13Z</time>
      </trkpt>
      <trkpt lat="46.49395" lon="-1.78012">
        <ele>6.2</ele>
        <time>2020-06-03T11:58:14Z</time>
      </trkpt>
      <trkpt lat="46.49394" lon="-1.78011">
        <ele>6.2</ele>
        <time>2020-06-03T11:58:15Z</time>
      </trkpt>
      <trkpt lat="46.49393" lon="-1.78011">
        <ele>6.2</ele>
        <time>2020-06-03T11:58:16Z</time>
      </trkpt>
      <trkpt lat="46.49392" lon="-1.7801">
        <ele>6.2</ele>
        <time>2020-06-03T11:58:17Z</time>
      </trkpt>
      <trkpt lat="46.49393" lon="-1.78011">
        <ele>6.2</ele>
        <time>2020-06-03T11:58:18Z</time>
      </trkpt>
      <trkpt lat="46.49393" lon="-1.78011">
        <ele>6.2</ele>
        <time>2020-06-03T11:58:19Z</time>
      </trkpt>
      <trkpt lat="46.49393" lon="-1.78011">
        <ele>6.2</ele>
        <time>2020-06-03T11:58:20Z</time>
      </trkpt>
      <trkpt lat="46.49393" lon="-1.78011">
        <ele>6.2</ele>
        <time>2020-06-03T11:58:21Z</time>
      </trkpt>
      <trkpt lat="46.49392" lon="-1.78011">
        <ele>6.2</ele>
        <time>2020-06-03T11:58:22Z</time>
      </trkpt>
      <trkpt lat="46.49391" lon="-1.78011">
        <ele>6.2</ele>
        <time>2020-06-03T11:58:23Z</time>
      </trkpt>
      <trkpt lat="46.49391" lon="-1.78011">
        <ele>6.2</ele>
        <time>2020-06-03T11:58:24Z</time>
      </trkpt>
      <trkpt lat="46.49389" lon="-1.78011">
        <ele>6.2</ele>
        <time>2020-06-03T11:58:25Z</time>
      </trkpt>
      <trkpt lat="46.49388" lon="-1.7801">
        <ele>6.2</ele>
        <time>2020-06-03T11:58:26Z</time>
      </trkpt>
      <trkpt lat="46.49392" lon="-1.78018">
        <ele>6.2</ele>
        <time>2020-06-03T13:01:59Z</time>
      </trkpt>
      <trkpt lat="46.49393" lon="-1.78019">
        <ele>6.2</ele>
        <time>2020-06-03T13:02:00Z</time>
      </trkpt>
      <trkpt lat="46.49394" lon="-1.78019">
        <ele>6.2</ele>
        <time>2020-06-03T13:02:01Z</time>
      </trkpt>
      <trkpt lat="46.49394" lon="-1.7802">
        <ele>6.2</ele>
        <time>2020-06-03T13:02:02Z</time>
      </trkpt>
      <trkpt lat="46.49395" lon="-1.78021">
        <ele>6.2</ele>
        <time>2020-06-03T13:02:03Z</time>
      </trkpt>
      <trkpt lat="46.49395" lon="-1.78022">
        <ele>6.2</ele>
        <time>2020-06-03T13:02:04Z</time>
      </trkpt>
      <trkpt lat="46.49397" lon="-1.78026">
        <ele>6.2</ele>
        <time>2020-06-03T13:02:05Z</time>
      </trkpt>
      <trkpt lat="46.49398" lon="-1.78027">
        <ele>6.2</ele>
        <time>2020-06-03T13:02:06Z</time>
      </trkpt>
      <trkpt lat="46.49399" lon="-1.7803">
        <ele>6.2</ele>
        <time>2020-06-03T13:02:07Z</time>
      </trkpt>
      <trkpt lat="46.49402" lon="-1.78033">
        <ele>6.2</ele>
        <time>2020-06-03T13:02:08Z</time>
      </trkpt>
      <trkpt lat="46.49405" lon="-1.78038">
        <ele>6.2</ele>
        <time>2020-06-03T13:02:09Z</time>
      </trkpt>
      <trkpt lat="46.49406" lon="-1.7804">
        <ele>6.2</ele>
        <time>2020-06-03T13:02:10Z</time>
      </trkpt>
      <trkpt lat="46.49407" lon="-1.78044">
        <ele>6.2</ele>
        <time>2020-06-03T13:02:11Z</time>
      </trkpt>
      <trkpt lat="46.49409" lon="-1.78048">
        <ele>6.2</ele>
        <time>2020-06-03T13:02:12Z</time>
      </trkpt>
      <trkpt lat="46.4941" lon="-1.78053">
        <ele>6.2</ele>
        <time>2020-06-03T13:02:13Z</time>
      </trkpt>
      <trkpt lat="46.4941" lon="-1.78057">
        <ele>6.2</ele>
        <time>2020-06-03T13:02:14Z</time>
      </trkpt>
      <trkpt lat="46.49411" lon="-1.7806">
        <ele>6.2</ele>
        <time>2020-06-03T13:02:15Z</time>
      </trkpt>
      <trkpt lat="46.49412" lon="-1.78061">
        <ele>6.2</ele>
        <time>2020-06-03T13:02:16Z</time>
      </trkpt>
      <trkpt lat="46.49413" lon="-1.78064">
        <ele>6.2</ele>
        <time>2020-06-03T13:02:17Z</time>
      </trkpt>
      <trkpt lat="46.49413" lon="-1.78065">
        <ele>6.2</ele>
        <time>2020-06-03T13:02:18Z</time>
      </trkpt>
      <trkpt lat="46.49413" lon="-1.78066">
        <ele>6.2</ele>
        <time>2020-06-03T13:02:19Z</time>
      </trkpt>
      <trkpt lat="46.49413" lon="-1.78067">
        <ele>6.2</ele>
        <time>2020-06-03T13:02:20Z</time>
      </trkpt>
      <trkpt lat="46.49414" lon="-1.78071">
        <ele>6.2</ele>
        <time>2020-06-03T13:02:21Z</time>
      </trkpt>
      <trkpt lat="46.49414" lon="-1.78073">
        <ele>6.2</ele>
        <time>2020-06-03T13:02:22Z</time>
      </trkpt>
      <trkpt lat="46.49415" lon="-1.78078">
        <ele>6.2</ele>
        <time>2020-06-03T13:02:23Z</time>
      </trkpt>
      <trkpt lat="46.49416" lon="-1.7808">
        <ele>6.2</ele>
        <time>2020-06-03T13:02:24Z</time>
      </trkpt>
      <trkpt lat="46.49418" lon="-1.78084">
        <ele>6.2</ele>
        <time>2020-06-03T13:02:25Z</time>
      </trkpt>
      <trkpt lat="46.49419" lon="-1.78086">
        <ele>6.2</ele>
        <time>2020-06-03T13:02:26Z</time>
      </trkpt>
      <trkpt lat="46.4942" lon="-1.78091">
        <ele>6.2</ele>
        <time>2020-06-03T13:02:27Z</time>
      </trkpt>
      <trkpt lat="46.4942" lon="-1.78093">
        <ele>6.2</ele>
        <time>2020-06-03T13:02:28Z</time>
      </trkpt>
      <trkpt lat="46.49421" lon="-1.78097">
        <ele>6.2</ele>
        <time>2020-06-03T13:02:29Z</time>
      </trkpt>
      <trkpt lat="46.49421" lon="-1.78098">
        <ele>6.2</ele>
        <time>2020-06-03T13:02:30Z</time>
      </trkpt>
      <trkpt lat="46.49422" lon="-1.781">
        <ele>6.2</ele>
        <time>2020-06-03T13:02:31Z</time>
      </trkpt>
      <trkpt lat="46.49423" lon="-1.78102">
        <ele>6.2</ele>
        <time>2020-06-03T13:02:32Z</time>
      </trkpt>
      <trkpt lat="46.49424" lon="-1.78102">
        <ele>6.2</ele>
        <time>2020-06-03T13:02:33Z</time>
      </trkpt>
      <trkpt lat="46.49424" lon="-1.78105">
        <ele>6.2</ele>
        <time>2020-06-03T13:02:34Z</time>
      </trkpt>
      <trkpt lat="46.49425" lon="-1.78106">
        <ele>6.2</ele>
        <time>2020-06-03T13:02:35Z</time>
      </trkpt>
      <trkpt lat="46.49427" lon="-1.78109">
        <ele>6.2</ele>
        <time>2020-06-03T13:02:36Z</time>
      </trkpt>
      <trkpt lat="46.49427" lon="-1.78111">
        <ele>6.2</ele>
        <time>2020-06-03T13:02:37Z</time>
      </trkpt>
      <trkpt lat="46.49428" lon="-1.78116">
        <ele>6.2</ele>
        <time>2020-06-03T13:02:38Z</time>
      </trkpt>
      <trkpt lat="46.49429" lon="-1.78118">
        <ele>6.2</ele>
        <time>2020-06-03T13:02:39Z</time>
      </trkpt>
      <trkpt lat="46.4943" lon="-1.78123">
        <ele>6.2</ele>
        <time>2020-06-03T13:02:40Z</time>
      </trkpt>
      <trkpt lat="46.49431" lon="-1.78127">
        <ele>6.2</ele>
        <time>2020-06-03T13:02:41Z</time>
      </trkpt>
      <trkpt lat="46.49433" lon="-1.78132">
        <ele>6.2</ele>
        <time>2020-06-03T13:02:42Z</time>
      </trkpt>
      <trkpt lat="46.49433" lon="-1.78136">
        <ele>6.2</ele>
        <time>2020-06-03T13:02:43Z</time>
      </trkpt>
      <trkpt lat="46.49434" lon="-1.78141">
        <ele>6.2</ele>
        <time>2020-06-03T13:02:44Z</time>
      </trkpt>
      <trkpt lat="46.49434" lon="-1.78144">
        <ele>6.1</ele>
        <time>2020-06-03T13:02:45Z</time>
      </trkpt>
      <trkpt lat="46.49436" lon="-1.78148">
        <ele>6.1</ele>
        <time>2020-06-03T13:02:46Z</time>
      </trkpt>
      <trkpt lat="46.49436" lon="-1.78153">
        <ele>6.1</ele>
        <time>2020-06-03T13:02:47Z</time>
      </trkpt>
      <trkpt lat="46.49437" lon="-1.78155">
        <ele>6.1</ele>
        <time>2020-06-03T13:02:48Z</time>
      </trkpt>
      <trkpt lat="46.49438" lon="-1.78159">
        <ele>6.1</ele>
        <time>2020-06-03T13:02:49Z</time>
      </trkpt>
      <trkpt lat="46.49438" lon="-1.78161">
        <ele>6.1</ele>
        <time>2020-06-03T13:02:50Z</time>
      </trkpt>
      <trkpt lat="46.49439" lon="-1.78162">
        <ele>6.1</ele>
        <time>2020-06-03T13:02:51Z</time>
      </trkpt>
      <trkpt lat="46.4944" lon="-1.78163">
        <ele>6.1</ele>
        <time>2020-06-03T13:02:52Z</time>
      </trkpt>
      <trkpt lat="46.4944" lon="-1.78165">
        <ele>6.1</ele>
        <time>2020-06-03T13:02:53Z</time>
      </trkpt>
      <trkpt lat="46.4944" lon="-1.78166">
        <ele>6.1</ele>
        <time>2020-06-03T13:02:54Z</time>
      </trkpt>
      <trkpt lat="46.4944" lon="-1.78169">
        <ele>6.1</ele>
        <time>2020-06-03T13:02:55Z</time>
      </trkpt>
      <trkpt lat="46.49441" lon="-1.78171">
        <ele>6.1</ele>
        <time>2020-06-03T13:02:56Z</time>
      </trkpt>
      <trkpt lat="46.49441" lon="-1.78171">
        <ele>6.1</ele>
        <time>2020-06-03T13:02:57Z</time>
      </trkpt>
      <trkpt lat="46.49442" lon="-1.78172">
        <ele>6.1</ele>
        <time>2020-06-03T13:02:58Z</time>
      </trkpt>
      <trkpt lat="46.49443" lon="-1.78173">
        <ele>6.1</ele>
        <time>2020-06-03T13:02:59Z</time>
      </trkpt>
      <trkpt lat="46.49444" lon="-1.78173">
        <ele>6.1</ele>
        <time>2020-06-03T13:03:00Z</time>
      </trkpt>
      <trkpt lat="46.49445" lon="-1.78174">
        <ele>6.1</ele>
        <time>2020-06-03T13:03:01Z</time>
      </trkpt>
      <trkpt lat="46.49445" lon="-1.78175">
        <ele>6.1</ele>
        <time>2020-06-03T13:03:02Z</time>
      </trkpt>
      <trkpt lat="46.49446" lon="-1.78176">
        <ele>6.1</ele>
        <time>2020-06-03T13:03:03Z</time>
      </trkpt>
      <trkpt lat="46.49446" lon="-1.78177">
        <ele>6.1</ele>
        <time>2020-06-03T13:03:04Z</time>
      </trkpt>
      <trkpt lat="46.49446" lon="-1.78178">
        <ele>6.1</ele>
        <time>2020-06-03T13:03:05Z</time>
      </trkpt>
      <trkpt lat="46.49446" lon="-1.78178">
        <ele>6.1</ele>
        <time>2020-06-03T13:03:06Z</time>
      </trkpt>
      <trkpt lat="46.49447" lon="-1.78179">
        <ele>6.1</ele>
        <time>2020-06-03T13:03:07Z</time>
      </trkpt>
      <trkpt lat="46.49448" lon="-1.78181">
        <ele>6.1</ele>
        <time>2020-06-03T13:03:08Z</time>
      </trkpt>
      <trkpt lat="46.49448" lon="-1.78183">
        <ele>6.1</ele>
        <time>2020-06-03T13:03:09Z</time>
      </trkpt>
      <trkpt lat="46.49449" lon="-1.78188">
        <ele>6.1</ele>
        <time>2020-06-03T13:03:10Z</time>
      </trkpt>
      <trkpt lat="46.49449" lon="-1.78191">
        <ele>6.1</ele>
        <time>2020-06-03T13:03:11Z</time>
      </trkpt>
      <trkpt lat="46.4945" lon="-1.78194">
        <ele>6.1</ele>
        <time>2020-06-03T13:03:12Z</time>
      </trkpt>
      <trkpt lat="46.49452" lon="-1.78199">
        <ele>6</ele>
        <time>2020-06-03T13:03:13Z</time>
      </trkpt>
      <trkpt lat="46.49453" lon="-1.78203">
        <ele>6</ele>
        <time>2020-06-03T13:03:14Z</time>
      </trkpt>
      <trkpt lat="46.49455" lon="-1.78207">
        <ele>6</ele>
        <time>2020-06-03T13:03:15Z</time>
      </trkpt>
      <trkpt lat="46.49456" lon="-1.78209">
        <ele>6</ele>
        <time>2020-06-03T13:03:16Z</time>
      </trkpt>
      <trkpt lat="46.49456" lon="-1.78213">
        <ele>6</ele>
        <time>2020-06-03T13:03:17Z</time>
      </trkpt>
      <trkpt lat="46.49457" lon="-1.78218">
        <ele>6</ele>
        <time>2020-06-03T13:03:18Z</time>
      </trkpt>
      <trkpt lat="46.49457" lon="-1.7822">
        <ele>6</ele>
        <time>2020-06-03T13:03:19Z</time>
      </trkpt>
      <trkpt lat="46.49457" lon="-1.78224">
        <ele>6</ele>
        <time>2020-06-03T13:03:20Z</time>
      </trkpt>
      <trkpt lat="46.49459" lon="-1.78228">
        <ele>6</ele>
        <time>2020-06-03T13:03:21Z</time>
      </trkpt>
      <trkpt lat="46.49459" lon="-1.78233">
        <ele>6</ele>
        <time>2020-06-03T13:03:22Z</time>
      </trkpt>
      <trkpt lat="46.49459" lon="-1.78234">
        <ele>6</ele>
        <time>2020-06-03T13:03:23Z</time>
      </trkpt>
      <trkpt lat="46.4946" lon="-1.7824">
        <ele>6</ele>
        <time>2020-06-03T13:03:24Z</time>
      </trkpt>
      <trkpt lat="46.49461" lon="-1.78242">
        <ele>6</ele>
        <time>2020-06-03T13:03:25Z</time>
      </trkpt>
      <trkpt lat="46.49462" lon="-1.78246">
        <ele>6</ele>
        <time>2020-06-03T13:03:26Z</time>
      </trkpt>
      <trkpt lat="46.49462" lon="-1.78248">
        <ele>6</ele>
        <time>2020-06-03T13:03:27Z</time>
      </trkpt>
      <trkpt lat="46.49463" lon="-1.78253">
        <ele>6</ele>
        <time>2020-06-03T13:03:28Z</time>
      </trkpt>
      <trkpt lat="46.49463" lon="-1.78254">
        <ele>6</ele>
        <time>2020-06-03T13:03:29Z</time>
      </trkpt>
      <trkpt lat="46.49464" lon="-1.78259">
        <ele>6</ele>
        <time>2020-06-03T13:03:30Z</time>
      </trkpt>
      <trkpt lat="46.49464" lon="-1.78261">
        <ele>6</ele>
        <time>2020-06-03T13:03:31Z</time>
      </trkpt>
      <trkpt lat="46.49465" lon="-1.78267">
        <ele>6</ele>
        <time>2020-06-03T13:03:32Z</time>
      </trkpt>
      <trkpt lat="46.49465" lon="-1.78268">
        <ele>6</ele>
        <time>2020-06-03T13:03:33Z</time>
      </trkpt>
      <trkpt lat="46.49465" lon="-1.78269">
        <ele>6</ele>
        <time>2020-06-03T13:03:34Z</time>
      </trkpt>
      <trkpt lat="46.49465" lon="-1.78269">
        <ele>6</ele>
        <time>2020-06-03T13:03:35Z</time>
      </trkpt>
      <trkpt lat="46.49465" lon="-1.78269">
        <ele>6</ele>
        <time>2020-06-03T13:03:36Z</time>
      </trkpt>
      <trkpt lat="46.49465" lon="-1.7827">
        <ele>6</ele>
        <time>2020-06-03T13:03:37Z</time>
      </trkpt>
      <trkpt lat="46.49465" lon="-1.7827">
        <ele>6</ele>
        <time>2020-06-03T13:03:38Z</time>
      </trkpt>
      <trkpt lat="46.49465" lon="-1.7827">
        <ele>6</ele>
        <time>2020-06-03T13:03:39Z</time>
      </trkpt>
      <trkpt lat="46.49465" lon="-1.7827">
        <ele>6</ele>
        <time>2020-06-03T13:03:40Z</time>
      </trkpt>
      <trkpt lat="46.49465" lon="-1.78271">
        <ele>6</ele>
        <time>2020-06-03T13:03:41Z</time>
      </trkpt>
      <trkpt lat="46.49465" lon="-1.78271">
        <ele>6</ele>
        <time>2020-06-03T13:03:42Z</time>
      </trkpt>
      <trkpt lat="46.49465" lon="-1.78271">
        <ele>6</ele>
        <time>2020-06-03T13:03:43Z</time>
      </trkpt>
      <trkpt lat="46.49462" lon="-1.78265">
        <ele>6</ele>
        <time>2020-06-03T13:04:15Z</time>
      </trkpt>
      <trkpt lat="46.49461" lon="-1.78265">
        <ele>6</ele>
        <time>2020-06-03T13:04:16Z</time>
      </trkpt>
      <trkpt lat="46.4946" lon="-1.78266">
        <ele>6</ele>
        <time>2020-06-03T13:04:17Z</time>
      </trkpt>
      <trkpt lat="46.49459" lon="-1.78266">
        <ele>6</ele>
        <time>2020-06-03T13:04:18Z</time>
      </trkpt>
      <trkpt lat="46.49458" lon="-1.78267">
        <ele>6</ele>
        <time>2020-06-03T13:04:19Z</time>
      </trkpt>
      <trkpt lat="46.49458" lon="-1.78267">
        <ele>6</ele>
        <time>2020-06-03T13:04:20Z</time>
      </trkpt>
      <trkpt lat="46.49458" lon="-1.78267">
        <ele>6</ele>
        <time>2020-06-03T13:04:21Z</time>
      </trkpt>
      <trkpt lat="46.49457" lon="-1.78267">
        <ele>6</ele>
        <time>2020-06-03T13:04:22Z</time>
      </trkpt>
      <trkpt lat="46.49457" lon="-1.78268">
        <ele>6</ele>
        <time>2020-06-03T13:04:23Z</time>
      </trkpt>
      <trkpt lat="46.49457" lon="-1.78268">
        <ele>6</ele>
        <time>2020-06-03T13:04:24Z</time>
      </trkpt>
      <trkpt lat="46.49457" lon="-1.78268">
        <ele>6</ele>
        <time>2020-06-03T13:04:25Z</time>
      </trkpt>
      <trkpt lat="46.49457" lon="-1.78268">
        <ele>6</ele>
        <time>2020-06-03T13:04:26Z</time>
      </trkpt>
      <trkpt lat="46.49457" lon="-1.78268">
        <ele>6</ele>
        <time>2020-06-03T13:04:27Z</time>
      </trkpt>
      <trkpt lat="46.49457" lon="-1.78268">
        <ele>6</ele>
        <time>2020-06-03T13:04:28Z</time>
      </trkpt>
      <trkpt lat="46.49457" lon="-1.78268">
        <ele>6</ele>
        <time>2020-06-03T13:04:29Z</time>
      </trkpt>
      <trkpt lat="46.49457" lon="-1.78268">
        <ele>6</ele>
        <time>2020-06-03T13:04:30Z</time>
      </trkpt>
      <trkpt lat="46.49457" lon="-1.78268">
        <ele>6</ele>
        <time>2020-06-03T13:04:31Z</time>
      </trkpt>
      <trkpt lat="46.49457" lon="-1.78268">
        <ele>6</ele>
        <time>2020-06-03T13:04:32Z</time>
      </trkpt>
      <trkpt lat="46.49457" lon="-1.78268">
        <ele>6</ele>
        <time>2020-06-03T13:04:33Z</time>
      </trkpt>
      <trkpt lat="46.49451" lon="-1.78262">
        <ele>5.9</ele>
        <time>2020-06-03T13:05:13Z</time>
      </trkpt>
      <trkpt lat="46.49451" lon="-1.7826">
        <ele>5.9</ele>
        <time>2020-06-03T13:05:14Z</time>
      </trkpt>
      <trkpt lat="46.49452" lon="-1.7826">
        <ele>5.9</ele>
        <time>2020-06-03T13:05:15Z</time>
      </trkpt>
      <trkpt lat="46.49453" lon="-1.78259">
        <ele>5.9</ele>
        <time>2020-06-03T13:05:16Z</time>
      </trkpt>
      <trkpt lat="46.49454" lon="-1.78259">
        <ele>5.9</ele>
        <time>2020-06-03T13:05:17Z</time>
      </trkpt>
      <trkpt lat="46.49454" lon="-1.7826">
        <ele>5.9</ele>
        <time>2020-06-03T13:05:18Z</time>
      </trkpt>
      <trkpt lat="46.49454" lon="-1.78261">
        <ele>5.9</ele>
        <time>2020-06-03T13:05:19Z</time>
      </trkpt>
      <trkpt lat="46.49454" lon="-1.78262">
        <ele>5.9</ele>
        <time>2020-06-03T13:05:20Z</time>
      </trkpt>
      <trkpt lat="46.49454" lon="-1.78262">
        <ele>5.9</ele>
        <time>2020-06-03T13:05:21Z</time>
      </trkpt>
      <trkpt lat="46.49454" lon="-1.78264">
        <ele>5.9</ele>
        <time>2020-06-03T13:05:22Z</time>
      </trkpt>
      <trkpt lat="46.49455" lon="-1.78269">
        <ele>5.9</ele>
        <time>2020-06-03T13:05:23Z</time>
      </trkpt>
      <trkpt lat="46.49455" lon="-1.7827">
        <ele>5.9</ele>
        <time>2020-06-03T13:05:24Z</time>
      </trkpt>
      <trkpt lat="46.49455" lon="-1.78274">
        <ele>5.9</ele>
        <time>2020-06-03T13:05:25Z</time>
      </trkpt>
      <trkpt lat="46.49455" lon="-1.78276">
        <ele>5.9</ele>
        <time>2020-06-03T13:05:26Z</time>
      </trkpt>
      <trkpt lat="46.49456" lon="-1.78282">
        <ele>5.9</ele>
        <time>2020-06-03T13:05:27Z</time>
      </trkpt>
      <trkpt lat="46.49456" lon="-1.78285">
        <ele>5.9</ele>
        <time>2020-06-03T13:05:28Z</time>
      </trkpt>
      <trkpt lat="46.49458" lon="-1.78289">
        <ele>5.9</ele>
        <time>2020-06-03T13:05:29Z</time>
      </trkpt>
      <trkpt lat="46.49459" lon="-1.78294">
        <ele>5.9</ele>
        <time>2020-06-03T13:05:30Z</time>
      </trkpt>
      <trkpt lat="46.49459" lon="-1.78296">
        <ele>5.9</ele>
        <time>2020-06-03T13:05:31Z</time>
      </trkpt>
      <trkpt lat="46.4946" lon="-1.78301">
        <ele>5.9</ele>
        <time>2020-06-03T13:05:32Z</time>
      </trkpt>
      <trkpt lat="46.49461" lon="-1.78303">
        <ele>5.9</ele>
        <time>2020-06-03T13:05:33Z</time>
      </trkpt>
      <trkpt lat="46.49462" lon="-1.78307">
        <ele>5.9</ele>
        <time>2020-06-03T13:05:34Z</time>
      </trkpt>
      <trkpt lat="46.49464" lon="-1.78312">
        <ele>5.9</ele>
        <time>2020-06-03T13:05:35Z</time>
      </trkpt>
      <trkpt lat="46.49465" lon="-1.78317">
        <ele>5.9</ele>
        <time>2020-06-03T13:05:36Z</time>
      </trkpt>
      <trkpt lat="46.49467" lon="-1.78321">
        <ele>5.9</ele>
        <time>2020-06-03T13:05:37Z</time>
      </trkpt>
      <trkpt lat="46.49467" lon="-1.78323">
        <ele>5.9</ele>
        <time>2020-06-03T13:05:38Z</time>
      </trkpt>
      <trkpt lat="46.49469" lon="-1.78327">
        <ele>5.9</ele>
        <time>2020-06-03T13:05:39Z</time>
      </trkpt>
      <trkpt lat="46.49469" lon="-1.78328">
        <ele>5.9</ele>
        <time>2020-06-03T13:05:40Z</time>
      </trkpt>
      <trkpt lat="46.4947" lon="-1.78333">
        <ele>5.9</ele>
        <time>2020-06-03T13:05:41Z</time>
      </trkpt>
      <trkpt lat="46.49471" lon="-1.78335">
        <ele>5.9</ele>
        <time>2020-06-03T13:05:42Z</time>
      </trkpt>
      <trkpt lat="46.49471" lon="-1.78339">
        <ele>5.9</ele>
        <time>2020-06-03T13:05:43Z</time>
      </trkpt>
      <trkpt lat="46.49476" lon="-1.78344">
        <ele>6</ele>
        <time>2020-06-03T13:05:44Z</time>
      </trkpt>
      <trkpt lat="46.49478" lon="-1.78349">
        <ele>6</ele>
        <time>2020-06-03T13:05:45Z</time>
      </trkpt>
      <trkpt lat="46.49479" lon="-1.78354">
        <ele>6</ele>
        <time>2020-06-03T13:05:46Z</time>
      </trkpt>
      <trkpt lat="46.49481" lon="-1.78359">
        <ele>6</ele>
        <time>2020-06-03T13:05:47Z</time>
      </trkpt>
      <trkpt lat="46.49482" lon="-1.78364">
        <ele>6</ele>
        <time>2020-06-03T13:05:48Z</time>
      </trkpt>
      <trkpt lat="46.49481" lon="-1.78371">
        <ele>6</ele>
        <time>2020-06-03T13:05:49Z</time>
      </trkpt>
      <trkpt lat="46.49482" lon="-1.78377">
        <ele>6</ele>
        <time>2020-06-03T13:05:50Z</time>
      </trkpt>
      <trkpt lat="46.49483" lon="-1.78383">
        <ele>6</ele>
        <time>2020-06-03T13:05:51Z</time>
      </trkpt>
      <trkpt lat="46.49482" lon="-1.78388">
        <ele>6</ele>
        <time>2020-06-03T13:05:52Z</time>
      </trkpt>
      <trkpt lat="46.49483" lon="-1.78393">
        <ele>6</ele>
        <time>2020-06-03T13:05:53Z</time>
      </trkpt>
      <trkpt lat="46.49484" lon="-1.78398">
        <ele>6.1</ele>
        <time>2020-06-03T13:05:54Z</time>
      </trkpt>
      <trkpt lat="46.49487" lon="-1.78403">
        <ele>6.1</ele>
        <time>2020-06-03T13:05:55Z</time>
      </trkpt>
      <trkpt lat="46.49487" lon="-1.78409">
        <ele>6.1</ele>
        <time>2020-06-03T13:05:56Z</time>
      </trkpt>
      <trkpt lat="46.49487" lon="-1.78412">
        <ele>6.1</ele>
        <time>2020-06-03T13:05:57Z</time>
      </trkpt>
      <trkpt lat="46.4949" lon="-1.78417">
        <ele>6.1</ele>
        <time>2020-06-03T13:05:58Z</time>
      </trkpt>
      <trkpt lat="46.49488" lon="-1.78422">
        <ele>6.1</ele>
        <time>2020-06-03T13:05:59Z</time>
      </trkpt>
      <trkpt lat="46.49488" lon="-1.78427">
        <ele>6</ele>
        <time>2020-06-03T13:06:00Z</time>
      </trkpt>
      <trkpt lat="46.49488" lon="-1.78431">
        <ele>6</ele>
        <time>2020-06-03T13:06:01Z</time>
      </trkpt>
      <trkpt lat="46.49487" lon="-1.78435">
        <ele>6</ele>
        <time>2020-06-03T13:06:02Z</time>
      </trkpt>
      <trkpt lat="46.49487" lon="-1.78441">
        <ele>6</ele>
        <time>2020-06-03T13:06:03Z</time>
      </trkpt>
      <trkpt lat="46.49487" lon="-1.78442">
        <ele>6</ele>
        <time>2020-06-03T13:06:04Z</time>
      </trkpt>
      <trkpt lat="46.49486" lon="-1.78446">
        <ele>6</ele>
        <time>2020-06-03T13:06:05Z</time>
      </trkpt>
      <trkpt lat="46.49485" lon="-1.78451">
        <ele>6</ele>
        <time>2020-06-03T13:06:06Z</time>
      </trkpt>
      <trkpt lat="46.49485" lon="-1.78457">
        <ele>6</ele>
        <time>2020-06-03T13:06:07Z</time>
      </trkpt>
      <trkpt lat="46.49485" lon="-1.78459">
        <ele>6</ele>
        <time>2020-06-03T13:06:08Z</time>
      </trkpt>
      <trkpt lat="46.49485" lon="-1.78463">
        <ele>6</ele>
        <time>2020-06-03T13:06:09Z</time>
      </trkpt>
      <trkpt lat="46.49485" lon="-1.78467">
        <ele>5.9</ele>
        <time>2020-06-03T13:06:10Z</time>
      </trkpt>
      <trkpt lat="46.49485" lon="-1.78471">
        <ele>5.9</ele>
        <time>2020-06-03T13:06:11Z</time>
      </trkpt>
      <trkpt lat="46.49485" lon="-1.78475">
        <ele>5.9</ele>
        <time>2020-06-03T13:06:12Z</time>
      </trkpt>
      <trkpt lat="46.49485" lon="-1.7848">
        <ele>5.9</ele>
        <time>2020-06-03T13:06:13Z</time>
      </trkpt>
      <trkpt lat="46.49486" lon="-1.78484">
        <ele>5.9</ele>
        <time>2020-06-03T13:06:14Z</time>
      </trkpt>
      <trkpt lat="46.49485" lon="-1.7849">
        <ele>5.9</ele>
        <time>2020-06-03T13:06:15Z</time>
      </trkpt>
      <trkpt lat="46.49485" lon="-1.78493">
        <ele>5.9</ele>
        <time>2020-06-03T13:06:16Z</time>
      </trkpt>
      <trkpt lat="46.49485" lon="-1.78498">
        <ele>5.9</ele>
        <time>2020-06-03T13:06:17Z</time>
      </trkpt>
      <trkpt lat="46.49485" lon="-1.78502">
        <ele>5.9</ele>
        <time>2020-06-03T13:06:18Z</time>
      </trkpt>
      <trkpt lat="46.49484" lon="-1.78508">
        <ele>5.8</ele>
        <time>2020-06-03T13:06:19Z</time>
      </trkpt>
      <trkpt lat="46.49483" lon="-1.78513">
        <ele>5.8</ele>
        <time>2020-06-03T13:06:20Z</time>
      </trkpt>
      <trkpt lat="46.49483" lon="-1.78518">
        <ele>5.8</ele>
        <time>2020-06-03T13:06:21Z</time>
      </trkpt>
      <trkpt lat="46.49483" lon="-1.78519">
        <ele>5.8</ele>
        <time>2020-06-03T13:06:22Z</time>
      </trkpt>
      <trkpt lat="46.49484" lon="-1.78524">
        <ele>5.8</ele>
        <time>2020-06-03T13:06:23Z</time>
      </trkpt>
      <trkpt lat="46.49484" lon="-1.78528">
        <ele>5.8</ele>
        <time>2020-06-03T13:06:24Z</time>
      </trkpt>
      <trkpt lat="46.49484" lon="-1.78532">
        <ele>5.8</ele>
        <time>2020-06-03T13:06:25Z</time>
      </trkpt>
      <trkpt lat="46.49484" lon="-1.78536">
        <ele>5.8</ele>
        <time>2020-06-03T13:06:26Z</time>
      </trkpt>
      <trkpt lat="46.49484" lon="-1.78542">
        <ele>5.8</ele>
        <time>2020-06-03T13:06:27Z</time>
      </trkpt>
      <trkpt lat="46.49484" lon="-1.78545">
        <ele>5.8</ele>
        <time>2020-06-03T13:06:28Z</time>
      </trkpt>
      <trkpt lat="46.49485" lon="-1.7855">
        <ele>5.8</ele>
        <time>2020-06-03T13:06:29Z</time>
      </trkpt>
      <trkpt lat="46.49484" lon="-1.78555">
        <ele>5.8</ele>
        <time>2020-06-03T13:06:30Z</time>
      </trkpt>
      <trkpt lat="46.49485" lon="-1.7856">
        <ele>5.8</ele>
        <time>2020-06-03T13:06:31Z</time>
      </trkpt>
      <trkpt lat="46.49485" lon="-1.78567">
        <ele>5.8</ele>
        <time>2020-06-03T13:06:32Z</time>
      </trkpt>
      <trkpt lat="46.49485" lon="-1.7857">
        <ele>5.8</ele>
        <time>2020-06-03T13:06:33Z</time>
      </trkpt>
      <trkpt lat="46.49485" lon="-1.78574">
        <ele>5.8</ele>
        <time>2020-06-03T13:06:34Z</time>
      </trkpt>
      <trkpt lat="46.49485" lon="-1.78578">
        <ele>5.8</ele>
        <time>2020-06-03T13:06:35Z</time>
      </trkpt>
      <trkpt lat="46.49486" lon="-1.78583">
        <ele>5.8</ele>
        <time>2020-06-03T13:06:36Z</time>
      </trkpt>
      <trkpt lat="46.49486" lon="-1.78584">
        <ele>5.8</ele>
        <time>2020-06-03T13:06:37Z</time>
      </trkpt>
      <trkpt lat="46.49486" lon="-1.7859">
        <ele>5.8</ele>
        <time>2020-06-03T13:06:38Z</time>
      </trkpt>
      <trkpt lat="46.49486" lon="-1.78592">
        <ele>5.8</ele>
        <time>2020-06-03T13:06:39Z</time>
      </trkpt>
      <trkpt lat="46.49486" lon="-1.78597">
        <ele>5.8</ele>
        <time>2020-06-03T13:06:40Z</time>
      </trkpt>
      <trkpt lat="46.49485" lon="-1.78602">
        <ele>5.8</ele>
        <time>2020-06-03T13:06:41Z</time>
      </trkpt>
      <trkpt lat="46.49485" lon="-1.78607">
        <ele>5.8</ele>
        <time>2020-06-03T13:06:42Z</time>
      </trkpt>
      <trkpt lat="46.49485" lon="-1.78613">
        <ele>5.8</ele>
        <time>2020-06-03T13:06:43Z</time>
      </trkpt>
      <trkpt lat="46.49485" lon="-1.78616">
        <ele>5.8</ele>
        <time>2020-06-03T13:06:44Z</time>
      </trkpt>
      <trkpt lat="46.49483" lon="-1.78621">
        <ele>5.8</ele>
        <time>2020-06-03T13:06:45Z</time>
      </trkpt>
      <trkpt lat="46.49482" lon="-1.78625">
        <ele>5.8</ele>
        <time>2020-06-03T13:06:46Z</time>
      </trkpt>
      <trkpt lat="46.49481" lon="-1.7863">
        <ele>5.9</ele>
        <time>2020-06-03T13:06:47Z</time>
      </trkpt>
      <trkpt lat="46.49481" lon="-1.78634">
        <ele>5.9</ele>
        <time>2020-06-03T13:06:48Z</time>
      </trkpt>
      <trkpt lat="46.4948" lon="-1.78638">
        <ele>5.9</ele>
        <time>2020-06-03T13:06:49Z</time>
      </trkpt>
      <trkpt lat="46.4948" lon="-1.78645">
        <ele>5.9</ele>
        <time>2020-06-03T13:06:50Z</time>
      </trkpt>
      <trkpt lat="46.4948" lon="-1.78649">
        <ele>5.9</ele>
        <time>2020-06-03T13:06:51Z</time>
      </trkpt>
      <trkpt lat="46.4948" lon="-1.78654">
        <ele>5.9</ele>
        <time>2020-06-03T13:06:52Z</time>
      </trkpt>
      <trkpt lat="46.4948" lon="-1.78656">
        <ele>5.9</ele>
        <time>2020-06-03T13:06:53Z</time>
      </trkpt>
      <trkpt lat="46.4948" lon="-1.78661">
        <ele>5.9</ele>
        <time>2020-06-03T13:06:54Z</time>
      </trkpt>
      <trkpt lat="46.4948" lon="-1.78663">
        <ele>5.9</ele>
        <time>2020-06-03T13:06:55Z</time>
      </trkpt>
      <trkpt lat="46.4948" lon="-1.78668">
        <ele>5.9</ele>
        <time>2020-06-03T13:06:56Z</time>
      </trkpt>
      <trkpt lat="46.4948" lon="-1.78669">
        <ele>5.9</ele>
        <time>2020-06-03T13:06:57Z</time>
      </trkpt>
      <trkpt lat="46.4948" lon="-1.78676">
        <ele>5.9</ele>
        <time>2020-06-03T13:06:58Z</time>
      </trkpt>
      <trkpt lat="46.4948" lon="-1.78678">
        <ele>5.9</ele>
        <time>2020-06-03T13:06:59Z</time>
      </trkpt>
      <trkpt lat="46.49481" lon="-1.78682">
        <ele>5.9</ele>
        <time>2020-06-03T13:07:00Z</time>
      </trkpt>
      <trkpt lat="46.4948" lon="-1.78686">
        <ele>5.9</ele>
        <time>2020-06-03T13:07:01Z</time>
      </trkpt>
      <trkpt lat="46.4948" lon="-1.78692">
        <ele>5.9</ele>
        <time>2020-06-03T13:07:02Z</time>
      </trkpt>
      <trkpt lat="46.49481" lon="-1.78694">
        <ele>5.9</ele>
        <time>2020-06-03T13:07:03Z</time>
      </trkpt>
      <trkpt lat="46.49481" lon="-1.787">
        <ele>5.9</ele>
        <time>2020-06-03T13:07:04Z</time>
      </trkpt>
      <trkpt lat="46.49481" lon="-1.78702">
        <ele>5.9</ele>
        <time>2020-06-03T13:07:05Z</time>
      </trkpt>
      <trkpt lat="46.49481" lon="-1.78706">
        <ele>5.9</ele>
        <time>2020-06-03T13:07:06Z</time>
      </trkpt>
      <trkpt lat="46.4948" lon="-1.78711">
        <ele>5.9</ele>
        <time>2020-06-03T13:07:07Z</time>
      </trkpt>
      <trkpt lat="46.4948" lon="-1.78713">
        <ele>5.9</ele>
        <time>2020-06-03T13:07:08Z</time>
      </trkpt>
      <trkpt lat="46.4948" lon="-1.78718">
        <ele>5.9</ele>
        <time>2020-06-03T13:07:09Z</time>
      </trkpt>
      <trkpt lat="46.4948" lon="-1.7872">
        <ele>5.9</ele>
        <time>2020-06-03T13:07:10Z</time>
      </trkpt>
      <trkpt lat="46.4948" lon="-1.78724">
        <ele>5.9</ele>
        <time>2020-06-03T13:07:11Z</time>
      </trkpt>
      <trkpt lat="46.4948" lon="-1.78729">
        <ele>5.9</ele>
        <time>2020-06-03T13:07:12Z</time>
      </trkpt>
      <trkpt lat="46.4948" lon="-1.78731">
        <ele>5.9</ele>
        <time>2020-06-03T13:07:13Z</time>
      </trkpt>
      <trkpt lat="46.49479" lon="-1.78735">
        <ele>5.9</ele>
        <time>2020-06-03T13:07:14Z</time>
      </trkpt>
      <trkpt lat="46.49479" lon="-1.78741">
        <ele>5.9</ele>
        <time>2020-06-03T13:07:15Z</time>
      </trkpt>
      <trkpt lat="46.49479" lon="-1.78743">
        <ele>5.9</ele>
        <time>2020-06-03T13:07:16Z</time>
      </trkpt>
      <trkpt lat="46.49479" lon="-1.78748">
        <ele>5.9</ele>
        <time>2020-06-03T13:07:17Z</time>
      </trkpt>
      <trkpt lat="46.49479" lon="-1.7875">
        <ele>5.9</ele>
        <time>2020-06-03T13:07:18Z</time>
      </trkpt>
      <trkpt lat="46.49479" lon="-1.78755">
        <ele>5.9</ele>
        <time>2020-06-03T13:07:19Z</time>
      </trkpt>
      <trkpt lat="46.49479" lon="-1.78756">
        <ele>5.9</ele>
        <time>2020-06-03T13:07:20Z</time>
      </trkpt>
      <trkpt lat="46.49479" lon="-1.7876">
        <ele>5.9</ele>
        <time>2020-06-03T13:07:21Z</time>
      </trkpt>
      <trkpt lat="46.49478" lon="-1.78762">
        <ele>5.9</ele>
        <time>2020-06-03T13:07:22Z</time>
      </trkpt>
      <trkpt lat="46.49478" lon="-1.78764">
        <ele>5.9</ele>
        <time>2020-06-03T13:07:23Z</time>
      </trkpt>
      <trkpt lat="46.49479" lon="-1.78765">
        <ele>5.9</ele>
        <time>2020-06-03T13:07:24Z</time>
      </trkpt>
      <trkpt lat="46.49479" lon="-1.78766">
        <ele>5.9</ele>
        <time>2020-06-03T13:07:25Z</time>
      </trkpt>
      <trkpt lat="46.49478" lon="-1.78768">
        <ele>5.9</ele>
        <time>2020-06-03T13:07:26Z</time>
      </trkpt>
      <trkpt lat="46.49478" lon="-1.7877">
        <ele>5.9</ele>
        <time>2020-06-03T13:07:27Z</time>
      </trkpt>
      <trkpt lat="46.49478" lon="-1.78771">
        <ele>5.9</ele>
        <time>2020-06-03T13:07:28Z</time>
      </trkpt>
      <trkpt lat="46.49477" lon="-1.78772">
        <ele>5.9</ele>
        <time>2020-06-03T13:07:29Z</time>
      </trkpt>
      <trkpt lat="46.49478" lon="-1.78773">
        <ele>5.9</ele>
        <time>2020-06-03T13:07:30Z</time>
      </trkpt>
      <trkpt lat="46.49478" lon="-1.78773">
        <ele>5.9</ele>
        <time>2020-06-03T13:07:31Z</time>
      </trkpt>
      <trkpt lat="46.49479" lon="-1.78774">
        <ele>5.9</ele>
        <time>2020-06-03T13:07:32Z</time>
      </trkpt>
      <trkpt lat="46.49479" lon="-1.78775">
        <ele>6</ele>
        <time>2020-06-03T13:07:33Z</time>
      </trkpt>
      <trkpt lat="46.49479" lon="-1.78778">
        <ele>6</ele>
        <time>2020-06-03T13:07:34Z</time>
      </trkpt>
      <trkpt lat="46.49479" lon="-1.78779">
        <ele>6</ele>
        <time>2020-06-03T13:07:35Z</time>
      </trkpt>
      <trkpt lat="46.49479" lon="-1.7878">
        <ele>6</ele>
        <time>2020-06-03T13:07:36Z</time>
      </trkpt>
      <trkpt lat="46.49479" lon="-1.7878">
        <ele>6</ele>
        <time>2020-06-03T13:07:37Z</time>
      </trkpt>
      <trkpt lat="46.49479" lon="-1.78781">
        <ele>6</ele>
        <time>2020-06-03T13:07:38Z</time>
      </trkpt>
      <trkpt lat="46.4948" lon="-1.78784">
        <ele>6</ele>
        <time>2020-06-03T13:07:39Z</time>
      </trkpt>
      <trkpt lat="46.4948" lon="-1.78785">
        <ele>6</ele>
        <time>2020-06-03T13:07:40Z</time>
      </trkpt>
      <trkpt lat="46.4948" lon="-1.78787">
        <ele>6</ele>
        <time>2020-06-03T13:07:41Z</time>
      </trkpt>
      <trkpt lat="46.4948" lon="-1.78789">
        <ele>6</ele>
        <time>2020-06-03T13:07:42Z</time>
      </trkpt>
      <trkpt lat="46.49479" lon="-1.78792">
        <ele>6</ele>
        <time>2020-06-03T13:07:43Z</time>
      </trkpt>
      <trkpt lat="46.49479" lon="-1.78795">
        <ele>6</ele>
        <time>2020-06-03T13:07:44Z</time>
      </trkpt>
      <trkpt lat="46.49479" lon="-1.78796">
        <ele>6</ele>
        <time>2020-06-03T13:07:45Z</time>
      </trkpt>
      <trkpt lat="46.49479" lon="-1.78798">
        <ele>6</ele>
        <time>2020-06-03T13:07:46Z</time>
      </trkpt>
      <trkpt lat="46.49478" lon="-1.788">
        <ele>6</ele>
        <time>2020-06-03T13:07:47Z</time>
      </trkpt>
      <trkpt lat="46.49478" lon="-1.78801">
        <ele>6</ele>
        <time>2020-06-03T13:07:48Z</time>
      </trkpt>
      <trkpt lat="46.49478" lon="-1.78803">
        <ele>6</ele>
        <time>2020-06-03T13:07:49Z</time>
      </trkpt>
      <trkpt lat="46.49479" lon="-1.78804">
        <ele>6</ele>
        <time>2020-06-03T13:07:50Z</time>
      </trkpt>
      <trkpt lat="46.49478" lon="-1.78805">
        <ele>6</ele>
        <time>2020-06-03T13:07:51Z</time>
      </trkpt>
      <trkpt lat="46.49479" lon="-1.78806">
        <ele>6</ele>
        <time>2020-06-03T13:07:52Z</time>
      </trkpt>
      <trkpt lat="46.49478" lon="-1.78807">
        <ele>6</ele>
        <time>2020-06-03T13:07:53Z</time>
      </trkpt>
      <trkpt lat="46.49478" lon="-1.78809">
        <ele>6</ele>
        <time>2020-06-03T13:07:54Z</time>
      </trkpt>
      <trkpt lat="46.49478" lon="-1.78811">
        <ele>6</ele>
        <time>2020-06-03T13:07:55Z</time>
      </trkpt>
      <trkpt lat="46.49478" lon="-1.78813">
        <ele>6</ele>
        <time>2020-06-03T13:07:56Z</time>
      </trkpt>
      <trkpt lat="46.49478" lon="-1.78814">
        <ele>6</ele>
        <time>2020-06-03T13:07:57Z</time>
      </trkpt>
      <trkpt lat="46.49479" lon="-1.78815">
        <ele>6</ele>
        <time>2020-06-03T13:07:58Z</time>
      </trkpt>
      <trkpt lat="46.49479" lon="-1.78816">
        <ele>6</ele>
        <time>2020-06-03T13:07:59Z</time>
      </trkpt>
      <trkpt lat="46.49479" lon="-1.78818">
        <ele>6</ele>
        <time>2020-06-03T13:08:00Z</time>
      </trkpt>
      <trkpt lat="46.49479" lon="-1.78819">
        <ele>6</ele>
        <time>2020-06-03T13:08:01Z</time>
      </trkpt>
      <trkpt lat="46.49479" lon="-1.78822">
        <ele>6</ele>
        <time>2020-06-03T13:08:02Z</time>
      </trkpt>
      <trkpt lat="46.49479" lon="-1.78823">
        <ele>6</ele>
        <time>2020-06-03T13:08:03Z</time>
      </trkpt>
      <trkpt lat="46.49479" lon="-1.78824">
        <ele>6</ele>
        <time>2020-06-03T13:08:04Z</time>
      </trkpt>
      <trkpt lat="46.49479" lon="-1.78828">
        <ele>6</ele>
        <time>2020-06-03T13:08:05Z</time>
      </trkpt>
      <trkpt lat="46.49479" lon="-1.7883">
        <ele>6</ele>
        <time>2020-06-03T13:08:06Z</time>
      </trkpt>
      <trkpt lat="46.49479" lon="-1.78834">
        <ele>6</ele>
        <time>2020-06-03T13:08:07Z</time>
      </trkpt>
      <trkpt lat="46.49479" lon="-1.78835">
        <ele>6</ele>
        <time>2020-06-03T13:08:08Z</time>
      </trkpt>
      <trkpt lat="46.49478" lon="-1.78837">
        <ele>6</ele>
        <time>2020-06-03T13:08:09Z</time>
      </trkpt>
      <trkpt lat="46.49477" lon="-1.78839">
        <ele>6</ele>
        <time>2020-06-03T13:08:10Z</time>
      </trkpt>
      <trkpt lat="46.49476" lon="-1.78839">
        <ele>6</ele>
        <time>2020-06-03T13:08:11Z</time>
      </trkpt>
      <trkpt lat="46.49476" lon="-1.7884">
        <ele>6</ele>
        <time>2020-06-03T13:08:12Z</time>
      </trkpt>
      <trkpt lat="46.49475" lon="-1.78841">
        <ele>6</ele>
        <time>2020-06-03T13:08:13Z</time>
      </trkpt>
      <trkpt lat="46.49474" lon="-1.78842">
        <ele>6.1</ele>
        <time>2020-06-03T13:08:14Z</time>
      </trkpt>
      <trkpt lat="46.49474" lon="-1.78844">
        <ele>6.1</ele>
        <time>2020-06-03T13:08:15Z</time>
      </trkpt>
      <trkpt lat="46.49474" lon="-1.78845">
        <ele>6.1</ele>
        <time>2020-06-03T13:08:16Z</time>
      </trkpt>
      <trkpt lat="46.49473" lon="-1.78846">
        <ele>6.1</ele>
        <time>2020-06-03T13:08:17Z</time>
      </trkpt>
      <trkpt lat="46.49473" lon="-1.78848">
        <ele>6.1</ele>
        <time>2020-06-03T13:08:18Z</time>
      </trkpt>
      <trkpt lat="46.49474" lon="-1.78849">
        <ele>6.1</ele>
        <time>2020-06-03T13:08:19Z</time>
      </trkpt>
      <trkpt lat="46.49474" lon="-1.7885">
        <ele>6.1</ele>
        <time>2020-06-03T13:08:20Z</time>
      </trkpt>
      <trkpt lat="46.49474" lon="-1.78853">
        <ele>6.1</ele>
        <time>2020-06-03T13:08:21Z</time>
      </trkpt>
      <trkpt lat="46.49474" lon="-1.78855">
        <ele>6.1</ele>
        <time>2020-06-03T13:08:22Z</time>
      </trkpt>
      <trkpt lat="46.49474" lon="-1.78856">
        <ele>6.1</ele>
        <time>2020-06-03T13:08:23Z</time>
      </trkpt>
      <trkpt lat="46.49474" lon="-1.7886">
        <ele>6.1</ele>
        <time>2020-06-03T13:08:24Z</time>
      </trkpt>
      <trkpt lat="46.49474" lon="-1.78862">
        <ele>6.1</ele>
        <time>2020-06-03T13:08:25Z</time>
      </trkpt>
      <trkpt lat="46.49474" lon="-1.78864">
        <ele>6.1</ele>
        <time>2020-06-03T13:08:26Z</time>
      </trkpt>
      <trkpt lat="46.49474" lon="-1.78867">
        <ele>6.1</ele>
        <time>2020-06-03T13:08:27Z</time>
      </trkpt>
      <trkpt lat="46.49474" lon="-1.78872">
        <ele>6.1</ele>
        <time>2020-06-03T13:08:28Z</time>
      </trkpt>
      <trkpt lat="46.49474" lon="-1.78874">
        <ele>6.1</ele>
        <time>2020-06-03T13:08:29Z</time>
      </trkpt>
      <trkpt lat="46.49474" lon="-1.78879">
        <ele>6.1</ele>
        <time>2020-06-03T13:08:30Z</time>
      </trkpt>
      <trkpt lat="46.49474" lon="-1.78881">
        <ele>6.1</ele>
        <time>2020-06-03T13:08:31Z</time>
      </trkpt>
      <trkpt lat="46.49473" lon="-1.78886">
        <ele>6.1</ele>
        <time>2020-06-03T13:08:32Z</time>
      </trkpt>
      <trkpt lat="46.49474" lon="-1.7889">
        <ele>6.1</ele>
        <time>2020-06-03T13:08:33Z</time>
      </trkpt>
      <trkpt lat="46.49475" lon="-1.78895">
        <ele>6.1</ele>
        <time>2020-06-03T13:08:34Z</time>
      </trkpt>
      <trkpt lat="46.49474" lon="-1.78899">
        <ele>6.1</ele>
        <time>2020-06-03T13:08:35Z</time>
      </trkpt>
      <trkpt lat="46.49474" lon="-1.78904">
        <ele>6.2</ele>
        <time>2020-06-03T13:08:36Z</time>
      </trkpt>
      <trkpt lat="46.49474" lon="-1.78909">
        <ele>6.2</ele>
        <time>2020-06-03T13:08:37Z</time>
      </trkpt>
      <trkpt lat="46.49474" lon="-1.78914">
        <ele>6.2</ele>
        <time>2020-06-03T13:08:38Z</time>
      </trkpt>
      <trkpt lat="46.49473" lon="-1.78919">
        <ele>6.2</ele>
        <time>2020-06-03T13:08:39Z</time>
      </trkpt>
      <trkpt lat="46.49473" lon="-1.78924">
        <ele>6.2</ele>
        <time>2020-06-03T13:08:40Z</time>
      </trkpt>
      <trkpt lat="46.49472" lon="-1.78929">
        <ele>6.2</ele>
        <time>2020-06-03T13:08:41Z</time>
      </trkpt>
      <trkpt lat="46.49472" lon="-1.78934">
        <ele>6.2</ele>
        <time>2020-06-03T13:08:42Z</time>
      </trkpt>
      <trkpt lat="46.49472" lon="-1.78939">
        <ele>6.2</ele>
        <time>2020-06-03T13:08:43Z</time>
      </trkpt>
      <trkpt lat="46.49473" lon="-1.78943">
        <ele>6.2</ele>
        <time>2020-06-03T13:08:44Z</time>
      </trkpt>
      <trkpt lat="46.49472" lon="-1.78949">
        <ele>6.2</ele>
        <time>2020-06-03T13:08:45Z</time>
      </trkpt>
      <trkpt lat="46.49472" lon="-1.78953">
        <ele>6.2</ele>
        <time>2020-06-03T13:08:46Z</time>
      </trkpt>
      <trkpt lat="46.49472" lon="-1.78958">
        <ele>6.2</ele>
        <time>2020-06-03T13:08:47Z</time>
      </trkpt>
      <trkpt lat="46.49472" lon="-1.78963">
        <ele>6.2</ele>
        <time>2020-06-03T13:08:48Z</time>
      </trkpt>
      <trkpt lat="46.49472" lon="-1.78968">
        <ele>6.2</ele>
        <time>2020-06-03T13:08:49Z</time>
      </trkpt>
      <trkpt lat="46.49471" lon="-1.78972">
        <ele>6.2</ele>
        <time>2020-06-03T13:08:50Z</time>
      </trkpt>
      <trkpt lat="46.49471" lon="-1.78976">
        <ele>6.2</ele>
        <time>2020-06-03T13:08:51Z</time>
      </trkpt>
      <trkpt lat="46.49472" lon="-1.78981">
        <ele>6.2</ele>
        <time>2020-06-03T13:08:52Z</time>
      </trkpt>
      <trkpt lat="46.49471" lon="-1.78986">
        <ele>6.2</ele>
        <time>2020-06-03T13:08:53Z</time>
      </trkpt>
      <trkpt lat="46.49472" lon="-1.78991">
        <ele>6.2</ele>
        <time>2020-06-03T13:08:54Z</time>
      </trkpt>
      <trkpt lat="46.49471" lon="-1.78996">
        <ele>6.2</ele>
        <time>2020-06-03T13:08:55Z</time>
      </trkpt>
      <trkpt lat="46.49471" lon="-1.79">
        <ele>6.2</ele>
        <time>2020-06-03T13:08:56Z</time>
      </trkpt>
      <trkpt lat="46.49471" lon="-1.79005">
        <ele>6.2</ele>
        <time>2020-06-03T13:08:57Z</time>
      </trkpt>
      <trkpt lat="46.49471" lon="-1.79009">
        <ele>6.2</ele>
        <time>2020-06-03T13:08:58Z</time>
      </trkpt>
      <trkpt lat="46.4947" lon="-1.79013">
        <ele>6.2</ele>
        <time>2020-06-03T13:08:59Z</time>
      </trkpt>
      <trkpt lat="46.49471" lon="-1.79018">
        <ele>6.2</ele>
        <time>2020-06-03T13:09:00Z</time>
      </trkpt>
      <trkpt lat="46.49472" lon="-1.79021">
        <ele>6.2</ele>
        <time>2020-06-03T13:09:01Z</time>
      </trkpt>
      <trkpt lat="46.49472" lon="-1.79027">
        <ele>6.3</ele>
        <time>2020-06-03T13:09:02Z</time>
      </trkpt>
      <trkpt lat="46.49472" lon="-1.79028">
        <ele>6.3</ele>
        <time>2020-06-03T13:09:03Z</time>
      </trkpt>
      <trkpt lat="46.49474" lon="-1.79033">
        <ele>6.3</ele>
        <time>2020-06-03T13:09:04Z</time>
      </trkpt>
      <trkpt lat="46.49474" lon="-1.79035">
        <ele>6.3</ele>
        <time>2020-06-03T13:09:05Z</time>
      </trkpt>
      <trkpt lat="46.49474" lon="-1.79041">
        <ele>6.3</ele>
        <time>2020-06-03T13:09:06Z</time>
      </trkpt>
      <trkpt lat="46.49475" lon="-1.79043">
        <ele>6.3</ele>
        <time>2020-06-03T13:09:07Z</time>
      </trkpt>
      <trkpt lat="46.49475" lon="-1.79046">
        <ele>6.3</ele>
        <time>2020-06-03T13:09:08Z</time>
      </trkpt>
      <trkpt lat="46.49476" lon="-1.7905">
        <ele>6.3</ele>
        <time>2020-06-03T13:09:09Z</time>
      </trkpt>
      <trkpt lat="46.49477" lon="-1.79054">
        <ele>6.3</ele>
        <time>2020-06-03T13:09:10Z</time>
      </trkpt>
      <trkpt lat="46.49476" lon="-1.79058">
        <ele>6.3</ele>
        <time>2020-06-03T13:09:11Z</time>
      </trkpt>
      <trkpt lat="46.49476" lon="-1.79062">
        <ele>6.3</ele>
        <time>2020-06-03T13:09:12Z</time>
      </trkpt>
      <trkpt lat="46.49476" lon="-1.79067">
        <ele>6.3</ele>
        <time>2020-06-03T13:09:13Z</time>
      </trkpt>
      <trkpt lat="46.49474" lon="-1.7907">
        <ele>6.3</ele>
        <time>2020-06-03T13:09:14Z</time>
      </trkpt>
      <trkpt lat="46.49474" lon="-1.79074">
        <ele>6.3</ele>
        <time>2020-06-03T13:09:15Z</time>
      </trkpt>
      <trkpt lat="46.49475" lon="-1.7908">
        <ele>6.2</ele>
        <time>2020-06-03T13:09:16Z</time>
      </trkpt>
      <trkpt lat="46.49475" lon="-1.79082">
        <ele>6.2</ele>
        <time>2020-06-03T13:09:17Z</time>
      </trkpt>
      <trkpt lat="46.49474" lon="-1.79086">
        <ele>6.2</ele>
        <time>2020-06-03T13:09:18Z</time>
      </trkpt>
      <trkpt lat="46.49473" lon="-1.7909">
        <ele>6.2</ele>
        <time>2020-06-03T13:09:19Z</time>
      </trkpt>
      <trkpt lat="46.49474" lon="-1.79095">
        <ele>6.2</ele>
        <time>2020-06-03T13:09:20Z</time>
      </trkpt>
      <trkpt lat="46.49473" lon="-1.79099">
        <ele>6.2</ele>
        <time>2020-06-03T13:09:21Z</time>
      </trkpt>
      <trkpt lat="46.49472" lon="-1.79104">
        <ele>6.2</ele>
        <time>2020-06-03T13:09:22Z</time>
      </trkpt>
      <trkpt lat="46.49472" lon="-1.79105">
        <ele>6.2</ele>
        <time>2020-06-03T13:09:23Z</time>
      </trkpt>
      <trkpt lat="46.49471" lon="-1.79111">
        <ele>6.3</ele>
        <time>2020-06-03T13:09:24Z</time>
      </trkpt>
      <trkpt lat="46.49471" lon="-1.79113">
        <ele>6.3</ele>
        <time>2020-06-03T13:09:25Z</time>
      </trkpt>
      <trkpt lat="46.49471" lon="-1.79118">
        <ele>6.3</ele>
        <time>2020-06-03T13:09:26Z</time>
      </trkpt>
      <trkpt lat="46.49471" lon="-1.79119">
        <ele>6.3</ele>
        <time>2020-06-03T13:09:27Z</time>
      </trkpt>
      <trkpt lat="46.4947" lon="-1.79123">
        <ele>6.3</ele>
        <time>2020-06-03T13:09:28Z</time>
      </trkpt>
      <trkpt lat="46.4947" lon="-1.79124">
        <ele>6.3</ele>
        <time>2020-06-03T13:09:29Z</time>
      </trkpt>
      <trkpt lat="46.4947" lon="-1.79126">
        <ele>6.3</ele>
        <time>2020-06-03T13:09:30Z</time>
      </trkpt>
      <trkpt lat="46.4947" lon="-1.79128">
        <ele>6.3</ele>
        <time>2020-06-03T13:09:31Z</time>
      </trkpt>
      <trkpt lat="46.49469" lon="-1.79129">
        <ele>6.3</ele>
        <time>2020-06-03T13:09:32Z</time>
      </trkpt>
      <trkpt lat="46.49468" lon="-1.79132">
        <ele>6.3</ele>
        <time>2020-06-03T13:09:33Z</time>
      </trkpt>
      <trkpt lat="46.49467" lon="-1.79132">
        <ele>6.3</ele>
        <time>2020-06-03T13:09:34Z</time>
      </trkpt>
      <trkpt lat="46.49467" lon="-1.79133">
        <ele>6.3</ele>
        <time>2020-06-03T13:09:35Z</time>
      </trkpt>
      <trkpt lat="46.49467" lon="-1.79134">
        <ele>6.3</ele>
        <time>2020-06-03T13:09:36Z</time>
      </trkpt>
      <trkpt lat="46.49467" lon="-1.79133">
        <ele>6.3</ele>
        <time>2020-06-03T13:09:37Z</time>
      </trkpt>
      <trkpt lat="46.49466" lon="-1.79131">
        <ele>6.3</ele>
        <time>2020-06-03T13:09:38Z</time>
      </trkpt>
      <trkpt lat="46.49466" lon="-1.79133">
        <ele>6.3</ele>
        <time>2020-06-03T13:09:39Z</time>
      </trkpt>
      <trkpt lat="46.49465" lon="-1.79133">
        <ele>6.3</ele>
        <time>2020-06-03T13:09:40Z</time>
      </trkpt>
      <trkpt lat="46.49465" lon="-1.79133">
        <ele>6.3</ele>
        <time>2020-06-03T13:09:41Z</time>
      </trkpt>
      <trkpt lat="46.49465" lon="-1.79135">
        <ele>6.3</ele>
        <time>2020-06-03T13:09:42Z</time>
      </trkpt>
      <trkpt lat="46.49464" lon="-1.79137">
        <ele>6.3</ele>
        <time>2020-06-03T13:09:43Z</time>
      </trkpt>
      <trkpt lat="46.49464" lon="-1.79139">
        <ele>6.3</ele>
        <time>2020-06-03T13:09:44Z</time>
      </trkpt>
      <trkpt lat="46.49462" lon="-1.79145">
        <ele>6.1</ele>
        <time>2020-06-03T13:09:45Z</time>
      </trkpt>
      <trkpt lat="46.49462" lon="-1.79147">
        <ele>6.1</ele>
        <time>2020-06-03T13:09:46Z</time>
      </trkpt>
      <trkpt lat="46.4946" lon="-1.79151">
        <ele>6.1</ele>
        <time>2020-06-03T13:09:47Z</time>
      </trkpt>
      <trkpt lat="46.49457" lon="-1.79154">
        <ele>6.1</ele>
        <time>2020-06-03T13:09:48Z</time>
      </trkpt>
      <trkpt lat="46.49454" lon="-1.79157">
        <ele>6.1</ele>
        <time>2020-06-03T13:09:49Z</time>
      </trkpt>
      <trkpt lat="46.49451" lon="-1.79159">
        <ele>6.1</ele>
        <time>2020-06-03T13:09:50Z</time>
      </trkpt>
      <trkpt lat="46.49449" lon="-1.79163">
        <ele>6.1</ele>
        <time>2020-06-03T13:09:51Z</time>
      </trkpt>
      <trkpt lat="46.49448" lon="-1.79166">
        <ele>6.1</ele>
        <time>2020-06-03T13:09:52Z</time>
      </trkpt>
      <trkpt lat="46.49446" lon="-1.7917">
        <ele>6.1</ele>
        <time>2020-06-03T13:09:53Z</time>
      </trkpt>
      <trkpt lat="46.49444" lon="-1.79173">
        <ele>6</ele>
        <time>2020-06-03T13:09:54Z</time>
      </trkpt>
      <trkpt lat="46.49441" lon="-1.79175">
        <ele>6</ele>
        <time>2020-06-03T13:09:55Z</time>
      </trkpt>
      <trkpt lat="46.49439" lon="-1.79178">
        <ele>6</ele>
        <time>2020-06-03T13:09:56Z</time>
      </trkpt>
      <trkpt lat="46.49436" lon="-1.7918">
        <ele>6</ele>
        <time>2020-06-03T13:09:57Z</time>
      </trkpt>
      <trkpt lat="46.49433" lon="-1.79183">
        <ele>6</ele>
        <time>2020-06-03T13:09:58Z</time>
      </trkpt>
      <trkpt lat="46.4943" lon="-1.79187">
        <ele>6</ele>
        <time>2020-06-03T13:09:59Z</time>
      </trkpt>
      <trkpt lat="46.49427" lon="-1.79189">
        <ele>6</ele>
        <time>2020-06-03T13:10:00Z</time>
      </trkpt>
      <trkpt lat="46.49425" lon="-1.79192">
        <ele>6</ele>
        <time>2020-06-03T13:10:01Z</time>
      </trkpt>
      <trkpt lat="46.49421" lon="-1.79193">
        <ele>6</ele>
        <time>2020-06-03T13:10:02Z</time>
      </trkpt>
      <trkpt lat="46.49418" lon="-1.79196">
        <ele>6</ele>
        <time>2020-06-03T13:10:03Z</time>
      </trkpt>
      <trkpt lat="46.49415" lon="-1.79199">
        <ele>6</ele>
        <time>2020-06-03T13:10:04Z</time>
      </trkpt>
      <trkpt lat="46.49413" lon="-1.79202">
        <ele>6</ele>
        <time>2020-06-03T13:10:05Z</time>
      </trkpt>
      <trkpt lat="46.4941" lon="-1.79205">
        <ele>6</ele>
        <time>2020-06-03T13:10:06Z</time>
      </trkpt>
      <trkpt lat="46.49408" lon="-1.79207">
        <ele>5.9</ele>
        <time>2020-06-03T13:10:07Z</time>
      </trkpt>
      <trkpt lat="46.49405" lon="-1.79209">
        <ele>5.9</ele>
        <time>2020-06-03T13:10:08Z</time>
      </trkpt>
      <trkpt lat="46.49403" lon="-1.79213">
        <ele>5.9</ele>
        <time>2020-06-03T13:10:09Z</time>
      </trkpt>
      <trkpt lat="46.49402" lon="-1.79214">
        <ele>5.9</ele>
        <time>2020-06-03T13:10:10Z</time>
      </trkpt>
      <trkpt lat="46.494" lon="-1.79217">
        <ele>5.9</ele>
        <time>2020-06-03T13:10:11Z</time>
      </trkpt>
      <trkpt lat="46.49398" lon="-1.7922">
        <ele>5.9</ele>
        <time>2020-06-03T13:10:12Z</time>
      </trkpt>
      <trkpt lat="46.49395" lon="-1.79223">
        <ele>5.9</ele>
        <time>2020-06-03T13:10:13Z</time>
      </trkpt>
      <trkpt lat="46.49394" lon="-1.79227">
        <ele>5.9</ele>
        <time>2020-06-03T13:10:14Z</time>
      </trkpt>
      <trkpt lat="46.49391" lon="-1.7923">
        <ele>5.8</ele>
        <time>2020-06-03T13:10:15Z</time>
      </trkpt>
      <trkpt lat="46.49389" lon="-1.79234">
        <ele>5.8</ele>
        <time>2020-06-03T13:10:16Z</time>
      </trkpt>
      <trkpt lat="46.49386" lon="-1.79238">
        <ele>5.8</ele>
        <time>2020-06-03T13:10:17Z</time>
      </trkpt>
      <trkpt lat="46.49383" lon="-1.79242">
        <ele>5.8</ele>
        <time>2020-06-03T13:10:18Z</time>
      </trkpt>
      <trkpt lat="46.4938" lon="-1.79245">
        <ele>5.8</ele>
        <time>2020-06-03T13:10:19Z</time>
      </trkpt>
      <trkpt lat="46.49378" lon="-1.79248">
        <ele>5.7</ele>
        <time>2020-06-03T13:10:20Z</time>
      </trkpt>
      <trkpt lat="46.49374" lon="-1.7925">
        <ele>5.7</ele>
        <time>2020-06-03T13:10:21Z</time>
      </trkpt>
      <trkpt lat="46.49372" lon="-1.79253">
        <ele>5.7</ele>
        <time>2020-06-03T13:10:22Z</time>
      </trkpt>
      <trkpt lat="46.4937" lon="-1.79255">
        <ele>5.7</ele>
        <time>2020-06-03T13:10:23Z</time>
      </trkpt>
      <trkpt lat="46.49367" lon="-1.79259">
        <ele>5.7</ele>
        <time>2020-06-03T13:10:24Z</time>
      </trkpt>
      <trkpt lat="46.49364" lon="-1.79263">
        <ele>5.7</ele>
        <time>2020-06-03T13:10:25Z</time>
      </trkpt>
      <trkpt lat="46.49361" lon="-1.79266">
        <ele>5.7</ele>
        <time>2020-06-03T13:10:26Z</time>
      </trkpt>
      <trkpt lat="46.49358" lon="-1.79271">
        <ele>5.7</ele>
        <time>2020-06-03T13:10:27Z</time>
      </trkpt>
      <trkpt lat="46.49356" lon="-1.79277">
        <ele>5.6</ele>
        <time>2020-06-03T13:10:28Z</time>
      </trkpt>
      <trkpt lat="46.49355" lon="-1.79282">
        <ele>5.7</ele>
        <time>2020-06-03T13:10:29Z</time>
      </trkpt>
      <trkpt lat="46.49355" lon="-1.79287">
        <ele>5.7</ele>
        <time>2020-06-03T13:10:30Z</time>
      </trkpt>
      <trkpt lat="46.49355" lon="-1.79291">
        <ele>5.7</ele>
        <time>2020-06-03T13:10:31Z</time>
      </trkpt>
      <trkpt lat="46.49358" lon="-1.79295">
        <ele>5.7</ele>
        <time>2020-06-03T13:10:32Z</time>
      </trkpt>
      <trkpt lat="46.49358" lon="-1.79296">
        <ele>5.7</ele>
        <time>2020-06-03T13:10:33Z</time>
      </trkpt>
      <trkpt lat="46.4936" lon="-1.79298">
        <ele>5.7</ele>
        <time>2020-06-03T13:10:34Z</time>
      </trkpt>
      <trkpt lat="46.49361" lon="-1.79299">
        <ele>5.7</ele>
        <time>2020-06-03T13:10:35Z</time>
      </trkpt>
      <trkpt lat="46.49365" lon="-1.793">
        <ele>5.7</ele>
        <time>2020-06-03T13:10:36Z</time>
      </trkpt>
      <trkpt lat="46.49367" lon="-1.79301">
        <ele>5.7</ele>
        <time>2020-06-03T13:10:37Z</time>
      </trkpt>
      <trkpt lat="46.4937" lon="-1.79303">
        <ele>5.7</ele>
        <time>2020-06-03T13:10:38Z</time>
      </trkpt>
      <trkpt lat="46.49374" lon="-1.79306">
        <ele>5.7</ele>
        <time>2020-06-03T13:10:39Z</time>
      </trkpt>
      <trkpt lat="46.49377" lon="-1.79309">
        <ele>5.7</ele>
        <time>2020-06-03T13:10:40Z</time>
      </trkpt>
      <trkpt lat="46.49379" lon="-1.79314">
        <ele>5.7</ele>
        <time>2020-06-03T13:10:41Z</time>
      </trkpt>
      <trkpt lat="46.49381" lon="-1.79318">
        <ele>5.7</ele>
        <time>2020-06-03T13:10:42Z</time>
      </trkpt>
      <trkpt lat="46.49383" lon="-1.79324">
        <ele>5.7</ele>
        <time>2020-06-03T13:10:43Z</time>
      </trkpt>
      <trkpt lat="46.49386" lon="-1.79327">
        <ele>5.6</ele>
        <time>2020-06-03T13:10:44Z</time>
      </trkpt>
      <trkpt lat="46.49388" lon="-1.79331">
        <ele>5.6</ele>
        <time>2020-06-03T13:10:45Z</time>
      </trkpt>
      <trkpt lat="46.4939" lon="-1.79336">
        <ele>5.6</ele>
        <time>2020-06-03T13:10:46Z</time>
      </trkpt>
      <trkpt lat="46.49392" lon="-1.79341">
        <ele>5.5</ele>
        <time>2020-06-03T13:10:47Z</time>
      </trkpt>
      <trkpt lat="46.49394" lon="-1.79346">
        <ele>5.5</ele>
        <time>2020-06-03T13:10:48Z</time>
      </trkpt>
      <trkpt lat="46.49396" lon="-1.79352">
        <ele>5.5</ele>
        <time>2020-06-03T13:10:49Z</time>
      </trkpt>
      <trkpt lat="46.49398" lon="-1.79356">
        <ele>5.4</ele>
        <time>2020-06-03T13:10:50Z</time>
      </trkpt>
      <trkpt lat="46.49401" lon="-1.79361">
        <ele>5.4</ele>
        <time>2020-06-03T13:10:51Z</time>
      </trkpt>
      <trkpt lat="46.49403" lon="-1.79365">
        <ele>5.4</ele>
        <time>2020-06-03T13:10:52Z</time>
      </trkpt>
      <trkpt lat="46.49405" lon="-1.7937">
        <ele>5.4</ele>
        <time>2020-06-03T13:10:53Z</time>
      </trkpt>
      <trkpt lat="46.49408" lon="-1.79374">
        <ele>5.3</ele>
        <time>2020-06-03T13:10:54Z</time>
      </trkpt>
      <trkpt lat="46.4941" lon="-1.79378">
        <ele>5.3</ele>
        <time>2020-06-03T13:10:55Z</time>
      </trkpt>
      <trkpt lat="46.49413" lon="-1.79381">
        <ele>5.3</ele>
        <time>2020-06-03T13:10:56Z</time>
      </trkpt>
      <trkpt lat="46.49415" lon="-1.79385">
        <ele>5.3</ele>
        <time>2020-06-03T13:10:57Z</time>
      </trkpt>
      <trkpt lat="46.49418" lon="-1.79389">
        <ele>5.3</ele>
        <time>2020-06-03T13:10:58Z</time>
      </trkpt>
      <trkpt lat="46.49421" lon="-1.79392">
        <ele>5.2</ele>
        <time>2020-06-03T13:10:59Z</time>
      </trkpt>
      <trkpt lat="46.49424" lon="-1.79396">
        <ele>5.2</ele>
        <time>2020-06-03T13:11:00Z</time>
      </trkpt>
      <trkpt lat="46.49426" lon="-1.794">
        <ele>5.2</ele>
        <time>2020-06-03T13:11:01Z</time>
      </trkpt>
      <trkpt lat="46.49428" lon="-1.79404">
        <ele>5.2</ele>
        <time>2020-06-03T13:11:02Z</time>
      </trkpt>
      <trkpt lat="46.4943" lon="-1.79409">
        <ele>5.2</ele>
        <time>2020-06-03T13:11:03Z</time>
      </trkpt>
      <trkpt lat="46.49432" lon="-1.79413">
        <ele>5.2</ele>
        <time>2020-06-03T13:11:04Z</time>
      </trkpt>
      <trkpt lat="46.49433" lon="-1.79418">
        <ele>5.2</ele>
        <time>2020-06-03T13:11:05Z</time>
      </trkpt>
      <trkpt lat="46.49433" lon="-1.79422">
        <ele>5.2</ele>
        <time>2020-06-03T13:11:06Z</time>
      </trkpt>
      <trkpt lat="46.49433" lon="-1.79426">
        <ele>5.1</ele>
        <time>2020-06-03T13:11:07Z</time>
      </trkpt>
      <trkpt lat="46.49432" lon="-1.79428">
        <ele>5.1</ele>
        <time>2020-06-03T13:11:08Z</time>
      </trkpt>
      <trkpt lat="46.49431" lon="-1.79432">
        <ele>5</ele>
        <time>2020-06-03T13:11:09Z</time>
      </trkpt>
      <trkpt lat="46.49431" lon="-1.79433">
        <ele>5</ele>
        <time>2020-06-03T13:11:10Z</time>
      </trkpt>
      <trkpt lat="46.4943" lon="-1.79435">
        <ele>5</ele>
        <time>2020-06-03T13:11:11Z</time>
      </trkpt>
      <trkpt lat="46.4943" lon="-1.79434">
        <ele>5</ele>
        <time>2020-06-03T13:11:12Z</time>
      </trkpt>
      <trkpt lat="46.49429" lon="-1.79434">
        <ele>5</ele>
        <time>2020-06-03T13:11:13Z</time>
      </trkpt>
      <trkpt lat="46.49428" lon="-1.79434">
        <ele>5</ele>
        <time>2020-06-03T13:11:14Z</time>
      </trkpt>
      <trkpt lat="46.49428" lon="-1.79434">
        <ele>5</ele>
        <time>2020-06-03T13:11:15Z</time>
      </trkpt>
      <trkpt lat="46.49427" lon="-1.79434">
        <ele>5</ele>
        <time>2020-06-03T13:11:16Z</time>
      </trkpt>
      <trkpt lat="46.49426" lon="-1.79433">
        <ele>5</ele>
        <time>2020-06-03T13:11:17Z</time>
      </trkpt>
      <trkpt lat="46.49425" lon="-1.79432">
        <ele>5</ele>
        <time>2020-06-03T13:11:18Z</time>
      </trkpt>
      <trkpt lat="46.49424" lon="-1.79433">
        <ele>5</ele>
        <time>2020-06-03T13:11:19Z</time>
      </trkpt>
      <trkpt lat="46.49425" lon="-1.79436">
        <ele>5</ele>
        <time>2020-06-03T13:11:20Z</time>
      </trkpt>
      <trkpt lat="46.49424" lon="-1.79437">
        <ele>5</ele>
        <time>2020-06-03T13:11:21Z</time>
      </trkpt>
      <trkpt lat="46.49423" lon="-1.79438">
        <ele>5</ele>
        <time>2020-06-03T13:11:22Z</time>
      </trkpt>
      <trkpt lat="46.49423" lon="-1.79439">
        <ele>5</ele>
        <time>2020-06-03T13:11:23Z</time>
      </trkpt>
      <trkpt lat="46.49422" lon="-1.79439">
        <ele>5</ele>
        <time>2020-06-03T13:11:24Z</time>
      </trkpt>
      <trkpt lat="46.49425" lon="-1.79441">
        <ele>5</ele>
        <time>2020-06-03T13:11:25Z</time>
      </trkpt>
      <trkpt lat="46.49429" lon="-1.79443">
        <ele>4.9</ele>
        <time>2020-06-03T13:11:26Z</time>
      </trkpt>
      <trkpt lat="46.49433" lon="-1.79446">
        <ele>4.9</ele>
        <time>2020-06-03T13:11:27Z</time>
      </trkpt>
      <trkpt lat="46.49437" lon="-1.79448">
        <ele>4.9</ele>
        <time>2020-06-03T13:11:28Z</time>
      </trkpt>
      <trkpt lat="46.49441" lon="-1.7945">
        <ele>4.9</ele>
        <time>2020-06-03T13:11:29Z</time>
      </trkpt>
      <trkpt lat="46.49445" lon="-1.79451">
        <ele>4.8</ele>
        <time>2020-06-03T13:11:30Z</time>
      </trkpt>
      <trkpt lat="46.49449" lon="-1.79452">
        <ele>4.8</ele>
        <time>2020-06-03T13:11:31Z</time>
      </trkpt>
      <trkpt lat="46.49453" lon="-1.79454">
        <ele>4.8</ele>
        <time>2020-06-03T13:11:32Z</time>
      </trkpt>
      <trkpt lat="46.49457" lon="-1.79455">
        <ele>4.8</ele>
        <time>2020-06-03T13:11:33Z</time>
      </trkpt>
      <trkpt lat="46.49461" lon="-1.79455">
        <ele>4.8</ele>
        <time>2020-06-03T13:11:34Z</time>
      </trkpt>
      <trkpt lat="46.49464" lon="-1.79457">
        <ele>4.8</ele>
        <time>2020-06-03T13:11:35Z</time>
      </trkpt>
      <trkpt lat="46.49467" lon="-1.79458">
        <ele>4.8</ele>
        <time>2020-06-03T13:11:36Z</time>
      </trkpt>
      <trkpt lat="46.49471" lon="-1.7946">
        <ele>4.8</ele>
        <time>2020-06-03T13:11:37Z</time>
      </trkpt>
      <trkpt lat="46.49474" lon="-1.79462">
        <ele>4.8</ele>
        <time>2020-06-03T13:11:38Z</time>
      </trkpt>
      <trkpt lat="46.49478" lon="-1.79464">
        <ele>4.8</ele>
        <time>2020-06-03T13:11:39Z</time>
      </trkpt>
      <trkpt lat="46.49481" lon="-1.79467">
        <ele>4.8</ele>
        <time>2020-06-03T13:11:40Z</time>
      </trkpt>
      <trkpt lat="46.49484" lon="-1.79469">
        <ele>4.7</ele>
        <time>2020-06-03T13:11:41Z</time>
      </trkpt>
      <trkpt lat="46.49488" lon="-1.79472">
        <ele>4.7</ele>
        <time>2020-06-03T13:11:42Z</time>
      </trkpt>
      <trkpt lat="46.49491" lon="-1.79473">
        <ele>4.7</ele>
        <time>2020-06-03T13:11:43Z</time>
      </trkpt>
      <trkpt lat="46.49494" lon="-1.79475">
        <ele>4.7</ele>
        <time>2020-06-03T13:11:44Z</time>
      </trkpt>
      <trkpt lat="46.49497" lon="-1.79477">
        <ele>4.6</ele>
        <time>2020-06-03T13:11:45Z</time>
      </trkpt>
      <trkpt lat="46.49499" lon="-1.79478">
        <ele>4.6</ele>
        <time>2020-06-03T13:11:46Z</time>
      </trkpt>
      <trkpt lat="46.49502" lon="-1.79479">
        <ele>4.6</ele>
        <time>2020-06-03T13:11:47Z</time>
      </trkpt>
      <trkpt lat="46.49505" lon="-1.7948">
        <ele>4.6</ele>
        <time>2020-06-03T13:11:48Z</time>
      </trkpt>
      <trkpt lat="46.49508" lon="-1.79482">
        <ele>4.5</ele>
        <time>2020-06-03T13:11:49Z</time>
      </trkpt>
      <trkpt lat="46.49511" lon="-1.79483">
        <ele>4.4</ele>
        <time>2020-06-03T13:11:50Z</time>
      </trkpt>
      <trkpt lat="46.49514" lon="-1.79484">
        <ele>4.4</ele>
        <time>2020-06-03T13:11:51Z</time>
      </trkpt>
      <trkpt lat="46.49517" lon="-1.79484">
        <ele>4.3</ele>
        <time>2020-06-03T13:11:52Z</time>
      </trkpt>
      <trkpt lat="46.49521" lon="-1.79486">
        <ele>4.3</ele>
        <time>2020-06-03T13:11:53Z</time>
      </trkpt>
      <trkpt lat="46.49522" lon="-1.79486">
        <ele>4.3</ele>
        <time>2020-06-03T13:11:54Z</time>
      </trkpt>
      <trkpt lat="46.49526" lon="-1.79487">
        <ele>4.2</ele>
        <time>2020-06-03T13:11:55Z</time>
      </trkpt>
      <trkpt lat="46.49527" lon="-1.79487">
        <ele>4.2</ele>
        <time>2020-06-03T13:11:56Z</time>
      </trkpt>
      <trkpt lat="46.49531" lon="-1.79489">
        <ele>4.2</ele>
        <time>2020-06-03T13:11:57Z</time>
      </trkpt>
      <trkpt lat="46.49532" lon="-1.7949">
        <ele>4.2</ele>
        <time>2020-06-03T13:11:58Z</time>
      </trkpt>
      <trkpt lat="46.49535" lon="-1.79492">
        <ele>4.2</ele>
        <time>2020-06-03T13:11:59Z</time>
      </trkpt>
      <trkpt lat="46.49536" lon="-1.79492">
        <ele>4.2</ele>
        <time>2020-06-03T13:12:00Z</time>
      </trkpt>
      <trkpt lat="46.49538" lon="-1.79494">
        <ele>4.2</ele>
        <time>2020-06-03T13:12:01Z</time>
      </trkpt>
      <trkpt lat="46.49539" lon="-1.79495">
        <ele>4.2</ele>
        <time>2020-06-03T13:12:02Z</time>
      </trkpt>
      <trkpt lat="46.49543" lon="-1.79495">
        <ele>4.2</ele>
        <time>2020-06-03T13:12:03Z</time>
      </trkpt>
      <trkpt lat="46.49544" lon="-1.79496">
        <ele>4.2</ele>
        <time>2020-06-03T13:12:04Z</time>
      </trkpt>
      <trkpt lat="46.49547" lon="-1.79497">
        <ele>4.2</ele>
        <time>2020-06-03T13:12:05Z</time>
      </trkpt>
      <trkpt lat="46.49548" lon="-1.79498">
        <ele>4.2</ele>
        <time>2020-06-03T13:12:06Z</time>
      </trkpt>
      <trkpt lat="46.49551" lon="-1.79495">
        <ele>4.2</ele>
        <time>2020-06-03T13:12:07Z</time>
      </trkpt>
      <trkpt lat="46.49551" lon="-1.79494">
        <ele>4.2</ele>
        <time>2020-06-03T13:12:08Z</time>
      </trkpt>
      <trkpt lat="46.49554" lon="-1.79491">
        <ele>4.2</ele>
        <time>2020-06-03T13:12:09Z</time>
      </trkpt>
      <trkpt lat="46.49554" lon="-1.7949">
        <ele>4.2</ele>
        <time>2020-06-03T13:12:10Z</time>
      </trkpt>
      <trkpt lat="46.49557" lon="-1.79487">
        <ele>4.2</ele>
        <time>2020-06-03T13:12:11Z</time>
      </trkpt>
      <trkpt lat="46.49558" lon="-1.79487">
        <ele>4.2</ele>
        <time>2020-06-03T13:12:12Z</time>
      </trkpt>
      <trkpt lat="46.49561" lon="-1.79488">
        <ele>4.2</ele>
        <time>2020-06-03T13:12:13Z</time>
      </trkpt>
      <trkpt lat="46.49564" lon="-1.79488">
        <ele>4.2</ele>
        <time>2020-06-03T13:12:14Z</time>
      </trkpt>
      <trkpt lat="46.49567" lon="-1.79488">
        <ele>4.2</ele>
        <time>2020-06-03T13:12:15Z</time>
      </trkpt>
      <trkpt lat="46.4957" lon="-1.79488">
        <ele>4.2</ele>
        <time>2020-06-03T13:12:16Z</time>
      </trkpt>
      <trkpt lat="46.49573" lon="-1.79489">
        <ele>4.2</ele>
        <time>2020-06-03T13:12:17Z</time>
      </trkpt>
      <trkpt lat="46.49576" lon="-1.7949">
        <ele>4.2</ele>
        <time>2020-06-03T13:12:18Z</time>
      </trkpt>
      <trkpt lat="46.4958" lon="-1.7949">
        <ele>4.2</ele>
        <time>2020-06-03T13:12:19Z</time>
      </trkpt>
      <trkpt lat="46.49583" lon="-1.79491">
        <ele>4.2</ele>
        <time>2020-06-03T13:12:20Z</time>
      </trkpt>
      <trkpt lat="46.49585" lon="-1.79491">
        <ele>4.3</ele>
        <time>2020-06-03T13:12:21Z</time>
      </trkpt>
      <trkpt lat="46.49589" lon="-1.7949">
        <ele>4.2</ele>
        <time>2020-06-03T13:12:22Z</time>
      </trkpt>
      <trkpt lat="46.49591" lon="-1.7949">
        <ele>4.2</ele>
        <time>2020-06-03T13:12:23Z</time>
      </trkpt>
      <trkpt lat="46.49594" lon="-1.79489">
        <ele>4.2</ele>
        <time>2020-06-03T13:12:24Z</time>
      </trkpt>
      <trkpt lat="46.49596" lon="-1.79488">
        <ele>4.2</ele>
        <time>2020-06-03T13:12:25Z</time>
      </trkpt>
      <trkpt lat="46.496" lon="-1.79488">
        <ele>4.1</ele>
        <time>2020-06-03T13:12:26Z</time>
      </trkpt>
      <trkpt lat="46.49603" lon="-1.79487">
        <ele>4.1</ele>
        <time>2020-06-03T13:12:27Z</time>
      </trkpt>
      <trkpt lat="46.49606" lon="-1.79485">
        <ele>3.9</ele>
        <time>2020-06-03T13:12:28Z</time>
      </trkpt>
      <trkpt lat="46.49608" lon="-1.79482">
        <ele>3.8</ele>
        <time>2020-06-03T13:12:29Z</time>
      </trkpt>
      <trkpt lat="46.49611" lon="-1.7948">
        <ele>3.8</ele>
        <time>2020-06-03T13:12:30Z</time>
      </trkpt>
      <trkpt lat="46.49612" lon="-1.79476">
        <ele>3.7</ele>
        <time>2020-06-03T13:12:31Z</time>
      </trkpt>
      <trkpt lat="46.49613" lon="-1.79475">
        <ele>3.7</ele>
        <time>2020-06-03T13:12:32Z</time>
      </trkpt>
      <trkpt lat="46.49615" lon="-1.79472">
        <ele>3.7</ele>
        <time>2020-06-03T13:12:33Z</time>
      </trkpt>
      <trkpt lat="46.49616" lon="-1.79471">
        <ele>3.7</ele>
        <time>2020-06-03T13:12:34Z</time>
      </trkpt>
      <trkpt lat="46.49617" lon="-1.79469">
        <ele>3.6</ele>
        <time>2020-06-03T13:12:35Z</time>
      </trkpt>
      <trkpt lat="46.49617" lon="-1.79469">
        <ele>3.6</ele>
        <time>2020-06-03T13:12:36Z</time>
      </trkpt>
      <trkpt lat="46.49617" lon="-1.79469">
        <ele>3.6</ele>
        <time>2020-06-03T13:12:37Z</time>
      </trkpt>
      <trkpt lat="46.49618" lon="-1.7947">
        <ele>3.6</ele>
        <time>2020-06-03T13:12:38Z</time>
      </trkpt>
      <trkpt lat="46.49618" lon="-1.7947">
        <ele>3.6</ele>
        <time>2020-06-03T13:12:39Z</time>
      </trkpt>
      <trkpt lat="46.49619" lon="-1.7947">
        <ele>3.6</ele>
        <time>2020-06-03T13:12:40Z</time>
      </trkpt>
      <trkpt lat="46.4962" lon="-1.79471">
        <ele>3.6</ele>
        <time>2020-06-03T13:12:41Z</time>
      </trkpt>
      <trkpt lat="46.4962" lon="-1.79471">
        <ele>3.6</ele>
        <time>2020-06-03T13:12:42Z</time>
      </trkpt>
      <trkpt lat="46.4962" lon="-1.79471">
        <ele>3.6</ele>
        <time>2020-06-03T13:12:43Z</time>
      </trkpt>
      <trkpt lat="46.49621" lon="-1.79471">
        <ele>3.6</ele>
        <time>2020-06-03T13:12:44Z</time>
      </trkpt>
      <trkpt lat="46.49622" lon="-1.79472">
        <ele>3.6</ele>
        <time>2020-06-03T13:12:45Z</time>
      </trkpt>
      <trkpt lat="46.49623" lon="-1.79473">
        <ele>3.5</ele>
        <time>2020-06-03T13:12:46Z</time>
      </trkpt>
      <trkpt lat="46.4962" lon="-1.79459">
        <ele>3.4</ele>
        <time>2020-06-03T13:13:14Z</time>
      </trkpt>
      <trkpt lat="46.4962" lon="-1.79457">
        <ele>3.4</ele>
        <time>2020-06-03T13:13:15Z</time>
      </trkpt>
      <trkpt lat="46.49622" lon="-1.79453">
        <ele>3.4</ele>
        <time>2020-06-03T13:13:16Z</time>
      </trkpt>
      <trkpt lat="46.49621" lon="-1.79451">
        <ele>3.3</ele>
        <time>2020-06-03T13:13:17Z</time>
      </trkpt>
      <trkpt lat="46.49623" lon="-1.79447">
        <ele>3.3</ele>
        <time>2020-06-03T13:13:18Z</time>
      </trkpt>
      <trkpt lat="46.49623" lon="-1.79446">
        <ele>3.3</ele>
        <time>2020-06-03T13:13:19Z</time>
      </trkpt>
      <trkpt lat="46.49623" lon="-1.79442">
        <ele>3.3</ele>
        <time>2020-06-03T13:13:20Z</time>
      </trkpt>
      <trkpt lat="46.49623" lon="-1.79441">
        <ele>3.3</ele>
        <time>2020-06-03T13:13:21Z</time>
      </trkpt>
      <trkpt lat="46.49623" lon="-1.79437">
        <ele>3.3</ele>
        <time>2020-06-03T13:13:22Z</time>
      </trkpt>
      <trkpt lat="46.49622" lon="-1.79436">
        <ele>3.3</ele>
        <time>2020-06-03T13:13:23Z</time>
      </trkpt>
      <trkpt lat="46.49623" lon="-1.7943">
        <ele>3.2</ele>
        <time>2020-06-03T13:13:24Z</time>
      </trkpt>
      <trkpt lat="46.49623" lon="-1.79428">
        <ele>3.2</ele>
        <time>2020-06-03T13:13:25Z</time>
      </trkpt>
      <trkpt lat="46.49623" lon="-1.79423">
        <ele>3.2</ele>
        <time>2020-06-03T13:13:26Z</time>
      </trkpt>
      <trkpt lat="46.49623" lon="-1.79418">
        <ele>3.2</ele>
        <time>2020-06-03T13:13:27Z</time>
      </trkpt>
      <trkpt lat="46.49623" lon="-1.79413">
        <ele>3.2</ele>
        <time>2020-06-03T13:13:28Z</time>
      </trkpt>
      <trkpt lat="46.49624" lon="-1.79408">
        <ele>3.2</ele>
        <time>2020-06-03T13:13:29Z</time>
      </trkpt>
      <trkpt lat="46.49624" lon="-1.79403">
        <ele>3.2</ele>
        <time>2020-06-03T13:13:30Z</time>
      </trkpt>
      <trkpt lat="46.49625" lon="-1.79398">
        <ele>3.1</ele>
        <time>2020-06-03T13:13:31Z</time>
      </trkpt>
      <trkpt lat="46.49625" lon="-1.79394">
        <ele>3.1</ele>
        <time>2020-06-03T13:13:32Z</time>
      </trkpt>
      <trkpt lat="46.49626" lon="-1.79388">
        <ele>3.1</ele>
        <time>2020-06-03T13:13:33Z</time>
      </trkpt>
      <trkpt lat="46.49627" lon="-1.79384">
        <ele>3.1</ele>
        <time>2020-06-03T13:13:34Z</time>
      </trkpt>
      <trkpt lat="46.49628" lon="-1.7938">
        <ele>3.1</ele>
        <time>2020-06-03T13:13:35Z</time>
      </trkpt>
      <trkpt lat="46.49628" lon="-1.79375">
        <ele>3.1</ele>
        <time>2020-06-03T13:13:36Z</time>
      </trkpt>
      <trkpt lat="46.49628" lon="-1.79373">
        <ele>3.1</ele>
        <time>2020-06-03T13:13:37Z</time>
      </trkpt>
      <trkpt lat="46.49628" lon="-1.79369">
        <ele>3</ele>
        <time>2020-06-03T13:13:38Z</time>
      </trkpt>
      <trkpt lat="46.49629" lon="-1.79365">
        <ele>3</ele>
        <time>2020-06-03T13:13:39Z</time>
      </trkpt>
      <trkpt lat="46.4963" lon="-1.7936">
        <ele>3</ele>
        <time>2020-06-03T13:13:40Z</time>
      </trkpt>
      <trkpt lat="46.4963" lon="-1.79354">
        <ele>3</ele>
        <time>2020-06-03T13:13:41Z</time>
      </trkpt>
      <trkpt lat="46.49629" lon="-1.79348">
        <ele>3</ele>
        <time>2020-06-03T13:13:42Z</time>
      </trkpt>
      <trkpt lat="46.49629" lon="-1.79342">
        <ele>2.9</ele>
        <time>2020-06-03T13:13:43Z</time>
      </trkpt>
      <trkpt lat="46.49628" lon="-1.79336">
        <ele>3</ele>
        <time>2020-06-03T13:13:44Z</time>
      </trkpt>
      <trkpt lat="46.49628" lon="-1.79331">
        <ele>3</ele>
        <time>2020-06-03T13:13:45Z</time>
      </trkpt>
      <trkpt lat="46.49629" lon="-1.79325">
        <ele>3</ele>
        <time>2020-06-03T13:13:46Z</time>
      </trkpt>
      <trkpt lat="46.49629" lon="-1.79318">
        <ele>3</ele>
        <time>2020-06-03T13:13:47Z</time>
      </trkpt>
      <trkpt lat="46.49629" lon="-1.79312">
        <ele>3</ele>
        <time>2020-06-03T13:13:48Z</time>
      </trkpt>
      <trkpt lat="46.49628" lon="-1.79306">
        <ele>3.1</ele>
        <time>2020-06-03T13:13:49Z</time>
      </trkpt>
      <trkpt lat="46.49628" lon="-1.793">
        <ele>3.1</ele>
        <time>2020-06-03T13:13:50Z</time>
      </trkpt>
      <trkpt lat="46.49628" lon="-1.79294">
        <ele>3.2</ele>
        <time>2020-06-03T13:13:51Z</time>
      </trkpt>
      <trkpt lat="46.49628" lon="-1.79289">
        <ele>3.2</ele>
        <time>2020-06-03T13:13:52Z</time>
      </trkpt>
      <trkpt lat="46.49627" lon="-1.79283">
        <ele>3.3</ele>
        <time>2020-06-03T13:13:53Z</time>
      </trkpt>
      <trkpt lat="46.49627" lon="-1.79277">
        <ele>3.3</ele>
        <time>2020-06-03T13:13:54Z</time>
      </trkpt>
      <trkpt lat="46.49626" lon="-1.79271">
        <ele>3.4</ele>
        <time>2020-06-03T13:13:55Z</time>
      </trkpt>
      <trkpt lat="46.49625" lon="-1.79264">
        <ele>3.4</ele>
        <time>2020-06-03T13:13:56Z</time>
      </trkpt>
      <trkpt lat="46.49625" lon="-1.79258">
        <ele>3.5</ele>
        <time>2020-06-03T13:13:57Z</time>
      </trkpt>
      <trkpt lat="46.49626" lon="-1.79252">
        <ele>3.5</ele>
        <time>2020-06-03T13:13:58Z</time>
      </trkpt>
      <trkpt lat="46.49625" lon="-1.79246">
        <ele>3.6</ele>
        <time>2020-06-03T13:13:59Z</time>
      </trkpt>
      <trkpt lat="46.49625" lon="-1.7924">
        <ele>3.6</ele>
        <time>2020-06-03T13:14:00Z</time>
      </trkpt>
      <trkpt lat="46.49625" lon="-1.79235">
        <ele>3.7</ele>
        <time>2020-06-03T13:14:01Z</time>
      </trkpt>
      <trkpt lat="46.49625" lon="-1.79229">
        <ele>3.7</ele>
        <time>2020-06-03T13:14:02Z</time>
      </trkpt>
      <trkpt lat="46.49625" lon="-1.79223">
        <ele>3.7</ele>
        <time>2020-06-03T13:14:03Z</time>
      </trkpt>
      <trkpt lat="46.49625" lon="-1.79217">
        <ele>3.7</ele>
        <time>2020-06-03T13:14:04Z</time>
      </trkpt>
      <trkpt lat="46.49623" lon="-1.79212">
        <ele>3.7</ele>
        <time>2020-06-03T13:14:05Z</time>
      </trkpt>
      <trkpt lat="46.49623" lon="-1.79206">
        <ele>3.7</ele>
        <time>2020-06-03T13:14:06Z</time>
      </trkpt>
      <trkpt lat="46.49622" lon="-1.792">
        <ele>3.8</ele>
        <time>2020-06-03T13:14:07Z</time>
      </trkpt>
      <trkpt lat="46.49621" lon="-1.79195">
        <ele>3.8</ele>
        <time>2020-06-03T13:14:08Z</time>
      </trkpt>
      <trkpt lat="46.4962" lon="-1.7919">
        <ele>3.8</ele>
        <time>2020-06-03T13:14:09Z</time>
      </trkpt>
      <trkpt lat="46.49618" lon="-1.79185">
        <ele>3.8</ele>
        <time>2020-06-03T13:14:10Z</time>
      </trkpt>
      <trkpt lat="46.49617" lon="-1.7918">
        <ele>3.8</ele>
        <time>2020-06-03T13:14:11Z</time>
      </trkpt>
      <trkpt lat="46.49616" lon="-1.79175">
        <ele>3.8</ele>
        <time>2020-06-03T13:14:12Z</time>
      </trkpt>
      <trkpt lat="46.49615" lon="-1.79168">
        <ele>3.9</ele>
        <time>2020-06-03T13:14:13Z</time>
      </trkpt>
      <trkpt lat="46.49614" lon="-1.79161">
        <ele>3.9</ele>
        <time>2020-06-03T13:14:14Z</time>
      </trkpt>
      <trkpt lat="46.49614" lon="-1.79156">
        <ele>3.9</ele>
        <time>2020-06-03T13:14:15Z</time>
      </trkpt>
      <trkpt lat="46.49613" lon="-1.7915">
        <ele>3.9</ele>
        <time>2020-06-03T13:14:16Z</time>
      </trkpt>
      <trkpt lat="46.49613" lon="-1.79144">
        <ele>3.9</ele>
        <time>2020-06-03T13:14:17Z</time>
      </trkpt>
      <trkpt lat="46.49612" lon="-1.79138">
        <ele>3.9</ele>
        <time>2020-06-03T13:14:18Z</time>
      </trkpt>
      <trkpt lat="46.49612" lon="-1.79131">
        <ele>3.9</ele>
        <time>2020-06-03T13:14:19Z</time>
      </trkpt>
      <trkpt lat="46.49611" lon="-1.79124">
        <ele>3.9</ele>
        <time>2020-06-03T13:14:20Z</time>
      </trkpt>
      <trkpt lat="46.4961" lon="-1.79118">
        <ele>3.9</ele>
        <time>2020-06-03T13:14:21Z</time>
      </trkpt>
      <trkpt lat="46.49611" lon="-1.79111">
        <ele>3.9</ele>
        <time>2020-06-03T13:14:22Z</time>
      </trkpt>
      <trkpt lat="46.49611" lon="-1.79104">
        <ele>3.9</ele>
        <time>2020-06-03T13:14:23Z</time>
      </trkpt>
      <trkpt lat="46.4961" lon="-1.79096">
        <ele>3.9</ele>
        <time>2020-06-03T13:14:24Z</time>
      </trkpt>
      <trkpt lat="46.4961" lon="-1.79089">
        <ele>3.9</ele>
        <time>2020-06-03T13:14:25Z</time>
      </trkpt>
      <trkpt lat="46.49609" lon="-1.79082">
        <ele>3.9</ele>
        <time>2020-06-03T13:14:26Z</time>
      </trkpt>
      <trkpt lat="46.49609" lon="-1.79075">
        <ele>3.9</ele>
        <time>2020-06-03T13:14:27Z</time>
      </trkpt>
      <trkpt lat="46.49608" lon="-1.79069">
        <ele>3.9</ele>
        <time>2020-06-03T13:14:28Z</time>
      </trkpt>
      <trkpt lat="46.49608" lon="-1.79063">
        <ele>3.8</ele>
        <time>2020-06-03T13:14:29Z</time>
      </trkpt>
      <trkpt lat="46.49608" lon="-1.79057">
        <ele>3.8</ele>
        <time>2020-06-03T13:14:30Z</time>
      </trkpt>
      <trkpt lat="46.49608" lon="-1.7905">
        <ele>3.8</ele>
        <time>2020-06-03T13:14:31Z</time>
      </trkpt>
      <trkpt lat="46.49607" lon="-1.79044">
        <ele>3.8</ele>
        <time>2020-06-03T13:14:32Z</time>
      </trkpt>
      <trkpt lat="46.49607" lon="-1.7904">
        <ele>3.8</ele>
        <time>2020-06-03T13:14:33Z</time>
      </trkpt>
      <trkpt lat="46.49607" lon="-1.79036">
        <ele>3.8</ele>
        <time>2020-06-03T13:14:34Z</time>
      </trkpt>
      <trkpt lat="46.49608" lon="-1.79035">
        <ele>3.8</ele>
        <time>2020-06-03T13:14:35Z</time>
      </trkpt>
      <trkpt lat="46.49608" lon="-1.79032">
        <ele>3.8</ele>
        <time>2020-06-03T13:14:36Z</time>
      </trkpt>
      <trkpt lat="46.49608" lon="-1.79031">
        <ele>3.8</ele>
        <time>2020-06-03T13:14:37Z</time>
      </trkpt>
      <trkpt lat="46.49607" lon="-1.7903">
        <ele>3.8</ele>
        <time>2020-06-03T13:14:38Z</time>
      </trkpt>
      <trkpt lat="46.49607" lon="-1.79028">
        <ele>3.8</ele>
        <time>2020-06-03T13:14:39Z</time>
      </trkpt>
      <trkpt lat="46.49607" lon="-1.79026">
        <ele>3.8</ele>
        <time>2020-06-03T13:14:40Z</time>
      </trkpt>
      <trkpt lat="46.49607" lon="-1.79025">
        <ele>3.8</ele>
        <time>2020-06-03T13:14:41Z</time>
      </trkpt>
      <trkpt lat="46.49607" lon="-1.79024">
        <ele>3.8</ele>
        <time>2020-06-03T13:14:42Z</time>
      </trkpt>
      <trkpt lat="46.49606" lon="-1.79024">
        <ele>3.8</ele>
        <time>2020-06-03T13:14:43Z</time>
      </trkpt>
      <trkpt lat="46.49606" lon="-1.79024">
        <ele>3.8</ele>
        <time>2020-06-03T13:14:44Z</time>
      </trkpt>
      <trkpt lat="46.49604" lon="-1.79024">
        <ele>3.8</ele>
        <time>2020-06-03T13:14:45Z</time>
      </trkpt>
      <trkpt lat="46.49603" lon="-1.79021">
        <ele>3.8</ele>
        <time>2020-06-03T13:14:46Z</time>
      </trkpt>
      <trkpt lat="46.49603" lon="-1.79019">
        <ele>3.8</ele>
        <time>2020-06-03T13:14:47Z</time>
      </trkpt>
      <trkpt lat="46.49603" lon="-1.79017">
        <ele>3.8</ele>
        <time>2020-06-03T13:14:48Z</time>
      </trkpt>
      <trkpt lat="46.49604" lon="-1.79012">
        <ele>3.8</ele>
        <time>2020-06-03T13:14:49Z</time>
      </trkpt>
      <trkpt lat="46.49606" lon="-1.79006">
        <ele>3.8</ele>
        <time>2020-06-03T13:14:50Z</time>
      </trkpt>
      <trkpt lat="46.49606" lon="-1.79004">
        <ele>3.8</ele>
        <time>2020-06-03T13:14:51Z</time>
      </trkpt>
      <trkpt lat="46.49606" lon="-1.79">
        <ele>3.8</ele>
        <time>2020-06-03T13:14:52Z</time>
      </trkpt>
      <trkpt lat="46.49606" lon="-1.78994">
        <ele>3.8</ele>
        <time>2020-06-03T13:14:53Z</time>
      </trkpt>
      <trkpt lat="46.49605" lon="-1.78992">
        <ele>3.8</ele>
        <time>2020-06-03T13:14:54Z</time>
      </trkpt>
      <trkpt lat="46.49605" lon="-1.78986">
        <ele>3.8</ele>
        <time>2020-06-03T13:14:55Z</time>
      </trkpt>
      <trkpt lat="46.49605" lon="-1.78985">
        <ele>3.8</ele>
        <time>2020-06-03T13:14:56Z</time>
      </trkpt>
      <trkpt lat="46.49607" lon="-1.78979">
        <ele>3.9</ele>
        <time>2020-06-03T13:14:57Z</time>
      </trkpt>
      <trkpt lat="46.49608" lon="-1.78976">
        <ele>3.9</ele>
        <time>2020-06-03T13:14:58Z</time>
      </trkpt>
      <trkpt lat="46.49609" lon="-1.78971">
        <ele>3.9</ele>
        <time>2020-06-03T13:14:59Z</time>
      </trkpt>
      <trkpt lat="46.49611" lon="-1.78966">
        <ele>3.9</ele>
        <time>2020-06-03T13:15:00Z</time>
      </trkpt>
      <trkpt lat="46.49613" lon="-1.78962">
        <ele>3.9</ele>
        <time>2020-06-03T13:15:01Z</time>
      </trkpt>
      <trkpt lat="46.49615" lon="-1.78957">
        <ele>3.9</ele>
        <time>2020-06-03T13:15:02Z</time>
      </trkpt>
      <trkpt lat="46.49617" lon="-1.78953">
        <ele>3.9</ele>
        <time>2020-06-03T13:15:03Z</time>
      </trkpt>
      <trkpt lat="46.49618" lon="-1.78948">
        <ele>3.9</ele>
        <time>2020-06-03T13:15:04Z</time>
      </trkpt>
      <trkpt lat="46.49619" lon="-1.78943">
        <ele>3.9</ele>
        <time>2020-06-03T13:15:05Z</time>
      </trkpt>
      <trkpt lat="46.49621" lon="-1.78937">
        <ele>3.9</ele>
        <time>2020-06-03T13:15:06Z</time>
      </trkpt>
      <trkpt lat="46.49623" lon="-1.78931">
        <ele>3.9</ele>
        <time>2020-06-03T13:15:07Z</time>
      </trkpt>
      <trkpt lat="46.49626" lon="-1.78925">
        <ele>3.9</ele>
        <time>2020-06-03T13:15:08Z</time>
      </trkpt>
      <trkpt lat="46.4963" lon="-1.78918">
        <ele>3.9</ele>
        <time>2020-06-03T13:15:09Z</time>
      </trkpt>
      <trkpt lat="46.49632" lon="-1.78913">
        <ele>3.9</ele>
        <time>2020-06-03T13:15:10Z</time>
      </trkpt>
      <trkpt lat="46.49635" lon="-1.78907">
        <ele>3.9</ele>
        <time>2020-06-03T13:15:11Z</time>
      </trkpt>
      <trkpt lat="46.49637" lon="-1.78902">
        <ele>3.9</ele>
        <time>2020-06-03T13:15:12Z</time>
      </trkpt>
      <trkpt lat="46.49639" lon="-1.78898">
        <ele>3.9</ele>
        <time>2020-06-03T13:15:13Z</time>
      </trkpt>
      <trkpt lat="46.49642" lon="-1.78892">
        <ele>3.9</ele>
        <time>2020-06-03T13:15:14Z</time>
      </trkpt>
      <trkpt lat="46.49644" lon="-1.78887">
        <ele>3.9</ele>
        <time>2020-06-03T13:15:15Z</time>
      </trkpt>
      <trkpt lat="46.49645" lon="-1.78881">
        <ele>3.9</ele>
        <time>2020-06-03T13:15:16Z</time>
      </trkpt>
      <trkpt lat="46.49647" lon="-1.78876">
        <ele>4</ele>
        <time>2020-06-03T13:15:17Z</time>
      </trkpt>
      <trkpt lat="46.49649" lon="-1.78871">
        <ele>4</ele>
        <time>2020-06-03T13:15:18Z</time>
      </trkpt>
      <trkpt lat="46.4965" lon="-1.78866">
        <ele>4</ele>
        <time>2020-06-03T13:15:19Z</time>
      </trkpt>
      <trkpt lat="46.49654" lon="-1.78863">
        <ele>4</ele>
        <time>2020-06-03T13:15:20Z</time>
      </trkpt>
      <trkpt lat="46.49657" lon="-1.78857">
        <ele>4</ele>
        <time>2020-06-03T13:15:21Z</time>
      </trkpt>
      <trkpt lat="46.49659" lon="-1.78852">
        <ele>4</ele>
        <time>2020-06-03T13:15:22Z</time>
      </trkpt>
      <trkpt lat="46.49661" lon="-1.78846">
        <ele>4</ele>
        <time>2020-06-03T13:15:23Z</time>
      </trkpt>
      <trkpt lat="46.49662" lon="-1.78841">
        <ele>4</ele>
        <time>2020-06-03T13:15:24Z</time>
      </trkpt>
      <trkpt lat="46.49665" lon="-1.78836">
        <ele>4</ele>
        <time>2020-06-03T13:15:25Z</time>
      </trkpt>
      <trkpt lat="46.49667" lon="-1.78831">
        <ele>4</ele>
        <time>2020-06-03T13:15:26Z</time>
      </trkpt>
      <trkpt lat="46.4967" lon="-1.78825">
        <ele>4</ele>
        <time>2020-06-03T13:15:27Z</time>
      </trkpt>
      <trkpt lat="46.49672" lon="-1.78817">
        <ele>4</ele>
        <time>2020-06-03T13:15:28Z</time>
      </trkpt>
      <trkpt lat="46.49674" lon="-1.78812">
        <ele>4</ele>
        <time>2020-06-03T13:15:29Z</time>
      </trkpt>
      <trkpt lat="46.49677" lon="-1.78806">
        <ele>4</ele>
        <time>2020-06-03T13:15:30Z</time>
      </trkpt>
      <trkpt lat="46.49679" lon="-1.788">
        <ele>4</ele>
        <time>2020-06-03T13:15:31Z</time>
      </trkpt>
      <trkpt lat="46.49683" lon="-1.78794">
        <ele>4.1</ele>
        <time>2020-06-03T13:15:32Z</time>
      </trkpt>
      <trkpt lat="46.49685" lon="-1.78788">
        <ele>4.1</ele>
        <time>2020-06-03T13:15:33Z</time>
      </trkpt>
      <trkpt lat="46.49688" lon="-1.78783">
        <ele>4</ele>
        <time>2020-06-03T13:15:34Z</time>
      </trkpt>
      <trkpt lat="46.49691" lon="-1.78777">
        <ele>4</ele>
        <time>2020-06-03T13:15:35Z</time>
      </trkpt>
      <trkpt lat="46.49694" lon="-1.7877">
        <ele>4</ele>
        <time>2020-06-03T13:15:36Z</time>
      </trkpt>
      <trkpt lat="46.49697" lon="-1.78763">
        <ele>4</ele>
        <time>2020-06-03T13:15:37Z</time>
      </trkpt>
      <trkpt lat="46.497" lon="-1.78757">
        <ele>4</ele>
        <time>2020-06-03T13:15:38Z</time>
      </trkpt>
      <trkpt lat="46.49703" lon="-1.7875">
        <ele>4</ele>
        <time>2020-06-03T13:15:39Z</time>
      </trkpt>
      <trkpt lat="46.49705" lon="-1.78745">
        <ele>4</ele>
        <time>2020-06-03T13:15:40Z</time>
      </trkpt>
      <trkpt lat="46.49708" lon="-1.7874">
        <ele>4</ele>
        <time>2020-06-03T13:15:41Z</time>
      </trkpt>
      <trkpt lat="46.49711" lon="-1.78735">
        <ele>4</ele>
        <time>2020-06-03T13:15:42Z</time>
      </trkpt>
      <trkpt lat="46.49713" lon="-1.78729">
        <ele>4</ele>
        <time>2020-06-03T13:15:43Z</time>
      </trkpt>
      <trkpt lat="46.49716" lon="-1.78723">
        <ele>4</ele>
        <time>2020-06-03T13:15:44Z</time>
      </trkpt>
      <trkpt lat="46.49718" lon="-1.78718">
        <ele>4</ele>
        <time>2020-06-03T13:15:45Z</time>
      </trkpt>
      <trkpt lat="46.4972" lon="-1.78712">
        <ele>4</ele>
        <time>2020-06-03T13:15:46Z</time>
      </trkpt>
      <trkpt lat="46.49722" lon="-1.78705">
        <ele>4</ele>
        <time>2020-06-03T13:15:47Z</time>
      </trkpt>
      <trkpt lat="46.49724" lon="-1.78702">
        <ele>4</ele>
        <time>2020-06-03T13:15:48Z</time>
      </trkpt>
      <trkpt lat="46.49725" lon="-1.78697">
        <ele>4</ele>
        <time>2020-06-03T13:15:49Z</time>
      </trkpt>
      <trkpt lat="46.49727" lon="-1.78692">
        <ele>4</ele>
        <time>2020-06-03T13:15:50Z</time>
      </trkpt>
      <trkpt lat="46.49729" lon="-1.78687">
        <ele>4</ele>
        <time>2020-06-03T13:15:51Z</time>
      </trkpt>
      <trkpt lat="46.49731" lon="-1.78682">
        <ele>4</ele>
        <time>2020-06-03T13:15:52Z</time>
      </trkpt>
      <trkpt lat="46.49732" lon="-1.78675">
        <ele>3.9</ele>
        <time>2020-06-03T13:15:53Z</time>
      </trkpt>
      <trkpt lat="46.49735" lon="-1.78668">
        <ele>3.9</ele>
        <time>2020-06-03T13:15:54Z</time>
      </trkpt>
      <trkpt lat="46.49737" lon="-1.78662">
        <ele>3.9</ele>
        <time>2020-06-03T13:15:55Z</time>
      </trkpt>
      <trkpt lat="46.49739" lon="-1.78655">
        <ele>3.9</ele>
        <time>2020-06-03T13:15:56Z</time>
      </trkpt>
      <trkpt lat="46.49742" lon="-1.78649">
        <ele>3.9</ele>
        <time>2020-06-03T13:15:57Z</time>
      </trkpt>
      <trkpt lat="46.49744" lon="-1.78642">
        <ele>3.9</ele>
        <time>2020-06-03T13:15:58Z</time>
      </trkpt>
      <trkpt lat="46.49746" lon="-1.78637">
        <ele>3.9</ele>
        <time>2020-06-03T13:15:59Z</time>
      </trkpt>
      <trkpt lat="46.49748" lon="-1.78632">
        <ele>4</ele>
        <time>2020-06-03T13:16:00Z</time>
      </trkpt>
      <trkpt lat="46.49751" lon="-1.78626">
        <ele>4</ele>
        <time>2020-06-03T13:16:01Z</time>
      </trkpt>
      <trkpt lat="46.49753" lon="-1.78621">
        <ele>4</ele>
        <time>2020-06-03T13:16:02Z</time>
      </trkpt>
      <trkpt lat="46.49755" lon="-1.78616">
        <ele>4</ele>
        <time>2020-06-03T13:16:03Z</time>
      </trkpt>
      <trkpt lat="46.49757" lon="-1.78611">
        <ele>4</ele>
        <time>2020-06-03T13:16:04Z</time>
      </trkpt>
      <trkpt lat="46.49759" lon="-1.78606">
        <ele>4</ele>
        <time>2020-06-03T13:16:05Z</time>
      </trkpt>
      <trkpt lat="46.4976" lon="-1.78601">
        <ele>4</ele>
        <time>2020-06-03T13:16:06Z</time>
      </trkpt>
      <trkpt lat="46.4976" lon="-1.78594">
        <ele>4</ele>
        <time>2020-06-03T13:16:07Z</time>
      </trkpt>
      <trkpt lat="46.49761" lon="-1.78588">
        <ele>4</ele>
        <time>2020-06-03T13:16:08Z</time>
      </trkpt>
      <trkpt lat="46.49762" lon="-1.78583">
        <ele>4.1</ele>
        <time>2020-06-03T13:16:09Z</time>
      </trkpt>
      <trkpt lat="46.49763" lon="-1.78578">
        <ele>4.1</ele>
        <time>2020-06-03T13:16:10Z</time>
      </trkpt>
      <trkpt lat="46.49766" lon="-1.78573">
        <ele>4.3</ele>
        <time>2020-06-03T13:16:11Z</time>
      </trkpt>
      <trkpt lat="46.4977" lon="-1.78569">
        <ele>4.5</ele>
        <time>2020-06-03T13:16:12Z</time>
      </trkpt>
      <trkpt lat="46.49774" lon="-1.78565">
        <ele>4.4</ele>
        <time>2020-06-03T13:16:13Z</time>
      </trkpt>
      <trkpt lat="46.49779" lon="-1.78562">
        <ele>4.4</ele>
        <time>2020-06-03T13:16:14Z</time>
      </trkpt>
      <trkpt lat="46.49783" lon="-1.78556">
        <ele>4.4</ele>
        <time>2020-06-03T13:16:15Z</time>
      </trkpt>
      <trkpt lat="46.49786" lon="-1.78551">
        <ele>4.4</ele>
        <time>2020-06-03T13:16:16Z</time>
      </trkpt>
      <trkpt lat="46.49789" lon="-1.78545">
        <ele>4.3</ele>
        <time>2020-06-03T13:16:17Z</time>
      </trkpt>
      <trkpt lat="46.49792" lon="-1.7854">
        <ele>4.3</ele>
        <time>2020-06-03T13:16:18Z</time>
      </trkpt>
      <trkpt lat="46.49796" lon="-1.78536">
        <ele>4.3</ele>
        <time>2020-06-03T13:16:19Z</time>
      </trkpt>
      <trkpt lat="46.49799" lon="-1.7853">
        <ele>4.3</ele>
        <time>2020-06-03T13:16:20Z</time>
      </trkpt>
      <trkpt lat="46.49802" lon="-1.78526">
        <ele>4.3</ele>
        <time>2020-06-03T13:16:21Z</time>
      </trkpt>
      <trkpt lat="46.49805" lon="-1.78521">
        <ele>4.3</ele>
        <time>2020-06-03T13:16:22Z</time>
      </trkpt>
      <trkpt lat="46.49809" lon="-1.78517">
        <ele>4.2</ele>
        <time>2020-06-03T13:16:23Z</time>
      </trkpt>
      <trkpt lat="46.49812" lon="-1.78512">
        <ele>4.2</ele>
        <time>2020-06-03T13:16:24Z</time>
      </trkpt>
      <trkpt lat="46.49816" lon="-1.78508">
        <ele>4.2</ele>
        <time>2020-06-03T13:16:25Z</time>
      </trkpt>
      <trkpt lat="46.4982" lon="-1.78505">
        <ele>4.2</ele>
        <time>2020-06-03T13:16:26Z</time>
      </trkpt>
      <trkpt lat="46.49824" lon="-1.78502">
        <ele>4.2</ele>
        <time>2020-06-03T13:16:27Z</time>
      </trkpt>
      <trkpt lat="46.49828" lon="-1.78499">
        <ele>4.2</ele>
        <time>2020-06-03T13:16:28Z</time>
      </trkpt>
      <trkpt lat="46.49831" lon="-1.78495">
        <ele>4.2</ele>
        <time>2020-06-03T13:16:29Z</time>
      </trkpt>
      <trkpt lat="46.49835" lon="-1.78492">
        <ele>4.1</ele>
        <time>2020-06-03T13:16:30Z</time>
      </trkpt>
      <trkpt lat="46.49839" lon="-1.78489">
        <ele>4.1</ele>
        <time>2020-06-03T13:16:31Z</time>
      </trkpt>
      <trkpt lat="46.49842" lon="-1.78486">
        <ele>4.1</ele>
        <time>2020-06-03T13:16:32Z</time>
      </trkpt>
      <trkpt lat="46.49847" lon="-1.78482">
        <ele>4.2</ele>
        <time>2020-06-03T13:16:33Z</time>
      </trkpt>
      <trkpt lat="46.49851" lon="-1.78479">
        <ele>4.2</ele>
        <time>2020-06-03T13:16:34Z</time>
      </trkpt>
      <trkpt lat="46.49856" lon="-1.78478">
        <ele>4.3</ele>
        <time>2020-06-03T13:16:35Z</time>
      </trkpt>
      <trkpt lat="46.4986" lon="-1.78476">
        <ele>4.3</ele>
        <time>2020-06-03T13:16:36Z</time>
      </trkpt>
      <trkpt lat="46.49863" lon="-1.78474">
        <ele>4.3</ele>
        <time>2020-06-03T13:16:37Z</time>
      </trkpt>
      <trkpt lat="46.49867" lon="-1.78472">
        <ele>4.3</ele>
        <time>2020-06-03T13:16:38Z</time>
      </trkpt>
      <trkpt lat="46.4987" lon="-1.78469">
        <ele>4.3</ele>
        <time>2020-06-03T13:16:39Z</time>
      </trkpt>
      <trkpt lat="46.49873" lon="-1.78465">
        <ele>4.4</ele>
        <time>2020-06-03T13:16:40Z</time>
      </trkpt>
      <trkpt lat="46.49876" lon="-1.78462">
        <ele>4.4</ele>
        <time>2020-06-03T13:16:41Z</time>
      </trkpt>
      <trkpt lat="46.4988" lon="-1.78459">
        <ele>4.4</ele>
        <time>2020-06-03T13:16:42Z</time>
      </trkpt>
      <trkpt lat="46.49883" lon="-1.78457">
        <ele>4.4</ele>
        <time>2020-06-03T13:16:43Z</time>
      </trkpt>
      <trkpt lat="46.49886" lon="-1.78454">
        <ele>4.4</ele>
        <time>2020-06-03T13:16:44Z</time>
      </trkpt>
      <trkpt lat="46.49889" lon="-1.7845">
        <ele>4.5</ele>
        <time>2020-06-03T13:16:45Z</time>
      </trkpt>
      <trkpt lat="46.49892" lon="-1.78448">
        <ele>4.5</ele>
        <time>2020-06-03T13:16:46Z</time>
      </trkpt>
      <trkpt lat="46.49895" lon="-1.78444">
        <ele>4.5</ele>
        <time>2020-06-03T13:16:47Z</time>
      </trkpt>
      <trkpt lat="46.49899" lon="-1.7844">
        <ele>4.5</ele>
        <time>2020-06-03T13:16:48Z</time>
      </trkpt>
      <trkpt lat="46.49902" lon="-1.78435">
        <ele>4.6</ele>
        <time>2020-06-03T13:16:49Z</time>
      </trkpt>
      <trkpt lat="46.49905" lon="-1.7843">
        <ele>4.6</ele>
        <time>2020-06-03T13:16:50Z</time>
      </trkpt>
      <trkpt lat="46.49909" lon="-1.78425">
        <ele>4.6</ele>
        <time>2020-06-03T13:16:51Z</time>
      </trkpt>
      <trkpt lat="46.49912" lon="-1.78423">
        <ele>4.6</ele>
        <time>2020-06-03T13:16:52Z</time>
      </trkpt>
      <trkpt lat="46.49914" lon="-1.78419">
        <ele>4.6</ele>
        <time>2020-06-03T13:16:53Z</time>
      </trkpt>
      <trkpt lat="46.49917" lon="-1.78416">
        <ele>4.6</ele>
        <time>2020-06-03T13:16:54Z</time>
      </trkpt>
      <trkpt lat="46.4992" lon="-1.78413">
        <ele>4.7</ele>
        <time>2020-06-03T13:16:55Z</time>
      </trkpt>
      <trkpt lat="46.49924" lon="-1.78411">
        <ele>4.7</ele>
        <time>2020-06-03T13:16:56Z</time>
      </trkpt>
      <trkpt lat="46.49929" lon="-1.78416">
        <ele>4.8</ele>
        <time>2020-06-03T13:16:57Z</time>
      </trkpt>
      <trkpt lat="46.49934" lon="-1.7842">
        <ele>4.7</ele>
        <time>2020-06-03T13:16:58Z</time>
      </trkpt>
      <trkpt lat="46.49939" lon="-1.78423">
        <ele>4.7</ele>
        <time>2020-06-03T13:16:59Z</time>
      </trkpt>
      <trkpt lat="46.49943" lon="-1.78427">
        <ele>4.7</ele>
        <time>2020-06-03T13:17:00Z</time>
      </trkpt>
      <trkpt lat="46.49948" lon="-1.78431">
        <ele>4.7</ele>
        <time>2020-06-03T13:17:01Z</time>
      </trkpt>
      <trkpt lat="46.49951" lon="-1.78435">
        <ele>4.6</ele>
        <time>2020-06-03T13:17:02Z</time>
      </trkpt>
      <trkpt lat="46.49955" lon="-1.78439">
        <ele>4.6</ele>
        <time>2020-06-03T13:17:03Z</time>
      </trkpt>
      <trkpt lat="46.49958" lon="-1.78445">
        <ele>4.6</ele>
        <time>2020-06-03T13:17:04Z</time>
      </trkpt>
      <trkpt lat="46.49961" lon="-1.7845">
        <ele>4.6</ele>
        <time>2020-06-03T13:17:05Z</time>
      </trkpt>
      <trkpt lat="46.49963" lon="-1.78454">
        <ele>4.7</ele>
        <time>2020-06-03T13:17:06Z</time>
      </trkpt>
      <trkpt lat="46.49966" lon="-1.7846">
        <ele>4.7</ele>
        <time>2020-06-03T13:17:07Z</time>
      </trkpt>
      <trkpt lat="46.49968" lon="-1.78465">
        <ele>4.7</ele>
        <time>2020-06-03T13:17:08Z</time>
      </trkpt>
      <trkpt lat="46.49971" lon="-1.78471">
        <ele>4.7</ele>
        <time>2020-06-03T13:17:09Z</time>
      </trkpt>
      <trkpt lat="46.49972" lon="-1.78478">
        <ele>4.7</ele>
        <time>2020-06-03T13:17:10Z</time>
      </trkpt>
      <trkpt lat="46.49973" lon="-1.78483">
        <ele>4.7</ele>
        <time>2020-06-03T13:17:11Z</time>
      </trkpt>
      <trkpt lat="46.49976" lon="-1.78488">
        <ele>4.8</ele>
        <time>2020-06-03T13:17:12Z</time>
      </trkpt>
      <trkpt lat="46.49979" lon="-1.78494">
        <ele>4.8</ele>
        <time>2020-06-03T13:17:13Z</time>
      </trkpt>
      <trkpt lat="46.49981" lon="-1.785">
        <ele>4.8</ele>
        <time>2020-06-03T13:17:14Z</time>
      </trkpt>
      <trkpt lat="46.49984" lon="-1.78506">
        <ele>4.9</ele>
        <time>2020-06-03T13:17:15Z</time>
      </trkpt>
      <trkpt lat="46.49986" lon="-1.78511">
        <ele>4.9</ele>
        <time>2020-06-03T13:17:16Z</time>
      </trkpt>
      <trkpt lat="46.49989" lon="-1.78516">
        <ele>4.9</ele>
        <time>2020-06-03T13:17:17Z</time>
      </trkpt>
      <trkpt lat="46.49993" lon="-1.78521">
        <ele>4.9</ele>
        <time>2020-06-03T13:17:18Z</time>
      </trkpt>
      <trkpt lat="46.49997" lon="-1.78525">
        <ele>5.1</ele>
        <time>2020-06-03T13:17:19Z</time>
      </trkpt>
      <trkpt lat="46.50001" lon="-1.78527">
        <ele>5.1</ele>
        <time>2020-06-03T13:17:20Z</time>
      </trkpt>
      <trkpt lat="46.50005" lon="-1.78529">
        <ele>5.1</ele>
        <time>2020-06-03T13:17:21Z</time>
      </trkpt>
      <trkpt lat="46.5001" lon="-1.78531">
        <ele>5.1</ele>
        <time>2020-06-03T13:17:22Z</time>
      </trkpt>
      <trkpt lat="46.50015" lon="-1.78532">
        <ele>5.2</ele>
        <time>2020-06-03T13:17:23Z</time>
      </trkpt>
      <trkpt lat="46.5002" lon="-1.78533">
        <ele>5.2</ele>
        <time>2020-06-03T13:17:24Z</time>
      </trkpt>
      <trkpt lat="46.50026" lon="-1.78535">
        <ele>5.2</ele>
        <time>2020-06-03T13:17:25Z</time>
      </trkpt>
      <trkpt lat="46.50032" lon="-1.78536">
        <ele>5.2</ele>
        <time>2020-06-03T13:17:26Z</time>
      </trkpt>
      <trkpt lat="46.50037" lon="-1.78538">
        <ele>5.3</ele>
        <time>2020-06-03T13:17:27Z</time>
      </trkpt>
      <trkpt lat="46.50042" lon="-1.7854">
        <ele>5.3</ele>
        <time>2020-06-03T13:17:28Z</time>
      </trkpt>
      <trkpt lat="46.50047" lon="-1.78541">
        <ele>5.3</ele>
        <time>2020-06-03T13:17:29Z</time>
      </trkpt>
      <trkpt lat="46.50052" lon="-1.78543">
        <ele>5.2</ele>
        <time>2020-06-03T13:17:30Z</time>
      </trkpt>
      <trkpt lat="46.50056" lon="-1.78544">
        <ele>5.2</ele>
        <time>2020-06-03T13:17:31Z</time>
      </trkpt>
      <trkpt lat="46.50061" lon="-1.78547">
        <ele>5.2</ele>
        <time>2020-06-03T13:17:32Z</time>
      </trkpt>
      <trkpt lat="46.50066" lon="-1.78549">
        <ele>5.2</ele>
        <time>2020-06-03T13:17:33Z</time>
      </trkpt>
      <trkpt lat="46.50072" lon="-1.78552">
        <ele>5.1</ele>
        <time>2020-06-03T13:17:34Z</time>
      </trkpt>
      <trkpt lat="46.50078" lon="-1.78554">
        <ele>5.1</ele>
        <time>2020-06-03T13:17:35Z</time>
      </trkpt>
      <trkpt lat="46.50083" lon="-1.78557">
        <ele>5</ele>
        <time>2020-06-03T13:17:36Z</time>
      </trkpt>
      <trkpt lat="46.50087" lon="-1.78558">
        <ele>5</ele>
        <time>2020-06-03T13:17:37Z</time>
      </trkpt>
      <trkpt lat="46.50092" lon="-1.78559">
        <ele>4.3</ele>
        <time>2020-06-03T13:17:38Z</time>
      </trkpt>
      <trkpt lat="46.50097" lon="-1.78561">
        <ele>4</ele>
        <time>2020-06-03T13:17:39Z</time>
      </trkpt>
      <trkpt lat="46.50102" lon="-1.78563">
        <ele>3.5</ele>
        <time>2020-06-03T13:17:40Z</time>
      </trkpt>
      <trkpt lat="46.50106" lon="-1.78564">
        <ele>3.4</ele>
        <time>2020-06-03T13:17:41Z</time>
      </trkpt>
      <trkpt lat="46.5011" lon="-1.78566">
        <ele>3.4</ele>
        <time>2020-06-03T13:17:42Z</time>
      </trkpt>
      <trkpt lat="46.50115" lon="-1.78567">
        <ele>3.4</ele>
        <time>2020-06-03T13:17:43Z</time>
      </trkpt>
      <trkpt lat="46.5012" lon="-1.78569">
        <ele>3.4</ele>
        <time>2020-06-03T13:17:44Z</time>
      </trkpt>
      <trkpt lat="46.50125" lon="-1.78572">
        <ele>3.3</ele>
        <time>2020-06-03T13:17:45Z</time>
      </trkpt>
      <trkpt lat="46.5013" lon="-1.78573">
        <ele>3.3</ele>
        <time>2020-06-03T13:17:46Z</time>
      </trkpt>
      <trkpt lat="46.50135" lon="-1.78575">
        <ele>3.3</ele>
        <time>2020-06-03T13:17:47Z</time>
      </trkpt>
      <trkpt lat="46.50139" lon="-1.78577">
        <ele>3.2</ele>
        <time>2020-06-03T13:17:48Z</time>
      </trkpt>
      <trkpt lat="46.50144" lon="-1.78579">
        <ele>3.2</ele>
        <time>2020-06-03T13:17:49Z</time>
      </trkpt>
      <trkpt lat="46.50149" lon="-1.7858">
        <ele>3.2</ele>
        <time>2020-06-03T13:17:50Z</time>
      </trkpt>
      <trkpt lat="46.50154" lon="-1.78582">
        <ele>3.1</ele>
        <time>2020-06-03T13:17:51Z</time>
      </trkpt>
      <trkpt lat="46.50159" lon="-1.78584">
        <ele>3.1</ele>
        <time>2020-06-03T13:17:52Z</time>
      </trkpt>
      <trkpt lat="46.50164" lon="-1.78586">
        <ele>3.1</ele>
        <time>2020-06-03T13:17:53Z</time>
      </trkpt>
      <trkpt lat="46.50169" lon="-1.78587">
        <ele>3</ele>
        <time>2020-06-03T13:17:54Z</time>
      </trkpt>
      <trkpt lat="46.50175" lon="-1.7859">
        <ele>3</ele>
        <time>2020-06-03T13:17:55Z</time>
      </trkpt>
      <trkpt lat="46.50179" lon="-1.78593">
        <ele>2.9</ele>
        <time>2020-06-03T13:17:56Z</time>
      </trkpt>
      <trkpt lat="46.50184" lon="-1.78597">
        <ele>2.9</ele>
        <time>2020-06-03T13:17:57Z</time>
      </trkpt>
      <trkpt lat="46.50189" lon="-1.78601">
        <ele>2.9</ele>
        <time>2020-06-03T13:17:58Z</time>
      </trkpt>
      <trkpt lat="46.50194" lon="-1.78604">
        <ele>2.8</ele>
        <time>2020-06-03T13:17:59Z</time>
      </trkpt>
      <trkpt lat="46.50199" lon="-1.78608">
        <ele>2.8</ele>
        <time>2020-06-03T13:18:00Z</time>
      </trkpt>
      <trkpt lat="46.50204" lon="-1.78612">
        <ele>2.8</ele>
        <time>2020-06-03T13:18:01Z</time>
      </trkpt>
      <trkpt lat="46.50208" lon="-1.78616">
        <ele>2.8</ele>
        <time>2020-06-03T13:18:02Z</time>
      </trkpt>
      <trkpt lat="46.50212" lon="-1.7862">
        <ele>2.8</ele>
        <time>2020-06-03T13:18:03Z</time>
      </trkpt>
      <trkpt lat="46.50217" lon="-1.78623">
        <ele>2.8</ele>
        <time>2020-06-03T13:18:04Z</time>
      </trkpt>
      <trkpt lat="46.50223" lon="-1.78627">
        <ele>2.7</ele>
        <time>2020-06-03T13:18:05Z</time>
      </trkpt>
      <trkpt lat="46.50226" lon="-1.78633">
        <ele>2.7</ele>
        <time>2020-06-03T13:18:06Z</time>
      </trkpt>
      <trkpt lat="46.5023" lon="-1.78638">
        <ele>2.7</ele>
        <time>2020-06-03T13:18:07Z</time>
      </trkpt>
      <trkpt lat="46.50235" lon="-1.78638">
        <ele>2.7</ele>
        <time>2020-06-03T13:18:08Z</time>
      </trkpt>
      <trkpt lat="46.5024" lon="-1.78642">
        <ele>2.7</ele>
        <time>2020-06-03T13:18:09Z</time>
      </trkpt>
      <trkpt lat="46.50244" lon="-1.78646">
        <ele>2.7</ele>
        <time>2020-06-03T13:18:10Z</time>
      </trkpt>
      <trkpt lat="46.50248" lon="-1.78651">
        <ele>3.4</ele>
        <time>2020-06-03T13:18:11Z</time>
      </trkpt>
      <trkpt lat="46.50252" lon="-1.78655">
        <ele>3.4</ele>
        <time>2020-06-03T13:18:12Z</time>
      </trkpt>
      <trkpt lat="46.50256" lon="-1.78659">
        <ele>3.4</ele>
        <time>2020-06-03T13:18:13Z</time>
      </trkpt>
      <trkpt lat="46.50261" lon="-1.78664">
        <ele>3.5</ele>
        <time>2020-06-03T13:18:14Z</time>
      </trkpt>
      <trkpt lat="46.50265" lon="-1.78669">
        <ele>3.5</ele>
        <time>2020-06-03T13:18:15Z</time>
      </trkpt>
      <trkpt lat="46.50269" lon="-1.78673">
        <ele>3.5</ele>
        <time>2020-06-03T13:18:16Z</time>
      </trkpt>
      <trkpt lat="46.50273" lon="-1.78679">
        <ele>3.5</ele>
        <time>2020-06-03T13:18:17Z</time>
      </trkpt>
      <trkpt lat="46.50277" lon="-1.78684">
        <ele>3.5</ele>
        <time>2020-06-03T13:18:18Z</time>
      </trkpt>
      <trkpt lat="46.50282" lon="-1.78688">
        <ele>3.5</ele>
        <time>2020-06-03T13:18:19Z</time>
      </trkpt>
      <trkpt lat="46.50286" lon="-1.78692">
        <ele>3.5</ele>
        <time>2020-06-03T13:18:20Z</time>
      </trkpt>
      <trkpt lat="46.5029" lon="-1.78697">
        <ele>3.5</ele>
        <time>2020-06-03T13:18:21Z</time>
      </trkpt>
      <trkpt lat="46.50294" lon="-1.78701">
        <ele>3.6</ele>
        <time>2020-06-03T13:18:22Z</time>
      </trkpt>
      <trkpt lat="46.50299" lon="-1.78706">
        <ele>3.6</ele>
        <time>2020-06-03T13:18:23Z</time>
      </trkpt>
      <trkpt lat="46.50303" lon="-1.78711">
        <ele>3.6</ele>
        <time>2020-06-03T13:18:24Z</time>
      </trkpt>
      <trkpt lat="46.50307" lon="-1.78715">
        <ele>3.6</ele>
        <time>2020-06-03T13:18:25Z</time>
      </trkpt>
      <trkpt lat="46.5031" lon="-1.78719">
        <ele>3.6</ele>
        <time>2020-06-03T13:18:26Z</time>
      </trkpt>
      <trkpt lat="46.50315" lon="-1.78724">
        <ele>3.6</ele>
        <time>2020-06-03T13:18:27Z</time>
      </trkpt>
      <trkpt lat="46.50318" lon="-1.78727">
        <ele>3.6</ele>
        <time>2020-06-03T13:18:28Z</time>
      </trkpt>
      <trkpt lat="46.50322" lon="-1.78731">
        <ele>3.6</ele>
        <time>2020-06-03T13:18:29Z</time>
      </trkpt>
      <trkpt lat="46.50326" lon="-1.78736">
        <ele>3.6</ele>
        <time>2020-06-03T13:18:30Z</time>
      </trkpt>
      <trkpt lat="46.50329" lon="-1.78739">
        <ele>3.6</ele>
        <time>2020-06-03T13:18:31Z</time>
      </trkpt>
      <trkpt lat="46.50333" lon="-1.78744">
        <ele>3.6</ele>
        <time>2020-06-03T13:18:32Z</time>
      </trkpt>
      <trkpt lat="46.50336" lon="-1.78748">
        <ele>3.6</ele>
        <time>2020-06-03T13:18:33Z</time>
      </trkpt>
      <trkpt lat="46.50339" lon="-1.78753">
        <ele>3.6</ele>
        <time>2020-06-03T13:18:34Z</time>
      </trkpt>
      <trkpt lat="46.50344" lon="-1.78758">
        <ele>3.7</ele>
        <time>2020-06-03T13:18:35Z</time>
      </trkpt>
      <trkpt lat="46.50348" lon="-1.78762">
        <ele>3.7</ele>
        <time>2020-06-03T13:18:36Z</time>
      </trkpt>
      <trkpt lat="46.50352" lon="-1.78767">
        <ele>3.7</ele>
        <time>2020-06-03T13:18:37Z</time>
      </trkpt>
      <trkpt lat="46.50355" lon="-1.78771">
        <ele>3.7</ele>
        <time>2020-06-03T13:18:38Z</time>
      </trkpt>
      <trkpt lat="46.50358" lon="-1.78777">
        <ele>3.7</ele>
        <time>2020-06-03T13:18:39Z</time>
      </trkpt>
      <trkpt lat="46.50361" lon="-1.7878">
        <ele>3.7</ele>
        <time>2020-06-03T13:18:40Z</time>
      </trkpt>
      <trkpt lat="46.50364" lon="-1.78784">
        <ele>3.8</ele>
        <time>2020-06-03T13:18:41Z</time>
      </trkpt>
      <trkpt lat="46.50368" lon="-1.78787">
        <ele>3.8</ele>
        <time>2020-06-03T13:18:42Z</time>
      </trkpt>
      <trkpt lat="46.50371" lon="-1.7879">
        <ele>3.8</ele>
        <time>2020-06-03T13:18:43Z</time>
      </trkpt>
      <trkpt lat="46.50375" lon="-1.78794">
        <ele>3.8</ele>
        <time>2020-06-03T13:18:44Z</time>
      </trkpt>
      <trkpt lat="46.50379" lon="-1.78798">
        <ele>3.8</ele>
        <time>2020-06-03T13:18:45Z</time>
      </trkpt>
      <trkpt lat="46.50382" lon="-1.78802">
        <ele>3.8</ele>
        <time>2020-06-03T13:18:46Z</time>
      </trkpt>
      <trkpt lat="46.50386" lon="-1.78805">
        <ele>3.8</ele>
        <time>2020-06-03T13:18:47Z</time>
      </trkpt>
      <trkpt lat="46.5039" lon="-1.78809">
        <ele>3.8</ele>
        <time>2020-06-03T13:18:48Z</time>
      </trkpt>
      <trkpt lat="46.50394" lon="-1.78813">
        <ele>3.8</ele>
        <time>2020-06-03T13:18:49Z</time>
      </trkpt>
      <trkpt lat="46.50398" lon="-1.78817">
        <ele>3.7</ele>
        <time>2020-06-03T13:18:50Z</time>
      </trkpt>
      <trkpt lat="46.50401" lon="-1.78821">
        <ele>3.7</ele>
        <time>2020-06-03T13:18:51Z</time>
      </trkpt>
      <trkpt lat="46.50405" lon="-1.78825">
        <ele>3.7</ele>
        <time>2020-06-03T13:18:52Z</time>
      </trkpt>
      <trkpt lat="46.5041" lon="-1.7883">
        <ele>3.6</ele>
        <time>2020-06-03T13:18:53Z</time>
      </trkpt>
      <trkpt lat="46.50414" lon="-1.78835">
        <ele>3.6</ele>
        <time>2020-06-03T13:18:54Z</time>
      </trkpt>
      <trkpt lat="46.50418" lon="-1.78839">
        <ele>3.6</ele>
        <time>2020-06-03T13:18:55Z</time>
      </trkpt>
      <trkpt lat="46.50422" lon="-1.78841">
        <ele>3.6</ele>
        <time>2020-06-03T13:18:56Z</time>
      </trkpt>
      <trkpt lat="46.50425" lon="-1.78845">
        <ele>3.6</ele>
        <time>2020-06-03T13:18:57Z</time>
      </trkpt>
      <trkpt lat="46.50429" lon="-1.78849">
        <ele>3.6</ele>
        <time>2020-06-03T13:18:58Z</time>
      </trkpt>
      <trkpt lat="46.50432" lon="-1.78854">
        <ele>3.6</ele>
        <time>2020-06-03T13:18:59Z</time>
      </trkpt>
      <trkpt lat="46.50436" lon="-1.7886">
        <ele>3.7</ele>
        <time>2020-06-03T13:19:00Z</time>
      </trkpt>
      <trkpt lat="46.50439" lon="-1.78864">
        <ele>3.7</ele>
        <time>2020-06-03T13:19:01Z</time>
      </trkpt>
      <trkpt lat="46.50443" lon="-1.78869">
        <ele>3.7</ele>
        <time>2020-06-03T13:19:02Z</time>
      </trkpt>
      <trkpt lat="46.50448" lon="-1.78872">
        <ele>3.7</ele>
        <time>2020-06-03T13:19:03Z</time>
      </trkpt>
      <trkpt lat="46.50452" lon="-1.78876">
        <ele>3.7</ele>
        <time>2020-06-03T13:19:04Z</time>
      </trkpt>
      <trkpt lat="46.50456" lon="-1.7888">
        <ele>3.7</ele>
        <time>2020-06-03T13:19:05Z</time>
      </trkpt>
      <trkpt lat="46.50461" lon="-1.78884">
        <ele>3.7</ele>
        <time>2020-06-03T13:19:06Z</time>
      </trkpt>
      <trkpt lat="46.50465" lon="-1.78888">
        <ele>3.6</ele>
        <time>2020-06-03T13:19:07Z</time>
      </trkpt>
      <trkpt lat="46.50468" lon="-1.78892">
        <ele>3.6</ele>
        <time>2020-06-03T13:19:08Z</time>
      </trkpt>
      <trkpt lat="46.50473" lon="-1.78897">
        <ele>3.6</ele>
        <time>2020-06-03T13:19:09Z</time>
      </trkpt>
      <trkpt lat="46.50477" lon="-1.78902">
        <ele>3.6</ele>
        <time>2020-06-03T13:19:10Z</time>
      </trkpt>
      <trkpt lat="46.5048" lon="-1.78905">
        <ele>3.6</ele>
        <time>2020-06-03T13:19:11Z</time>
      </trkpt>
      <trkpt lat="46.50484" lon="-1.78909">
        <ele>3.6</ele>
        <time>2020-06-03T13:19:12Z</time>
      </trkpt>
      <trkpt lat="46.50487" lon="-1.78914">
        <ele>3.5</ele>
        <time>2020-06-03T13:19:13Z</time>
      </trkpt>
      <trkpt lat="46.50491" lon="-1.78918">
        <ele>3.5</ele>
        <time>2020-06-03T13:19:14Z</time>
      </trkpt>
      <trkpt lat="46.50496" lon="-1.78921">
        <ele>3.5</ele>
        <time>2020-06-03T13:19:15Z</time>
      </trkpt>
      <trkpt lat="46.50499" lon="-1.78924">
        <ele>3.5</ele>
        <time>2020-06-03T13:19:16Z</time>
      </trkpt>
      <trkpt lat="46.50502" lon="-1.78927">
        <ele>3.5</ele>
        <time>2020-06-03T13:19:17Z</time>
      </trkpt>
      <trkpt lat="46.50504" lon="-1.7893">
        <ele>3.5</ele>
        <time>2020-06-03T13:19:18Z</time>
      </trkpt>
      <trkpt lat="46.50506" lon="-1.78933">
        <ele>3.5</ele>
        <time>2020-06-03T13:19:19Z</time>
      </trkpt>
      <trkpt lat="46.50509" lon="-1.78935">
        <ele>3.5</ele>
        <time>2020-06-03T13:19:20Z</time>
      </trkpt>
      <trkpt lat="46.5051" lon="-1.78936">
        <ele>3.5</ele>
        <time>2020-06-03T13:19:21Z</time>
      </trkpt>
      <trkpt lat="46.50512" lon="-1.78938">
        <ele>3.5</ele>
        <time>2020-06-03T13:19:22Z</time>
      </trkpt>
      <trkpt lat="46.50516" lon="-1.7894">
        <ele>3.5</ele>
        <time>2020-06-03T13:19:23Z</time>
      </trkpt>
      <trkpt lat="46.50517" lon="-1.7894">
        <ele>3.5</ele>
        <time>2020-06-03T13:19:24Z</time>
      </trkpt>
      <trkpt lat="46.5052" lon="-1.78938">
        <ele>3.4</ele>
        <time>2020-06-03T13:19:25Z</time>
      </trkpt>
      <trkpt lat="46.50523" lon="-1.78937">
        <ele>3.4</ele>
        <time>2020-06-03T13:19:26Z</time>
      </trkpt>
      <trkpt lat="46.50528" lon="-1.78935">
        <ele>3.4</ele>
        <time>2020-06-03T13:19:27Z</time>
      </trkpt>
      <trkpt lat="46.50533" lon="-1.78934">
        <ele>3.6</ele>
        <time>2020-06-03T13:19:28Z</time>
      </trkpt>
      <trkpt lat="46.50538" lon="-1.78934">
        <ele>3.7</ele>
        <time>2020-06-03T13:19:29Z</time>
      </trkpt>
      <trkpt lat="46.50543" lon="-1.78937">
        <ele>3.9</ele>
        <time>2020-06-03T13:19:30Z</time>
      </trkpt>
      <trkpt lat="46.50549" lon="-1.78939">
        <ele>4.1</ele>
        <time>2020-06-03T13:19:31Z</time>
      </trkpt>
      <trkpt lat="46.50552" lon="-1.78944">
        <ele>4.3</ele>
        <time>2020-06-03T13:19:32Z</time>
      </trkpt>
      <trkpt lat="46.50555" lon="-1.7895">
        <ele>4.4</ele>
        <time>2020-06-03T13:19:33Z</time>
      </trkpt>
      <trkpt lat="46.50557" lon="-1.78957">
        <ele>4.4</ele>
        <time>2020-06-03T13:19:34Z</time>
      </trkpt>
      <trkpt lat="46.50558" lon="-1.78963">
        <ele>4.4</ele>
        <time>2020-06-03T13:19:35Z</time>
      </trkpt>
      <trkpt lat="46.50557" lon="-1.78968">
        <ele>4.4</ele>
        <time>2020-06-03T13:19:36Z</time>
      </trkpt>
      <trkpt lat="46.50557" lon="-1.78973">
        <ele>4.4</ele>
        <time>2020-06-03T13:19:37Z</time>
      </trkpt>
      <trkpt lat="46.50556" lon="-1.78979">
        <ele>4.4</ele>
        <time>2020-06-03T13:19:38Z</time>
      </trkpt>
      <trkpt lat="46.50557" lon="-1.78983">
        <ele>4.4</ele>
        <time>2020-06-03T13:19:39Z</time>
      </trkpt>
      <trkpt lat="46.50558" lon="-1.78988">
        <ele>4.5</ele>
        <time>2020-06-03T13:19:40Z</time>
      </trkpt>
      <trkpt lat="46.5056" lon="-1.78993">
        <ele>4.5</ele>
        <time>2020-06-03T13:19:41Z</time>
      </trkpt>
      <trkpt lat="46.50563" lon="-1.78996">
        <ele>3</ele>
        <time>2020-06-03T13:19:42Z</time>
      </trkpt>
      <trkpt lat="46.50566" lon="-1.78999">
        <ele>3.1</ele>
        <time>2020-06-03T13:19:43Z</time>
      </trkpt>
      <trkpt lat="46.50569" lon="-1.79003">
        <ele>3.2</ele>
        <time>2020-06-03T13:19:44Z</time>
      </trkpt>
      <trkpt lat="46.50572" lon="-1.79005">
        <ele>3.2</ele>
        <time>2020-06-03T13:19:45Z</time>
      </trkpt>
      <trkpt lat="46.50576" lon="-1.79008">
        <ele>3.3</ele>
        <time>2020-06-03T13:19:46Z</time>
      </trkpt>
      <trkpt lat="46.50579" lon="-1.79012">
        <ele>3.3</ele>
        <time>2020-06-03T13:19:47Z</time>
      </trkpt>
      <trkpt lat="46.50582" lon="-1.79015">
        <ele>3.3</ele>
        <time>2020-06-03T13:19:48Z</time>
      </trkpt>
      <trkpt lat="46.50586" lon="-1.79018">
        <ele>3.4</ele>
        <time>2020-06-03T13:19:49Z</time>
      </trkpt>
      <trkpt lat="46.50589" lon="-1.79021">
        <ele>3.4</ele>
        <time>2020-06-03T13:19:50Z</time>
      </trkpt>
      <trkpt lat="46.50594" lon="-1.79025">
        <ele>3.5</ele>
        <time>2020-06-03T13:19:51Z</time>
      </trkpt>
      <trkpt lat="46.50598" lon="-1.79029">
        <ele>3.6</ele>
        <time>2020-06-03T13:19:52Z</time>
      </trkpt>
      <trkpt lat="46.50603" lon="-1.79033">
        <ele>3.7</ele>
        <time>2020-06-03T13:19:53Z</time>
      </trkpt>
      <trkpt lat="46.50606" lon="-1.79037">
        <ele>3.7</ele>
        <time>2020-06-03T13:19:54Z</time>
      </trkpt>
      <trkpt lat="46.5061" lon="-1.79042">
        <ele>3.8</ele>
        <time>2020-06-03T13:19:55Z</time>
      </trkpt>
      <trkpt lat="46.50614" lon="-1.79046">
        <ele>3.8</ele>
        <time>2020-06-03T13:19:56Z</time>
      </trkpt>
      <trkpt lat="46.50619" lon="-1.79051">
        <ele>3.8</ele>
        <time>2020-06-03T13:19:57Z</time>
      </trkpt>
      <trkpt lat="46.50623" lon="-1.79057">
        <ele>3.8</ele>
        <time>2020-06-03T13:19:58Z</time>
      </trkpt>
      <trkpt lat="46.50628" lon="-1.79061">
        <ele>3.8</ele>
        <time>2020-06-03T13:19:59Z</time>
      </trkpt>
      <trkpt lat="46.50632" lon="-1.79065">
        <ele>3.8</ele>
        <time>2020-06-03T13:20:00Z</time>
      </trkpt>
      <trkpt lat="46.50636" lon="-1.79069">
        <ele>3.8</ele>
        <time>2020-06-03T13:20:01Z</time>
      </trkpt>
      <trkpt lat="46.5064" lon="-1.79073">
        <ele>3.8</ele>
        <time>2020-06-03T13:20:02Z</time>
      </trkpt>
      <trkpt lat="46.50644" lon="-1.79078">
        <ele>3.8</ele>
        <time>2020-06-03T13:20:03Z</time>
      </trkpt>
      <trkpt lat="46.50648" lon="-1.79082">
        <ele>3.8</ele>
        <time>2020-06-03T13:20:04Z</time>
      </trkpt>
      <trkpt lat="46.50653" lon="-1.79087">
        <ele>3.8</ele>
        <time>2020-06-03T13:20:05Z</time>
      </trkpt>
      <trkpt lat="46.50656" lon="-1.79092">
        <ele>3.8</ele>
        <time>2020-06-03T13:20:06Z</time>
      </trkpt>
      <trkpt lat="46.5066" lon="-1.79095">
        <ele>3.8</ele>
        <time>2020-06-03T13:20:07Z</time>
      </trkpt>
      <trkpt lat="46.50664" lon="-1.79099">
        <ele>3.8</ele>
        <time>2020-06-03T13:20:08Z</time>
      </trkpt>
      <trkpt lat="46.50668" lon="-1.79103">
        <ele>3.8</ele>
        <time>2020-06-03T13:20:09Z</time>
      </trkpt>
      <trkpt lat="46.50672" lon="-1.79108">
        <ele>3.8</ele>
        <time>2020-06-03T13:20:10Z</time>
      </trkpt>
      <trkpt lat="46.50676" lon="-1.79113">
        <ele>3.7</ele>
        <time>2020-06-03T13:20:11Z</time>
      </trkpt>
      <trkpt lat="46.5068" lon="-1.79117">
        <ele>3.7</ele>
        <time>2020-06-03T13:20:12Z</time>
      </trkpt>
      <trkpt lat="46.50684" lon="-1.79122">
        <ele>3.7</ele>
        <time>2020-06-03T13:20:13Z</time>
      </trkpt>
      <trkpt lat="46.50689" lon="-1.79126">
        <ele>3.6</ele>
        <time>2020-06-03T13:20:14Z</time>
      </trkpt>
      <trkpt lat="46.50693" lon="-1.79129">
        <ele>3.6</ele>
        <time>2020-06-03T13:20:15Z</time>
      </trkpt>
      <trkpt lat="46.50698" lon="-1.79134">
        <ele>3.6</ele>
        <time>2020-06-03T13:20:16Z</time>
      </trkpt>
      <trkpt lat="46.50702" lon="-1.79138">
        <ele>3.6</ele>
        <time>2020-06-03T13:20:17Z</time>
      </trkpt>
      <trkpt lat="46.50706" lon="-1.79142">
        <ele>3.6</ele>
        <time>2020-06-03T13:20:18Z</time>
      </trkpt>
      <trkpt lat="46.50709" lon="-1.79146">
        <ele>3.6</ele>
        <time>2020-06-03T13:20:19Z</time>
      </trkpt>
      <trkpt lat="46.50713" lon="-1.7915">
        <ele>3.6</ele>
        <time>2020-06-03T13:20:20Z</time>
      </trkpt>
      <trkpt lat="46.50716" lon="-1.79155">
        <ele>3.6</ele>
        <time>2020-06-03T13:20:21Z</time>
      </trkpt>
      <trkpt lat="46.5072" lon="-1.79159">
        <ele>3.6</ele>
        <time>2020-06-03T13:20:22Z</time>
      </trkpt>
      <trkpt lat="46.50724" lon="-1.79163">
        <ele>3.6</ele>
        <time>2020-06-03T13:20:23Z</time>
      </trkpt>
      <trkpt lat="46.50728" lon="-1.79167">
        <ele>3.5</ele>
        <time>2020-06-03T13:20:24Z</time>
      </trkpt>
      <trkpt lat="46.50731" lon="-1.79171">
        <ele>3.5</ele>
        <time>2020-06-03T13:20:25Z</time>
      </trkpt>
      <trkpt lat="46.50735" lon="-1.79174">
        <ele>3.5</ele>
        <time>2020-06-03T13:20:26Z</time>
      </trkpt>
      <trkpt lat="46.5074" lon="-1.79178">
        <ele>3.5</ele>
        <time>2020-06-03T13:20:27Z</time>
      </trkpt>
      <trkpt lat="46.50743" lon="-1.79182">
        <ele>3.5</ele>
        <time>2020-06-03T13:20:28Z</time>
      </trkpt>
      <trkpt lat="46.50747" lon="-1.79186">
        <ele>3.5</ele>
        <time>2020-06-03T13:20:29Z</time>
      </trkpt>
      <trkpt lat="46.50751" lon="-1.79191">
        <ele>3.5</ele>
        <time>2020-06-03T13:20:30Z</time>
      </trkpt>
      <trkpt lat="46.50755" lon="-1.79196">
        <ele>3.5</ele>
        <time>2020-06-03T13:20:31Z</time>
      </trkpt>
      <trkpt lat="46.5076" lon="-1.79202">
        <ele>3.5</ele>
        <time>2020-06-03T13:20:32Z</time>
      </trkpt>
      <trkpt lat="46.50764" lon="-1.79206">
        <ele>3.4</ele>
        <time>2020-06-03T13:20:33Z</time>
      </trkpt>
      <trkpt lat="46.50768" lon="-1.79211">
        <ele>3.4</ele>
        <time>2020-06-03T13:20:34Z</time>
      </trkpt>
      <trkpt lat="46.50772" lon="-1.79216">
        <ele>3.4</ele>
        <time>2020-06-03T13:20:35Z</time>
      </trkpt>
      <trkpt lat="46.50776" lon="-1.7922">
        <ele>3.4</ele>
        <time>2020-06-03T13:20:36Z</time>
      </trkpt>
      <trkpt lat="46.5078" lon="-1.79224">
        <ele>3.3</ele>
        <time>2020-06-03T13:20:37Z</time>
      </trkpt>
      <trkpt lat="46.50786" lon="-1.79228">
        <ele>3.3</ele>
        <time>2020-06-03T13:20:38Z</time>
      </trkpt>
      <trkpt lat="46.50791" lon="-1.79232">
        <ele>3.3</ele>
        <time>2020-06-03T13:20:39Z</time>
      </trkpt>
      <trkpt lat="46.50795" lon="-1.79236">
        <ele>3.3</ele>
        <time>2020-06-03T13:20:40Z</time>
      </trkpt>
      <trkpt lat="46.50799" lon="-1.79241">
        <ele>3.3</ele>
        <time>2020-06-03T13:20:41Z</time>
      </trkpt>
      <trkpt lat="46.50803" lon="-1.79246">
        <ele>3.3</ele>
        <time>2020-06-03T13:20:42Z</time>
      </trkpt>
      <trkpt lat="46.50807" lon="-1.7925">
        <ele>3.3</ele>
        <time>2020-06-03T13:20:43Z</time>
      </trkpt>
      <trkpt lat="46.5081" lon="-1.79254">
        <ele>3.3</ele>
        <time>2020-06-03T13:20:44Z</time>
      </trkpt>
      <trkpt lat="46.50814" lon="-1.79257">
        <ele>3.3</ele>
        <time>2020-06-03T13:20:45Z</time>
      </trkpt>
      <trkpt lat="46.50817" lon="-1.79262">
        <ele>3.4</ele>
        <time>2020-06-03T13:20:46Z</time>
      </trkpt>
      <trkpt lat="46.50821" lon="-1.79266">
        <ele>3.4</ele>
        <time>2020-06-03T13:20:47Z</time>
      </trkpt>
      <trkpt lat="46.50825" lon="-1.7927">
        <ele>3.4</ele>
        <time>2020-06-03T13:20:48Z</time>
      </trkpt>
      <trkpt lat="46.50829" lon="-1.79274">
        <ele>3.4</ele>
        <time>2020-06-03T13:20:49Z</time>
      </trkpt>
      <trkpt lat="46.50833" lon="-1.79278">
        <ele>3.4</ele>
        <time>2020-06-03T13:20:50Z</time>
      </trkpt>
      <trkpt lat="46.50836" lon="-1.79283">
        <ele>3.4</ele>
        <time>2020-06-03T13:20:51Z</time>
      </trkpt>
      <trkpt lat="46.5084" lon="-1.79286">
        <ele>3.4</ele>
        <time>2020-06-03T13:20:52Z</time>
      </trkpt>
      <trkpt lat="46.50845" lon="-1.7929">
        <ele>3.4</ele>
        <time>2020-06-03T13:20:53Z</time>
      </trkpt>
      <trkpt lat="46.50849" lon="-1.79294">
        <ele>3.4</ele>
        <time>2020-06-03T13:20:54Z</time>
      </trkpt>
      <trkpt lat="46.50854" lon="-1.79298">
        <ele>3.4</ele>
        <time>2020-06-03T13:20:55Z</time>
      </trkpt>
      <trkpt lat="46.50859" lon="-1.79303">
        <ele>3.3</ele>
        <time>2020-06-03T13:20:56Z</time>
      </trkpt>
      <trkpt lat="46.50863" lon="-1.79305">
        <ele>3.3</ele>
        <time>2020-06-03T13:20:57Z</time>
      </trkpt>
      <trkpt lat="46.50868" lon="-1.79309">
        <ele>3.3</ele>
        <time>2020-06-03T13:20:58Z</time>
      </trkpt>
      <trkpt lat="46.50873" lon="-1.79313">
        <ele>3.3</ele>
        <time>2020-06-03T13:20:59Z</time>
      </trkpt>
      <trkpt lat="46.50877" lon="-1.79316">
        <ele>3.2</ele>
        <time>2020-06-03T13:21:00Z</time>
      </trkpt>
      <trkpt lat="46.50882" lon="-1.79319">
        <ele>3.2</ele>
        <time>2020-06-03T13:21:01Z</time>
      </trkpt>
      <trkpt lat="46.50887" lon="-1.79322">
        <ele>3.2</ele>
        <time>2020-06-03T13:21:02Z</time>
      </trkpt>
      <trkpt lat="46.50893" lon="-1.79324">
        <ele>3.1</ele>
        <time>2020-06-03T13:21:03Z</time>
      </trkpt>
      <trkpt lat="46.50898" lon="-1.79327">
        <ele>3.1</ele>
        <time>2020-06-03T13:21:04Z</time>
      </trkpt>
      <trkpt lat="46.50903" lon="-1.79328">
        <ele>3.1</ele>
        <time>2020-06-03T13:21:05Z</time>
      </trkpt>
      <trkpt lat="46.50908" lon="-1.79331">
        <ele>3</ele>
        <time>2020-06-03T13:21:06Z</time>
      </trkpt>
      <trkpt lat="46.50913" lon="-1.79333">
        <ele>3</ele>
        <time>2020-06-03T13:21:07Z</time>
      </trkpt>
      <trkpt lat="46.50918" lon="-1.79336">
        <ele>3</ele>
        <time>2020-06-03T13:21:08Z</time>
      </trkpt>
      <trkpt lat="46.50923" lon="-1.79337">
        <ele>2.9</ele>
        <time>2020-06-03T13:21:09Z</time>
      </trkpt>
      <trkpt lat="46.50928" lon="-1.79338">
        <ele>2.9</ele>
        <time>2020-06-03T13:21:10Z</time>
      </trkpt>
      <trkpt lat="46.50933" lon="-1.7934">
        <ele>2.9</ele>
        <time>2020-06-03T13:21:11Z</time>
      </trkpt>
      <trkpt lat="46.50937" lon="-1.79342">
        <ele>2.9</ele>
        <time>2020-06-03T13:21:12Z</time>
      </trkpt>
      <trkpt lat="46.50943" lon="-1.79341">
        <ele>2.9</ele>
        <time>2020-06-03T13:21:13Z</time>
      </trkpt>
      <trkpt lat="46.50948" lon="-1.79341">
        <ele>2.8</ele>
        <time>2020-06-03T13:21:14Z</time>
      </trkpt>
      <trkpt lat="46.50953" lon="-1.79341">
        <ele>2.8</ele>
        <time>2020-06-03T13:21:15Z</time>
      </trkpt>
      <trkpt lat="46.50958" lon="-1.79341">
        <ele>2.8</ele>
        <time>2020-06-03T13:21:16Z</time>
      </trkpt>
      <trkpt lat="46.50963" lon="-1.7934">
        <ele>2.8</ele>
        <time>2020-06-03T13:21:17Z</time>
      </trkpt>
      <trkpt lat="46.50969" lon="-1.79341">
        <ele>2.9</ele>
        <time>2020-06-03T13:21:18Z</time>
      </trkpt>
      <trkpt lat="46.50975" lon="-1.79342">
        <ele>2.9</ele>
        <time>2020-06-03T13:21:19Z</time>
      </trkpt>
      <trkpt lat="46.5098" lon="-1.79342">
        <ele>2.9</ele>
        <time>2020-06-03T13:21:20Z</time>
      </trkpt>
      <trkpt lat="46.50986" lon="-1.79342">
        <ele>2.9</ele>
        <time>2020-06-03T13:21:21Z</time>
      </trkpt>
      <trkpt lat="46.50991" lon="-1.79343">
        <ele>2.9</ele>
        <time>2020-06-03T13:21:22Z</time>
      </trkpt>
      <trkpt lat="46.50997" lon="-1.79342">
        <ele>2.9</ele>
        <time>2020-06-03T13:21:23Z</time>
      </trkpt>
      <trkpt lat="46.51002" lon="-1.79341">
        <ele>3</ele>
        <time>2020-06-03T13:21:24Z</time>
      </trkpt>
      <trkpt lat="46.51008" lon="-1.7934">
        <ele>3</ele>
        <time>2020-06-03T13:21:25Z</time>
      </trkpt>
      <trkpt lat="46.51014" lon="-1.79339">
        <ele>3</ele>
        <time>2020-06-03T13:21:26Z</time>
      </trkpt>
      <trkpt lat="46.5102" lon="-1.79338">
        <ele>3.1</ele>
        <time>2020-06-03T13:21:27Z</time>
      </trkpt>
      <trkpt lat="46.51025" lon="-1.79336">
        <ele>3.1</ele>
        <time>2020-06-03T13:21:28Z</time>
      </trkpt>
      <trkpt lat="46.5103" lon="-1.79335">
        <ele>3.1</ele>
        <time>2020-06-03T13:21:29Z</time>
      </trkpt>
      <trkpt lat="46.51036" lon="-1.79334">
        <ele>3.1</ele>
        <time>2020-06-03T13:21:30Z</time>
      </trkpt>
      <trkpt lat="46.5104" lon="-1.79332">
        <ele>3.2</ele>
        <time>2020-06-03T13:21:31Z</time>
      </trkpt>
      <trkpt lat="46.51045" lon="-1.7933">
        <ele>3.2</ele>
        <time>2020-06-03T13:21:32Z</time>
      </trkpt>
      <trkpt lat="46.51049" lon="-1.79328">
        <ele>3.2</ele>
        <time>2020-06-03T13:21:33Z</time>
      </trkpt>
      <trkpt lat="46.51054" lon="-1.79326">
        <ele>3.2</ele>
        <time>2020-06-03T13:21:34Z</time>
      </trkpt>
      <trkpt lat="46.5106" lon="-1.79323">
        <ele>3.2</ele>
        <time>2020-06-03T13:21:35Z</time>
      </trkpt>
      <trkpt lat="46.51065" lon="-1.79321">
        <ele>3.2</ele>
        <time>2020-06-03T13:21:36Z</time>
      </trkpt>
      <trkpt lat="46.51071" lon="-1.79318">
        <ele>3.2</ele>
        <time>2020-06-03T13:21:37Z</time>
      </trkpt>
      <trkpt lat="46.51075" lon="-1.79315">
        <ele>3.2</ele>
        <time>2020-06-03T13:21:38Z</time>
      </trkpt>
      <trkpt lat="46.51079" lon="-1.79312">
        <ele>3.2</ele>
        <time>2020-06-03T13:21:39Z</time>
      </trkpt>
      <trkpt lat="46.51083" lon="-1.79308">
        <ele>3.2</ele>
        <time>2020-06-03T13:21:40Z</time>
      </trkpt>
      <trkpt lat="46.51089" lon="-1.79306">
        <ele>3.3</ele>
        <time>2020-06-03T13:21:41Z</time>
      </trkpt>
      <trkpt lat="46.51093" lon="-1.79303">
        <ele>3.3</ele>
        <time>2020-06-03T13:21:42Z</time>
      </trkpt>
      <trkpt lat="46.51098" lon="-1.79299">
        <ele>3.3</ele>
        <time>2020-06-03T13:21:43Z</time>
      </trkpt>
      <trkpt lat="46.51104" lon="-1.79296">
        <ele>3.3</ele>
        <time>2020-06-03T13:21:44Z</time>
      </trkpt>
      <trkpt lat="46.5111" lon="-1.79293">
        <ele>3.4</ele>
        <time>2020-06-03T13:21:45Z</time>
      </trkpt>
      <trkpt lat="46.51114" lon="-1.7929">
        <ele>3.4</ele>
        <time>2020-06-03T13:21:46Z</time>
      </trkpt>
      <trkpt lat="46.51119" lon="-1.79287">
        <ele>3.4</ele>
        <time>2020-06-03T13:21:47Z</time>
      </trkpt>
      <trkpt lat="46.51124" lon="-1.79283">
        <ele>3.4</ele>
        <time>2020-06-03T13:21:48Z</time>
      </trkpt>
      <trkpt lat="46.51129" lon="-1.79281">
        <ele>3.4</ele>
        <time>2020-06-03T13:21:49Z</time>
      </trkpt>
      <trkpt lat="46.51134" lon="-1.79278">
        <ele>3.4</ele>
        <time>2020-06-03T13:21:50Z</time>
      </trkpt>
      <trkpt lat="46.51138" lon="-1.79275">
        <ele>3.5</ele>
        <time>2020-06-03T13:21:51Z</time>
      </trkpt>
      <trkpt lat="46.51144" lon="-1.79272">
        <ele>3.5</ele>
        <time>2020-06-03T13:21:52Z</time>
      </trkpt>
      <trkpt lat="46.51149" lon="-1.79269">
        <ele>3.5</ele>
        <time>2020-06-03T13:21:53Z</time>
      </trkpt>
      <trkpt lat="46.51154" lon="-1.79265">
        <ele>3.5</ele>
        <time>2020-06-03T13:21:54Z</time>
      </trkpt>
      <trkpt lat="46.51159" lon="-1.79262">
        <ele>3.5</ele>
        <time>2020-06-03T13:21:55Z</time>
      </trkpt>
      <trkpt lat="46.51164" lon="-1.79258">
        <ele>3.5</ele>
        <time>2020-06-03T13:21:56Z</time>
      </trkpt>
      <trkpt lat="46.51169" lon="-1.79255">
        <ele>3.5</ele>
        <time>2020-06-03T13:21:57Z</time>
      </trkpt>
      <trkpt lat="46.51175" lon="-1.79252">
        <ele>3.5</ele>
        <time>2020-06-03T13:21:58Z</time>
      </trkpt>
      <trkpt lat="46.5118" lon="-1.79249">
        <ele>3.5</ele>
        <time>2020-06-03T13:21:59Z</time>
      </trkpt>
      <trkpt lat="46.51186" lon="-1.79246">
        <ele>3.5</ele>
        <time>2020-06-03T13:22:00Z</time>
      </trkpt>
      <trkpt lat="46.51191" lon="-1.79243">
        <ele>3.5</ele>
        <time>2020-06-03T13:22:01Z</time>
      </trkpt>
      <trkpt lat="46.51196" lon="-1.7924">
        <ele>3.5</ele>
        <time>2020-06-03T13:22:02Z</time>
      </trkpt>
      <trkpt lat="46.512" lon="-1.79236">
        <ele>3.5</ele>
        <time>2020-06-03T13:22:03Z</time>
      </trkpt>
      <trkpt lat="46.51206" lon="-1.79233">
        <ele>3.5</ele>
        <time>2020-06-03T13:22:04Z</time>
      </trkpt>
      <trkpt lat="46.51212" lon="-1.7923">
        <ele>3.5</ele>
        <time>2020-06-03T13:22:05Z</time>
      </trkpt>
      <trkpt lat="46.51218" lon="-1.79227">
        <ele>3.5</ele>
        <time>2020-06-03T13:22:06Z</time>
      </trkpt>
      <trkpt lat="46.51223" lon="-1.79225">
        <ele>3.6</ele>
        <time>2020-06-03T13:22:07Z</time>
      </trkpt>
      <trkpt lat="46.51228" lon="-1.79223">
        <ele>3.6</ele>
        <time>2020-06-03T13:22:08Z</time>
      </trkpt>
      <trkpt lat="46.51232" lon="-1.7922">
        <ele>3.6</ele>
        <time>2020-06-03T13:22:09Z</time>
      </trkpt>
      <trkpt lat="46.51238" lon="-1.79216">
        <ele>3.6</ele>
        <time>2020-06-03T13:22:10Z</time>
      </trkpt>
      <trkpt lat="46.51243" lon="-1.79214">
        <ele>3.6</ele>
        <time>2020-06-03T13:22:11Z</time>
      </trkpt>
      <trkpt lat="46.51248" lon="-1.79211">
        <ele>3.7</ele>
        <time>2020-06-03T13:22:12Z</time>
      </trkpt>
      <trkpt lat="46.51253" lon="-1.79208">
        <ele>3.7</ele>
        <time>2020-06-03T13:22:13Z</time>
      </trkpt>
      <trkpt lat="46.51259" lon="-1.79205">
        <ele>3.7</ele>
        <time>2020-06-03T13:22:14Z</time>
      </trkpt>
      <trkpt lat="46.51264" lon="-1.79202">
        <ele>3.7</ele>
        <time>2020-06-03T13:22:15Z</time>
      </trkpt>
      <trkpt lat="46.51269" lon="-1.79199">
        <ele>3.7</ele>
        <time>2020-06-03T13:22:16Z</time>
      </trkpt>
      <trkpt lat="46.51275" lon="-1.79196">
        <ele>3.8</ele>
        <time>2020-06-03T13:22:17Z</time>
      </trkpt>
      <trkpt lat="46.51277" lon="-1.79192">
        <ele>3.8</ele>
        <time>2020-06-03T13:22:18Z</time>
      </trkpt>
      <trkpt lat="46.51282" lon="-1.79189">
        <ele>3.8</ele>
        <time>2020-06-03T13:22:19Z</time>
      </trkpt>
      <trkpt lat="46.51286" lon="-1.79184">
        <ele>3.9</ele>
        <time>2020-06-03T13:22:20Z</time>
      </trkpt>
      <trkpt lat="46.5129" lon="-1.7918">
        <ele>3.9</ele>
        <time>2020-06-03T13:22:21Z</time>
      </trkpt>
      <trkpt lat="46.51295" lon="-1.79177">
        <ele>4</ele>
        <time>2020-06-03T13:22:22Z</time>
      </trkpt>
      <trkpt lat="46.513" lon="-1.79173">
        <ele>4</ele>
        <time>2020-06-03T13:22:23Z</time>
      </trkpt>
      <trkpt lat="46.51304" lon="-1.79169">
        <ele>4.1</ele>
        <time>2020-06-03T13:22:24Z</time>
      </trkpt>
      <trkpt lat="46.51309" lon="-1.79165">
        <ele>4.1</ele>
        <time>2020-06-03T13:22:25Z</time>
      </trkpt>
      <trkpt lat="46.51313" lon="-1.79161">
        <ele>4.2</ele>
        <time>2020-06-03T13:22:26Z</time>
      </trkpt>
      <trkpt lat="46.51317" lon="-1.79158">
        <ele>4.2</ele>
        <time>2020-06-03T13:22:27Z</time>
      </trkpt>
      <trkpt lat="46.51321" lon="-1.79155">
        <ele>4.2</ele>
        <time>2020-06-03T13:22:28Z</time>
      </trkpt>
      <trkpt lat="46.51325" lon="-1.79152">
        <ele>4.2</ele>
        <time>2020-06-03T13:22:29Z</time>
      </trkpt>
      <trkpt lat="46.5133" lon="-1.79147">
        <ele>4.2</ele>
        <time>2020-06-03T13:22:30Z</time>
      </trkpt>
      <trkpt lat="46.51332" lon="-1.79143">
        <ele>4.3</ele>
        <time>2020-06-03T13:22:31Z</time>
      </trkpt>
      <trkpt lat="46.51335" lon="-1.79139">
        <ele>4.3</ele>
        <time>2020-06-03T13:22:32Z</time>
      </trkpt>
      <trkpt lat="46.51339" lon="-1.79134">
        <ele>4.3</ele>
        <time>2020-06-03T13:22:33Z</time>
      </trkpt>
      <trkpt lat="46.51342" lon="-1.79131">
        <ele>4.3</ele>
        <time>2020-06-03T13:22:34Z</time>
      </trkpt>
      <trkpt lat="46.51344" lon="-1.79126">
        <ele>4.4</ele>
        <time>2020-06-03T13:22:35Z</time>
      </trkpt>
      <trkpt lat="46.51347" lon="-1.79123">
        <ele>4.4</ele>
        <time>2020-06-03T13:22:36Z</time>
      </trkpt>
      <trkpt lat="46.5135" lon="-1.79118">
        <ele>4.4</ele>
        <time>2020-06-03T13:22:37Z</time>
      </trkpt>
      <trkpt lat="46.51354" lon="-1.79113">
        <ele>4.5</ele>
        <time>2020-06-03T13:22:38Z</time>
      </trkpt>
      <trkpt lat="46.51357" lon="-1.79108">
        <ele>4.6</ele>
        <time>2020-06-03T13:22:39Z</time>
      </trkpt>
      <trkpt lat="46.51361" lon="-1.79103">
        <ele>4.7</ele>
        <time>2020-06-03T13:22:40Z</time>
      </trkpt>
      <trkpt lat="46.51364" lon="-1.79098">
        <ele>4.9</ele>
        <time>2020-06-03T13:22:41Z</time>
      </trkpt>
      <trkpt lat="46.51367" lon="-1.79095">
        <ele>4.9</ele>
        <time>2020-06-03T13:22:42Z</time>
      </trkpt>
      <trkpt lat="46.5137" lon="-1.79092">
        <ele>5</ele>
        <time>2020-06-03T13:22:43Z</time>
      </trkpt>
      <trkpt lat="46.51372" lon="-1.79087">
        <ele>5.1</ele>
        <time>2020-06-03T13:22:44Z</time>
      </trkpt>
      <trkpt lat="46.51373" lon="-1.79082">
        <ele>5.1</ele>
        <time>2020-06-03T13:22:45Z</time>
      </trkpt>
      <trkpt lat="46.51375" lon="-1.79078">
        <ele>5.1</ele>
        <time>2020-06-03T13:22:46Z</time>
      </trkpt>
      <trkpt lat="46.51377" lon="-1.79072">
        <ele>5.1</ele>
        <time>2020-06-03T13:22:47Z</time>
      </trkpt>
      <trkpt lat="46.51378" lon="-1.79067">
        <ele>5.2</ele>
        <time>2020-06-03T13:22:48Z</time>
      </trkpt>
      <trkpt lat="46.51381" lon="-1.79063">
        <ele>5.2</ele>
        <time>2020-06-03T13:22:49Z</time>
      </trkpt>
      <trkpt lat="46.51384" lon="-1.79058">
        <ele>5.2</ele>
        <time>2020-06-03T13:22:50Z</time>
      </trkpt>
      <trkpt lat="46.51387" lon="-1.79054">
        <ele>5.3</ele>
        <time>2020-06-03T13:22:51Z</time>
      </trkpt>
      <trkpt lat="46.51389" lon="-1.79051">
        <ele>5.3</ele>
        <time>2020-06-03T13:22:52Z</time>
      </trkpt>
      <trkpt lat="46.5139" lon="-1.79047">
        <ele>5.3</ele>
        <time>2020-06-03T13:22:53Z</time>
      </trkpt>
      <trkpt lat="46.51391" lon="-1.79042">
        <ele>5.4</ele>
        <time>2020-06-03T13:22:54Z</time>
      </trkpt>
      <trkpt lat="46.51391" lon="-1.7904">
        <ele>5.4</ele>
        <time>2020-06-03T13:22:55Z</time>
      </trkpt>
      <trkpt lat="46.51392" lon="-1.79037">
        <ele>5.4</ele>
        <time>2020-06-03T13:22:56Z</time>
      </trkpt>
      <trkpt lat="46.51391" lon="-1.79035">
        <ele>5.4</ele>
        <time>2020-06-03T13:22:57Z</time>
      </trkpt>
      <trkpt lat="46.51392" lon="-1.79032">
        <ele>5.4</ele>
        <time>2020-06-03T13:22:58Z</time>
      </trkpt>
      <trkpt lat="46.51391" lon="-1.7903">
        <ele>5.4</ele>
        <time>2020-06-03T13:22:59Z</time>
      </trkpt>
      <trkpt lat="46.51389" lon="-1.79027">
        <ele>5.6</ele>
        <time>2020-06-03T13:23:00Z</time>
      </trkpt>
      <trkpt lat="46.51387" lon="-1.79024">
        <ele>5.6</ele>
        <time>2020-06-03T13:23:01Z</time>
      </trkpt>
      <trkpt lat="46.51385" lon="-1.79018">
        <ele>5.5</ele>
        <time>2020-06-03T13:23:02Z</time>
      </trkpt>
      <trkpt lat="46.51384" lon="-1.79016">
        <ele>5.5</ele>
        <time>2020-06-03T13:23:03Z</time>
      </trkpt>
      <trkpt lat="46.51382" lon="-1.79013">
        <ele>5.5</ele>
        <time>2020-06-03T13:23:04Z</time>
      </trkpt>
      <trkpt lat="46.51379" lon="-1.7901">
        <ele>5.5</ele>
        <time>2020-06-03T13:23:05Z</time>
      </trkpt>
      <trkpt lat="46.51377" lon="-1.79008">
        <ele>5.5</ele>
        <time>2020-06-03T13:23:06Z</time>
      </trkpt>
      <trkpt lat="46.51377" lon="-1.79006">
        <ele>5.4</ele>
        <time>2020-06-03T13:23:07Z</time>
      </trkpt>
      <trkpt lat="46.51377" lon="-1.79003">
        <ele>5.4</ele>
        <time>2020-06-03T13:23:08Z</time>
      </trkpt>
      <trkpt lat="46.51376" lon="-1.79001">
        <ele>5.4</ele>
        <time>2020-06-03T13:23:09Z</time>
      </trkpt>
      <trkpt lat="46.51375" lon="-1.79">
        <ele>5.3</ele>
        <time>2020-06-03T13:23:10Z</time>
      </trkpt>
      <trkpt lat="46.51376" lon="-1.78999">
        <ele>5.3</ele>
        <time>2020-06-03T13:23:11Z</time>
      </trkpt>
      <trkpt lat="46.51377" lon="-1.78997">
        <ele>5.3</ele>
        <time>2020-06-03T13:23:12Z</time>
      </trkpt>
      <trkpt lat="46.5138" lon="-1.78995">
        <ele>5.2</ele>
        <time>2020-06-03T13:23:13Z</time>
      </trkpt>
      <trkpt lat="46.51381" lon="-1.78994">
        <ele>5.2</ele>
        <time>2020-06-03T13:23:14Z</time>
      </trkpt>
      <trkpt lat="46.51384" lon="-1.78991">
        <ele>5.3</ele>
        <time>2020-06-03T13:23:15Z</time>
      </trkpt>
      <trkpt lat="46.51386" lon="-1.78988">
        <ele>5.3</ele>
        <time>2020-06-03T13:23:16Z</time>
      </trkpt>
      <trkpt lat="46.51388" lon="-1.78983">
        <ele>5.3</ele>
        <time>2020-06-03T13:23:17Z</time>
      </trkpt>
      <trkpt lat="46.5139" lon="-1.78978">
        <ele>5.4</ele>
        <time>2020-06-03T13:23:18Z</time>
      </trkpt>
      <trkpt lat="46.51392" lon="-1.78972">
        <ele>5.4</ele>
        <time>2020-06-03T13:23:19Z</time>
      </trkpt>
      <trkpt lat="46.51394" lon="-1.78967">
        <ele>5.5</ele>
        <time>2020-06-03T13:23:20Z</time>
      </trkpt>
      <trkpt lat="46.51396" lon="-1.78961">
        <ele>5.6</ele>
        <time>2020-06-03T13:23:21Z</time>
      </trkpt>
      <trkpt lat="46.51399" lon="-1.78956">
        <ele>5.6</ele>
        <time>2020-06-03T13:23:22Z</time>
      </trkpt>
      <trkpt lat="46.51402" lon="-1.7895">
        <ele>5.7</ele>
        <time>2020-06-03T13:23:23Z</time>
      </trkpt>
      <trkpt lat="46.51404" lon="-1.78944">
        <ele>5.7</ele>
        <time>2020-06-03T13:23:24Z</time>
      </trkpt>
      <trkpt lat="46.51405" lon="-1.78937">
        <ele>5.7</ele>
        <time>2020-06-03T13:23:25Z</time>
      </trkpt>
      <trkpt lat="46.51407" lon="-1.78932">
        <ele>5.8</ele>
        <time>2020-06-03T13:23:26Z</time>
      </trkpt>
      <trkpt lat="46.51408" lon="-1.78926">
        <ele>5.8</ele>
        <time>2020-06-03T13:23:27Z</time>
      </trkpt>
      <trkpt lat="46.51409" lon="-1.7892">
        <ele>5.8</ele>
        <time>2020-06-03T13:23:28Z</time>
      </trkpt>
      <trkpt lat="46.51409" lon="-1.78915">
        <ele>5.8</ele>
        <time>2020-06-03T13:23:29Z</time>
      </trkpt>
      <trkpt lat="46.5141" lon="-1.78911">
        <ele>5.9</ele>
        <time>2020-06-03T13:23:30Z</time>
      </trkpt>
      <trkpt lat="46.51411" lon="-1.78906">
        <ele>5.9</ele>
        <time>2020-06-03T13:23:31Z</time>
      </trkpt>
      <trkpt lat="46.51412" lon="-1.78901">
        <ele>5.9</ele>
        <time>2020-06-03T13:23:32Z</time>
      </trkpt>
      <trkpt lat="46.51412" lon="-1.78897">
        <ele>5.9</ele>
        <time>2020-06-03T13:23:33Z</time>
      </trkpt>
      <trkpt lat="46.51413" lon="-1.78892">
        <ele>6</ele>
        <time>2020-06-03T13:23:34Z</time>
      </trkpt>
      <trkpt lat="46.51412" lon="-1.78885">
        <ele>6</ele>
        <time>2020-06-03T13:23:35Z</time>
      </trkpt>
      <trkpt lat="46.51413" lon="-1.7888">
        <ele>6</ele>
        <time>2020-06-03T13:23:36Z</time>
      </trkpt>
      <trkpt lat="46.51413" lon="-1.78875">
        <ele>6.1</ele>
        <time>2020-06-03T13:23:37Z</time>
      </trkpt>
      <trkpt lat="46.51412" lon="-1.7887">
        <ele>6.1</ele>
        <time>2020-06-03T13:23:38Z</time>
      </trkpt>
      <trkpt lat="46.51411" lon="-1.78865">
        <ele>6.1</ele>
        <time>2020-06-03T13:23:39Z</time>
      </trkpt>
      <trkpt lat="46.5141" lon="-1.78861">
        <ele>6.1</ele>
        <time>2020-06-03T13:23:40Z</time>
      </trkpt>
      <trkpt lat="46.51408" lon="-1.78855">
        <ele>6.2</ele>
        <time>2020-06-03T13:23:41Z</time>
      </trkpt>
      <trkpt lat="46.51408" lon="-1.78852">
        <ele>6.2</ele>
        <time>2020-06-03T13:23:42Z</time>
      </trkpt>
      <trkpt lat="46.51407" lon="-1.78851">
        <ele>6.2</ele>
        <time>2020-06-03T13:23:43Z</time>
      </trkpt>
      <trkpt lat="46.51405" lon="-1.78852">
        <ele>6.2</ele>
        <time>2020-06-03T13:23:44Z</time>
      </trkpt>
      <trkpt lat="46.51402" lon="-1.78852">
        <ele>6.2</ele>
        <time>2020-06-03T13:23:45Z</time>
      </trkpt>
      <trkpt lat="46.51399" lon="-1.78851">
        <ele>6.3</ele>
        <time>2020-06-03T13:23:46Z</time>
      </trkpt>
      <trkpt lat="46.51396" lon="-1.78849">
        <ele>6.3</ele>
        <time>2020-06-03T13:23:47Z</time>
      </trkpt>
      <trkpt lat="46.51395" lon="-1.78848">
        <ele>6.3</ele>
        <time>2020-06-03T13:23:48Z</time>
      </trkpt>
      <trkpt lat="46.51394" lon="-1.78847">
        <ele>6.3</ele>
        <time>2020-06-03T13:23:49Z</time>
      </trkpt>
      <trkpt lat="46.51392" lon="-1.78846">
        <ele>6.3</ele>
        <time>2020-06-03T13:23:50Z</time>
      </trkpt>
      <trkpt lat="46.51391" lon="-1.78844">
        <ele>6.3</ele>
        <time>2020-06-03T13:23:51Z</time>
      </trkpt>
      <trkpt lat="46.5139" lon="-1.78845">
        <ele>6.3</ele>
        <time>2020-06-03T13:23:52Z</time>
      </trkpt>
      <trkpt lat="46.51388" lon="-1.78844">
        <ele>6.3</ele>
        <time>2020-06-03T13:23:53Z</time>
      </trkpt>
      <trkpt lat="46.51387" lon="-1.78844">
        <ele>6.3</ele>
        <time>2020-06-03T13:23:54Z</time>
      </trkpt>
      <trkpt lat="46.51386" lon="-1.78843">
        <ele>6.3</ele>
        <time>2020-06-03T13:23:55Z</time>
      </trkpt>
      <trkpt lat="46.51386" lon="-1.78842">
        <ele>6.3</ele>
        <time>2020-06-03T13:23:56Z</time>
      </trkpt>
      <trkpt lat="46.51385" lon="-1.78843">
        <ele>6.3</ele>
        <time>2020-06-03T13:23:57Z</time>
      </trkpt>
      <trkpt lat="46.51384" lon="-1.78842">
        <ele>6.3</ele>
        <time>2020-06-03T13:23:58Z</time>
      </trkpt>
      <trkpt lat="46.51384" lon="-1.78841">
        <ele>6.3</ele>
        <time>2020-06-03T13:23:59Z</time>
      </trkpt>
      <trkpt lat="46.51384" lon="-1.78841">
        <ele>6.3</ele>
        <time>2020-06-03T13:24:00Z</time>
      </trkpt>
      <trkpt lat="46.51384" lon="-1.7884">
        <ele>6.3</ele>
        <time>2020-06-03T13:24:01Z</time>
      </trkpt>
      <trkpt lat="46.51384" lon="-1.78841">
        <ele>6.3</ele>
        <time>2020-06-03T13:24:02Z</time>
      </trkpt>
      <trkpt lat="46.51384" lon="-1.78841">
        <ele>6.3</ele>
        <time>2020-06-03T13:24:03Z</time>
      </trkpt>
      <trkpt lat="46.51383" lon="-1.78842">
        <ele>6.3</ele>
        <time>2020-06-03T13:24:04Z</time>
      </trkpt>
      <trkpt lat="46.51383" lon="-1.78841">
        <ele>6.3</ele>
        <time>2020-06-03T13:24:05Z</time>
      </trkpt>
      <trkpt lat="46.51383" lon="-1.78839">
        <ele>6.3</ele>
        <time>2020-06-03T13:24:06Z</time>
      </trkpt>
      <trkpt lat="46.51383" lon="-1.78838">
        <ele>6.3</ele>
        <time>2020-06-03T13:24:07Z</time>
      </trkpt>
      <trkpt lat="46.51385" lon="-1.78835">
        <ele>6.3</ele>
        <time>2020-06-03T13:24:11Z</time>
      </trkpt>
      <trkpt lat="46.51386" lon="-1.78834">
        <ele>6.3</ele>
        <time>2020-06-03T13:24:12Z</time>
      </trkpt>
      <trkpt lat="46.51386" lon="-1.78834">
        <ele>6.3</ele>
        <time>2020-06-03T13:24:13Z</time>
      </trkpt>
      <trkpt lat="46.51386" lon="-1.78834">
        <ele>6.3</ele>
        <time>2020-06-03T13:24:14Z</time>
      </trkpt>
      <trkpt lat="46.51386" lon="-1.78834">
        <ele>6.3</ele>
        <time>2020-06-03T13:24:15Z</time>
      </trkpt>
      <trkpt lat="46.51386" lon="-1.78834">
        <ele>6.3</ele>
        <time>2020-06-03T13:24:16Z</time>
      </trkpt>
      <trkpt lat="46.51386" lon="-1.78833">
        <ele>6.3</ele>
        <time>2020-06-03T13:24:17Z</time>
      </trkpt>
      <trkpt lat="46.51387" lon="-1.78832">
        <ele>6.3</ele>
        <time>2020-06-03T13:24:18Z</time>
      </trkpt>
      <trkpt lat="46.51387" lon="-1.78832">
        <ele>6.3</ele>
        <time>2020-06-03T13:24:19Z</time>
      </trkpt>
      <trkpt lat="46.51387" lon="-1.78831">
        <ele>6.3</ele>
        <time>2020-06-03T13:24:20Z</time>
      </trkpt>
      <trkpt lat="46.51387" lon="-1.7883">
        <ele>6.3</ele>
        <time>2020-06-03T13:24:21Z</time>
      </trkpt>
      <trkpt lat="46.51386" lon="-1.78829">
        <ele>6.3</ele>
        <time>2020-06-03T13:24:22Z</time>
      </trkpt>
      <trkpt lat="46.51386" lon="-1.78828">
        <ele>6.3</ele>
        <time>2020-06-03T13:24:23Z</time>
      </trkpt>
      <trkpt lat="46.51385" lon="-1.78826">
        <ele>6.3</ele>
        <time>2020-06-03T13:24:24Z</time>
      </trkpt>
      <trkpt lat="46.51385" lon="-1.78826">
        <ele>6.3</ele>
        <time>2020-06-03T13:24:25Z</time>
      </trkpt>
      <trkpt lat="46.51385" lon="-1.78825">
        <ele>6.3</ele>
        <time>2020-06-03T13:24:26Z</time>
      </trkpt>
      <trkpt lat="46.51385" lon="-1.78825">
        <ele>6.3</ele>
        <time>2020-06-03T13:24:27Z</time>
      </trkpt>
      <trkpt lat="46.51385" lon="-1.78825">
        <ele>6.3</ele>
        <time>2020-06-03T13:24:28Z</time>
      </trkpt>
      <trkpt lat="46.51385" lon="-1.78825">
        <ele>6.3</ele>
        <time>2020-06-03T13:24:29Z</time>
      </trkpt>
      <trkpt lat="46.51385" lon="-1.78825">
        <ele>6.3</ele>
        <time>2020-06-03T13:24:30Z</time>
      </trkpt>
      <trkpt lat="46.51385" lon="-1.78825">
        <ele>6.3</ele>
        <time>2020-06-03T13:24:31Z</time>
      </trkpt>
      <trkpt lat="46.51385" lon="-1.78825">
        <ele>6.3</ele>
        <time>2020-06-03T13:24:32Z</time>
      </trkpt>
      <trkpt lat="46.51385" lon="-1.78825">
        <ele>6.3</ele>
        <time>2020-06-03T13:24:33Z</time>
      </trkpt>
      <trkpt lat="46.51385" lon="-1.78825">
        <ele>6.3</ele>
        <time>2020-06-03T13:24:34Z</time>
      </trkpt>
      <trkpt lat="46.51385" lon="-1.78825">
        <ele>6.3</ele>
        <time>2020-06-03T13:24:35Z</time>
      </trkpt>
      <trkpt lat="46.51384" lon="-1.78832">
        <ele>6.3</ele>
        <time>2020-06-03T13:55:12Z</time>
      </trkpt>
      <trkpt lat="46.51385" lon="-1.78833">
        <ele>6.3</ele>
        <time>2020-06-03T13:55:13Z</time>
      </trkpt>
      <trkpt lat="46.51377" lon="-1.78838">
        <ele>6.3</ele>
        <time>2020-06-03T13:55:17Z</time>
      </trkpt>
      <trkpt lat="46.51383" lon="-1.78836">
        <ele>6.3</ele>
        <time>2020-06-03T13:55:18Z</time>
      </trkpt>
      <trkpt lat="46.51393" lon="-1.78832">
        <ele>6.3</ele>
        <time>2020-06-03T13:55:19Z</time>
      </trkpt>
      <trkpt lat="46.51396" lon="-1.78831">
        <ele>6.3</ele>
        <time>2020-06-03T13:55:20Z</time>
      </trkpt>
      <trkpt lat="46.51399" lon="-1.78832">
        <ele>6.3</ele>
        <time>2020-06-03T13:55:22Z</time>
      </trkpt>
      <trkpt lat="46.51402" lon="-1.78836">
        <ele>6.3</ele>
        <time>2020-06-03T13:56:21Z</time>
      </trkpt>
      <trkpt lat="46.51401" lon="-1.78836">
        <ele>6.3</ele>
        <time>2020-06-03T13:56:22Z</time>
      </trkpt>
      <trkpt lat="46.51401" lon="-1.78836">
        <ele>6.3</ele>
        <time>2020-06-03T13:56:23Z</time>
      </trkpt>
      <trkpt lat="46.51401" lon="-1.78837">
        <ele>6.3</ele>
        <time>2020-06-03T13:56:24Z</time>
      </trkpt>
      <trkpt lat="46.51401" lon="-1.7884">
        <ele>6.3</ele>
        <time>2020-06-03T13:56:25Z</time>
      </trkpt>
      <trkpt lat="46.51401" lon="-1.78841">
        <ele>6.3</ele>
        <time>2020-06-03T13:56:26Z</time>
      </trkpt>
      <trkpt lat="46.51402" lon="-1.78842">
        <ele>6.3</ele>
        <time>2020-06-03T13:56:27Z</time>
      </trkpt>
      <trkpt lat="46.51403" lon="-1.78845">
        <ele>6.3</ele>
        <time>2020-06-03T13:56:28Z</time>
      </trkpt>
      <trkpt lat="46.51404" lon="-1.7885">
        <ele>6.3</ele>
        <time>2020-06-03T13:56:29Z</time>
      </trkpt>
      <trkpt lat="46.51405" lon="-1.78853">
        <ele>6.3</ele>
        <time>2020-06-03T13:56:30Z</time>
      </trkpt>
      <trkpt lat="46.51405" lon="-1.78854">
        <ele>6.3</ele>
        <time>2020-06-03T13:56:31Z</time>
      </trkpt>
      <trkpt lat="46.51406" lon="-1.78854">
        <ele>6.3</ele>
        <time>2020-06-03T13:56:32Z</time>
      </trkpt>
      <trkpt lat="46.51407" lon="-1.78856">
        <ele>6.3</ele>
        <time>2020-06-03T13:56:33Z</time>
      </trkpt>
      <trkpt lat="46.51408" lon="-1.78856">
        <ele>6.3</ele>
        <time>2020-06-03T13:56:34Z</time>
      </trkpt>
      <trkpt lat="46.51409" lon="-1.78857">
        <ele>6.3</ele>
        <time>2020-06-03T13:56:35Z</time>
      </trkpt>
      <trkpt lat="46.5141" lon="-1.78858">
        <ele>6.3</ele>
        <time>2020-06-03T13:56:36Z</time>
      </trkpt>
      <trkpt lat="46.51409" lon="-1.78857">
        <ele>6.3</ele>
        <time>2020-06-03T13:56:37Z</time>
      </trkpt>
      <trkpt lat="46.5141" lon="-1.78858">
        <ele>6.3</ele>
        <time>2020-06-03T13:56:38Z</time>
      </trkpt>
      <trkpt lat="46.5141" lon="-1.78858">
        <ele>6.3</ele>
        <time>2020-06-03T13:56:39Z</time>
      </trkpt>
      <trkpt lat="46.5141" lon="-1.78858">
        <ele>6.3</ele>
        <time>2020-06-03T13:56:40Z</time>
      </trkpt>
      <trkpt lat="46.5141" lon="-1.78858">
        <ele>6.3</ele>
        <time>2020-06-03T13:56:41Z</time>
      </trkpt>
      <trkpt lat="46.5141" lon="-1.78857">
        <ele>6.3</ele>
        <time>2020-06-03T13:56:42Z</time>
      </trkpt>
      <trkpt lat="46.5141" lon="-1.78856">
        <ele>6.3</ele>
        <time>2020-06-03T13:56:43Z</time>
      </trkpt>
      <trkpt lat="46.5141" lon="-1.78857">
        <ele>6.3</ele>
        <time>2020-06-03T13:56:44Z</time>
      </trkpt>
      <trkpt lat="46.5141" lon="-1.78857">
        <ele>6.3</ele>
        <time>2020-06-03T13:56:45Z</time>
      </trkpt>
      <trkpt lat="46.5141" lon="-1.78857">
        <ele>6.3</ele>
        <time>2020-06-03T13:56:46Z</time>
      </trkpt>
      <trkpt lat="46.5141" lon="-1.78857">
        <ele>6.3</ele>
        <time>2020-06-03T13:56:47Z</time>
      </trkpt>
      <trkpt lat="46.51409" lon="-1.78864">
        <ele>6.2</ele>
        <time>2020-06-03T13:58:17Z</time>
      </trkpt>
      <trkpt lat="46.5141" lon="-1.78866">
        <ele>6.2</ele>
        <time>2020-06-03T13:58:18Z</time>
      </trkpt>
      <trkpt lat="46.51411" lon="-1.7887">
        <ele>6.2</ele>
        <time>2020-06-03T13:58:19Z</time>
      </trkpt>
      <trkpt lat="46.51411" lon="-1.78872">
        <ele>6.2</ele>
        <time>2020-06-03T13:58:20Z</time>
      </trkpt>
      <trkpt lat="46.51412" lon="-1.78876">
        <ele>6.1</ele>
        <time>2020-06-03T13:58:21Z</time>
      </trkpt>
      <trkpt lat="46.51412" lon="-1.78877">
        <ele>6.1</ele>
        <time>2020-06-03T13:58:22Z</time>
      </trkpt>
      <trkpt lat="46.51413" lon="-1.78882">
        <ele>6.1</ele>
        <time>2020-06-03T13:58:23Z</time>
      </trkpt>
      <trkpt lat="46.51413" lon="-1.78884">
        <ele>6.1</ele>
        <time>2020-06-03T13:58:24Z</time>
      </trkpt>
      <trkpt lat="46.51413" lon="-1.78889">
        <ele>6.1</ele>
        <time>2020-06-03T13:58:25Z</time>
      </trkpt>
      <trkpt lat="46.51413" lon="-1.7889">
        <ele>6</ele>
        <time>2020-06-03T13:58:26Z</time>
      </trkpt>
      <trkpt lat="46.51413" lon="-1.78895">
        <ele>6</ele>
        <time>2020-06-03T13:58:27Z</time>
      </trkpt>
      <trkpt lat="46.51413" lon="-1.78897">
        <ele>6</ele>
        <time>2020-06-03T13:58:28Z</time>
      </trkpt>
      <trkpt lat="46.51412" lon="-1.78901">
        <ele>6</ele>
        <time>2020-06-03T13:58:29Z</time>
      </trkpt>
      <trkpt lat="46.51412" lon="-1.78903">
        <ele>6</ele>
        <time>2020-06-03T13:58:30Z</time>
      </trkpt>
      <trkpt lat="46.51411" lon="-1.78908">
        <ele>5.9</ele>
        <time>2020-06-03T13:58:31Z</time>
      </trkpt>
      <trkpt lat="46.51411" lon="-1.78909">
        <ele>5.9</ele>
        <time>2020-06-03T13:58:32Z</time>
      </trkpt>
      <trkpt lat="46.51409" lon="-1.78914">
        <ele>5.9</ele>
        <time>2020-06-03T13:58:33Z</time>
      </trkpt>
      <trkpt lat="46.51408" lon="-1.78916">
        <ele>5.9</ele>
        <time>2020-06-03T13:58:34Z</time>
      </trkpt>
      <trkpt lat="46.51407" lon="-1.78921">
        <ele>5.8</ele>
        <time>2020-06-03T13:58:35Z</time>
      </trkpt>
      <trkpt lat="46.51407" lon="-1.78923">
        <ele>5.8</ele>
        <time>2020-06-03T13:58:36Z</time>
      </trkpt>
      <trkpt lat="46.51407" lon="-1.78928">
        <ele>5.8</ele>
        <time>2020-06-03T13:58:37Z</time>
      </trkpt>
      <trkpt lat="46.51405" lon="-1.78933">
        <ele>5.8</ele>
        <time>2020-06-03T13:58:38Z</time>
      </trkpt>
      <trkpt lat="46.51405" lon="-1.78935">
        <ele>5.8</ele>
        <time>2020-06-03T13:58:39Z</time>
      </trkpt>
      <trkpt lat="46.51404" lon="-1.7894">
        <ele>5.8</ele>
        <time>2020-06-03T13:58:40Z</time>
      </trkpt>
      <trkpt lat="46.51404" lon="-1.78943">
        <ele>5.7</ele>
        <time>2020-06-03T13:58:41Z</time>
      </trkpt>
      <trkpt lat="46.51403" lon="-1.78948">
        <ele>5.7</ele>
        <time>2020-06-03T13:58:42Z</time>
      </trkpt>
      <trkpt lat="46.51401" lon="-1.78952">
        <ele>5.7</ele>
        <time>2020-06-03T13:58:43Z</time>
      </trkpt>
      <trkpt lat="46.514" lon="-1.78956">
        <ele>5.6</ele>
        <time>2020-06-03T13:58:44Z</time>
      </trkpt>
      <trkpt lat="46.51399" lon="-1.78958">
        <ele>5.6</ele>
        <time>2020-06-03T13:58:45Z</time>
      </trkpt>
      <trkpt lat="46.51398" lon="-1.78962">
        <ele>5.6</ele>
        <time>2020-06-03T13:58:46Z</time>
      </trkpt>
      <trkpt lat="46.51397" lon="-1.78966">
        <ele>5.5</ele>
        <time>2020-06-03T13:58:47Z</time>
      </trkpt>
      <trkpt lat="46.51396" lon="-1.78971">
        <ele>5.5</ele>
        <time>2020-06-03T13:58:48Z</time>
      </trkpt>
      <trkpt lat="46.51394" lon="-1.78975">
        <ele>5.4</ele>
        <time>2020-06-03T13:58:49Z</time>
      </trkpt>
      <trkpt lat="46.51393" lon="-1.78979">
        <ele>5.4</ele>
        <time>2020-06-03T13:58:50Z</time>
      </trkpt>
      <trkpt lat="46.51391" lon="-1.78983">
        <ele>5.4</ele>
        <time>2020-06-03T13:58:51Z</time>
      </trkpt>
      <trkpt lat="46.51388" lon="-1.78987">
        <ele>5.3</ele>
        <time>2020-06-03T13:58:52Z</time>
      </trkpt>
      <trkpt lat="46.51387" lon="-1.78991">
        <ele>5.3</ele>
        <time>2020-06-03T13:58:53Z</time>
      </trkpt>
      <trkpt lat="46.51384" lon="-1.78994">
        <ele>5.3</ele>
        <time>2020-06-03T13:58:54Z</time>
      </trkpt>
      <trkpt lat="46.51382" lon="-1.78998">
        <ele>5.3</ele>
        <time>2020-06-03T13:58:55Z</time>
      </trkpt>
      <trkpt lat="46.51381" lon="-1.78999">
        <ele>5.2</ele>
        <time>2020-06-03T13:58:56Z</time>
      </trkpt>
      <trkpt lat="46.51378" lon="-1.79001">
        <ele>5.7</ele>
        <time>2020-06-03T13:58:57Z</time>
      </trkpt>
      <trkpt lat="46.51377" lon="-1.79003">
        <ele>5.7</ele>
        <time>2020-06-03T13:58:58Z</time>
      </trkpt>
      <trkpt lat="46.51376" lon="-1.79004">
        <ele>5.7</ele>
        <time>2020-06-03T13:58:59Z</time>
      </trkpt>
      <trkpt lat="46.51376" lon="-1.79007">
        <ele>5.7</ele>
        <time>2020-06-03T13:59:00Z</time>
      </trkpt>
      <trkpt lat="46.51376" lon="-1.79007">
        <ele>5.7</ele>
        <time>2020-06-03T13:59:01Z</time>
      </trkpt>
      <trkpt lat="46.51376" lon="-1.79007">
        <ele>5.7</ele>
        <time>2020-06-03T13:59:02Z</time>
      </trkpt>
      <trkpt lat="46.51377" lon="-1.79008">
        <ele>5.8</ele>
        <time>2020-06-03T13:59:03Z</time>
      </trkpt>
      <trkpt lat="46.51377" lon="-1.79008">
        <ele>5.8</ele>
        <time>2020-06-03T13:59:04Z</time>
      </trkpt>
      <trkpt lat="46.51377" lon="-1.79007">
        <ele>5.8</ele>
        <time>2020-06-03T13:59:05Z</time>
      </trkpt>
      <trkpt lat="46.51377" lon="-1.79005">
        <ele>5.8</ele>
        <time>2020-06-03T13:59:06Z</time>
      </trkpt>
      <trkpt lat="46.51378" lon="-1.79004">
        <ele>5.8</ele>
        <time>2020-06-03T13:59:07Z</time>
      </trkpt>
      <trkpt lat="46.51378" lon="-1.79004">
        <ele>5.8</ele>
        <time>2020-06-03T13:59:08Z</time>
      </trkpt>
      <trkpt lat="46.51378" lon="-1.79004">
        <ele>5.8</ele>
        <time>2020-06-03T13:59:09Z</time>
      </trkpt>
      <trkpt lat="46.51378" lon="-1.79004">
        <ele>5.8</ele>
        <time>2020-06-03T13:59:10Z</time>
      </trkpt>
      <trkpt lat="46.51383" lon="-1.79007">
        <ele>5.8</ele>
        <time>2020-06-03T13:59:18Z</time>
      </trkpt>
      <trkpt lat="46.51384" lon="-1.79007">
        <ele>5.8</ele>
        <time>2020-06-03T13:59:19Z</time>
      </trkpt>
      <trkpt lat="46.51384" lon="-1.79007">
        <ele>5.8</ele>
        <time>2020-06-03T13:59:20Z</time>
      </trkpt>
      <trkpt lat="46.51384" lon="-1.79007">
        <ele>5.8</ele>
        <time>2020-06-03T13:59:21Z</time>
      </trkpt>
      <trkpt lat="46.51384" lon="-1.79007">
        <ele>5.8</ele>
        <time>2020-06-03T13:59:22Z</time>
      </trkpt>
      <trkpt lat="46.51384" lon="-1.79007">
        <ele>5.8</ele>
        <time>2020-06-03T13:59:23Z</time>
      </trkpt>
      <trkpt lat="46.51384" lon="-1.79007">
        <ele>5.8</ele>
        <time>2020-06-03T13:59:24Z</time>
      </trkpt>
      <trkpt lat="46.51384" lon="-1.79007">
        <ele>5.8</ele>
        <time>2020-06-03T13:59:25Z</time>
      </trkpt>
      <trkpt lat="46.51384" lon="-1.79007">
        <ele>5.8</ele>
        <time>2020-06-03T13:59:26Z</time>
      </trkpt>
      <trkpt lat="46.51384" lon="-1.79007">
        <ele>5.8</ele>
        <time>2020-06-03T13:59:27Z</time>
      </trkpt>
      <trkpt lat="46.51384" lon="-1.79007">
        <ele>5.8</ele>
        <time>2020-06-03T13:59:28Z</time>
      </trkpt>
      <trkpt lat="46.51385" lon="-1.79007">
        <ele>5.8</ele>
        <time>2020-06-03T13:59:29Z</time>
      </trkpt>
      <trkpt lat="46.51386" lon="-1.79006">
        <ele>5.8</ele>
        <time>2020-06-03T13:59:30Z</time>
      </trkpt>
      <trkpt lat="46.51388" lon="-1.79004">
        <ele>5.9</ele>
        <time>2020-06-03T13:59:31Z</time>
      </trkpt>
      <trkpt lat="46.5139" lon="-1.79002">
        <ele>6</ele>
        <time>2020-06-03T13:59:32Z</time>
      </trkpt>
      <trkpt lat="46.51392" lon="-1.79">
        <ele>6</ele>
        <time>2020-06-03T13:59:33Z</time>
      </trkpt>
      <trkpt lat="46.51394" lon="-1.78996">
        <ele>6</ele>
        <time>2020-06-03T13:59:34Z</time>
      </trkpt>
      <trkpt lat="46.51398" lon="-1.78991">
        <ele>6.1</ele>
        <time>2020-06-03T13:59:35Z</time>
      </trkpt>
      <trkpt lat="46.51401" lon="-1.78987">
        <ele>6.1</ele>
        <time>2020-06-03T13:59:36Z</time>
      </trkpt>
      <trkpt lat="46.51405" lon="-1.78985">
        <ele>6.1</ele>
        <time>2020-06-03T13:59:37Z</time>
      </trkpt>
      <trkpt lat="46.51408" lon="-1.78983">
        <ele>6.1</ele>
        <time>2020-06-03T13:59:38Z</time>
      </trkpt>
      <trkpt lat="46.51411" lon="-1.78981">
        <ele>6.2</ele>
        <time>2020-06-03T13:59:39Z</time>
      </trkpt>
      <trkpt lat="46.51414" lon="-1.78978">
        <ele>6.2</ele>
        <time>2020-06-03T13:59:40Z</time>
      </trkpt>
      <trkpt lat="46.51419" lon="-1.78975">
        <ele>6.2</ele>
        <time>2020-06-03T13:59:41Z</time>
      </trkpt>
      <trkpt lat="46.51423" lon="-1.78972">
        <ele>6.3</ele>
        <time>2020-06-03T13:59:42Z</time>
      </trkpt>
      <trkpt lat="46.51427" lon="-1.78971">
        <ele>6.3</ele>
        <time>2020-06-03T13:59:43Z</time>
      </trkpt>
      <trkpt lat="46.51431" lon="-1.78971">
        <ele>6.3</ele>
        <time>2020-06-03T13:59:44Z</time>
      </trkpt>
      <trkpt lat="46.51436" lon="-1.78976">
        <ele>6.3</ele>
        <time>2020-06-03T13:59:45Z</time>
      </trkpt>
      <trkpt lat="46.51437" lon="-1.78984">
        <ele>6.3</ele>
        <time>2020-06-03T13:59:46Z</time>
      </trkpt>
      <trkpt lat="46.51439" lon="-1.78991">
        <ele>6.3</ele>
        <time>2020-06-03T13:59:47Z</time>
      </trkpt>
      <trkpt lat="46.5144" lon="-1.78999">
        <ele>6.2</ele>
        <time>2020-06-03T13:59:48Z</time>
      </trkpt>
      <trkpt lat="46.5144" lon="-1.79006">
        <ele>6.2</ele>
        <time>2020-06-03T13:59:49Z</time>
      </trkpt>
      <trkpt lat="46.5144" lon="-1.79013">
        <ele>6.1</ele>
        <time>2020-06-03T13:59:50Z</time>
      </trkpt>
      <trkpt lat="46.5144" lon="-1.7902">
        <ele>6</ele>
        <time>2020-06-03T13:59:51Z</time>
      </trkpt>
      <trkpt lat="46.51442" lon="-1.79027">
        <ele>5.9</ele>
        <time>2020-06-03T13:59:52Z</time>
      </trkpt>
      <trkpt lat="46.51443" lon="-1.79032">
        <ele>5.5</ele>
        <time>2020-06-03T13:59:53Z</time>
      </trkpt>
      <trkpt lat="46.51447" lon="-1.79035">
        <ele>5.4</ele>
        <time>2020-06-03T13:59:54Z</time>
      </trkpt>
      <trkpt lat="46.51451" lon="-1.79034">
        <ele>5.3</ele>
        <time>2020-06-03T13:59:55Z</time>
      </trkpt>
      <trkpt lat="46.51456" lon="-1.79036">
        <ele>5.2</ele>
        <time>2020-06-03T13:59:56Z</time>
      </trkpt>
      <trkpt lat="46.51462" lon="-1.79037">
        <ele>5.1</ele>
        <time>2020-06-03T13:59:57Z</time>
      </trkpt>
      <trkpt lat="46.51467" lon="-1.79038">
        <ele>5.1</ele>
        <time>2020-06-03T13:59:58Z</time>
      </trkpt>
      <trkpt lat="46.51472" lon="-1.79039">
        <ele>5</ele>
        <time>2020-06-03T13:59:59Z</time>
      </trkpt>
      <trkpt lat="46.51477" lon="-1.79041">
        <ele>5</ele>
        <time>2020-06-03T14:00:00Z</time>
      </trkpt>
      <trkpt lat="46.51482" lon="-1.79042">
        <ele>4.9</ele>
        <time>2020-06-03T14:00:01Z</time>
      </trkpt>
      <trkpt lat="46.51489" lon="-1.79045">
        <ele>4.9</ele>
        <time>2020-06-03T14:00:02Z</time>
      </trkpt>
      <trkpt lat="46.51494" lon="-1.79048">
        <ele>4.8</ele>
        <time>2020-06-03T14:00:03Z</time>
      </trkpt>
      <trkpt lat="46.51499" lon="-1.7905">
        <ele>4.8</ele>
        <time>2020-06-03T14:00:04Z</time>
      </trkpt>
      <trkpt lat="46.51504" lon="-1.79052">
        <ele>4.8</ele>
        <time>2020-06-03T14:00:05Z</time>
      </trkpt>
      <trkpt lat="46.51509" lon="-1.79054">
        <ele>4.8</ele>
        <time>2020-06-03T14:00:06Z</time>
      </trkpt>
      <trkpt lat="46.51514" lon="-1.79056">
        <ele>4.7</ele>
        <time>2020-06-03T14:00:07Z</time>
      </trkpt>
      <trkpt lat="46.5152" lon="-1.79059">
        <ele>4.7</ele>
        <time>2020-06-03T14:00:08Z</time>
      </trkpt>
      <trkpt lat="46.51525" lon="-1.7906">
        <ele>4.7</ele>
        <time>2020-06-03T14:00:09Z</time>
      </trkpt>
      <trkpt lat="46.51531" lon="-1.79063">
        <ele>4.7</ele>
        <time>2020-06-03T14:00:10Z</time>
      </trkpt>
      <trkpt lat="46.51536" lon="-1.79065">
        <ele>4.7</ele>
        <time>2020-06-03T14:00:11Z</time>
      </trkpt>
      <trkpt lat="46.51539" lon="-1.79066">
        <ele>4.7</ele>
        <time>2020-06-03T14:00:12Z</time>
      </trkpt>
      <trkpt lat="46.51544" lon="-1.79068">
        <ele>4.7</ele>
        <time>2020-06-03T14:00:13Z</time>
      </trkpt>
      <trkpt lat="46.51549" lon="-1.7907">
        <ele>4.7</ele>
        <time>2020-06-03T14:00:14Z</time>
      </trkpt>
      <trkpt lat="46.51553" lon="-1.79071">
        <ele>4.7</ele>
        <time>2020-06-03T14:00:15Z</time>
      </trkpt>
      <trkpt lat="46.51558" lon="-1.79071">
        <ele>4.7</ele>
        <time>2020-06-03T14:00:16Z</time>
      </trkpt>
      <trkpt lat="46.51563" lon="-1.79071">
        <ele>4.7</ele>
        <time>2020-06-03T14:00:17Z</time>
      </trkpt>
      <trkpt lat="46.51568" lon="-1.79072">
        <ele>4.7</ele>
        <time>2020-06-03T14:00:18Z</time>
      </trkpt>
      <trkpt lat="46.51574" lon="-1.79072">
        <ele>4.7</ele>
        <time>2020-06-03T14:00:19Z</time>
      </trkpt>
      <trkpt lat="46.5158" lon="-1.79071">
        <ele>4.7</ele>
        <time>2020-06-03T14:00:20Z</time>
      </trkpt>
      <trkpt lat="46.51585" lon="-1.79071">
        <ele>4.6</ele>
        <time>2020-06-03T14:00:21Z</time>
      </trkpt>
      <trkpt lat="46.51589" lon="-1.79072">
        <ele>4.6</ele>
        <time>2020-06-03T14:00:22Z</time>
      </trkpt>
      <trkpt lat="46.51595" lon="-1.79073">
        <ele>4.5</ele>
        <time>2020-06-03T14:00:23Z</time>
      </trkpt>
      <trkpt lat="46.51601" lon="-1.79072">
        <ele>4.5</ele>
        <time>2020-06-03T14:00:24Z</time>
      </trkpt>
      <trkpt lat="46.51607" lon="-1.79072">
        <ele>4.5</ele>
        <time>2020-06-03T14:00:25Z</time>
      </trkpt>
      <trkpt lat="46.51612" lon="-1.79071">
        <ele>4.4</ele>
        <time>2020-06-03T14:00:26Z</time>
      </trkpt>
      <trkpt lat="46.51618" lon="-1.79071">
        <ele>4.4</ele>
        <time>2020-06-03T14:00:27Z</time>
      </trkpt>
      <trkpt lat="46.51625" lon="-1.79069">
        <ele>4.4</ele>
        <time>2020-06-03T14:00:28Z</time>
      </trkpt>
      <trkpt lat="46.5163" lon="-1.79068">
        <ele>4.4</ele>
        <time>2020-06-03T14:00:29Z</time>
      </trkpt>
      <trkpt lat="46.51636" lon="-1.79068">
        <ele>4.3</ele>
        <time>2020-06-03T14:00:30Z</time>
      </trkpt>
      <trkpt lat="46.51643" lon="-1.79067">
        <ele>4.3</ele>
        <time>2020-06-03T14:00:31Z</time>
      </trkpt>
      <trkpt lat="46.51648" lon="-1.79066">
        <ele>4.3</ele>
        <time>2020-06-03T14:00:32Z</time>
      </trkpt>
      <trkpt lat="46.51654" lon="-1.79065">
        <ele>4.3</ele>
        <time>2020-06-03T14:00:33Z</time>
      </trkpt>
      <trkpt lat="46.51661" lon="-1.79064">
        <ele>4.3</ele>
        <time>2020-06-03T14:00:34Z</time>
      </trkpt>
      <trkpt lat="46.51667" lon="-1.79064">
        <ele>4.2</ele>
        <time>2020-06-03T14:00:35Z</time>
      </trkpt>
      <trkpt lat="46.51672" lon="-1.79063">
        <ele>4.2</ele>
        <time>2020-06-03T14:00:36Z</time>
      </trkpt>
      <trkpt lat="46.51678" lon="-1.79063">
        <ele>4.2</ele>
        <time>2020-06-03T14:00:37Z</time>
      </trkpt>
      <trkpt lat="46.51685" lon="-1.79062">
        <ele>4.1</ele>
        <time>2020-06-03T14:00:38Z</time>
      </trkpt>
      <trkpt lat="46.5169" lon="-1.79062">
        <ele>4.1</ele>
        <time>2020-06-03T14:00:39Z</time>
      </trkpt>
      <trkpt lat="46.51696" lon="-1.79063">
        <ele>4</ele>
        <time>2020-06-03T14:00:40Z</time>
      </trkpt>
      <trkpt lat="46.51703" lon="-1.79065">
        <ele>4</ele>
        <time>2020-06-03T14:00:41Z</time>
      </trkpt>
      <trkpt lat="46.51709" lon="-1.7907">
        <ele>4</ele>
        <time>2020-06-03T14:00:42Z</time>
      </trkpt>
      <trkpt lat="46.51715" lon="-1.79073">
        <ele>4</ele>
        <time>2020-06-03T14:00:43Z</time>
      </trkpt>
      <trkpt lat="46.5172" lon="-1.79075">
        <ele>4</ele>
        <time>2020-06-03T14:00:44Z</time>
      </trkpt>
      <trkpt lat="46.51726" lon="-1.79077">
        <ele>4.1</ele>
        <time>2020-06-03T14:00:45Z</time>
      </trkpt>
      <trkpt lat="46.51732" lon="-1.7908">
        <ele>4.1</ele>
        <time>2020-06-03T14:00:46Z</time>
      </trkpt>
      <trkpt lat="46.51737" lon="-1.79083">
        <ele>4.1</ele>
        <time>2020-06-03T14:00:47Z</time>
      </trkpt>
      <trkpt lat="46.51742" lon="-1.79085">
        <ele>4.1</ele>
        <time>2020-06-03T14:00:48Z</time>
      </trkpt>
      <trkpt lat="46.51747" lon="-1.79088">
        <ele>4.1</ele>
        <time>2020-06-03T14:00:49Z</time>
      </trkpt>
      <trkpt lat="46.51752" lon="-1.7909">
        <ele>4.1</ele>
        <time>2020-06-03T14:00:50Z</time>
      </trkpt>
      <trkpt lat="46.51758" lon="-1.79093">
        <ele>4.1</ele>
        <time>2020-06-03T14:00:51Z</time>
      </trkpt>
      <trkpt lat="46.51763" lon="-1.79095">
        <ele>4.1</ele>
        <time>2020-06-03T14:00:52Z</time>
      </trkpt>
      <trkpt lat="46.51768" lon="-1.79097">
        <ele>4.2</ele>
        <time>2020-06-03T14:00:53Z</time>
      </trkpt>
      <trkpt lat="46.51773" lon="-1.791">
        <ele>4.3</ele>
        <time>2020-06-03T14:00:54Z</time>
      </trkpt>
      <trkpt lat="46.51778" lon="-1.79102">
        <ele>4.4</ele>
        <time>2020-06-03T14:00:55Z</time>
      </trkpt>
      <trkpt lat="46.51782" lon="-1.79104">
        <ele>4.4</ele>
        <time>2020-06-03T14:00:56Z</time>
      </trkpt>
      <trkpt lat="46.51788" lon="-1.79107">
        <ele>4.5</ele>
        <time>2020-06-03T14:00:57Z</time>
      </trkpt>
      <trkpt lat="46.51794" lon="-1.79111">
        <ele>4.6</ele>
        <time>2020-06-03T14:00:58Z</time>
      </trkpt>
      <trkpt lat="46.518" lon="-1.79115">
        <ele>4.8</ele>
        <time>2020-06-03T14:00:59Z</time>
      </trkpt>
      <trkpt lat="46.51804" lon="-1.79118">
        <ele>4.9</ele>
        <time>2020-06-03T14:01:00Z</time>
      </trkpt>
      <trkpt lat="46.51808" lon="-1.79121">
        <ele>5</ele>
        <time>2020-06-03T14:01:01Z</time>
      </trkpt>
      <trkpt lat="46.51813" lon="-1.79123">
        <ele>5</ele>
        <time>2020-06-03T14:01:02Z</time>
      </trkpt>
      <trkpt lat="46.51818" lon="-1.79126">
        <ele>5.1</ele>
        <time>2020-06-03T14:01:03Z</time>
      </trkpt>
      <trkpt lat="46.51822" lon="-1.79129">
        <ele>5.1</ele>
        <time>2020-06-03T14:01:04Z</time>
      </trkpt>
      <trkpt lat="46.51827" lon="-1.79131">
        <ele>5.1</ele>
        <time>2020-06-03T14:01:05Z</time>
      </trkpt>
      <trkpt lat="46.51832" lon="-1.79133">
        <ele>5.2</ele>
        <time>2020-06-03T14:01:06Z</time>
      </trkpt>
      <trkpt lat="46.51837" lon="-1.79135">
        <ele>5.2</ele>
        <time>2020-06-03T14:01:07Z</time>
      </trkpt>
      <trkpt lat="46.51843" lon="-1.79135">
        <ele>5.3</ele>
        <time>2020-06-03T14:01:08Z</time>
      </trkpt>
      <trkpt lat="46.51848" lon="-1.79135">
        <ele>5.4</ele>
        <time>2020-06-03T14:01:09Z</time>
      </trkpt>
      <trkpt lat="46.51854" lon="-1.79135">
        <ele>5.5</ele>
        <time>2020-06-03T14:01:10Z</time>
      </trkpt>
      <trkpt lat="46.5186" lon="-1.79135">
        <ele>5.7</ele>
        <time>2020-06-03T14:01:11Z</time>
      </trkpt>
      <trkpt lat="46.51864" lon="-1.79134">
        <ele>5.8</ele>
        <time>2020-06-03T14:01:12Z</time>
      </trkpt>
      <trkpt lat="46.5187" lon="-1.79134">
        <ele>5.9</ele>
        <time>2020-06-03T14:01:13Z</time>
      </trkpt>
      <trkpt lat="46.51875" lon="-1.79133">
        <ele>6.1</ele>
        <time>2020-06-03T14:01:14Z</time>
      </trkpt>
      <trkpt lat="46.5188" lon="-1.79133">
        <ele>6.2</ele>
        <time>2020-06-03T14:01:15Z</time>
      </trkpt>
      <trkpt lat="46.51886" lon="-1.7913">
        <ele>6.3</ele>
        <time>2020-06-03T14:01:16Z</time>
      </trkpt>
      <trkpt lat="46.51892" lon="-1.79129">
        <ele>6.4</ele>
        <time>2020-06-03T14:01:17Z</time>
      </trkpt>
      <trkpt lat="46.51898" lon="-1.7913">
        <ele>6.5</ele>
        <time>2020-06-03T14:01:18Z</time>
      </trkpt>
      <trkpt lat="46.51903" lon="-1.79129">
        <ele>6.6</ele>
        <time>2020-06-03T14:01:19Z</time>
      </trkpt>
      <trkpt lat="46.51909" lon="-1.79129">
        <ele>6.6</ele>
        <time>2020-06-03T14:01:20Z</time>
      </trkpt>
      <trkpt lat="46.51914" lon="-1.79129">
        <ele>6.7</ele>
        <time>2020-06-03T14:01:21Z</time>
      </trkpt>
      <trkpt lat="46.5192" lon="-1.79127">
        <ele>6.8</ele>
        <time>2020-06-03T14:01:22Z</time>
      </trkpt>
      <trkpt lat="46.51925" lon="-1.79127">
        <ele>6.8</ele>
        <time>2020-06-03T14:01:23Z</time>
      </trkpt>
      <trkpt lat="46.5193" lon="-1.7913">
        <ele>6.8</ele>
        <time>2020-06-03T14:01:24Z</time>
      </trkpt>
      <trkpt lat="46.51935" lon="-1.79133">
        <ele>6.9</ele>
        <time>2020-06-03T14:01:25Z</time>
      </trkpt>
      <trkpt lat="46.51939" lon="-1.79136">
        <ele>6.9</ele>
        <time>2020-06-03T14:01:26Z</time>
      </trkpt>
      <trkpt lat="46.51944" lon="-1.79139">
        <ele>6.9</ele>
        <time>2020-06-03T14:01:27Z</time>
      </trkpt>
      <trkpt lat="46.51948" lon="-1.79142">
        <ele>6.9</ele>
        <time>2020-06-03T14:01:28Z</time>
      </trkpt>
      <trkpt lat="46.51954" lon="-1.79147">
        <ele>6.9</ele>
        <time>2020-06-03T14:01:29Z</time>
      </trkpt>
      <trkpt lat="46.51958" lon="-1.79151">
        <ele>6.8</ele>
        <time>2020-06-03T14:01:30Z</time>
      </trkpt>
      <trkpt lat="46.51963" lon="-1.79155">
        <ele>6.8</ele>
        <time>2020-06-03T14:01:31Z</time>
      </trkpt>
      <trkpt lat="46.51968" lon="-1.79159">
        <ele>6.7</ele>
        <time>2020-06-03T14:01:32Z</time>
      </trkpt>
      <trkpt lat="46.51973" lon="-1.79162">
        <ele>6.7</ele>
        <time>2020-06-03T14:01:33Z</time>
      </trkpt>
      <trkpt lat="46.51978" lon="-1.79168">
        <ele>6.6</ele>
        <time>2020-06-03T14:01:34Z</time>
      </trkpt>
      <trkpt lat="46.51982" lon="-1.79173">
        <ele>6.5</ele>
        <time>2020-06-03T14:01:35Z</time>
      </trkpt>
      <trkpt lat="46.51987" lon="-1.79178">
        <ele>6.5</ele>
        <time>2020-06-03T14:01:36Z</time>
      </trkpt>
      <trkpt lat="46.51991" lon="-1.79183">
        <ele>6.4</ele>
        <time>2020-06-03T14:01:37Z</time>
      </trkpt>
      <trkpt lat="46.51995" lon="-1.79189">
        <ele>6.4</ele>
        <time>2020-06-03T14:01:38Z</time>
      </trkpt>
      <trkpt lat="46.51999" lon="-1.79194">
        <ele>6.3</ele>
        <time>2020-06-03T14:01:39Z</time>
      </trkpt>
      <trkpt lat="46.52003" lon="-1.79199">
        <ele>6.3</ele>
        <time>2020-06-03T14:01:40Z</time>
      </trkpt>
      <trkpt lat="46.52008" lon="-1.79203">
        <ele>6.2</ele>
        <time>2020-06-03T14:01:41Z</time>
      </trkpt>
      <trkpt lat="46.52012" lon="-1.79208">
        <ele>6.2</ele>
        <time>2020-06-03T14:01:42Z</time>
      </trkpt>
      <trkpt lat="46.52017" lon="-1.79212">
        <ele>6.1</ele>
        <time>2020-06-03T14:01:43Z</time>
      </trkpt>
      <trkpt lat="46.52022" lon="-1.79216">
        <ele>6</ele>
        <time>2020-06-03T14:01:44Z</time>
      </trkpt>
      <trkpt lat="46.52027" lon="-1.79221">
        <ele>6</ele>
        <time>2020-06-03T14:01:45Z</time>
      </trkpt>
      <trkpt lat="46.52031" lon="-1.79226">
        <ele>6</ele>
        <time>2020-06-03T14:01:46Z</time>
      </trkpt>
      <trkpt lat="46.52035" lon="-1.79231">
        <ele>6</ele>
        <time>2020-06-03T14:01:47Z</time>
      </trkpt>
      <trkpt lat="46.52039" lon="-1.79236">
        <ele>6</ele>
        <time>2020-06-03T14:01:48Z</time>
      </trkpt>
      <trkpt lat="46.52043" lon="-1.79241">
        <ele>6</ele>
        <time>2020-06-03T14:01:49Z</time>
      </trkpt>
      <trkpt lat="46.52047" lon="-1.79244">
        <ele>6</ele>
        <time>2020-06-03T14:01:50Z</time>
      </trkpt>
      <trkpt lat="46.5205" lon="-1.79247">
        <ele>6</ele>
        <time>2020-06-03T14:01:51Z</time>
      </trkpt>
      <trkpt lat="46.52053" lon="-1.79251">
        <ele>6</ele>
        <time>2020-06-03T14:01:52Z</time>
      </trkpt>
      <trkpt lat="46.52056" lon="-1.79253">
        <ele>6</ele>
        <time>2020-06-03T14:01:53Z</time>
      </trkpt>
      <trkpt lat="46.5206" lon="-1.79254">
        <ele>6</ele>
        <time>2020-06-03T14:01:54Z</time>
      </trkpt>
      <trkpt lat="46.52063" lon="-1.79255">
        <ele>6</ele>
        <time>2020-06-03T14:01:55Z</time>
      </trkpt>
      <trkpt lat="46.52066" lon="-1.79259">
        <ele>6</ele>
        <time>2020-06-03T14:01:56Z</time>
      </trkpt>
      <trkpt lat="46.52067" lon="-1.79265">
        <ele>6</ele>
        <time>2020-06-03T14:01:57Z</time>
      </trkpt>
      <trkpt lat="46.52067" lon="-1.79272">
        <ele>5.9</ele>
        <time>2020-06-03T14:01:58Z</time>
      </trkpt>
      <trkpt lat="46.52065" lon="-1.79279">
        <ele>5.8</ele>
        <time>2020-06-03T14:01:59Z</time>
      </trkpt>
      <trkpt lat="46.52066" lon="-1.79287">
        <ele>5.6</ele>
        <time>2020-06-03T14:02:00Z</time>
      </trkpt>
      <trkpt lat="46.52064" lon="-1.79293">
        <ele>5.4</ele>
        <time>2020-06-03T14:02:01Z</time>
      </trkpt>
      <trkpt lat="46.52062" lon="-1.793">
        <ele>5.3</ele>
        <time>2020-06-03T14:02:02Z</time>
      </trkpt>
      <trkpt lat="46.5206" lon="-1.79306">
        <ele>5.1</ele>
        <time>2020-06-03T14:02:03Z</time>
      </trkpt>
      <trkpt lat="46.52058" lon="-1.79313">
        <ele>4.9</ele>
        <time>2020-06-03T14:02:04Z</time>
      </trkpt>
      <trkpt lat="46.52057" lon="-1.7932">
        <ele>4.7</ele>
        <time>2020-06-03T14:02:05Z</time>
      </trkpt>
      <trkpt lat="46.52055" lon="-1.79327">
        <ele>4.5</ele>
        <time>2020-06-03T14:02:06Z</time>
      </trkpt>
      <trkpt lat="46.52053" lon="-1.79333">
        <ele>4.4</ele>
        <time>2020-06-03T14:02:07Z</time>
      </trkpt>
      <trkpt lat="46.52052" lon="-1.7934">
        <ele>4.2</ele>
        <time>2020-06-03T14:02:08Z</time>
      </trkpt>
      <trkpt lat="46.5205" lon="-1.79347">
        <ele>4.1</ele>
        <time>2020-06-03T14:02:09Z</time>
      </trkpt>
      <trkpt lat="46.52048" lon="-1.79355">
        <ele>4</ele>
        <time>2020-06-03T14:02:10Z</time>
      </trkpt>
      <trkpt lat="46.52046" lon="-1.79362">
        <ele>3.9</ele>
        <time>2020-06-03T14:02:11Z</time>
      </trkpt>
      <trkpt lat="46.52045" lon="-1.79368">
        <ele>3.8</ele>
        <time>2020-06-03T14:02:12Z</time>
      </trkpt>
      <trkpt lat="46.52043" lon="-1.79376">
        <ele>3.7</ele>
        <time>2020-06-03T14:02:13Z</time>
      </trkpt>
      <trkpt lat="46.52042" lon="-1.79384">
        <ele>3.7</ele>
        <time>2020-06-03T14:02:14Z</time>
      </trkpt>
      <trkpt lat="46.5204" lon="-1.79392">
        <ele>3.7</ele>
        <time>2020-06-03T14:02:15Z</time>
      </trkpt>
      <trkpt lat="46.52039" lon="-1.794">
        <ele>3.6</ele>
        <time>2020-06-03T14:02:16Z</time>
      </trkpt>
      <trkpt lat="46.52037" lon="-1.79408">
        <ele>3.6</ele>
        <time>2020-06-03T14:02:17Z</time>
      </trkpt>
      <trkpt lat="46.52036" lon="-1.79416">
        <ele>3.6</ele>
        <time>2020-06-03T14:02:18Z</time>
      </trkpt>
      <trkpt lat="46.52034" lon="-1.79423">
        <ele>3.5</ele>
        <time>2020-06-03T14:02:19Z</time>
      </trkpt>
      <trkpt lat="46.52033" lon="-1.7943">
        <ele>3.5</ele>
        <time>2020-06-03T14:02:20Z</time>
      </trkpt>
      <trkpt lat="46.52032" lon="-1.79438">
        <ele>3.5</ele>
        <time>2020-06-03T14:02:21Z</time>
      </trkpt>
      <trkpt lat="46.52031" lon="-1.79446">
        <ele>3.5</ele>
        <time>2020-06-03T14:02:22Z</time>
      </trkpt>
      <trkpt lat="46.5203" lon="-1.79454">
        <ele>3.4</ele>
        <time>2020-06-03T14:02:23Z</time>
      </trkpt>
      <trkpt lat="46.52029" lon="-1.79462">
        <ele>3.4</ele>
        <time>2020-06-03T14:02:24Z</time>
      </trkpt>
      <trkpt lat="46.52027" lon="-1.79469">
        <ele>3.4</ele>
        <time>2020-06-03T14:02:25Z</time>
      </trkpt>
      <trkpt lat="46.52024" lon="-1.79476">
        <ele>3.4</ele>
        <time>2020-06-03T14:02:26Z</time>
      </trkpt>
      <trkpt lat="46.52023" lon="-1.79484">
        <ele>3.4</ele>
        <time>2020-06-03T14:02:27Z</time>
      </trkpt>
      <trkpt lat="46.5202" lon="-1.79491">
        <ele>3.4</ele>
        <time>2020-06-03T14:02:28Z</time>
      </trkpt>
      <trkpt lat="46.52018" lon="-1.79497">
        <ele>3.4</ele>
        <time>2020-06-03T14:02:29Z</time>
      </trkpt>
      <trkpt lat="46.52016" lon="-1.79505">
        <ele>3.4</ele>
        <time>2020-06-03T14:02:30Z</time>
      </trkpt>
      <trkpt lat="46.52015" lon="-1.79512">
        <ele>3.5</ele>
        <time>2020-06-03T14:02:31Z</time>
      </trkpt>
      <trkpt lat="46.52012" lon="-1.7952">
        <ele>3.5</ele>
        <time>2020-06-03T14:02:32Z</time>
      </trkpt>
      <trkpt lat="46.52012" lon="-1.79529">
        <ele>3.5</ele>
        <time>2020-06-03T14:02:33Z</time>
      </trkpt>
      <trkpt lat="46.52012" lon="-1.79536">
        <ele>3.6</ele>
        <time>2020-06-03T14:02:34Z</time>
      </trkpt>
      <trkpt lat="46.52014" lon="-1.79541">
        <ele>3.6</ele>
        <time>2020-06-03T14:02:35Z</time>
      </trkpt>
      <trkpt lat="46.52016" lon="-1.79547">
        <ele>3.6</ele>
        <time>2020-06-03T14:02:36Z</time>
      </trkpt>
      <trkpt lat="46.52018" lon="-1.79554">
        <ele>3.6</ele>
        <time>2020-06-03T14:02:37Z</time>
      </trkpt>
      <trkpt lat="46.52019" lon="-1.79561">
        <ele>3.6</ele>
        <time>2020-06-03T14:02:38Z</time>
      </trkpt>
      <trkpt lat="46.5202" lon="-1.79567">
        <ele>3.6</ele>
        <time>2020-06-03T14:02:39Z</time>
      </trkpt>
      <trkpt lat="46.5202" lon="-1.79573">
        <ele>3.6</ele>
        <time>2020-06-03T14:02:40Z</time>
      </trkpt>
      <trkpt lat="46.5202" lon="-1.7958">
        <ele>3.7</ele>
        <time>2020-06-03T14:02:41Z</time>
      </trkpt>
      <trkpt lat="46.52021" lon="-1.79586">
        <ele>3.7</ele>
        <time>2020-06-03T14:02:42Z</time>
      </trkpt>
      <trkpt lat="46.52023" lon="-1.79592">
        <ele>3.7</ele>
        <time>2020-06-03T14:02:43Z</time>
      </trkpt>
      <trkpt lat="46.52024" lon="-1.79598">
        <ele>3.7</ele>
        <time>2020-06-03T14:02:44Z</time>
      </trkpt>
      <trkpt lat="46.52025" lon="-1.79606">
        <ele>3.7</ele>
        <time>2020-06-03T14:02:45Z</time>
      </trkpt>
      <trkpt lat="46.52026" lon="-1.79612">
        <ele>3.7</ele>
        <time>2020-06-03T14:02:46Z</time>
      </trkpt>
      <trkpt lat="46.52028" lon="-1.79619">
        <ele>3.7</ele>
        <time>2020-06-03T14:02:47Z</time>
      </trkpt>
      <trkpt lat="46.52029" lon="-1.79626">
        <ele>3.8</ele>
        <time>2020-06-03T14:02:48Z</time>
      </trkpt>
      <trkpt lat="46.5203" lon="-1.79634">
        <ele>3.8</ele>
        <time>2020-06-03T14:02:49Z</time>
      </trkpt>
      <trkpt lat="46.52031" lon="-1.7964">
        <ele>3.8</ele>
        <time>2020-06-03T14:02:50Z</time>
      </trkpt>
      <trkpt lat="46.52032" lon="-1.79647">
        <ele>3.8</ele>
        <time>2020-06-03T14:02:51Z</time>
      </trkpt>
      <trkpt lat="46.52033" lon="-1.79654">
        <ele>3.9</ele>
        <time>2020-06-03T14:02:52Z</time>
      </trkpt>
      <trkpt lat="46.52035" lon="-1.79661">
        <ele>3.9</ele>
        <time>2020-06-03T14:02:53Z</time>
      </trkpt>
      <trkpt lat="46.52036" lon="-1.79667">
        <ele>3.9</ele>
        <time>2020-06-03T14:02:54Z</time>
      </trkpt>
      <trkpt lat="46.52037" lon="-1.79675">
        <ele>3.9</ele>
        <time>2020-06-03T14:02:55Z</time>
      </trkpt>
      <trkpt lat="46.52037" lon="-1.79682">
        <ele>3.9</ele>
        <time>2020-06-03T14:02:56Z</time>
      </trkpt>
      <trkpt lat="46.52039" lon="-1.79688">
        <ele>4</ele>
        <time>2020-06-03T14:02:57Z</time>
      </trkpt>
      <trkpt lat="46.52039" lon="-1.79695">
        <ele>4</ele>
        <time>2020-06-03T14:02:58Z</time>
      </trkpt>
      <trkpt lat="46.52041" lon="-1.797">
        <ele>4</ele>
        <time>2020-06-03T14:02:59Z</time>
      </trkpt>
      <trkpt lat="46.52042" lon="-1.79706">
        <ele>4</ele>
        <time>2020-06-03T14:03:00Z</time>
      </trkpt>
      <trkpt lat="46.52044" lon="-1.79711">
        <ele>4.1</ele>
        <time>2020-06-03T14:03:01Z</time>
      </trkpt>
      <trkpt lat="46.52045" lon="-1.79717">
        <ele>4.1</ele>
        <time>2020-06-03T14:03:02Z</time>
      </trkpt>
      <trkpt lat="46.52045" lon="-1.79724">
        <ele>4.1</ele>
        <time>2020-06-03T14:03:03Z</time>
      </trkpt>
      <trkpt lat="46.52046" lon="-1.79731">
        <ele>4.2</ele>
        <time>2020-06-03T14:03:04Z</time>
      </trkpt>
      <trkpt lat="46.52047" lon="-1.79739">
        <ele>4.2</ele>
        <time>2020-06-03T14:03:05Z</time>
      </trkpt>
      <trkpt lat="46.52048" lon="-1.79745">
        <ele>4.3</ele>
        <time>2020-06-03T14:03:06Z</time>
      </trkpt>
      <trkpt lat="46.52049" lon="-1.79753">
        <ele>4.3</ele>
        <time>2020-06-03T14:03:07Z</time>
      </trkpt>
      <trkpt lat="46.5205" lon="-1.79759">
        <ele>4.4</ele>
        <time>2020-06-03T14:03:08Z</time>
      </trkpt>
      <trkpt lat="46.52051" lon="-1.79766">
        <ele>4.4</ele>
        <time>2020-06-03T14:03:09Z</time>
      </trkpt>
      <trkpt lat="46.52052" lon="-1.79772">
        <ele>4.5</ele>
        <time>2020-06-03T14:03:10Z</time>
      </trkpt>
      <trkpt lat="46.52053" lon="-1.79779">
        <ele>4.5</ele>
        <time>2020-06-03T14:03:11Z</time>
      </trkpt>
      <trkpt lat="46.52054" lon="-1.79786">
        <ele>4.6</ele>
        <time>2020-06-03T14:03:12Z</time>
      </trkpt>
      <trkpt lat="46.52054" lon="-1.79794">
        <ele>4.6</ele>
        <time>2020-06-03T14:03:13Z</time>
      </trkpt>
      <trkpt lat="46.52055" lon="-1.79801">
        <ele>4.7</ele>
        <time>2020-06-03T14:03:14Z</time>
      </trkpt>
      <trkpt lat="46.52056" lon="-1.79808">
        <ele>4.7</ele>
        <time>2020-06-03T14:03:15Z</time>
      </trkpt>
      <trkpt lat="46.52057" lon="-1.79814">
        <ele>4.7</ele>
        <time>2020-06-03T14:03:16Z</time>
      </trkpt>
      <trkpt lat="46.52057" lon="-1.79819">
        <ele>4.7</ele>
        <time>2020-06-03T14:03:17Z</time>
      </trkpt>
      <trkpt lat="46.52059" lon="-1.79826">
        <ele>4.8</ele>
        <time>2020-06-03T14:03:18Z</time>
      </trkpt>
      <trkpt lat="46.52061" lon="-1.79832">
        <ele>4.8</ele>
        <time>2020-06-03T14:03:19Z</time>
      </trkpt>
      <trkpt lat="46.52062" lon="-1.79838">
        <ele>4.8</ele>
        <time>2020-06-03T14:03:20Z</time>
      </trkpt>
      <trkpt lat="46.52064" lon="-1.79843">
        <ele>4.8</ele>
        <time>2020-06-03T14:03:21Z</time>
      </trkpt>
      <trkpt lat="46.52065" lon="-1.79848">
        <ele>4.8</ele>
        <time>2020-06-03T14:03:22Z</time>
      </trkpt>
      <trkpt lat="46.52067" lon="-1.79854">
        <ele>4.8</ele>
        <time>2020-06-03T14:03:23Z</time>
      </trkpt>
      <trkpt lat="46.52068" lon="-1.79859">
        <ele>4.8</ele>
        <time>2020-06-03T14:03:24Z</time>
      </trkpt>
      <trkpt lat="46.52069" lon="-1.79864">
        <ele>4.8</ele>
        <time>2020-06-03T14:03:25Z</time>
      </trkpt>
      <trkpt lat="46.52072" lon="-1.79869">
        <ele>4.8</ele>
        <time>2020-06-03T14:03:26Z</time>
      </trkpt>
      <trkpt lat="46.52074" lon="-1.79875">
        <ele>4.9</ele>
        <time>2020-06-03T14:03:27Z</time>
      </trkpt>
      <trkpt lat="46.52076" lon="-1.79881">
        <ele>4.9</ele>
        <time>2020-06-03T14:03:28Z</time>
      </trkpt>
      <trkpt lat="46.52078" lon="-1.79887">
        <ele>4.9</ele>
        <time>2020-06-03T14:03:29Z</time>
      </trkpt>
      <trkpt lat="46.52079" lon="-1.79894">
        <ele>4.9</ele>
        <time>2020-06-03T14:03:30Z</time>
      </trkpt>
      <trkpt lat="46.52081" lon="-1.79901">
        <ele>4.9</ele>
        <time>2020-06-03T14:03:31Z</time>
      </trkpt>
      <trkpt lat="46.52082" lon="-1.79909">
        <ele>4.9</ele>
        <time>2020-06-03T14:03:32Z</time>
      </trkpt>
      <trkpt lat="46.52083" lon="-1.79916">
        <ele>4.9</ele>
        <time>2020-06-03T14:03:33Z</time>
      </trkpt>
      <trkpt lat="46.52085" lon="-1.79922">
        <ele>4.9</ele>
        <time>2020-06-03T14:03:34Z</time>
      </trkpt>
      <trkpt lat="46.52086" lon="-1.79929">
        <ele>4.9</ele>
        <time>2020-06-03T14:03:35Z</time>
      </trkpt>
      <trkpt lat="46.52086" lon="-1.79935">
        <ele>5</ele>
        <time>2020-06-03T14:03:36Z</time>
      </trkpt>
      <trkpt lat="46.52087" lon="-1.79942">
        <ele>5</ele>
        <time>2020-06-03T14:03:37Z</time>
      </trkpt>
      <trkpt lat="46.52088" lon="-1.79949">
        <ele>5</ele>
        <time>2020-06-03T14:03:38Z</time>
      </trkpt>
      <trkpt lat="46.52089" lon="-1.79955">
        <ele>5</ele>
        <time>2020-06-03T14:03:39Z</time>
      </trkpt>
      <trkpt lat="46.5209" lon="-1.79961">
        <ele>5</ele>
        <time>2020-06-03T14:03:40Z</time>
      </trkpt>
      <trkpt lat="46.52091" lon="-1.79967">
        <ele>5</ele>
        <time>2020-06-03T14:03:41Z</time>
      </trkpt>
      <trkpt lat="46.52092" lon="-1.79972">
        <ele>5</ele>
        <time>2020-06-03T14:03:42Z</time>
      </trkpt>
      <trkpt lat="46.52094" lon="-1.79976">
        <ele>5</ele>
        <time>2020-06-03T14:03:43Z</time>
      </trkpt>
      <trkpt lat="46.52095" lon="-1.79981">
        <ele>4.9</ele>
        <time>2020-06-03T14:03:44Z</time>
      </trkpt>
      <trkpt lat="46.52095" lon="-1.79986">
        <ele>4.9</ele>
        <time>2020-06-03T14:03:45Z</time>
      </trkpt>
      <trkpt lat="46.52095" lon="-1.7999">
        <ele>4.9</ele>
        <time>2020-06-03T14:03:46Z</time>
      </trkpt>
      <trkpt lat="46.52096" lon="-1.79996">
        <ele>4.9</ele>
        <time>2020-06-03T14:03:47Z</time>
      </trkpt>
      <trkpt lat="46.52097" lon="-1.79998">
        <ele>4.9</ele>
        <time>2020-06-03T14:03:48Z</time>
      </trkpt>
      <trkpt lat="46.52098" lon="-1.80002">
        <ele>4.9</ele>
        <time>2020-06-03T14:03:49Z</time>
      </trkpt>
      <trkpt lat="46.52099" lon="-1.80006">
        <ele>4.9</ele>
        <time>2020-06-03T14:03:50Z</time>
      </trkpt>
      <trkpt lat="46.52101" lon="-1.80011">
        <ele>4.9</ele>
        <time>2020-06-03T14:03:51Z</time>
      </trkpt>
      <trkpt lat="46.52102" lon="-1.80016">
        <ele>4.8</ele>
        <time>2020-06-03T14:03:52Z</time>
      </trkpt>
      <trkpt lat="46.52105" lon="-1.80021">
        <ele>4.8</ele>
        <time>2020-06-03T14:03:53Z</time>
      </trkpt>
      <trkpt lat="46.52107" lon="-1.80024">
        <ele>4.8</ele>
        <time>2020-06-03T14:03:54Z</time>
      </trkpt>
      <trkpt lat="46.52108" lon="-1.8003">
        <ele>4.8</ele>
        <time>2020-06-03T14:03:55Z</time>
      </trkpt>
      <trkpt lat="46.5211" lon="-1.80034">
        <ele>4.7</ele>
        <time>2020-06-03T14:03:56Z</time>
      </trkpt>
      <trkpt lat="46.52112" lon="-1.80038">
        <ele>4.7</ele>
        <time>2020-06-03T14:03:57Z</time>
      </trkpt>
      <trkpt lat="46.52114" lon="-1.80043">
        <ele>4.7</ele>
        <time>2020-06-03T14:03:58Z</time>
      </trkpt>
      <trkpt lat="46.52116" lon="-1.80048">
        <ele>4.7</ele>
        <time>2020-06-03T14:03:59Z</time>
      </trkpt>
      <trkpt lat="46.52118" lon="-1.80053">
        <ele>4.7</ele>
        <time>2020-06-03T14:04:00Z</time>
      </trkpt>
      <trkpt lat="46.5212" lon="-1.80059">
        <ele>4.6</ele>
        <time>2020-06-03T14:04:01Z</time>
      </trkpt>
      <trkpt lat="46.52121" lon="-1.80063">
        <ele>4.6</ele>
        <time>2020-06-03T14:04:02Z</time>
      </trkpt>
      <trkpt lat="46.52123" lon="-1.80068">
        <ele>4.6</ele>
        <time>2020-06-03T14:04:03Z</time>
      </trkpt>
      <trkpt lat="46.52126" lon="-1.80072">
        <ele>4.5</ele>
        <time>2020-06-03T14:04:04Z</time>
      </trkpt>
      <trkpt lat="46.52128" lon="-1.80077">
        <ele>4.5</ele>
        <time>2020-06-03T14:04:05Z</time>
      </trkpt>
      <trkpt lat="46.52131" lon="-1.80081">
        <ele>4.5</ele>
        <time>2020-06-03T14:04:06Z</time>
      </trkpt>
      <trkpt lat="46.52134" lon="-1.80086">
        <ele>4.4</ele>
        <time>2020-06-03T14:04:07Z</time>
      </trkpt>
      <trkpt lat="46.52137" lon="-1.80091">
        <ele>4.4</ele>
        <time>2020-06-03T14:04:08Z</time>
      </trkpt>
      <trkpt lat="46.52141" lon="-1.80096">
        <ele>4.4</ele>
        <time>2020-06-03T14:04:09Z</time>
      </trkpt>
      <trkpt lat="46.52144" lon="-1.80102">
        <ele>4.3</ele>
        <time>2020-06-03T14:04:10Z</time>
      </trkpt>
      <trkpt lat="46.52147" lon="-1.80107">
        <ele>4.3</ele>
        <time>2020-06-03T14:04:11Z</time>
      </trkpt>
      <trkpt lat="46.52149" lon="-1.80111">
        <ele>4.3</ele>
        <time>2020-06-03T14:04:12Z</time>
      </trkpt>
      <trkpt lat="46.52152" lon="-1.80116">
        <ele>4.3</ele>
        <time>2020-06-03T14:04:13Z</time>
      </trkpt>
      <trkpt lat="46.52156" lon="-1.8012">
        <ele>4.3</ele>
        <time>2020-06-03T14:04:14Z</time>
      </trkpt>
      <trkpt lat="46.52161" lon="-1.80118">
        <ele>4.3</ele>
        <time>2020-06-03T14:04:15Z</time>
      </trkpt>
      <trkpt lat="46.52165" lon="-1.80122">
        <ele>4.3</ele>
        <time>2020-06-03T14:04:16Z</time>
      </trkpt>
      <trkpt lat="46.52169" lon="-1.80127">
        <ele>4.3</ele>
        <time>2020-06-03T14:04:17Z</time>
      </trkpt>
      <trkpt lat="46.52171" lon="-1.80132">
        <ele>4.3</ele>
        <time>2020-06-03T14:04:18Z</time>
      </trkpt>
      <trkpt lat="46.52174" lon="-1.80137">
        <ele>4.3</ele>
        <time>2020-06-03T14:04:19Z</time>
      </trkpt>
      <trkpt lat="46.52177" lon="-1.80143">
        <ele>4.3</ele>
        <time>2020-06-03T14:04:20Z</time>
      </trkpt>
      <trkpt lat="46.5218" lon="-1.80149">
        <ele>4.3</ele>
        <time>2020-06-03T14:04:21Z</time>
      </trkpt>
      <trkpt lat="46.52182" lon="-1.80155">
        <ele>4.3</ele>
        <time>2020-06-03T14:04:22Z</time>
      </trkpt>
      <trkpt lat="46.52183" lon="-1.80165">
        <ele>4.3</ele>
        <time>2020-06-03T14:04:23Z</time>
      </trkpt>
      <trkpt lat="46.52185" lon="-1.8017">
        <ele>4.3</ele>
        <time>2020-06-03T14:04:24Z</time>
      </trkpt>
      <trkpt lat="46.52187" lon="-1.80177">
        <ele>4.3</ele>
        <time>2020-06-03T14:04:25Z</time>
      </trkpt>
      <trkpt lat="46.52188" lon="-1.80185">
        <ele>4.3</ele>
        <time>2020-06-03T14:04:26Z</time>
      </trkpt>
      <trkpt lat="46.5219" lon="-1.80193">
        <ele>4.3</ele>
        <time>2020-06-03T14:04:27Z</time>
      </trkpt>
      <trkpt lat="46.52191" lon="-1.80199">
        <ele>4.3</ele>
        <time>2020-06-03T14:04:28Z</time>
      </trkpt>
      <trkpt lat="46.52193" lon="-1.80205">
        <ele>4.3</ele>
        <time>2020-06-03T14:04:29Z</time>
      </trkpt>
      <trkpt lat="46.52195" lon="-1.80211">
        <ele>4.3</ele>
        <time>2020-06-03T14:04:30Z</time>
      </trkpt>
      <trkpt lat="46.52197" lon="-1.80218">
        <ele>4.2</ele>
        <time>2020-06-03T14:04:31Z</time>
      </trkpt>
      <trkpt lat="46.52199" lon="-1.80224">
        <ele>4.2</ele>
        <time>2020-06-03T14:04:32Z</time>
      </trkpt>
      <trkpt lat="46.522" lon="-1.80231">
        <ele>4.2</ele>
        <time>2020-06-03T14:04:33Z</time>
      </trkpt>
      <trkpt lat="46.52201" lon="-1.80237">
        <ele>4.2</ele>
        <time>2020-06-03T14:04:34Z</time>
      </trkpt>
      <trkpt lat="46.52202" lon="-1.80244">
        <ele>4.1</ele>
        <time>2020-06-03T14:04:35Z</time>
      </trkpt>
      <trkpt lat="46.52204" lon="-1.80253">
        <ele>4.1</ele>
        <time>2020-06-03T14:04:36Z</time>
      </trkpt>
      <trkpt lat="46.52205" lon="-1.80261">
        <ele>4.1</ele>
        <time>2020-06-03T14:04:37Z</time>
      </trkpt>
      <trkpt lat="46.52207" lon="-1.80269">
        <ele>4</ele>
        <time>2020-06-03T14:04:38Z</time>
      </trkpt>
      <trkpt lat="46.52208" lon="-1.80278">
        <ele>4</ele>
        <time>2020-06-03T14:04:39Z</time>
      </trkpt>
      <trkpt lat="46.52208" lon="-1.80286">
        <ele>3.9</ele>
        <time>2020-06-03T14:04:40Z</time>
      </trkpt>
      <trkpt lat="46.52208" lon="-1.80294">
        <ele>3.9</ele>
        <time>2020-06-03T14:04:41Z</time>
      </trkpt>
      <trkpt lat="46.52209" lon="-1.80302">
        <ele>3.9</ele>
        <time>2020-06-03T14:04:42Z</time>
      </trkpt>
      <trkpt lat="46.52208" lon="-1.80309">
        <ele>3.9</ele>
        <time>2020-06-03T14:04:43Z</time>
      </trkpt>
      <trkpt lat="46.52208" lon="-1.80316">
        <ele>3.8</ele>
        <time>2020-06-03T14:04:44Z</time>
      </trkpt>
      <trkpt lat="46.52208" lon="-1.80323">
        <ele>3.8</ele>
        <time>2020-06-03T14:04:45Z</time>
      </trkpt>
      <trkpt lat="46.52208" lon="-1.8033">
        <ele>3.7</ele>
        <time>2020-06-03T14:04:46Z</time>
      </trkpt>
      <trkpt lat="46.52208" lon="-1.80337">
        <ele>3.7</ele>
        <time>2020-06-03T14:04:47Z</time>
      </trkpt>
      <trkpt lat="46.52207" lon="-1.80344">
        <ele>3.6</ele>
        <time>2020-06-03T14:04:48Z</time>
      </trkpt>
      <trkpt lat="46.52207" lon="-1.80351">
        <ele>3.6</ele>
        <time>2020-06-03T14:04:49Z</time>
      </trkpt>
      <trkpt lat="46.52207" lon="-1.80358">
        <ele>3.5</ele>
        <time>2020-06-03T14:04:50Z</time>
      </trkpt>
      <trkpt lat="46.52207" lon="-1.80365">
        <ele>3.4</ele>
        <time>2020-06-03T14:04:51Z</time>
      </trkpt>
      <trkpt lat="46.52206" lon="-1.80372">
        <ele>3.4</ele>
        <time>2020-06-03T14:04:52Z</time>
      </trkpt>
      <trkpt lat="46.52207" lon="-1.80377">
        <ele>3.3</ele>
        <time>2020-06-03T14:04:53Z</time>
      </trkpt>
      <trkpt lat="46.52207" lon="-1.80382">
        <ele>3.3</ele>
        <time>2020-06-03T14:04:54Z</time>
      </trkpt>
      <trkpt lat="46.52207" lon="-1.80388">
        <ele>3.3</ele>
        <time>2020-06-03T14:04:55Z</time>
      </trkpt>
      <trkpt lat="46.52206" lon="-1.80392">
        <ele>3.2</ele>
        <time>2020-06-03T14:04:56Z</time>
      </trkpt>
      <trkpt lat="46.52205" lon="-1.80397">
        <ele>3.2</ele>
        <time>2020-06-03T14:04:57Z</time>
      </trkpt>
      <trkpt lat="46.52205" lon="-1.80403">
        <ele>3.2</ele>
        <time>2020-06-03T14:04:58Z</time>
      </trkpt>
      <trkpt lat="46.52205" lon="-1.80409">
        <ele>3.2</ele>
        <time>2020-06-03T14:04:59Z</time>
      </trkpt>
      <trkpt lat="46.52204" lon="-1.80415">
        <ele>3.2</ele>
        <time>2020-06-03T14:05:00Z</time>
      </trkpt>
      <trkpt lat="46.52204" lon="-1.8042">
        <ele>3.2</ele>
        <time>2020-06-03T14:05:01Z</time>
      </trkpt>
      <trkpt lat="46.52205" lon="-1.80425">
        <ele>3.2</ele>
        <time>2020-06-03T14:05:02Z</time>
      </trkpt>
      <trkpt lat="46.52205" lon="-1.80431">
        <ele>3.2</ele>
        <time>2020-06-03T14:05:03Z</time>
      </trkpt>
      <trkpt lat="46.52207" lon="-1.80435">
        <ele>3.2</ele>
        <time>2020-06-03T14:05:04Z</time>
      </trkpt>
      <trkpt lat="46.5221" lon="-1.80439">
        <ele>3.1</ele>
        <time>2020-06-03T14:05:05Z</time>
      </trkpt>
      <trkpt lat="46.52211" lon="-1.80444">
        <ele>3.1</ele>
        <time>2020-06-03T14:05:06Z</time>
      </trkpt>
      <trkpt lat="46.52213" lon="-1.80449">
        <ele>3.1</ele>
        <time>2020-06-03T14:05:07Z</time>
      </trkpt>
      <trkpt lat="46.52214" lon="-1.80455">
        <ele>3.1</ele>
        <time>2020-06-03T14:05:08Z</time>
      </trkpt>
      <trkpt lat="46.52215" lon="-1.8046">
        <ele>3.1</ele>
        <time>2020-06-03T14:05:09Z</time>
      </trkpt>
      <trkpt lat="46.52216" lon="-1.80466">
        <ele>3.1</ele>
        <time>2020-06-03T14:05:10Z</time>
      </trkpt>
      <trkpt lat="46.52217" lon="-1.80473">
        <ele>3.1</ele>
        <time>2020-06-03T14:05:11Z</time>
      </trkpt>
      <trkpt lat="46.52218" lon="-1.80479">
        <ele>3.1</ele>
        <time>2020-06-03T14:05:12Z</time>
      </trkpt>
      <trkpt lat="46.52219" lon="-1.80485">
        <ele>3.1</ele>
        <time>2020-06-03T14:05:13Z</time>
      </trkpt>
      <trkpt lat="46.52219" lon="-1.80492">
        <ele>3.1</ele>
        <time>2020-06-03T14:05:14Z</time>
      </trkpt>
      <trkpt lat="46.52218" lon="-1.80499">
        <ele>3.1</ele>
        <time>2020-06-03T14:05:15Z</time>
      </trkpt>
      <trkpt lat="46.52218" lon="-1.80505">
        <ele>3.1</ele>
        <time>2020-06-03T14:05:16Z</time>
      </trkpt>
      <trkpt lat="46.52218" lon="-1.80512">
        <ele>3.1</ele>
        <time>2020-06-03T14:05:17Z</time>
      </trkpt>
      <trkpt lat="46.52218" lon="-1.80519">
        <ele>3.1</ele>
        <time>2020-06-03T14:05:18Z</time>
      </trkpt>
      <trkpt lat="46.52219" lon="-1.80527">
        <ele>3.1</ele>
        <time>2020-06-03T14:05:19Z</time>
      </trkpt>
      <trkpt lat="46.5222" lon="-1.80534">
        <ele>3.1</ele>
        <time>2020-06-03T14:05:20Z</time>
      </trkpt>
      <trkpt lat="46.5222" lon="-1.80541">
        <ele>3</ele>
        <time>2020-06-03T14:05:21Z</time>
      </trkpt>
      <trkpt lat="46.52221" lon="-1.80548">
        <ele>3</ele>
        <time>2020-06-03T14:05:22Z</time>
      </trkpt>
      <trkpt lat="46.52224" lon="-1.80554">
        <ele>3</ele>
        <time>2020-06-03T14:05:23Z</time>
      </trkpt>
      <trkpt lat="46.52228" lon="-1.80558">
        <ele>3</ele>
        <time>2020-06-03T14:05:24Z</time>
      </trkpt>
      <trkpt lat="46.52232" lon="-1.80562">
        <ele>3</ele>
        <time>2020-06-03T14:05:25Z</time>
      </trkpt>
      <trkpt lat="46.52235" lon="-1.80566">
        <ele>3</ele>
        <time>2020-06-03T14:05:26Z</time>
      </trkpt>
      <trkpt lat="46.52239" lon="-1.8057">
        <ele>3</ele>
        <time>2020-06-03T14:05:27Z</time>
      </trkpt>
      <trkpt lat="46.52243" lon="-1.80574">
        <ele>3</ele>
        <time>2020-06-03T14:05:28Z</time>
      </trkpt>
      <trkpt lat="46.52247" lon="-1.80579">
        <ele>2.9</ele>
        <time>2020-06-03T14:05:29Z</time>
      </trkpt>
      <trkpt lat="46.52251" lon="-1.80583">
        <ele>2.9</ele>
        <time>2020-06-03T14:05:30Z</time>
      </trkpt>
      <trkpt lat="46.52255" lon="-1.80586">
        <ele>2.9</ele>
        <time>2020-06-03T14:05:31Z</time>
      </trkpt>
      <trkpt lat="46.52259" lon="-1.8059">
        <ele>2.9</ele>
        <time>2020-06-03T14:05:32Z</time>
      </trkpt>
      <trkpt lat="46.52263" lon="-1.80595">
        <ele>2.9</ele>
        <time>2020-06-03T14:05:33Z</time>
      </trkpt>
      <trkpt lat="46.52267" lon="-1.80599">
        <ele>2.9</ele>
        <time>2020-06-03T14:05:34Z</time>
      </trkpt>
      <trkpt lat="46.52272" lon="-1.80602">
        <ele>2.8</ele>
        <time>2020-06-03T14:05:35Z</time>
      </trkpt>
      <trkpt lat="46.52277" lon="-1.80605">
        <ele>2.8</ele>
        <time>2020-06-03T14:05:36Z</time>
      </trkpt>
      <trkpt lat="46.52282" lon="-1.80608">
        <ele>2.8</ele>
        <time>2020-06-03T14:05:37Z</time>
      </trkpt>
      <trkpt lat="46.52286" lon="-1.80611">
        <ele>2.8</ele>
        <time>2020-06-03T14:05:38Z</time>
      </trkpt>
      <trkpt lat="46.52291" lon="-1.80615">
        <ele>2.8</ele>
        <time>2020-06-03T14:05:39Z</time>
      </trkpt>
      <trkpt lat="46.52296" lon="-1.80618">
        <ele>2.8</ele>
        <time>2020-06-03T14:05:40Z</time>
      </trkpt>
      <trkpt lat="46.523" lon="-1.8062">
        <ele>2.8</ele>
        <time>2020-06-03T14:05:41Z</time>
      </trkpt>
      <trkpt lat="46.52304" lon="-1.80623">
        <ele>2.8</ele>
        <time>2020-06-03T14:05:42Z</time>
      </trkpt>
      <trkpt lat="46.52308" lon="-1.80625">
        <ele>2.8</ele>
        <time>2020-06-03T14:05:43Z</time>
      </trkpt>
      <trkpt lat="46.52313" lon="-1.80626">
        <ele>2.8</ele>
        <time>2020-06-03T14:05:44Z</time>
      </trkpt>
      <trkpt lat="46.52317" lon="-1.80628">
        <ele>2.8</ele>
        <time>2020-06-03T14:05:45Z</time>
      </trkpt>
      <trkpt lat="46.52322" lon="-1.80631">
        <ele>2.8</ele>
        <time>2020-06-03T14:05:46Z</time>
      </trkpt>
      <trkpt lat="46.52326" lon="-1.80634">
        <ele>2.8</ele>
        <time>2020-06-03T14:05:47Z</time>
      </trkpt>
      <trkpt lat="46.52331" lon="-1.80635">
        <ele>2.8</ele>
        <time>2020-06-03T14:05:48Z</time>
      </trkpt>
      <trkpt lat="46.52335" lon="-1.80638">
        <ele>2.8</ele>
        <time>2020-06-03T14:05:49Z</time>
      </trkpt>
      <trkpt lat="46.52339" lon="-1.80641">
        <ele>2.8</ele>
        <time>2020-06-03T14:05:50Z</time>
      </trkpt>
      <trkpt lat="46.52344" lon="-1.80643">
        <ele>2.7</ele>
        <time>2020-06-03T14:05:51Z</time>
      </trkpt>
      <trkpt lat="46.52348" lon="-1.80646">
        <ele>2.7</ele>
        <time>2020-06-03T14:05:52Z</time>
      </trkpt>
      <trkpt lat="46.52352" lon="-1.8065">
        <ele>2.7</ele>
        <time>2020-06-03T14:05:53Z</time>
      </trkpt>
      <trkpt lat="46.52356" lon="-1.80654">
        <ele>2.7</ele>
        <time>2020-06-03T14:05:54Z</time>
      </trkpt>
      <trkpt lat="46.5236" lon="-1.80656">
        <ele>2.7</ele>
        <time>2020-06-03T14:05:55Z</time>
      </trkpt>
      <trkpt lat="46.52364" lon="-1.8066">
        <ele>2.7</ele>
        <time>2020-06-03T14:05:56Z</time>
      </trkpt>
      <trkpt lat="46.52368" lon="-1.80664">
        <ele>2.7</ele>
        <time>2020-06-03T14:05:57Z</time>
      </trkpt>
      <trkpt lat="46.52372" lon="-1.80668">
        <ele>2.7</ele>
        <time>2020-06-03T14:05:58Z</time>
      </trkpt>
      <trkpt lat="46.52376" lon="-1.80672">
        <ele>2.7</ele>
        <time>2020-06-03T14:05:59Z</time>
      </trkpt>
      <trkpt lat="46.52379" lon="-1.80676">
        <ele>2.7</ele>
        <time>2020-06-03T14:06:00Z</time>
      </trkpt>
      <trkpt lat="46.52383" lon="-1.80679">
        <ele>2.7</ele>
        <time>2020-06-03T14:06:01Z</time>
      </trkpt>
      <trkpt lat="46.52386" lon="-1.80684">
        <ele>2.7</ele>
        <time>2020-06-03T14:06:02Z</time>
      </trkpt>
      <trkpt lat="46.52389" lon="-1.80689">
        <ele>2.7</ele>
        <time>2020-06-03T14:06:03Z</time>
      </trkpt>
      <trkpt lat="46.52392" lon="-1.80693">
        <ele>2.7</ele>
        <time>2020-06-03T14:06:04Z</time>
      </trkpt>
      <trkpt lat="46.52395" lon="-1.80698">
        <ele>2.7</ele>
        <time>2020-06-03T14:06:05Z</time>
      </trkpt>
      <trkpt lat="46.52398" lon="-1.80702">
        <ele>2.8</ele>
        <time>2020-06-03T14:06:06Z</time>
      </trkpt>
      <trkpt lat="46.52401" lon="-1.80706">
        <ele>2.8</ele>
        <time>2020-06-03T14:06:07Z</time>
      </trkpt>
      <trkpt lat="46.52405" lon="-1.80711">
        <ele>2.9</ele>
        <time>2020-06-03T14:06:08Z</time>
      </trkpt>
      <trkpt lat="46.52409" lon="-1.80715">
        <ele>2.9</ele>
        <time>2020-06-03T14:06:09Z</time>
      </trkpt>
      <trkpt lat="46.52412" lon="-1.8072">
        <ele>3</ele>
        <time>2020-06-03T14:06:10Z</time>
      </trkpt>
      <trkpt lat="46.52416" lon="-1.80725">
        <ele>3</ele>
        <time>2020-06-03T14:06:11Z</time>
      </trkpt>
      <trkpt lat="46.5242" lon="-1.80729">
        <ele>3.1</ele>
        <time>2020-06-03T14:06:12Z</time>
      </trkpt>
      <trkpt lat="46.52423" lon="-1.80733">
        <ele>3.1</ele>
        <time>2020-06-03T14:06:13Z</time>
      </trkpt>
      <trkpt lat="46.52427" lon="-1.80736">
        <ele>3.2</ele>
        <time>2020-06-03T14:06:14Z</time>
      </trkpt>
      <trkpt lat="46.5243" lon="-1.8074">
        <ele>3.2</ele>
        <time>2020-06-03T14:06:15Z</time>
      </trkpt>
      <trkpt lat="46.52432" lon="-1.80743">
        <ele>3.2</ele>
        <time>2020-06-03T14:06:16Z</time>
      </trkpt>
      <trkpt lat="46.52435" lon="-1.80748">
        <ele>3.3</ele>
        <time>2020-06-03T14:06:17Z</time>
      </trkpt>
      <trkpt lat="46.52438" lon="-1.80753">
        <ele>3.3</ele>
        <time>2020-06-03T14:06:18Z</time>
      </trkpt>
      <trkpt lat="46.52439" lon="-1.80759">
        <ele>3.4</ele>
        <time>2020-06-03T14:06:19Z</time>
      </trkpt>
      <trkpt lat="46.52441" lon="-1.80764">
        <ele>3.4</ele>
        <time>2020-06-03T14:06:20Z</time>
      </trkpt>
      <trkpt lat="46.52441" lon="-1.8077">
        <ele>3.4</ele>
        <time>2020-06-03T14:06:21Z</time>
      </trkpt>
      <trkpt lat="46.52441" lon="-1.80776">
        <ele>3.4</ele>
        <time>2020-06-03T14:06:22Z</time>
      </trkpt>
      <trkpt lat="46.52441" lon="-1.80783">
        <ele>3.5</ele>
        <time>2020-06-03T14:06:23Z</time>
      </trkpt>
      <trkpt lat="46.5244" lon="-1.80789">
        <ele>3.5</ele>
        <time>2020-06-03T14:06:24Z</time>
      </trkpt>
      <trkpt lat="46.5244" lon="-1.80794">
        <ele>3.6</ele>
        <time>2020-06-03T14:06:25Z</time>
      </trkpt>
      <trkpt lat="46.52439" lon="-1.808">
        <ele>3.6</ele>
        <time>2020-06-03T14:06:26Z</time>
      </trkpt>
      <trkpt lat="46.52438" lon="-1.80807">
        <ele>3.7</ele>
        <time>2020-06-03T14:06:27Z</time>
      </trkpt>
      <trkpt lat="46.52438" lon="-1.80813">
        <ele>3.8</ele>
        <time>2020-06-03T14:06:28Z</time>
      </trkpt>
      <trkpt lat="46.52437" lon="-1.80818">
        <ele>3.8</ele>
        <time>2020-06-03T14:06:29Z</time>
      </trkpt>
      <trkpt lat="46.52437" lon="-1.80824">
        <ele>3.9</ele>
        <time>2020-06-03T14:06:30Z</time>
      </trkpt>
      <trkpt lat="46.52436" lon="-1.80829">
        <ele>3.9</ele>
        <time>2020-06-03T14:06:31Z</time>
      </trkpt>
      <trkpt lat="46.52434" lon="-1.80835">
        <ele>4</ele>
        <time>2020-06-03T14:06:32Z</time>
      </trkpt>
      <trkpt lat="46.52432" lon="-1.80841">
        <ele>4.1</ele>
        <time>2020-06-03T14:06:33Z</time>
      </trkpt>
      <trkpt lat="46.52431" lon="-1.80847">
        <ele>4.1</ele>
        <time>2020-06-03T14:06:34Z</time>
      </trkpt>
      <trkpt lat="46.5243" lon="-1.80854">
        <ele>4.1</ele>
        <time>2020-06-03T14:06:35Z</time>
      </trkpt>
      <trkpt lat="46.52429" lon="-1.80861">
        <ele>4.1</ele>
        <time>2020-06-03T14:06:36Z</time>
      </trkpt>
      <trkpt lat="46.52428" lon="-1.80868">
        <ele>4.1</ele>
        <time>2020-06-03T14:06:37Z</time>
      </trkpt>
      <trkpt lat="46.52428" lon="-1.80874">
        <ele>4.1</ele>
        <time>2020-06-03T14:06:38Z</time>
      </trkpt>
      <trkpt lat="46.52428" lon="-1.80881">
        <ele>4.1</ele>
        <time>2020-06-03T14:06:39Z</time>
      </trkpt>
      <trkpt lat="46.52428" lon="-1.80888">
        <ele>4.2</ele>
        <time>2020-06-03T14:06:40Z</time>
      </trkpt>
      <trkpt lat="46.52429" lon="-1.80895">
        <ele>4.2</ele>
        <time>2020-06-03T14:06:41Z</time>
      </trkpt>
      <trkpt lat="46.52428" lon="-1.80901">
        <ele>4.2</ele>
        <time>2020-06-03T14:06:42Z</time>
      </trkpt>
      <trkpt lat="46.52428" lon="-1.80908">
        <ele>4.3</ele>
        <time>2020-06-03T14:06:43Z</time>
      </trkpt>
      <trkpt lat="46.52428" lon="-1.80915">
        <ele>4.3</ele>
        <time>2020-06-03T14:06:44Z</time>
      </trkpt>
      <trkpt lat="46.52428" lon="-1.80921">
        <ele>4.3</ele>
        <time>2020-06-03T14:06:45Z</time>
      </trkpt>
      <trkpt lat="46.52427" lon="-1.80927">
        <ele>4.4</ele>
        <time>2020-06-03T14:06:46Z</time>
      </trkpt>
      <trkpt lat="46.52427" lon="-1.80933">
        <ele>4.4</ele>
        <time>2020-06-03T14:06:47Z</time>
      </trkpt>
      <trkpt lat="46.52426" lon="-1.8094">
        <ele>4.4</ele>
        <time>2020-06-03T14:06:48Z</time>
      </trkpt>
      <trkpt lat="46.52425" lon="-1.80947">
        <ele>4.4</ele>
        <time>2020-06-03T14:06:49Z</time>
      </trkpt>
      <trkpt lat="46.52424" lon="-1.80954">
        <ele>4.4</ele>
        <time>2020-06-03T14:06:50Z</time>
      </trkpt>
      <trkpt lat="46.52424" lon="-1.8096">
        <ele>4.4</ele>
        <time>2020-06-03T14:06:51Z</time>
      </trkpt>
      <trkpt lat="46.52423" lon="-1.80965">
        <ele>4.5</ele>
        <time>2020-06-03T14:06:52Z</time>
      </trkpt>
      <trkpt lat="46.52423" lon="-1.8097">
        <ele>4.5</ele>
        <time>2020-06-03T14:06:53Z</time>
      </trkpt>
      <trkpt lat="46.52423" lon="-1.80976">
        <ele>4.5</ele>
        <time>2020-06-03T14:06:54Z</time>
      </trkpt>
      <trkpt lat="46.52423" lon="-1.80981">
        <ele>4.5</ele>
        <time>2020-06-03T14:06:55Z</time>
      </trkpt>
      <trkpt lat="46.52422" lon="-1.80987">
        <ele>4.5</ele>
        <time>2020-06-03T14:06:56Z</time>
      </trkpt>
      <trkpt lat="46.52421" lon="-1.80993">
        <ele>4.6</ele>
        <time>2020-06-03T14:06:57Z</time>
      </trkpt>
      <trkpt lat="46.5242" lon="-1.80997">
        <ele>4.6</ele>
        <time>2020-06-03T14:06:58Z</time>
      </trkpt>
      <trkpt lat="46.52421" lon="-1.80999">
        <ele>4.6</ele>
        <time>2020-06-03T14:06:59Z</time>
      </trkpt>
      <trkpt lat="46.52422" lon="-1.81">
        <ele>4.6</ele>
        <time>2020-06-03T14:07:00Z</time>
      </trkpt>
      <trkpt lat="46.52424" lon="-1.81">
        <ele>4.6</ele>
        <time>2020-06-03T14:07:01Z</time>
      </trkpt>
      <trkpt lat="46.52424" lon="-1.80998">
        <ele>4.6</ele>
        <time>2020-06-03T14:07:02Z</time>
      </trkpt>
      <trkpt lat="46.52425" lon="-1.80997">
        <ele>4.6</ele>
        <time>2020-06-03T14:07:03Z</time>
      </trkpt>
      <trkpt lat="46.52426" lon="-1.80996">
        <ele>4.6</ele>
        <time>2020-06-03T14:07:04Z</time>
      </trkpt>
      <trkpt lat="46.52425" lon="-1.80997">
        <ele>4.5</ele>
        <time>2020-06-03T14:07:05Z</time>
      </trkpt>
      <trkpt lat="46.52425" lon="-1.80997">
        <ele>4.5</ele>
        <time>2020-06-03T14:07:06Z</time>
      </trkpt>
      <trkpt lat="46.52425" lon="-1.80997">
        <ele>4.5</ele>
        <time>2020-06-03T14:07:07Z</time>
      </trkpt>
      <trkpt lat="46.52425" lon="-1.80997">
        <ele>4.5</ele>
        <time>2020-06-03T14:07:08Z</time>
      </trkpt>
      <trkpt lat="46.52425" lon="-1.80997">
        <ele>4.5</ele>
        <time>2020-06-03T14:07:09Z</time>
      </trkpt>
      <trkpt lat="46.52425" lon="-1.80997">
        <ele>4.5</ele>
        <time>2020-06-03T14:07:10Z</time>
      </trkpt>
      <trkpt lat="46.52425" lon="-1.80997">
        <ele>4.5</ele>
        <time>2020-06-03T14:07:11Z</time>
      </trkpt>
      <trkpt lat="46.52426" lon="-1.81002">
        <ele>4.5</ele>
        <time>2020-06-03T14:07:16Z</time>
      </trkpt>
      <trkpt lat="46.52426" lon="-1.81002">
        <ele>4.5</ele>
        <time>2020-06-03T14:07:17Z</time>
      </trkpt>
      <trkpt lat="46.52427" lon="-1.81002">
        <ele>4.5</ele>
        <time>2020-06-03T14:07:18Z</time>
      </trkpt>
      <trkpt lat="46.52429" lon="-1.80999">
        <ele>4.5</ele>
        <time>2020-06-03T14:07:19Z</time>
      </trkpt>
      <trkpt lat="46.5243" lon="-1.80998">
        <ele>4.5</ele>
        <time>2020-06-03T14:07:20Z</time>
      </trkpt>
      <trkpt lat="46.52431" lon="-1.80991">
        <ele>4.5</ele>
        <time>2020-06-03T14:07:21Z</time>
      </trkpt>
      <trkpt lat="46.52431" lon="-1.80989">
        <ele>4.5</ele>
        <time>2020-06-03T14:07:22Z</time>
      </trkpt>
      <trkpt lat="46.52432" lon="-1.80983">
        <ele>4.5</ele>
        <time>2020-06-03T14:07:23Z</time>
      </trkpt>
      <trkpt lat="46.52433" lon="-1.80978">
        <ele>4.4</ele>
        <time>2020-06-03T14:07:24Z</time>
      </trkpt>
      <trkpt lat="46.52433" lon="-1.80972">
        <ele>4.4</ele>
        <time>2020-06-03T14:07:25Z</time>
      </trkpt>
      <trkpt lat="46.52433" lon="-1.80967">
        <ele>4.4</ele>
        <time>2020-06-03T14:07:26Z</time>
      </trkpt>
      <trkpt lat="46.52433" lon="-1.80963">
        <ele>4.4</ele>
        <time>2020-06-03T14:07:27Z</time>
      </trkpt>
      <trkpt lat="46.52433" lon="-1.80957">
        <ele>4.4</ele>
        <time>2020-06-03T14:07:28Z</time>
      </trkpt>
      <trkpt lat="46.52433" lon="-1.80951">
        <ele>4.4</ele>
        <time>2020-06-03T14:07:29Z</time>
      </trkpt>
      <trkpt lat="46.52433" lon="-1.80946">
        <ele>4.4</ele>
        <time>2020-06-03T14:07:30Z</time>
      </trkpt>
      <trkpt lat="46.52433" lon="-1.80941">
        <ele>4.4</ele>
        <time>2020-06-03T14:07:31Z</time>
      </trkpt>
      <trkpt lat="46.52433" lon="-1.80936">
        <ele>4.4</ele>
        <time>2020-06-03T14:07:32Z</time>
      </trkpt>
      <trkpt lat="46.52434" lon="-1.80931">
        <ele>4.4</ele>
        <time>2020-06-03T14:07:33Z</time>
      </trkpt>
      <trkpt lat="46.52433" lon="-1.80925">
        <ele>4.3</ele>
        <time>2020-06-03T14:07:34Z</time>
      </trkpt>
      <trkpt lat="46.52433" lon="-1.8092">
        <ele>4.3</ele>
        <time>2020-06-03T14:07:35Z</time>
      </trkpt>
      <trkpt lat="46.52431" lon="-1.80915">
        <ele>4.3</ele>
        <time>2020-06-03T14:07:36Z</time>
      </trkpt>
      <trkpt lat="46.5243" lon="-1.8091">
        <ele>4.3</ele>
        <time>2020-06-03T14:07:37Z</time>
      </trkpt>
      <trkpt lat="46.5243" lon="-1.80906">
        <ele>4.3</ele>
        <time>2020-06-03T14:07:38Z</time>
      </trkpt>
      <trkpt lat="46.5243" lon="-1.80902">
        <ele>4.2</ele>
        <time>2020-06-03T14:07:39Z</time>
      </trkpt>
      <trkpt lat="46.52431" lon="-1.80897">
        <ele>4.2</ele>
        <time>2020-06-03T14:07:40Z</time>
      </trkpt>
      <trkpt lat="46.5243" lon="-1.80895">
        <ele>4.2</ele>
        <time>2020-06-03T14:07:41Z</time>
      </trkpt>
      <trkpt lat="46.5243" lon="-1.80891">
        <ele>4.2</ele>
        <time>2020-06-03T14:07:42Z</time>
      </trkpt>
      <trkpt lat="46.52431" lon="-1.80887">
        <ele>4.2</ele>
        <time>2020-06-03T14:07:43Z</time>
      </trkpt>
      <trkpt lat="46.52431" lon="-1.80882">
        <ele>4.1</ele>
        <time>2020-06-03T14:07:44Z</time>
      </trkpt>
      <trkpt lat="46.52432" lon="-1.80877">
        <ele>4.1</ele>
        <time>2020-06-03T14:07:45Z</time>
      </trkpt>
      <trkpt lat="46.52432" lon="-1.80875">
        <ele>4.1</ele>
        <time>2020-06-03T14:07:46Z</time>
      </trkpt>
      <trkpt lat="46.52433" lon="-1.80871">
        <ele>4.1</ele>
        <time>2020-06-03T14:07:47Z</time>
      </trkpt>
      <trkpt lat="46.52433" lon="-1.80866">
        <ele>4.1</ele>
        <time>2020-06-03T14:07:48Z</time>
      </trkpt>
      <trkpt lat="46.52433" lon="-1.8086">
        <ele>4.1</ele>
        <time>2020-06-03T14:07:49Z</time>
      </trkpt>
      <trkpt lat="46.52434" lon="-1.80856">
        <ele>4.1</ele>
        <time>2020-06-03T14:07:50Z</time>
      </trkpt>
      <trkpt lat="46.52435" lon="-1.80852">
        <ele>4.1</ele>
        <time>2020-06-03T14:07:51Z</time>
      </trkpt>
      <trkpt lat="46.52435" lon="-1.80847">
        <ele>4.1</ele>
        <time>2020-06-03T14:07:52Z</time>
      </trkpt>
      <trkpt lat="46.52436" lon="-1.80843">
        <ele>4.1</ele>
        <time>2020-06-03T14:07:53Z</time>
      </trkpt>
      <trkpt lat="46.52436" lon="-1.80838">
        <ele>4</ele>
        <time>2020-06-03T14:07:54Z</time>
      </trkpt>
      <trkpt lat="46.52437" lon="-1.80832">
        <ele>4</ele>
        <time>2020-06-03T14:07:55Z</time>
      </trkpt>
      <trkpt lat="46.52438" lon="-1.80826">
        <ele>3.9</ele>
        <time>2020-06-03T14:07:56Z</time>
      </trkpt>
      <trkpt lat="46.52439" lon="-1.8082">
        <ele>3.9</ele>
        <time>2020-06-03T14:07:57Z</time>
      </trkpt>
      <trkpt lat="46.52439" lon="-1.80813">
        <ele>3.8</ele>
        <time>2020-06-03T14:07:58Z</time>
      </trkpt>
      <trkpt lat="46.5244" lon="-1.80807">
        <ele>3.7</ele>
        <time>2020-06-03T14:07:59Z</time>
      </trkpt>
      <trkpt lat="46.5244" lon="-1.80801">
        <ele>3.7</ele>
        <time>2020-06-03T14:08:00Z</time>
      </trkpt>
      <trkpt lat="46.5244" lon="-1.80795">
        <ele>3.6</ele>
        <time>2020-06-03T14:08:01Z</time>
      </trkpt>
      <trkpt lat="46.5244" lon="-1.80789">
        <ele>3.5</ele>
        <time>2020-06-03T14:08:02Z</time>
      </trkpt>
      <trkpt lat="46.5244" lon="-1.80782">
        <ele>3.5</ele>
        <time>2020-06-03T14:08:03Z</time>
      </trkpt>
      <trkpt lat="46.52441" lon="-1.80775">
        <ele>3.5</ele>
        <time>2020-06-03T14:08:04Z</time>
      </trkpt>
      <trkpt lat="46.52441" lon="-1.80769">
        <ele>3.4</ele>
        <time>2020-06-03T14:08:05Z</time>
      </trkpt>
      <trkpt lat="46.52441" lon="-1.80763">
        <ele>3.4</ele>
        <time>2020-06-03T14:08:06Z</time>
      </trkpt>
      <trkpt lat="46.52442" lon="-1.80758">
        <ele>3.4</ele>
        <time>2020-06-03T14:08:07Z</time>
      </trkpt>
      <trkpt lat="46.52444" lon="-1.80753">
        <ele>3.3</ele>
        <time>2020-06-03T14:08:08Z</time>
      </trkpt>
      <trkpt lat="46.52447" lon="-1.8075">
        <ele>3.3</ele>
        <time>2020-06-03T14:08:09Z</time>
      </trkpt>
      <trkpt lat="46.52451" lon="-1.80753">
        <ele>3.2</ele>
        <time>2020-06-03T14:08:10Z</time>
      </trkpt>
      <trkpt lat="46.52456" lon="-1.80756">
        <ele>3.1</ele>
        <time>2020-06-03T14:08:11Z</time>
      </trkpt>
      <trkpt lat="46.52462" lon="-1.80759">
        <ele>3.1</ele>
        <time>2020-06-03T14:08:12Z</time>
      </trkpt>
      <trkpt lat="46.52467" lon="-1.80761">
        <ele>3</ele>
        <time>2020-06-03T14:08:13Z</time>
      </trkpt>
      <trkpt lat="46.52473" lon="-1.80762">
        <ele>3</ele>
        <time>2020-06-03T14:08:14Z</time>
      </trkpt>
      <trkpt lat="46.52479" lon="-1.80764">
        <ele>2.9</ele>
        <time>2020-06-03T14:08:15Z</time>
      </trkpt>
      <trkpt lat="46.52483" lon="-1.80765">
        <ele>2.9</ele>
        <time>2020-06-03T14:08:16Z</time>
      </trkpt>
      <trkpt lat="46.52487" lon="-1.80767">
        <ele>2.9</ele>
        <time>2020-06-03T14:08:17Z</time>
      </trkpt>
      <trkpt lat="46.52492" lon="-1.80769">
        <ele>2.9</ele>
        <time>2020-06-03T14:08:18Z</time>
      </trkpt>
      <trkpt lat="46.52495" lon="-1.8077">
        <ele>2.9</ele>
        <time>2020-06-03T14:08:19Z</time>
      </trkpt>
      <trkpt lat="46.52498" lon="-1.80772">
        <ele>2.9</ele>
        <time>2020-06-03T14:08:20Z</time>
      </trkpt>
      <trkpt lat="46.52502" lon="-1.80773">
        <ele>3</ele>
        <time>2020-06-03T14:08:21Z</time>
      </trkpt>
      <trkpt lat="46.52503" lon="-1.80773">
        <ele>3</ele>
        <time>2020-06-03T14:08:22Z</time>
      </trkpt>
      <trkpt lat="46.52506" lon="-1.80773">
        <ele>3</ele>
        <time>2020-06-03T14:08:23Z</time>
      </trkpt>
      <trkpt lat="46.52507" lon="-1.80772">
        <ele>3</ele>
        <time>2020-06-03T14:08:24Z</time>
      </trkpt>
      <trkpt lat="46.52509" lon="-1.80768">
        <ele>3</ele>
        <time>2020-06-03T14:08:25Z</time>
      </trkpt>
      <trkpt lat="46.52509" lon="-1.80764">
        <ele>3</ele>
        <time>2020-06-03T14:08:26Z</time>
      </trkpt>
      <trkpt lat="46.52509" lon="-1.80759">
        <ele>3</ele>
        <time>2020-06-03T14:08:27Z</time>
      </trkpt>
      <trkpt lat="46.5251" lon="-1.80754">
        <ele>3.1</ele>
        <time>2020-06-03T14:08:28Z</time>
      </trkpt>
      <trkpt lat="46.52511" lon="-1.80749">
        <ele>3.1</ele>
        <time>2020-06-03T14:08:29Z</time>
      </trkpt>
      <trkpt lat="46.52511" lon="-1.80743">
        <ele>3.2</ele>
        <time>2020-06-03T14:08:30Z</time>
      </trkpt>
      <trkpt lat="46.52512" lon="-1.80737">
        <ele>3.2</ele>
        <time>2020-06-03T14:08:31Z</time>
      </trkpt>
      <trkpt lat="46.52512" lon="-1.80731">
        <ele>3.2</ele>
        <time>2020-06-03T14:08:32Z</time>
      </trkpt>
      <trkpt lat="46.52513" lon="-1.80725">
        <ele>3.3</ele>
        <time>2020-06-03T14:08:33Z</time>
      </trkpt>
      <trkpt lat="46.52514" lon="-1.80719">
        <ele>3.3</ele>
        <time>2020-06-03T14:08:34Z</time>
      </trkpt>
      <trkpt lat="46.52515" lon="-1.80713">
        <ele>3.4</ele>
        <time>2020-06-03T14:08:35Z</time>
      </trkpt>
      <trkpt lat="46.52516" lon="-1.80708">
        <ele>3.4</ele>
        <time>2020-06-03T14:08:36Z</time>
      </trkpt>
      <trkpt lat="46.52519" lon="-1.80704">
        <ele>3.4</ele>
        <time>2020-06-03T14:08:37Z</time>
      </trkpt>
      <trkpt lat="46.52522" lon="-1.807">
        <ele>3.5</ele>
        <time>2020-06-03T14:08:38Z</time>
      </trkpt>
      <trkpt lat="46.52526" lon="-1.80697">
        <ele>3.5</ele>
        <time>2020-06-03T14:08:39Z</time>
      </trkpt>
      <trkpt lat="46.52532" lon="-1.80695">
        <ele>3.5</ele>
        <time>2020-06-03T14:08:40Z</time>
      </trkpt>
      <trkpt lat="46.52537" lon="-1.80693">
        <ele>3.6</ele>
        <time>2020-06-03T14:08:41Z</time>
      </trkpt>
      <trkpt lat="46.52542" lon="-1.80691">
        <ele>3.6</ele>
        <time>2020-06-03T14:08:42Z</time>
      </trkpt>
      <trkpt lat="46.52547" lon="-1.8069">
        <ele>3.7</ele>
        <time>2020-06-03T14:08:43Z</time>
      </trkpt>
      <trkpt lat="46.52552" lon="-1.80688">
        <ele>3.7</ele>
        <time>2020-06-03T14:08:44Z</time>
      </trkpt>
      <trkpt lat="46.52556" lon="-1.80687">
        <ele>3.7</ele>
        <time>2020-06-03T14:08:45Z</time>
      </trkpt>
      <trkpt lat="46.52561" lon="-1.80686">
        <ele>3.7</ele>
        <time>2020-06-03T14:08:46Z</time>
      </trkpt>
      <trkpt lat="46.52567" lon="-1.80686">
        <ele>3.7</ele>
        <time>2020-06-03T14:08:47Z</time>
      </trkpt>
      <trkpt lat="46.52572" lon="-1.80685">
        <ele>3.6</ele>
        <time>2020-06-03T14:08:48Z</time>
      </trkpt>
      <trkpt lat="46.52577" lon="-1.80683">
        <ele>3.6</ele>
        <time>2020-06-03T14:08:49Z</time>
      </trkpt>
      <trkpt lat="46.5258" lon="-1.80681">
        <ele>3.6</ele>
        <time>2020-06-03T14:08:50Z</time>
      </trkpt>
      <trkpt lat="46.52585" lon="-1.8068">
        <ele>3.6</ele>
        <time>2020-06-03T14:08:51Z</time>
      </trkpt>
      <trkpt lat="46.52589" lon="-1.80679">
        <ele>3.5</ele>
        <time>2020-06-03T14:08:52Z</time>
      </trkpt>
      <trkpt lat="46.52595" lon="-1.80678">
        <ele>3.5</ele>
        <time>2020-06-03T14:08:53Z</time>
      </trkpt>
      <trkpt lat="46.52601" lon="-1.80678">
        <ele>3.5</ele>
        <time>2020-06-03T14:08:54Z</time>
      </trkpt>
      <trkpt lat="46.52607" lon="-1.80679">
        <ele>3.4</ele>
        <time>2020-06-03T14:08:55Z</time>
      </trkpt>
      <trkpt lat="46.52612" lon="-1.80678">
        <ele>3.4</ele>
        <time>2020-06-03T14:08:56Z</time>
      </trkpt>
      <trkpt lat="46.52618" lon="-1.80678">
        <ele>3.4</ele>
        <time>2020-06-03T14:08:57Z</time>
      </trkpt>
      <trkpt lat="46.52623" lon="-1.80679">
        <ele>3.4</ele>
        <time>2020-06-03T14:08:58Z</time>
      </trkpt>
      <trkpt lat="46.52627" lon="-1.80679">
        <ele>3.4</ele>
        <time>2020-06-03T14:08:59Z</time>
      </trkpt>
      <trkpt lat="46.52632" lon="-1.80679">
        <ele>3.4</ele>
        <time>2020-06-03T14:09:00Z</time>
      </trkpt>
      <trkpt lat="46.52637" lon="-1.8068">
        <ele>3.4</ele>
        <time>2020-06-03T14:09:01Z</time>
      </trkpt>
      <trkpt lat="46.52641" lon="-1.8068">
        <ele>3.4</ele>
        <time>2020-06-03T14:09:02Z</time>
      </trkpt>
      <trkpt lat="46.52646" lon="-1.8068">
        <ele>3.4</ele>
        <time>2020-06-03T14:09:03Z</time>
      </trkpt>
      <trkpt lat="46.5265" lon="-1.80681">
        <ele>3.4</ele>
        <time>2020-06-03T14:09:04Z</time>
      </trkpt>
      <trkpt lat="46.52655" lon="-1.80682">
        <ele>3.4</ele>
        <time>2020-06-03T14:09:05Z</time>
      </trkpt>
      <trkpt lat="46.5266" lon="-1.80683">
        <ele>3.4</ele>
        <time>2020-06-03T14:09:06Z</time>
      </trkpt>
      <trkpt lat="46.52665" lon="-1.80684">
        <ele>3.4</ele>
        <time>2020-06-03T14:09:07Z</time>
      </trkpt>
      <trkpt lat="46.5267" lon="-1.80684">
        <ele>3.4</ele>
        <time>2020-06-03T14:09:08Z</time>
      </trkpt>
      <trkpt lat="46.52675" lon="-1.80683">
        <ele>3.4</ele>
        <time>2020-06-03T14:09:09Z</time>
      </trkpt>
      <trkpt lat="46.5268" lon="-1.80683">
        <ele>3.4</ele>
        <time>2020-06-03T14:09:10Z</time>
      </trkpt>
      <trkpt lat="46.52686" lon="-1.80681">
        <ele>3.5</ele>
        <time>2020-06-03T14:09:11Z</time>
      </trkpt>
      <trkpt lat="46.52691" lon="-1.80679">
        <ele>3.5</ele>
        <time>2020-06-03T14:09:12Z</time>
      </trkpt>
      <trkpt lat="46.52697" lon="-1.80677">
        <ele>3.5</ele>
        <time>2020-06-03T14:09:13Z</time>
      </trkpt>
      <trkpt lat="46.52702" lon="-1.80675">
        <ele>3.5</ele>
        <time>2020-06-03T14:09:14Z</time>
      </trkpt>
      <trkpt lat="46.52706" lon="-1.80673">
        <ele>3.5</ele>
        <time>2020-06-03T14:09:15Z</time>
      </trkpt>
      <trkpt lat="46.5271" lon="-1.8067">
        <ele>3.5</ele>
        <time>2020-06-03T14:09:16Z</time>
      </trkpt>
      <trkpt lat="46.52714" lon="-1.8067">
        <ele>3.5</ele>
        <time>2020-06-03T14:09:17Z</time>
      </trkpt>
      <trkpt lat="46.52719" lon="-1.80668">
        <ele>3.5</ele>
        <time>2020-06-03T14:09:18Z</time>
      </trkpt>
      <trkpt lat="46.52724" lon="-1.80665">
        <ele>3.5</ele>
        <time>2020-06-03T14:09:19Z</time>
      </trkpt>
      <trkpt lat="46.52728" lon="-1.80661">
        <ele>3.5</ele>
        <time>2020-06-03T14:09:20Z</time>
      </trkpt>
      <trkpt lat="46.52732" lon="-1.80659">
        <ele>3.5</ele>
        <time>2020-06-03T14:09:21Z</time>
      </trkpt>
      <trkpt lat="46.52736" lon="-1.80656">
        <ele>3.5</ele>
        <time>2020-06-03T14:09:22Z</time>
      </trkpt>
      <trkpt lat="46.5274" lon="-1.80654">
        <ele>3.5</ele>
        <time>2020-06-03T14:09:23Z</time>
      </trkpt>
      <trkpt lat="46.52744" lon="-1.80652">
        <ele>3.5</ele>
        <time>2020-06-03T14:09:24Z</time>
      </trkpt>
      <trkpt lat="46.52748" lon="-1.80648">
        <ele>3.5</ele>
        <time>2020-06-03T14:09:25Z</time>
      </trkpt>
      <trkpt lat="46.52753" lon="-1.80646">
        <ele>3.5</ele>
        <time>2020-06-03T14:09:26Z</time>
      </trkpt>
      <trkpt lat="46.52756" lon="-1.80643">
        <ele>3.5</ele>
        <time>2020-06-03T14:09:27Z</time>
      </trkpt>
      <trkpt lat="46.5276" lon="-1.8064">
        <ele>3.6</ele>
        <time>2020-06-03T14:09:28Z</time>
      </trkpt>
      <trkpt lat="46.52764" lon="-1.80638">
        <ele>3.6</ele>
        <time>2020-06-03T14:09:29Z</time>
      </trkpt>
      <trkpt lat="46.52769" lon="-1.80635">
        <ele>3.6</ele>
        <time>2020-06-03T14:09:30Z</time>
      </trkpt>
      <trkpt lat="46.52773" lon="-1.80632">
        <ele>3.7</ele>
        <time>2020-06-03T14:09:31Z</time>
      </trkpt>
      <trkpt lat="46.52777" lon="-1.80631">
        <ele>3.7</ele>
        <time>2020-06-03T14:09:32Z</time>
      </trkpt>
      <trkpt lat="46.5278" lon="-1.80628">
        <ele>3.7</ele>
        <time>2020-06-03T14:09:33Z</time>
      </trkpt>
      <trkpt lat="46.52782" lon="-1.80625">
        <ele>3.8</ele>
        <time>2020-06-03T14:09:34Z</time>
      </trkpt>
      <trkpt lat="46.52785" lon="-1.80622">
        <ele>3.8</ele>
        <time>2020-06-03T14:09:35Z</time>
      </trkpt>
      <trkpt lat="46.52787" lon="-1.80619">
        <ele>3.8</ele>
        <time>2020-06-03T14:09:36Z</time>
      </trkpt>
      <trkpt lat="46.52789" lon="-1.80615">
        <ele>3.9</ele>
        <time>2020-06-03T14:09:37Z</time>
      </trkpt>
      <trkpt lat="46.52789" lon="-1.80613">
        <ele>3.9</ele>
        <time>2020-06-03T14:09:38Z</time>
      </trkpt>
      <trkpt lat="46.52791" lon="-1.8061">
        <ele>3.9</ele>
        <time>2020-06-03T14:09:39Z</time>
      </trkpt>
      <trkpt lat="46.52792" lon="-1.80609">
        <ele>3.9</ele>
        <time>2020-06-03T14:09:40Z</time>
      </trkpt>
      <trkpt lat="46.52794" lon="-1.80614">
        <ele>4</ele>
        <time>2020-06-03T14:09:41Z</time>
      </trkpt>
      <trkpt lat="46.52795" lon="-1.80616">
        <ele>3.9</ele>
        <time>2020-06-03T14:09:42Z</time>
      </trkpt>
      <trkpt lat="46.52795" lon="-1.80621">
        <ele>3.9</ele>
        <time>2020-06-03T14:09:43Z</time>
      </trkpt>
      <trkpt lat="46.52795" lon="-1.80627">
        <ele>3.9</ele>
        <time>2020-06-03T14:09:44Z</time>
      </trkpt>
      <trkpt lat="46.52794" lon="-1.80633">
        <ele>3.9</ele>
        <time>2020-06-03T14:09:45Z</time>
      </trkpt>
      <trkpt lat="46.52793" lon="-1.80641">
        <ele>3.9</ele>
        <time>2020-06-03T14:09:46Z</time>
      </trkpt>
      <trkpt lat="46.52791" lon="-1.80647">
        <ele>3.9</ele>
        <time>2020-06-03T14:09:47Z</time>
      </trkpt>
      <trkpt lat="46.5279" lon="-1.80653">
        <ele>3.9</ele>
        <time>2020-06-03T14:09:48Z</time>
      </trkpt>
      <trkpt lat="46.52789" lon="-1.80659">
        <ele>3.9</ele>
        <time>2020-06-03T14:09:49Z</time>
      </trkpt>
      <trkpt lat="46.52789" lon="-1.80664">
        <ele>3.9</ele>
        <time>2020-06-03T14:09:50Z</time>
      </trkpt>
      <trkpt lat="46.52788" lon="-1.80669">
        <ele>3.9</ele>
        <time>2020-06-03T14:09:51Z</time>
      </trkpt>
      <trkpt lat="46.52788" lon="-1.80671">
        <ele>3.9</ele>
        <time>2020-06-03T14:09:52Z</time>
      </trkpt>
      <trkpt lat="46.5279" lon="-1.80673">
        <ele>3.9</ele>
        <time>2020-06-03T14:09:53Z</time>
      </trkpt>
      <trkpt lat="46.52791" lon="-1.80674">
        <ele>3.9</ele>
        <time>2020-06-03T14:09:54Z</time>
      </trkpt>
      <trkpt lat="46.52792" lon="-1.80675">
        <ele>3.9</ele>
        <time>2020-06-03T14:09:55Z</time>
      </trkpt>
      <trkpt lat="46.52794" lon="-1.8068">
        <ele>3.8</ele>
        <time>2020-06-03T14:09:56Z</time>
      </trkpt>
      <trkpt lat="46.52795" lon="-1.80682">
        <ele>3.8</ele>
        <time>2020-06-03T14:09:57Z</time>
      </trkpt>
      <trkpt lat="46.52797" lon="-1.80687">
        <ele>3.8</ele>
        <time>2020-06-03T14:09:58Z</time>
      </trkpt>
      <trkpt lat="46.52799" lon="-1.8069">
        <ele>3.8</ele>
        <time>2020-06-03T14:09:59Z</time>
      </trkpt>
      <trkpt lat="46.52801" lon="-1.80694">
        <ele>3.8</ele>
        <time>2020-06-03T14:10:00Z</time>
      </trkpt>
      <trkpt lat="46.52803" lon="-1.80701">
        <ele>3.8</ele>
        <time>2020-06-03T14:10:01Z</time>
      </trkpt>
      <trkpt lat="46.52805" lon="-1.80708">
        <ele>3.8</ele>
        <time>2020-06-03T14:10:02Z</time>
      </trkpt>
      <trkpt lat="46.52807" lon="-1.80715">
        <ele>3.8</ele>
        <time>2020-06-03T14:10:03Z</time>
      </trkpt>
      <trkpt lat="46.52808" lon="-1.80722">
        <ele>3.8</ele>
        <time>2020-06-03T14:10:04Z</time>
      </trkpt>
      <trkpt lat="46.52809" lon="-1.80729">
        <ele>3.8</ele>
        <time>2020-06-03T14:10:05Z</time>
      </trkpt>
      <trkpt lat="46.52809" lon="-1.80735">
        <ele>3.8</ele>
        <time>2020-06-03T14:10:06Z</time>
      </trkpt>
      <trkpt lat="46.52809" lon="-1.80741">
        <ele>3.7</ele>
        <time>2020-06-03T14:10:07Z</time>
      </trkpt>
      <trkpt lat="46.52809" lon="-1.80747">
        <ele>3.7</ele>
        <time>2020-06-03T14:10:08Z</time>
      </trkpt>
      <trkpt lat="46.52809" lon="-1.80753">
        <ele>3.7</ele>
        <time>2020-06-03T14:10:09Z</time>
      </trkpt>
      <trkpt lat="46.5281" lon="-1.80758">
        <ele>3.7</ele>
        <time>2020-06-03T14:10:10Z</time>
      </trkpt>
      <trkpt lat="46.52811" lon="-1.80764">
        <ele>3.7</ele>
        <time>2020-06-03T14:10:11Z</time>
      </trkpt>
      <trkpt lat="46.52813" lon="-1.80768">
        <ele>3.7</ele>
        <time>2020-06-03T14:10:12Z</time>
      </trkpt>
      <trkpt lat="46.52817" lon="-1.80769">
        <ele>3.7</ele>
        <time>2020-06-03T14:10:13Z</time>
      </trkpt>
      <trkpt lat="46.52823" lon="-1.8077">
        <ele>3.7</ele>
        <time>2020-06-03T14:10:14Z</time>
      </trkpt>
      <trkpt lat="46.52829" lon="-1.80771">
        <ele>3.6</ele>
        <time>2020-06-03T14:10:15Z</time>
      </trkpt>
      <trkpt lat="46.52835" lon="-1.80772">
        <ele>3.6</ele>
        <time>2020-06-03T14:10:16Z</time>
      </trkpt>
      <trkpt lat="46.52841" lon="-1.80772">
        <ele>3.6</ele>
        <time>2020-06-03T14:10:17Z</time>
      </trkpt>
      <trkpt lat="46.52846" lon="-1.80773">
        <ele>3.5</ele>
        <time>2020-06-03T14:10:18Z</time>
      </trkpt>
      <trkpt lat="46.52851" lon="-1.80776">
        <ele>3.5</ele>
        <time>2020-06-03T14:10:19Z</time>
      </trkpt>
      <trkpt lat="46.52855" lon="-1.80778">
        <ele>3.5</ele>
        <time>2020-06-03T14:10:20Z</time>
      </trkpt>
      <trkpt lat="46.52859" lon="-1.80781">
        <ele>3.4</ele>
        <time>2020-06-03T14:10:21Z</time>
      </trkpt>
      <trkpt lat="46.52863" lon="-1.80786">
        <ele>3.4</ele>
        <time>2020-06-03T14:10:22Z</time>
      </trkpt>
      <trkpt lat="46.52867" lon="-1.8079">
        <ele>3.4</ele>
        <time>2020-06-03T14:10:23Z</time>
      </trkpt>
      <trkpt lat="46.5287" lon="-1.80795">
        <ele>3.4</ele>
        <time>2020-06-03T14:10:24Z</time>
      </trkpt>
      <trkpt lat="46.52873" lon="-1.80799">
        <ele>3.3</ele>
        <time>2020-06-03T14:10:25Z</time>
      </trkpt>
      <trkpt lat="46.52876" lon="-1.80804">
        <ele>3.3</ele>
        <time>2020-06-03T14:10:26Z</time>
      </trkpt>
      <trkpt lat="46.52879" lon="-1.80808">
        <ele>3.3</ele>
        <time>2020-06-03T14:10:27Z</time>
      </trkpt>
      <trkpt lat="46.52882" lon="-1.80811">
        <ele>3.3</ele>
        <time>2020-06-03T14:10:28Z</time>
      </trkpt>
      <trkpt lat="46.52884" lon="-1.80815">
        <ele>3.3</ele>
        <time>2020-06-03T14:10:29Z</time>
      </trkpt>
      <trkpt lat="46.52887" lon="-1.8082">
        <ele>3.3</ele>
        <time>2020-06-03T14:10:30Z</time>
      </trkpt>
      <trkpt lat="46.5289" lon="-1.80824">
        <ele>3.2</ele>
        <time>2020-06-03T14:10:31Z</time>
      </trkpt>
      <trkpt lat="46.52891" lon="-1.80829">
        <ele>3.2</ele>
        <time>2020-06-03T14:10:32Z</time>
      </trkpt>
      <trkpt lat="46.52894" lon="-1.80834">
        <ele>3.2</ele>
        <time>2020-06-03T14:10:33Z</time>
      </trkpt>
      <trkpt lat="46.52896" lon="-1.80838">
        <ele>3.2</ele>
        <time>2020-06-03T14:10:34Z</time>
      </trkpt>
      <trkpt lat="46.52899" lon="-1.80842">
        <ele>3.2</ele>
        <time>2020-06-03T14:10:35Z</time>
      </trkpt>
      <trkpt lat="46.529" lon="-1.80847">
        <ele>3.2</ele>
        <time>2020-06-03T14:10:36Z</time>
      </trkpt>
      <trkpt lat="46.52901" lon="-1.80853">
        <ele>3.1</ele>
        <time>2020-06-03T14:10:37Z</time>
      </trkpt>
      <trkpt lat="46.52901" lon="-1.8086">
        <ele>3.1</ele>
        <time>2020-06-03T14:10:38Z</time>
      </trkpt>
      <trkpt lat="46.52901" lon="-1.80865">
        <ele>3.1</ele>
        <time>2020-06-03T14:10:39Z</time>
      </trkpt>
      <trkpt lat="46.52901" lon="-1.80871">
        <ele>3.1</ele>
        <time>2020-06-03T14:10:40Z</time>
      </trkpt>
      <trkpt lat="46.52904" lon="-1.80876">
        <ele>3.1</ele>
        <time>2020-06-03T14:10:41Z</time>
      </trkpt>
      <trkpt lat="46.52907" lon="-1.80877">
        <ele>3.1</ele>
        <time>2020-06-03T14:10:42Z</time>
      </trkpt>
      <trkpt lat="46.52911" lon="-1.80878">
        <ele>3</ele>
        <time>2020-06-03T14:10:43Z</time>
      </trkpt>
      <trkpt lat="46.52915" lon="-1.80878">
        <ele>3</ele>
        <time>2020-06-03T14:10:44Z</time>
      </trkpt>
      <trkpt lat="46.52919" lon="-1.80879">
        <ele>3</ele>
        <time>2020-06-03T14:10:45Z</time>
      </trkpt>
      <trkpt lat="46.52925" lon="-1.8088">
        <ele>3</ele>
        <time>2020-06-03T14:10:46Z</time>
      </trkpt>
      <trkpt lat="46.52929" lon="-1.8088">
        <ele>3</ele>
        <time>2020-06-03T14:10:47Z</time>
      </trkpt>
      <trkpt lat="46.52934" lon="-1.8088">
        <ele>3</ele>
        <time>2020-06-03T14:10:48Z</time>
      </trkpt>
      <trkpt lat="46.52939" lon="-1.80881">
        <ele>3</ele>
        <time>2020-06-03T14:10:49Z</time>
      </trkpt>
      <trkpt lat="46.52943" lon="-1.80882">
        <ele>3</ele>
        <time>2020-06-03T14:10:50Z</time>
      </trkpt>
      <trkpt lat="46.52948" lon="-1.80884">
        <ele>3</ele>
        <time>2020-06-03T14:10:51Z</time>
      </trkpt>
      <trkpt lat="46.52952" lon="-1.80885">
        <ele>3</ele>
        <time>2020-06-03T14:10:52Z</time>
      </trkpt>
      <trkpt lat="46.52956" lon="-1.80888">
        <ele>3</ele>
        <time>2020-06-03T14:10:53Z</time>
      </trkpt>
      <trkpt lat="46.5296" lon="-1.8089">
        <ele>3</ele>
        <time>2020-06-03T14:10:54Z</time>
      </trkpt>
      <trkpt lat="46.52965" lon="-1.80892">
        <ele>3</ele>
        <time>2020-06-03T14:10:55Z</time>
      </trkpt>
      <trkpt lat="46.5297" lon="-1.80893">
        <ele>2.9</ele>
        <time>2020-06-03T14:10:56Z</time>
      </trkpt>
      <trkpt lat="46.52976" lon="-1.80894">
        <ele>2.9</ele>
        <time>2020-06-03T14:10:57Z</time>
      </trkpt>
      <trkpt lat="46.52981" lon="-1.80894">
        <ele>2.9</ele>
        <time>2020-06-03T14:10:58Z</time>
      </trkpt>
      <trkpt lat="46.52986" lon="-1.80895">
        <ele>2.9</ele>
        <time>2020-06-03T14:10:59Z</time>
      </trkpt>
      <trkpt lat="46.52991" lon="-1.80895">
        <ele>2.9</ele>
        <time>2020-06-03T14:11:00Z</time>
      </trkpt>
      <trkpt lat="46.52995" lon="-1.80896">
        <ele>2.9</ele>
        <time>2020-06-03T14:11:01Z</time>
      </trkpt>
      <trkpt lat="46.53" lon="-1.80895">
        <ele>2.9</ele>
        <time>2020-06-03T14:11:02Z</time>
      </trkpt>
      <trkpt lat="46.53004" lon="-1.80895">
        <ele>2.9</ele>
        <time>2020-06-03T14:11:03Z</time>
      </trkpt>
      <trkpt lat="46.53008" lon="-1.80896">
        <ele>2.9</ele>
        <time>2020-06-03T14:11:04Z</time>
      </trkpt>
      <trkpt lat="46.53012" lon="-1.80896">
        <ele>2.9</ele>
        <time>2020-06-03T14:11:05Z</time>
      </trkpt>
      <trkpt lat="46.53018" lon="-1.80893">
        <ele>2.9</ele>
        <time>2020-06-03T14:11:06Z</time>
      </trkpt>
      <trkpt lat="46.53023" lon="-1.8089">
        <ele>2.9</ele>
        <time>2020-06-03T14:11:07Z</time>
      </trkpt>
      <trkpt lat="46.53027" lon="-1.80888">
        <ele>2.9</ele>
        <time>2020-06-03T14:11:08Z</time>
      </trkpt>
      <trkpt lat="46.53032" lon="-1.80886">
        <ele>2.9</ele>
        <time>2020-06-03T14:11:09Z</time>
      </trkpt>
      <trkpt lat="46.53037" lon="-1.80884">
        <ele>2.9</ele>
        <time>2020-06-03T14:11:10Z</time>
      </trkpt>
      <trkpt lat="46.53041" lon="-1.80882">
        <ele>2.9</ele>
        <time>2020-06-03T14:11:11Z</time>
      </trkpt>
      <trkpt lat="46.53045" lon="-1.80879">
        <ele>2.9</ele>
        <time>2020-06-03T14:11:12Z</time>
      </trkpt>
      <trkpt lat="46.53049" lon="-1.80874">
        <ele>2.9</ele>
        <time>2020-06-03T14:11:13Z</time>
      </trkpt>
      <trkpt lat="46.53054" lon="-1.80868">
        <ele>2.9</ele>
        <time>2020-06-03T14:11:14Z</time>
      </trkpt>
      <trkpt lat="46.53058" lon="-1.80863">
        <ele>2.9</ele>
        <time>2020-06-03T14:11:15Z</time>
      </trkpt>
      <trkpt lat="46.53062" lon="-1.80858">
        <ele>2.9</ele>
        <time>2020-06-03T14:11:16Z</time>
      </trkpt>
      <trkpt lat="46.53067" lon="-1.80855">
        <ele>2.9</ele>
        <time>2020-06-03T14:11:17Z</time>
      </trkpt>
      <trkpt lat="46.5307" lon="-1.80853">
        <ele>2.9</ele>
        <time>2020-06-03T14:11:18Z</time>
      </trkpt>
      <trkpt lat="46.53072" lon="-1.80852">
        <ele>2.9</ele>
        <time>2020-06-03T14:11:19Z</time>
      </trkpt>
      <trkpt lat="46.53076" lon="-1.80849">
        <ele>3</ele>
        <time>2020-06-03T14:11:20Z</time>
      </trkpt>
      <trkpt lat="46.5308" lon="-1.80846">
        <ele>3</ele>
        <time>2020-06-03T14:11:21Z</time>
      </trkpt>
      <trkpt lat="46.53084" lon="-1.80844">
        <ele>3</ele>
        <time>2020-06-03T14:11:22Z</time>
      </trkpt>
      <trkpt lat="46.53089" lon="-1.80839">
        <ele>3</ele>
        <time>2020-06-03T14:11:23Z</time>
      </trkpt>
      <trkpt lat="46.53093" lon="-1.80836">
        <ele>3</ele>
        <time>2020-06-03T14:11:24Z</time>
      </trkpt>
      <trkpt lat="46.53098" lon="-1.80834">
        <ele>3</ele>
        <time>2020-06-03T14:11:25Z</time>
      </trkpt>
      <trkpt lat="46.53102" lon="-1.80832">
        <ele>3</ele>
        <time>2020-06-03T14:11:26Z</time>
      </trkpt>
      <trkpt lat="46.53106" lon="-1.80829">
        <ele>2.9</ele>
        <time>2020-06-03T14:11:27Z</time>
      </trkpt>
      <trkpt lat="46.53111" lon="-1.80825">
        <ele>2.9</ele>
        <time>2020-06-03T14:11:28Z</time>
      </trkpt>
      <trkpt lat="46.53114" lon="-1.80821">
        <ele>2.9</ele>
        <time>2020-06-03T14:11:29Z</time>
      </trkpt>
      <trkpt lat="46.53118" lon="-1.80816">
        <ele>2.9</ele>
        <time>2020-06-03T14:11:30Z</time>
      </trkpt>
      <trkpt lat="46.53122" lon="-1.80813">
        <ele>2.8</ele>
        <time>2020-06-03T14:11:31Z</time>
      </trkpt>
      <trkpt lat="46.53127" lon="-1.80812">
        <ele>2.8</ele>
        <time>2020-06-03T14:11:32Z</time>
      </trkpt>
      <trkpt lat="46.53131" lon="-1.8081">
        <ele>2.8</ele>
        <time>2020-06-03T14:11:33Z</time>
      </trkpt>
      <trkpt lat="46.53135" lon="-1.80807">
        <ele>2.7</ele>
        <time>2020-06-03T14:11:34Z</time>
      </trkpt>
      <trkpt lat="46.5314" lon="-1.80802">
        <ele>2.7</ele>
        <time>2020-06-03T14:11:35Z</time>
      </trkpt>
      <trkpt lat="46.53145" lon="-1.80797">
        <ele>2.6</ele>
        <time>2020-06-03T14:11:36Z</time>
      </trkpt>
      <trkpt lat="46.53151" lon="-1.80793">
        <ele>2.6</ele>
        <time>2020-06-03T14:11:37Z</time>
      </trkpt>
      <trkpt lat="46.53156" lon="-1.80788">
        <ele>2.6</ele>
        <time>2020-06-03T14:11:38Z</time>
      </trkpt>
      <trkpt lat="46.5316" lon="-1.80784">
        <ele>2.6</ele>
        <time>2020-06-03T14:11:39Z</time>
      </trkpt>
      <trkpt lat="46.53165" lon="-1.80779">
        <ele>2.6</ele>
        <time>2020-06-03T14:11:40Z</time>
      </trkpt>
      <trkpt lat="46.53169" lon="-1.80775">
        <ele>2.6</ele>
        <time>2020-06-03T14:11:41Z</time>
      </trkpt>
      <trkpt lat="46.53173" lon="-1.80771">
        <ele>2.6</ele>
        <time>2020-06-03T14:11:42Z</time>
      </trkpt>
      <trkpt lat="46.53178" lon="-1.80768">
        <ele>2.6</ele>
        <time>2020-06-03T14:11:43Z</time>
      </trkpt>
      <trkpt lat="46.53183" lon="-1.80764">
        <ele>2.6</ele>
        <time>2020-06-03T14:11:44Z</time>
      </trkpt>
      <trkpt lat="46.5319" lon="-1.80762">
        <ele>2.6</ele>
        <time>2020-06-03T14:11:45Z</time>
      </trkpt>
      <trkpt lat="46.53196" lon="-1.8076">
        <ele>2.6</ele>
        <time>2020-06-03T14:11:46Z</time>
      </trkpt>
      <trkpt lat="46.53202" lon="-1.80758">
        <ele>2.6</ele>
        <time>2020-06-03T14:11:47Z</time>
      </trkpt>
      <trkpt lat="46.53208" lon="-1.80756">
        <ele>2.6</ele>
        <time>2020-06-03T14:11:48Z</time>
      </trkpt>
      <trkpt lat="46.53213" lon="-1.80753">
        <ele>2.6</ele>
        <time>2020-06-03T14:11:49Z</time>
      </trkpt>
      <trkpt lat="46.53217" lon="-1.80749">
        <ele>2.6</ele>
        <time>2020-06-03T14:11:50Z</time>
      </trkpt>
      <trkpt lat="46.53222" lon="-1.80746">
        <ele>2.6</ele>
        <time>2020-06-03T14:11:51Z</time>
      </trkpt>
      <trkpt lat="46.53226" lon="-1.80743">
        <ele>2.6</ele>
        <time>2020-06-03T14:11:52Z</time>
      </trkpt>
      <trkpt lat="46.53231" lon="-1.80741">
        <ele>2.6</ele>
        <time>2020-06-03T14:11:53Z</time>
      </trkpt>
      <trkpt lat="46.53236" lon="-1.80738">
        <ele>2.6</ele>
        <time>2020-06-03T14:11:54Z</time>
      </trkpt>
      <trkpt lat="46.5324" lon="-1.80736">
        <ele>2.6</ele>
        <time>2020-06-03T14:11:55Z</time>
      </trkpt>
      <trkpt lat="46.53245" lon="-1.80733">
        <ele>2.6</ele>
        <time>2020-06-03T14:11:56Z</time>
      </trkpt>
      <trkpt lat="46.53248" lon="-1.8073">
        <ele>2.7</ele>
        <time>2020-06-03T14:11:57Z</time>
      </trkpt>
      <trkpt lat="46.53251" lon="-1.80728">
        <ele>2.7</ele>
        <time>2020-06-03T14:11:58Z</time>
      </trkpt>
      <trkpt lat="46.53254" lon="-1.80725">
        <ele>2.7</ele>
        <time>2020-06-03T14:11:59Z</time>
      </trkpt>
      <trkpt lat="46.53256" lon="-1.80724">
        <ele>2.7</ele>
        <time>2020-06-03T14:12:00Z</time>
      </trkpt>
      <trkpt lat="46.53259" lon="-1.80722">
        <ele>2.7</ele>
        <time>2020-06-03T14:12:01Z</time>
      </trkpt>
      <trkpt lat="46.53263" lon="-1.80719">
        <ele>2.7</ele>
        <time>2020-06-03T14:12:02Z</time>
      </trkpt>
      <trkpt lat="46.53268" lon="-1.80716">
        <ele>2.7</ele>
        <time>2020-06-03T14:12:03Z</time>
      </trkpt>
      <trkpt lat="46.53273" lon="-1.80713">
        <ele>2.7</ele>
        <time>2020-06-03T14:12:04Z</time>
      </trkpt>
      <trkpt lat="46.53278" lon="-1.80709">
        <ele>2.7</ele>
        <time>2020-06-03T14:12:05Z</time>
      </trkpt>
      <trkpt lat="46.53283" lon="-1.80706">
        <ele>2.7</ele>
        <time>2020-06-03T14:12:06Z</time>
      </trkpt>
      <trkpt lat="46.53287" lon="-1.80702">
        <ele>2.7</ele>
        <time>2020-06-03T14:12:07Z</time>
      </trkpt>
      <trkpt lat="46.53291" lon="-1.80696">
        <ele>2.7</ele>
        <time>2020-06-03T14:12:08Z</time>
      </trkpt>
      <trkpt lat="46.53296" lon="-1.80691">
        <ele>2.7</ele>
        <time>2020-06-03T14:12:09Z</time>
      </trkpt>
      <trkpt lat="46.533" lon="-1.80685">
        <ele>2.8</ele>
        <time>2020-06-03T14:12:10Z</time>
      </trkpt>
      <trkpt lat="46.53305" lon="-1.80681">
        <ele>2.8</ele>
        <time>2020-06-03T14:12:11Z</time>
      </trkpt>
      <trkpt lat="46.53311" lon="-1.80678">
        <ele>2.8</ele>
        <time>2020-06-03T14:12:12Z</time>
      </trkpt>
      <trkpt lat="46.53315" lon="-1.80676">
        <ele>2.8</ele>
        <time>2020-06-03T14:12:13Z</time>
      </trkpt>
      <trkpt lat="46.53319" lon="-1.80673">
        <ele>2.8</ele>
        <time>2020-06-03T14:12:14Z</time>
      </trkpt>
      <trkpt lat="46.53324" lon="-1.80671">
        <ele>2.8</ele>
        <time>2020-06-03T14:12:15Z</time>
      </trkpt>
      <trkpt lat="46.53328" lon="-1.80669">
        <ele>2.8</ele>
        <time>2020-06-03T14:12:16Z</time>
      </trkpt>
      <trkpt lat="46.53332" lon="-1.80667">
        <ele>2.8</ele>
        <time>2020-06-03T14:12:17Z</time>
      </trkpt>
      <trkpt lat="46.53337" lon="-1.80664">
        <ele>2.9</ele>
        <time>2020-06-03T14:12:18Z</time>
      </trkpt>
      <trkpt lat="46.53341" lon="-1.80661">
        <ele>2.9</ele>
        <time>2020-06-03T14:12:19Z</time>
      </trkpt>
      <trkpt lat="46.53346" lon="-1.80657">
        <ele>2.9</ele>
        <time>2020-06-03T14:12:20Z</time>
      </trkpt>
      <trkpt lat="46.5335" lon="-1.80653">
        <ele>2.9</ele>
        <time>2020-06-03T14:12:21Z</time>
      </trkpt>
      <trkpt lat="46.53354" lon="-1.8065">
        <ele>2.9</ele>
        <time>2020-06-03T14:12:22Z</time>
      </trkpt>
      <trkpt lat="46.53359" lon="-1.80646">
        <ele>2.9</ele>
        <time>2020-06-03T14:12:23Z</time>
      </trkpt>
      <trkpt lat="46.53363" lon="-1.80642">
        <ele>2.9</ele>
        <time>2020-06-03T14:12:24Z</time>
      </trkpt>
      <trkpt lat="46.53368" lon="-1.80638">
        <ele>2.9</ele>
        <time>2020-06-03T14:12:25Z</time>
      </trkpt>
      <trkpt lat="46.53372" lon="-1.80633">
        <ele>2.9</ele>
        <time>2020-06-03T14:12:26Z</time>
      </trkpt>
      <trkpt lat="46.53377" lon="-1.80629">
        <ele>2.9</ele>
        <time>2020-06-03T14:12:27Z</time>
      </trkpt>
      <trkpt lat="46.53382" lon="-1.80626">
        <ele>2.9</ele>
        <time>2020-06-03T14:12:28Z</time>
      </trkpt>
      <trkpt lat="46.53387" lon="-1.80623">
        <ele>3</ele>
        <time>2020-06-03T14:12:29Z</time>
      </trkpt>
      <trkpt lat="46.53392" lon="-1.8062">
        <ele>3</ele>
        <time>2020-06-03T14:12:30Z</time>
      </trkpt>
      <trkpt lat="46.53397" lon="-1.80617">
        <ele>3</ele>
        <time>2020-06-03T14:12:31Z</time>
      </trkpt>
      <trkpt lat="46.53401" lon="-1.80614">
        <ele>3</ele>
        <time>2020-06-03T14:12:32Z</time>
      </trkpt>
      <trkpt lat="46.53405" lon="-1.80612">
        <ele>3.1</ele>
        <time>2020-06-03T14:12:33Z</time>
      </trkpt>
      <trkpt lat="46.53409" lon="-1.80609">
        <ele>3.1</ele>
        <time>2020-06-03T14:12:34Z</time>
      </trkpt>
      <trkpt lat="46.53413" lon="-1.80607">
        <ele>3.2</ele>
        <time>2020-06-03T14:12:35Z</time>
      </trkpt>
      <trkpt lat="46.53416" lon="-1.80604">
        <ele>3.2</ele>
        <time>2020-06-03T14:12:36Z</time>
      </trkpt>
      <trkpt lat="46.53419" lon="-1.80601">
        <ele>3.2</ele>
        <time>2020-06-03T14:12:37Z</time>
      </trkpt>
      <trkpt lat="46.53422" lon="-1.80599">
        <ele>3.2</ele>
        <time>2020-06-03T14:12:38Z</time>
      </trkpt>
      <trkpt lat="46.53423" lon="-1.80598">
        <ele>3.3</ele>
        <time>2020-06-03T14:12:39Z</time>
      </trkpt>
      <trkpt lat="46.53425" lon="-1.80598">
        <ele>3.3</ele>
        <time>2020-06-03T14:12:40Z</time>
      </trkpt>
      <trkpt lat="46.53426" lon="-1.80599">
        <ele>3.3</ele>
        <time>2020-06-03T14:12:41Z</time>
      </trkpt>
      <trkpt lat="46.53427" lon="-1.80602">
        <ele>3.3</ele>
        <time>2020-06-03T14:12:42Z</time>
      </trkpt>
      <trkpt lat="46.53427" lon="-1.80603">
        <ele>3.3</ele>
        <time>2020-06-03T14:12:43Z</time>
      </trkpt>
      <trkpt lat="46.53427" lon="-1.80605">
        <ele>3.3</ele>
        <time>2020-06-03T14:12:44Z</time>
      </trkpt>
      <trkpt lat="46.53426" lon="-1.80607">
        <ele>3.3</ele>
        <time>2020-06-03T14:12:45Z</time>
      </trkpt>
      <trkpt lat="46.53427" lon="-1.80608">
        <ele>3.3</ele>
        <time>2020-06-03T14:12:46Z</time>
      </trkpt>
      <trkpt lat="46.53427" lon="-1.80609">
        <ele>3.3</ele>
        <time>2020-06-03T14:12:47Z</time>
      </trkpt>
      <trkpt lat="46.53427" lon="-1.8061">
        <ele>3.3</ele>
        <time>2020-06-03T14:12:48Z</time>
      </trkpt>
      <trkpt lat="46.53427" lon="-1.80611">
        <ele>3.3</ele>
        <time>2020-06-03T14:12:49Z</time>
      </trkpt>
      <trkpt lat="46.53427" lon="-1.80613">
        <ele>3.3</ele>
        <time>2020-06-03T14:12:50Z</time>
      </trkpt>
      <trkpt lat="46.53428" lon="-1.80615">
        <ele>3.3</ele>
        <time>2020-06-03T14:12:51Z</time>
      </trkpt>
      <trkpt lat="46.53427" lon="-1.80616">
        <ele>3.3</ele>
        <time>2020-06-03T14:12:52Z</time>
      </trkpt>
      <trkpt lat="46.53428" lon="-1.80614">
        <ele>3.3</ele>
        <time>2020-06-03T14:12:53Z</time>
      </trkpt>
      <trkpt lat="46.53427" lon="-1.80615">
        <ele>3.3</ele>
        <time>2020-06-03T14:12:54Z</time>
      </trkpt>
      <trkpt lat="46.53426" lon="-1.80614">
        <ele>3.2</ele>
        <time>2020-06-03T14:12:55Z</time>
      </trkpt>
      <trkpt lat="46.53426" lon="-1.80614">
        <ele>3.2</ele>
        <time>2020-06-03T14:12:56Z</time>
      </trkpt>
      <trkpt lat="46.53425" lon="-1.80614">
        <ele>3.2</ele>
        <time>2020-06-03T14:12:57Z</time>
      </trkpt>
      <trkpt lat="46.53424" lon="-1.80614">
        <ele>3.2</ele>
        <time>2020-06-03T14:12:58Z</time>
      </trkpt>
      <trkpt lat="46.53425" lon="-1.80616">
        <ele>3.2</ele>
        <time>2020-06-03T14:12:59Z</time>
      </trkpt>
      <trkpt lat="46.53425" lon="-1.80617">
        <ele>3.2</ele>
        <time>2020-06-03T14:13:00Z</time>
      </trkpt>
      <trkpt lat="46.53426" lon="-1.80618">
        <ele>3.2</ele>
        <time>2020-06-03T14:13:01Z</time>
      </trkpt>
      <trkpt lat="46.53427" lon="-1.8062">
        <ele>3.2</ele>
        <time>2020-06-03T14:13:02Z</time>
      </trkpt>
      <trkpt lat="46.53427" lon="-1.80621">
        <ele>3.2</ele>
        <time>2020-06-03T14:14:46Z</time>
      </trkpt>
      <trkpt lat="46.53428" lon="-1.80622">
        <ele>3.2</ele>
        <time>2020-06-03T14:14:47Z</time>
      </trkpt>
      <trkpt lat="46.53431" lon="-1.80627">
        <ele>3.2</ele>
        <time>2020-06-03T14:14:48Z</time>
      </trkpt>
      <trkpt lat="46.53432" lon="-1.80629">
        <ele>3.2</ele>
        <time>2020-06-03T14:14:49Z</time>
      </trkpt>
      <trkpt lat="46.53434" lon="-1.80631">
        <ele>3.2</ele>
        <time>2020-06-03T14:14:50Z</time>
      </trkpt>
      <trkpt lat="46.53435" lon="-1.80631">
        <ele>3.2</ele>
        <time>2020-06-03T14:14:51Z</time>
      </trkpt>
      <trkpt lat="46.53435" lon="-1.8063">
        <ele>3.2</ele>
        <time>2020-06-03T14:14:52Z</time>
      </trkpt>
      <trkpt lat="46.53437" lon="-1.8063">
        <ele>3.2</ele>
        <time>2020-06-03T14:14:53Z</time>
      </trkpt>
      <trkpt lat="46.53438" lon="-1.8063">
        <ele>3.2</ele>
        <time>2020-06-03T14:14:54Z</time>
      </trkpt>
      <trkpt lat="46.53438" lon="-1.8063">
        <ele>3.2</ele>
        <time>2020-06-03T14:14:55Z</time>
      </trkpt>
      <trkpt lat="46.53439" lon="-1.80629">
        <ele>3.2</ele>
        <time>2020-06-03T14:14:56Z</time>
      </trkpt>
      <trkpt lat="46.53439" lon="-1.80629">
        <ele>3.2</ele>
        <time>2020-06-03T14:14:57Z</time>
      </trkpt>
      <trkpt lat="46.5344" lon="-1.80629">
        <ele>3.2</ele>
        <time>2020-06-03T14:14:58Z</time>
      </trkpt>
      <trkpt lat="46.53441" lon="-1.80629">
        <ele>3.1</ele>
        <time>2020-06-03T14:14:59Z</time>
      </trkpt>
      <trkpt lat="46.53441" lon="-1.80628">
        <ele>3.1</ele>
        <time>2020-06-03T14:15:00Z</time>
      </trkpt>
      <trkpt lat="46.53442" lon="-1.80628">
        <ele>3.1</ele>
        <time>2020-06-03T14:15:01Z</time>
      </trkpt>
      <trkpt lat="46.53442" lon="-1.80628">
        <ele>3.1</ele>
        <time>2020-06-03T14:15:02Z</time>
      </trkpt>
      <trkpt lat="46.53443" lon="-1.80627">
        <ele>3.1</ele>
        <time>2020-06-03T14:15:03Z</time>
      </trkpt>
      <trkpt lat="46.53444" lon="-1.80627">
        <ele>3.1</ele>
        <time>2020-06-03T14:15:04Z</time>
      </trkpt>
      <trkpt lat="46.53444" lon="-1.80627">
        <ele>3.1</ele>
        <time>2020-06-03T14:15:05Z</time>
      </trkpt>
      <trkpt lat="46.53445" lon="-1.80626">
        <ele>3.1</ele>
        <time>2020-06-03T14:15:06Z</time>
      </trkpt>
      <trkpt lat="46.53446" lon="-1.80626">
        <ele>3.1</ele>
        <time>2020-06-03T14:26:58Z</time>
      </trkpt>
      <trkpt lat="46.53446" lon="-1.80626">
        <ele>3.1</ele>
        <time>2020-06-03T14:26:59Z</time>
      </trkpt>
      <trkpt lat="46.53447" lon="-1.80626">
        <ele>3.1</ele>
        <time>2020-06-03T14:27:00Z</time>
      </trkpt>
      <trkpt lat="46.53447" lon="-1.80625">
        <ele>3.1</ele>
        <time>2020-06-03T14:27:01Z</time>
      </trkpt>
      <trkpt lat="46.53448" lon="-1.80625">
        <ele>3.1</ele>
        <time>2020-06-03T14:27:02Z</time>
      </trkpt>
      <trkpt lat="46.53449" lon="-1.80625">
        <ele>3.1</ele>
        <time>2020-06-03T14:27:03Z</time>
      </trkpt>
      <trkpt lat="46.53449" lon="-1.80624">
        <ele>3.1</ele>
        <time>2020-06-03T14:27:05Z</time>
      </trkpt>
      <trkpt lat="46.5345" lon="-1.80624">
        <ele>3.1</ele>
        <time>2020-06-03T14:27:06Z</time>
      </trkpt>
      <trkpt lat="46.5345" lon="-1.80624">
        <ele>3</ele>
        <time>2020-06-03T14:27:08Z</time>
      </trkpt>
      <trkpt lat="46.53451" lon="-1.80624">
        <ele>3</ele>
        <time>2020-06-03T14:27:15Z</time>
      </trkpt>
      <trkpt lat="46.53452" lon="-1.80623">
        <ele>3</ele>
        <time>2020-06-03T14:27:16Z</time>
      </trkpt>
      <trkpt lat="46.53455" lon="-1.80622">
        <ele>3</ele>
        <time>2020-06-03T14:27:17Z</time>
      </trkpt>
      <trkpt lat="46.53456" lon="-1.80622">
        <ele>3</ele>
        <time>2020-06-03T14:27:18Z</time>
      </trkpt>
      <trkpt lat="46.53458" lon="-1.80619">
        <ele>2.9</ele>
        <time>2020-06-03T14:27:20Z</time>
      </trkpt>
      <trkpt lat="46.53459" lon="-1.80618">
        <ele>2.9</ele>
        <time>2020-06-03T14:27:21Z</time>
      </trkpt>
      <trkpt lat="46.53462" lon="-1.80617">
        <ele>2.9</ele>
        <time>2020-06-03T14:27:22Z</time>
      </trkpt>
      <trkpt lat="46.53464" lon="-1.80614">
        <ele>2.8</ele>
        <time>2020-06-03T14:27:23Z</time>
      </trkpt>
      <trkpt lat="46.53467" lon="-1.80612">
        <ele>2.8</ele>
        <time>2020-06-03T14:27:24Z</time>
      </trkpt>
      <trkpt lat="46.5347" lon="-1.80611">
        <ele>2.7</ele>
        <time>2020-06-03T14:27:25Z</time>
      </trkpt>
      <trkpt lat="46.53473" lon="-1.80609">
        <ele>2.7</ele>
        <time>2020-06-03T14:27:26Z</time>
      </trkpt>
      <trkpt lat="46.53476" lon="-1.80608">
        <ele>2.7</ele>
        <time>2020-06-03T14:27:27Z</time>
      </trkpt>
      <trkpt lat="46.53479" lon="-1.80605">
        <ele>2.7</ele>
        <time>2020-06-03T14:27:28Z</time>
      </trkpt>
      <trkpt lat="46.53483" lon="-1.80602">
        <ele>2.7</ele>
        <time>2020-06-03T14:27:29Z</time>
      </trkpt>
      <trkpt lat="46.53486" lon="-1.806">
        <ele>2.7</ele>
        <time>2020-06-03T14:27:30Z</time>
      </trkpt>
      <trkpt lat="46.53489" lon="-1.80597">
        <ele>2.7</ele>
        <time>2020-06-03T14:27:31Z</time>
      </trkpt>
      <trkpt lat="46.53491" lon="-1.80596">
        <ele>2.7</ele>
        <time>2020-06-03T14:27:32Z</time>
      </trkpt>
      <trkpt lat="46.53495" lon="-1.80593">
        <ele>2.7</ele>
        <time>2020-06-03T14:27:33Z</time>
      </trkpt>
      <trkpt lat="46.53496" lon="-1.80593">
        <ele>2.7</ele>
        <time>2020-06-03T14:27:34Z</time>
      </trkpt>
      <trkpt lat="46.53499" lon="-1.8059">
        <ele>2.6</ele>
        <time>2020-06-03T14:27:35Z</time>
      </trkpt>
      <trkpt lat="46.53502" lon="-1.80588">
        <ele>2.6</ele>
        <time>2020-06-03T14:27:36Z</time>
      </trkpt>
      <trkpt lat="46.53504" lon="-1.80587">
        <ele>2.6</ele>
        <time>2020-06-03T14:27:37Z</time>
      </trkpt>
      <trkpt lat="46.53507" lon="-1.80585">
        <ele>2.6</ele>
        <time>2020-06-03T14:27:38Z</time>
      </trkpt>
      <trkpt lat="46.53509" lon="-1.80583">
        <ele>2.6</ele>
        <time>2020-06-03T14:27:39Z</time>
      </trkpt>
      <trkpt lat="46.53512" lon="-1.80581">
        <ele>2.6</ele>
        <time>2020-06-03T14:27:40Z</time>
      </trkpt>
      <trkpt lat="46.53515" lon="-1.80578">
        <ele>2.6</ele>
        <time>2020-06-03T14:27:41Z</time>
      </trkpt>
      <trkpt lat="46.53518" lon="-1.80575">
        <ele>2.6</ele>
        <time>2020-06-03T14:27:42Z</time>
      </trkpt>
      <trkpt lat="46.53521" lon="-1.80573">
        <ele>2.6</ele>
        <time>2020-06-03T14:27:43Z</time>
      </trkpt>
      <trkpt lat="46.53524" lon="-1.8057">
        <ele>2.6</ele>
        <time>2020-06-03T14:27:44Z</time>
      </trkpt>
      <trkpt lat="46.53528" lon="-1.80568">
        <ele>2.6</ele>
        <time>2020-06-03T14:27:45Z</time>
      </trkpt>
      <trkpt lat="46.53532" lon="-1.80565">
        <ele>2.6</ele>
        <time>2020-06-03T14:27:46Z</time>
      </trkpt>
      <trkpt lat="46.53535" lon="-1.80562">
        <ele>2.6</ele>
        <time>2020-06-03T14:27:47Z</time>
      </trkpt>
      <trkpt lat="46.53539" lon="-1.80561">
        <ele>2.6</ele>
        <time>2020-06-03T14:27:48Z</time>
      </trkpt>
      <trkpt lat="46.53543" lon="-1.80558">
        <ele>2.6</ele>
        <time>2020-06-03T14:27:49Z</time>
      </trkpt>
      <trkpt lat="46.53546" lon="-1.80555">
        <ele>2.7</ele>
        <time>2020-06-03T14:27:50Z</time>
      </trkpt>
      <trkpt lat="46.53549" lon="-1.80552">
        <ele>2.7</ele>
        <time>2020-06-03T14:27:51Z</time>
      </trkpt>
      <trkpt lat="46.53552" lon="-1.80549">
        <ele>2.7</ele>
        <time>2020-06-03T14:27:52Z</time>
      </trkpt>
      <trkpt lat="46.53556" lon="-1.80545">
        <ele>2.8</ele>
        <time>2020-06-03T14:27:53Z</time>
      </trkpt>
      <trkpt lat="46.53559" lon="-1.80542">
        <ele>2.8</ele>
        <time>2020-06-03T14:27:54Z</time>
      </trkpt>
      <trkpt lat="46.53563" lon="-1.8054">
        <ele>2.8</ele>
        <time>2020-06-03T14:27:55Z</time>
      </trkpt>
      <trkpt lat="46.53566" lon="-1.80537">
        <ele>2.8</ele>
        <time>2020-06-03T14:27:56Z</time>
      </trkpt>
      <trkpt lat="46.53572" lon="-1.80532">
        <ele>2.8</ele>
        <time>2020-06-03T14:27:57Z</time>
      </trkpt>
      <trkpt lat="46.53575" lon="-1.8053">
        <ele>2.8</ele>
        <time>2020-06-03T14:27:58Z</time>
      </trkpt>
      <trkpt lat="46.53579" lon="-1.80528">
        <ele>2.8</ele>
        <time>2020-06-03T14:27:59Z</time>
      </trkpt>
      <trkpt lat="46.53582" lon="-1.80524">
        <ele>2.8</ele>
        <time>2020-06-03T14:28:00Z</time>
      </trkpt>
      <trkpt lat="46.53586" lon="-1.80522">
        <ele>2.8</ele>
        <time>2020-06-03T14:28:01Z</time>
      </trkpt>
      <trkpt lat="46.53589" lon="-1.80518">
        <ele>2.8</ele>
        <time>2020-06-03T14:28:02Z</time>
      </trkpt>
      <trkpt lat="46.53592" lon="-1.80515">
        <ele>2.8</ele>
        <time>2020-06-03T14:28:03Z</time>
      </trkpt>
      <trkpt lat="46.53595" lon="-1.80512">
        <ele>2.8</ele>
        <time>2020-06-03T14:28:04Z</time>
      </trkpt>
      <trkpt lat="46.53599" lon="-1.80508">
        <ele>2.8</ele>
        <time>2020-06-03T14:28:05Z</time>
      </trkpt>
      <trkpt lat="46.53603" lon="-1.80504">
        <ele>2.8</ele>
        <time>2020-06-03T14:28:06Z</time>
      </trkpt>
      <trkpt lat="46.53607" lon="-1.80501">
        <ele>2.8</ele>
        <time>2020-06-03T14:28:07Z</time>
      </trkpt>
      <trkpt lat="46.53611" lon="-1.80498">
        <ele>2.8</ele>
        <time>2020-06-03T14:28:08Z</time>
      </trkpt>
      <trkpt lat="46.53614" lon="-1.80495">
        <ele>2.8</ele>
        <time>2020-06-03T14:28:09Z</time>
      </trkpt>
      <trkpt lat="46.53618" lon="-1.80492">
        <ele>2.8</ele>
        <time>2020-06-03T14:28:10Z</time>
      </trkpt>
      <trkpt lat="46.53622" lon="-1.80489">
        <ele>2.8</ele>
        <time>2020-06-03T14:28:11Z</time>
      </trkpt>
      <trkpt lat="46.53626" lon="-1.80487">
        <ele>2.9</ele>
        <time>2020-06-03T14:28:12Z</time>
      </trkpt>
      <trkpt lat="46.5363" lon="-1.80485">
        <ele>2.9</ele>
        <time>2020-06-03T14:28:13Z</time>
      </trkpt>
      <trkpt lat="46.53636" lon="-1.80483">
        <ele>2.9</ele>
        <time>2020-06-03T14:28:14Z</time>
      </trkpt>
      <trkpt lat="46.53639" lon="-1.80482">
        <ele>2.8</ele>
        <time>2020-06-03T14:28:15Z</time>
      </trkpt>
      <trkpt lat="46.53643" lon="-1.80481">
        <ele>2.8</ele>
        <time>2020-06-03T14:28:16Z</time>
      </trkpt>
      <trkpt lat="46.53647" lon="-1.8048">
        <ele>2.8</ele>
        <time>2020-06-03T14:28:17Z</time>
      </trkpt>
      <trkpt lat="46.53651" lon="-1.80479">
        <ele>2.8</ele>
        <time>2020-06-03T14:28:18Z</time>
      </trkpt>
      <trkpt lat="46.53655" lon="-1.8048">
        <ele>2.8</ele>
        <time>2020-06-03T14:28:19Z</time>
      </trkpt>
      <trkpt lat="46.5366" lon="-1.80477">
        <ele>2.8</ele>
        <time>2020-06-03T14:28:20Z</time>
      </trkpt>
      <trkpt lat="46.53664" lon="-1.80476">
        <ele>2.8</ele>
        <time>2020-06-03T14:28:21Z</time>
      </trkpt>
      <trkpt lat="46.53668" lon="-1.80474">
        <ele>2.8</ele>
        <time>2020-06-03T14:28:22Z</time>
      </trkpt>
      <trkpt lat="46.53673" lon="-1.80472">
        <ele>2.8</ele>
        <time>2020-06-03T14:28:23Z</time>
      </trkpt>
      <trkpt lat="46.53677" lon="-1.80471">
        <ele>2.8</ele>
        <time>2020-06-03T14:28:24Z</time>
      </trkpt>
      <trkpt lat="46.53682" lon="-1.80469">
        <ele>2.8</ele>
        <time>2020-06-03T14:28:25Z</time>
      </trkpt>
      <trkpt lat="46.53686" lon="-1.80468">
        <ele>2.8</ele>
        <time>2020-06-03T14:28:26Z</time>
      </trkpt>
      <trkpt lat="46.53691" lon="-1.80466">
        <ele>2.8</ele>
        <time>2020-06-03T14:28:27Z</time>
      </trkpt>
      <trkpt lat="46.53695" lon="-1.80464">
        <ele>2.8</ele>
        <time>2020-06-03T14:28:28Z</time>
      </trkpt>
      <trkpt lat="46.53699" lon="-1.80462">
        <ele>2.8</ele>
        <time>2020-06-03T14:28:29Z</time>
      </trkpt>
      <trkpt lat="46.53703" lon="-1.8046">
        <ele>2.7</ele>
        <time>2020-06-03T14:28:30Z</time>
      </trkpt>
      <trkpt lat="46.53708" lon="-1.80457">
        <ele>2.7</ele>
        <time>2020-06-03T14:28:31Z</time>
      </trkpt>
      <trkpt lat="46.53712" lon="-1.80455">
        <ele>2.7</ele>
        <time>2020-06-03T14:28:32Z</time>
      </trkpt>
      <trkpt lat="46.53717" lon="-1.80452">
        <ele>2.7</ele>
        <time>2020-06-03T14:28:33Z</time>
      </trkpt>
      <trkpt lat="46.53722" lon="-1.8045">
        <ele>2.7</ele>
        <time>2020-06-03T14:28:34Z</time>
      </trkpt>
      <trkpt lat="46.53727" lon="-1.80449">
        <ele>2.7</ele>
        <time>2020-06-03T14:28:35Z</time>
      </trkpt>
      <trkpt lat="46.53731" lon="-1.80445">
        <ele>2.7</ele>
        <time>2020-06-03T14:28:36Z</time>
      </trkpt>
      <trkpt lat="46.53735" lon="-1.80442">
        <ele>2.7</ele>
        <time>2020-06-03T14:28:37Z</time>
      </trkpt>
      <trkpt lat="46.53739" lon="-1.80439">
        <ele>2.7</ele>
        <time>2020-06-03T14:28:38Z</time>
      </trkpt>
      <trkpt lat="46.53744" lon="-1.80436">
        <ele>2.8</ele>
        <time>2020-06-03T14:28:39Z</time>
      </trkpt>
      <trkpt lat="46.53748" lon="-1.80433">
        <ele>2.8</ele>
        <time>2020-06-03T14:28:40Z</time>
      </trkpt>
      <trkpt lat="46.53752" lon="-1.8043">
        <ele>2.8</ele>
        <time>2020-06-03T14:28:41Z</time>
      </trkpt>
      <trkpt lat="46.53757" lon="-1.80428">
        <ele>2.8</ele>
        <time>2020-06-03T14:28:42Z</time>
      </trkpt>
      <trkpt lat="46.53761" lon="-1.80425">
        <ele>2.8</ele>
        <time>2020-06-03T14:28:43Z</time>
      </trkpt>
      <trkpt lat="46.53765" lon="-1.80423">
        <ele>2.8</ele>
        <time>2020-06-03T14:28:44Z</time>
      </trkpt>
      <trkpt lat="46.53769" lon="-1.80421">
        <ele>2.9</ele>
        <time>2020-06-03T14:28:45Z</time>
      </trkpt>
      <trkpt lat="46.53773" lon="-1.80419">
        <ele>2.9</ele>
        <time>2020-06-03T14:28:46Z</time>
      </trkpt>
      <trkpt lat="46.53778" lon="-1.80417">
        <ele>2.9</ele>
        <time>2020-06-03T14:28:47Z</time>
      </trkpt>
      <trkpt lat="46.53782" lon="-1.80414">
        <ele>2.9</ele>
        <time>2020-06-03T14:28:48Z</time>
      </trkpt>
      <trkpt lat="46.53787" lon="-1.80412">
        <ele>2.9</ele>
        <time>2020-06-03T14:28:49Z</time>
      </trkpt>
      <trkpt lat="46.53792" lon="-1.8041">
        <ele>2.9</ele>
        <time>2020-06-03T14:28:50Z</time>
      </trkpt>
      <trkpt lat="46.53796" lon="-1.80408">
        <ele>2.9</ele>
        <time>2020-06-03T14:28:51Z</time>
      </trkpt>
      <trkpt lat="46.53801" lon="-1.80405">
        <ele>2.9</ele>
        <time>2020-06-03T14:28:52Z</time>
      </trkpt>
      <trkpt lat="46.53805" lon="-1.80403">
        <ele>2.8</ele>
        <time>2020-06-03T14:28:53Z</time>
      </trkpt>
      <trkpt lat="46.53809" lon="-1.80401">
        <ele>2.8</ele>
        <time>2020-06-03T14:28:54Z</time>
      </trkpt>
      <trkpt lat="46.53814" lon="-1.80399">
        <ele>2.8</ele>
        <time>2020-06-03T14:28:55Z</time>
      </trkpt>
      <trkpt lat="46.53819" lon="-1.80396">
        <ele>2.8</ele>
        <time>2020-06-03T14:28:56Z</time>
      </trkpt>
      <trkpt lat="46.53823" lon="-1.80393">
        <ele>2.8</ele>
        <time>2020-06-03T14:28:57Z</time>
      </trkpt>
      <trkpt lat="46.53828" lon="-1.8039">
        <ele>2.8</ele>
        <time>2020-06-03T14:28:58Z</time>
      </trkpt>
      <trkpt lat="46.53832" lon="-1.80387">
        <ele>2.8</ele>
        <time>2020-06-03T14:28:59Z</time>
      </trkpt>
      <trkpt lat="46.53837" lon="-1.80384">
        <ele>2.8</ele>
        <time>2020-06-03T14:29:00Z</time>
      </trkpt>
      <trkpt lat="46.53841" lon="-1.80382">
        <ele>2.8</ele>
        <time>2020-06-03T14:29:01Z</time>
      </trkpt>
      <trkpt lat="46.53846" lon="-1.80379">
        <ele>2.7</ele>
        <time>2020-06-03T14:29:02Z</time>
      </trkpt>
      <trkpt lat="46.5385" lon="-1.80377">
        <ele>2.7</ele>
        <time>2020-06-03T14:29:03Z</time>
      </trkpt>
      <trkpt lat="46.53854" lon="-1.80373">
        <ele>2.6</ele>
        <time>2020-06-03T14:29:04Z</time>
      </trkpt>
      <trkpt lat="46.53859" lon="-1.8037">
        <ele>2.6</ele>
        <time>2020-06-03T14:29:05Z</time>
      </trkpt>
      <trkpt lat="46.53863" lon="-1.80368">
        <ele>2.6</ele>
        <time>2020-06-03T14:29:06Z</time>
      </trkpt>
      <trkpt lat="46.53868" lon="-1.80365">
        <ele>2.6</ele>
        <time>2020-06-03T14:29:07Z</time>
      </trkpt>
      <trkpt lat="46.53872" lon="-1.80362">
        <ele>2.6</ele>
        <time>2020-06-03T14:29:08Z</time>
      </trkpt>
      <trkpt lat="46.53876" lon="-1.80359">
        <ele>2.7</ele>
        <time>2020-06-03T14:29:09Z</time>
      </trkpt>
      <trkpt lat="46.53881" lon="-1.80356">
        <ele>2.7</ele>
        <time>2020-06-03T14:29:10Z</time>
      </trkpt>
      <trkpt lat="46.53885" lon="-1.80354">
        <ele>2.8</ele>
        <time>2020-06-03T14:29:11Z</time>
      </trkpt>
      <trkpt lat="46.53888" lon="-1.80352">
        <ele>2.8</ele>
        <time>2020-06-03T14:29:12Z</time>
      </trkpt>
      <trkpt lat="46.53892" lon="-1.80349">
        <ele>2.9</ele>
        <time>2020-06-03T14:29:13Z</time>
      </trkpt>
      <trkpt lat="46.53896" lon="-1.80346">
        <ele>2.9</ele>
        <time>2020-06-03T14:29:14Z</time>
      </trkpt>
      <trkpt lat="46.539" lon="-1.80344">
        <ele>3</ele>
        <time>2020-06-03T14:29:15Z</time>
      </trkpt>
      <trkpt lat="46.53903" lon="-1.80341">
        <ele>3</ele>
        <time>2020-06-03T14:29:16Z</time>
      </trkpt>
      <trkpt lat="46.53906" lon="-1.80338">
        <ele>3</ele>
        <time>2020-06-03T14:29:17Z</time>
      </trkpt>
      <trkpt lat="46.53909" lon="-1.80335">
        <ele>3.1</ele>
        <time>2020-06-03T14:29:18Z</time>
      </trkpt>
      <trkpt lat="46.53913" lon="-1.80333">
        <ele>3.1</ele>
        <time>2020-06-03T14:29:19Z</time>
      </trkpt>
      <trkpt lat="46.53916" lon="-1.8033">
        <ele>3.1</ele>
        <time>2020-06-03T14:29:20Z</time>
      </trkpt>
      <trkpt lat="46.5392" lon="-1.80329">
        <ele>3.1</ele>
        <time>2020-06-03T14:29:21Z</time>
      </trkpt>
      <trkpt lat="46.53924" lon="-1.80327">
        <ele>3.1</ele>
        <time>2020-06-03T14:29:22Z</time>
      </trkpt>
      <trkpt lat="46.53927" lon="-1.80324">
        <ele>3.1</ele>
        <time>2020-06-03T14:29:23Z</time>
      </trkpt>
      <trkpt lat="46.53931" lon="-1.80322">
        <ele>3.1</ele>
        <time>2020-06-03T14:29:24Z</time>
      </trkpt>
      <trkpt lat="46.53935" lon="-1.80318">
        <ele>3.1</ele>
        <time>2020-06-03T14:29:25Z</time>
      </trkpt>
      <trkpt lat="46.53938" lon="-1.80315">
        <ele>3.1</ele>
        <time>2020-06-03T14:29:26Z</time>
      </trkpt>
      <trkpt lat="46.53941" lon="-1.80313">
        <ele>3.2</ele>
        <time>2020-06-03T14:29:27Z</time>
      </trkpt>
      <trkpt lat="46.53945" lon="-1.8031">
        <ele>3.2</ele>
        <time>2020-06-03T14:29:28Z</time>
      </trkpt>
      <trkpt lat="46.53948" lon="-1.80306">
        <ele>3.2</ele>
        <time>2020-06-03T14:29:29Z</time>
      </trkpt>
      <trkpt lat="46.53952" lon="-1.80302">
        <ele>3.2</ele>
        <time>2020-06-03T14:29:30Z</time>
      </trkpt>
      <trkpt lat="46.53956" lon="-1.80298">
        <ele>3.2</ele>
        <time>2020-06-03T14:29:31Z</time>
      </trkpt>
      <trkpt lat="46.53959" lon="-1.80293">
        <ele>3.2</ele>
        <time>2020-06-03T14:29:32Z</time>
      </trkpt>
      <trkpt lat="46.53961" lon="-1.80289">
        <ele>3.2</ele>
        <time>2020-06-03T14:29:33Z</time>
      </trkpt>
      <trkpt lat="46.53964" lon="-1.80284">
        <ele>3.2</ele>
        <time>2020-06-03T14:29:34Z</time>
      </trkpt>
      <trkpt lat="46.53966" lon="-1.8028">
        <ele>3.2</ele>
        <time>2020-06-03T14:29:35Z</time>
      </trkpt>
      <trkpt lat="46.5397" lon="-1.80276">
        <ele>3.3</ele>
        <time>2020-06-03T14:29:36Z</time>
      </trkpt>
      <trkpt lat="46.53972" lon="-1.80271">
        <ele>3.3</ele>
        <time>2020-06-03T14:29:37Z</time>
      </trkpt>
      <trkpt lat="46.53976" lon="-1.80267">
        <ele>3.4</ele>
        <time>2020-06-03T14:29:38Z</time>
      </trkpt>
      <trkpt lat="46.53979" lon="-1.80263">
        <ele>3.4</ele>
        <time>2020-06-03T14:29:39Z</time>
      </trkpt>
      <trkpt lat="46.53982" lon="-1.80259">
        <ele>3.4</ele>
        <time>2020-06-03T14:29:40Z</time>
      </trkpt>
      <trkpt lat="46.53985" lon="-1.80255">
        <ele>3.5</ele>
        <time>2020-06-03T14:29:41Z</time>
      </trkpt>
      <trkpt lat="46.53988" lon="-1.80251">
        <ele>3.5</ele>
        <time>2020-06-03T14:29:42Z</time>
      </trkpt>
      <trkpt lat="46.53992" lon="-1.80247">
        <ele>3.6</ele>
        <time>2020-06-03T14:29:43Z</time>
      </trkpt>
      <trkpt lat="46.53995" lon="-1.80243">
        <ele>3.6</ele>
        <time>2020-06-03T14:29:44Z</time>
      </trkpt>
      <trkpt lat="46.53998" lon="-1.80239">
        <ele>3.6</ele>
        <time>2020-06-03T14:29:45Z</time>
      </trkpt>
      <trkpt lat="46.54" lon="-1.80235">
        <ele>3.6</ele>
        <time>2020-06-03T14:29:46Z</time>
      </trkpt>
      <trkpt lat="46.54002" lon="-1.8023">
        <ele>3.7</ele>
        <time>2020-06-03T14:29:47Z</time>
      </trkpt>
      <trkpt lat="46.54005" lon="-1.80225">
        <ele>3.7</ele>
        <time>2020-06-03T14:29:48Z</time>
      </trkpt>
      <trkpt lat="46.54008" lon="-1.80222">
        <ele>3.7</ele>
        <time>2020-06-03T14:29:49Z</time>
      </trkpt>
      <trkpt lat="46.5401" lon="-1.80218">
        <ele>3.8</ele>
        <time>2020-06-03T14:29:50Z</time>
      </trkpt>
      <trkpt lat="46.54012" lon="-1.80215">
        <ele>3.8</ele>
        <time>2020-06-03T14:29:51Z</time>
      </trkpt>
      <trkpt lat="46.54014" lon="-1.80212">
        <ele>3.8</ele>
        <time>2020-06-03T14:29:52Z</time>
      </trkpt>
      <trkpt lat="46.54017" lon="-1.80208">
        <ele>3.9</ele>
        <time>2020-06-03T14:29:53Z</time>
      </trkpt>
      <trkpt lat="46.5402" lon="-1.80204">
        <ele>3.9</ele>
        <time>2020-06-03T14:29:54Z</time>
      </trkpt>
      <trkpt lat="46.54022" lon="-1.802">
        <ele>4</ele>
        <time>2020-06-03T14:29:55Z</time>
      </trkpt>
      <trkpt lat="46.54024" lon="-1.80196">
        <ele>4</ele>
        <time>2020-06-03T14:29:56Z</time>
      </trkpt>
      <trkpt lat="46.54025" lon="-1.80193">
        <ele>4</ele>
        <time>2020-06-03T14:29:57Z</time>
      </trkpt>
      <trkpt lat="46.54028" lon="-1.80189">
        <ele>4</ele>
        <time>2020-06-03T14:29:58Z</time>
      </trkpt>
      <trkpt lat="46.54028" lon="-1.80188">
        <ele>4</ele>
        <time>2020-06-03T14:29:59Z</time>
      </trkpt>
      <trkpt lat="46.54031" lon="-1.80187">
        <ele>4</ele>
        <time>2020-06-03T14:30:00Z</time>
      </trkpt>
      <trkpt lat="46.54032" lon="-1.80187">
        <ele>4</ele>
        <time>2020-06-03T14:30:01Z</time>
      </trkpt>
      <trkpt lat="46.54035" lon="-1.80185">
        <ele>4</ele>
        <time>2020-06-03T14:30:02Z</time>
      </trkpt>
      <trkpt lat="46.54039" lon="-1.80185">
        <ele>4</ele>
        <time>2020-06-03T14:30:03Z</time>
      </trkpt>
      <trkpt lat="46.54042" lon="-1.80187">
        <ele>4</ele>
        <time>2020-06-03T14:30:04Z</time>
      </trkpt>
      <trkpt lat="46.54045" lon="-1.80188">
        <ele>4</ele>
        <time>2020-06-03T14:30:05Z</time>
      </trkpt>
      <trkpt lat="46.54049" lon="-1.80188">
        <ele>4</ele>
        <time>2020-06-03T14:30:06Z</time>
      </trkpt>
      <trkpt lat="46.54054" lon="-1.80189">
        <ele>4</ele>
        <time>2020-06-03T14:30:07Z</time>
      </trkpt>
      <trkpt lat="46.54058" lon="-1.80189">
        <ele>4</ele>
        <time>2020-06-03T14:30:08Z</time>
      </trkpt>
      <trkpt lat="46.54062" lon="-1.80189">
        <ele>4</ele>
        <time>2020-06-03T14:30:09Z</time>
      </trkpt>
      <trkpt lat="46.54067" lon="-1.8019">
        <ele>4</ele>
        <time>2020-06-03T14:30:10Z</time>
      </trkpt>
      <trkpt lat="46.54071" lon="-1.8019">
        <ele>4</ele>
        <time>2020-06-03T14:30:11Z</time>
      </trkpt>
      <trkpt lat="46.54076" lon="-1.80191">
        <ele>4</ele>
        <time>2020-06-03T14:30:12Z</time>
      </trkpt>
      <trkpt lat="46.5408" lon="-1.80191">
        <ele>4</ele>
        <time>2020-06-03T14:30:13Z</time>
      </trkpt>
      <trkpt lat="46.54085" lon="-1.80191">
        <ele>4</ele>
        <time>2020-06-03T14:30:14Z</time>
      </trkpt>
      <trkpt lat="46.54089" lon="-1.80192">
        <ele>4</ele>
        <time>2020-06-03T14:30:15Z</time>
      </trkpt>
      <trkpt lat="46.54094" lon="-1.80193">
        <ele>4</ele>
        <time>2020-06-03T14:30:16Z</time>
      </trkpt>
      <trkpt lat="46.54098" lon="-1.80193">
        <ele>4</ele>
        <time>2020-06-03T14:30:17Z</time>
      </trkpt>
      <trkpt lat="46.54103" lon="-1.80195">
        <ele>4</ele>
        <time>2020-06-03T14:30:18Z</time>
      </trkpt>
      <trkpt lat="46.54107" lon="-1.80196">
        <ele>4</ele>
        <time>2020-06-03T14:30:19Z</time>
      </trkpt>
      <trkpt lat="46.54112" lon="-1.80197">
        <ele>4</ele>
        <time>2020-06-03T14:30:20Z</time>
      </trkpt>
      <trkpt lat="46.54117" lon="-1.80199">
        <ele>4</ele>
        <time>2020-06-03T14:30:21Z</time>
      </trkpt>
      <trkpt lat="46.54121" lon="-1.80201">
        <ele>4</ele>
        <time>2020-06-03T14:30:22Z</time>
      </trkpt>
      <trkpt lat="46.54126" lon="-1.80202">
        <ele>4</ele>
        <time>2020-06-03T14:30:23Z</time>
      </trkpt>
      <trkpt lat="46.54131" lon="-1.80203">
        <ele>4</ele>
        <time>2020-06-03T14:30:24Z</time>
      </trkpt>
      <trkpt lat="46.54135" lon="-1.80204">
        <ele>4</ele>
        <time>2020-06-03T14:30:25Z</time>
      </trkpt>
      <trkpt lat="46.5414" lon="-1.80205">
        <ele>4</ele>
        <time>2020-06-03T14:30:26Z</time>
      </trkpt>
      <trkpt lat="46.54145" lon="-1.80206">
        <ele>4</ele>
        <time>2020-06-03T14:30:27Z</time>
      </trkpt>
      <trkpt lat="46.54149" lon="-1.80206">
        <ele>4</ele>
        <time>2020-06-03T14:30:28Z</time>
      </trkpt>
      <trkpt lat="46.54153" lon="-1.80206">
        <ele>4</ele>
        <time>2020-06-03T14:30:29Z</time>
      </trkpt>
      <trkpt lat="46.54159" lon="-1.80205">
        <ele>4</ele>
        <time>2020-06-03T14:30:30Z</time>
      </trkpt>
      <trkpt lat="46.54164" lon="-1.80204">
        <ele>4</ele>
        <time>2020-06-03T14:30:31Z</time>
      </trkpt>
      <trkpt lat="46.5417" lon="-1.80204">
        <ele>4</ele>
        <time>2020-06-03T14:30:32Z</time>
      </trkpt>
      <trkpt lat="46.54175" lon="-1.80205">
        <ele>4</ele>
        <time>2020-06-03T14:30:33Z</time>
      </trkpt>
      <trkpt lat="46.5418" lon="-1.80205">
        <ele>4</ele>
        <time>2020-06-03T14:30:34Z</time>
      </trkpt>
      <trkpt lat="46.54185" lon="-1.80205">
        <ele>4</ele>
        <time>2020-06-03T14:30:35Z</time>
      </trkpt>
      <trkpt lat="46.54189" lon="-1.80205">
        <ele>4</ele>
        <time>2020-06-03T14:30:36Z</time>
      </trkpt>
      <trkpt lat="46.54194" lon="-1.80204">
        <ele>4</ele>
        <time>2020-06-03T14:30:37Z</time>
      </trkpt>
      <trkpt lat="46.54199" lon="-1.80204">
        <ele>4</ele>
        <time>2020-06-03T14:30:38Z</time>
      </trkpt>
      <trkpt lat="46.54204" lon="-1.80203">
        <ele>4</ele>
        <time>2020-06-03T14:30:39Z</time>
      </trkpt>
      <trkpt lat="46.54209" lon="-1.80201">
        <ele>4</ele>
        <time>2020-06-03T14:30:40Z</time>
      </trkpt>
      <trkpt lat="46.54214" lon="-1.80199">
        <ele>4</ele>
        <time>2020-06-03T14:30:41Z</time>
      </trkpt>
      <trkpt lat="46.54218" lon="-1.80197">
        <ele>3.9</ele>
        <time>2020-06-03T14:30:42Z</time>
      </trkpt>
      <trkpt lat="46.54222" lon="-1.80194">
        <ele>3.9</ele>
        <time>2020-06-03T14:30:43Z</time>
      </trkpt>
      <trkpt lat="46.54227" lon="-1.80192">
        <ele>3.9</ele>
        <time>2020-06-03T14:30:44Z</time>
      </trkpt>
      <trkpt lat="46.54232" lon="-1.80189">
        <ele>3.9</ele>
        <time>2020-06-03T14:30:45Z</time>
      </trkpt>
      <trkpt lat="46.54236" lon="-1.80187">
        <ele>3.8</ele>
        <time>2020-06-03T14:30:46Z</time>
      </trkpt>
      <trkpt lat="46.54241" lon="-1.80185">
        <ele>3.8</ele>
        <time>2020-06-03T14:30:47Z</time>
      </trkpt>
      <trkpt lat="46.54245" lon="-1.80181">
        <ele>3.8</ele>
        <time>2020-06-03T14:30:48Z</time>
      </trkpt>
      <trkpt lat="46.54249" lon="-1.80178">
        <ele>3.8</ele>
        <time>2020-06-03T14:30:49Z</time>
      </trkpt>
      <trkpt lat="46.54253" lon="-1.80175">
        <ele>3.7</ele>
        <time>2020-06-03T14:30:50Z</time>
      </trkpt>
      <trkpt lat="46.54257" lon="-1.80172">
        <ele>3.7</ele>
        <time>2020-06-03T14:30:51Z</time>
      </trkpt>
      <trkpt lat="46.54261" lon="-1.80169">
        <ele>3.7</ele>
        <time>2020-06-03T14:30:52Z</time>
      </trkpt>
      <trkpt lat="46.54265" lon="-1.80166">
        <ele>3.7</ele>
        <time>2020-06-03T14:30:53Z</time>
      </trkpt>
      <trkpt lat="46.54268" lon="-1.80164">
        <ele>3.7</ele>
        <time>2020-06-03T14:30:54Z</time>
      </trkpt>
      <trkpt lat="46.54271" lon="-1.80162">
        <ele>3.7</ele>
        <time>2020-06-03T14:30:55Z</time>
      </trkpt>
      <trkpt lat="46.54274" lon="-1.8016">
        <ele>3.7</ele>
        <time>2020-06-03T14:30:56Z</time>
      </trkpt>
      <trkpt lat="46.54276" lon="-1.8016">
        <ele>3.6</ele>
        <time>2020-06-03T14:30:57Z</time>
      </trkpt>
      <trkpt lat="46.54279" lon="-1.8016">
        <ele>3.6</ele>
        <time>2020-06-03T14:30:58Z</time>
      </trkpt>
      <trkpt lat="46.54282" lon="-1.80162">
        <ele>3.6</ele>
        <time>2020-06-03T14:30:59Z</time>
      </trkpt>
      <trkpt lat="46.54285" lon="-1.80166">
        <ele>3.6</ele>
        <time>2020-06-03T14:31:00Z</time>
      </trkpt>
      <trkpt lat="46.54287" lon="-1.80171">
        <ele>3.6</ele>
        <time>2020-06-03T14:31:01Z</time>
      </trkpt>
      <trkpt lat="46.5429" lon="-1.80176">
        <ele>3.6</ele>
        <time>2020-06-03T14:31:02Z</time>
      </trkpt>
      <trkpt lat="46.54293" lon="-1.8018">
        <ele>3.6</ele>
        <time>2020-06-03T14:31:03Z</time>
      </trkpt>
      <trkpt lat="46.54296" lon="-1.80184">
        <ele>3.6</ele>
        <time>2020-06-03T14:31:04Z</time>
      </trkpt>
      <trkpt lat="46.54299" lon="-1.80188">
        <ele>3.6</ele>
        <time>2020-06-03T14:31:05Z</time>
      </trkpt>
      <trkpt lat="46.54302" lon="-1.80192">
        <ele>3.6</ele>
        <time>2020-06-03T14:31:06Z</time>
      </trkpt>
      <trkpt lat="46.54304" lon="-1.80196">
        <ele>3.6</ele>
        <time>2020-06-03T14:31:07Z</time>
      </trkpt>
      <trkpt lat="46.54307" lon="-1.80201">
        <ele>3.6</ele>
        <time>2020-06-03T14:31:08Z</time>
      </trkpt>
      <trkpt lat="46.54309" lon="-1.80207">
        <ele>3.6</ele>
        <time>2020-06-03T14:31:09Z</time>
      </trkpt>
      <trkpt lat="46.5431" lon="-1.80214">
        <ele>3.6</ele>
        <time>2020-06-03T14:31:10Z</time>
      </trkpt>
      <trkpt lat="46.54308" lon="-1.8022">
        <ele>3.4</ele>
        <time>2020-06-03T14:31:11Z</time>
      </trkpt>
      <trkpt lat="46.54306" lon="-1.80225">
        <ele>3.4</ele>
        <time>2020-06-03T14:31:12Z</time>
      </trkpt>
      <trkpt lat="46.54303" lon="-1.80229">
        <ele>3.3</ele>
        <time>2020-06-03T14:31:13Z</time>
      </trkpt>
      <trkpt lat="46.54301" lon="-1.80232">
        <ele>3.3</ele>
        <time>2020-06-03T14:31:14Z</time>
      </trkpt>
      <trkpt lat="46.543" lon="-1.80235">
        <ele>3.2</ele>
        <time>2020-06-03T14:31:15Z</time>
      </trkpt>
      <trkpt lat="46.54299" lon="-1.80241">
        <ele>3.2</ele>
        <time>2020-06-03T14:31:16Z</time>
      </trkpt>
      <trkpt lat="46.543" lon="-1.80243">
        <ele>3.1</ele>
        <time>2020-06-03T14:31:17Z</time>
      </trkpt>
      <trkpt lat="46.543" lon="-1.80247">
        <ele>3.1</ele>
        <time>2020-06-03T14:31:18Z</time>
      </trkpt>
      <trkpt lat="46.54301" lon="-1.80253">
        <ele>3</ele>
        <time>2020-06-03T14:31:19Z</time>
      </trkpt>
      <trkpt lat="46.54302" lon="-1.80256">
        <ele>3</ele>
        <time>2020-06-03T14:31:20Z</time>
      </trkpt>
      <trkpt lat="46.54302" lon="-1.80262">
        <ele>2.9</ele>
        <time>2020-06-03T14:31:21Z</time>
      </trkpt>
      <trkpt lat="46.54303" lon="-1.80267">
        <ele>2.9</ele>
        <time>2020-06-03T14:31:22Z</time>
      </trkpt>
      <trkpt lat="46.54303" lon="-1.80274">
        <ele>2.9</ele>
        <time>2020-06-03T14:31:23Z</time>
      </trkpt>
      <trkpt lat="46.54302" lon="-1.8028">
        <ele>2.8</ele>
        <time>2020-06-03T14:31:24Z</time>
      </trkpt>
      <trkpt lat="46.543" lon="-1.80286">
        <ele>2.8</ele>
        <time>2020-06-03T14:31:25Z</time>
      </trkpt>
      <trkpt lat="46.54299" lon="-1.80292">
        <ele>2.8</ele>
        <time>2020-06-03T14:31:26Z</time>
      </trkpt>
      <trkpt lat="46.54298" lon="-1.80297">
        <ele>2.8</ele>
        <time>2020-06-03T14:31:27Z</time>
      </trkpt>
      <trkpt lat="46.54298" lon="-1.80302">
        <ele>2.8</ele>
        <time>2020-06-03T14:31:28Z</time>
      </trkpt>
      <trkpt lat="46.54298" lon="-1.80308">
        <ele>2.8</ele>
        <time>2020-06-03T14:31:29Z</time>
      </trkpt>
      <trkpt lat="46.54298" lon="-1.80314">
        <ele>2.7</ele>
        <time>2020-06-03T14:31:30Z</time>
      </trkpt>
      <trkpt lat="46.54298" lon="-1.8032">
        <ele>2.7</ele>
        <time>2020-06-03T14:31:31Z</time>
      </trkpt>
      <trkpt lat="46.54299" lon="-1.80327">
        <ele>2.7</ele>
        <time>2020-06-03T14:31:32Z</time>
      </trkpt>
      <trkpt lat="46.543" lon="-1.80332">
        <ele>2.7</ele>
        <time>2020-06-03T14:31:33Z</time>
      </trkpt>
      <trkpt lat="46.54302" lon="-1.80338">
        <ele>2.7</ele>
        <time>2020-06-03T14:31:34Z</time>
      </trkpt>
      <trkpt lat="46.54304" lon="-1.80345">
        <ele>2.7</ele>
        <time>2020-06-03T14:31:35Z</time>
      </trkpt>
      <trkpt lat="46.54306" lon="-1.80351">
        <ele>2.7</ele>
        <time>2020-06-03T14:31:36Z</time>
      </trkpt>
      <trkpt lat="46.54308" lon="-1.80356">
        <ele>2.7</ele>
        <time>2020-06-03T14:31:37Z</time>
      </trkpt>
      <trkpt lat="46.54311" lon="-1.80361">
        <ele>2.7</ele>
        <time>2020-06-03T14:31:38Z</time>
      </trkpt>
      <trkpt lat="46.54312" lon="-1.80367">
        <ele>2.7</ele>
        <time>2020-06-03T14:31:39Z</time>
      </trkpt>
      <trkpt lat="46.54314" lon="-1.80374">
        <ele>2.7</ele>
        <time>2020-06-03T14:31:40Z</time>
      </trkpt>
      <trkpt lat="46.54315" lon="-1.8038">
        <ele>2.7</ele>
        <time>2020-06-03T14:31:41Z</time>
      </trkpt>
      <trkpt lat="46.54316" lon="-1.80386">
        <ele>2.7</ele>
        <time>2020-06-03T14:31:42Z</time>
      </trkpt>
      <trkpt lat="46.54317" lon="-1.80393">
        <ele>2.7</ele>
        <time>2020-06-03T14:31:43Z</time>
      </trkpt>
      <trkpt lat="46.54318" lon="-1.804">
        <ele>2.7</ele>
        <time>2020-06-03T14:31:44Z</time>
      </trkpt>
      <trkpt lat="46.54319" lon="-1.80407">
        <ele>2.7</ele>
        <time>2020-06-03T14:31:45Z</time>
      </trkpt>
      <trkpt lat="46.5432" lon="-1.80414">
        <ele>2.6</ele>
        <time>2020-06-03T14:31:46Z</time>
      </trkpt>
      <trkpt lat="46.54321" lon="-1.8042">
        <ele>2.6</ele>
        <time>2020-06-03T14:31:47Z</time>
      </trkpt>
      <trkpt lat="46.54322" lon="-1.80426">
        <ele>2.6</ele>
        <time>2020-06-03T14:31:48Z</time>
      </trkpt>
      <trkpt lat="46.54323" lon="-1.80432">
        <ele>2.6</ele>
        <time>2020-06-03T14:31:49Z</time>
      </trkpt>
      <trkpt lat="46.54324" lon="-1.80438">
        <ele>2.6</ele>
        <time>2020-06-03T14:31:50Z</time>
      </trkpt>
      <trkpt lat="46.54324" lon="-1.80443">
        <ele>2.6</ele>
        <time>2020-06-03T14:31:51Z</time>
      </trkpt>
      <trkpt lat="46.54326" lon="-1.80449">
        <ele>2.6</ele>
        <time>2020-06-03T14:31:52Z</time>
      </trkpt>
      <trkpt lat="46.54327" lon="-1.80454">
        <ele>2.6</ele>
        <time>2020-06-03T14:31:53Z</time>
      </trkpt>
      <trkpt lat="46.54329" lon="-1.8046">
        <ele>2.5</ele>
        <time>2020-06-03T14:31:54Z</time>
      </trkpt>
      <trkpt lat="46.5433" lon="-1.80465">
        <ele>2.5</ele>
        <time>2020-06-03T14:31:55Z</time>
      </trkpt>
      <trkpt lat="46.54333" lon="-1.8047">
        <ele>2.5</ele>
        <time>2020-06-03T14:31:56Z</time>
      </trkpt>
      <trkpt lat="46.54335" lon="-1.80476">
        <ele>2.5</ele>
        <time>2020-06-03T14:31:57Z</time>
      </trkpt>
      <trkpt lat="46.54336" lon="-1.80482">
        <ele>2.5</ele>
        <time>2020-06-03T14:31:58Z</time>
      </trkpt>
      <trkpt lat="46.54338" lon="-1.80488">
        <ele>2.5</ele>
        <time>2020-06-03T14:31:59Z</time>
      </trkpt>
      <trkpt lat="46.54339" lon="-1.80495">
        <ele>2.5</ele>
        <time>2020-06-03T14:32:00Z</time>
      </trkpt>
      <trkpt lat="46.5434" lon="-1.80501">
        <ele>2.5</ele>
        <time>2020-06-03T14:32:01Z</time>
      </trkpt>
      <trkpt lat="46.54341" lon="-1.80507">
        <ele>2.5</ele>
        <time>2020-06-03T14:32:02Z</time>
      </trkpt>
      <trkpt lat="46.54341" lon="-1.80514">
        <ele>2.5</ele>
        <time>2020-06-03T14:32:03Z</time>
      </trkpt>
      <trkpt lat="46.54341" lon="-1.80519">
        <ele>2.5</ele>
        <time>2020-06-03T14:32:04Z</time>
      </trkpt>
      <trkpt lat="46.54341" lon="-1.80525">
        <ele>2.4</ele>
        <time>2020-06-03T14:32:05Z</time>
      </trkpt>
      <trkpt lat="46.54342" lon="-1.80531">
        <ele>2.4</ele>
        <time>2020-06-03T14:32:06Z</time>
      </trkpt>
      <trkpt lat="46.54342" lon="-1.80538">
        <ele>2.4</ele>
        <time>2020-06-03T14:32:07Z</time>
      </trkpt>
      <trkpt lat="46.54343" lon="-1.80545">
        <ele>2.4</ele>
        <time>2020-06-03T14:32:08Z</time>
      </trkpt>
      <trkpt lat="46.54344" lon="-1.80552">
        <ele>2.4</ele>
        <time>2020-06-03T14:32:09Z</time>
      </trkpt>
      <trkpt lat="46.54345" lon="-1.80558">
        <ele>2.4</ele>
        <time>2020-06-03T14:32:10Z</time>
      </trkpt>
      <trkpt lat="46.54346" lon="-1.80565">
        <ele>2.4</ele>
        <time>2020-06-03T14:32:11Z</time>
      </trkpt>
      <trkpt lat="46.54347" lon="-1.8057">
        <ele>2.4</ele>
        <time>2020-06-03T14:32:12Z</time>
      </trkpt>
      <trkpt lat="46.54348" lon="-1.80576">
        <ele>2.4</ele>
        <time>2020-06-03T14:32:13Z</time>
      </trkpt>
      <trkpt lat="46.5435" lon="-1.80581">
        <ele>2.4</ele>
        <time>2020-06-03T14:32:14Z</time>
      </trkpt>
      <trkpt lat="46.54352" lon="-1.80586">
        <ele>2.5</ele>
        <time>2020-06-03T14:32:15Z</time>
      </trkpt>
      <trkpt lat="46.54354" lon="-1.80591">
        <ele>2.5</ele>
        <time>2020-06-03T14:32:16Z</time>
      </trkpt>
      <trkpt lat="46.54356" lon="-1.80596">
        <ele>2.5</ele>
        <time>2020-06-03T14:32:17Z</time>
      </trkpt>
      <trkpt lat="46.54358" lon="-1.80601">
        <ele>2.5</ele>
        <time>2020-06-03T14:32:18Z</time>
      </trkpt>
      <trkpt lat="46.5436" lon="-1.80607">
        <ele>2.5</ele>
        <time>2020-06-03T14:32:19Z</time>
      </trkpt>
      <trkpt lat="46.54362" lon="-1.80614">
        <ele>2.6</ele>
        <time>2020-06-03T14:32:20Z</time>
      </trkpt>
      <trkpt lat="46.54362" lon="-1.8062">
        <ele>2.6</ele>
        <time>2020-06-03T14:32:21Z</time>
      </trkpt>
      <trkpt lat="46.54363" lon="-1.80626">
        <ele>2.6</ele>
        <time>2020-06-03T14:32:22Z</time>
      </trkpt>
      <trkpt lat="46.54364" lon="-1.80632">
        <ele>2.6</ele>
        <time>2020-06-03T14:32:23Z</time>
      </trkpt>
      <trkpt lat="46.54364" lon="-1.80638">
        <ele>2.7</ele>
        <time>2020-06-03T14:32:24Z</time>
      </trkpt>
      <trkpt lat="46.54364" lon="-1.80645">
        <ele>2.7</ele>
        <time>2020-06-03T14:32:25Z</time>
      </trkpt>
      <trkpt lat="46.54365" lon="-1.80652">
        <ele>2.8</ele>
        <time>2020-06-03T14:32:26Z</time>
      </trkpt>
      <trkpt lat="46.54365" lon="-1.80659">
        <ele>2.8</ele>
        <time>2020-06-03T14:32:27Z</time>
      </trkpt>
      <trkpt lat="46.54364" lon="-1.80665">
        <ele>2.8</ele>
        <time>2020-06-03T14:32:28Z</time>
      </trkpt>
      <trkpt lat="46.54363" lon="-1.80671">
        <ele>2.8</ele>
        <time>2020-06-03T14:32:29Z</time>
      </trkpt>
      <trkpt lat="46.54362" lon="-1.80677">
        <ele>2.8</ele>
        <time>2020-06-03T14:32:30Z</time>
      </trkpt>
      <trkpt lat="46.5436" lon="-1.80683">
        <ele>2.8</ele>
        <time>2020-06-03T14:32:31Z</time>
      </trkpt>
      <trkpt lat="46.54358" lon="-1.80689">
        <ele>2.8</ele>
        <time>2020-06-03T14:32:32Z</time>
      </trkpt>
      <trkpt lat="46.54356" lon="-1.80694">
        <ele>2.7</ele>
        <time>2020-06-03T14:32:33Z</time>
      </trkpt>
      <trkpt lat="46.54354" lon="-1.80699">
        <ele>2.7</ele>
        <time>2020-06-03T14:32:34Z</time>
      </trkpt>
      <trkpt lat="46.54352" lon="-1.80704">
        <ele>2.7</ele>
        <time>2020-06-03T14:32:35Z</time>
      </trkpt>
      <trkpt lat="46.54351" lon="-1.8071">
        <ele>2.7</ele>
        <time>2020-06-03T14:32:36Z</time>
      </trkpt>
      <trkpt lat="46.5435" lon="-1.80716">
        <ele>2.7</ele>
        <time>2020-06-03T14:32:37Z</time>
      </trkpt>
      <trkpt lat="46.54349" lon="-1.80723">
        <ele>2.7</ele>
        <time>2020-06-03T14:32:38Z</time>
      </trkpt>
      <trkpt lat="46.54348" lon="-1.80731">
        <ele>2.7</ele>
        <time>2020-06-03T14:32:39Z</time>
      </trkpt>
      <trkpt lat="46.54348" lon="-1.80738">
        <ele>2.7</ele>
        <time>2020-06-03T14:32:40Z</time>
      </trkpt>
      <trkpt lat="46.54348" lon="-1.80746">
        <ele>2.7</ele>
        <time>2020-06-03T14:32:41Z</time>
      </trkpt>
      <trkpt lat="46.54349" lon="-1.80752">
        <ele>2.7</ele>
        <time>2020-06-03T14:32:42Z</time>
      </trkpt>
      <trkpt lat="46.54349" lon="-1.8076">
        <ele>2.7</ele>
        <time>2020-06-03T14:32:43Z</time>
      </trkpt>
      <trkpt lat="46.54349" lon="-1.80767">
        <ele>2.7</ele>
        <time>2020-06-03T14:32:44Z</time>
      </trkpt>
      <trkpt lat="46.54349" lon="-1.80774">
        <ele>2.6</ele>
        <time>2020-06-03T14:32:45Z</time>
      </trkpt>
      <trkpt lat="46.54349" lon="-1.80781">
        <ele>2.6</ele>
        <time>2020-06-03T14:32:46Z</time>
      </trkpt>
      <trkpt lat="46.5435" lon="-1.80788">
        <ele>2.6</ele>
        <time>2020-06-03T14:32:47Z</time>
      </trkpt>
      <trkpt lat="46.5435" lon="-1.80796">
        <ele>2.6</ele>
        <time>2020-06-03T14:32:48Z</time>
      </trkpt>
      <trkpt lat="46.5435" lon="-1.80803">
        <ele>2.6</ele>
        <time>2020-06-03T14:32:49Z</time>
      </trkpt>
      <trkpt lat="46.54353" lon="-1.80809">
        <ele>2.6</ele>
        <time>2020-06-03T14:32:50Z</time>
      </trkpt>
      <trkpt lat="46.54355" lon="-1.80814">
        <ele>2.6</ele>
        <time>2020-06-03T14:32:51Z</time>
      </trkpt>
      <trkpt lat="46.54358" lon="-1.80819">
        <ele>2.6</ele>
        <time>2020-06-03T14:32:52Z</time>
      </trkpt>
      <trkpt lat="46.54361" lon="-1.80824">
        <ele>2.5</ele>
        <time>2020-06-03T14:32:53Z</time>
      </trkpt>
      <trkpt lat="46.54364" lon="-1.80831">
        <ele>2.5</ele>
        <time>2020-06-03T14:32:54Z</time>
      </trkpt>
      <trkpt lat="46.54366" lon="-1.80837">
        <ele>2.5</ele>
        <time>2020-06-03T14:32:55Z</time>
      </trkpt>
      <trkpt lat="46.54368" lon="-1.80843">
        <ele>2.6</ele>
        <time>2020-06-03T14:32:56Z</time>
      </trkpt>
      <trkpt lat="46.5437" lon="-1.80849">
        <ele>2.6</ele>
        <time>2020-06-03T14:32:57Z</time>
      </trkpt>
      <trkpt lat="46.54371" lon="-1.80855">
        <ele>2.6</ele>
        <time>2020-06-03T14:32:58Z</time>
      </trkpt>
      <trkpt lat="46.54371" lon="-1.80861">
        <ele>2.6</ele>
        <time>2020-06-03T14:32:59Z</time>
      </trkpt>
      <trkpt lat="46.54371" lon="-1.80868">
        <ele>2.6</ele>
        <time>2020-06-03T14:33:00Z</time>
      </trkpt>
      <trkpt lat="46.54372" lon="-1.80874">
        <ele>2.7</ele>
        <time>2020-06-03T14:33:01Z</time>
      </trkpt>
      <trkpt lat="46.54372" lon="-1.8088">
        <ele>2.7</ele>
        <time>2020-06-03T14:33:02Z</time>
      </trkpt>
      <trkpt lat="46.54373" lon="-1.80886">
        <ele>2.7</ele>
        <time>2020-06-03T14:33:03Z</time>
      </trkpt>
      <trkpt lat="46.54373" lon="-1.80893">
        <ele>2.7</ele>
        <time>2020-06-03T14:33:04Z</time>
      </trkpt>
      <trkpt lat="46.54373" lon="-1.809">
        <ele>2.8</ele>
        <time>2020-06-03T14:33:05Z</time>
      </trkpt>
      <trkpt lat="46.54373" lon="-1.80907">
        <ele>2.8</ele>
        <time>2020-06-03T14:33:06Z</time>
      </trkpt>
      <trkpt lat="46.54373" lon="-1.80913">
        <ele>2.8</ele>
        <time>2020-06-03T14:33:07Z</time>
      </trkpt>
      <trkpt lat="46.54372" lon="-1.80918">
        <ele>2.8</ele>
        <time>2020-06-03T14:33:08Z</time>
      </trkpt>
      <trkpt lat="46.54373" lon="-1.80923">
        <ele>2.8</ele>
        <time>2020-06-03T14:33:09Z</time>
      </trkpt>
      <trkpt lat="46.54374" lon="-1.80929">
        <ele>2.9</ele>
        <time>2020-06-03T14:33:10Z</time>
      </trkpt>
      <trkpt lat="46.54374" lon="-1.80936">
        <ele>2.9</ele>
        <time>2020-06-03T14:33:11Z</time>
      </trkpt>
      <trkpt lat="46.54376" lon="-1.80943">
        <ele>2.9</ele>
        <time>2020-06-03T14:33:12Z</time>
      </trkpt>
      <trkpt lat="46.54377" lon="-1.8095">
        <ele>2.9</ele>
        <time>2020-06-03T14:33:13Z</time>
      </trkpt>
      <trkpt lat="46.54379" lon="-1.80956">
        <ele>2.9</ele>
        <time>2020-06-03T14:33:14Z</time>
      </trkpt>
      <trkpt lat="46.54381" lon="-1.80962">
        <ele>2.9</ele>
        <time>2020-06-03T14:33:15Z</time>
      </trkpt>
      <trkpt lat="46.54383" lon="-1.80968">
        <ele>3</ele>
        <time>2020-06-03T14:33:16Z</time>
      </trkpt>
      <trkpt lat="46.54385" lon="-1.80972">
        <ele>3</ele>
        <time>2020-06-03T14:33:17Z</time>
      </trkpt>
      <trkpt lat="46.54388" lon="-1.80976">
        <ele>3</ele>
        <time>2020-06-03T14:33:18Z</time>
      </trkpt>
      <trkpt lat="46.54391" lon="-1.80979">
        <ele>3.1</ele>
        <time>2020-06-03T14:33:19Z</time>
      </trkpt>
      <trkpt lat="46.54394" lon="-1.80981">
        <ele>3.1</ele>
        <time>2020-06-03T14:33:20Z</time>
      </trkpt>
      <trkpt lat="46.54397" lon="-1.80984">
        <ele>3.2</ele>
        <time>2020-06-03T14:33:21Z</time>
      </trkpt>
      <trkpt lat="46.54401" lon="-1.80989">
        <ele>3.3</ele>
        <time>2020-06-03T14:33:22Z</time>
      </trkpt>
      <trkpt lat="46.54404" lon="-1.80994">
        <ele>3.4</ele>
        <time>2020-06-03T14:33:23Z</time>
      </trkpt>
      <trkpt lat="46.54407" lon="-1.81">
        <ele>3.5</ele>
        <time>2020-06-03T14:33:24Z</time>
      </trkpt>
      <trkpt lat="46.54409" lon="-1.81006">
        <ele>3.6</ele>
        <time>2020-06-03T14:33:25Z</time>
      </trkpt>
      <trkpt lat="46.54412" lon="-1.81011">
        <ele>3.6</ele>
        <time>2020-06-03T14:33:26Z</time>
      </trkpt>
      <trkpt lat="46.54415" lon="-1.81017">
        <ele>3.7</ele>
        <time>2020-06-03T14:33:27Z</time>
      </trkpt>
      <trkpt lat="46.54417" lon="-1.81021">
        <ele>3.8</ele>
        <time>2020-06-03T14:33:28Z</time>
      </trkpt>
      <trkpt lat="46.54419" lon="-1.81025">
        <ele>3.8</ele>
        <time>2020-06-03T14:33:29Z</time>
      </trkpt>
      <trkpt lat="46.5442" lon="-1.81029">
        <ele>3.8</ele>
        <time>2020-06-03T14:33:30Z</time>
      </trkpt>
      <trkpt lat="46.54421" lon="-1.8103">
        <ele>3.8</ele>
        <time>2020-06-03T14:33:31Z</time>
      </trkpt>
      <trkpt lat="46.54421" lon="-1.8103">
        <ele>3.8</ele>
        <time>2020-06-03T14:33:32Z</time>
      </trkpt>
      <trkpt lat="46.54421" lon="-1.8103">
        <ele>3.8</ele>
        <time>2020-06-03T14:33:33Z</time>
      </trkpt>
      <trkpt lat="46.54422" lon="-1.81031">
        <ele>3.8</ele>
        <time>2020-06-03T14:33:34Z</time>
      </trkpt>
      <trkpt lat="46.54422" lon="-1.81031">
        <ele>3.8</ele>
        <time>2020-06-03T14:33:35Z</time>
      </trkpt>
      <trkpt lat="46.54422" lon="-1.81032">
        <ele>3.9</ele>
        <time>2020-06-03T14:33:36Z</time>
      </trkpt>
      <trkpt lat="46.54423" lon="-1.81033">
        <ele>3.9</ele>
        <time>2020-06-03T14:33:37Z</time>
      </trkpt>
      <trkpt lat="46.54423" lon="-1.81034">
        <ele>3.9</ele>
        <time>2020-06-03T14:33:38Z</time>
      </trkpt>
      <trkpt lat="46.54424" lon="-1.81036">
        <ele>4</ele>
        <time>2020-06-03T14:33:39Z</time>
      </trkpt>
      <trkpt lat="46.54425" lon="-1.81038">
        <ele>4</ele>
        <time>2020-06-03T14:33:40Z</time>
      </trkpt>
      <trkpt lat="46.54427" lon="-1.81039">
        <ele>4</ele>
        <time>2020-06-03T14:33:41Z</time>
      </trkpt>
      <trkpt lat="46.5443" lon="-1.81038">
        <ele>4</ele>
        <time>2020-06-03T14:33:42Z</time>
      </trkpt>
      <trkpt lat="46.54431" lon="-1.81037">
        <ele>4</ele>
        <time>2020-06-03T14:33:43Z</time>
      </trkpt>
      <trkpt lat="46.54434" lon="-1.81036">
        <ele>4</ele>
        <time>2020-06-03T14:33:44Z</time>
      </trkpt>
      <trkpt lat="46.54437" lon="-1.81035">
        <ele>4</ele>
        <time>2020-06-03T14:33:45Z</time>
      </trkpt>
      <trkpt lat="46.54441" lon="-1.81033">
        <ele>4</ele>
        <time>2020-06-03T14:33:46Z</time>
      </trkpt>
      <trkpt lat="46.54446" lon="-1.81031">
        <ele>4</ele>
        <time>2020-06-03T14:33:47Z</time>
      </trkpt>
      <trkpt lat="46.54451" lon="-1.81029">
        <ele>4</ele>
        <time>2020-06-03T14:33:48Z</time>
      </trkpt>
      <trkpt lat="46.54456" lon="-1.81029">
        <ele>4</ele>
        <time>2020-06-03T14:33:49Z</time>
      </trkpt>
      <trkpt lat="46.54461" lon="-1.81029">
        <ele>4</ele>
        <time>2020-06-03T14:33:50Z</time>
      </trkpt>
      <trkpt lat="46.54466" lon="-1.81029">
        <ele>4</ele>
        <time>2020-06-03T14:33:51Z</time>
      </trkpt>
      <trkpt lat="46.5447" lon="-1.81028">
        <ele>4</ele>
        <time>2020-06-03T14:33:52Z</time>
      </trkpt>
      <trkpt lat="46.54474" lon="-1.81027">
        <ele>4</ele>
        <time>2020-06-03T14:33:53Z</time>
      </trkpt>
      <trkpt lat="46.54479" lon="-1.81027">
        <ele>4</ele>
        <time>2020-06-03T14:33:54Z</time>
      </trkpt>
      <trkpt lat="46.54483" lon="-1.81026">
        <ele>4</ele>
        <time>2020-06-03T14:33:55Z</time>
      </trkpt>
      <trkpt lat="46.54488" lon="-1.81027">
        <ele>4</ele>
        <time>2020-06-03T14:33:56Z</time>
      </trkpt>
      <trkpt lat="46.54492" lon="-1.81027">
        <ele>4</ele>
        <time>2020-06-03T14:33:57Z</time>
      </trkpt>
      <trkpt lat="46.54497" lon="-1.81029">
        <ele>3.9</ele>
        <time>2020-06-03T14:33:58Z</time>
      </trkpt>
      <trkpt lat="46.54503" lon="-1.81031">
        <ele>3.9</ele>
        <time>2020-06-03T14:33:59Z</time>
      </trkpt>
      <trkpt lat="46.54508" lon="-1.81031">
        <ele>3.9</ele>
        <time>2020-06-03T14:34:00Z</time>
      </trkpt>
      <trkpt lat="46.54513" lon="-1.81032">
        <ele>3.9</ele>
        <time>2020-06-03T14:34:01Z</time>
      </trkpt>
      <trkpt lat="46.54517" lon="-1.81033">
        <ele>3.9</ele>
        <time>2020-06-03T14:34:02Z</time>
      </trkpt>
      <trkpt lat="46.54522" lon="-1.81034">
        <ele>3.9</ele>
        <time>2020-06-03T14:34:03Z</time>
      </trkpt>
      <trkpt lat="46.54526" lon="-1.81033">
        <ele>3.9</ele>
        <time>2020-06-03T14:34:04Z</time>
      </trkpt>
      <trkpt lat="46.5453" lon="-1.81031">
        <ele>3.9</ele>
        <time>2020-06-03T14:34:05Z</time>
      </trkpt>
      <trkpt lat="46.54533" lon="-1.81029">
        <ele>3.9</ele>
        <time>2020-06-03T14:34:06Z</time>
      </trkpt>
      <trkpt lat="46.54536" lon="-1.81026">
        <ele>3.9</ele>
        <time>2020-06-03T14:34:07Z</time>
      </trkpt>
      <trkpt lat="46.54539" lon="-1.81022">
        <ele>3.9</ele>
        <time>2020-06-03T14:34:08Z</time>
      </trkpt>
      <trkpt lat="46.54541" lon="-1.81018">
        <ele>3.9</ele>
        <time>2020-06-03T14:34:09Z</time>
      </trkpt>
      <trkpt lat="46.54544" lon="-1.81012">
        <ele>3.9</ele>
        <time>2020-06-03T14:34:10Z</time>
      </trkpt>
      <trkpt lat="46.54546" lon="-1.81007">
        <ele>3.9</ele>
        <time>2020-06-03T14:34:11Z</time>
      </trkpt>
      <trkpt lat="46.54548" lon="-1.81004">
        <ele>3.9</ele>
        <time>2020-06-03T14:34:12Z</time>
      </trkpt>
      <trkpt lat="46.5455" lon="-1.81003">
        <ele>3.9</ele>
        <time>2020-06-03T14:34:13Z</time>
      </trkpt>
      <trkpt lat="46.54551" lon="-1.81003">
        <ele>3.9</ele>
        <time>2020-06-03T14:34:14Z</time>
      </trkpt>
      <trkpt lat="46.54551" lon="-1.81004">
        <ele>3.9</ele>
        <time>2020-06-03T14:34:15Z</time>
      </trkpt>
      <trkpt lat="46.54552" lon="-1.81007">
        <ele>3.9</ele>
        <time>2020-06-03T14:34:16Z</time>
      </trkpt>
      <trkpt lat="46.54553" lon="-1.81011">
        <ele>3.9</ele>
        <time>2020-06-03T14:34:17Z</time>
      </trkpt>
      <trkpt lat="46.54553" lon="-1.81013">
        <ele>3.9</ele>
        <time>2020-06-03T14:34:18Z</time>
      </trkpt>
      <trkpt lat="46.54556" lon="-1.81016">
        <ele>3.9</ele>
        <time>2020-06-03T14:34:19Z</time>
      </trkpt>
      <trkpt lat="46.54557" lon="-1.81019">
        <ele>3.9</ele>
        <time>2020-06-03T14:34:20Z</time>
      </trkpt>
      <trkpt lat="46.5456" lon="-1.81022">
        <ele>3.9</ele>
        <time>2020-06-03T14:34:21Z</time>
      </trkpt>
      <trkpt lat="46.54561" lon="-1.81023">
        <ele>3.9</ele>
        <time>2020-06-03T14:34:22Z</time>
      </trkpt>
      <trkpt lat="46.54565" lon="-1.81026">
        <ele>3.9</ele>
        <time>2020-06-03T14:34:23Z</time>
      </trkpt>
      <trkpt lat="46.54566" lon="-1.81027">
        <ele>3.9</ele>
        <time>2020-06-03T14:34:24Z</time>
      </trkpt>
      <trkpt lat="46.54569" lon="-1.8103">
        <ele>3.9</ele>
        <time>2020-06-03T14:34:25Z</time>
      </trkpt>
      <trkpt lat="46.54572" lon="-1.81033">
        <ele>3.9</ele>
        <time>2020-06-03T14:34:26Z</time>
      </trkpt>
      <trkpt lat="46.54575" lon="-1.81036">
        <ele>4</ele>
        <time>2020-06-03T14:34:27Z</time>
      </trkpt>
      <trkpt lat="46.54579" lon="-1.8104">
        <ele>4</ele>
        <time>2020-06-03T14:34:28Z</time>
      </trkpt>
      <trkpt lat="46.54584" lon="-1.81044">
        <ele>4</ele>
        <time>2020-06-03T14:34:29Z</time>
      </trkpt>
      <trkpt lat="46.54588" lon="-1.81047">
        <ele>4</ele>
        <time>2020-06-03T14:34:30Z</time>
      </trkpt>
      <trkpt lat="46.54591" lon="-1.8105">
        <ele>4</ele>
        <time>2020-06-03T14:34:31Z</time>
      </trkpt>
      <trkpt lat="46.54595" lon="-1.81052">
        <ele>4</ele>
        <time>2020-06-03T14:34:32Z</time>
      </trkpt>
      <trkpt lat="46.54599" lon="-1.81054">
        <ele>4</ele>
        <time>2020-06-03T14:34:33Z</time>
      </trkpt>
      <trkpt lat="46.54604" lon="-1.81056">
        <ele>4</ele>
        <time>2020-06-03T14:34:34Z</time>
      </trkpt>
      <trkpt lat="46.54607" lon="-1.81058">
        <ele>4</ele>
        <time>2020-06-03T14:34:35Z</time>
      </trkpt>
      <trkpt lat="46.54612" lon="-1.81061">
        <ele>4.1</ele>
        <time>2020-06-03T14:34:36Z</time>
      </trkpt>
      <trkpt lat="46.54615" lon="-1.81063">
        <ele>4.1</ele>
        <time>2020-06-03T14:34:37Z</time>
      </trkpt>
      <trkpt lat="46.54619" lon="-1.81067">
        <ele>4.1</ele>
        <time>2020-06-03T14:34:38Z</time>
      </trkpt>
      <trkpt lat="46.54622" lon="-1.8107">
        <ele>4.2</ele>
        <time>2020-06-03T14:34:39Z</time>
      </trkpt>
      <trkpt lat="46.54624" lon="-1.81073">
        <ele>4.2</ele>
        <time>2020-06-03T14:34:40Z</time>
      </trkpt>
      <trkpt lat="46.54627" lon="-1.81075">
        <ele>4.3</ele>
        <time>2020-06-03T14:34:41Z</time>
      </trkpt>
      <trkpt lat="46.5463" lon="-1.81077">
        <ele>4.3</ele>
        <time>2020-06-03T14:34:42Z</time>
      </trkpt>
      <trkpt lat="46.54633" lon="-1.81079">
        <ele>4.4</ele>
        <time>2020-06-03T14:34:43Z</time>
      </trkpt>
      <trkpt lat="46.54635" lon="-1.81079">
        <ele>4.4</ele>
        <time>2020-06-03T14:34:44Z</time>
      </trkpt>
      <trkpt lat="46.54638" lon="-1.8108">
        <ele>4.4</ele>
        <time>2020-06-03T14:34:45Z</time>
      </trkpt>
      <trkpt lat="46.5464" lon="-1.8108">
        <ele>4.4</ele>
        <time>2020-06-03T14:34:46Z</time>
      </trkpt>
      <trkpt lat="46.54644" lon="-1.81082">
        <ele>4.5</ele>
        <time>2020-06-03T14:34:47Z</time>
      </trkpt>
      <trkpt lat="46.54647" lon="-1.81082">
        <ele>4.5</ele>
        <time>2020-06-03T14:34:48Z</time>
      </trkpt>
      <trkpt lat="46.5465" lon="-1.81082">
        <ele>4.6</ele>
        <time>2020-06-03T14:34:49Z</time>
      </trkpt>
      <trkpt lat="46.54653" lon="-1.81083">
        <ele>4.6</ele>
        <time>2020-06-03T14:34:50Z</time>
      </trkpt>
      <trkpt lat="46.54657" lon="-1.81083">
        <ele>4.7</ele>
        <time>2020-06-03T14:34:51Z</time>
      </trkpt>
      <trkpt lat="46.5466" lon="-1.81083">
        <ele>4.7</ele>
        <time>2020-06-03T14:34:52Z</time>
      </trkpt>
      <trkpt lat="46.54664" lon="-1.81085">
        <ele>4.7</ele>
        <time>2020-06-03T14:34:53Z</time>
      </trkpt>
      <trkpt lat="46.54669" lon="-1.81086">
        <ele>4.8</ele>
        <time>2020-06-03T14:34:54Z</time>
      </trkpt>
      <trkpt lat="46.54673" lon="-1.81087">
        <ele>4.8</ele>
        <time>2020-06-03T14:34:55Z</time>
      </trkpt>
      <trkpt lat="46.54678" lon="-1.81089">
        <ele>4.9</ele>
        <time>2020-06-03T14:34:56Z</time>
      </trkpt>
      <trkpt lat="46.54682" lon="-1.81091">
        <ele>4.9</ele>
        <time>2020-06-03T14:34:57Z</time>
      </trkpt>
      <trkpt lat="46.54688" lon="-1.81093">
        <ele>5</ele>
        <time>2020-06-03T14:34:58Z</time>
      </trkpt>
      <trkpt lat="46.54692" lon="-1.81096">
        <ele>5</ele>
        <time>2020-06-03T14:34:59Z</time>
      </trkpt>
      <trkpt lat="46.54696" lon="-1.81098">
        <ele>5</ele>
        <time>2020-06-03T14:35:00Z</time>
      </trkpt>
      <trkpt lat="46.547" lon="-1.81099">
        <ele>5.1</ele>
        <time>2020-06-03T14:35:01Z</time>
      </trkpt>
      <trkpt lat="46.54704" lon="-1.81099">
        <ele>5.1</ele>
        <time>2020-06-03T14:35:02Z</time>
      </trkpt>
      <trkpt lat="46.54707" lon="-1.811">
        <ele>5.1</ele>
        <time>2020-06-03T14:35:03Z</time>
      </trkpt>
      <trkpt lat="46.54711" lon="-1.81099">
        <ele>5.1</ele>
        <time>2020-06-03T14:35:04Z</time>
      </trkpt>
      <trkpt lat="46.54713" lon="-1.81098">
        <ele>5.1</ele>
        <time>2020-06-03T14:35:05Z</time>
      </trkpt>
      <trkpt lat="46.54716" lon="-1.81095">
        <ele>5.1</ele>
        <time>2020-06-03T14:35:06Z</time>
      </trkpt>
      <trkpt lat="46.54718" lon="-1.81094">
        <ele>5.1</ele>
        <time>2020-06-03T14:35:07Z</time>
      </trkpt>
      <trkpt lat="46.54721" lon="-1.81092">
        <ele>5.1</ele>
        <time>2020-06-03T14:35:08Z</time>
      </trkpt>
      <trkpt lat="46.54724" lon="-1.81089">
        <ele>5.1</ele>
        <time>2020-06-03T14:35:09Z</time>
      </trkpt>
      <trkpt lat="46.54727" lon="-1.81087">
        <ele>5.1</ele>
        <time>2020-06-03T14:35:10Z</time>
      </trkpt>
      <trkpt lat="46.54729" lon="-1.81084">
        <ele>5.1</ele>
        <time>2020-06-03T14:35:11Z</time>
      </trkpt>
      <trkpt lat="46.54732" lon="-1.81079">
        <ele>5.1</ele>
        <time>2020-06-03T14:35:12Z</time>
      </trkpt>
      <trkpt lat="46.54735" lon="-1.81073">
        <ele>5.2</ele>
        <time>2020-06-03T14:35:13Z</time>
      </trkpt>
      <trkpt lat="46.54737" lon="-1.81069">
        <ele>5.2</ele>
        <time>2020-06-03T14:35:14Z</time>
      </trkpt>
      <trkpt lat="46.54738" lon="-1.81065">
        <ele>5.2</ele>
        <time>2020-06-03T14:35:15Z</time>
      </trkpt>
      <trkpt lat="46.5474" lon="-1.81058">
        <ele>5.2</ele>
        <time>2020-06-03T14:35:16Z</time>
      </trkpt>
      <trkpt lat="46.54742" lon="-1.81052">
        <ele>5.2</ele>
        <time>2020-06-03T14:35:17Z</time>
      </trkpt>
      <trkpt lat="46.54744" lon="-1.81043">
        <ele>5.2</ele>
        <time>2020-06-03T14:35:18Z</time>
      </trkpt>
      <trkpt lat="46.54746" lon="-1.81038">
        <ele>5.2</ele>
        <time>2020-06-03T14:35:19Z</time>
      </trkpt>
      <trkpt lat="46.54748" lon="-1.8103">
        <ele>5.2</ele>
        <time>2020-06-03T14:35:20Z</time>
      </trkpt>
      <trkpt lat="46.54751" lon="-1.81025">
        <ele>5.2</ele>
        <time>2020-06-03T14:35:21Z</time>
      </trkpt>
      <trkpt lat="46.54753" lon="-1.8102">
        <ele>5.3</ele>
        <time>2020-06-03T14:35:22Z</time>
      </trkpt>
      <trkpt lat="46.54756" lon="-1.81015">
        <ele>5.3</ele>
        <time>2020-06-03T14:35:23Z</time>
      </trkpt>
      <trkpt lat="46.54759" lon="-1.81011">
        <ele>5.3</ele>
        <time>2020-06-03T14:35:24Z</time>
      </trkpt>
      <trkpt lat="46.54762" lon="-1.81006">
        <ele>5.3</ele>
        <time>2020-06-03T14:35:25Z</time>
      </trkpt>
      <trkpt lat="46.54766" lon="-1.81001">
        <ele>5.3</ele>
        <time>2020-06-03T14:35:26Z</time>
      </trkpt>
      <trkpt lat="46.54769" lon="-1.80996">
        <ele>5.4</ele>
        <time>2020-06-03T14:35:27Z</time>
      </trkpt>
      <trkpt lat="46.54772" lon="-1.80992">
        <ele>5.4</ele>
        <time>2020-06-03T14:35:28Z</time>
      </trkpt>
      <trkpt lat="46.54775" lon="-1.80987">
        <ele>5.4</ele>
        <time>2020-06-03T14:35:29Z</time>
      </trkpt>
      <trkpt lat="46.54777" lon="-1.80982">
        <ele>5.5</ele>
        <time>2020-06-03T14:35:30Z</time>
      </trkpt>
      <trkpt lat="46.5478" lon="-1.80977">
        <ele>5.5</ele>
        <time>2020-06-03T14:35:31Z</time>
      </trkpt>
      <trkpt lat="46.54782" lon="-1.80972">
        <ele>5.6</ele>
        <time>2020-06-03T14:35:32Z</time>
      </trkpt>
      <trkpt lat="46.54784" lon="-1.80968">
        <ele>5.6</ele>
        <time>2020-06-03T14:35:33Z</time>
      </trkpt>
      <trkpt lat="46.54787" lon="-1.80963">
        <ele>5.7</ele>
        <time>2020-06-03T14:35:34Z</time>
      </trkpt>
      <trkpt lat="46.5479" lon="-1.80958">
        <ele>5.7</ele>
        <time>2020-06-03T14:35:35Z</time>
      </trkpt>
      <trkpt lat="46.54792" lon="-1.80954">
        <ele>5.8</ele>
        <time>2020-06-03T14:35:36Z</time>
      </trkpt>
      <trkpt lat="46.54795" lon="-1.8095">
        <ele>5.8</ele>
        <time>2020-06-03T14:35:37Z</time>
      </trkpt>
      <trkpt lat="46.54797" lon="-1.80946">
        <ele>5.8</ele>
        <time>2020-06-03T14:35:38Z</time>
      </trkpt>
      <trkpt lat="46.548" lon="-1.80941">
        <ele>5.9</ele>
        <time>2020-06-03T14:35:39Z</time>
      </trkpt>
      <trkpt lat="46.54802" lon="-1.80935">
        <ele>6</ele>
        <time>2020-06-03T14:35:40Z</time>
      </trkpt>
      <trkpt lat="46.54804" lon="-1.8093">
        <ele>6</ele>
        <time>2020-06-03T14:35:41Z</time>
      </trkpt>
      <trkpt lat="46.54806" lon="-1.80925">
        <ele>6</ele>
        <time>2020-06-03T14:35:42Z</time>
      </trkpt>
      <trkpt lat="46.54808" lon="-1.80921">
        <ele>6</ele>
        <time>2020-06-03T14:35:43Z</time>
      </trkpt>
      <trkpt lat="46.5481" lon="-1.80916">
        <ele>6.1</ele>
        <time>2020-06-03T14:35:44Z</time>
      </trkpt>
      <trkpt lat="46.54811" lon="-1.80911">
        <ele>6.1</ele>
        <time>2020-06-03T14:35:45Z</time>
      </trkpt>
      <trkpt lat="46.54813" lon="-1.80907">
        <ele>6.1</ele>
        <time>2020-06-03T14:35:46Z</time>
      </trkpt>
      <trkpt lat="46.54815" lon="-1.80903">
        <ele>6.1</ele>
        <time>2020-06-03T14:35:47Z</time>
      </trkpt>
      <trkpt lat="46.54817" lon="-1.80899">
        <ele>6.1</ele>
        <time>2020-06-03T14:35:48Z</time>
      </trkpt>
      <trkpt lat="46.54818" lon="-1.80894">
        <ele>6.1</ele>
        <time>2020-06-03T14:35:49Z</time>
      </trkpt>
      <trkpt lat="46.5482" lon="-1.80891">
        <ele>6.1</ele>
        <time>2020-06-03T14:35:50Z</time>
      </trkpt>
      <trkpt lat="46.54823" lon="-1.8089">
        <ele>6.2</ele>
        <time>2020-06-03T14:35:51Z</time>
      </trkpt>
      <trkpt lat="46.54825" lon="-1.80891">
        <ele>6.2</ele>
        <time>2020-06-03T14:35:52Z</time>
      </trkpt>
      <trkpt lat="46.54827" lon="-1.80893">
        <ele>6.2</ele>
        <time>2020-06-03T14:35:53Z</time>
      </trkpt>
      <trkpt lat="46.5483" lon="-1.80896">
        <ele>6.1</ele>
        <time>2020-06-03T14:35:54Z</time>
      </trkpt>
      <trkpt lat="46.54833" lon="-1.80898">
        <ele>6.1</ele>
        <time>2020-06-03T14:35:55Z</time>
      </trkpt>
      <trkpt lat="46.54836" lon="-1.80902">
        <ele>6.1</ele>
        <time>2020-06-03T14:35:56Z</time>
      </trkpt>
      <trkpt lat="46.5484" lon="-1.80905">
        <ele>6.1</ele>
        <time>2020-06-03T14:35:57Z</time>
      </trkpt>
      <trkpt lat="46.54843" lon="-1.80908">
        <ele>6.1</ele>
        <time>2020-06-03T14:35:58Z</time>
      </trkpt>
      <trkpt lat="46.54847" lon="-1.80912">
        <ele>6.1</ele>
        <time>2020-06-03T14:35:59Z</time>
      </trkpt>
      <trkpt lat="46.54851" lon="-1.80916">
        <ele>6.1</ele>
        <time>2020-06-03T14:36:00Z</time>
      </trkpt>
      <trkpt lat="46.54856" lon="-1.8092">
        <ele>6.1</ele>
        <time>2020-06-03T14:36:01Z</time>
      </trkpt>
      <trkpt lat="46.5486" lon="-1.80924">
        <ele>6.1</ele>
        <time>2020-06-03T14:36:02Z</time>
      </trkpt>
      <trkpt lat="46.54864" lon="-1.80927">
        <ele>6.1</ele>
        <time>2020-06-03T14:36:03Z</time>
      </trkpt>
      <trkpt lat="46.54869" lon="-1.80932">
        <ele>6.1</ele>
        <time>2020-06-03T14:36:04Z</time>
      </trkpt>
      <trkpt lat="46.54873" lon="-1.80935">
        <ele>6.1</ele>
        <time>2020-06-03T14:36:05Z</time>
      </trkpt>
      <trkpt lat="46.54878" lon="-1.80939">
        <ele>6</ele>
        <time>2020-06-03T14:36:06Z</time>
      </trkpt>
      <trkpt lat="46.54882" lon="-1.80942">
        <ele>6</ele>
        <time>2020-06-03T14:36:07Z</time>
      </trkpt>
      <trkpt lat="46.54886" lon="-1.80947">
        <ele>6</ele>
        <time>2020-06-03T14:36:08Z</time>
      </trkpt>
      <trkpt lat="46.5489" lon="-1.80951">
        <ele>6</ele>
        <time>2020-06-03T14:36:09Z</time>
      </trkpt>
      <trkpt lat="46.54894" lon="-1.80955">
        <ele>6</ele>
        <time>2020-06-03T14:36:10Z</time>
      </trkpt>
      <trkpt lat="46.54898" lon="-1.80959">
        <ele>6</ele>
        <time>2020-06-03T14:36:11Z</time>
      </trkpt>
      <trkpt lat="46.54903" lon="-1.80964">
        <ele>6</ele>
        <time>2020-06-03T14:36:12Z</time>
      </trkpt>
      <trkpt lat="46.54907" lon="-1.80967">
        <ele>6</ele>
        <time>2020-06-03T14:36:13Z</time>
      </trkpt>
      <trkpt lat="46.54911" lon="-1.80971">
        <ele>6</ele>
        <time>2020-06-03T14:36:14Z</time>
      </trkpt>
      <trkpt lat="46.54915" lon="-1.80975">
        <ele>6</ele>
        <time>2020-06-03T14:36:15Z</time>
      </trkpt>
      <trkpt lat="46.5492" lon="-1.80979">
        <ele>6</ele>
        <time>2020-06-03T14:36:16Z</time>
      </trkpt>
      <trkpt lat="46.54924" lon="-1.80983">
        <ele>6</ele>
        <time>2020-06-03T14:36:17Z</time>
      </trkpt>
      <trkpt lat="46.54928" lon="-1.80987">
        <ele>6</ele>
        <time>2020-06-03T14:36:18Z</time>
      </trkpt>
      <trkpt lat="46.54932" lon="-1.80991">
        <ele>6</ele>
        <time>2020-06-03T14:36:19Z</time>
      </trkpt>
      <trkpt lat="46.54936" lon="-1.80994">
        <ele>6</ele>
        <time>2020-06-03T14:36:20Z</time>
      </trkpt>
      <trkpt lat="46.5494" lon="-1.80998">
        <ele>6</ele>
        <time>2020-06-03T14:36:21Z</time>
      </trkpt>
      <trkpt lat="46.54945" lon="-1.81002">
        <ele>6</ele>
        <time>2020-06-03T14:36:22Z</time>
      </trkpt>
      <trkpt lat="46.54949" lon="-1.81006">
        <ele>6</ele>
        <time>2020-06-03T14:36:23Z</time>
      </trkpt>
      <trkpt lat="46.54954" lon="-1.81009">
        <ele>6</ele>
        <time>2020-06-03T14:36:24Z</time>
      </trkpt>
      <trkpt lat="46.54957" lon="-1.81013">
        <ele>6</ele>
        <time>2020-06-03T14:36:25Z</time>
      </trkpt>
      <trkpt lat="46.54961" lon="-1.81016">
        <ele>6</ele>
        <time>2020-06-03T14:36:26Z</time>
      </trkpt>
      <trkpt lat="46.54965" lon="-1.8102">
        <ele>6</ele>
        <time>2020-06-03T14:36:27Z</time>
      </trkpt>
      <trkpt lat="46.54969" lon="-1.81024">
        <ele>6</ele>
        <time>2020-06-03T14:36:28Z</time>
      </trkpt>
      <trkpt lat="46.54973" lon="-1.81027">
        <ele>6</ele>
        <time>2020-06-03T14:36:29Z</time>
      </trkpt>
      <trkpt lat="46.54977" lon="-1.81031">
        <ele>6</ele>
        <time>2020-06-03T14:36:30Z</time>
      </trkpt>
      <trkpt lat="46.54981" lon="-1.81035">
        <ele>6</ele>
        <time>2020-06-03T14:36:31Z</time>
      </trkpt>
      <trkpt lat="46.54984" lon="-1.81038">
        <ele>6</ele>
        <time>2020-06-03T14:36:32Z</time>
      </trkpt>
      <trkpt lat="46.54988" lon="-1.81041">
        <ele>6</ele>
        <time>2020-06-03T14:36:33Z</time>
      </trkpt>
      <trkpt lat="46.54993" lon="-1.81041">
        <ele>6</ele>
        <time>2020-06-03T14:36:34Z</time>
      </trkpt>
      <trkpt lat="46.54997" lon="-1.8104">
        <ele>6</ele>
        <time>2020-06-03T14:36:35Z</time>
      </trkpt>
      <trkpt lat="46.55001" lon="-1.81038">
        <ele>6</ele>
        <time>2020-06-03T14:36:36Z</time>
      </trkpt>
      <trkpt lat="46.55005" lon="-1.81033">
        <ele>6</ele>
        <time>2020-06-03T14:36:37Z</time>
      </trkpt>
      <trkpt lat="46.55008" lon="-1.81028">
        <ele>6</ele>
        <time>2020-06-03T14:36:38Z</time>
      </trkpt>
      <trkpt lat="46.55012" lon="-1.81023">
        <ele>5.9</ele>
        <time>2020-06-03T14:36:39Z</time>
      </trkpt>
      <trkpt lat="46.55015" lon="-1.81017">
        <ele>5.9</ele>
        <time>2020-06-03T14:36:40Z</time>
      </trkpt>
      <trkpt lat="46.55018" lon="-1.81012">
        <ele>5.9</ele>
        <time>2020-06-03T14:36:41Z</time>
      </trkpt>
      <trkpt lat="46.55021" lon="-1.81007">
        <ele>5.9</ele>
        <time>2020-06-03T14:36:42Z</time>
      </trkpt>
      <trkpt lat="46.55024" lon="-1.81002">
        <ele>5.9</ele>
        <time>2020-06-03T14:36:43Z</time>
      </trkpt>
      <trkpt lat="46.55027" lon="-1.80998">
        <ele>5.9</ele>
        <time>2020-06-03T14:36:44Z</time>
      </trkpt>
      <trkpt lat="46.55031" lon="-1.80994">
        <ele>5.9</ele>
        <time>2020-06-03T14:36:45Z</time>
      </trkpt>
      <trkpt lat="46.55035" lon="-1.80992">
        <ele>5.9</ele>
        <time>2020-06-03T14:36:46Z</time>
      </trkpt>
      <trkpt lat="46.5504" lon="-1.80992">
        <ele>5.9</ele>
        <time>2020-06-03T14:36:47Z</time>
      </trkpt>
      <trkpt lat="46.55045" lon="-1.80994">
        <ele>5.9</ele>
        <time>2020-06-03T14:36:48Z</time>
      </trkpt>
      <trkpt lat="46.55049" lon="-1.80997">
        <ele>5.8</ele>
        <time>2020-06-03T14:36:49Z</time>
      </trkpt>
      <trkpt lat="46.55053" lon="-1.81">
        <ele>5.8</ele>
        <time>2020-06-03T14:36:50Z</time>
      </trkpt>
      <trkpt lat="46.55056" lon="-1.81003">
        <ele>5.8</ele>
        <time>2020-06-03T14:36:51Z</time>
      </trkpt>
      <trkpt lat="46.5506" lon="-1.81007">
        <ele>5.8</ele>
        <time>2020-06-03T14:36:52Z</time>
      </trkpt>
      <trkpt lat="46.55063" lon="-1.81012">
        <ele>5.8</ele>
        <time>2020-06-03T14:36:53Z</time>
      </trkpt>
      <trkpt lat="46.55067" lon="-1.81016">
        <ele>5.8</ele>
        <time>2020-06-03T14:36:54Z</time>
      </trkpt>
      <trkpt lat="46.55071" lon="-1.81021">
        <ele>5.7</ele>
        <time>2020-06-03T14:36:55Z</time>
      </trkpt>
      <trkpt lat="46.55075" lon="-1.81025">
        <ele>5.7</ele>
        <time>2020-06-03T14:36:56Z</time>
      </trkpt>
      <trkpt lat="46.5508" lon="-1.81029">
        <ele>5.6</ele>
        <time>2020-06-03T14:36:57Z</time>
      </trkpt>
      <trkpt lat="46.55084" lon="-1.81034">
        <ele>5.6</ele>
        <time>2020-06-03T14:36:58Z</time>
      </trkpt>
      <trkpt lat="46.55088" lon="-1.81038">
        <ele>5.5</ele>
        <time>2020-06-03T14:36:59Z</time>
      </trkpt>
      <trkpt lat="46.55093" lon="-1.81042">
        <ele>5.5</ele>
        <time>2020-06-03T14:37:00Z</time>
      </trkpt>
      <trkpt lat="46.55098" lon="-1.81046">
        <ele>5.5</ele>
        <time>2020-06-03T14:37:01Z</time>
      </trkpt>
      <trkpt lat="46.55101" lon="-1.8105">
        <ele>5.4</ele>
        <time>2020-06-03T14:37:02Z</time>
      </trkpt>
      <trkpt lat="46.55105" lon="-1.81053">
        <ele>5.4</ele>
        <time>2020-06-03T14:37:03Z</time>
      </trkpt>
      <trkpt lat="46.55108" lon="-1.81056">
        <ele>5.3</ele>
        <time>2020-06-03T14:37:04Z</time>
      </trkpt>
      <trkpt lat="46.55111" lon="-1.8106">
        <ele>5.3</ele>
        <time>2020-06-03T14:37:05Z</time>
      </trkpt>
      <trkpt lat="46.55114" lon="-1.81063">
        <ele>5.3</ele>
        <time>2020-06-03T14:37:06Z</time>
      </trkpt>
      <trkpt lat="46.55118" lon="-1.81067">
        <ele>5.2</ele>
        <time>2020-06-03T14:37:07Z</time>
      </trkpt>
      <trkpt lat="46.55121" lon="-1.81071">
        <ele>5.2</ele>
        <time>2020-06-03T14:37:08Z</time>
      </trkpt>
      <trkpt lat="46.55124" lon="-1.81075">
        <ele>5.2</ele>
        <time>2020-06-03T14:37:09Z</time>
      </trkpt>
      <trkpt lat="46.55128" lon="-1.8108">
        <ele>5.1</ele>
        <time>2020-06-03T14:37:10Z</time>
      </trkpt>
      <trkpt lat="46.55132" lon="-1.81084">
        <ele>5.1</ele>
        <time>2020-06-03T14:37:11Z</time>
      </trkpt>
      <trkpt lat="46.55136" lon="-1.81087">
        <ele>5.1</ele>
        <time>2020-06-03T14:37:12Z</time>
      </trkpt>
      <trkpt lat="46.5514" lon="-1.81092">
        <ele>5</ele>
        <time>2020-06-03T14:37:13Z</time>
      </trkpt>
      <trkpt lat="46.55144" lon="-1.81096">
        <ele>5</ele>
        <time>2020-06-03T14:37:14Z</time>
      </trkpt>
      <trkpt lat="46.55148" lon="-1.811">
        <ele>4.9</ele>
        <time>2020-06-03T14:37:15Z</time>
      </trkpt>
      <trkpt lat="46.55152" lon="-1.81106">
        <ele>4.9</ele>
        <time>2020-06-03T14:37:16Z</time>
      </trkpt>
      <trkpt lat="46.55156" lon="-1.8111">
        <ele>4.9</ele>
        <time>2020-06-03T14:37:17Z</time>
      </trkpt>
      <trkpt lat="46.55159" lon="-1.81115">
        <ele>4.9</ele>
        <time>2020-06-03T14:37:18Z</time>
      </trkpt>
      <trkpt lat="46.55163" lon="-1.8112">
        <ele>4.9</ele>
        <time>2020-06-03T14:37:19Z</time>
      </trkpt>
      <trkpt lat="46.55166" lon="-1.81125">
        <ele>4.9</ele>
        <time>2020-06-03T14:37:20Z</time>
      </trkpt>
      <trkpt lat="46.55171" lon="-1.81128">
        <ele>4.9</ele>
        <time>2020-06-03T14:37:21Z</time>
      </trkpt>
      <trkpt lat="46.55175" lon="-1.81131">
        <ele>4.8</ele>
        <time>2020-06-03T14:37:22Z</time>
      </trkpt>
      <trkpt lat="46.55179" lon="-1.81134">
        <ele>4.8</ele>
        <time>2020-06-03T14:37:23Z</time>
      </trkpt>
      <trkpt lat="46.55183" lon="-1.81138">
        <ele>4.8</ele>
        <time>2020-06-03T14:37:24Z</time>
      </trkpt>
      <trkpt lat="46.55186" lon="-1.81143">
        <ele>4.8</ele>
        <time>2020-06-03T14:37:25Z</time>
      </trkpt>
      <trkpt lat="46.55189" lon="-1.81148">
        <ele>4.8</ele>
        <time>2020-06-03T14:37:26Z</time>
      </trkpt>
      <trkpt lat="46.55192" lon="-1.81153">
        <ele>4.8</ele>
        <time>2020-06-03T14:37:27Z</time>
      </trkpt>
      <trkpt lat="46.55195" lon="-1.81157">
        <ele>4.8</ele>
        <time>2020-06-03T14:37:28Z</time>
      </trkpt>
      <trkpt lat="46.55198" lon="-1.8116">
        <ele>4.8</ele>
        <time>2020-06-03T14:37:29Z</time>
      </trkpt>
      <trkpt lat="46.55201" lon="-1.81163">
        <ele>4.8</ele>
        <time>2020-06-03T14:37:30Z</time>
      </trkpt>
      <trkpt lat="46.55204" lon="-1.81166">
        <ele>4.8</ele>
        <time>2020-06-03T14:37:31Z</time>
      </trkpt>
      <trkpt lat="46.55206" lon="-1.81168">
        <ele>4.8</ele>
        <time>2020-06-03T14:37:32Z</time>
      </trkpt>
      <trkpt lat="46.55209" lon="-1.8117">
        <ele>4.8</ele>
        <time>2020-06-03T14:37:33Z</time>
      </trkpt>
      <trkpt lat="46.55213" lon="-1.81173">
        <ele>4.8</ele>
        <time>2020-06-03T14:37:34Z</time>
      </trkpt>
      <trkpt lat="46.55217" lon="-1.81174">
        <ele>4.8</ele>
        <time>2020-06-03T14:37:35Z</time>
      </trkpt>
      <trkpt lat="46.55221" lon="-1.81176">
        <ele>4.8</ele>
        <time>2020-06-03T14:37:36Z</time>
      </trkpt>
      <trkpt lat="46.55225" lon="-1.81177">
        <ele>4.8</ele>
        <time>2020-06-03T14:37:37Z</time>
      </trkpt>
      <trkpt lat="46.55228" lon="-1.81181">
        <ele>4.8</ele>
        <time>2020-06-03T14:37:38Z</time>
      </trkpt>
      <trkpt lat="46.55232" lon="-1.81184">
        <ele>4.7</ele>
        <time>2020-06-03T14:37:39Z</time>
      </trkpt>
      <trkpt lat="46.55235" lon="-1.81187">
        <ele>4.7</ele>
        <time>2020-06-03T14:37:40Z</time>
      </trkpt>
      <trkpt lat="46.55239" lon="-1.81191">
        <ele>4.7</ele>
        <time>2020-06-03T14:37:41Z</time>
      </trkpt>
      <trkpt lat="46.55242" lon="-1.81195">
        <ele>4.7</ele>
        <time>2020-06-03T14:37:42Z</time>
      </trkpt>
      <trkpt lat="46.55247" lon="-1.81199">
        <ele>4.7</ele>
        <time>2020-06-03T14:37:43Z</time>
      </trkpt>
      <trkpt lat="46.5525" lon="-1.81202">
        <ele>4.7</ele>
        <time>2020-06-03T14:37:44Z</time>
      </trkpt>
      <trkpt lat="46.55253" lon="-1.81206">
        <ele>4.7</ele>
        <time>2020-06-03T14:37:45Z</time>
      </trkpt>
      <trkpt lat="46.55258" lon="-1.8121">
        <ele>4.7</ele>
        <time>2020-06-03T14:37:46Z</time>
      </trkpt>
      <trkpt lat="46.55261" lon="-1.81213">
        <ele>4.7</ele>
        <time>2020-06-03T14:37:47Z</time>
      </trkpt>
      <trkpt lat="46.55265" lon="-1.81215">
        <ele>4.7</ele>
        <time>2020-06-03T14:37:48Z</time>
      </trkpt>
      <trkpt lat="46.55268" lon="-1.81217">
        <ele>4.7</ele>
        <time>2020-06-03T14:37:49Z</time>
      </trkpt>
      <trkpt lat="46.55272" lon="-1.81219">
        <ele>4.7</ele>
        <time>2020-06-03T14:37:50Z</time>
      </trkpt>
      <trkpt lat="46.55276" lon="-1.81221">
        <ele>4.7</ele>
        <time>2020-06-03T14:37:51Z</time>
      </trkpt>
      <trkpt lat="46.55279" lon="-1.81223">
        <ele>4.7</ele>
        <time>2020-06-03T14:37:52Z</time>
      </trkpt>
      <trkpt lat="46.55281" lon="-1.81225">
        <ele>4.7</ele>
        <time>2020-06-03T14:37:53Z</time>
      </trkpt>
      <trkpt lat="46.55284" lon="-1.81229">
        <ele>4.7</ele>
        <time>2020-06-03T14:37:54Z</time>
      </trkpt>
      <trkpt lat="46.55287" lon="-1.81232">
        <ele>4.7</ele>
        <time>2020-06-03T14:37:55Z</time>
      </trkpt>
      <trkpt lat="46.55289" lon="-1.81235">
        <ele>4.7</ele>
        <time>2020-06-03T14:37:56Z</time>
      </trkpt>
      <trkpt lat="46.55291" lon="-1.81239">
        <ele>4.7</ele>
        <time>2020-06-03T14:37:57Z</time>
      </trkpt>
      <trkpt lat="46.55294" lon="-1.81244">
        <ele>4.7</ele>
        <time>2020-06-03T14:37:58Z</time>
      </trkpt>
      <trkpt lat="46.55296" lon="-1.81249">
        <ele>4.6</ele>
        <time>2020-06-03T14:37:59Z</time>
      </trkpt>
      <trkpt lat="46.55299" lon="-1.81255">
        <ele>4.6</ele>
        <time>2020-06-03T14:38:00Z</time>
      </trkpt>
      <trkpt lat="46.55303" lon="-1.81261">
        <ele>4.6</ele>
        <time>2020-06-03T14:38:01Z</time>
      </trkpt>
      <trkpt lat="46.55306" lon="-1.81266">
        <ele>4.6</ele>
        <time>2020-06-03T14:38:02Z</time>
      </trkpt>
      <trkpt lat="46.55309" lon="-1.81272">
        <ele>4.6</ele>
        <time>2020-06-03T14:38:03Z</time>
      </trkpt>
      <trkpt lat="46.55311" lon="-1.81277">
        <ele>4.6</ele>
        <time>2020-06-03T14:38:04Z</time>
      </trkpt>
      <trkpt lat="46.55314" lon="-1.81282">
        <ele>4.6</ele>
        <time>2020-06-03T14:38:05Z</time>
      </trkpt>
      <trkpt lat="46.55317" lon="-1.81288">
        <ele>4.6</ele>
        <time>2020-06-03T14:38:06Z</time>
      </trkpt>
      <trkpt lat="46.5532" lon="-1.81295">
        <ele>4.6</ele>
        <time>2020-06-03T14:38:07Z</time>
      </trkpt>
      <trkpt lat="46.55323" lon="-1.81302">
        <ele>4.7</ele>
        <time>2020-06-03T14:38:08Z</time>
      </trkpt>
      <trkpt lat="46.55325" lon="-1.81307">
        <ele>4.7</ele>
        <time>2020-06-03T14:38:09Z</time>
      </trkpt>
      <trkpt lat="46.55327" lon="-1.81313">
        <ele>4.7</ele>
        <time>2020-06-03T14:38:10Z</time>
      </trkpt>
      <trkpt lat="46.55329" lon="-1.81321">
        <ele>4.7</ele>
        <time>2020-06-03T14:38:11Z</time>
      </trkpt>
      <trkpt lat="46.5533" lon="-1.81326">
        <ele>4.7</ele>
        <time>2020-06-03T14:38:12Z</time>
      </trkpt>
      <trkpt lat="46.55332" lon="-1.81331">
        <ele>4.8</ele>
        <time>2020-06-03T14:38:13Z</time>
      </trkpt>
      <trkpt lat="46.55334" lon="-1.81337">
        <ele>4.8</ele>
        <time>2020-06-03T14:38:14Z</time>
      </trkpt>
      <trkpt lat="46.55336" lon="-1.81343">
        <ele>4.8</ele>
        <time>2020-06-03T14:38:15Z</time>
      </trkpt>
      <trkpt lat="46.55338" lon="-1.81348">
        <ele>4.8</ele>
        <time>2020-06-03T14:38:16Z</time>
      </trkpt>
      <trkpt lat="46.5534" lon="-1.81353">
        <ele>4.8</ele>
        <time>2020-06-03T14:38:17Z</time>
      </trkpt>
      <trkpt lat="46.55343" lon="-1.81357">
        <ele>4.8</ele>
        <time>2020-06-03T14:38:18Z</time>
      </trkpt>
      <trkpt lat="46.55345" lon="-1.81362">
        <ele>4.8</ele>
        <time>2020-06-03T14:38:19Z</time>
      </trkpt>
      <trkpt lat="46.55347" lon="-1.81366">
        <ele>4.8</ele>
        <time>2020-06-03T14:38:20Z</time>
      </trkpt>
      <trkpt lat="46.55349" lon="-1.8137">
        <ele>4.8</ele>
        <time>2020-06-03T14:38:21Z</time>
      </trkpt>
      <trkpt lat="46.55351" lon="-1.81374">
        <ele>4.9</ele>
        <time>2020-06-03T14:38:22Z</time>
      </trkpt>
      <trkpt lat="46.55355" lon="-1.81378">
        <ele>4.9</ele>
        <time>2020-06-03T14:38:23Z</time>
      </trkpt>
      <trkpt lat="46.55357" lon="-1.81383">
        <ele>4.9</ele>
        <time>2020-06-03T14:38:24Z</time>
      </trkpt>
      <trkpt lat="46.5536" lon="-1.81387">
        <ele>4.9</ele>
        <time>2020-06-03T14:38:25Z</time>
      </trkpt>
      <trkpt lat="46.55363" lon="-1.81392">
        <ele>4.9</ele>
        <time>2020-06-03T14:38:26Z</time>
      </trkpt>
      <trkpt lat="46.55366" lon="-1.81396">
        <ele>4.9</ele>
        <time>2020-06-03T14:38:27Z</time>
      </trkpt>
      <trkpt lat="46.55369" lon="-1.81401">
        <ele>5</ele>
        <time>2020-06-03T14:38:28Z</time>
      </trkpt>
      <trkpt lat="46.55373" lon="-1.81406">
        <ele>5</ele>
        <time>2020-06-03T14:38:29Z</time>
      </trkpt>
      <trkpt lat="46.55375" lon="-1.81411">
        <ele>5</ele>
        <time>2020-06-03T14:38:30Z</time>
      </trkpt>
      <trkpt lat="46.55378" lon="-1.81416">
        <ele>5</ele>
        <time>2020-06-03T14:38:31Z</time>
      </trkpt>
      <trkpt lat="46.55382" lon="-1.81421">
        <ele>5</ele>
        <time>2020-06-03T14:38:32Z</time>
      </trkpt>
      <trkpt lat="46.55385" lon="-1.81427">
        <ele>5</ele>
        <time>2020-06-03T14:38:33Z</time>
      </trkpt>
      <trkpt lat="46.55389" lon="-1.81431">
        <ele>5</ele>
        <time>2020-06-03T14:38:34Z</time>
      </trkpt>
      <trkpt lat="46.55392" lon="-1.81436">
        <ele>5</ele>
        <time>2020-06-03T14:38:35Z</time>
      </trkpt>
      <trkpt lat="46.55395" lon="-1.81441">
        <ele>5</ele>
        <time>2020-06-03T14:38:36Z</time>
      </trkpt>
      <trkpt lat="46.55399" lon="-1.81445">
        <ele>5.1</ele>
        <time>2020-06-03T14:38:37Z</time>
      </trkpt>
      <trkpt lat="46.55401" lon="-1.81448">
        <ele>5.1</ele>
        <time>2020-06-03T14:38:38Z</time>
      </trkpt>
      <trkpt lat="46.55403" lon="-1.81451">
        <ele>5.1</ele>
        <time>2020-06-03T14:38:39Z</time>
      </trkpt>
      <trkpt lat="46.55405" lon="-1.81454">
        <ele>5.1</ele>
        <time>2020-06-03T14:38:40Z</time>
      </trkpt>
      <trkpt lat="46.55407" lon="-1.81459">
        <ele>5.1</ele>
        <time>2020-06-03T14:38:41Z</time>
      </trkpt>
      <trkpt lat="46.5541" lon="-1.81464">
        <ele>5.1</ele>
        <time>2020-06-03T14:38:42Z</time>
      </trkpt>
      <trkpt lat="46.55412" lon="-1.81469">
        <ele>5.1</ele>
        <time>2020-06-03T14:38:43Z</time>
      </trkpt>
      <trkpt lat="46.55415" lon="-1.81474">
        <ele>5.1</ele>
        <time>2020-06-03T14:38:44Z</time>
      </trkpt>
      <trkpt lat="46.55416" lon="-1.81479">
        <ele>5.1</ele>
        <time>2020-06-03T14:38:45Z</time>
      </trkpt>
      <trkpt lat="46.55419" lon="-1.81484">
        <ele>5.1</ele>
        <time>2020-06-03T14:38:46Z</time>
      </trkpt>
      <trkpt lat="46.55421" lon="-1.81488">
        <ele>5.1</ele>
        <time>2020-06-03T14:38:47Z</time>
      </trkpt>
      <trkpt lat="46.55423" lon="-1.81493">
        <ele>5.1</ele>
        <time>2020-06-03T14:38:48Z</time>
      </trkpt>
      <trkpt lat="46.55426" lon="-1.81498">
        <ele>5.1</ele>
        <time>2020-06-03T14:38:49Z</time>
      </trkpt>
      <trkpt lat="46.55428" lon="-1.81502">
        <ele>5.1</ele>
        <time>2020-06-03T14:38:50Z</time>
      </trkpt>
      <trkpt lat="46.55431" lon="-1.81506">
        <ele>5.2</ele>
        <time>2020-06-03T14:38:51Z</time>
      </trkpt>
      <trkpt lat="46.55434" lon="-1.8151">
        <ele>5.2</ele>
        <time>2020-06-03T14:38:52Z</time>
      </trkpt>
      <trkpt lat="46.55436" lon="-1.81514">
        <ele>5.2</ele>
        <time>2020-06-03T14:38:53Z</time>
      </trkpt>
      <trkpt lat="46.55438" lon="-1.81519">
        <ele>5.2</ele>
        <time>2020-06-03T14:38:54Z</time>
      </trkpt>
      <trkpt lat="46.55439" lon="-1.81523">
        <ele>5.2</ele>
        <time>2020-06-03T14:38:55Z</time>
      </trkpt>
      <trkpt lat="46.55441" lon="-1.81528">
        <ele>5.3</ele>
        <time>2020-06-03T14:38:56Z</time>
      </trkpt>
      <trkpt lat="46.55444" lon="-1.81532">
        <ele>5.3</ele>
        <time>2020-06-03T14:38:57Z</time>
      </trkpt>
      <trkpt lat="46.55447" lon="-1.81537">
        <ele>5.3</ele>
        <time>2020-06-03T14:38:58Z</time>
      </trkpt>
      <trkpt lat="46.5545" lon="-1.81541">
        <ele>5.3</ele>
        <time>2020-06-03T14:38:59Z</time>
      </trkpt>
      <trkpt lat="46.55452" lon="-1.81545">
        <ele>5.3</ele>
        <time>2020-06-03T14:39:00Z</time>
      </trkpt>
      <trkpt lat="46.55455" lon="-1.81547">
        <ele>5.3</ele>
        <time>2020-06-03T14:39:01Z</time>
      </trkpt>
      <trkpt lat="46.55457" lon="-1.81552">
        <ele>5.4</ele>
        <time>2020-06-03T14:39:02Z</time>
      </trkpt>
      <trkpt lat="46.55459" lon="-1.81558">
        <ele>5.4</ele>
        <time>2020-06-03T14:39:03Z</time>
      </trkpt>
      <trkpt lat="46.55462" lon="-1.81563">
        <ele>5.4</ele>
        <time>2020-06-03T14:39:04Z</time>
      </trkpt>
      <trkpt lat="46.55464" lon="-1.81568">
        <ele>5.4</ele>
        <time>2020-06-03T14:39:05Z</time>
      </trkpt>
      <trkpt lat="46.55466" lon="-1.81573">
        <ele>5.4</ele>
        <time>2020-06-03T14:39:06Z</time>
      </trkpt>
      <trkpt lat="46.55469" lon="-1.81577">
        <ele>5.5</ele>
        <time>2020-06-03T14:39:07Z</time>
      </trkpt>
      <trkpt lat="46.5547" lon="-1.81581">
        <ele>5.5</ele>
        <time>2020-06-03T14:39:08Z</time>
      </trkpt>
      <trkpt lat="46.55471" lon="-1.81586">
        <ele>5.5</ele>
        <time>2020-06-03T14:39:09Z</time>
      </trkpt>
      <trkpt lat="46.55473" lon="-1.81591">
        <ele>5.5</ele>
        <time>2020-06-03T14:39:10Z</time>
      </trkpt>
      <trkpt lat="46.55474" lon="-1.81595">
        <ele>5.5</ele>
        <time>2020-06-03T14:39:11Z</time>
      </trkpt>
      <trkpt lat="46.55476" lon="-1.816">
        <ele>5.5</ele>
        <time>2020-06-03T14:39:12Z</time>
      </trkpt>
      <trkpt lat="46.55476" lon="-1.81604">
        <ele>5.5</ele>
        <time>2020-06-03T14:39:13Z</time>
      </trkpt>
      <trkpt lat="46.55476" lon="-1.81608">
        <ele>5.5</ele>
        <time>2020-06-03T14:39:14Z</time>
      </trkpt>
      <trkpt lat="46.55477" lon="-1.81612">
        <ele>5.6</ele>
        <time>2020-06-03T14:39:15Z</time>
      </trkpt>
      <trkpt lat="46.55478" lon="-1.81617">
        <ele>5.6</ele>
        <time>2020-06-03T14:39:16Z</time>
      </trkpt>
      <trkpt lat="46.55478" lon="-1.81618">
        <ele>5.6</ele>
        <time>2020-06-03T14:39:17Z</time>
      </trkpt>
      <trkpt lat="46.55481" lon="-1.81619">
        <ele>5.6</ele>
        <time>2020-06-03T14:39:18Z</time>
      </trkpt>
      <trkpt lat="46.55483" lon="-1.81619">
        <ele>5.6</ele>
        <time>2020-06-03T14:39:19Z</time>
      </trkpt>
      <trkpt lat="46.55486" lon="-1.81619">
        <ele>5.7</ele>
        <time>2020-06-03T14:39:20Z</time>
      </trkpt>
      <trkpt lat="46.5549" lon="-1.81617">
        <ele>5.7</ele>
        <time>2020-06-03T14:39:21Z</time>
      </trkpt>
      <trkpt lat="46.55495" lon="-1.81615">
        <ele>5.8</ele>
        <time>2020-06-03T14:39:22Z</time>
      </trkpt>
      <trkpt lat="46.55499" lon="-1.81614">
        <ele>5.9</ele>
        <time>2020-06-03T14:39:23Z</time>
      </trkpt>
      <trkpt lat="46.55503" lon="-1.81612">
        <ele>6</ele>
        <time>2020-06-03T14:39:24Z</time>
      </trkpt>
      <trkpt lat="46.55506" lon="-1.8161">
        <ele>6.1</ele>
        <time>2020-06-03T14:39:25Z</time>
      </trkpt>
      <trkpt lat="46.55508" lon="-1.81608">
        <ele>6.2</ele>
        <time>2020-06-03T14:39:26Z</time>
      </trkpt>
      <trkpt lat="46.55511" lon="-1.81606">
        <ele>6.4</ele>
        <time>2020-06-03T14:39:27Z</time>
      </trkpt>
      <trkpt lat="46.55514" lon="-1.81604">
        <ele>6.5</ele>
        <time>2020-06-03T14:39:28Z</time>
      </trkpt>
      <trkpt lat="46.55517" lon="-1.81602">
        <ele>6.6</ele>
        <time>2020-06-03T14:39:29Z</time>
      </trkpt>
      <trkpt lat="46.5552" lon="-1.81599">
        <ele>6.7</ele>
        <time>2020-06-03T14:39:30Z</time>
      </trkpt>
      <trkpt lat="46.55523" lon="-1.81596">
        <ele>6.9</ele>
        <time>2020-06-03T14:39:31Z</time>
      </trkpt>
      <trkpt lat="46.55526" lon="-1.81593">
        <ele>7</ele>
        <time>2020-06-03T14:39:32Z</time>
      </trkpt>
      <trkpt lat="46.55529" lon="-1.8159">
        <ele>7.1</ele>
        <time>2020-06-03T14:39:33Z</time>
      </trkpt>
      <trkpt lat="46.55532" lon="-1.81588">
        <ele>7.2</ele>
        <time>2020-06-03T14:39:34Z</time>
      </trkpt>
      <trkpt lat="46.55535" lon="-1.81585">
        <ele>7.4</ele>
        <time>2020-06-03T14:39:35Z</time>
      </trkpt>
      <trkpt lat="46.55539" lon="-1.81581">
        <ele>7.5</ele>
        <time>2020-06-03T14:39:36Z</time>
      </trkpt>
      <trkpt lat="46.55541" lon="-1.81578">
        <ele>7.5</ele>
        <time>2020-06-03T14:39:37Z</time>
      </trkpt>
      <trkpt lat="46.55544" lon="-1.81576">
        <ele>7.6</ele>
        <time>2020-06-03T14:39:38Z</time>
      </trkpt>
      <trkpt lat="46.55547" lon="-1.81573">
        <ele>7.7</ele>
        <time>2020-06-03T14:39:39Z</time>
      </trkpt>
      <trkpt lat="46.55549" lon="-1.81572">
        <ele>7.7</ele>
        <time>2020-06-03T14:39:40Z</time>
      </trkpt>
      <trkpt lat="46.55552" lon="-1.81569">
        <ele>7.8</ele>
        <time>2020-06-03T14:39:41Z</time>
      </trkpt>
      <trkpt lat="46.55556" lon="-1.81565">
        <ele>7.9</ele>
        <time>2020-06-03T14:39:42Z</time>
      </trkpt>
      <trkpt lat="46.55559" lon="-1.81559">
        <ele>8</ele>
        <time>2020-06-03T14:39:43Z</time>
      </trkpt>
      <trkpt lat="46.55563" lon="-1.81553">
        <ele>8</ele>
        <time>2020-06-03T14:39:44Z</time>
      </trkpt>
      <trkpt lat="46.55565" lon="-1.81548">
        <ele>8</ele>
        <time>2020-06-03T14:39:45Z</time>
      </trkpt>
      <trkpt lat="46.55567" lon="-1.81543">
        <ele>8.1</ele>
        <time>2020-06-03T14:39:46Z</time>
      </trkpt>
      <trkpt lat="46.55568" lon="-1.81539">
        <ele>8.1</ele>
        <time>2020-06-03T14:39:47Z</time>
      </trkpt>
      <trkpt lat="46.5557" lon="-1.81535">
        <ele>8.1</ele>
        <time>2020-06-03T14:39:48Z</time>
      </trkpt>
      <trkpt lat="46.55571" lon="-1.81534">
        <ele>8.1</ele>
        <time>2020-06-03T14:39:49Z</time>
      </trkpt>
      <trkpt lat="46.55573" lon="-1.81531">
        <ele>8.1</ele>
        <time>2020-06-03T14:39:50Z</time>
      </trkpt>
      <trkpt lat="46.55574" lon="-1.81529">
        <ele>8.1</ele>
        <time>2020-06-03T14:39:51Z</time>
      </trkpt>
      <trkpt lat="46.55576" lon="-1.81524">
        <ele>8.1</ele>
        <time>2020-06-03T14:39:52Z</time>
      </trkpt>
      <trkpt lat="46.55579" lon="-1.81519">
        <ele>8.1</ele>
        <time>2020-06-03T14:39:53Z</time>
      </trkpt>
      <trkpt lat="46.55582" lon="-1.81512">
        <ele>8</ele>
        <time>2020-06-03T14:39:54Z</time>
      </trkpt>
      <trkpt lat="46.55585" lon="-1.81505">
        <ele>7.9</ele>
        <time>2020-06-03T14:39:55Z</time>
      </trkpt>
      <trkpt lat="46.55587" lon="-1.81499">
        <ele>7.8</ele>
        <time>2020-06-03T14:39:56Z</time>
      </trkpt>
      <trkpt lat="46.55589" lon="-1.81494">
        <ele>7.7</ele>
        <time>2020-06-03T14:39:57Z</time>
      </trkpt>
      <trkpt lat="46.55591" lon="-1.8149">
        <ele>7.7</ele>
        <time>2020-06-03T14:39:58Z</time>
      </trkpt>
      <trkpt lat="46.55593" lon="-1.81485">
        <ele>7.6</ele>
        <time>2020-06-03T14:39:59Z</time>
      </trkpt>
      <trkpt lat="46.55594" lon="-1.8148">
        <ele>7.6</ele>
        <time>2020-06-03T14:40:00Z</time>
      </trkpt>
      <trkpt lat="46.55595" lon="-1.81476">
        <ele>7.5</ele>
        <time>2020-06-03T14:40:01Z</time>
      </trkpt>
      <trkpt lat="46.55597" lon="-1.81472">
        <ele>7.5</ele>
        <time>2020-06-03T14:40:02Z</time>
      </trkpt>
      <trkpt lat="46.55597" lon="-1.81468">
        <ele>7.5</ele>
        <time>2020-06-03T14:40:03Z</time>
      </trkpt>
      <trkpt lat="46.55599" lon="-1.81464">
        <ele>7.5</ele>
        <time>2020-06-03T14:40:04Z</time>
      </trkpt>
      <trkpt lat="46.55601" lon="-1.8146">
        <ele>7.5</ele>
        <time>2020-06-03T14:40:05Z</time>
      </trkpt>
      <trkpt lat="46.55604" lon="-1.81457">
        <ele>7.5</ele>
        <time>2020-06-03T14:40:06Z</time>
      </trkpt>
      <trkpt lat="46.55606" lon="-1.81452">
        <ele>7.5</ele>
        <time>2020-06-03T14:40:07Z</time>
      </trkpt>
      <trkpt lat="46.55608" lon="-1.81448">
        <ele>7.5</ele>
        <time>2020-06-03T14:40:08Z</time>
      </trkpt>
      <trkpt lat="46.5561" lon="-1.81443">
        <ele>7.6</ele>
        <time>2020-06-03T14:40:09Z</time>
      </trkpt>
      <trkpt lat="46.55611" lon="-1.81437">
        <ele>7.6</ele>
        <time>2020-06-03T14:40:10Z</time>
      </trkpt>
      <trkpt lat="46.55613" lon="-1.81433">
        <ele>7.7</ele>
        <time>2020-06-03T14:40:11Z</time>
      </trkpt>
      <trkpt lat="46.55616" lon="-1.81426">
        <ele>7.8</ele>
        <time>2020-06-03T14:40:12Z</time>
      </trkpt>
      <trkpt lat="46.55619" lon="-1.8142">
        <ele>7.9</ele>
        <time>2020-06-03T14:40:13Z</time>
      </trkpt>
      <trkpt lat="46.55621" lon="-1.81414">
        <ele>8</ele>
        <time>2020-06-03T14:40:14Z</time>
      </trkpt>
      <trkpt lat="46.55624" lon="-1.81409">
        <ele>8</ele>
        <time>2020-06-03T14:40:15Z</time>
      </trkpt>
      <trkpt lat="46.55626" lon="-1.81403">
        <ele>8.1</ele>
        <time>2020-06-03T14:40:16Z</time>
      </trkpt>
      <trkpt lat="46.55629" lon="-1.81397">
        <ele>8.1</ele>
        <time>2020-06-03T14:40:17Z</time>
      </trkpt>
      <trkpt lat="46.55632" lon="-1.81391">
        <ele>8.2</ele>
        <time>2020-06-03T14:40:18Z</time>
      </trkpt>
      <trkpt lat="46.55635" lon="-1.81385">
        <ele>8.2</ele>
        <time>2020-06-03T14:40:19Z</time>
      </trkpt>
      <trkpt lat="46.55635" lon="-1.81378">
        <ele>8.3</ele>
        <time>2020-06-03T14:40:20Z</time>
      </trkpt>
      <trkpt lat="46.55636" lon="-1.81372">
        <ele>8.2</ele>
        <time>2020-06-03T14:40:21Z</time>
      </trkpt>
      <trkpt lat="46.55635" lon="-1.81366">
        <ele>8.1</ele>
        <time>2020-06-03T14:40:22Z</time>
      </trkpt>
      <trkpt lat="46.55633" lon="-1.8136">
        <ele>7.9</ele>
        <time>2020-06-03T14:40:23Z</time>
      </trkpt>
      <trkpt lat="46.55628" lon="-1.81355">
        <ele>7.7</ele>
        <time>2020-06-03T14:40:24Z</time>
      </trkpt>
      <trkpt lat="46.55624" lon="-1.81349">
        <ele>7.4</ele>
        <time>2020-06-03T14:40:25Z</time>
      </trkpt>
      <trkpt lat="46.5562" lon="-1.81343">
        <ele>7.2</ele>
        <time>2020-06-03T14:40:26Z</time>
      </trkpt>
      <trkpt lat="46.55617" lon="-1.81335">
        <ele>7</ele>
        <time>2020-06-03T14:40:27Z</time>
      </trkpt>
      <trkpt lat="46.55613" lon="-1.81328">
        <ele>6.9</ele>
        <time>2020-06-03T14:40:28Z</time>
      </trkpt>
      <trkpt lat="46.55609" lon="-1.81321">
        <ele>6.9</ele>
        <time>2020-06-03T14:40:29Z</time>
      </trkpt>
      <trkpt lat="46.55607" lon="-1.81312">
        <ele>7</ele>
        <time>2020-06-03T14:40:30Z</time>
      </trkpt>
      <trkpt lat="46.55604" lon="-1.81306">
        <ele>7</ele>
        <time>2020-06-03T14:40:31Z</time>
      </trkpt>
      <trkpt lat="46.556" lon="-1.81301">
        <ele>7.1</ele>
        <time>2020-06-03T14:40:32Z</time>
      </trkpt>
      <trkpt lat="46.55596" lon="-1.81296">
        <ele>7.1</ele>
        <time>2020-06-03T14:40:33Z</time>
      </trkpt>
      <trkpt lat="46.55593" lon="-1.81292">
        <ele>7.2</ele>
        <time>2020-06-03T14:40:34Z</time>
      </trkpt>
      <trkpt lat="46.5559" lon="-1.81288">
        <ele>7.2</ele>
        <time>2020-06-03T14:40:35Z</time>
      </trkpt>
      <trkpt lat="46.55588" lon="-1.81283">
        <ele>7.2</ele>
        <time>2020-06-03T14:40:36Z</time>
      </trkpt>
      <trkpt lat="46.55586" lon="-1.81279">
        <ele>7.3</ele>
        <time>2020-06-03T14:40:37Z</time>
      </trkpt>
      <trkpt lat="46.55587" lon="-1.81274">
        <ele>7.3</ele>
        <time>2020-06-03T14:40:38Z</time>
      </trkpt>
      <trkpt lat="46.55588" lon="-1.81268">
        <ele>7.3</ele>
        <time>2020-06-03T14:40:39Z</time>
      </trkpt>
      <trkpt lat="46.5559" lon="-1.81264">
        <ele>7.3</ele>
        <time>2020-06-03T14:40:40Z</time>
      </trkpt>
      <trkpt lat="46.55592" lon="-1.81262">
        <ele>7.3</ele>
        <time>2020-06-03T14:40:41Z</time>
      </trkpt>
      <trkpt lat="46.55596" lon="-1.81257">
        <ele>7.3</ele>
        <time>2020-06-03T14:40:42Z</time>
      </trkpt>
      <trkpt lat="46.55599" lon="-1.81254">
        <ele>7.3</ele>
        <time>2020-06-03T14:40:43Z</time>
      </trkpt>
      <trkpt lat="46.55603" lon="-1.8125">
        <ele>7.3</ele>
        <time>2020-06-03T14:40:44Z</time>
      </trkpt>
      <trkpt lat="46.55606" lon="-1.81245">
        <ele>7.3</ele>
        <time>2020-06-03T14:40:45Z</time>
      </trkpt>
      <trkpt lat="46.55608" lon="-1.81239">
        <ele>7.3</ele>
        <time>2020-06-03T14:40:46Z</time>
      </trkpt>
      <trkpt lat="46.55611" lon="-1.81234">
        <ele>7.3</ele>
        <time>2020-06-03T14:40:47Z</time>
      </trkpt>
      <trkpt lat="46.55614" lon="-1.8123">
        <ele>7.3</ele>
        <time>2020-06-03T14:40:48Z</time>
      </trkpt>
      <trkpt lat="46.55617" lon="-1.81225">
        <ele>7.3</ele>
        <time>2020-06-03T14:40:49Z</time>
      </trkpt>
      <trkpt lat="46.5562" lon="-1.8122">
        <ele>7.3</ele>
        <time>2020-06-03T14:40:50Z</time>
      </trkpt>
      <trkpt lat="46.55623" lon="-1.81215">
        <ele>7.3</ele>
        <time>2020-06-03T14:40:51Z</time>
      </trkpt>
      <trkpt lat="46.55626" lon="-1.8121">
        <ele>7.3</ele>
        <time>2020-06-03T14:40:52Z</time>
      </trkpt>
      <trkpt lat="46.55628" lon="-1.81205">
        <ele>7.3</ele>
        <time>2020-06-03T14:40:53Z</time>
      </trkpt>
      <trkpt lat="46.5563" lon="-1.81199">
        <ele>7.4</ele>
        <time>2020-06-03T14:40:54Z</time>
      </trkpt>
      <trkpt lat="46.55632" lon="-1.81194">
        <ele>7.4</ele>
        <time>2020-06-03T14:40:55Z</time>
      </trkpt>
      <trkpt lat="46.55635" lon="-1.81189">
        <ele>7.4</ele>
        <time>2020-06-03T14:40:56Z</time>
      </trkpt>
      <trkpt lat="46.55638" lon="-1.81185">
        <ele>7.4</ele>
        <time>2020-06-03T14:40:57Z</time>
      </trkpt>
      <trkpt lat="46.5564" lon="-1.81179">
        <ele>7.4</ele>
        <time>2020-06-03T14:40:58Z</time>
      </trkpt>
      <trkpt lat="46.55642" lon="-1.81174">
        <ele>7.5</ele>
        <time>2020-06-03T14:40:59Z</time>
      </trkpt>
      <trkpt lat="46.55643" lon="-1.81169">
        <ele>7.5</ele>
        <time>2020-06-03T14:41:00Z</time>
      </trkpt>
      <trkpt lat="46.55645" lon="-1.81165">
        <ele>7.5</ele>
        <time>2020-06-03T14:41:01Z</time>
      </trkpt>
      <trkpt lat="46.55647" lon="-1.81161">
        <ele>7.6</ele>
        <time>2020-06-03T14:41:02Z</time>
      </trkpt>
      <trkpt lat="46.55649" lon="-1.81157">
        <ele>7.6</ele>
        <time>2020-06-03T14:41:03Z</time>
      </trkpt>
      <trkpt lat="46.5565" lon="-1.81152">
        <ele>7.6</ele>
        <time>2020-06-03T14:41:04Z</time>
      </trkpt>
      <trkpt lat="46.55653" lon="-1.81148">
        <ele>7.6</ele>
        <time>2020-06-03T14:41:05Z</time>
      </trkpt>
      <trkpt lat="46.55654" lon="-1.81147">
        <ele>7.6</ele>
        <time>2020-06-03T14:41:06Z</time>
      </trkpt>
      <trkpt lat="46.55655" lon="-1.81145">
        <ele>7.7</ele>
        <time>2020-06-03T14:41:07Z</time>
      </trkpt>
      <trkpt lat="46.55655" lon="-1.81143">
        <ele>7.7</ele>
        <time>2020-06-03T14:41:08Z</time>
      </trkpt>
      <trkpt lat="46.55655" lon="-1.81142">
        <ele>7.7</ele>
        <time>2020-06-03T14:41:09Z</time>
      </trkpt>
      <trkpt lat="46.55654" lon="-1.81141">
        <ele>7.7</ele>
        <time>2020-06-03T14:41:10Z</time>
      </trkpt>
      <trkpt lat="46.55654" lon="-1.81139">
        <ele>7.7</ele>
        <time>2020-06-03T14:41:11Z</time>
      </trkpt>
      <trkpt lat="46.55654" lon="-1.81137">
        <ele>7.7</ele>
        <time>2020-06-03T14:41:12Z</time>
      </trkpt>
      <trkpt lat="46.55655" lon="-1.81135">
        <ele>7.7</ele>
        <time>2020-06-03T14:41:13Z</time>
      </trkpt>
      <trkpt lat="46.55655" lon="-1.81133">
        <ele>7.7</ele>
        <time>2020-06-03T14:41:14Z</time>
      </trkpt>
      <trkpt lat="46.55655" lon="-1.81131">
        <ele>7.7</ele>
        <time>2020-06-03T14:41:15Z</time>
      </trkpt>
      <trkpt lat="46.55656" lon="-1.8113">
        <ele>7.7</ele>
        <time>2020-06-03T14:41:16Z</time>
      </trkpt>
      <trkpt lat="46.55656" lon="-1.81129">
        <ele>7.7</ele>
        <time>2020-06-03T14:41:17Z</time>
      </trkpt>
      <trkpt lat="46.55656" lon="-1.81127">
        <ele>7.7</ele>
        <time>2020-06-03T14:41:18Z</time>
      </trkpt>
      <trkpt lat="46.55655" lon="-1.81125">
        <ele>7.7</ele>
        <time>2020-06-03T14:41:19Z</time>
      </trkpt>
      <trkpt lat="46.55654" lon="-1.8112">
        <ele>7.8</ele>
        <time>2020-06-03T14:41:20Z</time>
      </trkpt>
      <trkpt lat="46.55654" lon="-1.81118">
        <ele>7.8</ele>
        <time>2020-06-03T14:41:21Z</time>
      </trkpt>
      <trkpt lat="46.55656" lon="-1.81113">
        <ele>7.8</ele>
        <time>2020-06-03T14:41:22Z</time>
      </trkpt>
      <trkpt lat="46.55656" lon="-1.81111">
        <ele>7.8</ele>
        <time>2020-06-03T14:41:23Z</time>
      </trkpt>
      <trkpt lat="46.55657" lon="-1.81106">
        <ele>7.8</ele>
        <time>2020-06-03T14:41:24Z</time>
      </trkpt>
      <trkpt lat="46.55657" lon="-1.81105">
        <ele>7.7</ele>
        <time>2020-06-03T14:41:25Z</time>
      </trkpt>
      <trkpt lat="46.55656" lon="-1.81101">
        <ele>7.7</ele>
        <time>2020-06-03T14:41:26Z</time>
      </trkpt>
      <trkpt lat="46.55656" lon="-1.811">
        <ele>7.7</ele>
        <time>2020-06-03T14:41:27Z</time>
      </trkpt>
      <trkpt lat="46.55656" lon="-1.81095">
        <ele>7.7</ele>
        <time>2020-06-03T14:41:28Z</time>
      </trkpt>
      <trkpt lat="46.55657" lon="-1.81094">
        <ele>7.7</ele>
        <time>2020-06-03T14:41:29Z</time>
      </trkpt>
      <trkpt lat="46.55659" lon="-1.8109">
        <ele>7.6</ele>
        <time>2020-06-03T14:41:30Z</time>
      </trkpt>
      <trkpt lat="46.5566" lon="-1.81089">
        <ele>7.6</ele>
        <time>2020-06-03T14:41:31Z</time>
      </trkpt>
      <trkpt lat="46.55662" lon="-1.81085">
        <ele>7.6</ele>
        <time>2020-06-03T14:41:32Z</time>
      </trkpt>
      <trkpt lat="46.55663" lon="-1.81083">
        <ele>7.6</ele>
        <time>2020-06-03T14:41:33Z</time>
      </trkpt>
      <trkpt lat="46.55666" lon="-1.8108">
        <ele>7.6</ele>
        <time>2020-06-03T14:41:34Z</time>
      </trkpt>
      <trkpt lat="46.55669" lon="-1.81075">
        <ele>7.6</ele>
        <time>2020-06-03T14:41:35Z</time>
      </trkpt>
      <trkpt lat="46.55672" lon="-1.8107">
        <ele>7.6</ele>
        <time>2020-06-03T14:41:36Z</time>
      </trkpt>
      <trkpt lat="46.55675" lon="-1.81065">
        <ele>7.6</ele>
        <time>2020-06-03T14:41:37Z</time>
      </trkpt>
      <trkpt lat="46.55677" lon="-1.8106">
        <ele>7.6</ele>
        <time>2020-06-03T14:41:38Z</time>
      </trkpt>
      <trkpt lat="46.55681" lon="-1.81055">
        <ele>7.6</ele>
        <time>2020-06-03T14:41:39Z</time>
      </trkpt>
      <trkpt lat="46.55684" lon="-1.81048">
        <ele>7.5</ele>
        <time>2020-06-03T14:41:40Z</time>
      </trkpt>
      <trkpt lat="46.55687" lon="-1.81043">
        <ele>7.5</ele>
        <time>2020-06-03T14:41:41Z</time>
      </trkpt>
      <trkpt lat="46.5569" lon="-1.81037">
        <ele>7.5</ele>
        <time>2020-06-03T14:41:42Z</time>
      </trkpt>
      <trkpt lat="46.55694" lon="-1.81032">
        <ele>7.5</ele>
        <time>2020-06-03T14:41:43Z</time>
      </trkpt>
      <trkpt lat="46.55697" lon="-1.81026">
        <ele>7.5</ele>
        <time>2020-06-03T14:41:44Z</time>
      </trkpt>
      <trkpt lat="46.557" lon="-1.81021">
        <ele>7.5</ele>
        <time>2020-06-03T14:41:45Z</time>
      </trkpt>
      <trkpt lat="46.55703" lon="-1.81015">
        <ele>7.4</ele>
        <time>2020-06-03T14:41:46Z</time>
      </trkpt>
      <trkpt lat="46.55707" lon="-1.81009">
        <ele>7.4</ele>
        <time>2020-06-03T14:41:47Z</time>
      </trkpt>
      <trkpt lat="46.5571" lon="-1.81003">
        <ele>7.4</ele>
        <time>2020-06-03T14:41:48Z</time>
      </trkpt>
      <trkpt lat="46.55712" lon="-1.80995">
        <ele>7.3</ele>
        <time>2020-06-03T14:41:49Z</time>
      </trkpt>
      <trkpt lat="46.55714" lon="-1.8099">
        <ele>7.2</ele>
        <time>2020-06-03T14:41:50Z</time>
      </trkpt>
      <trkpt lat="46.55715" lon="-1.80986">
        <ele>7.2</ele>
        <time>2020-06-03T14:41:51Z</time>
      </trkpt>
      <trkpt lat="46.55717" lon="-1.80981">
        <ele>7.2</ele>
        <time>2020-06-03T14:41:52Z</time>
      </trkpt>
      <trkpt lat="46.55718" lon="-1.80976">
        <ele>7.1</ele>
        <time>2020-06-03T14:41:53Z</time>
      </trkpt>
      <trkpt lat="46.5572" lon="-1.80972">
        <ele>7.1</ele>
        <time>2020-06-03T14:41:54Z</time>
      </trkpt>
      <trkpt lat="46.5572" lon="-1.80971">
        <ele>7.1</ele>
        <time>2020-06-03T14:41:55Z</time>
      </trkpt>
      <trkpt lat="46.55722" lon="-1.80967">
        <ele>7</ele>
        <time>2020-06-03T14:41:56Z</time>
      </trkpt>
      <trkpt lat="46.55723" lon="-1.80966">
        <ele>7</ele>
        <time>2020-06-03T14:41:57Z</time>
      </trkpt>
      <trkpt lat="46.55725" lon="-1.80962">
        <ele>6.9</ele>
        <time>2020-06-03T14:41:58Z</time>
      </trkpt>
      <trkpt lat="46.55725" lon="-1.80961">
        <ele>6.9</ele>
        <time>2020-06-03T14:41:59Z</time>
      </trkpt>
      <trkpt lat="46.55727" lon="-1.80958">
        <ele>6.9</ele>
        <time>2020-06-03T14:42:00Z</time>
      </trkpt>
      <trkpt lat="46.55728" lon="-1.80957">
        <ele>6.8</ele>
        <time>2020-06-03T14:42:01Z</time>
      </trkpt>
      <trkpt lat="46.55729" lon="-1.80956">
        <ele>6.8</ele>
        <time>2020-06-03T14:42:02Z</time>
      </trkpt>
      <trkpt lat="46.55729" lon="-1.80956">
        <ele>6.8</ele>
        <time>2020-06-03T14:42:03Z</time>
      </trkpt>
      <trkpt lat="46.55729" lon="-1.80956">
        <ele>6.8</ele>
        <time>2020-06-03T14:42:04Z</time>
      </trkpt>
      <trkpt lat="46.5573" lon="-1.80955">
        <ele>6.8</ele>
        <time>2020-06-03T14:42:05Z</time>
      </trkpt>
      <trkpt lat="46.5573" lon="-1.80955">
        <ele>6.8</ele>
        <time>2020-06-03T14:42:06Z</time>
      </trkpt>
      <trkpt lat="46.5573" lon="-1.80955">
        <ele>6.8</ele>
        <time>2020-06-03T14:42:07Z</time>
      </trkpt>
      <trkpt lat="46.5573" lon="-1.80954">
        <ele>6.8</ele>
        <time>2020-06-03T14:42:08Z</time>
      </trkpt>
      <trkpt lat="46.5573" lon="-1.80954">
        <ele>6.8</ele>
        <time>2020-06-03T14:42:09Z</time>
      </trkpt>
      <trkpt lat="46.5573" lon="-1.80954">
        <ele>6.8</ele>
        <time>2020-06-03T14:42:10Z</time>
      </trkpt>
      <trkpt lat="46.5573" lon="-1.80954">
        <ele>6.8</ele>
        <time>2020-06-03T14:42:11Z</time>
      </trkpt>
      <trkpt lat="46.5573" lon="-1.80953">
        <ele>6.8</ele>
        <time>2020-06-03T14:42:12Z</time>
      </trkpt>
      <trkpt lat="46.5573" lon="-1.80953">
        <ele>6.8</ele>
        <time>2020-06-03T14:42:13Z</time>
      </trkpt>
      <trkpt lat="46.5573" lon="-1.80953">
        <ele>6.8</ele>
        <time>2020-06-03T14:42:14Z</time>
      </trkpt>
      <trkpt lat="46.5573" lon="-1.80952">
        <ele>6.8</ele>
        <time>2020-06-03T14:42:15Z</time>
      </trkpt>
      <trkpt lat="46.5573" lon="-1.8095">
        <ele>6.7</ele>
        <time>2020-06-03T14:42:16Z</time>
      </trkpt>
      <trkpt lat="46.55731" lon="-1.80949">
        <ele>6.7</ele>
        <time>2020-06-03T14:42:17Z</time>
      </trkpt>
      <trkpt lat="46.55732" lon="-1.80948">
        <ele>6.7</ele>
        <time>2020-06-03T14:42:18Z</time>
      </trkpt>
      <trkpt lat="46.55732" lon="-1.80947">
        <ele>6.7</ele>
        <time>2020-06-03T14:42:19Z</time>
      </trkpt>
      <trkpt lat="46.55733" lon="-1.80946">
        <ele>6.6</ele>
        <time>2020-06-03T14:42:20Z</time>
      </trkpt>
      <trkpt lat="46.55734" lon="-1.80945">
        <ele>6.6</ele>
        <time>2020-06-03T14:42:21Z</time>
      </trkpt>
      <trkpt lat="46.55735" lon="-1.80942">
        <ele>6.5</ele>
        <time>2020-06-03T14:42:22Z</time>
      </trkpt>
      <trkpt lat="46.55735" lon="-1.80941">
        <ele>6.5</ele>
        <time>2020-06-03T14:42:23Z</time>
      </trkpt>
      <trkpt lat="46.55736" lon="-1.8094">
        <ele>6.5</ele>
        <time>2020-06-03T14:42:24Z</time>
      </trkpt>
      <trkpt lat="46.55736" lon="-1.8094">
        <ele>6.5</ele>
        <time>2020-06-03T14:42:25Z</time>
      </trkpt>
      <trkpt lat="46.55736" lon="-1.80939">
        <ele>6.5</ele>
        <time>2020-06-03T14:42:26Z</time>
      </trkpt>
      <trkpt lat="46.55736" lon="-1.80939">
        <ele>6.5</ele>
        <time>2020-06-03T14:42:27Z</time>
      </trkpt>
      <trkpt lat="46.55736" lon="-1.80939">
        <ele>6.5</ele>
        <time>2020-06-03T14:42:28Z</time>
      </trkpt>
      <trkpt lat="46.55736" lon="-1.80938">
        <ele>6.5</ele>
        <time>2020-06-03T14:42:29Z</time>
      </trkpt>
      <trkpt lat="46.55737" lon="-1.80938">
        <ele>6.4</ele>
        <time>2020-06-03T14:42:30Z</time>
      </trkpt>
      <trkpt lat="46.55737" lon="-1.80937">
        <ele>6.4</ele>
        <time>2020-06-03T14:42:31Z</time>
      </trkpt>
      <trkpt lat="46.55737" lon="-1.80937">
        <ele>6.4</ele>
        <time>2020-06-03T14:42:32Z</time>
      </trkpt>
      <trkpt lat="46.55737" lon="-1.80936">
        <ele>6.4</ele>
        <time>2020-06-03T14:42:33Z</time>
      </trkpt>
      <trkpt lat="46.55737" lon="-1.80936">
        <ele>6.4</ele>
        <time>2020-06-03T14:42:34Z</time>
      </trkpt>
      <trkpt lat="46.55737" lon="-1.80936">
        <ele>6.4</ele>
        <time>2020-06-03T14:42:35Z</time>
      </trkpt>
      <trkpt lat="46.55738" lon="-1.80931">
        <ele>6.3</ele>
        <time>2020-06-03T14:42:36Z</time>
      </trkpt>
      <trkpt lat="46.55738" lon="-1.80929">
        <ele>6.3</ele>
        <time>2020-06-03T14:42:37Z</time>
      </trkpt>
      <trkpt lat="46.5574" lon="-1.80925">
        <ele>6.2</ele>
        <time>2020-06-03T14:42:38Z</time>
      </trkpt>
      <trkpt lat="46.55743" lon="-1.8092">
        <ele>6.1</ele>
        <time>2020-06-03T14:42:39Z</time>
      </trkpt>
      <trkpt lat="46.55746" lon="-1.80916">
        <ele>5.9</ele>
        <time>2020-06-03T14:42:40Z</time>
      </trkpt>
      <trkpt lat="46.55749" lon="-1.80913">
        <ele>5.8</ele>
        <time>2020-06-03T14:42:41Z</time>
      </trkpt>
      <trkpt lat="46.55752" lon="-1.80908">
        <ele>5.7</ele>
        <time>2020-06-03T14:42:42Z</time>
      </trkpt>
      <trkpt lat="46.55755" lon="-1.80904">
        <ele>5.6</ele>
        <time>2020-06-03T14:42:43Z</time>
      </trkpt>
      <trkpt lat="46.55759" lon="-1.80898">
        <ele>5.4</ele>
        <time>2020-06-03T14:42:44Z</time>
      </trkpt>
      <trkpt lat="46.55762" lon="-1.80894">
        <ele>5.3</ele>
        <time>2020-06-03T14:42:45Z</time>
      </trkpt>
      <trkpt lat="46.55767" lon="-1.80888">
        <ele>5.2</ele>
        <time>2020-06-03T14:42:46Z</time>
      </trkpt>
      <trkpt lat="46.55771" lon="-1.80882">
        <ele>5</ele>
        <time>2020-06-03T14:42:47Z</time>
      </trkpt>
      <trkpt lat="46.55775" lon="-1.80877">
        <ele>4.9</ele>
        <time>2020-06-03T14:42:48Z</time>
      </trkpt>
      <trkpt lat="46.5578" lon="-1.80872">
        <ele>4.8</ele>
        <time>2020-06-03T14:42:49Z</time>
      </trkpt>
      <trkpt lat="46.55784" lon="-1.80869">
        <ele>4.8</ele>
        <time>2020-06-03T14:42:50Z</time>
      </trkpt>
      <trkpt lat="46.55789" lon="-1.80867">
        <ele>4.8</ele>
        <time>2020-06-03T14:42:51Z</time>
      </trkpt>
      <trkpt lat="46.55794" lon="-1.80867">
        <ele>4.8</ele>
        <time>2020-06-03T14:42:52Z</time>
      </trkpt>
      <trkpt lat="46.55799" lon="-1.80867">
        <ele>4.8</ele>
        <time>2020-06-03T14:42:53Z</time>
      </trkpt>
      <trkpt lat="46.55803" lon="-1.80868">
        <ele>4.8</ele>
        <time>2020-06-03T14:42:54Z</time>
      </trkpt>
      <trkpt lat="46.55806" lon="-1.80868">
        <ele>4.8</ele>
        <time>2020-06-03T14:42:55Z</time>
      </trkpt>
      <trkpt lat="46.5581" lon="-1.80869">
        <ele>4.8</ele>
        <time>2020-06-03T14:42:56Z</time>
      </trkpt>
      <trkpt lat="46.55814" lon="-1.80868">
        <ele>4.8</ele>
        <time>2020-06-03T14:42:57Z</time>
      </trkpt>
      <trkpt lat="46.55818" lon="-1.80867">
        <ele>4.8</ele>
        <time>2020-06-03T14:42:58Z</time>
      </trkpt>
      <trkpt lat="46.55823" lon="-1.80866">
        <ele>4.8</ele>
        <time>2020-06-03T14:42:59Z</time>
      </trkpt>
      <trkpt lat="46.55829" lon="-1.80867">
        <ele>4.8</ele>
        <time>2020-06-03T14:43:00Z</time>
      </trkpt>
      <trkpt lat="46.55833" lon="-1.80869">
        <ele>4.8</ele>
        <time>2020-06-03T14:43:01Z</time>
      </trkpt>
      <trkpt lat="46.55838" lon="-1.80869">
        <ele>4.9</ele>
        <time>2020-06-03T14:43:02Z</time>
      </trkpt>
      <trkpt lat="46.55843" lon="-1.80869">
        <ele>4.9</ele>
        <time>2020-06-03T14:43:03Z</time>
      </trkpt>
      <trkpt lat="46.55847" lon="-1.80869">
        <ele>4.9</ele>
        <time>2020-06-03T14:43:04Z</time>
      </trkpt>
      <trkpt lat="46.5585" lon="-1.8087">
        <ele>4.9</ele>
        <time>2020-06-03T14:43:05Z</time>
      </trkpt>
      <trkpt lat="46.55855" lon="-1.80873">
        <ele>5</ele>
        <time>2020-06-03T14:43:06Z</time>
      </trkpt>
      <trkpt lat="46.55858" lon="-1.80875">
        <ele>5</ele>
        <time>2020-06-03T14:43:07Z</time>
      </trkpt>
      <trkpt lat="46.55864" lon="-1.80877">
        <ele>5</ele>
        <time>2020-06-03T14:43:08Z</time>
      </trkpt>
      <trkpt lat="46.55869" lon="-1.80879">
        <ele>5</ele>
        <time>2020-06-03T14:43:09Z</time>
      </trkpt>
      <trkpt lat="46.55875" lon="-1.80881">
        <ele>5.1</ele>
        <time>2020-06-03T14:43:10Z</time>
      </trkpt>
      <trkpt lat="46.55881" lon="-1.80883">
        <ele>5.1</ele>
        <time>2020-06-03T14:43:11Z</time>
      </trkpt>
      <trkpt lat="46.55886" lon="-1.80887">
        <ele>5.2</ele>
        <time>2020-06-03T14:43:12Z</time>
      </trkpt>
      <trkpt lat="46.5589" lon="-1.80889">
        <ele>5.2</ele>
        <time>2020-06-03T14:43:13Z</time>
      </trkpt>
      <trkpt lat="46.55894" lon="-1.80893">
        <ele>5.3</ele>
        <time>2020-06-03T14:43:14Z</time>
      </trkpt>
      <trkpt lat="46.55897" lon="-1.80896">
        <ele>5.4</ele>
        <time>2020-06-03T14:43:15Z</time>
      </trkpt>
      <trkpt lat="46.559" lon="-1.80899">
        <ele>5.4</ele>
        <time>2020-06-03T14:43:16Z</time>
      </trkpt>
      <trkpt lat="46.55903" lon="-1.80901">
        <ele>5.5</ele>
        <time>2020-06-03T14:43:17Z</time>
      </trkpt>
      <trkpt lat="46.55906" lon="-1.80905">
        <ele>5.6</ele>
        <time>2020-06-03T14:43:18Z</time>
      </trkpt>
      <trkpt lat="46.55909" lon="-1.80908">
        <ele>5.6</ele>
        <time>2020-06-03T14:43:19Z</time>
      </trkpt>
      <trkpt lat="46.55912" lon="-1.80912">
        <ele>5.7</ele>
        <time>2020-06-03T14:43:20Z</time>
      </trkpt>
      <trkpt lat="46.55915" lon="-1.80915">
        <ele>5.7</ele>
        <time>2020-06-03T14:43:21Z</time>
      </trkpt>
      <trkpt lat="46.55919" lon="-1.80918">
        <ele>5.7</ele>
        <time>2020-06-03T14:43:22Z</time>
      </trkpt>
      <trkpt lat="46.5592" lon="-1.80918">
        <ele>5.8</ele>
        <time>2020-06-03T14:43:23Z</time>
      </trkpt>
      <trkpt lat="46.55925" lon="-1.8092">
        <ele>5.8</ele>
        <time>2020-06-03T14:43:24Z</time>
      </trkpt>
      <trkpt lat="46.55928" lon="-1.80922">
        <ele>5.8</ele>
        <time>2020-06-03T14:43:25Z</time>
      </trkpt>
      <trkpt lat="46.55933" lon="-1.80924">
        <ele>5.8</ele>
        <time>2020-06-03T14:43:26Z</time>
      </trkpt>
      <trkpt lat="46.55937" lon="-1.80926">
        <ele>5.8</ele>
        <time>2020-06-03T14:43:27Z</time>
      </trkpt>
      <trkpt lat="46.55942" lon="-1.80927">
        <ele>5.8</ele>
        <time>2020-06-03T14:43:28Z</time>
      </trkpt>
      <trkpt lat="46.55948" lon="-1.80929">
        <ele>5.8</ele>
        <time>2020-06-03T14:43:29Z</time>
      </trkpt>
      <trkpt lat="46.55953" lon="-1.8093">
        <ele>5.8</ele>
        <time>2020-06-03T14:43:30Z</time>
      </trkpt>
      <trkpt lat="46.55958" lon="-1.80933">
        <ele>5.8</ele>
        <time>2020-06-03T14:43:31Z</time>
      </trkpt>
      <trkpt lat="46.55963" lon="-1.80935">
        <ele>5.8</ele>
        <time>2020-06-03T14:43:32Z</time>
      </trkpt>
      <trkpt lat="46.55969" lon="-1.80937">
        <ele>5.8</ele>
        <time>2020-06-03T14:43:33Z</time>
      </trkpt>
      <trkpt lat="46.55974" lon="-1.80939">
        <ele>5.8</ele>
        <time>2020-06-03T14:43:34Z</time>
      </trkpt>
      <trkpt lat="46.55979" lon="-1.80942">
        <ele>5.7</ele>
        <time>2020-06-03T14:43:35Z</time>
      </trkpt>
      <trkpt lat="46.55984" lon="-1.80945">
        <ele>5.7</ele>
        <time>2020-06-03T14:43:36Z</time>
      </trkpt>
      <trkpt lat="46.55989" lon="-1.80949">
        <ele>5.7</ele>
        <time>2020-06-03T14:43:37Z</time>
      </trkpt>
      <trkpt lat="46.55993" lon="-1.80951">
        <ele>5.6</ele>
        <time>2020-06-03T14:43:38Z</time>
      </trkpt>
      <trkpt lat="46.55998" lon="-1.80954">
        <ele>5.6</ele>
        <time>2020-06-03T14:43:39Z</time>
      </trkpt>
      <trkpt lat="46.56004" lon="-1.80956">
        <ele>5.5</ele>
        <time>2020-06-03T14:43:40Z</time>
      </trkpt>
      <trkpt lat="46.5601" lon="-1.80959">
        <ele>5.5</ele>
        <time>2020-06-03T14:43:41Z</time>
      </trkpt>
      <trkpt lat="46.56015" lon="-1.80961">
        <ele>5.4</ele>
        <time>2020-06-03T14:43:42Z</time>
      </trkpt>
      <trkpt lat="46.5602" lon="-1.80964">
        <ele>5.4</ele>
        <time>2020-06-03T14:43:43Z</time>
      </trkpt>
      <trkpt lat="46.56024" lon="-1.80966">
        <ele>5.4</ele>
        <time>2020-06-03T14:43:44Z</time>
      </trkpt>
      <trkpt lat="46.56028" lon="-1.80968">
        <ele>5.3</ele>
        <time>2020-06-03T14:43:45Z</time>
      </trkpt>
      <trkpt lat="46.56033" lon="-1.8097">
        <ele>5.3</ele>
        <time>2020-06-03T14:43:46Z</time>
      </trkpt>
      <trkpt lat="46.56037" lon="-1.80973">
        <ele>5.2</ele>
        <time>2020-06-03T14:43:47Z</time>
      </trkpt>
      <trkpt lat="46.56041" lon="-1.80977">
        <ele>5.2</ele>
        <time>2020-06-03T14:43:48Z</time>
      </trkpt>
      <trkpt lat="46.56045" lon="-1.80982">
        <ele>5.2</ele>
        <time>2020-06-03T14:43:49Z</time>
      </trkpt>
      <trkpt lat="46.56048" lon="-1.80986">
        <ele>5.1</ele>
        <time>2020-06-03T14:43:50Z</time>
      </trkpt>
      <trkpt lat="46.56051" lon="-1.8099">
        <ele>5.1</ele>
        <time>2020-06-03T14:43:51Z</time>
      </trkpt>
      <trkpt lat="46.56055" lon="-1.80994">
        <ele>5.1</ele>
        <time>2020-06-03T14:43:52Z</time>
      </trkpt>
      <trkpt lat="46.56058" lon="-1.80999">
        <ele>5</ele>
        <time>2020-06-03T14:43:53Z</time>
      </trkpt>
      <trkpt lat="46.56061" lon="-1.81004">
        <ele>5</ele>
        <time>2020-06-03T14:43:54Z</time>
      </trkpt>
      <trkpt lat="46.56064" lon="-1.8101">
        <ele>5</ele>
        <time>2020-06-03T14:43:55Z</time>
      </trkpt>
      <trkpt lat="46.56068" lon="-1.81014">
        <ele>4.9</ele>
        <time>2020-06-03T14:43:56Z</time>
      </trkpt>
      <trkpt lat="46.56072" lon="-1.8102">
        <ele>4.9</ele>
        <time>2020-06-03T14:43:57Z</time>
      </trkpt>
      <trkpt lat="46.56075" lon="-1.81025">
        <ele>4.8</ele>
        <time>2020-06-03T14:43:58Z</time>
      </trkpt>
      <trkpt lat="46.56079" lon="-1.81031">
        <ele>4.8</ele>
        <time>2020-06-03T14:43:59Z</time>
      </trkpt>
      <trkpt lat="46.56083" lon="-1.81035">
        <ele>4.7</ele>
        <time>2020-06-03T14:44:00Z</time>
      </trkpt>
      <trkpt lat="46.56086" lon="-1.81039">
        <ele>4.7</ele>
        <time>2020-06-03T14:44:01Z</time>
      </trkpt>
      <trkpt lat="46.5609" lon="-1.81044">
        <ele>4.6</ele>
        <time>2020-06-03T14:44:02Z</time>
      </trkpt>
      <trkpt lat="46.56093" lon="-1.81048">
        <ele>4.6</ele>
        <time>2020-06-03T14:44:03Z</time>
      </trkpt>
      <trkpt lat="46.56097" lon="-1.81053">
        <ele>4.6</ele>
        <time>2020-06-03T14:44:04Z</time>
      </trkpt>
      <trkpt lat="46.56101" lon="-1.81058">
        <ele>4.6</ele>
        <time>2020-06-03T14:44:05Z</time>
      </trkpt>
      <trkpt lat="46.56106" lon="-1.81062">
        <ele>4.6</ele>
        <time>2020-06-03T14:44:06Z</time>
      </trkpt>
      <trkpt lat="46.5611" lon="-1.81066">
        <ele>4.6</ele>
        <time>2020-06-03T14:44:07Z</time>
      </trkpt>
      <trkpt lat="46.56114" lon="-1.81069">
        <ele>4.6</ele>
        <time>2020-06-03T14:44:08Z</time>
      </trkpt>
      <trkpt lat="46.56119" lon="-1.81071">
        <ele>4.6</ele>
        <time>2020-06-03T14:44:09Z</time>
      </trkpt>
      <trkpt lat="46.56123" lon="-1.81074">
        <ele>4.6</ele>
        <time>2020-06-03T14:44:10Z</time>
      </trkpt>
      <trkpt lat="46.56127" lon="-1.81076">
        <ele>4.6</ele>
        <time>2020-06-03T14:44:11Z</time>
      </trkpt>
      <trkpt lat="46.56131" lon="-1.81076">
        <ele>4.5</ele>
        <time>2020-06-03T14:44:12Z</time>
      </trkpt>
      <trkpt lat="46.56135" lon="-1.81076">
        <ele>4.5</ele>
        <time>2020-06-03T14:44:13Z</time>
      </trkpt>
      <trkpt lat="46.56139" lon="-1.81075">
        <ele>4.5</ele>
        <time>2020-06-03T14:44:14Z</time>
      </trkpt>
      <trkpt lat="46.56144" lon="-1.81074">
        <ele>4.4</ele>
        <time>2020-06-03T14:44:15Z</time>
      </trkpt>
      <trkpt lat="46.56149" lon="-1.81069">
        <ele>4.4</ele>
        <time>2020-06-03T14:44:16Z</time>
      </trkpt>
      <trkpt lat="46.56153" lon="-1.81063">
        <ele>4.3</ele>
        <time>2020-06-03T14:44:17Z</time>
      </trkpt>
      <trkpt lat="46.56157" lon="-1.81055">
        <ele>4.2</ele>
        <time>2020-06-03T14:44:18Z</time>
      </trkpt>
      <trkpt lat="46.5616" lon="-1.81049">
        <ele>4.2</ele>
        <time>2020-06-03T14:44:19Z</time>
      </trkpt>
      <trkpt lat="46.56163" lon="-1.81043">
        <ele>4.1</ele>
        <time>2020-06-03T14:44:20Z</time>
      </trkpt>
      <trkpt lat="46.56165" lon="-1.81036">
        <ele>4.1</ele>
        <time>2020-06-03T14:44:21Z</time>
      </trkpt>
      <trkpt lat="46.56167" lon="-1.8103">
        <ele>4</ele>
        <time>2020-06-03T14:44:22Z</time>
      </trkpt>
      <trkpt lat="46.5617" lon="-1.81023">
        <ele>3.9</ele>
        <time>2020-06-03T14:44:23Z</time>
      </trkpt>
      <trkpt lat="46.56172" lon="-1.81018">
        <ele>3.9</ele>
        <time>2020-06-03T14:44:24Z</time>
      </trkpt>
      <trkpt lat="46.56176" lon="-1.81013">
        <ele>3.8</ele>
        <time>2020-06-03T14:44:25Z</time>
      </trkpt>
      <trkpt lat="46.56179" lon="-1.81008">
        <ele>3.8</ele>
        <time>2020-06-03T14:44:26Z</time>
      </trkpt>
      <trkpt lat="46.56182" lon="-1.81004">
        <ele>3.7</ele>
        <time>2020-06-03T14:44:27Z</time>
      </trkpt>
      <trkpt lat="46.56185" lon="-1.81001">
        <ele>3.7</ele>
        <time>2020-06-03T14:44:28Z</time>
      </trkpt>
      <trkpt lat="46.56188" lon="-1.80998">
        <ele>3.7</ele>
        <time>2020-06-03T14:44:29Z</time>
      </trkpt>
      <trkpt lat="46.56192" lon="-1.80995">
        <ele>3.7</ele>
        <time>2020-06-03T14:44:30Z</time>
      </trkpt>
      <trkpt lat="46.56195" lon="-1.80995">
        <ele>3.7</ele>
        <time>2020-06-03T14:44:31Z</time>
      </trkpt>
      <trkpt lat="46.56199" lon="-1.80992">
        <ele>3.7</ele>
        <time>2020-06-03T14:44:32Z</time>
      </trkpt>
      <trkpt lat="46.56203" lon="-1.80989">
        <ele>3.7</ele>
        <time>2020-06-03T14:44:33Z</time>
      </trkpt>
      <trkpt lat="46.56206" lon="-1.80988">
        <ele>3.7</ele>
        <time>2020-06-03T14:44:34Z</time>
      </trkpt>
      <trkpt lat="46.5621" lon="-1.80986">
        <ele>3.7</ele>
        <time>2020-06-03T14:44:35Z</time>
      </trkpt>
      <trkpt lat="46.56214" lon="-1.80985">
        <ele>3.7</ele>
        <time>2020-06-03T14:44:36Z</time>
      </trkpt>
      <trkpt lat="46.56218" lon="-1.80983">
        <ele>3.7</ele>
        <time>2020-06-03T14:44:37Z</time>
      </trkpt>
      <trkpt lat="46.56223" lon="-1.80983">
        <ele>3.8</ele>
        <time>2020-06-03T14:44:38Z</time>
      </trkpt>
      <trkpt lat="46.56228" lon="-1.80984">
        <ele>3.8</ele>
        <time>2020-06-03T14:44:39Z</time>
      </trkpt>
      <trkpt lat="46.56233" lon="-1.80984">
        <ele>3.8</ele>
        <time>2020-06-03T14:44:40Z</time>
      </trkpt>
      <trkpt lat="46.56238" lon="-1.80984">
        <ele>3.9</ele>
        <time>2020-06-03T14:44:41Z</time>
      </trkpt>
      <trkpt lat="46.56242" lon="-1.80984">
        <ele>3.9</ele>
        <time>2020-06-03T14:44:42Z</time>
      </trkpt>
      <trkpt lat="46.56248" lon="-1.80984">
        <ele>3.9</ele>
        <time>2020-06-03T14:44:43Z</time>
      </trkpt>
      <trkpt lat="46.56253" lon="-1.80985">
        <ele>3.9</ele>
        <time>2020-06-03T14:44:44Z</time>
      </trkpt>
      <trkpt lat="46.56258" lon="-1.80986">
        <ele>3.9</ele>
        <time>2020-06-03T14:44:45Z</time>
      </trkpt>
      <trkpt lat="46.56263" lon="-1.80986">
        <ele>4</ele>
        <time>2020-06-03T14:44:46Z</time>
      </trkpt>
      <trkpt lat="46.56269" lon="-1.80988">
        <ele>4</ele>
        <time>2020-06-03T14:44:47Z</time>
      </trkpt>
      <trkpt lat="46.56274" lon="-1.80988">
        <ele>4</ele>
        <time>2020-06-03T14:44:48Z</time>
      </trkpt>
      <trkpt lat="46.5628" lon="-1.80988">
        <ele>4</ele>
        <time>2020-06-03T14:44:49Z</time>
      </trkpt>
      <trkpt lat="46.56285" lon="-1.80989">
        <ele>4</ele>
        <time>2020-06-03T14:44:50Z</time>
      </trkpt>
      <trkpt lat="46.56291" lon="-1.80988">
        <ele>4</ele>
        <time>2020-06-03T14:44:51Z</time>
      </trkpt>
      <trkpt lat="46.56296" lon="-1.80988">
        <ele>3.9</ele>
        <time>2020-06-03T14:44:52Z</time>
      </trkpt>
      <trkpt lat="46.56301" lon="-1.80988">
        <ele>3.9</ele>
        <time>2020-06-03T14:44:53Z</time>
      </trkpt>
      <trkpt lat="46.56306" lon="-1.80988">
        <ele>3.8</ele>
        <time>2020-06-03T14:44:54Z</time>
      </trkpt>
      <trkpt lat="46.56311" lon="-1.80989">
        <ele>3.8</ele>
        <time>2020-06-03T14:44:55Z</time>
      </trkpt>
      <trkpt lat="46.56316" lon="-1.8099">
        <ele>3.8</ele>
        <time>2020-06-03T14:44:56Z</time>
      </trkpt>
      <trkpt lat="46.56321" lon="-1.8099">
        <ele>3.7</ele>
        <time>2020-06-03T14:44:57Z</time>
      </trkpt>
      <trkpt lat="46.56327" lon="-1.80991">
        <ele>3.7</ele>
        <time>2020-06-03T14:44:58Z</time>
      </trkpt>
      <trkpt lat="46.56332" lon="-1.80993">
        <ele>3.6</ele>
        <time>2020-06-03T14:44:59Z</time>
      </trkpt>
      <trkpt lat="46.56336" lon="-1.80996">
        <ele>3.6</ele>
        <time>2020-06-03T14:45:00Z</time>
      </trkpt>
      <trkpt lat="46.56339" lon="-1.81002">
        <ele>3.6</ele>
        <time>2020-06-03T14:45:01Z</time>
      </trkpt>
      <trkpt lat="46.56342" lon="-1.81008">
        <ele>3.6</ele>
        <time>2020-06-03T14:45:02Z</time>
      </trkpt>
      <trkpt lat="46.56344" lon="-1.81013">
        <ele>3.6</ele>
        <time>2020-06-03T14:45:03Z</time>
      </trkpt>
      <trkpt lat="46.56346" lon="-1.81019">
        <ele>3.6</ele>
        <time>2020-06-03T14:45:04Z</time>
      </trkpt>
      <trkpt lat="46.56348" lon="-1.81025">
        <ele>3.6</ele>
        <time>2020-06-03T14:45:05Z</time>
      </trkpt>
      <trkpt lat="46.56349" lon="-1.81028">
        <ele>3.6</ele>
        <time>2020-06-03T14:45:06Z</time>
      </trkpt>
      <trkpt lat="46.56351" lon="-1.81033">
        <ele>3.6</ele>
        <time>2020-06-03T14:45:07Z</time>
      </trkpt>
      <trkpt lat="46.56353" lon="-1.81038">
        <ele>3.6</ele>
        <time>2020-06-03T14:45:08Z</time>
      </trkpt>
      <trkpt lat="46.56355" lon="-1.81042">
        <ele>3.6</ele>
        <time>2020-06-03T14:45:09Z</time>
      </trkpt>
      <trkpt lat="46.56357" lon="-1.81046">
        <ele>3.6</ele>
        <time>2020-06-03T14:45:10Z</time>
      </trkpt>
      <trkpt lat="46.56358" lon="-1.81048">
        <ele>3.6</ele>
        <time>2020-06-03T14:45:11Z</time>
      </trkpt>
      <trkpt lat="46.56359" lon="-1.81051">
        <ele>3.6</ele>
        <time>2020-06-03T14:45:12Z</time>
      </trkpt>
      <trkpt lat="46.56361" lon="-1.81057">
        <ele>3.7</ele>
        <time>2020-06-03T14:45:13Z</time>
      </trkpt>
      <trkpt lat="46.56361" lon="-1.81059">
        <ele>3.7</ele>
        <time>2020-06-03T14:45:14Z</time>
      </trkpt>
      <trkpt lat="46.56362" lon="-1.81064">
        <ele>3.7</ele>
        <time>2020-06-03T14:45:15Z</time>
      </trkpt>
      <trkpt lat="46.56364" lon="-1.81069">
        <ele>3.8</ele>
        <time>2020-06-03T14:45:16Z</time>
      </trkpt>
      <trkpt lat="46.56366" lon="-1.81074">
        <ele>3.8</ele>
        <time>2020-06-03T14:45:17Z</time>
      </trkpt>
      <trkpt lat="46.56367" lon="-1.8108">
        <ele>3.8</ele>
        <time>2020-06-03T14:45:18Z</time>
      </trkpt>
      <trkpt lat="46.56368" lon="-1.81084">
        <ele>3.8</ele>
        <time>2020-06-03T14:45:19Z</time>
      </trkpt>
      <trkpt lat="46.56371" lon="-1.81091">
        <ele>3.9</ele>
        <time>2020-06-03T14:45:20Z</time>
      </trkpt>
      <trkpt lat="46.56372" lon="-1.81097">
        <ele>3.9</ele>
        <time>2020-06-03T14:45:21Z</time>
      </trkpt>
      <trkpt lat="46.56374" lon="-1.81103">
        <ele>3.9</ele>
        <time>2020-06-03T14:45:22Z</time>
      </trkpt>
      <trkpt lat="46.56377" lon="-1.8111">
        <ele>3.8</ele>
        <time>2020-06-03T14:45:23Z</time>
      </trkpt>
      <trkpt lat="46.5638" lon="-1.81116">
        <ele>3.8</ele>
        <time>2020-06-03T14:45:24Z</time>
      </trkpt>
      <trkpt lat="46.56382" lon="-1.81122">
        <ele>3.8</ele>
        <time>2020-06-03T14:45:25Z</time>
      </trkpt>
      <trkpt lat="46.56385" lon="-1.81129">
        <ele>3.7</ele>
        <time>2020-06-03T14:45:26Z</time>
      </trkpt>
      <trkpt lat="46.56388" lon="-1.81135">
        <ele>3.7</ele>
        <time>2020-06-03T14:45:27Z</time>
      </trkpt>
      <trkpt lat="46.56391" lon="-1.81141">
        <ele>3.7</ele>
        <time>2020-06-03T14:45:28Z</time>
      </trkpt>
      <trkpt lat="46.56394" lon="-1.81147">
        <ele>3.7</ele>
        <time>2020-06-03T14:45:29Z</time>
      </trkpt>
      <trkpt lat="46.56397" lon="-1.81154">
        <ele>3.6</ele>
        <time>2020-06-03T14:45:30Z</time>
      </trkpt>
      <trkpt lat="46.564" lon="-1.8116">
        <ele>3.6</ele>
        <time>2020-06-03T14:45:31Z</time>
      </trkpt>
      <trkpt lat="46.56402" lon="-1.81164">
        <ele>3.6</ele>
        <time>2020-06-03T14:45:32Z</time>
      </trkpt>
      <trkpt lat="46.56404" lon="-1.81169">
        <ele>3.6</ele>
        <time>2020-06-03T14:45:33Z</time>
      </trkpt>
      <trkpt lat="46.56406" lon="-1.81173">
        <ele>3.6</ele>
        <time>2020-06-03T14:45:34Z</time>
      </trkpt>
      <trkpt lat="46.5641" lon="-1.81177">
        <ele>3.6</ele>
        <time>2020-06-03T14:45:35Z</time>
      </trkpt>
      <trkpt lat="46.56414" lon="-1.81181">
        <ele>3.6</ele>
        <time>2020-06-03T14:45:36Z</time>
      </trkpt>
      <trkpt lat="46.56417" lon="-1.81185">
        <ele>3.5</ele>
        <time>2020-06-03T14:45:37Z</time>
      </trkpt>
      <trkpt lat="46.56421" lon="-1.81188">
        <ele>3.5</ele>
        <time>2020-06-03T14:45:38Z</time>
      </trkpt>
      <trkpt lat="46.56425" lon="-1.81192">
        <ele>3.5</ele>
        <time>2020-06-03T14:45:39Z</time>
      </trkpt>
      <trkpt lat="46.56429" lon="-1.81196">
        <ele>3.5</ele>
        <time>2020-06-03T14:45:40Z</time>
      </trkpt>
      <trkpt lat="46.56434" lon="-1.812">
        <ele>3.5</ele>
        <time>2020-06-03T14:45:41Z</time>
      </trkpt>
      <trkpt lat="46.56438" lon="-1.81204">
        <ele>3.5</ele>
        <time>2020-06-03T14:45:42Z</time>
      </trkpt>
      <trkpt lat="46.56442" lon="-1.81209">
        <ele>3.6</ele>
        <time>2020-06-03T14:45:43Z</time>
      </trkpt>
      <trkpt lat="46.56446" lon="-1.81215">
        <ele>3.6</ele>
        <time>2020-06-03T14:45:44Z</time>
      </trkpt>
      <trkpt lat="46.5645" lon="-1.8122">
        <ele>3.6</ele>
        <time>2020-06-03T14:45:45Z</time>
      </trkpt>
      <trkpt lat="46.56455" lon="-1.81225">
        <ele>3.6</ele>
        <time>2020-06-03T14:45:46Z</time>
      </trkpt>
      <trkpt lat="46.56458" lon="-1.81229">
        <ele>3.6</ele>
        <time>2020-06-03T14:45:47Z</time>
      </trkpt>
      <trkpt lat="46.56463" lon="-1.81234">
        <ele>3.6</ele>
        <time>2020-06-03T14:45:48Z</time>
      </trkpt>
      <trkpt lat="46.56467" lon="-1.81238">
        <ele>3.6</ele>
        <time>2020-06-03T14:45:49Z</time>
      </trkpt>
      <trkpt lat="46.56471" lon="-1.81245">
        <ele>3.6</ele>
        <time>2020-06-03T14:45:50Z</time>
      </trkpt>
      <trkpt lat="46.56475" lon="-1.8125">
        <ele>3.6</ele>
        <time>2020-06-03T14:45:51Z</time>
      </trkpt>
      <trkpt lat="46.56477" lon="-1.81254">
        <ele>3.6</ele>
        <time>2020-06-03T14:45:52Z</time>
      </trkpt>
      <trkpt lat="46.56479" lon="-1.81259">
        <ele>3.6</ele>
        <time>2020-06-03T14:45:53Z</time>
      </trkpt>
      <trkpt lat="46.56482" lon="-1.81264">
        <ele>3.6</ele>
        <time>2020-06-03T14:45:54Z</time>
      </trkpt>
      <trkpt lat="46.56484" lon="-1.81268">
        <ele>3.6</ele>
        <time>2020-06-03T14:45:55Z</time>
      </trkpt>
      <trkpt lat="46.56486" lon="-1.81273">
        <ele>3.6</ele>
        <time>2020-06-03T14:45:56Z</time>
      </trkpt>
      <trkpt lat="46.56489" lon="-1.81278">
        <ele>3.6</ele>
        <time>2020-06-03T14:45:57Z</time>
      </trkpt>
      <trkpt lat="46.56492" lon="-1.81283">
        <ele>3.6</ele>
        <time>2020-06-03T14:45:58Z</time>
      </trkpt>
      <trkpt lat="46.56494" lon="-1.81287">
        <ele>3.6</ele>
        <time>2020-06-03T14:45:59Z</time>
      </trkpt>
      <trkpt lat="46.56497" lon="-1.81291">
        <ele>3.6</ele>
        <time>2020-06-03T14:46:00Z</time>
      </trkpt>
      <trkpt lat="46.56498" lon="-1.81297">
        <ele>3.6</ele>
        <time>2020-06-03T14:46:01Z</time>
      </trkpt>
      <trkpt lat="46.565" lon="-1.81302">
        <ele>3.6</ele>
        <time>2020-06-03T14:46:02Z</time>
      </trkpt>
      <trkpt lat="46.56502" lon="-1.81306">
        <ele>3.6</ele>
        <time>2020-06-03T14:46:03Z</time>
      </trkpt>
      <trkpt lat="46.56506" lon="-1.81309">
        <ele>3.6</ele>
        <time>2020-06-03T14:46:04Z</time>
      </trkpt>
      <trkpt lat="46.56511" lon="-1.81311">
        <ele>3.6</ele>
        <time>2020-06-03T14:46:05Z</time>
      </trkpt>
      <trkpt lat="46.56516" lon="-1.81312">
        <ele>3.6</ele>
        <time>2020-06-03T14:46:06Z</time>
      </trkpt>
      <trkpt lat="46.5652" lon="-1.81313">
        <ele>3.6</ele>
        <time>2020-06-03T14:46:07Z</time>
      </trkpt>
      <trkpt lat="46.56524" lon="-1.81315">
        <ele>3.6</ele>
        <time>2020-06-03T14:46:08Z</time>
      </trkpt>
      <trkpt lat="46.56529" lon="-1.81317">
        <ele>3.6</ele>
        <time>2020-06-03T14:46:09Z</time>
      </trkpt>
      <trkpt lat="46.56534" lon="-1.81318">
        <ele>3.6</ele>
        <time>2020-06-03T14:46:10Z</time>
      </trkpt>
      <trkpt lat="46.56538" lon="-1.81322">
        <ele>3.6</ele>
        <time>2020-06-03T14:46:11Z</time>
      </trkpt>
      <trkpt lat="46.56543" lon="-1.81325">
        <ele>3.6</ele>
        <time>2020-06-03T14:46:12Z</time>
      </trkpt>
      <trkpt lat="46.56548" lon="-1.81328">
        <ele>3.6</ele>
        <time>2020-06-03T14:46:13Z</time>
      </trkpt>
      <trkpt lat="46.56551" lon="-1.81331">
        <ele>3.6</ele>
        <time>2020-06-03T14:46:14Z</time>
      </trkpt>
      <trkpt lat="46.56555" lon="-1.81336">
        <ele>3.6</ele>
        <time>2020-06-03T14:46:15Z</time>
      </trkpt>
      <trkpt lat="46.5656" lon="-1.8134">
        <ele>3.6</ele>
        <time>2020-06-03T14:46:16Z</time>
      </trkpt>
      <trkpt lat="46.56563" lon="-1.81344">
        <ele>3.6</ele>
        <time>2020-06-03T14:46:17Z</time>
      </trkpt>
      <trkpt lat="46.56566" lon="-1.81347">
        <ele>3.6</ele>
        <time>2020-06-03T14:46:18Z</time>
      </trkpt>
      <trkpt lat="46.56569" lon="-1.8135">
        <ele>3.6</ele>
        <time>2020-06-03T14:46:19Z</time>
      </trkpt>
      <trkpt lat="46.56571" lon="-1.81355">
        <ele>3.6</ele>
        <time>2020-06-03T14:46:20Z</time>
      </trkpt>
      <trkpt lat="46.56573" lon="-1.81361">
        <ele>3.6</ele>
        <time>2020-06-03T14:46:21Z</time>
      </trkpt>
      <trkpt lat="46.56577" lon="-1.81367">
        <ele>3.6</ele>
        <time>2020-06-03T14:46:22Z</time>
      </trkpt>
      <trkpt lat="46.5658" lon="-1.81373">
        <ele>3.6</ele>
        <time>2020-06-03T14:46:23Z</time>
      </trkpt>
      <trkpt lat="46.56583" lon="-1.8138">
        <ele>3.6</ele>
        <time>2020-06-03T14:46:24Z</time>
      </trkpt>
      <trkpt lat="46.56586" lon="-1.81387">
        <ele>3.6</ele>
        <time>2020-06-03T14:46:25Z</time>
      </trkpt>
      <trkpt lat="46.56589" lon="-1.81393">
        <ele>3.6</ele>
        <time>2020-06-03T14:46:26Z</time>
      </trkpt>
      <trkpt lat="46.56592" lon="-1.814">
        <ele>3.6</ele>
        <time>2020-06-03T14:46:27Z</time>
      </trkpt>
      <trkpt lat="46.56594" lon="-1.81404">
        <ele>3.6</ele>
        <time>2020-06-03T14:46:28Z</time>
      </trkpt>
      <trkpt lat="46.56596" lon="-1.81408">
        <ele>3.6</ele>
        <time>2020-06-03T14:46:29Z</time>
      </trkpt>
      <trkpt lat="46.56598" lon="-1.81413">
        <ele>3.6</ele>
        <time>2020-06-03T14:46:30Z</time>
      </trkpt>
      <trkpt lat="46.56599" lon="-1.81418">
        <ele>3.6</ele>
        <time>2020-06-03T14:46:31Z</time>
      </trkpt>
      <trkpt lat="46.56601" lon="-1.81424">
        <ele>3.6</ele>
        <time>2020-06-03T14:46:32Z</time>
      </trkpt>
      <trkpt lat="46.56603" lon="-1.81428">
        <ele>3.6</ele>
        <time>2020-06-03T14:46:33Z</time>
      </trkpt>
      <trkpt lat="46.56605" lon="-1.81432">
        <ele>3.6</ele>
        <time>2020-06-03T14:46:34Z</time>
      </trkpt>
      <trkpt lat="46.56607" lon="-1.81436">
        <ele>3.6</ele>
        <time>2020-06-03T14:46:35Z</time>
      </trkpt>
      <trkpt lat="46.56608" lon="-1.81442">
        <ele>3.6</ele>
        <time>2020-06-03T14:46:36Z</time>
      </trkpt>
      <trkpt lat="46.5661" lon="-1.81446">
        <ele>3.6</ele>
        <time>2020-06-03T14:46:37Z</time>
      </trkpt>
      <trkpt lat="46.56612" lon="-1.81451">
        <ele>3.6</ele>
        <time>2020-06-03T14:46:38Z</time>
      </trkpt>
      <trkpt lat="46.56615" lon="-1.81456">
        <ele>3.6</ele>
        <time>2020-06-03T14:46:39Z</time>
      </trkpt>
      <trkpt lat="46.56617" lon="-1.8146">
        <ele>3.6</ele>
        <time>2020-06-03T14:46:40Z</time>
      </trkpt>
      <trkpt lat="46.5662" lon="-1.81465">
        <ele>3.6</ele>
        <time>2020-06-03T14:46:41Z</time>
      </trkpt>
      <trkpt lat="46.56622" lon="-1.8147">
        <ele>3.6</ele>
        <time>2020-06-03T14:46:42Z</time>
      </trkpt>
      <trkpt lat="46.56624" lon="-1.81474">
        <ele>3.6</ele>
        <time>2020-06-03T14:46:43Z</time>
      </trkpt>
      <trkpt lat="46.56627" lon="-1.81479">
        <ele>3.6</ele>
        <time>2020-06-03T14:46:44Z</time>
      </trkpt>
      <trkpt lat="46.56629" lon="-1.81485">
        <ele>3.6</ele>
        <time>2020-06-03T14:46:45Z</time>
      </trkpt>
      <trkpt lat="46.5663" lon="-1.8149">
        <ele>3.6</ele>
        <time>2020-06-03T14:46:46Z</time>
      </trkpt>
      <trkpt lat="46.56632" lon="-1.81496">
        <ele>3.7</ele>
        <time>2020-06-03T14:46:47Z</time>
      </trkpt>
      <trkpt lat="46.56634" lon="-1.81502">
        <ele>3.7</ele>
        <time>2020-06-03T14:46:48Z</time>
      </trkpt>
      <trkpt lat="46.56636" lon="-1.81508">
        <ele>3.7</ele>
        <time>2020-06-03T14:46:49Z</time>
      </trkpt>
      <trkpt lat="46.56637" lon="-1.81515">
        <ele>3.7</ele>
        <time>2020-06-03T14:46:50Z</time>
      </trkpt>
      <trkpt lat="46.56639" lon="-1.81521">
        <ele>3.7</ele>
        <time>2020-06-03T14:46:51Z</time>
      </trkpt>
      <trkpt lat="46.56641" lon="-1.81525">
        <ele>3.7</ele>
        <time>2020-06-03T14:46:52Z</time>
      </trkpt>
      <trkpt lat="46.56643" lon="-1.8153">
        <ele>3.7</ele>
        <time>2020-06-03T14:46:53Z</time>
      </trkpt>
      <trkpt lat="46.56645" lon="-1.81536">
        <ele>3.7</ele>
        <time>2020-06-03T14:46:54Z</time>
      </trkpt>
      <trkpt lat="46.56646" lon="-1.81543">
        <ele>3.7</ele>
        <time>2020-06-03T14:46:55Z</time>
      </trkpt>
      <trkpt lat="46.56648" lon="-1.81548">
        <ele>3.7</ele>
        <time>2020-06-03T14:46:56Z</time>
      </trkpt>
      <trkpt lat="46.56649" lon="-1.81553">
        <ele>3.7</ele>
        <time>2020-06-03T14:46:57Z</time>
      </trkpt>
      <trkpt lat="46.5665" lon="-1.81559">
        <ele>3.7</ele>
        <time>2020-06-03T14:46:58Z</time>
      </trkpt>
      <trkpt lat="46.56652" lon="-1.81563">
        <ele>3.7</ele>
        <time>2020-06-03T14:46:59Z</time>
      </trkpt>
      <trkpt lat="46.56653" lon="-1.81569">
        <ele>3.7</ele>
        <time>2020-06-03T14:47:00Z</time>
      </trkpt>
      <trkpt lat="46.56655" lon="-1.81577">
        <ele>3.8</ele>
        <time>2020-06-03T14:47:01Z</time>
      </trkpt>
      <trkpt lat="46.56657" lon="-1.81584">
        <ele>3.8</ele>
        <time>2020-06-03T14:47:02Z</time>
      </trkpt>
      <trkpt lat="46.5666" lon="-1.81591">
        <ele>3.8</ele>
        <time>2020-06-03T14:47:03Z</time>
      </trkpt>
      <trkpt lat="46.56662" lon="-1.81597">
        <ele>3.8</ele>
        <time>2020-06-03T14:47:04Z</time>
      </trkpt>
      <trkpt lat="46.56665" lon="-1.81604">
        <ele>3.7</ele>
        <time>2020-06-03T14:47:05Z</time>
      </trkpt>
      <trkpt lat="46.56666" lon="-1.81608">
        <ele>3.7</ele>
        <time>2020-06-03T14:47:06Z</time>
      </trkpt>
      <trkpt lat="46.56667" lon="-1.81613">
        <ele>3.7</ele>
        <time>2020-06-03T14:47:07Z</time>
      </trkpt>
      <trkpt lat="46.56668" lon="-1.81615">
        <ele>3.7</ele>
        <time>2020-06-03T14:47:08Z</time>
      </trkpt>
      <trkpt lat="46.56671" lon="-1.81618">
        <ele>3.7</ele>
        <time>2020-06-03T14:47:09Z</time>
      </trkpt>
      <trkpt lat="46.56673" lon="-1.81622">
        <ele>3.7</ele>
        <time>2020-06-03T14:47:10Z</time>
      </trkpt>
      <trkpt lat="46.56676" lon="-1.81626">
        <ele>3.7</ele>
        <time>2020-06-03T14:47:11Z</time>
      </trkpt>
      <trkpt lat="46.56678" lon="-1.81631">
        <ele>3.7</ele>
        <time>2020-06-03T14:47:12Z</time>
      </trkpt>
      <trkpt lat="46.5668" lon="-1.81635">
        <ele>3.8</ele>
        <time>2020-06-03T14:47:13Z</time>
      </trkpt>
      <trkpt lat="46.56682" lon="-1.81639">
        <ele>3.8</ele>
        <time>2020-06-03T14:47:14Z</time>
      </trkpt>
      <trkpt lat="46.56683" lon="-1.81642">
        <ele>3.8</ele>
        <time>2020-06-03T14:47:15Z</time>
      </trkpt>
      <trkpt lat="46.56685" lon="-1.81646">
        <ele>3.8</ele>
        <time>2020-06-03T14:47:16Z</time>
      </trkpt>
      <trkpt lat="46.56685" lon="-1.81648">
        <ele>3.8</ele>
        <time>2020-06-03T14:47:17Z</time>
      </trkpt>
      <trkpt lat="46.56687" lon="-1.81652">
        <ele>3.8</ele>
        <time>2020-06-03T14:47:18Z</time>
      </trkpt>
      <trkpt lat="46.56687" lon="-1.81654">
        <ele>3.8</ele>
        <time>2020-06-03T14:47:19Z</time>
      </trkpt>
      <trkpt lat="46.56689" lon="-1.81658">
        <ele>3.9</ele>
        <time>2020-06-03T14:47:20Z</time>
      </trkpt>
      <trkpt lat="46.56691" lon="-1.81661">
        <ele>3.9</ele>
        <time>2020-06-03T14:47:21Z</time>
      </trkpt>
      <trkpt lat="46.56693" lon="-1.81664">
        <ele>3.9</ele>
        <time>2020-06-03T14:47:22Z</time>
      </trkpt>
      <trkpt lat="46.56695" lon="-1.81667">
        <ele>3.9</ele>
        <time>2020-06-03T14:47:23Z</time>
      </trkpt>
      <trkpt lat="46.56698" lon="-1.81671">
        <ele>4</ele>
        <time>2020-06-03T14:47:24Z</time>
      </trkpt>
      <trkpt lat="46.56699" lon="-1.81673">
        <ele>4</ele>
        <time>2020-06-03T14:47:25Z</time>
      </trkpt>
      <trkpt lat="46.567" lon="-1.81677">
        <ele>4</ele>
        <time>2020-06-03T14:47:26Z</time>
      </trkpt>
      <trkpt lat="46.56702" lon="-1.81682">
        <ele>4</ele>
        <time>2020-06-03T14:47:27Z</time>
      </trkpt>
      <trkpt lat="46.56708" lon="-1.81689">
        <ele>4.1</ele>
        <time>2020-06-03T14:47:28Z</time>
      </trkpt>
      <trkpt lat="46.56711" lon="-1.81693">
        <ele>4.1</ele>
        <time>2020-06-03T14:47:29Z</time>
      </trkpt>
      <trkpt lat="46.56715" lon="-1.81698">
        <ele>4.1</ele>
        <time>2020-06-03T14:47:30Z</time>
      </trkpt>
      <trkpt lat="46.56718" lon="-1.81705">
        <ele>4.2</ele>
        <time>2020-06-03T14:47:31Z</time>
      </trkpt>
      <trkpt lat="46.56721" lon="-1.81709">
        <ele>4.2</ele>
        <time>2020-06-03T14:47:32Z</time>
      </trkpt>
      <trkpt lat="46.56725" lon="-1.81711">
        <ele>4.2</ele>
        <time>2020-06-03T14:47:33Z</time>
      </trkpt>
      <trkpt lat="46.56728" lon="-1.81714">
        <ele>4.2</ele>
        <time>2020-06-03T14:47:34Z</time>
      </trkpt>
      <trkpt lat="46.5673" lon="-1.81717">
        <ele>4.2</ele>
        <time>2020-06-03T14:47:35Z</time>
      </trkpt>
      <trkpt lat="46.56732" lon="-1.81722">
        <ele>4.2</ele>
        <time>2020-06-03T14:47:36Z</time>
      </trkpt>
      <trkpt lat="46.56733" lon="-1.81724">
        <ele>4.2</ele>
        <time>2020-06-03T14:47:37Z</time>
      </trkpt>
      <trkpt lat="46.56736" lon="-1.81727">
        <ele>4.2</ele>
        <time>2020-06-03T14:47:38Z</time>
      </trkpt>
      <trkpt lat="46.56738" lon="-1.81731">
        <ele>4.2</ele>
        <time>2020-06-03T14:47:39Z</time>
      </trkpt>
      <trkpt lat="46.56742" lon="-1.81734">
        <ele>4.2</ele>
        <time>2020-06-03T14:47:40Z</time>
      </trkpt>
      <trkpt lat="46.56745" lon="-1.81738">
        <ele>4.2</ele>
        <time>2020-06-03T14:47:41Z</time>
      </trkpt>
      <trkpt lat="46.56748" lon="-1.81739">
        <ele>4.2</ele>
        <time>2020-06-03T14:47:42Z</time>
      </trkpt>
      <trkpt lat="46.56751" lon="-1.81742">
        <ele>4.2</ele>
        <time>2020-06-03T14:47:43Z</time>
      </trkpt>
      <trkpt lat="46.56754" lon="-1.81746">
        <ele>4.3</ele>
        <time>2020-06-03T14:47:44Z</time>
      </trkpt>
      <trkpt lat="46.56757" lon="-1.8175">
        <ele>4.3</ele>
        <time>2020-06-03T14:47:45Z</time>
      </trkpt>
      <trkpt lat="46.5676" lon="-1.81756">
        <ele>4.3</ele>
        <time>2020-06-03T14:47:46Z</time>
      </trkpt>
      <trkpt lat="46.56762" lon="-1.8176">
        <ele>4.3</ele>
        <time>2020-06-03T14:47:47Z</time>
      </trkpt>
      <trkpt lat="46.56764" lon="-1.81767">
        <ele>4.3</ele>
        <time>2020-06-03T14:47:48Z</time>
      </trkpt>
      <trkpt lat="46.56767" lon="-1.81772">
        <ele>4.3</ele>
        <time>2020-06-03T14:47:49Z</time>
      </trkpt>
      <trkpt lat="46.56769" lon="-1.81778">
        <ele>4.3</ele>
        <time>2020-06-03T14:47:50Z</time>
      </trkpt>
      <trkpt lat="46.56773" lon="-1.81783">
        <ele>4.3</ele>
        <time>2020-06-03T14:47:51Z</time>
      </trkpt>
      <trkpt lat="46.56777" lon="-1.81791">
        <ele>4.3</ele>
        <time>2020-06-03T14:47:52Z</time>
      </trkpt>
      <trkpt lat="46.5678" lon="-1.81799">
        <ele>4.3</ele>
        <time>2020-06-03T14:47:53Z</time>
      </trkpt>
      <trkpt lat="46.56783" lon="-1.81806">
        <ele>4.3</ele>
        <time>2020-06-03T14:47:54Z</time>
      </trkpt>
      <trkpt lat="46.56786" lon="-1.81813">
        <ele>4.2</ele>
        <time>2020-06-03T14:47:55Z</time>
      </trkpt>
      <trkpt lat="46.56788" lon="-1.81819">
        <ele>4.2</ele>
        <time>2020-06-03T14:47:56Z</time>
      </trkpt>
      <trkpt lat="46.5679" lon="-1.81824">
        <ele>4.2</ele>
        <time>2020-06-03T14:47:57Z</time>
      </trkpt>
      <trkpt lat="46.56792" lon="-1.81832">
        <ele>4.2</ele>
        <time>2020-06-03T14:47:58Z</time>
      </trkpt>
      <trkpt lat="46.56793" lon="-1.81838">
        <ele>4.3</ele>
        <time>2020-06-03T14:47:59Z</time>
      </trkpt>
      <trkpt lat="46.56795" lon="-1.81845">
        <ele>4.4</ele>
        <time>2020-06-03T14:48:00Z</time>
      </trkpt>
      <trkpt lat="46.56796" lon="-1.81851">
        <ele>4.6</ele>
        <time>2020-06-03T14:48:01Z</time>
      </trkpt>
      <trkpt lat="46.56796" lon="-1.81856">
        <ele>4.7</ele>
        <time>2020-06-03T14:48:02Z</time>
      </trkpt>
      <trkpt lat="46.56798" lon="-1.81861">
        <ele>4.8</ele>
        <time>2020-06-03T14:48:03Z</time>
      </trkpt>
      <trkpt lat="46.56799" lon="-1.81866">
        <ele>4.8</ele>
        <time>2020-06-03T14:48:04Z</time>
      </trkpt>
      <trkpt lat="46.568" lon="-1.81872">
        <ele>5</ele>
        <time>2020-06-03T14:48:05Z</time>
      </trkpt>
      <trkpt lat="46.56801" lon="-1.81877">
        <ele>5</ele>
        <time>2020-06-03T14:48:06Z</time>
      </trkpt>
      <trkpt lat="46.56803" lon="-1.81882">
        <ele>5.1</ele>
        <time>2020-06-03T14:48:07Z</time>
      </trkpt>
      <trkpt lat="46.56804" lon="-1.81888">
        <ele>5.1</ele>
        <time>2020-06-03T14:48:08Z</time>
      </trkpt>
      <trkpt lat="46.56806" lon="-1.81894">
        <ele>5.2</ele>
        <time>2020-06-03T14:48:09Z</time>
      </trkpt>
      <trkpt lat="46.56807" lon="-1.819">
        <ele>5.3</ele>
        <time>2020-06-03T14:48:10Z</time>
      </trkpt>
      <trkpt lat="46.56808" lon="-1.81906">
        <ele>5.5</ele>
        <time>2020-06-03T14:48:11Z</time>
      </trkpt>
      <trkpt lat="46.56809" lon="-1.81913">
        <ele>5.6</ele>
        <time>2020-06-03T14:48:12Z</time>
      </trkpt>
      <trkpt lat="46.5681" lon="-1.81918">
        <ele>5.7</ele>
        <time>2020-06-03T14:48:13Z</time>
      </trkpt>
      <trkpt lat="46.5681" lon="-1.81925">
        <ele>5.9</ele>
        <time>2020-06-03T14:48:14Z</time>
      </trkpt>
      <trkpt lat="46.56811" lon="-1.8193">
        <ele>6</ele>
        <time>2020-06-03T14:48:15Z</time>
      </trkpt>
      <trkpt lat="46.56811" lon="-1.81936">
        <ele>6.2</ele>
        <time>2020-06-03T14:48:16Z</time>
      </trkpt>
      <trkpt lat="46.56811" lon="-1.81942">
        <ele>6.4</ele>
        <time>2020-06-03T14:48:17Z</time>
      </trkpt>
      <trkpt lat="46.56813" lon="-1.81949">
        <ele>6.6</ele>
        <time>2020-06-03T14:48:18Z</time>
      </trkpt>
      <trkpt lat="46.56816" lon="-1.81957">
        <ele>6.9</ele>
        <time>2020-06-03T14:48:19Z</time>
      </trkpt>
      <trkpt lat="46.56816" lon="-1.81962">
        <ele>7.1</ele>
        <time>2020-06-03T14:48:20Z</time>
      </trkpt>
      <trkpt lat="46.56816" lon="-1.81969">
        <ele>7.3</ele>
        <time>2020-06-03T14:48:21Z</time>
      </trkpt>
      <trkpt lat="46.56818" lon="-1.81974">
        <ele>7.5</ele>
        <time>2020-06-03T14:48:22Z</time>
      </trkpt>
      <trkpt lat="46.56819" lon="-1.81979">
        <ele>7.8</ele>
        <time>2020-06-03T14:48:23Z</time>
      </trkpt>
      <trkpt lat="46.56819" lon="-1.81983">
        <ele>8.1</ele>
        <time>2020-06-03T14:48:24Z</time>
      </trkpt>
      <trkpt lat="46.5682" lon="-1.81987">
        <ele>8.1</ele>
        <time>2020-06-03T14:48:25Z</time>
      </trkpt>
      <trkpt lat="46.56822" lon="-1.8199">
        <ele>8.2</ele>
        <time>2020-06-03T14:48:26Z</time>
      </trkpt>
      <trkpt lat="46.56825" lon="-1.81993">
        <ele>8.3</ele>
        <time>2020-06-03T14:48:27Z</time>
      </trkpt>
      <trkpt lat="46.56826" lon="-1.81997">
        <ele>8.5</ele>
        <time>2020-06-03T14:48:28Z</time>
      </trkpt>
      <trkpt lat="46.56829" lon="-1.82">
        <ele>8.4</ele>
        <time>2020-06-03T14:48:29Z</time>
      </trkpt>
      <trkpt lat="46.56833" lon="-1.82003">
        <ele>8.5</ele>
        <time>2020-06-03T14:48:30Z</time>
      </trkpt>
      <trkpt lat="46.56837" lon="-1.82007">
        <ele>8.4</ele>
        <time>2020-06-03T14:48:31Z</time>
      </trkpt>
      <trkpt lat="46.5684" lon="-1.8201">
        <ele>8.4</ele>
        <time>2020-06-03T14:48:32Z</time>
      </trkpt>
      <trkpt lat="46.56843" lon="-1.82013">
        <ele>8.4</ele>
        <time>2020-06-03T14:48:33Z</time>
      </trkpt>
      <trkpt lat="46.56846" lon="-1.82012">
        <ele>8.3</ele>
        <time>2020-06-03T14:48:34Z</time>
      </trkpt>
      <trkpt lat="46.5685" lon="-1.82013">
        <ele>8.3</ele>
        <time>2020-06-03T14:48:35Z</time>
      </trkpt>
      <trkpt lat="46.56852" lon="-1.82013">
        <ele>8.2</ele>
        <time>2020-06-03T14:48:36Z</time>
      </trkpt>
      <trkpt lat="46.56853" lon="-1.82013">
        <ele>8.3</ele>
        <time>2020-06-03T14:48:37Z</time>
      </trkpt>
      <trkpt lat="46.56856" lon="-1.82012">
        <ele>8.1</ele>
        <time>2020-06-03T14:48:38Z</time>
      </trkpt>
      <trkpt lat="46.56857" lon="-1.82012">
        <ele>8</ele>
        <time>2020-06-03T14:48:39Z</time>
      </trkpt>
      <trkpt lat="46.5686" lon="-1.82009">
        <ele>7.9</ele>
        <time>2020-06-03T14:48:40Z</time>
      </trkpt>
      <trkpt lat="46.56861" lon="-1.82007">
        <ele>7.9</ele>
        <time>2020-06-03T14:48:41Z</time>
      </trkpt>
      <trkpt lat="46.56863" lon="-1.82001">
        <ele>7.8</ele>
        <time>2020-06-03T14:48:42Z</time>
      </trkpt>
      <trkpt lat="46.56865" lon="-1.81997">
        <ele>7.7</ele>
        <time>2020-06-03T14:48:43Z</time>
      </trkpt>
      <trkpt lat="46.56867" lon="-1.81993">
        <ele>7.6</ele>
        <time>2020-06-03T14:48:44Z</time>
      </trkpt>
      <trkpt lat="46.56869" lon="-1.81989">
        <ele>7.4</ele>
        <time>2020-06-03T14:48:45Z</time>
      </trkpt>
      <trkpt lat="46.5687" lon="-1.81988">
        <ele>7.4</ele>
        <time>2020-06-03T14:48:46Z</time>
      </trkpt>
      <trkpt lat="46.56872" lon="-1.81984">
        <ele>7.2</ele>
        <time>2020-06-03T14:48:47Z</time>
      </trkpt>
      <trkpt lat="46.56873" lon="-1.8198">
        <ele>7.1</ele>
        <time>2020-06-03T14:48:48Z</time>
      </trkpt>
      <trkpt lat="46.56877" lon="-1.81975">
        <ele>6.8</ele>
        <time>2020-06-03T14:48:49Z</time>
      </trkpt>
      <trkpt lat="46.56879" lon="-1.81971">
        <ele>6.5</ele>
        <time>2020-06-03T14:48:50Z</time>
      </trkpt>
      <trkpt lat="46.56883" lon="-1.81966">
        <ele>6.2</ele>
        <time>2020-06-03T14:48:51Z</time>
      </trkpt>
      <trkpt lat="46.56887" lon="-1.8196">
        <ele>5.4</ele>
        <time>2020-06-03T14:48:52Z</time>
      </trkpt>
      <trkpt lat="46.5689" lon="-1.81955">
        <ele>5</ele>
        <time>2020-06-03T14:48:53Z</time>
      </trkpt>
      <trkpt lat="46.56893" lon="-1.81949">
        <ele>4.7</ele>
        <time>2020-06-03T14:48:54Z</time>
      </trkpt>
      <trkpt lat="46.56896" lon="-1.81944">
        <ele>4.4</ele>
        <time>2020-06-03T14:48:55Z</time>
      </trkpt>
      <trkpt lat="46.569" lon="-1.81938">
        <ele>3.9</ele>
        <time>2020-06-03T14:48:56Z</time>
      </trkpt>
      <trkpt lat="46.56904" lon="-1.81933">
        <ele>3.6</ele>
        <time>2020-06-03T14:48:57Z</time>
      </trkpt>
      <trkpt lat="46.56909" lon="-1.81926">
        <ele>3.3</ele>
        <time>2020-06-03T14:48:58Z</time>
      </trkpt>
      <trkpt lat="46.56913" lon="-1.8192">
        <ele>3.2</ele>
        <time>2020-06-03T14:48:59Z</time>
      </trkpt>
      <trkpt lat="46.56918" lon="-1.81916">
        <ele>3.1</ele>
        <time>2020-06-03T14:49:00Z</time>
      </trkpt>
      <trkpt lat="46.56923" lon="-1.81911">
        <ele>3.2</ele>
        <time>2020-06-03T14:49:01Z</time>
      </trkpt>
      <trkpt lat="46.56928" lon="-1.81906">
        <ele>3.5</ele>
        <time>2020-06-03T14:49:02Z</time>
      </trkpt>
      <trkpt lat="46.56937" lon="-1.81901">
        <ele>3.8</ele>
        <time>2020-06-03T14:49:03Z</time>
      </trkpt>
      <trkpt lat="46.56945" lon="-1.81896">
        <ele>3.8</ele>
        <time>2020-06-03T14:49:04Z</time>
      </trkpt>
      <trkpt lat="46.56953" lon="-1.8189">
        <ele>3.8</ele>
        <time>2020-06-03T14:49:05Z</time>
      </trkpt>
      <trkpt lat="46.56963" lon="-1.81883">
        <ele>3.8</ele>
        <time>2020-06-03T14:49:06Z</time>
      </trkpt>
      <trkpt lat="46.5697" lon="-1.81878">
        <ele>3.8</ele>
        <time>2020-06-03T14:49:07Z</time>
      </trkpt>
      <trkpt lat="46.56975" lon="-1.81873">
        <ele>3.8</ele>
        <time>2020-06-03T14:49:08Z</time>
      </trkpt>
      <trkpt lat="46.56981" lon="-1.8187">
        <ele>3.8</ele>
        <time>2020-06-03T14:49:09Z</time>
      </trkpt>
      <trkpt lat="46.56986" lon="-1.81866">
        <ele>3.8</ele>
        <time>2020-06-03T14:49:10Z</time>
      </trkpt>
      <trkpt lat="46.56991" lon="-1.81864">
        <ele>3.8</ele>
        <time>2020-06-03T14:49:11Z</time>
      </trkpt>
      <trkpt lat="46.56997" lon="-1.81862">
        <ele>3.8</ele>
        <time>2020-06-03T14:49:12Z</time>
      </trkpt>
      <trkpt lat="46.57002" lon="-1.81862">
        <ele>3.8</ele>
        <time>2020-06-03T14:49:13Z</time>
      </trkpt>
      <trkpt lat="46.57007" lon="-1.81861">
        <ele>3.8</ele>
        <time>2020-06-03T14:49:14Z</time>
      </trkpt>
      <trkpt lat="46.57011" lon="-1.8186">
        <ele>3.8</ele>
        <time>2020-06-03T14:49:15Z</time>
      </trkpt>
      <trkpt lat="46.57015" lon="-1.81858">
        <ele>3.8</ele>
        <time>2020-06-03T14:49:16Z</time>
      </trkpt>
      <trkpt lat="46.57018" lon="-1.81857">
        <ele>3.8</ele>
        <time>2020-06-03T14:49:17Z</time>
      </trkpt>
      <trkpt lat="46.57021" lon="-1.81856">
        <ele>3.8</ele>
        <time>2020-06-03T14:49:18Z</time>
      </trkpt>
      <trkpt lat="46.57025" lon="-1.81855">
        <ele>3.8</ele>
        <time>2020-06-03T14:49:19Z</time>
      </trkpt>
      <trkpt lat="46.57029" lon="-1.81853">
        <ele>3.8</ele>
        <time>2020-06-03T14:49:20Z</time>
      </trkpt>
      <trkpt lat="46.57033" lon="-1.81852">
        <ele>3.8</ele>
        <time>2020-06-03T14:49:21Z</time>
      </trkpt>
      <trkpt lat="46.57037" lon="-1.81851">
        <ele>3.8</ele>
        <time>2020-06-03T14:49:22Z</time>
      </trkpt>
      <trkpt lat="46.57042" lon="-1.81852">
        <ele>3.8</ele>
        <time>2020-06-03T14:49:23Z</time>
      </trkpt>
      <trkpt lat="46.57047" lon="-1.81852">
        <ele>3.8</ele>
        <time>2020-06-03T14:49:24Z</time>
      </trkpt>
      <trkpt lat="46.57052" lon="-1.81852">
        <ele>3.8</ele>
        <time>2020-06-03T14:49:25Z</time>
      </trkpt>
      <trkpt lat="46.57056" lon="-1.81853">
        <ele>3.8</ele>
        <time>2020-06-03T14:49:26Z</time>
      </trkpt>
      <trkpt lat="46.5706" lon="-1.81853">
        <ele>3.9</ele>
        <time>2020-06-03T14:49:27Z</time>
      </trkpt>
      <trkpt lat="46.57064" lon="-1.81854">
        <ele>3.9</ele>
        <time>2020-06-03T14:49:28Z</time>
      </trkpt>
      <trkpt lat="46.57069" lon="-1.81855">
        <ele>3.9</ele>
        <time>2020-06-03T14:49:29Z</time>
      </trkpt>
      <trkpt lat="46.57073" lon="-1.81855">
        <ele>3.9</ele>
        <time>2020-06-03T14:49:30Z</time>
      </trkpt>
      <trkpt lat="46.57078" lon="-1.81856">
        <ele>3.9</ele>
        <time>2020-06-03T14:49:31Z</time>
      </trkpt>
      <trkpt lat="46.57082" lon="-1.81858">
        <ele>3.9</ele>
        <time>2020-06-03T14:49:32Z</time>
      </trkpt>
      <trkpt lat="46.57085" lon="-1.81859">
        <ele>3.9</ele>
        <time>2020-06-03T14:49:33Z</time>
      </trkpt>
      <trkpt lat="46.5709" lon="-1.8186">
        <ele>3.9</ele>
        <time>2020-06-03T14:49:34Z</time>
      </trkpt>
      <trkpt lat="46.57094" lon="-1.81862">
        <ele>3.9</ele>
        <time>2020-06-03T14:49:35Z</time>
      </trkpt>
      <trkpt lat="46.57098" lon="-1.81865">
        <ele>3.9</ele>
        <time>2020-06-03T14:49:36Z</time>
      </trkpt>
      <trkpt lat="46.57102" lon="-1.81867">
        <ele>3.9</ele>
        <time>2020-06-03T14:49:37Z</time>
      </trkpt>
      <trkpt lat="46.57107" lon="-1.81868">
        <ele>3.9</ele>
        <time>2020-06-03T14:49:38Z</time>
      </trkpt>
      <trkpt lat="46.57111" lon="-1.8187">
        <ele>3.9</ele>
        <time>2020-06-03T14:49:39Z</time>
      </trkpt>
      <trkpt lat="46.57116" lon="-1.81872">
        <ele>3.9</ele>
        <time>2020-06-03T14:49:40Z</time>
      </trkpt>
      <trkpt lat="46.57121" lon="-1.81875">
        <ele>3.9</ele>
        <time>2020-06-03T14:49:41Z</time>
      </trkpt>
      <trkpt lat="46.57127" lon="-1.81878">
        <ele>3.9</ele>
        <time>2020-06-03T14:49:42Z</time>
      </trkpt>
      <trkpt lat="46.5713" lon="-1.8188">
        <ele>3.9</ele>
        <time>2020-06-03T14:49:43Z</time>
      </trkpt>
      <trkpt lat="46.57135" lon="-1.81882">
        <ele>3.9</ele>
        <time>2020-06-03T14:49:44Z</time>
      </trkpt>
      <trkpt lat="46.5714" lon="-1.81887">
        <ele>3.9</ele>
        <time>2020-06-03T14:49:45Z</time>
      </trkpt>
      <trkpt lat="46.57144" lon="-1.81891">
        <ele>3.8</ele>
        <time>2020-06-03T14:49:46Z</time>
      </trkpt>
      <trkpt lat="46.57148" lon="-1.81898">
        <ele>3.8</ele>
        <time>2020-06-03T14:49:47Z</time>
      </trkpt>
      <trkpt lat="46.57152" lon="-1.81904">
        <ele>3.8</ele>
        <time>2020-06-03T14:49:48Z</time>
      </trkpt>
      <trkpt lat="46.57154" lon="-1.8191">
        <ele>3.8</ele>
        <time>2020-06-03T14:49:49Z</time>
      </trkpt>
      <trkpt lat="46.57158" lon="-1.81917">
        <ele>3.7</ele>
        <time>2020-06-03T14:49:50Z</time>
      </trkpt>
      <trkpt lat="46.57161" lon="-1.81925">
        <ele>3.7</ele>
        <time>2020-06-03T14:49:51Z</time>
      </trkpt>
      <trkpt lat="46.57163" lon="-1.81931">
        <ele>3.7</ele>
        <time>2020-06-03T14:49:52Z</time>
      </trkpt>
      <trkpt lat="46.57165" lon="-1.81938">
        <ele>3.7</ele>
        <time>2020-06-03T14:49:53Z</time>
      </trkpt>
      <trkpt lat="46.57168" lon="-1.81945">
        <ele>3.7</ele>
        <time>2020-06-03T14:49:54Z</time>
      </trkpt>
      <trkpt lat="46.57171" lon="-1.81951">
        <ele>3.7</ele>
        <time>2020-06-03T14:49:55Z</time>
      </trkpt>
      <trkpt lat="46.57174" lon="-1.81957">
        <ele>3.7</ele>
        <time>2020-06-03T14:49:56Z</time>
      </trkpt>
      <trkpt lat="46.57176" lon="-1.81962">
        <ele>3.7</ele>
        <time>2020-06-03T14:49:57Z</time>
      </trkpt>
      <trkpt lat="46.57178" lon="-1.81968">
        <ele>3.7</ele>
        <time>2020-06-03T14:49:58Z</time>
      </trkpt>
      <trkpt lat="46.5718" lon="-1.81973">
        <ele>3.7</ele>
        <time>2020-06-03T14:49:59Z</time>
      </trkpt>
      <trkpt lat="46.57183" lon="-1.81979">
        <ele>3.7</ele>
        <time>2020-06-03T14:50:00Z</time>
      </trkpt>
      <trkpt lat="46.57185" lon="-1.81986">
        <ele>3.7</ele>
        <time>2020-06-03T14:50:01Z</time>
      </trkpt>
      <trkpt lat="46.57188" lon="-1.81992">
        <ele>3.8</ele>
        <time>2020-06-03T14:50:02Z</time>
      </trkpt>
      <trkpt lat="46.5719" lon="-1.81998">
        <ele>3.8</ele>
        <time>2020-06-03T14:50:03Z</time>
      </trkpt>
      <trkpt lat="46.57193" lon="-1.82005">
        <ele>3.8</ele>
        <time>2020-06-03T14:50:04Z</time>
      </trkpt>
      <trkpt lat="46.57195" lon="-1.82011">
        <ele>3.9</ele>
        <time>2020-06-03T14:50:05Z</time>
      </trkpt>
      <trkpt lat="46.57198" lon="-1.82018">
        <ele>3.9</ele>
        <time>2020-06-03T14:50:06Z</time>
      </trkpt>
      <trkpt lat="46.57201" lon="-1.82025">
        <ele>4</ele>
        <time>2020-06-03T14:50:07Z</time>
      </trkpt>
      <trkpt lat="46.57202" lon="-1.8203">
        <ele>4</ele>
        <time>2020-06-03T14:50:08Z</time>
      </trkpt>
      <trkpt lat="46.57204" lon="-1.82037">
        <ele>4</ele>
        <time>2020-06-03T14:50:09Z</time>
      </trkpt>
      <trkpt lat="46.57206" lon="-1.82044">
        <ele>4.1</ele>
        <time>2020-06-03T14:50:10Z</time>
      </trkpt>
      <trkpt lat="46.57208" lon="-1.82051">
        <ele>4.1</ele>
        <time>2020-06-03T14:50:11Z</time>
      </trkpt>
      <trkpt lat="46.5721" lon="-1.82058">
        <ele>4.1</ele>
        <time>2020-06-03T14:50:12Z</time>
      </trkpt>
      <trkpt lat="46.57212" lon="-1.82064">
        <ele>4.1</ele>
        <time>2020-06-03T14:50:13Z</time>
      </trkpt>
      <trkpt lat="46.57214" lon="-1.82071">
        <ele>4.1</ele>
        <time>2020-06-03T14:50:14Z</time>
      </trkpt>
      <trkpt lat="46.57216" lon="-1.82078">
        <ele>4.1</ele>
        <time>2020-06-03T14:50:15Z</time>
      </trkpt>
      <trkpt lat="46.57218" lon="-1.82084">
        <ele>4.1</ele>
        <time>2020-06-03T14:50:16Z</time>
      </trkpt>
      <trkpt lat="46.57221" lon="-1.8209">
        <ele>4.1</ele>
        <time>2020-06-03T14:50:17Z</time>
      </trkpt>
      <trkpt lat="46.57223" lon="-1.82097">
        <ele>4.1</ele>
        <time>2020-06-03T14:50:18Z</time>
      </trkpt>
      <trkpt lat="46.57224" lon="-1.82102">
        <ele>4.1</ele>
        <time>2020-06-03T14:50:19Z</time>
      </trkpt>
      <trkpt lat="46.57226" lon="-1.82107">
        <ele>4.1</ele>
        <time>2020-06-03T14:50:20Z</time>
      </trkpt>
      <trkpt lat="46.57229" lon="-1.82111">
        <ele>4.2</ele>
        <time>2020-06-03T14:50:21Z</time>
      </trkpt>
      <trkpt lat="46.57231" lon="-1.82116">
        <ele>4.2</ele>
        <time>2020-06-03T14:50:22Z</time>
      </trkpt>
      <trkpt lat="46.57234" lon="-1.82121">
        <ele>4.2</ele>
        <time>2020-06-03T14:50:23Z</time>
      </trkpt>
      <trkpt lat="46.57237" lon="-1.82125">
        <ele>4.2</ele>
        <time>2020-06-03T14:50:24Z</time>
      </trkpt>
      <trkpt lat="46.57242" lon="-1.82127">
        <ele>4.3</ele>
        <time>2020-06-03T14:50:25Z</time>
      </trkpt>
      <trkpt lat="46.57248" lon="-1.82128">
        <ele>4.3</ele>
        <time>2020-06-03T14:50:26Z</time>
      </trkpt>
      <trkpt lat="46.57254" lon="-1.82129">
        <ele>4.4</ele>
        <time>2020-06-03T14:50:27Z</time>
      </trkpt>
      <trkpt lat="46.57259" lon="-1.82128">
        <ele>4.4</ele>
        <time>2020-06-03T14:50:28Z</time>
      </trkpt>
      <trkpt lat="46.57265" lon="-1.82126">
        <ele>4.4</ele>
        <time>2020-06-03T14:50:29Z</time>
      </trkpt>
      <trkpt lat="46.5727" lon="-1.82124">
        <ele>4.5</ele>
        <time>2020-06-03T14:50:30Z</time>
      </trkpt>
      <trkpt lat="46.57274" lon="-1.82122">
        <ele>4.5</ele>
        <time>2020-06-03T14:50:31Z</time>
      </trkpt>
      <trkpt lat="46.57278" lon="-1.82121">
        <ele>4.5</ele>
        <time>2020-06-03T14:50:32Z</time>
      </trkpt>
      <trkpt lat="46.57282" lon="-1.82119">
        <ele>4.5</ele>
        <time>2020-06-03T14:50:33Z</time>
      </trkpt>
      <trkpt lat="46.57287" lon="-1.82117">
        <ele>4.6</ele>
        <time>2020-06-03T14:50:34Z</time>
      </trkpt>
      <trkpt lat="46.57291" lon="-1.82115">
        <ele>4.6</ele>
        <time>2020-06-03T14:50:35Z</time>
      </trkpt>
      <trkpt lat="46.57296" lon="-1.82114">
        <ele>4.6</ele>
        <time>2020-06-03T14:50:36Z</time>
      </trkpt>
      <trkpt lat="46.57299" lon="-1.82114">
        <ele>4.6</ele>
        <time>2020-06-03T14:50:37Z</time>
      </trkpt>
      <trkpt lat="46.57304" lon="-1.82113">
        <ele>4.6</ele>
        <time>2020-06-03T14:50:38Z</time>
      </trkpt>
      <trkpt lat="46.57308" lon="-1.82113">
        <ele>4.7</ele>
        <time>2020-06-03T14:50:39Z</time>
      </trkpt>
      <trkpt lat="46.57312" lon="-1.82112">
        <ele>4.7</ele>
        <time>2020-06-03T14:50:40Z</time>
      </trkpt>
      <trkpt lat="46.57317" lon="-1.82111">
        <ele>4.7</ele>
        <time>2020-06-03T14:50:41Z</time>
      </trkpt>
      <trkpt lat="46.57321" lon="-1.82111">
        <ele>4.7</ele>
        <time>2020-06-03T14:50:42Z</time>
      </trkpt>
      <trkpt lat="46.57325" lon="-1.82111">
        <ele>4.8</ele>
        <time>2020-06-03T14:50:43Z</time>
      </trkpt>
      <trkpt lat="46.5733" lon="-1.82111">
        <ele>4.8</ele>
        <time>2020-06-03T14:50:44Z</time>
      </trkpt>
      <trkpt lat="46.57335" lon="-1.8211">
        <ele>4.8</ele>
        <time>2020-06-03T14:50:45Z</time>
      </trkpt>
      <trkpt lat="46.57339" lon="-1.8211">
        <ele>4.8</ele>
        <time>2020-06-03T14:50:46Z</time>
      </trkpt>
      <trkpt lat="46.57343" lon="-1.8211">
        <ele>4.9</ele>
        <time>2020-06-03T14:50:47Z</time>
      </trkpt>
      <trkpt lat="46.57347" lon="-1.82109">
        <ele>4.9</ele>
        <time>2020-06-03T14:50:48Z</time>
      </trkpt>
      <trkpt lat="46.57352" lon="-1.82108">
        <ele>4.9</ele>
        <time>2020-06-03T14:50:49Z</time>
      </trkpt>
      <trkpt lat="46.57355" lon="-1.82107">
        <ele>5</ele>
        <time>2020-06-03T14:50:50Z</time>
      </trkpt>
      <trkpt lat="46.57359" lon="-1.82107">
        <ele>5</ele>
        <time>2020-06-03T14:50:51Z</time>
      </trkpt>
      <trkpt lat="46.5736" lon="-1.82108">
        <ele>5</ele>
        <time>2020-06-03T14:50:52Z</time>
      </trkpt>
      <trkpt lat="46.57363" lon="-1.8211">
        <ele>5</ele>
        <time>2020-06-03T14:50:53Z</time>
      </trkpt>
      <trkpt lat="46.57366" lon="-1.82111">
        <ele>5</ele>
        <time>2020-06-03T14:50:54Z</time>
      </trkpt>
      <trkpt lat="46.57369" lon="-1.82114">
        <ele>5</ele>
        <time>2020-06-03T14:50:55Z</time>
      </trkpt>
      <trkpt lat="46.57372" lon="-1.82117">
        <ele>5</ele>
        <time>2020-06-03T14:50:56Z</time>
      </trkpt>
      <trkpt lat="46.57375" lon="-1.8212">
        <ele>5.1</ele>
        <time>2020-06-03T14:50:57Z</time>
      </trkpt>
      <trkpt lat="46.57378" lon="-1.82124">
        <ele>5.1</ele>
        <time>2020-06-03T14:50:58Z</time>
      </trkpt>
      <trkpt lat="46.57382" lon="-1.8213">
        <ele>5.1</ele>
        <time>2020-06-03T14:50:59Z</time>
      </trkpt>
      <trkpt lat="46.57385" lon="-1.82133">
        <ele>5.1</ele>
        <time>2020-06-03T14:51:00Z</time>
      </trkpt>
      <trkpt lat="46.57389" lon="-1.82137">
        <ele>5.1</ele>
        <time>2020-06-03T14:51:01Z</time>
      </trkpt>
      <trkpt lat="46.57394" lon="-1.82139">
        <ele>5.2</ele>
        <time>2020-06-03T14:51:02Z</time>
      </trkpt>
      <trkpt lat="46.57397" lon="-1.82142">
        <ele>5.2</ele>
        <time>2020-06-03T14:51:03Z</time>
      </trkpt>
      <trkpt lat="46.574" lon="-1.82144">
        <ele>5.2</ele>
        <time>2020-06-03T14:51:04Z</time>
      </trkpt>
      <trkpt lat="46.57403" lon="-1.82145">
        <ele>5.2</ele>
        <time>2020-06-03T14:51:05Z</time>
      </trkpt>
      <trkpt lat="46.57406" lon="-1.82147">
        <ele>5.2</ele>
        <time>2020-06-03T14:51:06Z</time>
      </trkpt>
      <trkpt lat="46.5741" lon="-1.82148">
        <ele>5.3</ele>
        <time>2020-06-03T14:51:07Z</time>
      </trkpt>
      <trkpt lat="46.57413" lon="-1.82151">
        <ele>5.3</ele>
        <time>2020-06-03T14:51:08Z</time>
      </trkpt>
      <trkpt lat="46.57418" lon="-1.82153">
        <ele>5.3</ele>
        <time>2020-06-03T14:51:09Z</time>
      </trkpt>
      <trkpt lat="46.57423" lon="-1.82156">
        <ele>5.3</ele>
        <time>2020-06-03T14:51:10Z</time>
      </trkpt>
      <trkpt lat="46.57428" lon="-1.82159">
        <ele>5.3</ele>
        <time>2020-06-03T14:51:11Z</time>
      </trkpt>
      <trkpt lat="46.57433" lon="-1.8216">
        <ele>5.3</ele>
        <time>2020-06-03T14:51:12Z</time>
      </trkpt>
      <trkpt lat="46.57438" lon="-1.82163">
        <ele>5.4</ele>
        <time>2020-06-03T14:51:13Z</time>
      </trkpt>
      <trkpt lat="46.57443" lon="-1.82165">
        <ele>5.4</ele>
        <time>2020-06-03T14:51:14Z</time>
      </trkpt>
      <trkpt lat="46.57449" lon="-1.82167">
        <ele>5.4</ele>
        <time>2020-06-03T14:51:15Z</time>
      </trkpt>
      <trkpt lat="46.57456" lon="-1.82169">
        <ele>5.4</ele>
        <time>2020-06-03T14:51:16Z</time>
      </trkpt>
      <trkpt lat="46.57462" lon="-1.82172">
        <ele>5.5</ele>
        <time>2020-06-03T14:51:17Z</time>
      </trkpt>
      <trkpt lat="46.57467" lon="-1.82174">
        <ele>5.5</ele>
        <time>2020-06-03T14:51:18Z</time>
      </trkpt>
      <trkpt lat="46.57472" lon="-1.82177">
        <ele>5.5</ele>
        <time>2020-06-03T14:51:19Z</time>
      </trkpt>
      <trkpt lat="46.57477" lon="-1.8218">
        <ele>5.5</ele>
        <time>2020-06-03T14:51:20Z</time>
      </trkpt>
      <trkpt lat="46.57481" lon="-1.82183">
        <ele>5.5</ele>
        <time>2020-06-03T14:51:21Z</time>
      </trkpt>
      <trkpt lat="46.57485" lon="-1.82185">
        <ele>5.5</ele>
        <time>2020-06-03T14:51:22Z</time>
      </trkpt>
      <trkpt lat="46.57489" lon="-1.82188">
        <ele>5.5</ele>
        <time>2020-06-03T14:51:23Z</time>
      </trkpt>
      <trkpt lat="46.57492" lon="-1.82192">
        <ele>5.5</ele>
        <time>2020-06-03T14:51:24Z</time>
      </trkpt>
      <trkpt lat="46.57495" lon="-1.82195">
        <ele>5.5</ele>
        <time>2020-06-03T14:51:25Z</time>
      </trkpt>
      <trkpt lat="46.57498" lon="-1.82198">
        <ele>5.5</ele>
        <time>2020-06-03T14:51:26Z</time>
      </trkpt>
      <trkpt lat="46.57501" lon="-1.82201">
        <ele>5.5</ele>
        <time>2020-06-03T14:51:27Z</time>
      </trkpt>
      <trkpt lat="46.57505" lon="-1.82203">
        <ele>5.5</ele>
        <time>2020-06-03T14:51:28Z</time>
      </trkpt>
      <trkpt lat="46.57508" lon="-1.82205">
        <ele>5.5</ele>
        <time>2020-06-03T14:51:29Z</time>
      </trkpt>
      <trkpt lat="46.57512" lon="-1.82207">
        <ele>5.6</ele>
        <time>2020-06-03T14:51:30Z</time>
      </trkpt>
      <trkpt lat="46.57517" lon="-1.82209">
        <ele>5.6</ele>
        <time>2020-06-03T14:51:31Z</time>
      </trkpt>
      <trkpt lat="46.5752" lon="-1.8221">
        <ele>5.6</ele>
        <time>2020-06-03T14:51:32Z</time>
      </trkpt>
      <trkpt lat="46.57524" lon="-1.82211">
        <ele>5.6</ele>
        <time>2020-06-03T14:51:33Z</time>
      </trkpt>
      <trkpt lat="46.57528" lon="-1.82214">
        <ele>5.6</ele>
        <time>2020-06-03T14:51:34Z</time>
      </trkpt>
      <trkpt lat="46.57534" lon="-1.82215">
        <ele>5.6</ele>
        <time>2020-06-03T14:51:35Z</time>
      </trkpt>
      <trkpt lat="46.57538" lon="-1.82218">
        <ele>5.6</ele>
        <time>2020-06-03T14:51:36Z</time>
      </trkpt>
      <trkpt lat="46.57543" lon="-1.82221">
        <ele>5.6</ele>
        <time>2020-06-03T14:51:37Z</time>
      </trkpt>
      <trkpt lat="46.57547" lon="-1.82222">
        <ele>5.6</ele>
        <time>2020-06-03T14:51:38Z</time>
      </trkpt>
      <trkpt lat="46.57551" lon="-1.82225">
        <ele>5.6</ele>
        <time>2020-06-03T14:51:39Z</time>
      </trkpt>
      <trkpt lat="46.57553" lon="-1.82227">
        <ele>5.6</ele>
        <time>2020-06-03T14:51:40Z</time>
      </trkpt>
      <trkpt lat="46.57557" lon="-1.8223">
        <ele>5.6</ele>
        <time>2020-06-03T14:51:41Z</time>
      </trkpt>
      <trkpt lat="46.5756" lon="-1.82232">
        <ele>5.6</ele>
        <time>2020-06-03T14:51:42Z</time>
      </trkpt>
      <trkpt lat="46.57564" lon="-1.82234">
        <ele>5.6</ele>
        <time>2020-06-03T14:51:43Z</time>
      </trkpt>
      <trkpt lat="46.57569" lon="-1.82237">
        <ele>5.6</ele>
        <time>2020-06-03T14:51:44Z</time>
      </trkpt>
      <trkpt lat="46.57573" lon="-1.82239">
        <ele>5.6</ele>
        <time>2020-06-03T14:51:45Z</time>
      </trkpt>
      <trkpt lat="46.57578" lon="-1.82241">
        <ele>5.6</ele>
        <time>2020-06-03T14:51:46Z</time>
      </trkpt>
      <trkpt lat="46.57582" lon="-1.82244">
        <ele>5.6</ele>
        <time>2020-06-03T14:51:47Z</time>
      </trkpt>
      <trkpt lat="46.57586" lon="-1.82246">
        <ele>5.6</ele>
        <time>2020-06-03T14:51:48Z</time>
      </trkpt>
      <trkpt lat="46.5759" lon="-1.82248">
        <ele>5.6</ele>
        <time>2020-06-03T14:51:49Z</time>
      </trkpt>
      <trkpt lat="46.57594" lon="-1.8225">
        <ele>5.6</ele>
        <time>2020-06-03T14:51:50Z</time>
      </trkpt>
      <trkpt lat="46.57598" lon="-1.82251">
        <ele>5.6</ele>
        <time>2020-06-03T14:51:51Z</time>
      </trkpt>
      <trkpt lat="46.57602" lon="-1.82253">
        <ele>5.7</ele>
        <time>2020-06-03T14:51:52Z</time>
      </trkpt>
      <trkpt lat="46.57607" lon="-1.82255">
        <ele>5.7</ele>
        <time>2020-06-03T14:51:53Z</time>
      </trkpt>
      <trkpt lat="46.57612" lon="-1.82257">
        <ele>5.7</ele>
        <time>2020-06-03T14:51:54Z</time>
      </trkpt>
      <trkpt lat="46.57617" lon="-1.82259">
        <ele>5.8</ele>
        <time>2020-06-03T14:51:55Z</time>
      </trkpt>
      <trkpt lat="46.5762" lon="-1.8226">
        <ele>5.8</ele>
        <time>2020-06-03T14:51:56Z</time>
      </trkpt>
      <trkpt lat="46.57622" lon="-1.82263">
        <ele>5.8</ele>
        <time>2020-06-03T14:51:57Z</time>
      </trkpt>
      <trkpt lat="46.57624" lon="-1.82265">
        <ele>5.9</ele>
        <time>2020-06-03T14:51:58Z</time>
      </trkpt>
      <trkpt lat="46.57625" lon="-1.82266">
        <ele>5.9</ele>
        <time>2020-06-03T14:51:59Z</time>
      </trkpt>
      <trkpt lat="46.57627" lon="-1.82269">
        <ele>5.9</ele>
        <time>2020-06-03T14:52:00Z</time>
      </trkpt>
      <trkpt lat="46.57628" lon="-1.8227">
        <ele>5.9</ele>
        <time>2020-06-03T14:52:01Z</time>
      </trkpt>
      <trkpt lat="46.57628" lon="-1.82272">
        <ele>5.9</ele>
        <time>2020-06-03T14:52:02Z</time>
      </trkpt>
      <trkpt lat="46.57628" lon="-1.82275">
        <ele>5.9</ele>
        <time>2020-06-03T14:52:03Z</time>
      </trkpt>
      <trkpt lat="46.57627" lon="-1.82279">
        <ele>5.9</ele>
        <time>2020-06-03T14:52:04Z</time>
      </trkpt>
      <trkpt lat="46.57626" lon="-1.8228">
        <ele>6</ele>
        <time>2020-06-03T14:52:05Z</time>
      </trkpt>
      <trkpt lat="46.57626" lon="-1.82284">
        <ele>6.1</ele>
        <time>2020-06-03T14:52:06Z</time>
      </trkpt>
      <trkpt lat="46.57625" lon="-1.8229">
        <ele>6.1</ele>
        <time>2020-06-03T14:52:07Z</time>
      </trkpt>
      <trkpt lat="46.57625" lon="-1.82296">
        <ele>6.1</ele>
        <time>2020-06-03T14:52:08Z</time>
      </trkpt>
      <trkpt lat="46.57625" lon="-1.82304">
        <ele>6.2</ele>
        <time>2020-06-03T14:52:09Z</time>
      </trkpt>
      <trkpt lat="46.57624" lon="-1.82311">
        <ele>6.4</ele>
        <time>2020-06-03T14:52:10Z</time>
      </trkpt>
      <trkpt lat="46.57623" lon="-1.82318">
        <ele>6.4</ele>
        <time>2020-06-03T14:52:11Z</time>
      </trkpt>
      <trkpt lat="46.57622" lon="-1.82323">
        <ele>6.5</ele>
        <time>2020-06-03T14:52:12Z</time>
      </trkpt>
      <trkpt lat="46.57622" lon="-1.82329">
        <ele>6.6</ele>
        <time>2020-06-03T14:52:13Z</time>
      </trkpt>
      <trkpt lat="46.57621" lon="-1.82331">
        <ele>6.6</ele>
        <time>2020-06-03T14:52:14Z</time>
      </trkpt>
      <trkpt lat="46.57621" lon="-1.82337">
        <ele>6.7</ele>
        <time>2020-06-03T14:52:15Z</time>
      </trkpt>
      <trkpt lat="46.57621" lon="-1.82339">
        <ele>6.7</ele>
        <time>2020-06-03T14:52:16Z</time>
      </trkpt>
      <trkpt lat="46.57621" lon="-1.82343">
        <ele>6.8</ele>
        <time>2020-06-03T14:52:17Z</time>
      </trkpt>
      <trkpt lat="46.57621" lon="-1.82345">
        <ele>6.8</ele>
        <time>2020-06-03T14:52:18Z</time>
      </trkpt>
      <trkpt lat="46.57622" lon="-1.8235">
        <ele>6.9</ele>
        <time>2020-06-03T14:52:19Z</time>
      </trkpt>
      <trkpt lat="46.57622" lon="-1.82351">
        <ele>6.9</ele>
        <time>2020-06-03T14:52:20Z</time>
      </trkpt>
      <trkpt lat="46.57623" lon="-1.82355">
        <ele>6.9</ele>
        <time>2020-06-03T14:52:21Z</time>
      </trkpt>
      <trkpt lat="46.57623" lon="-1.82357">
        <ele>7</ele>
        <time>2020-06-03T14:52:22Z</time>
      </trkpt>
      <trkpt lat="46.57624" lon="-1.82361">
        <ele>7</ele>
        <time>2020-06-03T14:52:23Z</time>
      </trkpt>
      <trkpt lat="46.57625" lon="-1.82368">
        <ele>7</ele>
        <time>2020-06-03T14:52:24Z</time>
      </trkpt>
      <trkpt lat="46.57625" lon="-1.82374">
        <ele>7</ele>
        <time>2020-06-03T14:52:25Z</time>
      </trkpt>
      <trkpt lat="46.57625" lon="-1.82379">
        <ele>7</ele>
        <time>2020-06-03T14:52:26Z</time>
      </trkpt>
      <trkpt lat="46.57626" lon="-1.82384">
        <ele>7.1</ele>
        <time>2020-06-03T14:52:27Z</time>
      </trkpt>
      <trkpt lat="46.57627" lon="-1.8239">
        <ele>7.1</ele>
        <time>2020-06-03T14:52:28Z</time>
      </trkpt>
      <trkpt lat="46.57627" lon="-1.82394">
        <ele>7.1</ele>
        <time>2020-06-03T14:52:29Z</time>
      </trkpt>
      <trkpt lat="46.57628" lon="-1.82399">
        <ele>7.2</ele>
        <time>2020-06-03T14:52:30Z</time>
      </trkpt>
      <trkpt lat="46.57629" lon="-1.82403">
        <ele>7.2</ele>
        <time>2020-06-03T14:52:31Z</time>
      </trkpt>
      <trkpt lat="46.57629" lon="-1.82408">
        <ele>7.2</ele>
        <time>2020-06-03T14:52:32Z</time>
      </trkpt>
      <trkpt lat="46.57631" lon="-1.82412">
        <ele>7.3</ele>
        <time>2020-06-03T14:52:33Z</time>
      </trkpt>
      <trkpt lat="46.57631" lon="-1.82418">
        <ele>7.3</ele>
        <time>2020-06-03T14:52:34Z</time>
      </trkpt>
      <trkpt lat="46.57632" lon="-1.82424">
        <ele>7.3</ele>
        <time>2020-06-03T14:52:35Z</time>
      </trkpt>
      <trkpt lat="46.57633" lon="-1.8243">
        <ele>7.4</ele>
        <time>2020-06-03T14:52:36Z</time>
      </trkpt>
      <trkpt lat="46.57634" lon="-1.82434">
        <ele>7.4</ele>
        <time>2020-06-03T14:52:37Z</time>
      </trkpt>
      <trkpt lat="46.57635" lon="-1.8244">
        <ele>7.5</ele>
        <time>2020-06-03T14:52:38Z</time>
      </trkpt>
      <trkpt lat="46.57635" lon="-1.82446">
        <ele>7.5</ele>
        <time>2020-06-03T14:52:39Z</time>
      </trkpt>
      <trkpt lat="46.57636" lon="-1.82451">
        <ele>7.6</ele>
        <time>2020-06-03T14:52:40Z</time>
      </trkpt>
      <trkpt lat="46.57637" lon="-1.82457">
        <ele>7.6</ele>
        <time>2020-06-03T14:52:41Z</time>
      </trkpt>
      <trkpt lat="46.57639" lon="-1.82461">
        <ele>7.7</ele>
        <time>2020-06-03T14:52:42Z</time>
      </trkpt>
      <trkpt lat="46.57641" lon="-1.82465">
        <ele>7.7</ele>
        <time>2020-06-03T14:52:43Z</time>
      </trkpt>
      <trkpt lat="46.57642" lon="-1.82469">
        <ele>7.8</ele>
        <time>2020-06-03T14:52:44Z</time>
      </trkpt>
      <trkpt lat="46.57644" lon="-1.82473">
        <ele>7.8</ele>
        <time>2020-06-03T14:52:45Z</time>
      </trkpt>
      <trkpt lat="46.57647" lon="-1.82476">
        <ele>7.9</ele>
        <time>2020-06-03T14:52:46Z</time>
      </trkpt>
      <trkpt lat="46.57648" lon="-1.82476">
        <ele>7.9</ele>
        <time>2020-06-03T14:52:47Z</time>
      </trkpt>
      <trkpt lat="46.57651" lon="-1.82478">
        <ele>7.9</ele>
        <time>2020-06-03T14:52:48Z</time>
      </trkpt>
      <trkpt lat="46.57652" lon="-1.82479">
        <ele>7.9</ele>
        <time>2020-06-03T14:52:49Z</time>
      </trkpt>
      <trkpt lat="46.57654" lon="-1.82482">
        <ele>8</ele>
        <time>2020-06-03T14:52:50Z</time>
      </trkpt>
      <trkpt lat="46.57656" lon="-1.82486">
        <ele>8</ele>
        <time>2020-06-03T14:52:51Z</time>
      </trkpt>
      <trkpt lat="46.57659" lon="-1.8249">
        <ele>8.1</ele>
        <time>2020-06-03T14:52:52Z</time>
      </trkpt>
      <trkpt lat="46.57662" lon="-1.82493">
        <ele>8.1</ele>
        <time>2020-06-03T14:52:53Z</time>
      </trkpt>
      <trkpt lat="46.57666" lon="-1.82493">
        <ele>8.1</ele>
        <time>2020-06-03T14:52:54Z</time>
      </trkpt>
      <trkpt lat="46.57669" lon="-1.82494">
        <ele>8.2</ele>
        <time>2020-06-03T14:52:55Z</time>
      </trkpt>
      <trkpt lat="46.57672" lon="-1.82496">
        <ele>8.2</ele>
        <time>2020-06-03T14:52:56Z</time>
      </trkpt>
      <trkpt lat="46.57676" lon="-1.82497">
        <ele>8.2</ele>
        <time>2020-06-03T14:52:57Z</time>
      </trkpt>
      <trkpt lat="46.5768" lon="-1.82499">
        <ele>8.2</ele>
        <time>2020-06-03T14:52:58Z</time>
      </trkpt>
      <trkpt lat="46.57684" lon="-1.825">
        <ele>8.2</ele>
        <time>2020-06-03T14:52:59Z</time>
      </trkpt>
      <trkpt lat="46.57688" lon="-1.82501">
        <ele>8.2</ele>
        <time>2020-06-03T14:53:00Z</time>
      </trkpt>
      <trkpt lat="46.57691" lon="-1.82502">
        <ele>8.2</ele>
        <time>2020-06-03T14:53:01Z</time>
      </trkpt>
      <trkpt lat="46.57695" lon="-1.82505">
        <ele>8.2</ele>
        <time>2020-06-03T14:53:02Z</time>
      </trkpt>
      <trkpt lat="46.57698" lon="-1.82507">
        <ele>8.2</ele>
        <time>2020-06-03T14:53:03Z</time>
      </trkpt>
      <trkpt lat="46.57702" lon="-1.82509">
        <ele>8.2</ele>
        <time>2020-06-03T14:53:04Z</time>
      </trkpt>
      <trkpt lat="46.57707" lon="-1.82509">
        <ele>8.2</ele>
        <time>2020-06-03T14:53:05Z</time>
      </trkpt>
      <trkpt lat="46.5771" lon="-1.8251">
        <ele>8.3</ele>
        <time>2020-06-03T14:53:06Z</time>
      </trkpt>
      <trkpt lat="46.57714" lon="-1.82512">
        <ele>8.3</ele>
        <time>2020-06-03T14:53:07Z</time>
      </trkpt>
      <trkpt lat="46.57716" lon="-1.82513">
        <ele>8.3</ele>
        <time>2020-06-03T14:53:08Z</time>
      </trkpt>
      <trkpt lat="46.57718" lon="-1.82515">
        <ele>8.3</ele>
        <time>2020-06-03T14:53:09Z</time>
      </trkpt>
      <trkpt lat="46.57721" lon="-1.82519">
        <ele>8.4</ele>
        <time>2020-06-03T14:53:10Z</time>
      </trkpt>
      <trkpt lat="46.57725" lon="-1.82524">
        <ele>8.4</ele>
        <time>2020-06-03T14:53:11Z</time>
      </trkpt>
      <trkpt lat="46.57729" lon="-1.8253">
        <ele>8.4</ele>
        <time>2020-06-03T14:53:12Z</time>
      </trkpt>
      <trkpt lat="46.57734" lon="-1.82537">
        <ele>8.4</ele>
        <time>2020-06-03T14:53:13Z</time>
      </trkpt>
      <trkpt lat="46.57737" lon="-1.82545">
        <ele>8.5</ele>
        <time>2020-06-03T14:53:14Z</time>
      </trkpt>
      <trkpt lat="46.57739" lon="-1.82553">
        <ele>8.4</ele>
        <time>2020-06-03T14:53:15Z</time>
      </trkpt>
      <trkpt lat="46.57741" lon="-1.82559">
        <ele>8.4</ele>
        <time>2020-06-03T14:53:16Z</time>
      </trkpt>
      <trkpt lat="46.57743" lon="-1.82566">
        <ele>8.3</ele>
        <time>2020-06-03T14:53:17Z</time>
      </trkpt>
      <trkpt lat="46.57745" lon="-1.82573">
        <ele>8.3</ele>
        <time>2020-06-03T14:53:18Z</time>
      </trkpt>
      <trkpt lat="46.57748" lon="-1.82579">
        <ele>8.2</ele>
        <time>2020-06-03T14:53:19Z</time>
      </trkpt>
      <trkpt lat="46.57749" lon="-1.82586">
        <ele>8.2</ele>
        <time>2020-06-03T14:53:20Z</time>
      </trkpt>
      <trkpt lat="46.57753" lon="-1.82594">
        <ele>8.2</ele>
        <time>2020-06-03T14:53:21Z</time>
      </trkpt>
      <trkpt lat="46.57756" lon="-1.82601">
        <ele>8.2</ele>
        <time>2020-06-03T14:53:22Z</time>
      </trkpt>
      <trkpt lat="46.57757" lon="-1.82608">
        <ele>8.2</ele>
        <time>2020-06-03T14:53:23Z</time>
      </trkpt>
      <trkpt lat="46.57759" lon="-1.82614">
        <ele>8.2</ele>
        <time>2020-06-03T14:53:24Z</time>
      </trkpt>
      <trkpt lat="46.5776" lon="-1.82621">
        <ele>8.2</ele>
        <time>2020-06-03T14:53:25Z</time>
      </trkpt>
      <trkpt lat="46.57763" lon="-1.82626">
        <ele>8.2</ele>
        <time>2020-06-03T14:53:26Z</time>
      </trkpt>
      <trkpt lat="46.57764" lon="-1.82632">
        <ele>8.2</ele>
        <time>2020-06-03T14:53:27Z</time>
      </trkpt>
      <trkpt lat="46.57766" lon="-1.82638">
        <ele>8.2</ele>
        <time>2020-06-03T14:53:28Z</time>
      </trkpt>
      <trkpt lat="46.57768" lon="-1.82644">
        <ele>8.2</ele>
        <time>2020-06-03T14:53:29Z</time>
      </trkpt>
      <trkpt lat="46.57771" lon="-1.8265">
        <ele>8.2</ele>
        <time>2020-06-03T14:53:30Z</time>
      </trkpt>
      <trkpt lat="46.57773" lon="-1.82656">
        <ele>8.2</ele>
        <time>2020-06-03T14:53:31Z</time>
      </trkpt>
      <trkpt lat="46.57775" lon="-1.82663">
        <ele>8.3</ele>
        <time>2020-06-03T14:53:32Z</time>
      </trkpt>
      <trkpt lat="46.57776" lon="-1.82669">
        <ele>8.3</ele>
        <time>2020-06-03T14:53:33Z</time>
      </trkpt>
      <trkpt lat="46.57778" lon="-1.82676">
        <ele>8.3</ele>
        <time>2020-06-03T14:53:34Z</time>
      </trkpt>
      <trkpt lat="46.57779" lon="-1.82682">
        <ele>8.3</ele>
        <time>2020-06-03T14:53:35Z</time>
      </trkpt>
      <trkpt lat="46.5778" lon="-1.82688">
        <ele>8.3</ele>
        <time>2020-06-03T14:53:36Z</time>
      </trkpt>
      <trkpt lat="46.57782" lon="-1.82693">
        <ele>8.3</ele>
        <time>2020-06-03T14:53:37Z</time>
      </trkpt>
      <trkpt lat="46.57784" lon="-1.82699">
        <ele>8.3</ele>
        <time>2020-06-03T14:53:38Z</time>
      </trkpt>
      <trkpt lat="46.57786" lon="-1.82705">
        <ele>8.3</ele>
        <time>2020-06-03T14:53:39Z</time>
      </trkpt>
      <trkpt lat="46.57788" lon="-1.82712">
        <ele>8.3</ele>
        <time>2020-06-03T14:53:40Z</time>
      </trkpt>
      <trkpt lat="46.5779" lon="-1.82718">
        <ele>8.4</ele>
        <time>2020-06-03T14:53:41Z</time>
      </trkpt>
      <trkpt lat="46.57791" lon="-1.82724">
        <ele>8.4</ele>
        <time>2020-06-03T14:53:42Z</time>
      </trkpt>
      <trkpt lat="46.57793" lon="-1.8273">
        <ele>8.5</ele>
        <time>2020-06-03T14:53:43Z</time>
      </trkpt>
      <trkpt lat="46.57795" lon="-1.82737">
        <ele>8.6</ele>
        <time>2020-06-03T14:53:44Z</time>
      </trkpt>
      <trkpt lat="46.57797" lon="-1.82744">
        <ele>8.8</ele>
        <time>2020-06-03T14:53:45Z</time>
      </trkpt>
      <trkpt lat="46.57799" lon="-1.82751">
        <ele>8.9</ele>
        <time>2020-06-03T14:53:46Z</time>
      </trkpt>
      <trkpt lat="46.57801" lon="-1.82757">
        <ele>8.9</ele>
        <time>2020-06-03T14:53:47Z</time>
      </trkpt>
      <trkpt lat="46.57803" lon="-1.82764">
        <ele>9</ele>
        <time>2020-06-03T14:53:48Z</time>
      </trkpt>
      <trkpt lat="46.57806" lon="-1.8277">
        <ele>9.1</ele>
        <time>2020-06-03T14:53:49Z</time>
      </trkpt>
      <trkpt lat="46.57808" lon="-1.82778">
        <ele>9.1</ele>
        <time>2020-06-03T14:53:50Z</time>
      </trkpt>
      <trkpt lat="46.57811" lon="-1.82785">
        <ele>9.1</ele>
        <time>2020-06-03T14:53:51Z</time>
      </trkpt>
      <trkpt lat="46.57813" lon="-1.82793">
        <ele>9.1</ele>
        <time>2020-06-03T14:53:52Z</time>
      </trkpt>
      <trkpt lat="46.57814" lon="-1.828">
        <ele>9.1</ele>
        <time>2020-06-03T14:53:53Z</time>
      </trkpt>
      <trkpt lat="46.57815" lon="-1.82806">
        <ele>9</ele>
        <time>2020-06-03T14:53:54Z</time>
      </trkpt>
      <trkpt lat="46.57815" lon="-1.82812">
        <ele>9</ele>
        <time>2020-06-03T14:53:55Z</time>
      </trkpt>
      <trkpt lat="46.57817" lon="-1.82818">
        <ele>8.9</ele>
        <time>2020-06-03T14:53:56Z</time>
      </trkpt>
      <trkpt lat="46.57817" lon="-1.82825">
        <ele>8.8</ele>
        <time>2020-06-03T14:53:57Z</time>
      </trkpt>
      <trkpt lat="46.57817" lon="-1.82832">
        <ele>8.8</ele>
        <time>2020-06-03T14:53:58Z</time>
      </trkpt>
      <trkpt lat="46.57817" lon="-1.82838">
        <ele>8.7</ele>
        <time>2020-06-03T14:53:59Z</time>
      </trkpt>
      <trkpt lat="46.57817" lon="-1.82844">
        <ele>8.6</ele>
        <time>2020-06-03T14:54:00Z</time>
      </trkpt>
      <trkpt lat="46.57817" lon="-1.82852">
        <ele>8.6</ele>
        <time>2020-06-03T14:54:01Z</time>
      </trkpt>
      <trkpt lat="46.57816" lon="-1.82858">
        <ele>8.5</ele>
        <time>2020-06-03T14:54:02Z</time>
      </trkpt>
      <trkpt lat="46.57817" lon="-1.82864">
        <ele>8.4</ele>
        <time>2020-06-03T14:54:03Z</time>
      </trkpt>
      <trkpt lat="46.57817" lon="-1.8287">
        <ele>8.4</ele>
        <time>2020-06-03T14:54:04Z</time>
      </trkpt>
      <trkpt lat="46.57818" lon="-1.82877">
        <ele>8.3</ele>
        <time>2020-06-03T14:54:05Z</time>
      </trkpt>
      <trkpt lat="46.57818" lon="-1.82884">
        <ele>8.3</ele>
        <time>2020-06-03T14:54:06Z</time>
      </trkpt>
      <trkpt lat="46.57819" lon="-1.82891">
        <ele>8.3</ele>
        <time>2020-06-03T14:54:07Z</time>
      </trkpt>
      <trkpt lat="46.5782" lon="-1.82898">
        <ele>8.2</ele>
        <time>2020-06-03T14:54:08Z</time>
      </trkpt>
      <trkpt lat="46.57821" lon="-1.82906">
        <ele>8.2</ele>
        <time>2020-06-03T14:54:09Z</time>
      </trkpt>
      <trkpt lat="46.57821" lon="-1.82914">
        <ele>8.1</ele>
        <time>2020-06-03T14:54:10Z</time>
      </trkpt>
      <trkpt lat="46.57822" lon="-1.82922">
        <ele>8.1</ele>
        <time>2020-06-03T14:54:11Z</time>
      </trkpt>
      <trkpt lat="46.57823" lon="-1.82929">
        <ele>8.1</ele>
        <time>2020-06-03T14:54:12Z</time>
      </trkpt>
      <trkpt lat="46.57825" lon="-1.82937">
        <ele>8.1</ele>
        <time>2020-06-03T14:54:13Z</time>
      </trkpt>
      <trkpt lat="46.57826" lon="-1.82945">
        <ele>8.1</ele>
        <time>2020-06-03T14:54:14Z</time>
      </trkpt>
      <trkpt lat="46.57828" lon="-1.82954">
        <ele>8.1</ele>
        <time>2020-06-03T14:54:15Z</time>
      </trkpt>
      <trkpt lat="46.57829" lon="-1.82965">
        <ele>8.1</ele>
        <time>2020-06-03T14:54:16Z</time>
      </trkpt>
      <trkpt lat="46.5783" lon="-1.82975">
        <ele>8.1</ele>
        <time>2020-06-03T14:54:17Z</time>
      </trkpt>
      <trkpt lat="46.57831" lon="-1.82985">
        <ele>8.1</ele>
        <time>2020-06-03T14:54:18Z</time>
      </trkpt>
      <trkpt lat="46.57832" lon="-1.82994">
        <ele>8.2</ele>
        <time>2020-06-03T14:54:19Z</time>
      </trkpt>
      <trkpt lat="46.57833" lon="-1.83004">
        <ele>8.3</ele>
        <time>2020-06-03T14:54:20Z</time>
      </trkpt>
      <trkpt lat="46.57834" lon="-1.83013">
        <ele>8.3</ele>
        <time>2020-06-03T14:54:21Z</time>
      </trkpt>
      <trkpt lat="46.57835" lon="-1.83021">
        <ele>8.4</ele>
        <time>2020-06-03T14:54:22Z</time>
      </trkpt>
      <trkpt lat="46.57835" lon="-1.8303">
        <ele>8.5</ele>
        <time>2020-06-03T14:54:23Z</time>
      </trkpt>
      <trkpt lat="46.57836" lon="-1.83039">
        <ele>8.5</ele>
        <time>2020-06-03T14:54:24Z</time>
      </trkpt>
      <trkpt lat="46.57836" lon="-1.83047">
        <ele>8.5</ele>
        <time>2020-06-03T14:54:25Z</time>
      </trkpt>
      <trkpt lat="46.57835" lon="-1.83054">
        <ele>8.5</ele>
        <time>2020-06-03T14:54:26Z</time>
      </trkpt>
      <trkpt lat="46.57835" lon="-1.8306">
        <ele>8.5</ele>
        <time>2020-06-03T14:54:27Z</time>
      </trkpt>
      <trkpt lat="46.57834" lon="-1.83068">
        <ele>8.5</ele>
        <time>2020-06-03T14:54:28Z</time>
      </trkpt>
      <trkpt lat="46.57834" lon="-1.83075">
        <ele>8.5</ele>
        <time>2020-06-03T14:54:29Z</time>
      </trkpt>
      <trkpt lat="46.57834" lon="-1.83082">
        <ele>8.5</ele>
        <time>2020-06-03T14:54:30Z</time>
      </trkpt>
      <trkpt lat="46.57834" lon="-1.83089">
        <ele>8.5</ele>
        <time>2020-06-03T14:54:31Z</time>
      </trkpt>
      <trkpt lat="46.57834" lon="-1.83096">
        <ele>8.4</ele>
        <time>2020-06-03T14:54:32Z</time>
      </trkpt>
      <trkpt lat="46.57834" lon="-1.83102">
        <ele>8.4</ele>
        <time>2020-06-03T14:54:33Z</time>
      </trkpt>
      <trkpt lat="46.57835" lon="-1.83109">
        <ele>8.4</ele>
        <time>2020-06-03T14:54:34Z</time>
      </trkpt>
      <trkpt lat="46.57836" lon="-1.83116">
        <ele>8.4</ele>
        <time>2020-06-03T14:54:35Z</time>
      </trkpt>
      <trkpt lat="46.57837" lon="-1.83121">
        <ele>8.4</ele>
        <time>2020-06-03T14:54:36Z</time>
      </trkpt>
      <trkpt lat="46.57839" lon="-1.83127">
        <ele>8.4</ele>
        <time>2020-06-03T14:54:37Z</time>
      </trkpt>
      <trkpt lat="46.5784" lon="-1.83135">
        <ele>8.4</ele>
        <time>2020-06-03T14:54:38Z</time>
      </trkpt>
      <trkpt lat="46.57841" lon="-1.83141">
        <ele>8.4</ele>
        <time>2020-06-03T14:54:39Z</time>
      </trkpt>
      <trkpt lat="46.57842" lon="-1.83148">
        <ele>8.4</ele>
        <time>2020-06-03T14:54:40Z</time>
      </trkpt>
      <trkpt lat="46.57844" lon="-1.83154">
        <ele>8.3</ele>
        <time>2020-06-03T14:54:41Z</time>
      </trkpt>
      <trkpt lat="46.57846" lon="-1.83159">
        <ele>8.3</ele>
        <time>2020-06-03T14:54:42Z</time>
      </trkpt>
      <trkpt lat="46.5785" lon="-1.83164">
        <ele>8.3</ele>
        <time>2020-06-03T14:54:43Z</time>
      </trkpt>
      <trkpt lat="46.57853" lon="-1.83169">
        <ele>8.3</ele>
        <time>2020-06-03T14:54:44Z</time>
      </trkpt>
      <trkpt lat="46.57856" lon="-1.83174">
        <ele>8.4</ele>
        <time>2020-06-03T14:54:45Z</time>
      </trkpt>
      <trkpt lat="46.5786" lon="-1.83179">
        <ele>8.4</ele>
        <time>2020-06-03T14:54:46Z</time>
      </trkpt>
      <trkpt lat="46.57864" lon="-1.83184">
        <ele>8.4</ele>
        <time>2020-06-03T14:54:47Z</time>
      </trkpt>
      <trkpt lat="46.57868" lon="-1.83188">
        <ele>8.5</ele>
        <time>2020-06-03T14:54:48Z</time>
      </trkpt>
      <trkpt lat="46.57873" lon="-1.83193">
        <ele>8.5</ele>
        <time>2020-06-03T14:54:49Z</time>
      </trkpt>
      <trkpt lat="46.57878" lon="-1.83198">
        <ele>8.6</ele>
        <time>2020-06-03T14:54:50Z</time>
      </trkpt>
      <trkpt lat="46.57883" lon="-1.83203">
        <ele>8.6</ele>
        <time>2020-06-03T14:54:51Z</time>
      </trkpt>
      <trkpt lat="46.57887" lon="-1.83209">
        <ele>8.7</ele>
        <time>2020-06-03T14:54:52Z</time>
      </trkpt>
      <trkpt lat="46.57889" lon="-1.83215">
        <ele>8.7</ele>
        <time>2020-06-03T14:54:53Z</time>
      </trkpt>
      <trkpt lat="46.57891" lon="-1.83221">
        <ele>8.8</ele>
        <time>2020-06-03T14:54:54Z</time>
      </trkpt>
      <trkpt lat="46.57894" lon="-1.83227">
        <ele>8.8</ele>
        <time>2020-06-03T14:54:55Z</time>
      </trkpt>
      <trkpt lat="46.57896" lon="-1.83232">
        <ele>8.8</ele>
        <time>2020-06-03T14:54:56Z</time>
      </trkpt>
      <trkpt lat="46.579" lon="-1.83239">
        <ele>8.9</ele>
        <time>2020-06-03T14:54:57Z</time>
      </trkpt>
      <trkpt lat="46.57903" lon="-1.83245">
        <ele>8.9</ele>
        <time>2020-06-03T14:54:58Z</time>
      </trkpt>
      <trkpt lat="46.57907" lon="-1.83248">
        <ele>9</ele>
        <time>2020-06-03T14:54:59Z</time>
      </trkpt>
      <trkpt lat="46.57909" lon="-1.83253">
        <ele>9</ele>
        <time>2020-06-03T14:55:00Z</time>
      </trkpt>
      <trkpt lat="46.57912" lon="-1.83258">
        <ele>9</ele>
        <time>2020-06-03T14:55:01Z</time>
      </trkpt>
      <trkpt lat="46.57915" lon="-1.83263">
        <ele>9</ele>
        <time>2020-06-03T14:55:02Z</time>
      </trkpt>
      <trkpt lat="46.57918" lon="-1.83268">
        <ele>9</ele>
        <time>2020-06-03T14:55:03Z</time>
      </trkpt>
      <trkpt lat="46.5792" lon="-1.83272">
        <ele>9.1</ele>
        <time>2020-06-03T14:55:04Z</time>
      </trkpt>
      <trkpt lat="46.57922" lon="-1.83276">
        <ele>9.1</ele>
        <time>2020-06-03T14:55:05Z</time>
      </trkpt>
      <trkpt lat="46.57923" lon="-1.83283">
        <ele>9.1</ele>
        <time>2020-06-03T14:55:06Z</time>
      </trkpt>
      <trkpt lat="46.57925" lon="-1.8329">
        <ele>9.1</ele>
        <time>2020-06-03T14:55:07Z</time>
      </trkpt>
      <trkpt lat="46.57927" lon="-1.83298">
        <ele>9.2</ele>
        <time>2020-06-03T14:55:08Z</time>
      </trkpt>
      <trkpt lat="46.57929" lon="-1.83307">
        <ele>9.3</ele>
        <time>2020-06-03T14:55:09Z</time>
      </trkpt>
      <trkpt lat="46.57931" lon="-1.83317">
        <ele>9.4</ele>
        <time>2020-06-03T14:55:10Z</time>
      </trkpt>
      <trkpt lat="46.57932" lon="-1.83327">
        <ele>9.6</ele>
        <time>2020-06-03T14:55:11Z</time>
      </trkpt>
      <trkpt lat="46.57933" lon="-1.83334">
        <ele>9.7</ele>
        <time>2020-06-03T14:55:12Z</time>
      </trkpt>
      <trkpt lat="46.57934" lon="-1.83341">
        <ele>9.9</ele>
        <time>2020-06-03T14:55:13Z</time>
      </trkpt>
      <trkpt lat="46.57936" lon="-1.83348">
        <ele>10</ele>
        <time>2020-06-03T14:55:14Z</time>
      </trkpt>
      <trkpt lat="46.57939" lon="-1.83356">
        <ele>10.2</ele>
        <time>2020-06-03T14:55:15Z</time>
      </trkpt>
      <trkpt lat="46.57941" lon="-1.83362">
        <ele>10.3</ele>
        <time>2020-06-03T14:55:16Z</time>
      </trkpt>
      <trkpt lat="46.57943" lon="-1.83366">
        <ele>10.4</ele>
        <time>2020-06-03T14:55:17Z</time>
      </trkpt>
      <trkpt lat="46.57944" lon="-1.83371">
        <ele>10.5</ele>
        <time>2020-06-03T14:55:18Z</time>
      </trkpt>
      <trkpt lat="46.57945" lon="-1.83373">
        <ele>10.5</ele>
        <time>2020-06-03T14:55:19Z</time>
      </trkpt>
      <trkpt lat="46.57947" lon="-1.83376">
        <ele>10.6</ele>
        <time>2020-06-03T14:55:20Z</time>
      </trkpt>
      <trkpt lat="46.5795" lon="-1.83379">
        <ele>10.6</ele>
        <time>2020-06-03T14:55:21Z</time>
      </trkpt>
      <trkpt lat="46.57951" lon="-1.83381">
        <ele>10.6</ele>
        <time>2020-06-03T14:55:22Z</time>
      </trkpt>
      <trkpt lat="46.57954" lon="-1.83384">
        <ele>10.7</ele>
        <time>2020-06-03T14:55:23Z</time>
      </trkpt>
      <trkpt lat="46.57956" lon="-1.83387">
        <ele>10.8</ele>
        <time>2020-06-03T14:55:24Z</time>
      </trkpt>
      <trkpt lat="46.57959" lon="-1.83391">
        <ele>10.8</ele>
        <time>2020-06-03T14:55:25Z</time>
      </trkpt>
      <trkpt lat="46.5796" lon="-1.83393">
        <ele>10.8</ele>
        <time>2020-06-03T14:55:26Z</time>
      </trkpt>
      <trkpt lat="46.57963" lon="-1.83396">
        <ele>10.8</ele>
        <time>2020-06-03T14:55:27Z</time>
      </trkpt>
      <trkpt lat="46.57966" lon="-1.83399">
        <ele>10.7</ele>
        <time>2020-06-03T14:55:28Z</time>
      </trkpt>
      <trkpt lat="46.57969" lon="-1.83402">
        <ele>10.7</ele>
        <time>2020-06-03T14:55:29Z</time>
      </trkpt>
      <trkpt lat="46.57971" lon="-1.83405">
        <ele>10.6</ele>
        <time>2020-06-03T14:55:30Z</time>
      </trkpt>
      <trkpt lat="46.57973" lon="-1.83409">
        <ele>10.6</ele>
        <time>2020-06-03T14:55:31Z</time>
      </trkpt>
      <trkpt lat="46.57975" lon="-1.83413">
        <ele>10.5</ele>
        <time>2020-06-03T14:55:32Z</time>
      </trkpt>
      <trkpt lat="46.57977" lon="-1.83417">
        <ele>10.5</ele>
        <time>2020-06-03T14:55:33Z</time>
      </trkpt>
      <trkpt lat="46.5798" lon="-1.83421">
        <ele>10.4</ele>
        <time>2020-06-03T14:55:34Z</time>
      </trkpt>
      <trkpt lat="46.57982" lon="-1.83425">
        <ele>10.3</ele>
        <time>2020-06-03T14:55:35Z</time>
      </trkpt>
      <trkpt lat="46.57985" lon="-1.83429">
        <ele>10.3</ele>
        <time>2020-06-03T14:55:36Z</time>
      </trkpt>
      <trkpt lat="46.57988" lon="-1.83434">
        <ele>10.2</ele>
        <time>2020-06-03T14:55:37Z</time>
      </trkpt>
      <trkpt lat="46.57991" lon="-1.8344">
        <ele>10.1</ele>
        <time>2020-06-03T14:55:38Z</time>
      </trkpt>
      <trkpt lat="46.57994" lon="-1.83447">
        <ele>10</ele>
        <time>2020-06-03T14:55:39Z</time>
      </trkpt>
      <trkpt lat="46.57997" lon="-1.83454">
        <ele>10</ele>
        <time>2020-06-03T14:55:40Z</time>
      </trkpt>
      <trkpt lat="46.57999" lon="-1.83461">
        <ele>10</ele>
        <time>2020-06-03T14:55:41Z</time>
      </trkpt>
      <trkpt lat="46.58001" lon="-1.83467">
        <ele>10</ele>
        <time>2020-06-03T14:55:42Z</time>
      </trkpt>
      <trkpt lat="46.58003" lon="-1.83473">
        <ele>9.9</ele>
        <time>2020-06-03T14:55:43Z</time>
      </trkpt>
      <trkpt lat="46.58006" lon="-1.8348">
        <ele>9.9</ele>
        <time>2020-06-03T14:55:44Z</time>
      </trkpt>
      <trkpt lat="46.58009" lon="-1.83487">
        <ele>9.9</ele>
        <time>2020-06-03T14:55:45Z</time>
      </trkpt>
      <trkpt lat="46.5801" lon="-1.83493">
        <ele>9.8</ele>
        <time>2020-06-03T14:55:46Z</time>
      </trkpt>
      <trkpt lat="46.58012" lon="-1.83498">
        <ele>9.8</ele>
        <time>2020-06-03T14:55:47Z</time>
      </trkpt>
      <trkpt lat="46.58014" lon="-1.83505">
        <ele>9.7</ele>
        <time>2020-06-03T14:55:48Z</time>
      </trkpt>
      <trkpt lat="46.58016" lon="-1.83512">
        <ele>9.7</ele>
        <time>2020-06-03T14:55:49Z</time>
      </trkpt>
      <trkpt lat="46.58017" lon="-1.8352">
        <ele>9.6</ele>
        <time>2020-06-03T14:55:50Z</time>
      </trkpt>
      <trkpt lat="46.58019" lon="-1.83528">
        <ele>9.6</ele>
        <time>2020-06-03T14:55:51Z</time>
      </trkpt>
      <trkpt lat="46.58021" lon="-1.83534">
        <ele>9.5</ele>
        <time>2020-06-03T14:55:52Z</time>
      </trkpt>
      <trkpt lat="46.58023" lon="-1.8354">
        <ele>9.5</ele>
        <time>2020-06-03T14:55:53Z</time>
      </trkpt>
      <trkpt lat="46.58025" lon="-1.83546">
        <ele>9.5</ele>
        <time>2020-06-03T14:55:54Z</time>
      </trkpt>
      <trkpt lat="46.58028" lon="-1.83552">
        <ele>9.5</ele>
        <time>2020-06-03T14:55:55Z</time>
      </trkpt>
      <trkpt lat="46.58031" lon="-1.83558">
        <ele>9.5</ele>
        <time>2020-06-03T14:55:56Z</time>
      </trkpt>
      <trkpt lat="46.58033" lon="-1.83564">
        <ele>9.5</ele>
        <time>2020-06-03T14:55:57Z</time>
      </trkpt>
      <trkpt lat="46.58035" lon="-1.8357">
        <ele>9.4</ele>
        <time>2020-06-03T14:55:58Z</time>
      </trkpt>
      <trkpt lat="46.58037" lon="-1.83576">
        <ele>9.4</ele>
        <time>2020-06-03T14:55:59Z</time>
      </trkpt>
      <trkpt lat="46.58038" lon="-1.83582">
        <ele>9.4</ele>
        <time>2020-06-03T14:56:00Z</time>
      </trkpt>
      <trkpt lat="46.5804" lon="-1.83589">
        <ele>9.4</ele>
        <time>2020-06-03T14:56:01Z</time>
      </trkpt>
      <trkpt lat="46.58042" lon="-1.83596">
        <ele>9.4</ele>
        <time>2020-06-03T14:56:02Z</time>
      </trkpt>
      <trkpt lat="46.58044" lon="-1.83602">
        <ele>9.4</ele>
        <time>2020-06-03T14:56:03Z</time>
      </trkpt>
      <trkpt lat="46.58045" lon="-1.83608">
        <ele>9.4</ele>
        <time>2020-06-03T14:56:04Z</time>
      </trkpt>
      <trkpt lat="46.58046" lon="-1.83615">
        <ele>9.4</ele>
        <time>2020-06-03T14:56:05Z</time>
      </trkpt>
      <trkpt lat="46.58048" lon="-1.8362">
        <ele>9.4</ele>
        <time>2020-06-03T14:56:06Z</time>
      </trkpt>
      <trkpt lat="46.5805" lon="-1.83624">
        <ele>9.4</ele>
        <time>2020-06-03T14:56:07Z</time>
      </trkpt>
      <trkpt lat="46.58052" lon="-1.83629">
        <ele>9.4</ele>
        <time>2020-06-03T14:56:08Z</time>
      </trkpt>
      <trkpt lat="46.58053" lon="-1.83633">
        <ele>9.4</ele>
        <time>2020-06-03T14:56:09Z</time>
      </trkpt>
      <trkpt lat="46.58056" lon="-1.83639">
        <ele>9.4</ele>
        <time>2020-06-03T14:56:10Z</time>
      </trkpt>
      <trkpt lat="46.58058" lon="-1.83645">
        <ele>9.4</ele>
        <time>2020-06-03T14:56:11Z</time>
      </trkpt>
      <trkpt lat="46.58061" lon="-1.83651">
        <ele>9.4</ele>
        <time>2020-06-03T14:56:12Z</time>
      </trkpt>
      <trkpt lat="46.58064" lon="-1.83656">
        <ele>9.4</ele>
        <time>2020-06-03T14:56:13Z</time>
      </trkpt>
      <trkpt lat="46.58066" lon="-1.83663">
        <ele>9.4</ele>
        <time>2020-06-03T14:56:14Z</time>
      </trkpt>
      <trkpt lat="46.58068" lon="-1.8367">
        <ele>9.3</ele>
        <time>2020-06-03T14:56:15Z</time>
      </trkpt>
      <trkpt lat="46.58071" lon="-1.83676">
        <ele>9.3</ele>
        <time>2020-06-03T14:56:16Z</time>
      </trkpt>
      <trkpt lat="46.58073" lon="-1.83682">
        <ele>9.2</ele>
        <time>2020-06-03T14:56:17Z</time>
      </trkpt>
      <trkpt lat="46.58076" lon="-1.83687">
        <ele>9.2</ele>
        <time>2020-06-03T14:56:18Z</time>
      </trkpt>
      <trkpt lat="46.58079" lon="-1.83692">
        <ele>9.1</ele>
        <time>2020-06-03T14:56:19Z</time>
      </trkpt>
      <trkpt lat="46.58083" lon="-1.83697">
        <ele>9</ele>
        <time>2020-06-03T14:56:20Z</time>
      </trkpt>
      <trkpt lat="46.58085" lon="-1.83703">
        <ele>8.9</ele>
        <time>2020-06-03T14:56:21Z</time>
      </trkpt>
      <trkpt lat="46.58089" lon="-1.83706">
        <ele>8.9</ele>
        <time>2020-06-03T14:56:22Z</time>
      </trkpt>
      <trkpt lat="46.58091" lon="-1.8371">
        <ele>8.8</ele>
        <time>2020-06-03T14:56:23Z</time>
      </trkpt>
      <trkpt lat="46.58094" lon="-1.83714">
        <ele>8.7</ele>
        <time>2020-06-03T14:56:24Z</time>
      </trkpt>
      <trkpt lat="46.58095" lon="-1.83718">
        <ele>8.6</ele>
        <time>2020-06-03T14:56:25Z</time>
      </trkpt>
      <trkpt lat="46.58097" lon="-1.83722">
        <ele>8.5</ele>
        <time>2020-06-03T14:56:26Z</time>
      </trkpt>
      <trkpt lat="46.58099" lon="-1.83723">
        <ele>8.4</ele>
        <time>2020-06-03T14:56:27Z</time>
      </trkpt>
      <trkpt lat="46.581" lon="-1.83724">
        <ele>8.3</ele>
        <time>2020-06-03T14:56:28Z</time>
      </trkpt>
      <trkpt lat="46.58102" lon="-1.83722">
        <ele>8.2</ele>
        <time>2020-06-03T14:56:29Z</time>
      </trkpt>
      <trkpt lat="46.58103" lon="-1.83721">
        <ele>8.1</ele>
        <time>2020-06-03T14:56:30Z</time>
      </trkpt>
      <trkpt lat="46.58107" lon="-1.83718">
        <ele>7.9</ele>
        <time>2020-06-03T14:56:31Z</time>
      </trkpt>
      <trkpt lat="46.58111" lon="-1.83716">
        <ele>7.7</ele>
        <time>2020-06-03T14:56:32Z</time>
      </trkpt>
      <trkpt lat="46.58117" lon="-1.83715">
        <ele>7.3</ele>
        <time>2020-06-03T14:56:33Z</time>
      </trkpt>
      <trkpt lat="46.58125" lon="-1.83714">
        <ele>7</ele>
        <time>2020-06-03T14:56:34Z</time>
      </trkpt>
      <trkpt lat="46.58133" lon="-1.83713">
        <ele>6.7</ele>
        <time>2020-06-03T14:56:35Z</time>
      </trkpt>
      <trkpt lat="46.58142" lon="-1.83713">
        <ele>6.5</ele>
        <time>2020-06-03T14:56:36Z</time>
      </trkpt>
      <trkpt lat="46.5815" lon="-1.83714">
        <ele>6.5</ele>
        <time>2020-06-03T14:56:37Z</time>
      </trkpt>
      <trkpt lat="46.58158" lon="-1.83715">
        <ele>6.6</ele>
        <time>2020-06-03T14:56:38Z</time>
      </trkpt>
      <trkpt lat="46.58164" lon="-1.83714">
        <ele>6.8</ele>
        <time>2020-06-03T14:56:39Z</time>
      </trkpt>
      <trkpt lat="46.58171" lon="-1.83715">
        <ele>7</ele>
        <time>2020-06-03T14:56:40Z</time>
      </trkpt>
      <trkpt lat="46.58178" lon="-1.83716">
        <ele>7.2</ele>
        <time>2020-06-03T14:56:41Z</time>
      </trkpt>
      <trkpt lat="46.58185" lon="-1.83716">
        <ele>7.3</ele>
        <time>2020-06-03T14:56:42Z</time>
      </trkpt>
      <trkpt lat="46.58191" lon="-1.83717">
        <ele>7.5</ele>
        <time>2020-06-03T14:56:43Z</time>
      </trkpt>
      <trkpt lat="46.58197" lon="-1.83717">
        <ele>7.5</ele>
        <time>2020-06-03T14:56:44Z</time>
      </trkpt>
      <trkpt lat="46.58203" lon="-1.83718">
        <ele>7.5</ele>
        <time>2020-06-03T14:56:45Z</time>
      </trkpt>
      <trkpt lat="46.58207" lon="-1.83718">
        <ele>7.4</ele>
        <time>2020-06-03T14:56:46Z</time>
      </trkpt>
      <trkpt lat="46.58212" lon="-1.83719">
        <ele>7.2</ele>
        <time>2020-06-03T14:56:47Z</time>
      </trkpt>
      <trkpt lat="46.58217" lon="-1.8372">
        <ele>7</ele>
        <time>2020-06-03T14:56:48Z</time>
      </trkpt>
      <trkpt lat="46.58222" lon="-1.83723">
        <ele>6.7</ele>
        <time>2020-06-03T14:56:49Z</time>
      </trkpt>
      <trkpt lat="46.58228" lon="-1.83727">
        <ele>6.4</ele>
        <time>2020-06-03T14:56:50Z</time>
      </trkpt>
      <trkpt lat="46.58234" lon="-1.83734">
        <ele>6.1</ele>
        <time>2020-06-03T14:56:51Z</time>
      </trkpt>
      <trkpt lat="46.58238" lon="-1.83742">
        <ele>5.9</ele>
        <time>2020-06-03T14:56:52Z</time>
      </trkpt>
      <trkpt lat="46.58242" lon="-1.83751">
        <ele>5.7</ele>
        <time>2020-06-03T14:56:53Z</time>
      </trkpt>
      <trkpt lat="46.58244" lon="-1.83759">
        <ele>5.6</ele>
        <time>2020-06-03T14:56:54Z</time>
      </trkpt>
      <trkpt lat="46.58246" lon="-1.83765">
        <ele>5.5</ele>
        <time>2020-06-03T14:56:55Z</time>
      </trkpt>
      <trkpt lat="46.5825" lon="-1.83772">
        <ele>5.5</ele>
        <time>2020-06-03T14:56:56Z</time>
      </trkpt>
      <trkpt lat="46.58253" lon="-1.83776">
        <ele>5.5</ele>
        <time>2020-06-03T14:56:57Z</time>
      </trkpt>
      <trkpt lat="46.58257" lon="-1.8378">
        <ele>5.5</ele>
        <time>2020-06-03T14:56:58Z</time>
      </trkpt>
      <trkpt lat="46.5826" lon="-1.83781">
        <ele>5.5</ele>
        <time>2020-06-03T14:56:59Z</time>
      </trkpt>
      <trkpt lat="46.58264" lon="-1.83781">
        <ele>5.5</ele>
        <time>2020-06-03T14:57:00Z</time>
      </trkpt>
      <trkpt lat="46.58267" lon="-1.83781">
        <ele>5.5</ele>
        <time>2020-06-03T14:57:01Z</time>
      </trkpt>
      <trkpt lat="46.58271" lon="-1.8378">
        <ele>5.5</ele>
        <time>2020-06-03T14:57:02Z</time>
      </trkpt>
      <trkpt lat="46.58272" lon="-1.83779">
        <ele>5.5</ele>
        <time>2020-06-03T14:57:03Z</time>
      </trkpt>
      <trkpt lat="46.58275" lon="-1.83777">
        <ele>5.5</ele>
        <time>2020-06-03T14:57:04Z</time>
      </trkpt>
      <trkpt lat="46.58279" lon="-1.83775">
        <ele>5.5</ele>
        <time>2020-06-03T14:57:05Z</time>
      </trkpt>
      <trkpt lat="46.58284" lon="-1.83773">
        <ele>5.5</ele>
        <time>2020-06-03T14:57:06Z</time>
      </trkpt>
      <trkpt lat="46.5829" lon="-1.8377">
        <ele>5.6</ele>
        <time>2020-06-03T14:57:07Z</time>
      </trkpt>
      <trkpt lat="46.58296" lon="-1.83766">
        <ele>5.6</ele>
        <time>2020-06-03T14:57:08Z</time>
      </trkpt>
      <trkpt lat="46.58301" lon="-1.83765">
        <ele>5.7</ele>
        <time>2020-06-03T14:57:09Z</time>
      </trkpt>
      <trkpt lat="46.58305" lon="-1.83764">
        <ele>5.7</ele>
        <time>2020-06-03T14:57:10Z</time>
      </trkpt>
      <trkpt lat="46.58309" lon="-1.83765">
        <ele>5.7</ele>
        <time>2020-06-03T14:57:11Z</time>
      </trkpt>
      <trkpt lat="46.58312" lon="-1.83766">
        <ele>5.7</ele>
        <time>2020-06-03T14:57:12Z</time>
      </trkpt>
      <trkpt lat="46.58315" lon="-1.83767">
        <ele>5.8</ele>
        <time>2020-06-03T14:57:13Z</time>
      </trkpt>
      <trkpt lat="46.5832" lon="-1.83767">
        <ele>5.8</ele>
        <time>2020-06-03T14:57:14Z</time>
      </trkpt>
      <trkpt lat="46.58324" lon="-1.83768">
        <ele>5.8</ele>
        <time>2020-06-03T14:57:15Z</time>
      </trkpt>
      <trkpt lat="46.58328" lon="-1.83768">
        <ele>5.8</ele>
        <time>2020-06-03T14:57:16Z</time>
      </trkpt>
      <trkpt lat="46.58335" lon="-1.83768">
        <ele>5.8</ele>
        <time>2020-06-03T14:57:17Z</time>
      </trkpt>
      <trkpt lat="46.5834" lon="-1.83768">
        <ele>5.8</ele>
        <time>2020-06-03T14:57:18Z</time>
      </trkpt>
      <trkpt lat="46.58346" lon="-1.83769">
        <ele>5.8</ele>
        <time>2020-06-03T14:57:19Z</time>
      </trkpt>
      <trkpt lat="46.58351" lon="-1.83771">
        <ele>5.8</ele>
        <time>2020-06-03T14:57:20Z</time>
      </trkpt>
      <trkpt lat="46.58356" lon="-1.83775">
        <ele>5.8</ele>
        <time>2020-06-03T14:57:21Z</time>
      </trkpt>
      <trkpt lat="46.5836" lon="-1.83779">
        <ele>5.8</ele>
        <time>2020-06-03T14:57:22Z</time>
      </trkpt>
      <trkpt lat="46.58364" lon="-1.83783">
        <ele>5.8</ele>
        <time>2020-06-03T14:57:23Z</time>
      </trkpt>
      <trkpt lat="46.58368" lon="-1.83787">
        <ele>5.7</ele>
        <time>2020-06-03T14:57:24Z</time>
      </trkpt>
      <trkpt lat="46.58373" lon="-1.8379">
        <ele>5.7</ele>
        <time>2020-06-03T14:57:25Z</time>
      </trkpt>
      <trkpt lat="46.58377" lon="-1.83793">
        <ele>5.7</ele>
        <time>2020-06-03T14:57:26Z</time>
      </trkpt>
      <trkpt lat="46.58381" lon="-1.83798">
        <ele>5.6</ele>
        <time>2020-06-03T14:57:27Z</time>
      </trkpt>
      <trkpt lat="46.58384" lon="-1.83803">
        <ele>5.6</ele>
        <time>2020-06-03T14:57:28Z</time>
      </trkpt>
      <trkpt lat="46.58387" lon="-1.83808">
        <ele>5.5</ele>
        <time>2020-06-03T14:57:29Z</time>
      </trkpt>
      <trkpt lat="46.58391" lon="-1.83815">
        <ele>5.5</ele>
        <time>2020-06-03T14:57:30Z</time>
      </trkpt>
      <trkpt lat="46.58394" lon="-1.83819">
        <ele>5.4</ele>
        <time>2020-06-03T14:57:31Z</time>
      </trkpt>
      <trkpt lat="46.58397" lon="-1.83824">
        <ele>5.4</ele>
        <time>2020-06-03T14:57:32Z</time>
      </trkpt>
      <trkpt lat="46.584" lon="-1.83826">
        <ele>5.3</ele>
        <time>2020-06-03T14:57:33Z</time>
      </trkpt>
      <trkpt lat="46.58404" lon="-1.83829">
        <ele>5.3</ele>
        <time>2020-06-03T14:57:34Z</time>
      </trkpt>
      <trkpt lat="46.58405" lon="-1.83834">
        <ele>5.3</ele>
        <time>2020-06-03T14:57:35Z</time>
      </trkpt>
      <trkpt lat="46.58408" lon="-1.8384">
        <ele>5.3</ele>
        <time>2020-06-03T14:57:36Z</time>
      </trkpt>
      <trkpt lat="46.5841" lon="-1.83845">
        <ele>5.3</ele>
        <time>2020-06-03T14:57:37Z</time>
      </trkpt>
      <trkpt lat="46.58412" lon="-1.83849">
        <ele>5.3</ele>
        <time>2020-06-03T14:57:38Z</time>
      </trkpt>
      <trkpt lat="46.58413" lon="-1.83854">
        <ele>5.2</ele>
        <time>2020-06-03T14:57:39Z</time>
      </trkpt>
      <trkpt lat="46.58415" lon="-1.83859">
        <ele>5.2</ele>
        <time>2020-06-03T14:57:40Z</time>
      </trkpt>
      <trkpt lat="46.58417" lon="-1.83863">
        <ele>5.2</ele>
        <time>2020-06-03T14:57:41Z</time>
      </trkpt>
      <trkpt lat="46.5842" lon="-1.83868">
        <ele>5.2</ele>
        <time>2020-06-03T14:57:42Z</time>
      </trkpt>
      <trkpt lat="46.58422" lon="-1.83873">
        <ele>5.2</ele>
        <time>2020-06-03T14:57:43Z</time>
      </trkpt>
      <trkpt lat="46.58426" lon="-1.83878">
        <ele>5.2</ele>
        <time>2020-06-03T14:57:44Z</time>
      </trkpt>
      <trkpt lat="46.5843" lon="-1.83885">
        <ele>5.1</ele>
        <time>2020-06-03T14:57:45Z</time>
      </trkpt>
      <trkpt lat="46.58433" lon="-1.83892">
        <ele>5.1</ele>
        <time>2020-06-03T14:57:46Z</time>
      </trkpt>
      <trkpt lat="46.58436" lon="-1.83898">
        <ele>5</ele>
        <time>2020-06-03T14:57:47Z</time>
      </trkpt>
      <trkpt lat="46.58438" lon="-1.83903">
        <ele>5</ele>
        <time>2020-06-03T14:57:48Z</time>
      </trkpt>
      <trkpt lat="46.58441" lon="-1.83905">
        <ele>5</ele>
        <time>2020-06-03T14:57:49Z</time>
      </trkpt>
      <trkpt lat="46.58444" lon="-1.83909">
        <ele>4.9</ele>
        <time>2020-06-03T14:57:50Z</time>
      </trkpt>
      <trkpt lat="46.58448" lon="-1.83912">
        <ele>4.9</ele>
        <time>2020-06-03T14:57:51Z</time>
      </trkpt>
      <trkpt lat="46.58453" lon="-1.83915">
        <ele>4.9</ele>
        <time>2020-06-03T14:57:52Z</time>
      </trkpt>
      <trkpt lat="46.58458" lon="-1.83919">
        <ele>4.8</ele>
        <time>2020-06-03T14:57:53Z</time>
      </trkpt>
      <trkpt lat="46.58464" lon="-1.83923">
        <ele>4.8</ele>
        <time>2020-06-03T14:57:54Z</time>
      </trkpt>
      <trkpt lat="46.58469" lon="-1.83927">
        <ele>4.8</ele>
        <time>2020-06-03T14:57:55Z</time>
      </trkpt>
      <trkpt lat="46.58474" lon="-1.8393">
        <ele>4.8</ele>
        <time>2020-06-03T14:57:56Z</time>
      </trkpt>
      <trkpt lat="46.58479" lon="-1.83933">
        <ele>4.8</ele>
        <time>2020-06-03T14:57:57Z</time>
      </trkpt>
      <trkpt lat="46.58484" lon="-1.83934">
        <ele>4.8</ele>
        <time>2020-06-03T14:57:58Z</time>
      </trkpt>
      <trkpt lat="46.5849" lon="-1.83936">
        <ele>4.8</ele>
        <time>2020-06-03T14:57:59Z</time>
      </trkpt>
      <trkpt lat="46.58495" lon="-1.83938">
        <ele>4.8</ele>
        <time>2020-06-03T14:58:00Z</time>
      </trkpt>
      <trkpt lat="46.585" lon="-1.8394">
        <ele>4.8</ele>
        <time>2020-06-03T14:58:01Z</time>
      </trkpt>
      <trkpt lat="46.58505" lon="-1.83941">
        <ele>4.8</ele>
        <time>2020-06-03T14:58:02Z</time>
      </trkpt>
      <trkpt lat="46.5851" lon="-1.83943">
        <ele>4.7</ele>
        <time>2020-06-03T14:58:03Z</time>
      </trkpt>
      <trkpt lat="46.58515" lon="-1.83944">
        <ele>4.7</ele>
        <time>2020-06-03T14:58:04Z</time>
      </trkpt>
      <trkpt lat="46.58518" lon="-1.83945">
        <ele>4.7</ele>
        <time>2020-06-03T14:58:05Z</time>
      </trkpt>
      <trkpt lat="46.58521" lon="-1.83947">
        <ele>4.7</ele>
        <time>2020-06-03T14:58:06Z</time>
      </trkpt>
      <trkpt lat="46.58524" lon="-1.83948">
        <ele>4.7</ele>
        <time>2020-06-03T14:58:07Z</time>
      </trkpt>
      <trkpt lat="46.58527" lon="-1.8395">
        <ele>4.7</ele>
        <time>2020-06-03T14:58:08Z</time>
      </trkpt>
      <trkpt lat="46.5853" lon="-1.83951">
        <ele>4.7</ele>
        <time>2020-06-03T14:58:09Z</time>
      </trkpt>
      <trkpt lat="46.58536" lon="-1.83951">
        <ele>4.7</ele>
        <time>2020-06-03T14:58:10Z</time>
      </trkpt>
      <trkpt lat="46.5854" lon="-1.8395">
        <ele>4.6</ele>
        <time>2020-06-03T14:58:11Z</time>
      </trkpt>
      <trkpt lat="46.58544" lon="-1.8395">
        <ele>4.6</ele>
        <time>2020-06-03T14:58:12Z</time>
      </trkpt>
      <trkpt lat="46.58549" lon="-1.83949">
        <ele>4.5</ele>
        <time>2020-06-03T14:58:13Z</time>
      </trkpt>
      <trkpt lat="46.58555" lon="-1.83948">
        <ele>4.4</ele>
        <time>2020-06-03T14:58:14Z</time>
      </trkpt>
      <trkpt lat="46.58561" lon="-1.83948">
        <ele>4.3</ele>
        <time>2020-06-03T14:58:15Z</time>
      </trkpt>
      <trkpt lat="46.58567" lon="-1.83947">
        <ele>4.2</ele>
        <time>2020-06-03T14:58:16Z</time>
      </trkpt>
      <trkpt lat="46.58572" lon="-1.83946">
        <ele>4.1</ele>
        <time>2020-06-03T14:58:17Z</time>
      </trkpt>
      <trkpt lat="46.58577" lon="-1.83944">
        <ele>4.1</ele>
        <time>2020-06-03T14:58:18Z</time>
      </trkpt>
      <trkpt lat="46.58583" lon="-1.83942">
        <ele>4</ele>
        <time>2020-06-03T14:58:19Z</time>
      </trkpt>
      <trkpt lat="46.58589" lon="-1.83939">
        <ele>4</ele>
        <time>2020-06-03T14:58:20Z</time>
      </trkpt>
      <trkpt lat="46.58594" lon="-1.83935">
        <ele>4</ele>
        <time>2020-06-03T14:58:21Z</time>
      </trkpt>
      <trkpt lat="46.58598" lon="-1.83932">
        <ele>4</ele>
        <time>2020-06-03T14:58:22Z</time>
      </trkpt>
      <trkpt lat="46.58601" lon="-1.8393">
        <ele>4</ele>
        <time>2020-06-03T14:58:23Z</time>
      </trkpt>
      <trkpt lat="46.58603" lon="-1.83928">
        <ele>4</ele>
        <time>2020-06-03T14:58:24Z</time>
      </trkpt>
      <trkpt lat="46.58607" lon="-1.83926">
        <ele>4</ele>
        <time>2020-06-03T14:58:25Z</time>
      </trkpt>
      <trkpt lat="46.5861" lon="-1.83924">
        <ele>4</ele>
        <time>2020-06-03T14:58:26Z</time>
      </trkpt>
      <trkpt lat="46.58611" lon="-1.83923">
        <ele>4</ele>
        <time>2020-06-03T14:58:27Z</time>
      </trkpt>
      <trkpt lat="46.58614" lon="-1.83922">
        <ele>4</ele>
        <time>2020-06-03T14:58:28Z</time>
      </trkpt>
      <trkpt lat="46.58617" lon="-1.8392">
        <ele>4</ele>
        <time>2020-06-03T14:58:29Z</time>
      </trkpt>
      <trkpt lat="46.5862" lon="-1.83918">
        <ele>4</ele>
        <time>2020-06-03T14:58:30Z</time>
      </trkpt>
      <trkpt lat="46.58624" lon="-1.83915">
        <ele>4</ele>
        <time>2020-06-03T14:58:31Z</time>
      </trkpt>
      <trkpt lat="46.58627" lon="-1.83911">
        <ele>4</ele>
        <time>2020-06-03T14:58:32Z</time>
      </trkpt>
      <trkpt lat="46.58631" lon="-1.83909">
        <ele>4</ele>
        <time>2020-06-03T14:58:33Z</time>
      </trkpt>
      <trkpt lat="46.58634" lon="-1.83908">
        <ele>4</ele>
        <time>2020-06-03T14:58:34Z</time>
      </trkpt>
      <trkpt lat="46.58636" lon="-1.83907">
        <ele>4</ele>
        <time>2020-06-03T14:58:35Z</time>
      </trkpt>
      <trkpt lat="46.58638" lon="-1.83905">
        <ele>4</ele>
        <time>2020-06-03T14:58:36Z</time>
      </trkpt>
      <trkpt lat="46.5864" lon="-1.83904">
        <ele>3.9</ele>
        <time>2020-06-03T14:58:37Z</time>
      </trkpt>
      <trkpt lat="46.58642" lon="-1.83903">
        <ele>3.9</ele>
        <time>2020-06-03T14:58:38Z</time>
      </trkpt>
      <trkpt lat="46.58646" lon="-1.83901">
        <ele>3.9</ele>
        <time>2020-06-03T14:58:39Z</time>
      </trkpt>
      <trkpt lat="46.58649" lon="-1.839">
        <ele>3.9</ele>
        <time>2020-06-03T14:58:40Z</time>
      </trkpt>
      <trkpt lat="46.58654" lon="-1.83898">
        <ele>3.9</ele>
        <time>2020-06-03T14:58:41Z</time>
      </trkpt>
      <trkpt lat="46.58657" lon="-1.83896">
        <ele>3.9</ele>
        <time>2020-06-03T14:58:42Z</time>
      </trkpt>
      <trkpt lat="46.58661" lon="-1.83894">
        <ele>3.9</ele>
        <time>2020-06-03T14:58:43Z</time>
      </trkpt>
      <trkpt lat="46.58664" lon="-1.83894">
        <ele>3.8</ele>
        <time>2020-06-03T14:58:44Z</time>
      </trkpt>
      <trkpt lat="46.58669" lon="-1.83895">
        <ele>3.8</ele>
        <time>2020-06-03T14:58:45Z</time>
      </trkpt>
      <trkpt lat="46.58673" lon="-1.83895">
        <ele>3.8</ele>
        <time>2020-06-03T14:58:46Z</time>
      </trkpt>
      <trkpt lat="46.58678" lon="-1.83893">
        <ele>3.8</ele>
        <time>2020-06-03T14:58:47Z</time>
      </trkpt>
      <trkpt lat="46.58682" lon="-1.83892">
        <ele>3.7</ele>
        <time>2020-06-03T14:58:48Z</time>
      </trkpt>
      <trkpt lat="46.58687" lon="-1.8389">
        <ele>3.7</ele>
        <time>2020-06-03T14:58:49Z</time>
      </trkpt>
      <trkpt lat="46.58691" lon="-1.83888">
        <ele>3.7</ele>
        <time>2020-06-03T14:58:50Z</time>
      </trkpt>
      <trkpt lat="46.58696" lon="-1.83886">
        <ele>3.7</ele>
        <time>2020-06-03T14:58:51Z</time>
      </trkpt>
      <trkpt lat="46.587" lon="-1.83884">
        <ele>3.6</ele>
        <time>2020-06-03T14:58:52Z</time>
      </trkpt>
      <trkpt lat="46.58704" lon="-1.83882">
        <ele>3.6</ele>
        <time>2020-06-03T14:58:53Z</time>
      </trkpt>
      <trkpt lat="46.58709" lon="-1.8388">
        <ele>3.6</ele>
        <time>2020-06-03T14:58:54Z</time>
      </trkpt>
      <trkpt lat="46.58715" lon="-1.83877">
        <ele>3.6</ele>
        <time>2020-06-03T14:58:55Z</time>
      </trkpt>
      <trkpt lat="46.58722" lon="-1.83872">
        <ele>3.6</ele>
        <time>2020-06-03T14:58:56Z</time>
      </trkpt>
      <trkpt lat="46.58729" lon="-1.83868">
        <ele>3.6</ele>
        <time>2020-06-03T14:58:57Z</time>
      </trkpt>
      <trkpt lat="46.58736" lon="-1.83864">
        <ele>3.6</ele>
        <time>2020-06-03T14:58:58Z</time>
      </trkpt>
      <trkpt lat="46.58743" lon="-1.83862">
        <ele>3.6</ele>
        <time>2020-06-03T14:58:59Z</time>
      </trkpt>
      <trkpt lat="46.5875" lon="-1.83859">
        <ele>3.6</ele>
        <time>2020-06-03T14:59:00Z</time>
      </trkpt>
      <trkpt lat="46.58755" lon="-1.83857">
        <ele>3.6</ele>
        <time>2020-06-03T14:59:01Z</time>
      </trkpt>
      <trkpt lat="46.5876" lon="-1.83854">
        <ele>3.6</ele>
        <time>2020-06-03T14:59:02Z</time>
      </trkpt>
      <trkpt lat="46.58766" lon="-1.83852">
        <ele>3.6</ele>
        <time>2020-06-03T14:59:03Z</time>
      </trkpt>
      <trkpt lat="46.58771" lon="-1.8385">
        <ele>3.6</ele>
        <time>2020-06-03T14:59:04Z</time>
      </trkpt>
      <trkpt lat="46.58776" lon="-1.83849">
        <ele>3.6</ele>
        <time>2020-06-03T14:59:05Z</time>
      </trkpt>
      <trkpt lat="46.5878" lon="-1.83848">
        <ele>3.6</ele>
        <time>2020-06-03T14:59:06Z</time>
      </trkpt>
      <trkpt lat="46.58784" lon="-1.83847">
        <ele>3.6</ele>
        <time>2020-06-03T14:59:07Z</time>
      </trkpt>
      <trkpt lat="46.58787" lon="-1.83846">
        <ele>3.6</ele>
        <time>2020-06-03T14:59:08Z</time>
      </trkpt>
      <trkpt lat="46.58791" lon="-1.83845">
        <ele>3.6</ele>
        <time>2020-06-03T14:59:09Z</time>
      </trkpt>
      <trkpt lat="46.58796" lon="-1.83843">
        <ele>3.6</ele>
        <time>2020-06-03T14:59:10Z</time>
      </trkpt>
      <trkpt lat="46.58801" lon="-1.83842">
        <ele>3.6</ele>
        <time>2020-06-03T14:59:11Z</time>
      </trkpt>
      <trkpt lat="46.58808" lon="-1.8384">
        <ele>3.6</ele>
        <time>2020-06-03T14:59:12Z</time>
      </trkpt>
      <trkpt lat="46.58814" lon="-1.83839">
        <ele>3.6</ele>
        <time>2020-06-03T14:59:13Z</time>
      </trkpt>
      <trkpt lat="46.5882" lon="-1.83837">
        <ele>3.6</ele>
        <time>2020-06-03T14:59:14Z</time>
      </trkpt>
      <trkpt lat="46.58829" lon="-1.83835">
        <ele>3.6</ele>
        <time>2020-06-03T14:59:15Z</time>
      </trkpt>
      <trkpt lat="46.58835" lon="-1.83833">
        <ele>3.6</ele>
        <time>2020-06-03T14:59:16Z</time>
      </trkpt>
      <trkpt lat="46.5884" lon="-1.83832">
        <ele>3.6</ele>
        <time>2020-06-03T14:59:17Z</time>
      </trkpt>
      <trkpt lat="46.58844" lon="-1.83828">
        <ele>3.6</ele>
        <time>2020-06-03T14:59:18Z</time>
      </trkpt>
      <trkpt lat="46.58851" lon="-1.83824">
        <ele>3.6</ele>
        <time>2020-06-03T14:59:19Z</time>
      </trkpt>
      <trkpt lat="46.58857" lon="-1.83821">
        <ele>3.6</ele>
        <time>2020-06-03T14:59:20Z</time>
      </trkpt>
      <trkpt lat="46.58862" lon="-1.83818">
        <ele>3.6</ele>
        <time>2020-06-03T14:59:21Z</time>
      </trkpt>
      <trkpt lat="46.58868" lon="-1.83816">
        <ele>3.6</ele>
        <time>2020-06-03T14:59:22Z</time>
      </trkpt>
      <trkpt lat="46.58872" lon="-1.83813">
        <ele>3.6</ele>
        <time>2020-06-03T14:59:23Z</time>
      </trkpt>
      <trkpt lat="46.58879" lon="-1.83812">
        <ele>3.6</ele>
        <time>2020-06-03T14:59:24Z</time>
      </trkpt>
      <trkpt lat="46.58885" lon="-1.8381">
        <ele>3.6</ele>
        <time>2020-06-03T14:59:25Z</time>
      </trkpt>
      <trkpt lat="46.58891" lon="-1.83808">
        <ele>3.7</ele>
        <time>2020-06-03T14:59:26Z</time>
      </trkpt>
      <trkpt lat="46.58895" lon="-1.83805">
        <ele>3.7</ele>
        <time>2020-06-03T14:59:27Z</time>
      </trkpt>
      <trkpt lat="46.58901" lon="-1.83802">
        <ele>3.7</ele>
        <time>2020-06-03T14:59:28Z</time>
      </trkpt>
      <trkpt lat="46.58905" lon="-1.838">
        <ele>3.7</ele>
        <time>2020-06-03T14:59:29Z</time>
      </trkpt>
      <trkpt lat="46.5891" lon="-1.83798">
        <ele>3.7</ele>
        <time>2020-06-03T14:59:30Z</time>
      </trkpt>
      <trkpt lat="46.58914" lon="-1.83795">
        <ele>3.7</ele>
        <time>2020-06-03T14:59:31Z</time>
      </trkpt>
      <trkpt lat="46.58918" lon="-1.83793">
        <ele>3.7</ele>
        <time>2020-06-03T14:59:32Z</time>
      </trkpt>
      <trkpt lat="46.58923" lon="-1.8379">
        <ele>3.7</ele>
        <time>2020-06-03T14:59:33Z</time>
      </trkpt>
      <trkpt lat="46.58927" lon="-1.83788">
        <ele>3.7</ele>
        <time>2020-06-03T14:59:34Z</time>
      </trkpt>
      <trkpt lat="46.58932" lon="-1.83785">
        <ele>3.7</ele>
        <time>2020-06-03T14:59:35Z</time>
      </trkpt>
      <trkpt lat="46.58937" lon="-1.83783">
        <ele>3.7</ele>
        <time>2020-06-03T14:59:36Z</time>
      </trkpt>
      <trkpt lat="46.58943" lon="-1.83781">
        <ele>3.7</ele>
        <time>2020-06-03T14:59:37Z</time>
      </trkpt>
      <trkpt lat="46.58948" lon="-1.83778">
        <ele>3.7</ele>
        <time>2020-06-03T14:59:38Z</time>
      </trkpt>
      <trkpt lat="46.58954" lon="-1.83776">
        <ele>3.6</ele>
        <time>2020-06-03T14:59:39Z</time>
      </trkpt>
      <trkpt lat="46.58959" lon="-1.83774">
        <ele>3.6</ele>
        <time>2020-06-03T14:59:40Z</time>
      </trkpt>
      <trkpt lat="46.58965" lon="-1.83772">
        <ele>3.5</ele>
        <time>2020-06-03T14:59:41Z</time>
      </trkpt>
      <trkpt lat="46.58971" lon="-1.83771">
        <ele>3.4</ele>
        <time>2020-06-03T14:59:42Z</time>
      </trkpt>
      <trkpt lat="46.58976" lon="-1.83769">
        <ele>3.3</ele>
        <time>2020-06-03T14:59:43Z</time>
      </trkpt>
      <trkpt lat="46.58981" lon="-1.83768">
        <ele>3.3</ele>
        <time>2020-06-03T14:59:44Z</time>
      </trkpt>
      <trkpt lat="46.58985" lon="-1.83766">
        <ele>3.2</ele>
        <time>2020-06-03T14:59:45Z</time>
      </trkpt>
      <trkpt lat="46.5899" lon="-1.83764">
        <ele>3.2</ele>
        <time>2020-06-03T14:59:46Z</time>
      </trkpt>
      <trkpt lat="46.58995" lon="-1.83763">
        <ele>3.2</ele>
        <time>2020-06-03T14:59:47Z</time>
      </trkpt>
      <trkpt lat="46.58999" lon="-1.83761">
        <ele>3</ele>
        <time>2020-06-03T14:59:48Z</time>
      </trkpt>
      <trkpt lat="46.59004" lon="-1.83759">
        <ele>3</ele>
        <time>2020-06-03T14:59:49Z</time>
      </trkpt>
      <trkpt lat="46.59009" lon="-1.83756">
        <ele>3</ele>
        <time>2020-06-03T14:59:50Z</time>
      </trkpt>
      <trkpt lat="46.59013" lon="-1.83754">
        <ele>3</ele>
        <time>2020-06-03T14:59:51Z</time>
      </trkpt>
      <trkpt lat="46.59018" lon="-1.83752">
        <ele>3</ele>
        <time>2020-06-03T14:59:52Z</time>
      </trkpt>
      <trkpt lat="46.59022" lon="-1.83749">
        <ele>3</ele>
        <time>2020-06-03T14:59:53Z</time>
      </trkpt>
      <trkpt lat="46.59027" lon="-1.83747">
        <ele>3</ele>
        <time>2020-06-03T14:59:54Z</time>
      </trkpt>
      <trkpt lat="46.59032" lon="-1.83744">
        <ele>3</ele>
        <time>2020-06-03T14:59:55Z</time>
      </trkpt>
      <trkpt lat="46.59037" lon="-1.8374">
        <ele>3</ele>
        <time>2020-06-03T14:59:56Z</time>
      </trkpt>
      <trkpt lat="46.59042" lon="-1.83737">
        <ele>2.9</ele>
        <time>2020-06-03T14:59:57Z</time>
      </trkpt>
      <trkpt lat="46.59046" lon="-1.83732">
        <ele>2.9</ele>
        <time>2020-06-03T14:59:58Z</time>
      </trkpt>
      <trkpt lat="46.5905" lon="-1.83727">
        <ele>2.9</ele>
        <time>2020-06-03T14:59:59Z</time>
      </trkpt>
      <trkpt lat="46.59054" lon="-1.83722">
        <ele>2.9</ele>
        <time>2020-06-03T15:00:00Z</time>
      </trkpt>
      <trkpt lat="46.59057" lon="-1.83715">
        <ele>2.9</ele>
        <time>2020-06-03T15:00:01Z</time>
      </trkpt>
      <trkpt lat="46.5906" lon="-1.8371">
        <ele>2.9</ele>
        <time>2020-06-03T15:00:02Z</time>
      </trkpt>
      <trkpt lat="46.59063" lon="-1.83703">
        <ele>2.9</ele>
        <time>2020-06-03T15:00:03Z</time>
      </trkpt>
      <trkpt lat="46.59066" lon="-1.83696">
        <ele>2.9</ele>
        <time>2020-06-03T15:00:04Z</time>
      </trkpt>
      <trkpt lat="46.59069" lon="-1.8369">
        <ele>2.9</ele>
        <time>2020-06-03T15:00:05Z</time>
      </trkpt>
      <trkpt lat="46.59072" lon="-1.83684">
        <ele>2.8</ele>
        <time>2020-06-03T15:00:06Z</time>
      </trkpt>
      <trkpt lat="46.59076" lon="-1.83677">
        <ele>2.8</ele>
        <time>2020-06-03T15:00:07Z</time>
      </trkpt>
      <trkpt lat="46.5908" lon="-1.83671">
        <ele>2.8</ele>
        <time>2020-06-03T15:00:08Z</time>
      </trkpt>
      <trkpt lat="46.59084" lon="-1.83665">
        <ele>2.8</ele>
        <time>2020-06-03T15:00:09Z</time>
      </trkpt>
      <trkpt lat="46.59087" lon="-1.83657">
        <ele>2.8</ele>
        <time>2020-06-03T15:00:10Z</time>
      </trkpt>
      <trkpt lat="46.59091" lon="-1.8365">
        <ele>2.8</ele>
        <time>2020-06-03T15:00:11Z</time>
      </trkpt>
      <trkpt lat="46.59095" lon="-1.83642">
        <ele>2.8</ele>
        <time>2020-06-03T15:00:12Z</time>
      </trkpt>
      <trkpt lat="46.59099" lon="-1.83635">
        <ele>2.8</ele>
        <time>2020-06-03T15:00:13Z</time>
      </trkpt>
      <trkpt lat="46.59102" lon="-1.83628">
        <ele>2.8</ele>
        <time>2020-06-03T15:00:14Z</time>
      </trkpt>
      <trkpt lat="46.59106" lon="-1.83622">
        <ele>2.8</ele>
        <time>2020-06-03T15:00:15Z</time>
      </trkpt>
      <trkpt lat="46.59109" lon="-1.83616">
        <ele>2.8</ele>
        <time>2020-06-03T15:00:16Z</time>
      </trkpt>
      <trkpt lat="46.59113" lon="-1.83611">
        <ele>2.8</ele>
        <time>2020-06-03T15:00:17Z</time>
      </trkpt>
      <trkpt lat="46.59116" lon="-1.83604">
        <ele>2.8</ele>
        <time>2020-06-03T15:00:18Z</time>
      </trkpt>
      <trkpt lat="46.5912" lon="-1.83598">
        <ele>2.8</ele>
        <time>2020-06-03T15:00:19Z</time>
      </trkpt>
      <trkpt lat="46.59122" lon="-1.83593">
        <ele>2.8</ele>
        <time>2020-06-03T15:00:20Z</time>
      </trkpt>
      <trkpt lat="46.59125" lon="-1.83588">
        <ele>2.9</ele>
        <time>2020-06-03T15:00:21Z</time>
      </trkpt>
      <trkpt lat="46.59128" lon="-1.83583">
        <ele>2.9</ele>
        <time>2020-06-03T15:00:22Z</time>
      </trkpt>
      <trkpt lat="46.59133" lon="-1.83578">
        <ele>2.9</ele>
        <time>2020-06-03T15:00:23Z</time>
      </trkpt>
      <trkpt lat="46.59137" lon="-1.83572">
        <ele>2.9</ele>
        <time>2020-06-03T15:00:24Z</time>
      </trkpt>
      <trkpt lat="46.59141" lon="-1.83567">
        <ele>2.9</ele>
        <time>2020-06-03T15:00:25Z</time>
      </trkpt>
      <trkpt lat="46.59145" lon="-1.83561">
        <ele>3</ele>
        <time>2020-06-03T15:00:26Z</time>
      </trkpt>
      <trkpt lat="46.5915" lon="-1.83556">
        <ele>3</ele>
        <time>2020-06-03T15:00:27Z</time>
      </trkpt>
      <trkpt lat="46.59155" lon="-1.83551">
        <ele>3</ele>
        <time>2020-06-03T15:00:28Z</time>
      </trkpt>
      <trkpt lat="46.5916" lon="-1.83545">
        <ele>3</ele>
        <time>2020-06-03T15:00:29Z</time>
      </trkpt>
      <trkpt lat="46.59164" lon="-1.8354">
        <ele>3.1</ele>
        <time>2020-06-03T15:00:30Z</time>
      </trkpt>
      <trkpt lat="46.59168" lon="-1.83534">
        <ele>3.1</ele>
        <time>2020-06-03T15:00:31Z</time>
      </trkpt>
      <trkpt lat="46.59172" lon="-1.83529">
        <ele>3.1</ele>
        <time>2020-06-03T15:00:32Z</time>
      </trkpt>
      <trkpt lat="46.59177" lon="-1.83525">
        <ele>3.1</ele>
        <time>2020-06-03T15:00:33Z</time>
      </trkpt>
      <trkpt lat="46.59182" lon="-1.83522">
        <ele>3.1</ele>
        <time>2020-06-03T15:00:34Z</time>
      </trkpt>
      <trkpt lat="46.59187" lon="-1.83519">
        <ele>3.2</ele>
        <time>2020-06-03T15:00:35Z</time>
      </trkpt>
      <trkpt lat="46.59192" lon="-1.83518">
        <ele>3.2</ele>
        <time>2020-06-03T15:00:36Z</time>
      </trkpt>
      <trkpt lat="46.59196" lon="-1.83515">
        <ele>3.2</ele>
        <time>2020-06-03T15:00:37Z</time>
      </trkpt>
      <trkpt lat="46.59201" lon="-1.83514">
        <ele>3.2</ele>
        <time>2020-06-03T15:00:38Z</time>
      </trkpt>
      <trkpt lat="46.59206" lon="-1.83513">
        <ele>3.2</ele>
        <time>2020-06-03T15:00:39Z</time>
      </trkpt>
      <trkpt lat="46.59211" lon="-1.83513">
        <ele>3.2</ele>
        <time>2020-06-03T15:00:40Z</time>
      </trkpt>
      <trkpt lat="46.59216" lon="-1.83512">
        <ele>3.2</ele>
        <time>2020-06-03T15:00:41Z</time>
      </trkpt>
      <trkpt lat="46.59221" lon="-1.83511">
        <ele>3.2</ele>
        <time>2020-06-03T15:00:42Z</time>
      </trkpt>
      <trkpt lat="46.59226" lon="-1.83509">
        <ele>3.2</ele>
        <time>2020-06-03T15:00:43Z</time>
      </trkpt>
      <trkpt lat="46.59231" lon="-1.83508">
        <ele>3.2</ele>
        <time>2020-06-03T15:00:44Z</time>
      </trkpt>
      <trkpt lat="46.59236" lon="-1.83506">
        <ele>3.2</ele>
        <time>2020-06-03T15:00:45Z</time>
      </trkpt>
      <trkpt lat="46.59241" lon="-1.83503">
        <ele>3.2</ele>
        <time>2020-06-03T15:00:46Z</time>
      </trkpt>
      <trkpt lat="46.59245" lon="-1.83501">
        <ele>3.2</ele>
        <time>2020-06-03T15:00:47Z</time>
      </trkpt>
      <trkpt lat="46.59248" lon="-1.83497">
        <ele>3.3</ele>
        <time>2020-06-03T15:00:48Z</time>
      </trkpt>
      <trkpt lat="46.59252" lon="-1.83492">
        <ele>3.3</ele>
        <time>2020-06-03T15:00:49Z</time>
      </trkpt>
      <trkpt lat="46.59254" lon="-1.83486">
        <ele>3.3</ele>
        <time>2020-06-03T15:00:50Z</time>
      </trkpt>
      <trkpt lat="46.59257" lon="-1.83479">
        <ele>3.3</ele>
        <time>2020-06-03T15:00:51Z</time>
      </trkpt>
      <trkpt lat="46.59259" lon="-1.83473">
        <ele>3.2</ele>
        <time>2020-06-03T15:00:52Z</time>
      </trkpt>
      <trkpt lat="46.59261" lon="-1.83467">
        <ele>3.2</ele>
        <time>2020-06-03T15:00:53Z</time>
      </trkpt>
      <trkpt lat="46.59264" lon="-1.83461">
        <ele>3.2</ele>
        <time>2020-06-03T15:00:54Z</time>
      </trkpt>
      <trkpt lat="46.59265" lon="-1.83455">
        <ele>3.2</ele>
        <time>2020-06-03T15:00:55Z</time>
      </trkpt>
      <trkpt lat="46.59267" lon="-1.83447">
        <ele>3.2</ele>
        <time>2020-06-03T15:00:56Z</time>
      </trkpt>
      <trkpt lat="46.59269" lon="-1.83439">
        <ele>3.2</ele>
        <time>2020-06-03T15:00:57Z</time>
      </trkpt>
      <trkpt lat="46.59271" lon="-1.83433">
        <ele>3.2</ele>
        <time>2020-06-03T15:00:58Z</time>
      </trkpt>
      <trkpt lat="46.59273" lon="-1.83426">
        <ele>3.1</ele>
        <time>2020-06-03T15:00:59Z</time>
      </trkpt>
      <trkpt lat="46.59274" lon="-1.83418">
        <ele>3.1</ele>
        <time>2020-06-03T15:01:00Z</time>
      </trkpt>
      <trkpt lat="46.59275" lon="-1.8341">
        <ele>3.1</ele>
        <time>2020-06-03T15:01:01Z</time>
      </trkpt>
      <trkpt lat="46.59275" lon="-1.83403">
        <ele>3.1</ele>
        <time>2020-06-03T15:01:02Z</time>
      </trkpt>
      <trkpt lat="46.59274" lon="-1.83394">
        <ele>3.1</ele>
        <time>2020-06-03T15:01:03Z</time>
      </trkpt>
      <trkpt lat="46.59273" lon="-1.83387">
        <ele>3.1</ele>
        <time>2020-06-03T15:01:04Z</time>
      </trkpt>
      <trkpt lat="46.59274" lon="-1.83379">
        <ele>3.1</ele>
        <time>2020-06-03T15:01:05Z</time>
      </trkpt>
      <trkpt lat="46.59274" lon="-1.83374">
        <ele>3.1</ele>
        <time>2020-06-03T15:01:06Z</time>
      </trkpt>
      <trkpt lat="46.59274" lon="-1.83369">
        <ele>3.1</ele>
        <time>2020-06-03T15:01:07Z</time>
      </trkpt>
      <trkpt lat="46.59274" lon="-1.83365">
        <ele>3.1</ele>
        <time>2020-06-03T15:01:08Z</time>
      </trkpt>
      <trkpt lat="46.59275" lon="-1.83359">
        <ele>3.1</ele>
        <time>2020-06-03T15:01:09Z</time>
      </trkpt>
      <trkpt lat="46.59275" lon="-1.83357">
        <ele>3.1</ele>
        <time>2020-06-03T15:01:10Z</time>
      </trkpt>
      <trkpt lat="46.59276" lon="-1.83353">
        <ele>3.1</ele>
        <time>2020-06-03T15:01:11Z</time>
      </trkpt>
      <trkpt lat="46.59276" lon="-1.83351">
        <ele>3.1</ele>
        <time>2020-06-03T15:01:12Z</time>
      </trkpt>
      <trkpt lat="46.59277" lon="-1.83346">
        <ele>3.1</ele>
        <time>2020-06-03T15:01:13Z</time>
      </trkpt>
      <trkpt lat="46.59278" lon="-1.83342">
        <ele>3.1</ele>
        <time>2020-06-03T15:01:14Z</time>
      </trkpt>
      <trkpt lat="46.5928" lon="-1.83338">
        <ele>3.1</ele>
        <time>2020-06-03T15:01:15Z</time>
      </trkpt>
      <trkpt lat="46.59282" lon="-1.83334">
        <ele>3.1</ele>
        <time>2020-06-03T15:01:16Z</time>
      </trkpt>
      <trkpt lat="46.59283" lon="-1.83333">
        <ele>3.1</ele>
        <time>2020-06-03T15:01:17Z</time>
      </trkpt>
      <trkpt lat="46.59286" lon="-1.83331">
        <ele>3.1</ele>
        <time>2020-06-03T15:01:18Z</time>
      </trkpt>
      <trkpt lat="46.59287" lon="-1.83331">
        <ele>3.1</ele>
        <time>2020-06-03T15:01:19Z</time>
      </trkpt>
      <trkpt lat="46.59291" lon="-1.83332">
        <ele>3.1</ele>
        <time>2020-06-03T15:01:20Z</time>
      </trkpt>
      <trkpt lat="46.59292" lon="-1.83332">
        <ele>3.1</ele>
        <time>2020-06-03T15:01:21Z</time>
      </trkpt>
      <trkpt lat="46.59295" lon="-1.83332">
        <ele>3.1</ele>
        <time>2020-06-03T15:01:22Z</time>
      </trkpt>
      <trkpt lat="46.59299" lon="-1.83333">
        <ele>3.1</ele>
        <time>2020-06-03T15:01:23Z</time>
      </trkpt>
      <trkpt lat="46.59303" lon="-1.83333">
        <ele>3.1</ele>
        <time>2020-06-03T15:01:24Z</time>
      </trkpt>
      <trkpt lat="46.59307" lon="-1.83334">
        <ele>3.1</ele>
        <time>2020-06-03T15:01:25Z</time>
      </trkpt>
      <trkpt lat="46.59312" lon="-1.83334">
        <ele>3.1</ele>
        <time>2020-06-03T15:01:26Z</time>
      </trkpt>
      <trkpt lat="46.59317" lon="-1.83334">
        <ele>3.1</ele>
        <time>2020-06-03T15:01:27Z</time>
      </trkpt>
      <trkpt lat="46.59322" lon="-1.83335">
        <ele>3.1</ele>
        <time>2020-06-03T15:01:28Z</time>
      </trkpt>
      <trkpt lat="46.59327" lon="-1.83337">
        <ele>3.1</ele>
        <time>2020-06-03T15:01:29Z</time>
      </trkpt>
      <trkpt lat="46.59333" lon="-1.83339">
        <ele>3.1</ele>
        <time>2020-06-03T15:01:30Z</time>
      </trkpt>
      <trkpt lat="46.59338" lon="-1.83342">
        <ele>3.1</ele>
        <time>2020-06-03T15:01:31Z</time>
      </trkpt>
      <trkpt lat="46.59344" lon="-1.83344">
        <ele>3.2</ele>
        <time>2020-06-03T15:01:32Z</time>
      </trkpt>
      <trkpt lat="46.5935" lon="-1.83346">
        <ele>3.2</ele>
        <time>2020-06-03T15:01:33Z</time>
      </trkpt>
      <trkpt lat="46.59355" lon="-1.83349">
        <ele>3.3</ele>
        <time>2020-06-03T15:01:34Z</time>
      </trkpt>
      <trkpt lat="46.59361" lon="-1.83352">
        <ele>3.3</ele>
        <time>2020-06-03T15:01:35Z</time>
      </trkpt>
      <trkpt lat="46.59366" lon="-1.83355">
        <ele>3.3</ele>
        <time>2020-06-03T15:01:36Z</time>
      </trkpt>
      <trkpt lat="46.59372" lon="-1.83357">
        <ele>3.4</ele>
        <time>2020-06-03T15:01:37Z</time>
      </trkpt>
      <trkpt lat="46.59377" lon="-1.83359">
        <ele>3.5</ele>
        <time>2020-06-03T15:01:38Z</time>
      </trkpt>
      <trkpt lat="46.59382" lon="-1.83362">
        <ele>3.5</ele>
        <time>2020-06-03T15:01:39Z</time>
      </trkpt>
      <trkpt lat="46.59387" lon="-1.83364">
        <ele>3.6</ele>
        <time>2020-06-03T15:01:40Z</time>
      </trkpt>
      <trkpt lat="46.59393" lon="-1.83367">
        <ele>3.7</ele>
        <time>2020-06-03T15:01:41Z</time>
      </trkpt>
      <trkpt lat="46.59398" lon="-1.83369">
        <ele>3.7</ele>
        <time>2020-06-03T15:01:42Z</time>
      </trkpt>
      <trkpt lat="46.59404" lon="-1.83371">
        <ele>3.8</ele>
        <time>2020-06-03T15:01:43Z</time>
      </trkpt>
      <trkpt lat="46.59409" lon="-1.83374">
        <ele>3.9</ele>
        <time>2020-06-03T15:01:44Z</time>
      </trkpt>
      <trkpt lat="46.59414" lon="-1.83377">
        <ele>4</ele>
        <time>2020-06-03T15:01:45Z</time>
      </trkpt>
      <trkpt lat="46.59418" lon="-1.83379">
        <ele>4.1</ele>
        <time>2020-06-03T15:01:46Z</time>
      </trkpt>
      <trkpt lat="46.59422" lon="-1.8338">
        <ele>4.2</ele>
        <time>2020-06-03T15:01:47Z</time>
      </trkpt>
      <trkpt lat="46.59426" lon="-1.8338">
        <ele>4.2</ele>
        <time>2020-06-03T15:01:48Z</time>
      </trkpt>
      <trkpt lat="46.59431" lon="-1.8338">
        <ele>4.3</ele>
        <time>2020-06-03T15:01:49Z</time>
      </trkpt>
      <trkpt lat="46.59435" lon="-1.83379">
        <ele>4.4</ele>
        <time>2020-06-03T15:01:50Z</time>
      </trkpt>
      <trkpt lat="46.59438" lon="-1.83378">
        <ele>4.4</ele>
        <time>2020-06-03T15:01:51Z</time>
      </trkpt>
      <trkpt lat="46.59441" lon="-1.83378">
        <ele>4.4</ele>
        <time>2020-06-03T15:01:52Z</time>
      </trkpt>
      <trkpt lat="46.59444" lon="-1.83376">
        <ele>4.4</ele>
        <time>2020-06-03T15:01:53Z</time>
      </trkpt>
      <trkpt lat="46.59447" lon="-1.83374">
        <ele>4.5</ele>
        <time>2020-06-03T15:01:54Z</time>
      </trkpt>
      <trkpt lat="46.59448" lon="-1.83373">
        <ele>4.4</ele>
        <time>2020-06-03T15:01:55Z</time>
      </trkpt>
      <trkpt lat="46.59451" lon="-1.83371">
        <ele>4.4</ele>
        <time>2020-06-03T15:01:56Z</time>
      </trkpt>
      <trkpt lat="46.59454" lon="-1.83369">
        <ele>4.4</ele>
        <time>2020-06-03T15:01:57Z</time>
      </trkpt>
      <trkpt lat="46.59457" lon="-1.83367">
        <ele>4.4</ele>
        <time>2020-06-03T15:01:58Z</time>
      </trkpt>
      <trkpt lat="46.59458" lon="-1.83366">
        <ele>4.4</ele>
        <time>2020-06-03T15:01:59Z</time>
      </trkpt>
      <trkpt lat="46.5946" lon="-1.83364">
        <ele>4.4</ele>
        <time>2020-06-03T15:02:00Z</time>
      </trkpt>
      <trkpt lat="46.59461" lon="-1.83363">
        <ele>4.4</ele>
        <time>2020-06-03T15:02:01Z</time>
      </trkpt>
      <trkpt lat="46.59462" lon="-1.83363">
        <ele>4.4</ele>
        <time>2020-06-03T15:02:02Z</time>
      </trkpt>
      <trkpt lat="46.59463" lon="-1.83362">
        <ele>4.4</ele>
        <time>2020-06-03T15:02:03Z</time>
      </trkpt>
      <trkpt lat="46.59463" lon="-1.83362">
        <ele>4.4</ele>
        <time>2020-06-03T15:02:04Z</time>
      </trkpt>
      <trkpt lat="46.59463" lon="-1.83362">
        <ele>4.4</ele>
        <time>2020-06-03T15:02:05Z</time>
      </trkpt>
      <trkpt lat="46.59463" lon="-1.83363">
        <ele>4.4</ele>
        <time>2020-06-03T15:02:06Z</time>
      </trkpt>
      <trkpt lat="46.59463" lon="-1.83363">
        <ele>4.4</ele>
        <time>2020-06-03T15:02:07Z</time>
      </trkpt>
      <trkpt lat="46.59463" lon="-1.83364">
        <ele>4.4</ele>
        <time>2020-06-03T15:02:08Z</time>
      </trkpt>
      <trkpt lat="46.59463" lon="-1.83364">
        <ele>4.4</ele>
        <time>2020-06-03T15:02:09Z</time>
      </trkpt>
      <trkpt lat="46.59463" lon="-1.83366">
        <ele>4.4</ele>
        <time>2020-06-03T15:02:10Z</time>
      </trkpt>
      <trkpt lat="46.59463" lon="-1.83368">
        <ele>4.4</ele>
        <time>2020-06-03T15:02:11Z</time>
      </trkpt>
      <trkpt lat="46.59463" lon="-1.8337">
        <ele>4.4</ele>
        <time>2020-06-03T15:02:12Z</time>
      </trkpt>
      <trkpt lat="46.59462" lon="-1.8337">
        <ele>4.4</ele>
        <time>2020-06-03T15:02:13Z</time>
      </trkpt>
      <trkpt lat="46.59465" lon="-1.83368">
        <ele>4.4</ele>
        <time>2020-06-03T15:11:49Z</time>
      </trkpt>
      <trkpt lat="46.59465" lon="-1.83368">
        <ele>4.4</ele>
        <time>2020-06-03T15:11:50Z</time>
      </trkpt>
      <trkpt lat="46.59465" lon="-1.83367">
        <ele>4.4</ele>
        <time>2020-06-03T15:11:51Z</time>
      </trkpt>
      <trkpt lat="46.59465" lon="-1.83367">
        <ele>4.4</ele>
        <time>2020-06-03T15:11:52Z</time>
      </trkpt>
      <trkpt lat="46.59463" lon="-1.83368">
        <ele>4.4</ele>
        <time>2020-06-03T15:11:53Z</time>
      </trkpt>
      <trkpt lat="46.59463" lon="-1.83368">
        <ele>4.4</ele>
        <time>2020-06-03T15:11:54Z</time>
      </trkpt>
      <trkpt lat="46.59464" lon="-1.83369">
        <ele>4.4</ele>
        <time>2020-06-03T15:11:55Z</time>
      </trkpt>
      <trkpt lat="46.59464" lon="-1.83369">
        <ele>4.4</ele>
        <time>2020-06-03T15:11:56Z</time>
      </trkpt>
      <trkpt lat="46.59464" lon="-1.83369">
        <ele>4.4</ele>
        <time>2020-06-03T15:11:57Z</time>
      </trkpt>
      <trkpt lat="46.59464" lon="-1.83369">
        <ele>4.4</ele>
        <time>2020-06-03T15:11:58Z</time>
      </trkpt>
      <trkpt lat="46.59464" lon="-1.83369">
        <ele>4.4</ele>
        <time>2020-06-03T15:11:59Z</time>
      </trkpt>
      <trkpt lat="46.59467" lon="-1.8336">
        <ele>4.4</ele>
        <time>2020-06-03T15:12:27Z</time>
      </trkpt>
      <trkpt lat="46.59468" lon="-1.83358">
        <ele>4.4</ele>
        <time>2020-06-03T15:12:28Z</time>
      </trkpt>
      <trkpt lat="46.59468" lon="-1.83357">
        <ele>4.4</ele>
        <time>2020-06-03T15:12:29Z</time>
      </trkpt>
      <trkpt lat="46.59469" lon="-1.83356">
        <ele>4.4</ele>
        <time>2020-06-03T15:12:30Z</time>
      </trkpt>
      <trkpt lat="46.59471" lon="-1.83355">
        <ele>4.4</ele>
        <time>2020-06-03T15:12:31Z</time>
      </trkpt>
      <trkpt lat="46.59474" lon="-1.83352">
        <ele>4.4</ele>
        <time>2020-06-03T15:12:32Z</time>
      </trkpt>
      <trkpt lat="46.59475" lon="-1.83351">
        <ele>4.4</ele>
        <time>2020-06-03T15:12:33Z</time>
      </trkpt>
      <trkpt lat="46.59478" lon="-1.83348">
        <ele>4.4</ele>
        <time>2020-06-03T15:12:34Z</time>
      </trkpt>
      <trkpt lat="46.59482" lon="-1.83344">
        <ele>4.4</ele>
        <time>2020-06-03T15:12:35Z</time>
      </trkpt>
      <trkpt lat="46.59487" lon="-1.8334">
        <ele>4.3</ele>
        <time>2020-06-03T15:12:36Z</time>
      </trkpt>
      <trkpt lat="46.59491" lon="-1.83337">
        <ele>4.3</ele>
        <time>2020-06-03T15:12:37Z</time>
      </trkpt>
      <trkpt lat="46.59495" lon="-1.83335">
        <ele>4.3</ele>
        <time>2020-06-03T15:12:38Z</time>
      </trkpt>
      <trkpt lat="46.59499" lon="-1.83332">
        <ele>4.3</ele>
        <time>2020-06-03T15:12:39Z</time>
      </trkpt>
      <trkpt lat="46.59503" lon="-1.8333">
        <ele>4.2</ele>
        <time>2020-06-03T15:12:40Z</time>
      </trkpt>
      <trkpt lat="46.59507" lon="-1.83328">
        <ele>4.2</ele>
        <time>2020-06-03T15:12:41Z</time>
      </trkpt>
      <trkpt lat="46.59511" lon="-1.83327">
        <ele>4.2</ele>
        <time>2020-06-03T15:12:42Z</time>
      </trkpt>
      <trkpt lat="46.59514" lon="-1.83326">
        <ele>4.1</ele>
        <time>2020-06-03T15:12:43Z</time>
      </trkpt>
      <trkpt lat="46.59516" lon="-1.83324">
        <ele>4.1</ele>
        <time>2020-06-03T15:12:44Z</time>
      </trkpt>
      <trkpt lat="46.59519" lon="-1.83323">
        <ele>4.1</ele>
        <time>2020-06-03T15:12:45Z</time>
      </trkpt>
      <trkpt lat="46.59522" lon="-1.83322">
        <ele>4.1</ele>
        <time>2020-06-03T15:12:46Z</time>
      </trkpt>
      <trkpt lat="46.59524" lon="-1.8332">
        <ele>4.1</ele>
        <time>2020-06-03T15:12:47Z</time>
      </trkpt>
      <trkpt lat="46.59528" lon="-1.83319">
        <ele>4.1</ele>
        <time>2020-06-03T15:12:48Z</time>
      </trkpt>
      <trkpt lat="46.59529" lon="-1.83318">
        <ele>4.1</ele>
        <time>2020-06-03T15:12:49Z</time>
      </trkpt>
      <trkpt lat="46.59533" lon="-1.83316">
        <ele>4.2</ele>
        <time>2020-06-03T15:12:50Z</time>
      </trkpt>
      <trkpt lat="46.59534" lon="-1.83315">
        <ele>4.2</ele>
        <time>2020-06-03T15:12:51Z</time>
      </trkpt>
      <trkpt lat="46.59537" lon="-1.83313">
        <ele>4.2</ele>
        <time>2020-06-03T15:12:52Z</time>
      </trkpt>
      <trkpt lat="46.5954" lon="-1.83311">
        <ele>4.2</ele>
        <time>2020-06-03T15:12:53Z</time>
      </trkpt>
      <trkpt lat="46.59544" lon="-1.8331">
        <ele>4.2</ele>
        <time>2020-06-03T15:12:54Z</time>
      </trkpt>
      <trkpt lat="46.59548" lon="-1.83309">
        <ele>4.2</ele>
        <time>2020-06-03T15:12:55Z</time>
      </trkpt>
      <trkpt lat="46.59551" lon="-1.83308">
        <ele>4.2</ele>
        <time>2020-06-03T15:12:56Z</time>
      </trkpt>
      <trkpt lat="46.59555" lon="-1.83306">
        <ele>4.2</ele>
        <time>2020-06-03T15:12:57Z</time>
      </trkpt>
      <trkpt lat="46.59559" lon="-1.83304">
        <ele>4.2</ele>
        <time>2020-06-03T15:12:58Z</time>
      </trkpt>
      <trkpt lat="46.59563" lon="-1.83302">
        <ele>4.2</ele>
        <time>2020-06-03T15:12:59Z</time>
      </trkpt>
      <trkpt lat="46.59566" lon="-1.833">
        <ele>4.2</ele>
        <time>2020-06-03T15:13:00Z</time>
      </trkpt>
      <trkpt lat="46.59569" lon="-1.83299">
        <ele>4.2</ele>
        <time>2020-06-03T15:13:01Z</time>
      </trkpt>
      <trkpt lat="46.59571" lon="-1.83297">
        <ele>4.2</ele>
        <time>2020-06-03T15:13:02Z</time>
      </trkpt>
      <trkpt lat="46.59572" lon="-1.83297">
        <ele>4.2</ele>
        <time>2020-06-03T15:13:03Z</time>
      </trkpt>
      <trkpt lat="46.59572" lon="-1.83302">
        <ele>4.1</ele>
        <time>2020-06-03T15:13:04Z</time>
      </trkpt>
      <trkpt lat="46.59572" lon="-1.83305">
        <ele>4.1</ele>
        <time>2020-06-03T15:13:05Z</time>
      </trkpt>
      <trkpt lat="46.59572" lon="-1.83309">
        <ele>4.1</ele>
        <time>2020-06-03T15:13:06Z</time>
      </trkpt>
      <trkpt lat="46.59572" lon="-1.83314">
        <ele>4.1</ele>
        <time>2020-06-03T15:13:07Z</time>
      </trkpt>
      <trkpt lat="46.59572" lon="-1.83315">
        <ele>4</ele>
        <time>2020-06-03T15:13:08Z</time>
      </trkpt>
      <trkpt lat="46.59572" lon="-1.83317">
        <ele>4</ele>
        <time>2020-06-03T15:13:09Z</time>
      </trkpt>
      <trkpt lat="46.59572" lon="-1.83318">
        <ele>4</ele>
        <time>2020-06-03T15:13:10Z</time>
      </trkpt>
      <trkpt lat="46.59572" lon="-1.83318">
        <ele>4</ele>
        <time>2020-06-03T15:13:11Z</time>
      </trkpt>
      <trkpt lat="46.59572" lon="-1.83319">
        <ele>4</ele>
        <time>2020-06-03T15:13:12Z</time>
      </trkpt>
      <trkpt lat="46.59572" lon="-1.83319">
        <ele>4</ele>
        <time>2020-06-03T15:13:13Z</time>
      </trkpt>
      <trkpt lat="46.59572" lon="-1.8332">
        <ele>4</ele>
        <time>2020-06-03T15:13:14Z</time>
      </trkpt>
      <trkpt lat="46.59572" lon="-1.8332">
        <ele>4</ele>
        <time>2020-06-03T15:13:15Z</time>
      </trkpt>
      <trkpt lat="46.59572" lon="-1.83321">
        <ele>4</ele>
        <time>2020-06-03T15:13:16Z</time>
      </trkpt>
      <trkpt lat="46.59572" lon="-1.83323">
        <ele>4</ele>
        <time>2020-06-03T15:13:17Z</time>
      </trkpt>
      <trkpt lat="46.59571" lon="-1.83324">
        <ele>4</ele>
        <time>2020-06-03T15:13:18Z</time>
      </trkpt>
      <trkpt lat="46.59571" lon="-1.83327">
        <ele>3.9</ele>
        <time>2020-06-03T15:13:19Z</time>
      </trkpt>
      <trkpt lat="46.59571" lon="-1.83329">
        <ele>3.9</ele>
        <time>2020-06-03T15:13:20Z</time>
      </trkpt>
      <trkpt lat="46.59571" lon="-1.83331">
        <ele>3.9</ele>
        <time>2020-06-03T15:13:21Z</time>
      </trkpt>
      <trkpt lat="46.59571" lon="-1.83331">
        <ele>3.9</ele>
        <time>2020-06-03T15:13:22Z</time>
      </trkpt>
      <trkpt lat="46.59572" lon="-1.83332">
        <ele>3.9</ele>
        <time>2020-06-03T15:13:23Z</time>
      </trkpt>
      <trkpt lat="46.59572" lon="-1.83332">
        <ele>3.9</ele>
        <time>2020-06-03T15:13:24Z</time>
      </trkpt>
      <trkpt lat="46.59572" lon="-1.83332">
        <ele>3.9</ele>
        <time>2020-06-03T15:13:25Z</time>
      </trkpt>
      <trkpt lat="46.59572" lon="-1.83332">
        <ele>3.9</ele>
        <time>2020-06-03T15:13:26Z</time>
      </trkpt>
      <trkpt lat="46.59572" lon="-1.83331">
        <ele>3.9</ele>
        <time>2020-06-03T15:13:27Z</time>
      </trkpt>
      <trkpt lat="46.59572" lon="-1.8333">
        <ele>3.9</ele>
        <time>2020-06-03T15:13:28Z</time>
      </trkpt>
      <trkpt lat="46.59572" lon="-1.83329">
        <ele>3.8</ele>
        <time>2020-06-03T15:13:29Z</time>
      </trkpt>
      <trkpt lat="46.59572" lon="-1.83328">
        <ele>3.8</ele>
        <time>2020-06-03T15:13:30Z</time>
      </trkpt>
      <trkpt lat="46.59572" lon="-1.83329">
        <ele>3.8</ele>
        <time>2020-06-03T15:13:31Z</time>
      </trkpt>
      <trkpt lat="46.59572" lon="-1.83331">
        <ele>3.8</ele>
        <time>2020-06-03T15:13:32Z</time>
      </trkpt>
      <trkpt lat="46.59573" lon="-1.83331">
        <ele>3.8</ele>
        <time>2020-06-03T15:13:33Z</time>
      </trkpt>
      <trkpt lat="46.59573" lon="-1.83329">
        <ele>3.8</ele>
        <time>2020-06-03T15:13:34Z</time>
      </trkpt>
      <trkpt lat="46.59571" lon="-1.83335">
        <ele>3.7</ele>
        <time>2020-06-03T15:13:56Z</time>
      </trkpt>
      <trkpt lat="46.59571" lon="-1.83338">
        <ele>3.7</ele>
        <time>2020-06-03T15:13:57Z</time>
      </trkpt>
      <trkpt lat="46.59571" lon="-1.83345">
        <ele>3.7</ele>
        <time>2020-06-03T15:13:58Z</time>
      </trkpt>
      <trkpt lat="46.59571" lon="-1.83348">
        <ele>3.6</ele>
        <time>2020-06-03T15:13:59Z</time>
      </trkpt>
      <trkpt lat="46.5957" lon="-1.83355">
        <ele>3.6</ele>
        <time>2020-06-03T15:14:00Z</time>
      </trkpt>
      <trkpt lat="46.59571" lon="-1.8336">
        <ele>3.5</ele>
        <time>2020-06-03T15:14:01Z</time>
      </trkpt>
      <trkpt lat="46.59571" lon="-1.83367">
        <ele>3.5</ele>
        <time>2020-06-03T15:14:02Z</time>
      </trkpt>
      <trkpt lat="46.59571" lon="-1.83375">
        <ele>3.4</ele>
        <time>2020-06-03T15:14:03Z</time>
      </trkpt>
      <trkpt lat="46.59572" lon="-1.83382">
        <ele>3.3</ele>
        <time>2020-06-03T15:14:04Z</time>
      </trkpt>
      <trkpt lat="46.59572" lon="-1.8339">
        <ele>3.3</ele>
        <time>2020-06-03T15:14:05Z</time>
      </trkpt>
      <trkpt lat="46.59571" lon="-1.83396">
        <ele>3.2</ele>
        <time>2020-06-03T15:14:06Z</time>
      </trkpt>
      <trkpt lat="46.59569" lon="-1.83402">
        <ele>3.1</ele>
        <time>2020-06-03T15:14:07Z</time>
      </trkpt>
      <trkpt lat="46.59566" lon="-1.83407">
        <ele>3.1</ele>
        <time>2020-06-03T15:14:08Z</time>
      </trkpt>
      <trkpt lat="46.59563" lon="-1.83412">
        <ele>3</ele>
        <time>2020-06-03T15:14:09Z</time>
      </trkpt>
      <trkpt lat="46.59561" lon="-1.83419">
        <ele>3</ele>
        <time>2020-06-03T15:14:10Z</time>
      </trkpt>
      <trkpt lat="46.59559" lon="-1.83426">
        <ele>3</ele>
        <time>2020-06-03T15:14:11Z</time>
      </trkpt>
      <trkpt lat="46.59558" lon="-1.83432">
        <ele>2.9</ele>
        <time>2020-06-03T15:14:12Z</time>
      </trkpt>
      <trkpt lat="46.59559" lon="-1.83438">
        <ele>2.9</ele>
        <time>2020-06-03T15:14:13Z</time>
      </trkpt>
      <trkpt lat="46.59559" lon="-1.83444">
        <ele>2.8</ele>
        <time>2020-06-03T15:14:14Z</time>
      </trkpt>
      <trkpt lat="46.59559" lon="-1.83451">
        <ele>2.8</ele>
        <time>2020-06-03T15:14:15Z</time>
      </trkpt>
      <trkpt lat="46.59559" lon="-1.83458">
        <ele>2.7</ele>
        <time>2020-06-03T15:14:16Z</time>
      </trkpt>
      <trkpt lat="46.59559" lon="-1.83465">
        <ele>2.7</ele>
        <time>2020-06-03T15:14:17Z</time>
      </trkpt>
      <trkpt lat="46.5956" lon="-1.83471">
        <ele>2.6</ele>
        <time>2020-06-03T15:14:18Z</time>
      </trkpt>
      <trkpt lat="46.5956" lon="-1.83477">
        <ele>2.6</ele>
        <time>2020-06-03T15:14:19Z</time>
      </trkpt>
      <trkpt lat="46.59561" lon="-1.83484">
        <ele>2.6</ele>
        <time>2020-06-03T15:14:20Z</time>
      </trkpt>
      <trkpt lat="46.59562" lon="-1.83491">
        <ele>2.5</ele>
        <time>2020-06-03T15:14:21Z</time>
      </trkpt>
      <trkpt lat="46.59562" lon="-1.83499">
        <ele>2.5</ele>
        <time>2020-06-03T15:14:22Z</time>
      </trkpt>
      <trkpt lat="46.59562" lon="-1.83506">
        <ele>2.4</ele>
        <time>2020-06-03T15:14:23Z</time>
      </trkpt>
      <trkpt lat="46.59563" lon="-1.83513">
        <ele>2.4</ele>
        <time>2020-06-03T15:14:24Z</time>
      </trkpt>
      <trkpt lat="46.59563" lon="-1.83519">
        <ele>2.4</ele>
        <time>2020-06-03T15:14:25Z</time>
      </trkpt>
      <trkpt lat="46.59563" lon="-1.83524">
        <ele>2.4</ele>
        <time>2020-06-03T15:14:26Z</time>
      </trkpt>
      <trkpt lat="46.59563" lon="-1.8353">
        <ele>2.3</ele>
        <time>2020-06-03T15:14:27Z</time>
      </trkpt>
      <trkpt lat="46.59564" lon="-1.83535">
        <ele>2.3</ele>
        <time>2020-06-03T15:14:28Z</time>
      </trkpt>
      <trkpt lat="46.59565" lon="-1.83541">
        <ele>2.3</ele>
        <time>2020-06-03T15:14:29Z</time>
      </trkpt>
      <trkpt lat="46.59565" lon="-1.83548">
        <ele>2.2</ele>
        <time>2020-06-03T15:14:30Z</time>
      </trkpt>
      <trkpt lat="46.59566" lon="-1.83555">
        <ele>2.2</ele>
        <time>2020-06-03T15:14:31Z</time>
      </trkpt>
      <trkpt lat="46.59567" lon="-1.83561">
        <ele>2.2</ele>
        <time>2020-06-03T15:14:32Z</time>
      </trkpt>
      <trkpt lat="46.59567" lon="-1.83568">
        <ele>2.1</ele>
        <time>2020-06-03T15:14:33Z</time>
      </trkpt>
      <trkpt lat="46.59568" lon="-1.83575">
        <ele>2.1</ele>
        <time>2020-06-03T15:14:34Z</time>
      </trkpt>
      <trkpt lat="46.59568" lon="-1.83581">
        <ele>2.1</ele>
        <time>2020-06-03T15:14:35Z</time>
      </trkpt>
      <trkpt lat="46.59569" lon="-1.83588">
        <ele>2.1</ele>
        <time>2020-06-03T15:14:36Z</time>
      </trkpt>
      <trkpt lat="46.59569" lon="-1.83595">
        <ele>2</ele>
        <time>2020-06-03T15:14:37Z</time>
      </trkpt>
      <trkpt lat="46.59569" lon="-1.83602">
        <ele>2</ele>
        <time>2020-06-03T15:14:38Z</time>
      </trkpt>
      <trkpt lat="46.59569" lon="-1.83609">
        <ele>2</ele>
        <time>2020-06-03T15:14:39Z</time>
      </trkpt>
      <trkpt lat="46.59569" lon="-1.83614">
        <ele>2</ele>
        <time>2020-06-03T15:14:40Z</time>
      </trkpt>
      <trkpt lat="46.5957" lon="-1.8362">
        <ele>1.9</ele>
        <time>2020-06-03T15:14:41Z</time>
      </trkpt>
      <trkpt lat="46.59571" lon="-1.83625">
        <ele>1.9</ele>
        <time>2020-06-03T15:14:42Z</time>
      </trkpt>
      <trkpt lat="46.59574" lon="-1.83628">
        <ele>1.9</ele>
        <time>2020-06-03T15:14:43Z</time>
      </trkpt>
      <trkpt lat="46.59577" lon="-1.83629">
        <ele>1.9</ele>
        <time>2020-06-03T15:14:44Z</time>
      </trkpt>
      <trkpt lat="46.5958" lon="-1.8363">
        <ele>1.9</ele>
        <time>2020-06-03T15:14:45Z</time>
      </trkpt>
      <trkpt lat="46.59583" lon="-1.83632">
        <ele>1.9</ele>
        <time>2020-06-03T15:14:46Z</time>
      </trkpt>
      <trkpt lat="46.59585" lon="-1.83634">
        <ele>1.9</ele>
        <time>2020-06-03T15:14:47Z</time>
      </trkpt>
      <trkpt lat="46.59588" lon="-1.83634">
        <ele>1.9</ele>
        <time>2020-06-03T15:14:48Z</time>
      </trkpt>
      <trkpt lat="46.59591" lon="-1.83635">
        <ele>1.9</ele>
        <time>2020-06-03T15:14:49Z</time>
      </trkpt>
      <trkpt lat="46.59594" lon="-1.83635">
        <ele>1.9</ele>
        <time>2020-06-03T15:14:50Z</time>
      </trkpt>
      <trkpt lat="46.59597" lon="-1.83634">
        <ele>1.9</ele>
        <time>2020-06-03T15:14:51Z</time>
      </trkpt>
      <trkpt lat="46.596" lon="-1.83633">
        <ele>1.9</ele>
        <time>2020-06-03T15:14:52Z</time>
      </trkpt>
      <trkpt lat="46.59604" lon="-1.83632">
        <ele>1.9</ele>
        <time>2020-06-03T15:14:53Z</time>
      </trkpt>
      <trkpt lat="46.59608" lon="-1.83631">
        <ele>1.9</ele>
        <time>2020-06-03T15:14:54Z</time>
      </trkpt>
      <trkpt lat="46.59611" lon="-1.8363">
        <ele>1.9</ele>
        <time>2020-06-03T15:14:55Z</time>
      </trkpt>
      <trkpt lat="46.59616" lon="-1.83629">
        <ele>1.9</ele>
        <time>2020-06-03T15:14:56Z</time>
      </trkpt>
      <trkpt lat="46.5962" lon="-1.83627">
        <ele>1.9</ele>
        <time>2020-06-03T15:14:57Z</time>
      </trkpt>
      <trkpt lat="46.59625" lon="-1.83626">
        <ele>1.9</ele>
        <time>2020-06-03T15:14:58Z</time>
      </trkpt>
      <trkpt lat="46.59629" lon="-1.83625">
        <ele>2</ele>
        <time>2020-06-03T15:14:59Z</time>
      </trkpt>
      <trkpt lat="46.59634" lon="-1.83624">
        <ele>2</ele>
        <time>2020-06-03T15:15:00Z</time>
      </trkpt>
      <trkpt lat="46.59639" lon="-1.83623">
        <ele>2.1</ele>
        <time>2020-06-03T15:15:01Z</time>
      </trkpt>
      <trkpt lat="46.59644" lon="-1.83622">
        <ele>2.2</ele>
        <time>2020-06-03T15:15:02Z</time>
      </trkpt>
      <trkpt lat="46.59649" lon="-1.8362">
        <ele>2.3</ele>
        <time>2020-06-03T15:15:03Z</time>
      </trkpt>
      <trkpt lat="46.59654" lon="-1.83618">
        <ele>2.5</ele>
        <time>2020-06-03T15:15:04Z</time>
      </trkpt>
      <trkpt lat="46.5966" lon="-1.83616">
        <ele>2.6</ele>
        <time>2020-06-03T15:15:05Z</time>
      </trkpt>
      <trkpt lat="46.59665" lon="-1.83613">
        <ele>2.7</ele>
        <time>2020-06-03T15:15:06Z</time>
      </trkpt>
      <trkpt lat="46.5967" lon="-1.83611">
        <ele>2.8</ele>
        <time>2020-06-03T15:15:07Z</time>
      </trkpt>
      <trkpt lat="46.59675" lon="-1.8361">
        <ele>2.8</ele>
        <time>2020-06-03T15:15:08Z</time>
      </trkpt>
      <trkpt lat="46.5968" lon="-1.83608">
        <ele>2.9</ele>
        <time>2020-06-03T15:15:09Z</time>
      </trkpt>
      <trkpt lat="46.59685" lon="-1.83606">
        <ele>2.9</ele>
        <time>2020-06-03T15:15:10Z</time>
      </trkpt>
      <trkpt lat="46.5969" lon="-1.83605">
        <ele>2.9</ele>
        <time>2020-06-03T15:15:11Z</time>
      </trkpt>
      <trkpt lat="46.59696" lon="-1.83604">
        <ele>2.9</ele>
        <time>2020-06-03T15:15:12Z</time>
      </trkpt>
      <trkpt lat="46.59701" lon="-1.83603">
        <ele>3</ele>
        <time>2020-06-03T15:15:13Z</time>
      </trkpt>
      <trkpt lat="46.59705" lon="-1.83602">
        <ele>3</ele>
        <time>2020-06-03T15:15:14Z</time>
      </trkpt>
      <trkpt lat="46.5971" lon="-1.83601">
        <ele>3</ele>
        <time>2020-06-03T15:15:15Z</time>
      </trkpt>
      <trkpt lat="46.59715" lon="-1.836">
        <ele>3.1</ele>
        <time>2020-06-03T15:15:16Z</time>
      </trkpt>
      <trkpt lat="46.59719" lon="-1.83598">
        <ele>3.1</ele>
        <time>2020-06-03T15:15:17Z</time>
      </trkpt>
      <trkpt lat="46.59724" lon="-1.83597">
        <ele>3.2</ele>
        <time>2020-06-03T15:15:18Z</time>
      </trkpt>
      <trkpt lat="46.59729" lon="-1.83596">
        <ele>3.2</ele>
        <time>2020-06-03T15:15:19Z</time>
      </trkpt>
      <trkpt lat="46.59734" lon="-1.83594">
        <ele>3.3</ele>
        <time>2020-06-03T15:15:20Z</time>
      </trkpt>
      <trkpt lat="46.59739" lon="-1.83592">
        <ele>3.4</ele>
        <time>2020-06-03T15:15:21Z</time>
      </trkpt>
      <trkpt lat="46.59744" lon="-1.83591">
        <ele>3.4</ele>
        <time>2020-06-03T15:15:22Z</time>
      </trkpt>
      <trkpt lat="46.5975" lon="-1.8359">
        <ele>3.5</ele>
        <time>2020-06-03T15:15:23Z</time>
      </trkpt>
      <trkpt lat="46.59755" lon="-1.83589">
        <ele>3.6</ele>
        <time>2020-06-03T15:15:24Z</time>
      </trkpt>
      <trkpt lat="46.5976" lon="-1.83588">
        <ele>3.6</ele>
        <time>2020-06-03T15:15:25Z</time>
      </trkpt>
      <trkpt lat="46.59765" lon="-1.83587">
        <ele>3.7</ele>
        <time>2020-06-03T15:15:26Z</time>
      </trkpt>
      <trkpt lat="46.59769" lon="-1.83586">
        <ele>3.7</ele>
        <time>2020-06-03T15:15:27Z</time>
      </trkpt>
      <trkpt lat="46.59773" lon="-1.83585">
        <ele>3.8</ele>
        <time>2020-06-03T15:15:28Z</time>
      </trkpt>
      <trkpt lat="46.59777" lon="-1.83584">
        <ele>3.8</ele>
        <time>2020-06-03T15:15:29Z</time>
      </trkpt>
      <trkpt lat="46.5978" lon="-1.83583">
        <ele>3.9</ele>
        <time>2020-06-03T15:15:30Z</time>
      </trkpt>
      <trkpt lat="46.59784" lon="-1.83581">
        <ele>3.9</ele>
        <time>2020-06-03T15:15:31Z</time>
      </trkpt>
      <trkpt lat="46.59788" lon="-1.83581">
        <ele>4</ele>
        <time>2020-06-03T15:15:32Z</time>
      </trkpt>
      <trkpt lat="46.59791" lon="-1.8358">
        <ele>4</ele>
        <time>2020-06-03T15:15:33Z</time>
      </trkpt>
      <trkpt lat="46.59794" lon="-1.8358">
        <ele>4.1</ele>
        <time>2020-06-03T15:15:34Z</time>
      </trkpt>
      <trkpt lat="46.59798" lon="-1.83579">
        <ele>4.1</ele>
        <time>2020-06-03T15:15:35Z</time>
      </trkpt>
      <trkpt lat="46.59802" lon="-1.83578">
        <ele>4.2</ele>
        <time>2020-06-03T15:15:36Z</time>
      </trkpt>
      <trkpt lat="46.59806" lon="-1.83577">
        <ele>4.3</ele>
        <time>2020-06-03T15:15:37Z</time>
      </trkpt>
      <trkpt lat="46.5981" lon="-1.83577">
        <ele>4.3</ele>
        <time>2020-06-03T15:15:38Z</time>
      </trkpt>
      <trkpt lat="46.59815" lon="-1.83576">
        <ele>4.4</ele>
        <time>2020-06-03T15:15:39Z</time>
      </trkpt>
      <trkpt lat="46.59819" lon="-1.83575">
        <ele>4.4</ele>
        <time>2020-06-03T15:15:40Z</time>
      </trkpt>
      <trkpt lat="46.59823" lon="-1.83573">
        <ele>4.5</ele>
        <time>2020-06-03T15:15:41Z</time>
      </trkpt>
      <trkpt lat="46.59828" lon="-1.83572">
        <ele>4.5</ele>
        <time>2020-06-03T15:15:42Z</time>
      </trkpt>
      <trkpt lat="46.59832" lon="-1.83571">
        <ele>4.6</ele>
        <time>2020-06-03T15:15:43Z</time>
      </trkpt>
      <trkpt lat="46.59837" lon="-1.8357">
        <ele>4.6</ele>
        <time>2020-06-03T15:15:44Z</time>
      </trkpt>
      <trkpt lat="46.59841" lon="-1.83569">
        <ele>4.7</ele>
        <time>2020-06-03T15:15:45Z</time>
      </trkpt>
      <trkpt lat="46.59845" lon="-1.83568">
        <ele>4.7</ele>
        <time>2020-06-03T15:15:46Z</time>
      </trkpt>
      <trkpt lat="46.59849" lon="-1.83565">
        <ele>4.7</ele>
        <time>2020-06-03T15:15:47Z</time>
      </trkpt>
      <trkpt lat="46.59852" lon="-1.83564">
        <ele>4.8</ele>
        <time>2020-06-03T15:15:48Z</time>
      </trkpt>
      <trkpt lat="46.59855" lon="-1.83563">
        <ele>4.8</ele>
        <time>2020-06-03T15:15:49Z</time>
      </trkpt>
      <trkpt lat="46.59858" lon="-1.83562">
        <ele>4.9</ele>
        <time>2020-06-03T15:15:50Z</time>
      </trkpt>
      <trkpt lat="46.59862" lon="-1.8356">
        <ele>4.9</ele>
        <time>2020-06-03T15:15:51Z</time>
      </trkpt>
      <trkpt lat="46.59866" lon="-1.83559">
        <ele>4.9</ele>
        <time>2020-06-03T15:15:52Z</time>
      </trkpt>
      <trkpt lat="46.5987" lon="-1.83557">
        <ele>4.9</ele>
        <time>2020-06-03T15:15:53Z</time>
      </trkpt>
      <trkpt lat="46.59874" lon="-1.83556">
        <ele>5</ele>
        <time>2020-06-03T15:15:54Z</time>
      </trkpt>
      <trkpt lat="46.59878" lon="-1.83553">
        <ele>5</ele>
        <time>2020-06-03T15:15:55Z</time>
      </trkpt>
      <trkpt lat="46.59882" lon="-1.83552">
        <ele>5</ele>
        <time>2020-06-03T15:15:56Z</time>
      </trkpt>
      <trkpt lat="46.59886" lon="-1.83551">
        <ele>5</ele>
        <time>2020-06-03T15:15:57Z</time>
      </trkpt>
      <trkpt lat="46.59891" lon="-1.8355">
        <ele>5</ele>
        <time>2020-06-03T15:15:58Z</time>
      </trkpt>
      <trkpt lat="46.59895" lon="-1.83548">
        <ele>5.1</ele>
        <time>2020-06-03T15:15:59Z</time>
      </trkpt>
      <trkpt lat="46.59899" lon="-1.83548">
        <ele>5.1</ele>
        <time>2020-06-03T15:16:00Z</time>
      </trkpt>
      <trkpt lat="46.59904" lon="-1.83548">
        <ele>5.2</ele>
        <time>2020-06-03T15:16:01Z</time>
      </trkpt>
      <trkpt lat="46.59908" lon="-1.83548">
        <ele>5.3</ele>
        <time>2020-06-03T15:16:02Z</time>
      </trkpt>
      <trkpt lat="46.59913" lon="-1.83549">
        <ele>5.4</ele>
        <time>2020-06-03T15:16:03Z</time>
      </trkpt>
      <trkpt lat="46.59917" lon="-1.83551">
        <ele>5.4</ele>
        <time>2020-06-03T15:16:04Z</time>
      </trkpt>
      <trkpt lat="46.59922" lon="-1.83553">
        <ele>5.5</ele>
        <time>2020-06-03T15:16:05Z</time>
      </trkpt>
      <trkpt lat="46.59927" lon="-1.83556">
        <ele>5.6</ele>
        <time>2020-06-03T15:16:06Z</time>
      </trkpt>
      <trkpt lat="46.59933" lon="-1.83558">
        <ele>5.7</ele>
        <time>2020-06-03T15:16:07Z</time>
      </trkpt>
      <trkpt lat="46.59938" lon="-1.83562">
        <ele>5.8</ele>
        <time>2020-06-03T15:16:08Z</time>
      </trkpt>
      <trkpt lat="46.59942" lon="-1.83565">
        <ele>5.9</ele>
        <time>2020-06-03T15:16:09Z</time>
      </trkpt>
      <trkpt lat="46.59946" lon="-1.83568">
        <ele>5.9</ele>
        <time>2020-06-03T15:16:10Z</time>
      </trkpt>
      <trkpt lat="46.59949" lon="-1.8357">
        <ele>6</ele>
        <time>2020-06-03T15:16:11Z</time>
      </trkpt>
      <trkpt lat="46.59952" lon="-1.83572">
        <ele>6.1</ele>
        <time>2020-06-03T15:16:12Z</time>
      </trkpt>
      <trkpt lat="46.59955" lon="-1.83574">
        <ele>6.2</ele>
        <time>2020-06-03T15:16:13Z</time>
      </trkpt>
      <trkpt lat="46.59958" lon="-1.83576">
        <ele>6.3</ele>
        <time>2020-06-03T15:16:14Z</time>
      </trkpt>
      <trkpt lat="46.59963" lon="-1.83578">
        <ele>6.4</ele>
        <time>2020-06-03T15:16:15Z</time>
      </trkpt>
      <trkpt lat="46.59966" lon="-1.83579">
        <ele>6.5</ele>
        <time>2020-06-03T15:16:16Z</time>
      </trkpt>
      <trkpt lat="46.59971" lon="-1.83578">
        <ele>6.6</ele>
        <time>2020-06-03T15:16:17Z</time>
      </trkpt>
      <trkpt lat="46.59976" lon="-1.83576">
        <ele>6.8</ele>
        <time>2020-06-03T15:16:18Z</time>
      </trkpt>
      <trkpt lat="46.59982" lon="-1.83574">
        <ele>6.9</ele>
        <time>2020-06-03T15:16:19Z</time>
      </trkpt>
      <trkpt lat="46.59987" lon="-1.83572">
        <ele>7</ele>
        <time>2020-06-03T15:16:20Z</time>
      </trkpt>
      <trkpt lat="46.59992" lon="-1.83571">
        <ele>7.1</ele>
        <time>2020-06-03T15:16:21Z</time>
      </trkpt>
      <trkpt lat="46.59997" lon="-1.83569">
        <ele>7.2</ele>
        <time>2020-06-03T15:16:22Z</time>
      </trkpt>
      <trkpt lat="46.60002" lon="-1.83568">
        <ele>7.2</ele>
        <time>2020-06-03T15:16:23Z</time>
      </trkpt>
      <trkpt lat="46.60007" lon="-1.83567">
        <ele>7.3</ele>
        <time>2020-06-03T15:16:24Z</time>
      </trkpt>
      <trkpt lat="46.60011" lon="-1.83566">
        <ele>7.4</ele>
        <time>2020-06-03T15:16:25Z</time>
      </trkpt>
      <trkpt lat="46.60015" lon="-1.83566">
        <ele>7.5</ele>
        <time>2020-06-03T15:16:26Z</time>
      </trkpt>
      <trkpt lat="46.60018" lon="-1.83566">
        <ele>7.6</ele>
        <time>2020-06-03T15:16:27Z</time>
      </trkpt>
      <trkpt lat="46.60022" lon="-1.83566">
        <ele>7.6</ele>
        <time>2020-06-03T15:16:28Z</time>
      </trkpt>
      <trkpt lat="46.60027" lon="-1.83564">
        <ele>7.7</ele>
        <time>2020-06-03T15:16:29Z</time>
      </trkpt>
      <trkpt lat="46.60032" lon="-1.83563">
        <ele>7.7</ele>
        <time>2020-06-03T15:16:30Z</time>
      </trkpt>
      <trkpt lat="46.60037" lon="-1.83562">
        <ele>7.8</ele>
        <time>2020-06-03T15:16:31Z</time>
      </trkpt>
      <trkpt lat="46.6004" lon="-1.83561">
        <ele>7.8</ele>
        <time>2020-06-03T15:16:32Z</time>
      </trkpt>
      <trkpt lat="46.60043" lon="-1.83561">
        <ele>7.8</ele>
        <time>2020-06-03T15:16:33Z</time>
      </trkpt>
      <trkpt lat="46.60048" lon="-1.83562">
        <ele>7.9</ele>
        <time>2020-06-03T15:16:34Z</time>
      </trkpt>
      <trkpt lat="46.60052" lon="-1.83565">
        <ele>8</ele>
        <time>2020-06-03T15:16:35Z</time>
      </trkpt>
      <trkpt lat="46.60055" lon="-1.83568">
        <ele>8</ele>
        <time>2020-06-03T15:16:36Z</time>
      </trkpt>
      <trkpt lat="46.60058" lon="-1.83572">
        <ele>8.1</ele>
        <time>2020-06-03T15:16:37Z</time>
      </trkpt>
      <trkpt lat="46.6006" lon="-1.83576">
        <ele>8.1</ele>
        <time>2020-06-03T15:16:38Z</time>
      </trkpt>
      <trkpt lat="46.60063" lon="-1.8358">
        <ele>8.2</ele>
        <time>2020-06-03T15:16:39Z</time>
      </trkpt>
      <trkpt lat="46.60066" lon="-1.83585">
        <ele>8.2</ele>
        <time>2020-06-03T15:16:40Z</time>
      </trkpt>
      <trkpt lat="46.60069" lon="-1.8359">
        <ele>8.3</ele>
        <time>2020-06-03T15:16:41Z</time>
      </trkpt>
      <trkpt lat="46.60072" lon="-1.83594">
        <ele>8.4</ele>
        <time>2020-06-03T15:16:42Z</time>
      </trkpt>
      <trkpt lat="46.60075" lon="-1.83599">
        <ele>8.5</ele>
        <time>2020-06-03T15:16:43Z</time>
      </trkpt>
      <trkpt lat="46.60078" lon="-1.83603">
        <ele>8.5</ele>
        <time>2020-06-03T15:16:44Z</time>
      </trkpt>
      <trkpt lat="46.6008" lon="-1.83607">
        <ele>8.6</ele>
        <time>2020-06-03T15:16:45Z</time>
      </trkpt>
      <trkpt lat="46.60083" lon="-1.83612">
        <ele>8.7</ele>
        <time>2020-06-03T15:16:46Z</time>
      </trkpt>
      <trkpt lat="46.60086" lon="-1.83616">
        <ele>8.7</ele>
        <time>2020-06-03T15:16:47Z</time>
      </trkpt>
      <trkpt lat="46.60089" lon="-1.8362">
        <ele>8.8</ele>
        <time>2020-06-03T15:16:48Z</time>
      </trkpt>
      <trkpt lat="46.60093" lon="-1.83625">
        <ele>8.8</ele>
        <time>2020-06-03T15:16:49Z</time>
      </trkpt>
      <trkpt lat="46.60097" lon="-1.83629">
        <ele>8.8</ele>
        <time>2020-06-03T15:16:50Z</time>
      </trkpt>
      <trkpt lat="46.60101" lon="-1.83632">
        <ele>8.8</ele>
        <time>2020-06-03T15:16:51Z</time>
      </trkpt>
      <trkpt lat="46.60105" lon="-1.83635">
        <ele>8.8</ele>
        <time>2020-06-03T15:16:52Z</time>
      </trkpt>
      <trkpt lat="46.6011" lon="-1.83638">
        <ele>8.8</ele>
        <time>2020-06-03T15:16:53Z</time>
      </trkpt>
      <trkpt lat="46.60115" lon="-1.8364">
        <ele>8.8</ele>
        <time>2020-06-03T15:16:54Z</time>
      </trkpt>
      <trkpt lat="46.60121" lon="-1.83641">
        <ele>8.8</ele>
        <time>2020-06-03T15:16:55Z</time>
      </trkpt>
      <trkpt lat="46.60127" lon="-1.83641">
        <ele>8.8</ele>
        <time>2020-06-03T15:16:56Z</time>
      </trkpt>
      <trkpt lat="46.60133" lon="-1.83641">
        <ele>8.8</ele>
        <time>2020-06-03T15:16:57Z</time>
      </trkpt>
      <trkpt lat="46.60139" lon="-1.8364">
        <ele>8.8</ele>
        <time>2020-06-03T15:16:58Z</time>
      </trkpt>
      <trkpt lat="46.60145" lon="-1.83639">
        <ele>8.8</ele>
        <time>2020-06-03T15:16:59Z</time>
      </trkpt>
      <trkpt lat="46.6015" lon="-1.83639">
        <ele>8.8</ele>
        <time>2020-06-03T15:17:00Z</time>
      </trkpt>
      <trkpt lat="46.60156" lon="-1.83639">
        <ele>8.8</ele>
        <time>2020-06-03T15:17:01Z</time>
      </trkpt>
      <trkpt lat="46.60161" lon="-1.83639">
        <ele>8.7</ele>
        <time>2020-06-03T15:17:02Z</time>
      </trkpt>
      <trkpt lat="46.60166" lon="-1.83642">
        <ele>8.6</ele>
        <time>2020-06-03T15:17:03Z</time>
      </trkpt>
      <trkpt lat="46.60171" lon="-1.83647">
        <ele>8.6</ele>
        <time>2020-06-03T15:17:04Z</time>
      </trkpt>
      <trkpt lat="46.60176" lon="-1.8365">
        <ele>8.5</ele>
        <time>2020-06-03T15:17:05Z</time>
      </trkpt>
      <trkpt lat="46.60181" lon="-1.83655">
        <ele>8.4</ele>
        <time>2020-06-03T15:17:06Z</time>
      </trkpt>
      <trkpt lat="46.60185" lon="-1.83659">
        <ele>8.3</ele>
        <time>2020-06-03T15:17:07Z</time>
      </trkpt>
      <trkpt lat="46.60189" lon="-1.83664">
        <ele>8.2</ele>
        <time>2020-06-03T15:17:08Z</time>
      </trkpt>
      <trkpt lat="46.60193" lon="-1.8367">
        <ele>8</ele>
        <time>2020-06-03T15:17:09Z</time>
      </trkpt>
      <trkpt lat="46.60196" lon="-1.83676">
        <ele>7.9</ele>
        <time>2020-06-03T15:17:10Z</time>
      </trkpt>
      <trkpt lat="46.60199" lon="-1.83681">
        <ele>7.8</ele>
        <time>2020-06-03T15:17:11Z</time>
      </trkpt>
      <trkpt lat="46.60201" lon="-1.83687">
        <ele>7.8</ele>
        <time>2020-06-03T15:17:12Z</time>
      </trkpt>
      <trkpt lat="46.60205" lon="-1.83692">
        <ele>7.7</ele>
        <time>2020-06-03T15:17:13Z</time>
      </trkpt>
      <trkpt lat="46.60208" lon="-1.83698">
        <ele>7.6</ele>
        <time>2020-06-03T15:17:14Z</time>
      </trkpt>
      <trkpt lat="46.60211" lon="-1.83704">
        <ele>7.4</ele>
        <time>2020-06-03T15:17:15Z</time>
      </trkpt>
      <trkpt lat="46.60215" lon="-1.83709">
        <ele>7.4</ele>
        <time>2020-06-03T15:17:16Z</time>
      </trkpt>
      <trkpt lat="46.60218" lon="-1.83715">
        <ele>7.3</ele>
        <time>2020-06-03T15:17:17Z</time>
      </trkpt>
      <trkpt lat="46.60222" lon="-1.83719">
        <ele>7.2</ele>
        <time>2020-06-03T15:17:18Z</time>
      </trkpt>
      <trkpt lat="46.60226" lon="-1.83725">
        <ele>7.1</ele>
        <time>2020-06-03T15:17:19Z</time>
      </trkpt>
      <trkpt lat="46.6023" lon="-1.8373">
        <ele>7.1</ele>
        <time>2020-06-03T15:17:20Z</time>
      </trkpt>
      <trkpt lat="46.60233" lon="-1.83735">
        <ele>7</ele>
        <time>2020-06-03T15:17:21Z</time>
      </trkpt>
      <trkpt lat="46.60237" lon="-1.83739">
        <ele>6.9</ele>
        <time>2020-06-03T15:17:22Z</time>
      </trkpt>
      <trkpt lat="46.60241" lon="-1.83744">
        <ele>6.9</ele>
        <time>2020-06-03T15:17:23Z</time>
      </trkpt>
      <trkpt lat="46.60245" lon="-1.83749">
        <ele>6.8</ele>
        <time>2020-06-03T15:17:24Z</time>
      </trkpt>
      <trkpt lat="46.60249" lon="-1.83754">
        <ele>6.7</ele>
        <time>2020-06-03T15:17:25Z</time>
      </trkpt>
      <trkpt lat="46.60254" lon="-1.83761">
        <ele>6.6</ele>
        <time>2020-06-03T15:17:26Z</time>
      </trkpt>
      <trkpt lat="46.60257" lon="-1.83769">
        <ele>6.5</ele>
        <time>2020-06-03T15:17:27Z</time>
      </trkpt>
      <trkpt lat="46.60261" lon="-1.83776">
        <ele>6.4</ele>
        <time>2020-06-03T15:17:28Z</time>
      </trkpt>
      <trkpt lat="46.60265" lon="-1.83784">
        <ele>6.3</ele>
        <time>2020-06-03T15:17:29Z</time>
      </trkpt>
      <trkpt lat="46.60269" lon="-1.83791">
        <ele>6.2</ele>
        <time>2020-06-03T15:17:30Z</time>
      </trkpt>
      <trkpt lat="46.60272" lon="-1.83798">
        <ele>6.1</ele>
        <time>2020-06-03T15:17:31Z</time>
      </trkpt>
      <trkpt lat="46.60275" lon="-1.83806">
        <ele>6.1</ele>
        <time>2020-06-03T15:17:32Z</time>
      </trkpt>
      <trkpt lat="46.60278" lon="-1.83814">
        <ele>6</ele>
        <time>2020-06-03T15:17:33Z</time>
      </trkpt>
      <trkpt lat="46.60281" lon="-1.83821">
        <ele>6</ele>
        <time>2020-06-03T15:17:34Z</time>
      </trkpt>
      <trkpt lat="46.60284" lon="-1.83828">
        <ele>6</ele>
        <time>2020-06-03T15:17:35Z</time>
      </trkpt>
      <trkpt lat="46.60287" lon="-1.83834">
        <ele>6</ele>
        <time>2020-06-03T15:17:36Z</time>
      </trkpt>
      <trkpt lat="46.60289" lon="-1.83841">
        <ele>5.9</ele>
        <time>2020-06-03T15:17:37Z</time>
      </trkpt>
      <trkpt lat="46.60291" lon="-1.83848">
        <ele>5.9</ele>
        <time>2020-06-03T15:17:38Z</time>
      </trkpt>
      <trkpt lat="46.60293" lon="-1.83856">
        <ele>5.9</ele>
        <time>2020-06-03T15:17:39Z</time>
      </trkpt>
      <trkpt lat="46.60295" lon="-1.83862">
        <ele>5.9</ele>
        <time>2020-06-03T15:17:40Z</time>
      </trkpt>
      <trkpt lat="46.60296" lon="-1.83868">
        <ele>5.9</ele>
        <time>2020-06-03T15:17:41Z</time>
      </trkpt>
      <trkpt lat="46.60298" lon="-1.83873">
        <ele>5.8</ele>
        <time>2020-06-03T15:17:42Z</time>
      </trkpt>
      <trkpt lat="46.60301" lon="-1.83878">
        <ele>5.8</ele>
        <time>2020-06-03T15:17:43Z</time>
      </trkpt>
      <trkpt lat="46.60304" lon="-1.83884">
        <ele>5.8</ele>
        <time>2020-06-03T15:17:44Z</time>
      </trkpt>
      <trkpt lat="46.60306" lon="-1.8389">
        <ele>5.8</ele>
        <time>2020-06-03T15:17:45Z</time>
      </trkpt>
      <trkpt lat="46.60308" lon="-1.83896">
        <ele>5.9</ele>
        <time>2020-06-03T15:17:46Z</time>
      </trkpt>
      <trkpt lat="46.60311" lon="-1.83903">
        <ele>5.9</ele>
        <time>2020-06-03T15:17:47Z</time>
      </trkpt>
      <trkpt lat="46.60313" lon="-1.83911">
        <ele>5.9</ele>
        <time>2020-06-03T15:17:48Z</time>
      </trkpt>
      <trkpt lat="46.60315" lon="-1.83918">
        <ele>5.9</ele>
        <time>2020-06-03T15:17:49Z</time>
      </trkpt>
      <trkpt lat="46.60317" lon="-1.83926">
        <ele>5.9</ele>
        <time>2020-06-03T15:17:50Z</time>
      </trkpt>
      <trkpt lat="46.60319" lon="-1.83933">
        <ele>5.9</ele>
        <time>2020-06-03T15:17:51Z</time>
      </trkpt>
      <trkpt lat="46.60321" lon="-1.8394">
        <ele>5.9</ele>
        <time>2020-06-03T15:17:52Z</time>
      </trkpt>
      <trkpt lat="46.60323" lon="-1.83947">
        <ele>5.9</ele>
        <time>2020-06-03T15:17:53Z</time>
      </trkpt>
      <trkpt lat="46.60325" lon="-1.83954">
        <ele>5.9</ele>
        <time>2020-06-03T15:17:54Z</time>
      </trkpt>
      <trkpt lat="46.60327" lon="-1.8396">
        <ele>6</ele>
        <time>2020-06-03T15:17:55Z</time>
      </trkpt>
      <trkpt lat="46.60328" lon="-1.83966">
        <ele>6</ele>
        <time>2020-06-03T15:17:56Z</time>
      </trkpt>
      <trkpt lat="46.6033" lon="-1.83971">
        <ele>6</ele>
        <time>2020-06-03T15:17:57Z</time>
      </trkpt>
      <trkpt lat="46.60332" lon="-1.83977">
        <ele>6</ele>
        <time>2020-06-03T15:17:58Z</time>
      </trkpt>
      <trkpt lat="46.60335" lon="-1.83983">
        <ele>6</ele>
        <time>2020-06-03T15:17:59Z</time>
      </trkpt>
      <trkpt lat="46.60337" lon="-1.83988">
        <ele>6</ele>
        <time>2020-06-03T15:18:00Z</time>
      </trkpt>
      <trkpt lat="46.60341" lon="-1.83993">
        <ele>6</ele>
        <time>2020-06-03T15:18:01Z</time>
      </trkpt>
      <trkpt lat="46.60345" lon="-1.83997">
        <ele>6.1</ele>
        <time>2020-06-03T15:18:02Z</time>
      </trkpt>
      <trkpt lat="46.60349" lon="-1.84001">
        <ele>6.1</ele>
        <time>2020-06-03T15:18:03Z</time>
      </trkpt>
      <trkpt lat="46.60353" lon="-1.84006">
        <ele>6.1</ele>
        <time>2020-06-03T15:18:04Z</time>
      </trkpt>
      <trkpt lat="46.60358" lon="-1.84009">
        <ele>6.1</ele>
        <time>2020-06-03T15:18:05Z</time>
      </trkpt>
      <trkpt lat="46.60363" lon="-1.84012">
        <ele>6.1</ele>
        <time>2020-06-03T15:18:06Z</time>
      </trkpt>
      <trkpt lat="46.60368" lon="-1.84016">
        <ele>6.1</ele>
        <time>2020-06-03T15:18:07Z</time>
      </trkpt>
      <trkpt lat="46.60372" lon="-1.84019">
        <ele>6.1</ele>
        <time>2020-06-03T15:18:08Z</time>
      </trkpt>
      <trkpt lat="46.60376" lon="-1.84022">
        <ele>6.2</ele>
        <time>2020-06-03T15:18:09Z</time>
      </trkpt>
      <trkpt lat="46.60379" lon="-1.84025">
        <ele>6.2</ele>
        <time>2020-06-03T15:18:10Z</time>
      </trkpt>
      <trkpt lat="46.60383" lon="-1.84027">
        <ele>6.2</ele>
        <time>2020-06-03T15:18:11Z</time>
      </trkpt>
      <trkpt lat="46.60388" lon="-1.8403">
        <ele>6.3</ele>
        <time>2020-06-03T15:18:12Z</time>
      </trkpt>
      <trkpt lat="46.60392" lon="-1.84033">
        <ele>6.3</ele>
        <time>2020-06-03T15:18:13Z</time>
      </trkpt>
      <trkpt lat="46.60396" lon="-1.84037">
        <ele>6.3</ele>
        <time>2020-06-03T15:18:14Z</time>
      </trkpt>
      <trkpt lat="46.604" lon="-1.84043">
        <ele>6.4</ele>
        <time>2020-06-03T15:18:15Z</time>
      </trkpt>
      <trkpt lat="46.60403" lon="-1.84049">
        <ele>6.7</ele>
        <time>2020-06-03T15:18:16Z</time>
      </trkpt>
      <trkpt lat="46.60405" lon="-1.84055">
        <ele>6.8</ele>
        <time>2020-06-03T15:18:17Z</time>
      </trkpt>
      <trkpt lat="46.60405" lon="-1.84062">
        <ele>6.8</ele>
        <time>2020-06-03T15:18:18Z</time>
      </trkpt>
      <trkpt lat="46.60406" lon="-1.84069">
        <ele>6.8</ele>
        <time>2020-06-03T15:18:19Z</time>
      </trkpt>
      <trkpt lat="46.60406" lon="-1.84076">
        <ele>6.7</ele>
        <time>2020-06-03T15:18:20Z</time>
      </trkpt>
      <trkpt lat="46.60405" lon="-1.84083">
        <ele>6.6</ele>
        <time>2020-06-03T15:18:21Z</time>
      </trkpt>
      <trkpt lat="46.60404" lon="-1.84091">
        <ele>6.6</ele>
        <time>2020-06-03T15:18:22Z</time>
      </trkpt>
      <trkpt lat="46.60404" lon="-1.84098">
        <ele>6.5</ele>
        <time>2020-06-03T15:18:23Z</time>
      </trkpt>
      <trkpt lat="46.60404" lon="-1.84105">
        <ele>6.5</ele>
        <time>2020-06-03T15:18:24Z</time>
      </trkpt>
      <trkpt lat="46.60404" lon="-1.84112">
        <ele>6.4</ele>
        <time>2020-06-03T15:18:25Z</time>
      </trkpt>
      <trkpt lat="46.60405" lon="-1.8412">
        <ele>6.4</ele>
        <time>2020-06-03T15:18:26Z</time>
      </trkpt>
      <trkpt lat="46.60405" lon="-1.84127">
        <ele>6.3</ele>
        <time>2020-06-03T15:18:27Z</time>
      </trkpt>
      <trkpt lat="46.60405" lon="-1.84134">
        <ele>6.2</ele>
        <time>2020-06-03T15:18:28Z</time>
      </trkpt>
      <trkpt lat="46.60405" lon="-1.84142">
        <ele>6.2</ele>
        <time>2020-06-03T15:18:29Z</time>
      </trkpt>
      <trkpt lat="46.60405" lon="-1.8415">
        <ele>6.2</ele>
        <time>2020-06-03T15:18:30Z</time>
      </trkpt>
      <trkpt lat="46.60405" lon="-1.84158">
        <ele>6.1</ele>
        <time>2020-06-03T15:18:31Z</time>
      </trkpt>
      <trkpt lat="46.60404" lon="-1.84165">
        <ele>6.1</ele>
        <time>2020-06-03T15:18:32Z</time>
      </trkpt>
      <trkpt lat="46.60405" lon="-1.84173">
        <ele>6</ele>
        <time>2020-06-03T15:18:33Z</time>
      </trkpt>
      <trkpt lat="46.60405" lon="-1.84181">
        <ele>6</ele>
        <time>2020-06-03T15:18:34Z</time>
      </trkpt>
      <trkpt lat="46.60404" lon="-1.84189">
        <ele>5.9</ele>
        <time>2020-06-03T15:18:35Z</time>
      </trkpt>
      <trkpt lat="46.60405" lon="-1.84197">
        <ele>5.9</ele>
        <time>2020-06-03T15:18:36Z</time>
      </trkpt>
      <trkpt lat="46.60404" lon="-1.84205">
        <ele>5.8</ele>
        <time>2020-06-03T15:18:37Z</time>
      </trkpt>
      <trkpt lat="46.60404" lon="-1.84212">
        <ele>5.8</ele>
        <time>2020-06-03T15:18:38Z</time>
      </trkpt>
      <trkpt lat="46.60403" lon="-1.84219">
        <ele>5.9</ele>
        <time>2020-06-03T15:18:39Z</time>
      </trkpt>
      <trkpt lat="46.60402" lon="-1.84226">
        <ele>5.9</ele>
        <time>2020-06-03T15:18:40Z</time>
      </trkpt>
      <trkpt lat="46.604" lon="-1.84232">
        <ele>5.9</ele>
        <time>2020-06-03T15:18:41Z</time>
      </trkpt>
      <trkpt lat="46.60398" lon="-1.84238">
        <ele>5.9</ele>
        <time>2020-06-03T15:18:42Z</time>
      </trkpt>
      <trkpt lat="46.60397" lon="-1.84245">
        <ele>5.9</ele>
        <time>2020-06-03T15:18:43Z</time>
      </trkpt>
      <trkpt lat="46.60395" lon="-1.8425">
        <ele>5.9</ele>
        <time>2020-06-03T15:18:44Z</time>
      </trkpt>
      <trkpt lat="46.60394" lon="-1.84256">
        <ele>5.9</ele>
        <time>2020-06-03T15:18:45Z</time>
      </trkpt>
      <trkpt lat="46.60392" lon="-1.84263">
        <ele>5.9</ele>
        <time>2020-06-03T15:18:46Z</time>
      </trkpt>
      <trkpt lat="46.60392" lon="-1.84269">
        <ele>5.9</ele>
        <time>2020-06-03T15:18:47Z</time>
      </trkpt>
      <trkpt lat="46.60391" lon="-1.84277">
        <ele>5.8</ele>
        <time>2020-06-03T15:18:48Z</time>
      </trkpt>
      <trkpt lat="46.60389" lon="-1.84283">
        <ele>5.8</ele>
        <time>2020-06-03T15:18:49Z</time>
      </trkpt>
      <trkpt lat="46.60387" lon="-1.8429">
        <ele>5.7</ele>
        <time>2020-06-03T15:18:50Z</time>
      </trkpt>
      <trkpt lat="46.60387" lon="-1.84297">
        <ele>5.7</ele>
        <time>2020-06-03T15:18:51Z</time>
      </trkpt>
      <trkpt lat="46.60387" lon="-1.84305">
        <ele>5.6</ele>
        <time>2020-06-03T15:18:52Z</time>
      </trkpt>
      <trkpt lat="46.60387" lon="-1.84313">
        <ele>5.6</ele>
        <time>2020-06-03T15:18:53Z</time>
      </trkpt>
      <trkpt lat="46.60387" lon="-1.84321">
        <ele>5.5</ele>
        <time>2020-06-03T15:18:54Z</time>
      </trkpt>
      <trkpt lat="46.60386" lon="-1.84329">
        <ele>5.5</ele>
        <time>2020-06-03T15:18:55Z</time>
      </trkpt>
      <trkpt lat="46.60386" lon="-1.84338">
        <ele>5.5</ele>
        <time>2020-06-03T15:18:56Z</time>
      </trkpt>
      <trkpt lat="46.60388" lon="-1.84346">
        <ele>5.5</ele>
        <time>2020-06-03T15:18:57Z</time>
      </trkpt>
      <trkpt lat="46.6039" lon="-1.84354">
        <ele>5.5</ele>
        <time>2020-06-03T15:18:58Z</time>
      </trkpt>
      <trkpt lat="46.6039" lon="-1.84362">
        <ele>5.5</ele>
        <time>2020-06-03T15:18:59Z</time>
      </trkpt>
      <trkpt lat="46.6039" lon="-1.8437">
        <ele>5.5</ele>
        <time>2020-06-03T15:19:00Z</time>
      </trkpt>
      <trkpt lat="46.60391" lon="-1.84379">
        <ele>5.4</ele>
        <time>2020-06-03T15:19:01Z</time>
      </trkpt>
      <trkpt lat="46.60391" lon="-1.84388">
        <ele>5.3</ele>
        <time>2020-06-03T15:19:02Z</time>
      </trkpt>
      <trkpt lat="46.6039" lon="-1.84396">
        <ele>5.2</ele>
        <time>2020-06-03T15:19:03Z</time>
      </trkpt>
      <trkpt lat="46.6039" lon="-1.84405">
        <ele>5.1</ele>
        <time>2020-06-03T15:19:04Z</time>
      </trkpt>
      <trkpt lat="46.60389" lon="-1.84413">
        <ele>5</ele>
        <time>2020-06-03T15:19:05Z</time>
      </trkpt>
      <trkpt lat="46.60389" lon="-1.84422">
        <ele>4.9</ele>
        <time>2020-06-03T15:19:06Z</time>
      </trkpt>
      <trkpt lat="46.60389" lon="-1.84431">
        <ele>4.7</ele>
        <time>2020-06-03T15:19:07Z</time>
      </trkpt>
      <trkpt lat="46.60387" lon="-1.84439">
        <ele>4.6</ele>
        <time>2020-06-03T15:19:08Z</time>
      </trkpt>
      <trkpt lat="46.60386" lon="-1.84447">
        <ele>4.5</ele>
        <time>2020-06-03T15:19:09Z</time>
      </trkpt>
      <trkpt lat="46.60384" lon="-1.84455">
        <ele>4.3</ele>
        <time>2020-06-03T15:19:10Z</time>
      </trkpt>
      <trkpt lat="46.60381" lon="-1.84462">
        <ele>4.2</ele>
        <time>2020-06-03T15:19:11Z</time>
      </trkpt>
      <trkpt lat="46.60376" lon="-1.84467">
        <ele>4.1</ele>
        <time>2020-06-03T15:19:12Z</time>
      </trkpt>
      <trkpt lat="46.60371" lon="-1.84472">
        <ele>4</ele>
        <time>2020-06-03T15:19:13Z</time>
      </trkpt>
      <trkpt lat="46.60366" lon="-1.84478">
        <ele>3.7</ele>
        <time>2020-06-03T15:19:14Z</time>
      </trkpt>
      <trkpt lat="46.60363" lon="-1.84484">
        <ele>3.7</ele>
        <time>2020-06-03T15:19:15Z</time>
      </trkpt>
      <trkpt lat="46.6036" lon="-1.84489">
        <ele>3.7</ele>
        <time>2020-06-03T15:19:16Z</time>
      </trkpt>
      <trkpt lat="46.6036" lon="-1.84495">
        <ele>3.7</ele>
        <time>2020-06-03T15:19:17Z</time>
      </trkpt>
      <trkpt lat="46.60359" lon="-1.84501">
        <ele>3.7</ele>
        <time>2020-06-03T15:19:18Z</time>
      </trkpt>
      <trkpt lat="46.60358" lon="-1.84508">
        <ele>3.7</ele>
        <time>2020-06-03T15:19:19Z</time>
      </trkpt>
      <trkpt lat="46.60357" lon="-1.84516">
        <ele>3.7</ele>
        <time>2020-06-03T15:19:20Z</time>
      </trkpt>
      <trkpt lat="46.60358" lon="-1.84523">
        <ele>3.7</ele>
        <time>2020-06-03T15:19:21Z</time>
      </trkpt>
      <trkpt lat="46.60358" lon="-1.8453">
        <ele>3.7</ele>
        <time>2020-06-03T15:19:22Z</time>
      </trkpt>
      <trkpt lat="46.60358" lon="-1.84538">
        <ele>3.7</ele>
        <time>2020-06-03T15:19:23Z</time>
      </trkpt>
      <trkpt lat="46.60358" lon="-1.84545">
        <ele>3.7</ele>
        <time>2020-06-03T15:19:24Z</time>
      </trkpt>
      <trkpt lat="46.60358" lon="-1.84553">
        <ele>3.7</ele>
        <time>2020-06-03T15:19:25Z</time>
      </trkpt>
      <trkpt lat="46.60359" lon="-1.8456">
        <ele>3.7</ele>
        <time>2020-06-03T15:19:26Z</time>
      </trkpt>
      <trkpt lat="46.60359" lon="-1.84567">
        <ele>3.7</ele>
        <time>2020-06-03T15:19:27Z</time>
      </trkpt>
      <trkpt lat="46.60359" lon="-1.84573">
        <ele>3.7</ele>
        <time>2020-06-03T15:19:28Z</time>
      </trkpt>
      <trkpt lat="46.60358" lon="-1.84579">
        <ele>3.8</ele>
        <time>2020-06-03T15:19:29Z</time>
      </trkpt>
      <trkpt lat="46.60358" lon="-1.84585">
        <ele>3.8</ele>
        <time>2020-06-03T15:19:30Z</time>
      </trkpt>
      <trkpt lat="46.60357" lon="-1.84591">
        <ele>3.8</ele>
        <time>2020-06-03T15:19:31Z</time>
      </trkpt>
      <trkpt lat="46.60356" lon="-1.84599">
        <ele>3.9</ele>
        <time>2020-06-03T15:19:32Z</time>
      </trkpt>
      <trkpt lat="46.60355" lon="-1.84605">
        <ele>3.9</ele>
        <time>2020-06-03T15:19:33Z</time>
      </trkpt>
      <trkpt lat="46.60354" lon="-1.84611">
        <ele>3.9</ele>
        <time>2020-06-03T15:19:34Z</time>
      </trkpt>
      <trkpt lat="46.60352" lon="-1.84617">
        <ele>4</ele>
        <time>2020-06-03T15:19:35Z</time>
      </trkpt>
      <trkpt lat="46.60351" lon="-1.84623">
        <ele>4</ele>
        <time>2020-06-03T15:19:36Z</time>
      </trkpt>
      <trkpt lat="46.6035" lon="-1.84629">
        <ele>4</ele>
        <time>2020-06-03T15:19:37Z</time>
      </trkpt>
      <trkpt lat="46.60349" lon="-1.84634">
        <ele>4.1</ele>
        <time>2020-06-03T15:19:38Z</time>
      </trkpt>
      <trkpt lat="46.60349" lon="-1.8464">
        <ele>4.1</ele>
        <time>2020-06-03T15:19:39Z</time>
      </trkpt>
      <trkpt lat="46.60349" lon="-1.84646">
        <ele>4.1</ele>
        <time>2020-06-03T15:19:40Z</time>
      </trkpt>
      <trkpt lat="46.60349" lon="-1.84653">
        <ele>4.2</ele>
        <time>2020-06-03T15:19:41Z</time>
      </trkpt>
      <trkpt lat="46.60348" lon="-1.84658">
        <ele>4.2</ele>
        <time>2020-06-03T15:19:42Z</time>
      </trkpt>
      <trkpt lat="46.60348" lon="-1.84664">
        <ele>4.2</ele>
        <time>2020-06-03T15:19:43Z</time>
      </trkpt>
      <trkpt lat="46.60347" lon="-1.8467">
        <ele>4.2</ele>
        <time>2020-06-03T15:19:44Z</time>
      </trkpt>
      <trkpt lat="46.60347" lon="-1.84677">
        <ele>4.3</ele>
        <time>2020-06-03T15:19:45Z</time>
      </trkpt>
      <trkpt lat="46.60346" lon="-1.84683">
        <ele>4.3</ele>
        <time>2020-06-03T15:19:46Z</time>
      </trkpt>
      <trkpt lat="46.60345" lon="-1.84687">
        <ele>4.3</ele>
        <time>2020-06-03T15:19:47Z</time>
      </trkpt>
      <trkpt lat="46.60344" lon="-1.84693">
        <ele>4.3</ele>
        <time>2020-06-03T15:19:48Z</time>
      </trkpt>
      <trkpt lat="46.60342" lon="-1.84698">
        <ele>4.3</ele>
        <time>2020-06-03T15:19:49Z</time>
      </trkpt>
      <trkpt lat="46.60339" lon="-1.84702">
        <ele>4.4</ele>
        <time>2020-06-03T15:19:50Z</time>
      </trkpt>
      <trkpt lat="46.60338" lon="-1.84706">
        <ele>4.4</ele>
        <time>2020-06-03T15:19:51Z</time>
      </trkpt>
      <trkpt lat="46.60335" lon="-1.8471">
        <ele>4.4</ele>
        <time>2020-06-03T15:19:52Z</time>
      </trkpt>
      <trkpt lat="46.60333" lon="-1.84712">
        <ele>4.4</ele>
        <time>2020-06-03T15:19:53Z</time>
      </trkpt>
      <trkpt lat="46.60332" lon="-1.84716">
        <ele>4.4</ele>
        <time>2020-06-03T15:19:54Z</time>
      </trkpt>
      <trkpt lat="46.6033" lon="-1.8472">
        <ele>4.5</ele>
        <time>2020-06-03T15:19:55Z</time>
      </trkpt>
      <trkpt lat="46.60327" lon="-1.84724">
        <ele>4.5</ele>
        <time>2020-06-03T15:19:56Z</time>
      </trkpt>
      <trkpt lat="46.60324" lon="-1.84728">
        <ele>4.6</ele>
        <time>2020-06-03T15:19:57Z</time>
      </trkpt>
      <trkpt lat="46.60322" lon="-1.84733">
        <ele>4.6</ele>
        <time>2020-06-03T15:19:58Z</time>
      </trkpt>
      <trkpt lat="46.60321" lon="-1.84738">
        <ele>4.6</ele>
        <time>2020-06-03T15:19:59Z</time>
      </trkpt>
      <trkpt lat="46.60318" lon="-1.84743">
        <ele>4.7</ele>
        <time>2020-06-03T15:20:00Z</time>
      </trkpt>
      <trkpt lat="46.60317" lon="-1.84748">
        <ele>4.7</ele>
        <time>2020-06-03T15:20:01Z</time>
      </trkpt>
      <trkpt lat="46.60315" lon="-1.84755">
        <ele>4.8</ele>
        <time>2020-06-03T15:20:02Z</time>
      </trkpt>
      <trkpt lat="46.60314" lon="-1.8476">
        <ele>4.8</ele>
        <time>2020-06-03T15:20:03Z</time>
      </trkpt>
      <trkpt lat="46.60313" lon="-1.84765">
        <ele>4.8</ele>
        <time>2020-06-03T15:20:04Z</time>
      </trkpt>
      <trkpt lat="46.60311" lon="-1.84771">
        <ele>4.9</ele>
        <time>2020-06-03T15:20:05Z</time>
      </trkpt>
      <trkpt lat="46.6031" lon="-1.84776">
        <ele>4.9</ele>
        <time>2020-06-03T15:20:06Z</time>
      </trkpt>
      <trkpt lat="46.60309" lon="-1.84782">
        <ele>4.9</ele>
        <time>2020-06-03T15:20:07Z</time>
      </trkpt>
      <trkpt lat="46.60307" lon="-1.84787">
        <ele>4.9</ele>
        <time>2020-06-03T15:20:08Z</time>
      </trkpt>
      <trkpt lat="46.60306" lon="-1.84793">
        <ele>4.9</ele>
        <time>2020-06-03T15:20:09Z</time>
      </trkpt>
      <trkpt lat="46.60305" lon="-1.84798">
        <ele>4.9</ele>
        <time>2020-06-03T15:20:10Z</time>
      </trkpt>
      <trkpt lat="46.60305" lon="-1.84804">
        <ele>5</ele>
        <time>2020-06-03T15:20:11Z</time>
      </trkpt>
      <trkpt lat="46.60304" lon="-1.84808">
        <ele>5</ele>
        <time>2020-06-03T15:20:12Z</time>
      </trkpt>
      <trkpt lat="46.60303" lon="-1.84813">
        <ele>5</ele>
        <time>2020-06-03T15:20:13Z</time>
      </trkpt>
      <trkpt lat="46.60302" lon="-1.8482">
        <ele>5.1</ele>
        <time>2020-06-03T15:20:14Z</time>
      </trkpt>
      <trkpt lat="46.603" lon="-1.84826">
        <ele>5.1</ele>
        <time>2020-06-03T15:20:15Z</time>
      </trkpt>
      <trkpt lat="46.60299" lon="-1.84833">
        <ele>5.1</ele>
        <time>2020-06-03T15:20:16Z</time>
      </trkpt>
      <trkpt lat="46.60299" lon="-1.84838">
        <ele>5.2</ele>
        <time>2020-06-03T15:20:17Z</time>
      </trkpt>
      <trkpt lat="46.60298" lon="-1.84843">
        <ele>5.2</ele>
        <time>2020-06-03T15:20:18Z</time>
      </trkpt>
      <trkpt lat="46.60297" lon="-1.84848">
        <ele>5.2</ele>
        <time>2020-06-03T15:20:19Z</time>
      </trkpt>
      <trkpt lat="46.60297" lon="-1.84853">
        <ele>5.3</ele>
        <time>2020-06-03T15:20:20Z</time>
      </trkpt>
      <trkpt lat="46.60296" lon="-1.84857">
        <ele>5.3</ele>
        <time>2020-06-03T15:20:21Z</time>
      </trkpt>
      <trkpt lat="46.60295" lon="-1.84861">
        <ele>5.3</ele>
        <time>2020-06-03T15:20:22Z</time>
      </trkpt>
      <trkpt lat="46.60294" lon="-1.84867">
        <ele>5.3</ele>
        <time>2020-06-03T15:20:23Z</time>
      </trkpt>
      <trkpt lat="46.60293" lon="-1.84871">
        <ele>5.3</ele>
        <time>2020-06-03T15:20:24Z</time>
      </trkpt>
      <trkpt lat="46.60292" lon="-1.84876">
        <ele>5.4</ele>
        <time>2020-06-03T15:20:25Z</time>
      </trkpt>
      <trkpt lat="46.60291" lon="-1.84882">
        <ele>5.4</ele>
        <time>2020-06-03T15:20:26Z</time>
      </trkpt>
      <trkpt lat="46.6029" lon="-1.84887">
        <ele>5.4</ele>
        <time>2020-06-03T15:20:27Z</time>
      </trkpt>
      <trkpt lat="46.60289" lon="-1.84892">
        <ele>5.4</ele>
        <time>2020-06-03T15:20:28Z</time>
      </trkpt>
      <trkpt lat="46.60288" lon="-1.84898">
        <ele>5.4</ele>
        <time>2020-06-03T15:20:29Z</time>
      </trkpt>
      <trkpt lat="46.60287" lon="-1.84902">
        <ele>5.4</ele>
        <time>2020-06-03T15:20:30Z</time>
      </trkpt>
      <trkpt lat="46.60286" lon="-1.84907">
        <ele>5.4</ele>
        <time>2020-06-03T15:20:31Z</time>
      </trkpt>
      <trkpt lat="46.60285" lon="-1.84913">
        <ele>5.4</ele>
        <time>2020-06-03T15:20:32Z</time>
      </trkpt>
      <trkpt lat="46.60284" lon="-1.84919">
        <ele>5.4</ele>
        <time>2020-06-03T15:20:33Z</time>
      </trkpt>
      <trkpt lat="46.60283" lon="-1.84925">
        <ele>5.4</ele>
        <time>2020-06-03T15:20:34Z</time>
      </trkpt>
      <trkpt lat="46.60282" lon="-1.8493">
        <ele>5.4</ele>
        <time>2020-06-03T15:20:35Z</time>
      </trkpt>
      <trkpt lat="46.6028" lon="-1.84936">
        <ele>5.4</ele>
        <time>2020-06-03T15:20:36Z</time>
      </trkpt>
      <trkpt lat="46.6028" lon="-1.84941">
        <ele>5.5</ele>
        <time>2020-06-03T15:20:37Z</time>
      </trkpt>
      <trkpt lat="46.60278" lon="-1.84947">
        <ele>5.5</ele>
        <time>2020-06-03T15:20:38Z</time>
      </trkpt>
      <trkpt lat="46.60278" lon="-1.84954">
        <ele>5.6</ele>
        <time>2020-06-03T15:20:39Z</time>
      </trkpt>
      <trkpt lat="46.60276" lon="-1.84961">
        <ele>5.7</ele>
        <time>2020-06-03T15:20:40Z</time>
      </trkpt>
      <trkpt lat="46.60275" lon="-1.84967">
        <ele>5.8</ele>
        <time>2020-06-03T15:20:41Z</time>
      </trkpt>
      <trkpt lat="46.60273" lon="-1.84974">
        <ele>5.9</ele>
        <time>2020-06-03T15:20:42Z</time>
      </trkpt>
      <trkpt lat="46.60272" lon="-1.8498">
        <ele>6</ele>
        <time>2020-06-03T15:20:43Z</time>
      </trkpt>
      <trkpt lat="46.60271" lon="-1.84987">
        <ele>6.1</ele>
        <time>2020-06-03T15:20:44Z</time>
      </trkpt>
      <trkpt lat="46.6027" lon="-1.84993">
        <ele>6.2</ele>
        <time>2020-06-03T15:20:45Z</time>
      </trkpt>
      <trkpt lat="46.60269" lon="-1.84999">
        <ele>6.4</ele>
        <time>2020-06-03T15:20:46Z</time>
      </trkpt>
      <trkpt lat="46.60268" lon="-1.85005">
        <ele>6.4</ele>
        <time>2020-06-03T15:20:47Z</time>
      </trkpt>
      <trkpt lat="46.60268" lon="-1.85011">
        <ele>6.4</ele>
        <time>2020-06-03T15:20:48Z</time>
      </trkpt>
      <trkpt lat="46.60267" lon="-1.85015">
        <ele>6.4</ele>
        <time>2020-06-03T15:20:49Z</time>
      </trkpt>
      <trkpt lat="46.60267" lon="-1.85017">
        <ele>6.4</ele>
        <time>2020-06-03T15:20:50Z</time>
      </trkpt>
      <trkpt lat="46.60267" lon="-1.8502">
        <ele>6.4</ele>
        <time>2020-06-03T15:20:51Z</time>
      </trkpt>
      <trkpt lat="46.60268" lon="-1.85022">
        <ele>6.5</ele>
        <time>2020-06-03T15:20:52Z</time>
      </trkpt>
      <trkpt lat="46.60268" lon="-1.85024">
        <ele>6.5</ele>
        <time>2020-06-03T15:20:53Z</time>
      </trkpt>
      <trkpt lat="46.60269" lon="-1.85025">
        <ele>6.5</ele>
        <time>2020-06-03T15:20:54Z</time>
      </trkpt>
      <trkpt lat="46.60269" lon="-1.85028">
        <ele>6.5</ele>
        <time>2020-06-03T15:20:55Z</time>
      </trkpt>
      <trkpt lat="46.60269" lon="-1.8503">
        <ele>6.5</ele>
        <time>2020-06-03T15:20:56Z</time>
      </trkpt>
      <trkpt lat="46.60268" lon="-1.85032">
        <ele>6.5</ele>
        <time>2020-06-03T15:20:57Z</time>
      </trkpt>
      <trkpt lat="46.60268" lon="-1.85034">
        <ele>6.5</ele>
        <time>2020-06-03T15:20:58Z</time>
      </trkpt>
      <trkpt lat="46.60267" lon="-1.85036">
        <ele>6.5</ele>
        <time>2020-06-03T15:20:59Z</time>
      </trkpt>
      <trkpt lat="46.60268" lon="-1.85039">
        <ele>6.5</ele>
        <time>2020-06-03T15:21:00Z</time>
      </trkpt>
      <trkpt lat="46.60269" lon="-1.85041">
        <ele>6.5</ele>
        <time>2020-06-03T15:21:01Z</time>
      </trkpt>
      <trkpt lat="46.60269" lon="-1.85044">
        <ele>6.5</ele>
        <time>2020-06-03T15:21:02Z</time>
      </trkpt>
      <trkpt lat="46.6027" lon="-1.85044">
        <ele>6.5</ele>
        <time>2020-06-03T15:21:03Z</time>
      </trkpt>
      <trkpt lat="46.60271" lon="-1.85043">
        <ele>6.5</ele>
        <time>2020-06-03T15:21:04Z</time>
      </trkpt>
      <trkpt lat="46.60271" lon="-1.85043">
        <ele>6.5</ele>
        <time>2020-06-03T15:21:05Z</time>
      </trkpt>
      <trkpt lat="46.60272" lon="-1.85042">
        <ele>6.5</ele>
        <time>2020-06-03T15:21:06Z</time>
      </trkpt>
      <trkpt lat="46.60272" lon="-1.85041">
        <ele>6.5</ele>
        <time>2020-06-03T15:21:07Z</time>
      </trkpt>
      <trkpt lat="46.60273" lon="-1.8504">
        <ele>6.6</ele>
        <time>2020-06-03T15:21:08Z</time>
      </trkpt>
      <trkpt lat="46.60273" lon="-1.8504">
        <ele>6.6</ele>
        <time>2020-06-03T15:21:09Z</time>
      </trkpt>
      <trkpt lat="46.60274" lon="-1.85039">
        <ele>6.6</ele>
        <time>2020-06-03T15:21:10Z</time>
      </trkpt>
      <trkpt lat="46.60274" lon="-1.85038">
        <ele>6.6</ele>
        <time>2020-06-03T15:21:11Z</time>
      </trkpt>
      <trkpt lat="46.60275" lon="-1.85038">
        <ele>6.6</ele>
        <time>2020-06-03T15:21:12Z</time>
      </trkpt>
      <trkpt lat="46.60275" lon="-1.85037">
        <ele>6.6</ele>
        <time>2020-06-03T15:21:13Z</time>
      </trkpt>
      <trkpt lat="46.60276" lon="-1.85036">
        <ele>6.6</ele>
        <time>2020-06-03T15:21:14Z</time>
      </trkpt>
      <trkpt lat="46.60276" lon="-1.85036">
        <ele>6.5</ele>
        <time>2020-06-03T15:21:31Z</time>
      </trkpt>
      <trkpt lat="46.60277" lon="-1.85035">
        <ele>6.5</ele>
        <time>2020-06-03T15:21:32Z</time>
      </trkpt>
      <trkpt lat="46.60277" lon="-1.85034">
        <ele>6.5</ele>
        <time>2020-06-03T15:21:33Z</time>
      </trkpt>
      <trkpt lat="46.60279" lon="-1.8503">
        <ele>6.5</ele>
        <time>2020-06-03T15:21:34Z</time>
      </trkpt>
      <trkpt lat="46.6028" lon="-1.8503">
        <ele>6.5</ele>
        <time>2020-06-03T15:21:35Z</time>
      </trkpt>
      <trkpt lat="46.60283" lon="-1.85029">
        <ele>6.5</ele>
        <time>2020-06-03T15:21:36Z</time>
      </trkpt>
      <trkpt lat="46.60284" lon="-1.85028">
        <ele>6.5</ele>
        <time>2020-06-03T15:21:37Z</time>
      </trkpt>
      <trkpt lat="46.60286" lon="-1.85028">
        <ele>6.5</ele>
        <time>2020-06-03T15:21:38Z</time>
      </trkpt>
      <trkpt lat="46.60287" lon="-1.85028">
        <ele>6.5</ele>
        <time>2020-06-03T15:21:39Z</time>
      </trkpt>
      <trkpt lat="46.60291" lon="-1.85028">
        <ele>6.5</ele>
        <time>2020-06-03T15:21:40Z</time>
      </trkpt>
      <trkpt lat="46.60293" lon="-1.85028">
        <ele>6.5</ele>
        <time>2020-06-03T15:21:41Z</time>
      </trkpt>
      <trkpt lat="46.60296" lon="-1.85029">
        <ele>6.5</ele>
        <time>2020-06-03T15:21:42Z</time>
      </trkpt>
      <trkpt lat="46.60299" lon="-1.85032">
        <ele>6.5</ele>
        <time>2020-06-03T15:21:43Z</time>
      </trkpt>
      <trkpt lat="46.60303" lon="-1.85033">
        <ele>6.5</ele>
        <time>2020-06-03T15:21:44Z</time>
      </trkpt>
      <trkpt lat="46.60306" lon="-1.85035">
        <ele>6.5</ele>
        <time>2020-06-03T15:21:45Z</time>
      </trkpt>
      <trkpt lat="46.60309" lon="-1.85036">
        <ele>6.5</ele>
        <time>2020-06-03T15:21:46Z</time>
      </trkpt>
      <trkpt lat="46.60309" lon="-1.85036">
        <ele>6.5</ele>
        <time>2020-06-03T15:21:47Z</time>
      </trkpt>
      <trkpt lat="46.60312" lon="-1.85037">
        <ele>6.4</ele>
        <time>2020-06-03T15:21:48Z</time>
      </trkpt>
      <trkpt lat="46.60313" lon="-1.85037">
        <ele>6.4</ele>
        <time>2020-06-03T15:21:49Z</time>
      </trkpt>
      <trkpt lat="46.60317" lon="-1.85038">
        <ele>6.4</ele>
        <time>2020-06-03T15:21:50Z</time>
      </trkpt>
      <trkpt lat="46.60318" lon="-1.85039">
        <ele>6.4</ele>
        <time>2020-06-03T15:21:51Z</time>
      </trkpt>
      <trkpt lat="46.60321" lon="-1.8504">
        <ele>6.5</ele>
        <time>2020-06-03T15:21:52Z</time>
      </trkpt>
      <trkpt lat="46.60324" lon="-1.85042">
        <ele>6.5</ele>
        <time>2020-06-03T15:21:53Z</time>
      </trkpt>
      <trkpt lat="46.60327" lon="-1.85044">
        <ele>6.5</ele>
        <time>2020-06-03T15:21:54Z</time>
      </trkpt>
      <trkpt lat="46.6033" lon="-1.85046">
        <ele>6.5</ele>
        <time>2020-06-03T15:21:55Z</time>
      </trkpt>
      <trkpt lat="46.60333" lon="-1.85048">
        <ele>6.6</ele>
        <time>2020-06-03T15:21:56Z</time>
      </trkpt>
      <trkpt lat="46.60337" lon="-1.85049">
        <ele>6.6</ele>
        <time>2020-06-03T15:21:57Z</time>
      </trkpt>
      <trkpt lat="46.6034" lon="-1.85049">
        <ele>6.7</ele>
        <time>2020-06-03T15:21:58Z</time>
      </trkpt>
      <trkpt lat="46.60342" lon="-1.85051">
        <ele>6.7</ele>
        <time>2020-06-03T15:21:59Z</time>
      </trkpt>
      <trkpt lat="46.60345" lon="-1.85053">
        <ele>6.8</ele>
        <time>2020-06-03T15:22:00Z</time>
      </trkpt>
      <trkpt lat="46.60347" lon="-1.85054">
        <ele>6.9</ele>
        <time>2020-06-03T15:22:01Z</time>
      </trkpt>
      <trkpt lat="46.6035" lon="-1.85056">
        <ele>6.9</ele>
        <time>2020-06-03T15:22:02Z</time>
      </trkpt>
      <trkpt lat="46.60354" lon="-1.85057">
        <ele>7</ele>
        <time>2020-06-03T15:22:03Z</time>
      </trkpt>
      <trkpt lat="46.60356" lon="-1.85059">
        <ele>7.1</ele>
        <time>2020-06-03T15:22:04Z</time>
      </trkpt>
      <trkpt lat="46.60359" lon="-1.8506">
        <ele>7.1</ele>
        <time>2020-06-03T15:22:05Z</time>
      </trkpt>
      <trkpt lat="46.60362" lon="-1.85061">
        <ele>7.2</ele>
        <time>2020-06-03T15:22:06Z</time>
      </trkpt>
      <trkpt lat="46.60366" lon="-1.85062">
        <ele>7.3</ele>
        <time>2020-06-03T15:22:07Z</time>
      </trkpt>
      <trkpt lat="46.60369" lon="-1.85063">
        <ele>7.4</ele>
        <time>2020-06-03T15:22:08Z</time>
      </trkpt>
      <trkpt lat="46.60372" lon="-1.85065">
        <ele>7.5</ele>
        <time>2020-06-03T15:22:09Z</time>
      </trkpt>
      <trkpt lat="46.60375" lon="-1.85066">
        <ele>7.5</ele>
        <time>2020-06-03T15:22:10Z</time>
      </trkpt>
      <trkpt lat="46.60378" lon="-1.85068">
        <ele>7.6</ele>
        <time>2020-06-03T15:22:11Z</time>
      </trkpt>
      <trkpt lat="46.60382" lon="-1.8507">
        <ele>7.7</ele>
        <time>2020-06-03T15:22:12Z</time>
      </trkpt>
      <trkpt lat="46.60383" lon="-1.85071">
        <ele>7.7</ele>
        <time>2020-06-03T15:22:13Z</time>
      </trkpt>
      <trkpt lat="46.60386" lon="-1.85073">
        <ele>7.8</ele>
        <time>2020-06-03T15:22:14Z</time>
      </trkpt>
      <trkpt lat="46.60389" lon="-1.85075">
        <ele>7.8</ele>
        <time>2020-06-03T15:22:15Z</time>
      </trkpt>
      <trkpt lat="46.60392" lon="-1.85076">
        <ele>7.8</ele>
        <time>2020-06-03T15:22:16Z</time>
      </trkpt>
      <trkpt lat="46.60396" lon="-1.85077">
        <ele>7.9</ele>
        <time>2020-06-03T15:22:17Z</time>
      </trkpt>
      <trkpt lat="46.60399" lon="-1.85078">
        <ele>7.9</ele>
        <time>2020-06-03T15:22:18Z</time>
      </trkpt>
      <trkpt lat="46.60402" lon="-1.85079">
        <ele>8</ele>
        <time>2020-06-03T15:22:19Z</time>
      </trkpt>
      <trkpt lat="46.60405" lon="-1.85081">
        <ele>8</ele>
        <time>2020-06-03T15:22:20Z</time>
      </trkpt>
      <trkpt lat="46.60408" lon="-1.85082">
        <ele>8</ele>
        <time>2020-06-03T15:22:21Z</time>
      </trkpt>
      <trkpt lat="46.60411" lon="-1.85083">
        <ele>8.1</ele>
        <time>2020-06-03T15:22:22Z</time>
      </trkpt>
      <trkpt lat="46.60414" lon="-1.85085">
        <ele>8.1</ele>
        <time>2020-06-03T15:22:23Z</time>
      </trkpt>
      <trkpt lat="46.60418" lon="-1.85087">
        <ele>8.1</ele>
        <time>2020-06-03T15:22:24Z</time>
      </trkpt>
      <trkpt lat="46.60422" lon="-1.85089">
        <ele>8.2</ele>
        <time>2020-06-03T15:22:25Z</time>
      </trkpt>
      <trkpt lat="46.60426" lon="-1.85091">
        <ele>8.2</ele>
        <time>2020-06-03T15:22:26Z</time>
      </trkpt>
      <trkpt lat="46.6043" lon="-1.85093">
        <ele>8.2</ele>
        <time>2020-06-03T15:22:27Z</time>
      </trkpt>
      <trkpt lat="46.60434" lon="-1.85095">
        <ele>8.2</ele>
        <time>2020-06-03T15:22:28Z</time>
      </trkpt>
      <trkpt lat="46.60437" lon="-1.85098">
        <ele>8.2</ele>
        <time>2020-06-03T15:22:29Z</time>
      </trkpt>
      <trkpt lat="46.60442" lon="-1.851">
        <ele>8.2</ele>
        <time>2020-06-03T15:22:30Z</time>
      </trkpt>
      <trkpt lat="46.60447" lon="-1.85103">
        <ele>8.2</ele>
        <time>2020-06-03T15:22:31Z</time>
      </trkpt>
      <trkpt lat="46.6045" lon="-1.85105">
        <ele>8.2</ele>
        <time>2020-06-03T15:22:32Z</time>
      </trkpt>
      <trkpt lat="46.60455" lon="-1.85107">
        <ele>8.2</ele>
        <time>2020-06-03T15:22:33Z</time>
      </trkpt>
      <trkpt lat="46.60459" lon="-1.85108">
        <ele>8.2</ele>
        <time>2020-06-03T15:22:34Z</time>
      </trkpt>
      <trkpt lat="46.60463" lon="-1.85109">
        <ele>8.2</ele>
        <time>2020-06-03T15:22:35Z</time>
      </trkpt>
      <trkpt lat="46.60468" lon="-1.85111">
        <ele>8.1</ele>
        <time>2020-06-03T15:22:36Z</time>
      </trkpt>
      <trkpt lat="46.60472" lon="-1.85112">
        <ele>8.1</ele>
        <time>2020-06-03T15:22:37Z</time>
      </trkpt>
      <trkpt lat="46.60476" lon="-1.85114">
        <ele>8.1</ele>
        <time>2020-06-03T15:22:38Z</time>
      </trkpt>
      <trkpt lat="46.6048" lon="-1.85117">
        <ele>8.1</ele>
        <time>2020-06-03T15:22:39Z</time>
      </trkpt>
      <trkpt lat="46.60485" lon="-1.85119">
        <ele>8.1</ele>
        <time>2020-06-03T15:22:40Z</time>
      </trkpt>
      <trkpt lat="46.60489" lon="-1.85121">
        <ele>8</ele>
        <time>2020-06-03T15:22:41Z</time>
      </trkpt>
      <trkpt lat="46.60493" lon="-1.85124">
        <ele>8</ele>
        <time>2020-06-03T15:22:42Z</time>
      </trkpt>
      <trkpt lat="46.60497" lon="-1.85125">
        <ele>8</ele>
        <time>2020-06-03T15:22:43Z</time>
      </trkpt>
      <trkpt lat="46.60501" lon="-1.85127">
        <ele>8</ele>
        <time>2020-06-03T15:22:44Z</time>
      </trkpt>
      <trkpt lat="46.60505" lon="-1.85128">
        <ele>8</ele>
        <time>2020-06-03T15:22:45Z</time>
      </trkpt>
      <trkpt lat="46.6051" lon="-1.85131">
        <ele>8</ele>
        <time>2020-06-03T15:22:46Z</time>
      </trkpt>
      <trkpt lat="46.60514" lon="-1.85133">
        <ele>8</ele>
        <time>2020-06-03T15:22:47Z</time>
      </trkpt>
      <trkpt lat="46.60518" lon="-1.85134">
        <ele>8</ele>
        <time>2020-06-03T15:22:48Z</time>
      </trkpt>
      <trkpt lat="46.60522" lon="-1.85136">
        <ele>8</ele>
        <time>2020-06-03T15:22:49Z</time>
      </trkpt>
      <trkpt lat="46.60526" lon="-1.85138">
        <ele>8</ele>
        <time>2020-06-03T15:22:50Z</time>
      </trkpt>
      <trkpt lat="46.60531" lon="-1.8514">
        <ele>8</ele>
        <time>2020-06-03T15:22:51Z</time>
      </trkpt>
      <trkpt lat="46.60535" lon="-1.85142">
        <ele>8</ele>
        <time>2020-06-03T15:22:52Z</time>
      </trkpt>
      <trkpt lat="46.60541" lon="-1.85145">
        <ele>8.1</ele>
        <time>2020-06-03T15:22:53Z</time>
      </trkpt>
      <trkpt lat="46.60546" lon="-1.85148">
        <ele>8.1</ele>
        <time>2020-06-03T15:22:54Z</time>
      </trkpt>
      <trkpt lat="46.60551" lon="-1.85149">
        <ele>8.1</ele>
        <time>2020-06-03T15:22:55Z</time>
      </trkpt>
      <trkpt lat="46.60555" lon="-1.85151">
        <ele>8.1</ele>
        <time>2020-06-03T15:22:56Z</time>
      </trkpt>
      <trkpt lat="46.6056" lon="-1.85154">
        <ele>8.2</ele>
        <time>2020-06-03T15:22:57Z</time>
      </trkpt>
      <trkpt lat="46.60564" lon="-1.85156">
        <ele>8.2</ele>
        <time>2020-06-03T15:22:58Z</time>
      </trkpt>
      <trkpt lat="46.60569" lon="-1.85159">
        <ele>8.3</ele>
        <time>2020-06-03T15:22:59Z</time>
      </trkpt>
      <trkpt lat="46.60574" lon="-1.85161">
        <ele>8.3</ele>
        <time>2020-06-03T15:23:00Z</time>
      </trkpt>
      <trkpt lat="46.60578" lon="-1.85163">
        <ele>8.4</ele>
        <time>2020-06-03T15:23:01Z</time>
      </trkpt>
      <trkpt lat="46.60582" lon="-1.85165">
        <ele>8.4</ele>
        <time>2020-06-03T15:23:02Z</time>
      </trkpt>
      <trkpt lat="46.60586" lon="-1.85167">
        <ele>8.5</ele>
        <time>2020-06-03T15:23:03Z</time>
      </trkpt>
      <trkpt lat="46.6059" lon="-1.85169">
        <ele>8.5</ele>
        <time>2020-06-03T15:23:04Z</time>
      </trkpt>
      <trkpt lat="46.60595" lon="-1.85171">
        <ele>8.6</ele>
        <time>2020-06-03T15:23:05Z</time>
      </trkpt>
      <trkpt lat="46.606" lon="-1.85173">
        <ele>8.7</ele>
        <time>2020-06-03T15:23:06Z</time>
      </trkpt>
      <trkpt lat="46.60605" lon="-1.85176">
        <ele>8.8</ele>
        <time>2020-06-03T15:23:07Z</time>
      </trkpt>
      <trkpt lat="46.6061" lon="-1.85178">
        <ele>8.8</ele>
        <time>2020-06-03T15:23:08Z</time>
      </trkpt>
      <trkpt lat="46.60615" lon="-1.8518">
        <ele>8.9</ele>
        <time>2020-06-03T15:23:09Z</time>
      </trkpt>
      <trkpt lat="46.6062" lon="-1.85182">
        <ele>9</ele>
        <time>2020-06-03T15:23:10Z</time>
      </trkpt>
      <trkpt lat="46.60626" lon="-1.85185">
        <ele>9</ele>
        <time>2020-06-03T15:23:11Z</time>
      </trkpt>
      <trkpt lat="46.60631" lon="-1.85187">
        <ele>9.1</ele>
        <time>2020-06-03T15:23:12Z</time>
      </trkpt>
      <trkpt lat="46.60636" lon="-1.85189">
        <ele>9.1</ele>
        <time>2020-06-03T15:23:13Z</time>
      </trkpt>
      <trkpt lat="46.6064" lon="-1.85191">
        <ele>9.1</ele>
        <time>2020-06-03T15:23:14Z</time>
      </trkpt>
      <trkpt lat="46.60645" lon="-1.85193">
        <ele>9.2</ele>
        <time>2020-06-03T15:23:15Z</time>
      </trkpt>
      <trkpt lat="46.6065" lon="-1.85195">
        <ele>9.2</ele>
        <time>2020-06-03T15:23:16Z</time>
      </trkpt>
      <trkpt lat="46.60655" lon="-1.85198">
        <ele>9.2</ele>
        <time>2020-06-03T15:23:17Z</time>
      </trkpt>
      <trkpt lat="46.6066" lon="-1.852">
        <ele>9.2</ele>
        <time>2020-06-03T15:23:18Z</time>
      </trkpt>
      <trkpt lat="46.60664" lon="-1.85203">
        <ele>9.3</ele>
        <time>2020-06-03T15:23:19Z</time>
      </trkpt>
      <trkpt lat="46.60669" lon="-1.85206">
        <ele>9.4</ele>
        <time>2020-06-03T15:23:20Z</time>
      </trkpt>
      <trkpt lat="46.60673" lon="-1.85208">
        <ele>9.5</ele>
        <time>2020-06-03T15:23:21Z</time>
      </trkpt>
      <trkpt lat="46.60678" lon="-1.8521">
        <ele>9.6</ele>
        <time>2020-06-03T15:23:22Z</time>
      </trkpt>
      <trkpt lat="46.60682" lon="-1.85212">
        <ele>9.7</ele>
        <time>2020-06-03T15:23:23Z</time>
      </trkpt>
      <trkpt lat="46.60686" lon="-1.85213">
        <ele>9.8</ele>
        <time>2020-06-03T15:23:24Z</time>
      </trkpt>
      <trkpt lat="46.60689" lon="-1.85215">
        <ele>9.9</ele>
        <time>2020-06-03T15:23:25Z</time>
      </trkpt>
      <trkpt lat="46.60693" lon="-1.85216">
        <ele>10</ele>
        <time>2020-06-03T15:23:26Z</time>
      </trkpt>
      <trkpt lat="46.60697" lon="-1.85218">
        <ele>10</ele>
        <time>2020-06-03T15:23:27Z</time>
      </trkpt>
      <trkpt lat="46.60701" lon="-1.8522">
        <ele>10.1</ele>
        <time>2020-06-03T15:23:28Z</time>
      </trkpt>
      <trkpt lat="46.60705" lon="-1.85222">
        <ele>10.2</ele>
        <time>2020-06-03T15:23:29Z</time>
      </trkpt>
      <trkpt lat="46.60709" lon="-1.85224">
        <ele>10.2</ele>
        <time>2020-06-03T15:23:30Z</time>
      </trkpt>
      <trkpt lat="46.60714" lon="-1.85226">
        <ele>10.3</ele>
        <time>2020-06-03T15:23:31Z</time>
      </trkpt>
      <trkpt lat="46.60719" lon="-1.85229">
        <ele>10.3</ele>
        <time>2020-06-03T15:23:32Z</time>
      </trkpt>
      <trkpt lat="46.60724" lon="-1.85231">
        <ele>10.4</ele>
        <time>2020-06-03T15:23:33Z</time>
      </trkpt>
      <trkpt lat="46.60729" lon="-1.85233">
        <ele>10.4</ele>
        <time>2020-06-03T15:23:34Z</time>
      </trkpt>
      <trkpt lat="46.60734" lon="-1.85235">
        <ele>10.4</ele>
        <time>2020-06-03T15:23:35Z</time>
      </trkpt>
      <trkpt lat="46.60739" lon="-1.85236">
        <ele>10.4</ele>
        <time>2020-06-03T15:23:36Z</time>
      </trkpt>
      <trkpt lat="46.60743" lon="-1.85238">
        <ele>10.5</ele>
        <time>2020-06-03T15:23:37Z</time>
      </trkpt>
      <trkpt lat="46.60746" lon="-1.8524">
        <ele>10.5</ele>
        <time>2020-06-03T15:23:38Z</time>
      </trkpt>
      <trkpt lat="46.6075" lon="-1.85241">
        <ele>10.5</ele>
        <time>2020-06-03T15:23:39Z</time>
      </trkpt>
      <trkpt lat="46.60754" lon="-1.85242">
        <ele>10.5</ele>
        <time>2020-06-03T15:23:40Z</time>
      </trkpt>
      <trkpt lat="46.60757" lon="-1.85243">
        <ele>10.5</ele>
        <time>2020-06-03T15:23:41Z</time>
      </trkpt>
      <trkpt lat="46.6076" lon="-1.85245">
        <ele>10.5</ele>
        <time>2020-06-03T15:23:42Z</time>
      </trkpt>
      <trkpt lat="46.60761" lon="-1.85245">
        <ele>10.5</ele>
        <time>2020-06-03T15:23:43Z</time>
      </trkpt>
      <trkpt lat="46.60763" lon="-1.85245">
        <ele>10.5</ele>
        <time>2020-06-03T15:23:44Z</time>
      </trkpt>
      <trkpt lat="46.60764" lon="-1.85245">
        <ele>10.5</ele>
        <time>2020-06-03T15:23:45Z</time>
      </trkpt>
      <trkpt lat="46.60765" lon="-1.85246">
        <ele>10.5</ele>
        <time>2020-06-03T15:23:46Z</time>
      </trkpt>
      <trkpt lat="46.60767" lon="-1.85248">
        <ele>10.6</ele>
        <time>2020-06-03T15:23:47Z</time>
      </trkpt>
      <trkpt lat="46.60769" lon="-1.85251">
        <ele>10.6</ele>
        <time>2020-06-03T15:23:48Z</time>
      </trkpt>
      <trkpt lat="46.6077" lon="-1.85253">
        <ele>10.6</ele>
        <time>2020-06-03T15:23:49Z</time>
      </trkpt>
      <trkpt lat="46.6077" lon="-1.85257">
        <ele>10.6</ele>
        <time>2020-06-03T15:23:50Z</time>
      </trkpt>
      <trkpt lat="46.60771" lon="-1.85263">
        <ele>10.5</ele>
        <time>2020-06-03T15:23:51Z</time>
      </trkpt>
      <trkpt lat="46.60771" lon="-1.85265">
        <ele>10.5</ele>
        <time>2020-06-03T15:23:52Z</time>
      </trkpt>
      <trkpt lat="46.60769" lon="-1.8527">
        <ele>10.5</ele>
        <time>2020-06-03T15:23:53Z</time>
      </trkpt>
      <trkpt lat="46.60769" lon="-1.85271">
        <ele>10.5</ele>
        <time>2020-06-03T15:23:54Z</time>
      </trkpt>
      <trkpt lat="46.60767" lon="-1.85276">
        <ele>10.4</ele>
        <time>2020-06-03T15:23:55Z</time>
      </trkpt>
      <trkpt lat="46.60766" lon="-1.85281">
        <ele>10.4</ele>
        <time>2020-06-03T15:23:56Z</time>
      </trkpt>
      <trkpt lat="46.60764" lon="-1.85286">
        <ele>10.3</ele>
        <time>2020-06-03T15:23:57Z</time>
      </trkpt>
      <trkpt lat="46.60763" lon="-1.85292">
        <ele>10.2</ele>
        <time>2020-06-03T15:23:58Z</time>
      </trkpt>
      <trkpt lat="46.60762" lon="-1.85297">
        <ele>10.2</ele>
        <time>2020-06-03T15:23:59Z</time>
      </trkpt>
      <trkpt lat="46.60761" lon="-1.85303">
        <ele>10.1</ele>
        <time>2020-06-03T15:24:00Z</time>
      </trkpt>
      <trkpt lat="46.6076" lon="-1.85309">
        <ele>10.1</ele>
        <time>2020-06-03T15:24:01Z</time>
      </trkpt>
      <trkpt lat="46.60759" lon="-1.85313">
        <ele>10.1</ele>
        <time>2020-06-03T15:24:02Z</time>
      </trkpt>
      <trkpt lat="46.60758" lon="-1.85318">
        <ele>10</ele>
        <time>2020-06-03T15:24:03Z</time>
      </trkpt>
      <trkpt lat="46.60758" lon="-1.85325">
        <ele>10</ele>
        <time>2020-06-03T15:24:04Z</time>
      </trkpt>
      <trkpt lat="46.60758" lon="-1.8533">
        <ele>9.9</ele>
        <time>2020-06-03T15:24:05Z</time>
      </trkpt>
      <trkpt lat="46.60757" lon="-1.85336">
        <ele>9.9</ele>
        <time>2020-06-03T15:24:06Z</time>
      </trkpt>
      <trkpt lat="46.60756" lon="-1.85342">
        <ele>9.8</ele>
        <time>2020-06-03T15:24:07Z</time>
      </trkpt>
      <trkpt lat="46.60755" lon="-1.85347">
        <ele>9.8</ele>
        <time>2020-06-03T15:24:08Z</time>
      </trkpt>
      <trkpt lat="46.60754" lon="-1.85352">
        <ele>9.7</ele>
        <time>2020-06-03T15:24:09Z</time>
      </trkpt>
      <trkpt lat="46.60753" lon="-1.85358">
        <ele>9.6</ele>
        <time>2020-06-03T15:24:10Z</time>
      </trkpt>
      <trkpt lat="46.60752" lon="-1.85363">
        <ele>9.6</ele>
        <time>2020-06-03T15:24:11Z</time>
      </trkpt>
      <trkpt lat="46.6075" lon="-1.85369">
        <ele>9.5</ele>
        <time>2020-06-03T15:24:12Z</time>
      </trkpt>
      <trkpt lat="46.60749" lon="-1.85375">
        <ele>9.4</ele>
        <time>2020-06-03T15:24:13Z</time>
      </trkpt>
      <trkpt lat="46.60748" lon="-1.85381">
        <ele>9.3</ele>
        <time>2020-06-03T15:24:14Z</time>
      </trkpt>
      <trkpt lat="46.60747" lon="-1.85386">
        <ele>9.2</ele>
        <time>2020-06-03T15:24:15Z</time>
      </trkpt>
      <trkpt lat="46.60746" lon="-1.85391">
        <ele>9.1</ele>
        <time>2020-06-03T15:24:16Z</time>
      </trkpt>
      <trkpt lat="46.60745" lon="-1.85395">
        <ele>9</ele>
        <time>2020-06-03T15:24:17Z</time>
      </trkpt>
      <trkpt lat="46.60744" lon="-1.854">
        <ele>8.9</ele>
        <time>2020-06-03T15:24:18Z</time>
      </trkpt>
      <trkpt lat="46.60743" lon="-1.85406">
        <ele>8.8</ele>
        <time>2020-06-03T15:24:19Z</time>
      </trkpt>
      <trkpt lat="46.60741" lon="-1.85411">
        <ele>8.7</ele>
        <time>2020-06-03T15:24:20Z</time>
      </trkpt>
      <trkpt lat="46.6074" lon="-1.85417">
        <ele>8.5</ele>
        <time>2020-06-03T15:24:21Z</time>
      </trkpt>
      <trkpt lat="46.60738" lon="-1.85421">
        <ele>8.4</ele>
        <time>2020-06-03T15:24:22Z</time>
      </trkpt>
      <trkpt lat="46.60736" lon="-1.85427">
        <ele>8.3</ele>
        <time>2020-06-03T15:24:23Z</time>
      </trkpt>
      <trkpt lat="46.60735" lon="-1.8543">
        <ele>8.2</ele>
        <time>2020-06-03T15:24:24Z</time>
      </trkpt>
      <trkpt lat="46.60734" lon="-1.85435">
        <ele>8.1</ele>
        <time>2020-06-03T15:24:25Z</time>
      </trkpt>
      <trkpt lat="46.60733" lon="-1.85436">
        <ele>8.1</ele>
        <time>2020-06-03T15:24:26Z</time>
      </trkpt>
      <trkpt lat="46.60733" lon="-1.85441">
        <ele>8</ele>
        <time>2020-06-03T15:24:27Z</time>
      </trkpt>
      <trkpt lat="46.60732" lon="-1.85443">
        <ele>8</ele>
        <time>2020-06-03T15:24:28Z</time>
      </trkpt>
      <trkpt lat="46.60731" lon="-1.85449">
        <ele>7.9</ele>
        <time>2020-06-03T15:24:29Z</time>
      </trkpt>
      <trkpt lat="46.60731" lon="-1.85451">
        <ele>7.8</ele>
        <time>2020-06-03T15:24:30Z</time>
      </trkpt>
      <trkpt lat="46.6073" lon="-1.85455">
        <ele>7.7</ele>
        <time>2020-06-03T15:24:31Z</time>
      </trkpt>
      <trkpt lat="46.6073" lon="-1.85459">
        <ele>7.7</ele>
        <time>2020-06-03T15:24:32Z</time>
      </trkpt>
      <trkpt lat="46.60729" lon="-1.85463">
        <ele>7.6</ele>
        <time>2020-06-03T15:24:33Z</time>
      </trkpt>
      <trkpt lat="46.60729" lon="-1.85465">
        <ele>7.6</ele>
        <time>2020-06-03T15:24:34Z</time>
      </trkpt>
      <trkpt lat="46.60728" lon="-1.85469">
        <ele>7.5</ele>
        <time>2020-06-03T15:24:35Z</time>
      </trkpt>
      <trkpt lat="46.60726" lon="-1.85473">
        <ele>7.4</ele>
        <time>2020-06-03T15:24:36Z</time>
      </trkpt>
      <trkpt lat="46.60725" lon="-1.85474">
        <ele>7.4</ele>
        <time>2020-06-03T15:24:37Z</time>
      </trkpt>
      <trkpt lat="46.60724" lon="-1.85477">
        <ele>7.3</ele>
        <time>2020-06-03T15:24:38Z</time>
      </trkpt>
      <trkpt lat="46.60723" lon="-1.85479">
        <ele>7.3</ele>
        <time>2020-06-03T15:24:39Z</time>
      </trkpt>
      <trkpt lat="46.60722" lon="-1.85484">
        <ele>7.2</ele>
        <time>2020-06-03T15:24:40Z</time>
      </trkpt>
      <trkpt lat="46.60721" lon="-1.85485">
        <ele>7.1</ele>
        <time>2020-06-03T15:24:41Z</time>
      </trkpt>
      <trkpt lat="46.6072" lon="-1.85489">
        <ele>7.1</ele>
        <time>2020-06-03T15:24:42Z</time>
      </trkpt>
      <trkpt lat="46.60718" lon="-1.85493">
        <ele>7</ele>
        <time>2020-06-03T15:24:43Z</time>
      </trkpt>
      <trkpt lat="46.60718" lon="-1.85494">
        <ele>7</ele>
        <time>2020-06-03T15:24:44Z</time>
      </trkpt>
      <trkpt lat="46.60716" lon="-1.85498">
        <ele>6.9</ele>
        <time>2020-06-03T15:24:45Z</time>
      </trkpt>
      <trkpt lat="46.60715" lon="-1.85498">
        <ele>6.9</ele>
        <time>2020-06-03T15:24:46Z</time>
      </trkpt>
      <trkpt lat="46.60714" lon="-1.85499">
        <ele>6.8</ele>
        <time>2020-06-03T15:24:47Z</time>
      </trkpt>
      <trkpt lat="46.60714" lon="-1.85501">
        <ele>6.8</ele>
        <time>2020-06-03T15:24:48Z</time>
      </trkpt>
      <trkpt lat="46.60713" lon="-1.85502">
        <ele>6.8</ele>
        <time>2020-06-03T15:24:49Z</time>
      </trkpt>
      <trkpt lat="46.60713" lon="-1.85501">
        <ele>6.8</ele>
        <time>2020-06-03T15:24:50Z</time>
      </trkpt>
      <trkpt lat="46.60713" lon="-1.85501">
        <ele>6.8</ele>
        <time>2020-06-03T15:24:51Z</time>
      </trkpt>
      <trkpt lat="46.60713" lon="-1.85501">
        <ele>6.8</ele>
        <time>2020-06-03T15:24:52Z</time>
      </trkpt>
      <trkpt lat="46.60713" lon="-1.85501">
        <ele>6.7</ele>
        <time>2020-06-03T15:24:53Z</time>
      </trkpt>
      <trkpt lat="46.60713" lon="-1.855">
        <ele>6.7</ele>
        <time>2020-06-03T15:24:54Z</time>
      </trkpt>
      <trkpt lat="46.60714" lon="-1.855">
        <ele>6.7</ele>
        <time>2020-06-03T15:24:55Z</time>
      </trkpt>
      <trkpt lat="46.60713" lon="-1.855">
        <ele>6.7</ele>
        <time>2020-06-03T15:24:56Z</time>
      </trkpt>
      <trkpt lat="46.60713" lon="-1.855">
        <ele>6.7</ele>
        <time>2020-06-03T15:24:57Z</time>
      </trkpt>
      <trkpt lat="46.60712" lon="-1.85501">
        <ele>6.7</ele>
        <time>2020-06-03T15:24:58Z</time>
      </trkpt>
      <trkpt lat="46.60712" lon="-1.85501">
        <ele>6.7</ele>
        <time>2020-06-03T15:24:59Z</time>
      </trkpt>
      <trkpt lat="46.60711" lon="-1.855">
        <ele>6.6</ele>
        <time>2020-06-03T15:25:00Z</time>
      </trkpt>
      <trkpt lat="46.60707" lon="-1.85494">
        <ele>6.5</ele>
        <time>2020-06-03T15:30:44Z</time>
      </trkpt>
      <trkpt lat="46.60707" lon="-1.85492">
        <ele>6.4</ele>
        <time>2020-06-03T15:30:45Z</time>
      </trkpt>
      <trkpt lat="46.60707" lon="-1.8549">
        <ele>6.4</ele>
        <time>2020-06-03T15:30:46Z</time>
      </trkpt>
      <trkpt lat="46.60707" lon="-1.85488">
        <ele>6.3</ele>
        <time>2020-06-03T15:30:47Z</time>
      </trkpt>
      <trkpt lat="46.60707" lon="-1.85486">
        <ele>6.4</ele>
        <time>2020-06-03T15:30:48Z</time>
      </trkpt>
      <trkpt lat="46.60708" lon="-1.85484">
        <ele>6.4</ele>
        <time>2020-06-03T15:30:49Z</time>
      </trkpt>
      <trkpt lat="46.60709" lon="-1.85482">
        <ele>6.5</ele>
        <time>2020-06-03T15:30:50Z</time>
      </trkpt>
      <trkpt lat="46.6071" lon="-1.85481">
        <ele>6.5</ele>
        <time>2020-06-03T15:30:51Z</time>
      </trkpt>
      <trkpt lat="46.6071" lon="-1.8548">
        <ele>6.6</ele>
        <time>2020-06-03T15:30:52Z</time>
      </trkpt>
      <trkpt lat="46.60711" lon="-1.85478">
        <ele>6.6</ele>
        <time>2020-06-03T15:30:53Z</time>
      </trkpt>
      <trkpt lat="46.60712" lon="-1.85476">
        <ele>6.7</ele>
        <time>2020-06-03T15:30:54Z</time>
      </trkpt>
      <trkpt lat="46.60713" lon="-1.85475">
        <ele>6.7</ele>
        <time>2020-06-03T15:30:55Z</time>
      </trkpt>
      <trkpt lat="46.60713" lon="-1.85474">
        <ele>6.7</ele>
        <time>2020-06-03T15:30:56Z</time>
      </trkpt>
      <trkpt lat="46.60714" lon="-1.85473">
        <ele>6.8</ele>
        <time>2020-06-03T15:30:57Z</time>
      </trkpt>
      <trkpt lat="46.60715" lon="-1.85472">
        <ele>6.8</ele>
        <time>2020-06-03T15:30:58Z</time>
      </trkpt>
      <trkpt lat="46.60716" lon="-1.85471">
        <ele>6.8</ele>
        <time>2020-06-03T15:30:59Z</time>
      </trkpt>
      <trkpt lat="46.60716" lon="-1.85469">
        <ele>6.9</ele>
        <time>2020-06-03T15:31:00Z</time>
      </trkpt>
      <trkpt lat="46.60718" lon="-1.85468">
        <ele>6.9</ele>
        <time>2020-06-03T15:31:01Z</time>
      </trkpt>
      <trkpt lat="46.6072" lon="-1.85464">
        <ele>7</ele>
        <time>2020-06-03T15:31:02Z</time>
      </trkpt>
      <trkpt lat="46.60721" lon="-1.85463">
        <ele>7</ele>
        <time>2020-06-03T15:31:03Z</time>
      </trkpt>
      <trkpt lat="46.60723" lon="-1.8546">
        <ele>7.1</ele>
        <time>2020-06-03T15:31:04Z</time>
      </trkpt>
      <trkpt lat="46.60723" lon="-1.85459">
        <ele>7.1</ele>
        <time>2020-06-03T15:31:05Z</time>
      </trkpt>
      <trkpt lat="46.60725" lon="-1.85455">
        <ele>7.2</ele>
        <time>2020-06-03T15:31:06Z</time>
      </trkpt>
      <trkpt lat="46.60726" lon="-1.85454">
        <ele>7.3</ele>
        <time>2020-06-03T15:31:07Z</time>
      </trkpt>
      <trkpt lat="46.60727" lon="-1.8545">
        <ele>7.4</ele>
        <time>2020-06-03T15:31:08Z</time>
      </trkpt>
      <trkpt lat="46.60728" lon="-1.85448">
        <ele>7.4</ele>
        <time>2020-06-03T15:31:09Z</time>
      </trkpt>
      <trkpt lat="46.60729" lon="-1.85446">
        <ele>7.5</ele>
        <time>2020-06-03T15:31:10Z</time>
      </trkpt>
      <trkpt lat="46.60729" lon="-1.85444">
        <ele>7.5</ele>
        <time>2020-06-03T15:31:11Z</time>
      </trkpt>
      <trkpt lat="46.6073" lon="-1.8544">
        <ele>7.6</ele>
        <time>2020-06-03T15:31:12Z</time>
      </trkpt>
      <trkpt lat="46.6073" lon="-1.85439">
        <ele>7.6</ele>
        <time>2020-06-03T15:31:13Z</time>
      </trkpt>
      <trkpt lat="46.60731" lon="-1.85435">
        <ele>7.7</ele>
        <time>2020-06-03T15:31:14Z</time>
      </trkpt>
      <trkpt lat="46.60731" lon="-1.85433">
        <ele>7.7</ele>
        <time>2020-06-03T15:31:15Z</time>
      </trkpt>
      <trkpt lat="46.60732" lon="-1.8543">
        <ele>7.8</ele>
        <time>2020-06-03T15:31:16Z</time>
      </trkpt>
      <trkpt lat="46.60733" lon="-1.85429">
        <ele>7.8</ele>
        <time>2020-06-03T15:31:17Z</time>
      </trkpt>
      <trkpt lat="46.60733" lon="-1.85428">
        <ele>7.8</ele>
        <time>2020-06-03T15:31:18Z</time>
      </trkpt>
      <trkpt lat="46.60734" lon="-1.85426">
        <ele>7.9</ele>
        <time>2020-06-03T15:31:19Z</time>
      </trkpt>
      <trkpt lat="46.60735" lon="-1.85424">
        <ele>8</ele>
        <time>2020-06-03T15:31:20Z</time>
      </trkpt>
      <trkpt lat="46.60736" lon="-1.85421">
        <ele>8</ele>
        <time>2020-06-03T15:31:21Z</time>
      </trkpt>
      <trkpt lat="46.60737" lon="-1.8542">
        <ele>8.1</ele>
        <time>2020-06-03T15:31:22Z</time>
      </trkpt>
      <trkpt lat="46.60738" lon="-1.85416">
        <ele>8.2</ele>
        <time>2020-06-03T15:31:23Z</time>
      </trkpt>
      <trkpt lat="46.60738" lon="-1.85414">
        <ele>8.2</ele>
        <time>2020-06-03T15:31:24Z</time>
      </trkpt>
      <trkpt lat="46.6074" lon="-1.8541">
        <ele>8.3</ele>
        <time>2020-06-03T15:31:25Z</time>
      </trkpt>
      <trkpt lat="46.6074" lon="-1.85408">
        <ele>8.3</ele>
        <time>2020-06-03T15:31:26Z</time>
      </trkpt>
      <trkpt lat="46.60741" lon="-1.85404">
        <ele>8.4</ele>
        <time>2020-06-03T15:31:27Z</time>
      </trkpt>
      <trkpt lat="46.60742" lon="-1.85403">
        <ele>8.5</ele>
        <time>2020-06-03T15:31:28Z</time>
      </trkpt>
      <trkpt lat="46.60744" lon="-1.85399">
        <ele>8.6</ele>
        <time>2020-06-03T15:31:29Z</time>
      </trkpt>
      <trkpt lat="46.60745" lon="-1.85398">
        <ele>8.6</ele>
        <time>2020-06-03T15:31:30Z</time>
      </trkpt>
      <trkpt lat="46.60746" lon="-1.85393">
        <ele>8.8</ele>
        <time>2020-06-03T15:31:31Z</time>
      </trkpt>
      <trkpt lat="46.60746" lon="-1.85392">
        <ele>8.8</ele>
        <time>2020-06-03T15:31:32Z</time>
      </trkpt>
      <trkpt lat="46.60746" lon="-1.8539">
        <ele>8.8</ele>
        <time>2020-06-03T15:31:33Z</time>
      </trkpt>
      <trkpt lat="46.60746" lon="-1.85388">
        <ele>8.9</ele>
        <time>2020-06-03T15:31:34Z</time>
      </trkpt>
      <trkpt lat="46.60747" lon="-1.85383">
        <ele>9</ele>
        <time>2020-06-03T15:31:35Z</time>
      </trkpt>
      <trkpt lat="46.60747" lon="-1.85382">
        <ele>9</ele>
        <time>2020-06-03T15:31:36Z</time>
      </trkpt>
      <trkpt lat="46.60747" lon="-1.8538">
        <ele>9.1</ele>
        <time>2020-06-03T15:31:37Z</time>
      </trkpt>
      <trkpt lat="46.60747" lon="-1.85378">
        <ele>9.1</ele>
        <time>2020-06-03T15:31:38Z</time>
      </trkpt>
      <trkpt lat="46.60747" lon="-1.85376">
        <ele>9.1</ele>
        <time>2020-06-03T15:31:39Z</time>
      </trkpt>
      <trkpt lat="46.60748" lon="-1.85375">
        <ele>9.2</ele>
        <time>2020-06-03T15:31:40Z</time>
      </trkpt>
      <trkpt lat="46.60749" lon="-1.85374">
        <ele>9.2</ele>
        <time>2020-06-03T15:31:41Z</time>
      </trkpt>
      <trkpt lat="46.60749" lon="-1.85372">
        <ele>9.2</ele>
        <time>2020-06-03T15:31:42Z</time>
      </trkpt>
      <trkpt lat="46.6075" lon="-1.8537">
        <ele>9.3</ele>
        <time>2020-06-03T15:31:43Z</time>
      </trkpt>
      <trkpt lat="46.6075" lon="-1.85369">
        <ele>9.3</ele>
        <time>2020-06-03T15:31:44Z</time>
      </trkpt>
      <trkpt lat="46.60751" lon="-1.85368">
        <ele>9.4</ele>
        <time>2020-06-03T15:31:45Z</time>
      </trkpt>
      <trkpt lat="46.60751" lon="-1.85367">
        <ele>9.4</ele>
        <time>2020-06-03T15:31:46Z</time>
      </trkpt>
      <trkpt lat="46.60752" lon="-1.85365">
        <ele>9.4</ele>
        <time>2020-06-03T15:31:47Z</time>
      </trkpt>
      <trkpt lat="46.60753" lon="-1.85363">
        <ele>9.5</ele>
        <time>2020-06-03T15:31:48Z</time>
      </trkpt>
      <trkpt lat="46.60753" lon="-1.85361">
        <ele>9.5</ele>
        <time>2020-06-03T15:31:49Z</time>
      </trkpt>
      <trkpt lat="46.60754" lon="-1.8536">
        <ele>9.5</ele>
        <time>2020-06-03T15:31:50Z</time>
      </trkpt>
      <trkpt lat="46.60755" lon="-1.85358">
        <ele>9.5</ele>
        <time>2020-06-03T15:31:51Z</time>
      </trkpt>
      <trkpt lat="46.60756" lon="-1.85356">
        <ele>9.6</ele>
        <time>2020-06-03T15:31:52Z</time>
      </trkpt>
      <trkpt lat="46.60757" lon="-1.85353">
        <ele>9.6</ele>
        <time>2020-06-03T15:31:53Z</time>
      </trkpt>
      <trkpt lat="46.60757" lon="-1.85352">
        <ele>9.6</ele>
        <time>2020-06-03T15:31:54Z</time>
      </trkpt>
      <trkpt lat="46.60757" lon="-1.85351">
        <ele>9.7</ele>
        <time>2020-06-03T15:31:55Z</time>
      </trkpt>
      <trkpt lat="46.60757" lon="-1.85348">
        <ele>9.7</ele>
        <time>2020-06-03T15:31:56Z</time>
      </trkpt>
      <trkpt lat="46.60757" lon="-1.85346">
        <ele>9.7</ele>
        <time>2020-06-03T15:31:57Z</time>
      </trkpt>
      <trkpt lat="46.60758" lon="-1.85344">
        <ele>9.7</ele>
        <time>2020-06-03T15:31:58Z</time>
      </trkpt>
      <trkpt lat="46.60759" lon="-1.85341">
        <ele>9.8</ele>
        <time>2020-06-03T15:31:59Z</time>
      </trkpt>
      <trkpt lat="46.60759" lon="-1.8534">
        <ele>9.8</ele>
        <time>2020-06-03T15:32:00Z</time>
      </trkpt>
      <trkpt lat="46.60759" lon="-1.85338">
        <ele>9.8</ele>
        <time>2020-06-03T15:32:01Z</time>
      </trkpt>
      <trkpt lat="46.60759" lon="-1.85337">
        <ele>9.8</ele>
        <time>2020-06-03T15:32:02Z</time>
      </trkpt>
      <trkpt lat="46.60759" lon="-1.85335">
        <ele>9.8</ele>
        <time>2020-06-03T15:32:03Z</time>
      </trkpt>
      <trkpt lat="46.60759" lon="-1.85334">
        <ele>9.8</ele>
        <time>2020-06-03T15:32:04Z</time>
      </trkpt>
      <trkpt lat="46.60759" lon="-1.85332">
        <ele>9.9</ele>
        <time>2020-06-03T15:32:05Z</time>
      </trkpt>
      <trkpt lat="46.60761" lon="-1.85329">
        <ele>9.9</ele>
        <time>2020-06-03T15:32:06Z</time>
      </trkpt>
      <trkpt lat="46.60761" lon="-1.85327">
        <ele>9.9</ele>
        <time>2020-06-03T15:32:07Z</time>
      </trkpt>
      <trkpt lat="46.60762" lon="-1.85326">
        <ele>9.9</ele>
        <time>2020-06-03T15:32:08Z</time>
      </trkpt>
      <trkpt lat="46.60763" lon="-1.85324">
        <ele>10</ele>
        <time>2020-06-03T15:32:09Z</time>
      </trkpt>
      <trkpt lat="46.60764" lon="-1.85323">
        <ele>10</ele>
        <time>2020-06-03T15:32:10Z</time>
      </trkpt>
      <trkpt lat="46.60764" lon="-1.85322">
        <ele>10</ele>
        <time>2020-06-03T15:32:11Z</time>
      </trkpt>
      <trkpt lat="46.60765" lon="-1.8532">
        <ele>10</ele>
        <time>2020-06-03T15:32:12Z</time>
      </trkpt>
      <trkpt lat="46.60767" lon="-1.85318">
        <ele>10</ele>
        <time>2020-06-03T15:32:13Z</time>
      </trkpt>
      <trkpt lat="46.60767" lon="-1.85316">
        <ele>10.1</ele>
        <time>2020-06-03T15:32:14Z</time>
      </trkpt>
      <trkpt lat="46.60768" lon="-1.85314">
        <ele>10.1</ele>
        <time>2020-06-03T15:32:15Z</time>
      </trkpt>
      <trkpt lat="46.60769" lon="-1.85312">
        <ele>10.1</ele>
        <time>2020-06-03T15:32:16Z</time>
      </trkpt>
      <trkpt lat="46.6077" lon="-1.85309">
        <ele>10.2</ele>
        <time>2020-06-03T15:32:17Z</time>
      </trkpt>
      <trkpt lat="46.60771" lon="-1.85307">
        <ele>10.2</ele>
        <time>2020-06-03T15:32:18Z</time>
      </trkpt>
      <trkpt lat="46.60771" lon="-1.85305">
        <ele>10.2</ele>
        <time>2020-06-03T15:32:19Z</time>
      </trkpt>
      <trkpt lat="46.60771" lon="-1.85302">
        <ele>10.2</ele>
        <time>2020-06-03T15:32:20Z</time>
      </trkpt>
      <trkpt lat="46.60772" lon="-1.85298">
        <ele>10.2</ele>
        <time>2020-06-03T15:32:21Z</time>
      </trkpt>
      <trkpt lat="46.60772" lon="-1.85297">
        <ele>10.3</ele>
        <time>2020-06-03T15:32:22Z</time>
      </trkpt>
      <trkpt lat="46.60772" lon="-1.85295">
        <ele>10.3</ele>
        <time>2020-06-03T15:32:23Z</time>
      </trkpt>
      <trkpt lat="46.60772" lon="-1.85292">
        <ele>10.3</ele>
        <time>2020-06-03T15:32:24Z</time>
      </trkpt>
      <trkpt lat="46.60774" lon="-1.85288">
        <ele>10.3</ele>
        <time>2020-06-03T15:32:25Z</time>
      </trkpt>
      <trkpt lat="46.60774" lon="-1.85286">
        <ele>10.3</ele>
        <time>2020-06-03T15:32:26Z</time>
      </trkpt>
      <trkpt lat="46.60775" lon="-1.85284">
        <ele>10.4</ele>
        <time>2020-06-03T15:32:27Z</time>
      </trkpt>
      <trkpt lat="46.60775" lon="-1.85282">
        <ele>10.4</ele>
        <time>2020-06-03T15:32:28Z</time>
      </trkpt>
      <trkpt lat="46.60776" lon="-1.8528">
        <ele>10.4</ele>
        <time>2020-06-03T15:32:29Z</time>
      </trkpt>
      <trkpt lat="46.60776" lon="-1.85277">
        <ele>10.4</ele>
        <time>2020-06-03T15:32:30Z</time>
      </trkpt>
      <trkpt lat="46.60776" lon="-1.85275">
        <ele>10.5</ele>
        <time>2020-06-03T15:32:31Z</time>
      </trkpt>
      <trkpt lat="46.60777" lon="-1.85273">
        <ele>10.5</ele>
        <time>2020-06-03T15:32:32Z</time>
      </trkpt>
      <trkpt lat="46.60777" lon="-1.85271">
        <ele>10.5</ele>
        <time>2020-06-03T15:32:33Z</time>
      </trkpt>
      <trkpt lat="46.60777" lon="-1.8527">
        <ele>10.5</ele>
        <time>2020-06-03T15:32:34Z</time>
      </trkpt>
      <trkpt lat="46.60777" lon="-1.85269">
        <ele>10.5</ele>
        <time>2020-06-03T15:32:35Z</time>
      </trkpt>
      <trkpt lat="46.60777" lon="-1.85269">
        <ele>10.5</ele>
        <time>2020-06-03T15:32:36Z</time>
      </trkpt>
      <trkpt lat="46.60778" lon="-1.85269">
        <ele>10.6</ele>
        <time>2020-06-03T15:32:37Z</time>
      </trkpt>
      <trkpt lat="46.60779" lon="-1.85269">
        <ele>10.6</ele>
        <time>2020-06-03T15:32:38Z</time>
      </trkpt>
      <trkpt lat="46.6078" lon="-1.85269">
        <ele>10.6</ele>
        <time>2020-06-03T15:32:39Z</time>
      </trkpt>
      <trkpt lat="46.60781" lon="-1.85268">
        <ele>10.6</ele>
        <time>2020-06-03T15:32:40Z</time>
      </trkpt>
      <trkpt lat="46.60782" lon="-1.85269">
        <ele>10.6</ele>
        <time>2020-06-03T15:32:41Z</time>
      </trkpt>
      <trkpt lat="46.60783" lon="-1.8527">
        <ele>10.6</ele>
        <time>2020-06-03T15:32:42Z</time>
      </trkpt>
      <trkpt lat="46.60785" lon="-1.85271">
        <ele>10.6</ele>
        <time>2020-06-03T15:32:43Z</time>
      </trkpt>
      <trkpt lat="46.60785" lon="-1.85271">
        <ele>10.6</ele>
        <time>2020-06-03T15:32:44Z</time>
      </trkpt>
      <trkpt lat="46.60786" lon="-1.85272">
        <ele>10.7</ele>
        <time>2020-06-03T15:32:45Z</time>
      </trkpt>
      <trkpt lat="46.60786" lon="-1.85272">
        <ele>10.7</ele>
        <time>2020-06-03T15:32:46Z</time>
      </trkpt>
      <trkpt lat="46.60787" lon="-1.85273">
        <ele>10.7</ele>
        <time>2020-06-03T15:32:47Z</time>
      </trkpt>
      <trkpt lat="46.60787" lon="-1.85273">
        <ele>10.7</ele>
        <time>2020-06-03T15:32:48Z</time>
      </trkpt>
      <trkpt lat="46.60788" lon="-1.85274">
        <ele>10.7</ele>
        <time>2020-06-03T15:32:49Z</time>
      </trkpt>
      <trkpt lat="46.60789" lon="-1.85274">
        <ele>10.7</ele>
        <time>2020-06-03T15:32:50Z</time>
      </trkpt>
      <trkpt lat="46.60789" lon="-1.85275">
        <ele>10.7</ele>
        <time>2020-06-03T15:32:51Z</time>
      </trkpt>
      <trkpt lat="46.6079" lon="-1.85275">
        <ele>10.7</ele>
        <time>2020-06-03T15:32:52Z</time>
      </trkpt>
      <trkpt lat="46.6079" lon="-1.85276">
        <ele>10.7</ele>
        <time>2020-06-03T15:32:53Z</time>
      </trkpt>
      <trkpt lat="46.60791" lon="-1.85276">
        <ele>10.7</ele>
        <time>2020-06-03T15:32:54Z</time>
      </trkpt>
      <trkpt lat="46.60791" lon="-1.85277">
        <ele>10.7</ele>
        <time>2020-06-03T15:32:55Z</time>
      </trkpt>
      <trkpt lat="46.60792" lon="-1.85277">
        <ele>10.7</ele>
        <time>2020-06-03T15:33:13Z</time>
      </trkpt>
      <trkpt lat="46.60792" lon="-1.85278">
        <ele>10.7</ele>
        <time>2020-06-03T15:33:14Z</time>
      </trkpt>
      <trkpt lat="46.60795" lon="-1.8528">
        <ele>10.7</ele>
        <time>2020-06-03T15:33:15Z</time>
      </trkpt>
      <trkpt lat="46.60796" lon="-1.85281">
        <ele>10.7</ele>
        <time>2020-06-03T15:33:16Z</time>
      </trkpt>
      <trkpt lat="46.60799" lon="-1.85284">
        <ele>10.7</ele>
        <time>2020-06-03T15:33:17Z</time>
      </trkpt>
      <trkpt lat="46.60802" lon="-1.85286">
        <ele>10.8</ele>
        <time>2020-06-03T15:33:18Z</time>
      </trkpt>
      <trkpt lat="46.60805" lon="-1.85289">
        <ele>10.8</ele>
        <time>2020-06-03T15:33:19Z</time>
      </trkpt>
      <trkpt lat="46.60809" lon="-1.85293">
        <ele>10.8</ele>
        <time>2020-06-03T15:33:20Z</time>
      </trkpt>
      <trkpt lat="46.60812" lon="-1.85296">
        <ele>10.8</ele>
        <time>2020-06-03T15:33:21Z</time>
      </trkpt>
      <trkpt lat="46.60816" lon="-1.85299">
        <ele>10.9</ele>
        <time>2020-06-03T15:33:22Z</time>
      </trkpt>
      <trkpt lat="46.60819" lon="-1.85302">
        <ele>10.9</ele>
        <time>2020-06-03T15:33:23Z</time>
      </trkpt>
      <trkpt lat="46.60823" lon="-1.85305">
        <ele>10.9</ele>
        <time>2020-06-03T15:33:24Z</time>
      </trkpt>
      <trkpt lat="46.60827" lon="-1.85307">
        <ele>10.9</ele>
        <time>2020-06-03T15:33:25Z</time>
      </trkpt>
      <trkpt lat="46.6083" lon="-1.85311">
        <ele>10.9</ele>
        <time>2020-06-03T15:33:26Z</time>
      </trkpt>
      <trkpt lat="46.60834" lon="-1.85313">
        <ele>11</ele>
        <time>2020-06-03T15:33:27Z</time>
      </trkpt>
      <trkpt lat="46.60838" lon="-1.85316">
        <ele>11</ele>
        <time>2020-06-03T15:33:28Z</time>
      </trkpt>
      <trkpt lat="46.60841" lon="-1.85319">
        <ele>11</ele>
        <time>2020-06-03T15:33:29Z</time>
      </trkpt>
      <trkpt lat="46.60845" lon="-1.85323">
        <ele>11</ele>
        <time>2020-06-03T15:33:30Z</time>
      </trkpt>
      <trkpt lat="46.60849" lon="-1.85327">
        <ele>11</ele>
        <time>2020-06-03T15:33:31Z</time>
      </trkpt>
      <trkpt lat="46.60852" lon="-1.85329">
        <ele>11.1</ele>
        <time>2020-06-03T15:33:32Z</time>
      </trkpt>
      <trkpt lat="46.60856" lon="-1.85333">
        <ele>11.1</ele>
        <time>2020-06-03T15:33:33Z</time>
      </trkpt>
      <trkpt lat="46.6086" lon="-1.85336">
        <ele>11.1</ele>
        <time>2020-06-03T15:33:34Z</time>
      </trkpt>
      <trkpt lat="46.60864" lon="-1.85341">
        <ele>11.2</ele>
        <time>2020-06-03T15:33:35Z</time>
      </trkpt>
      <trkpt lat="46.60867" lon="-1.85345">
        <ele>11.2</ele>
        <time>2020-06-03T15:33:36Z</time>
      </trkpt>
      <trkpt lat="46.60871" lon="-1.85349">
        <ele>11.2</ele>
        <time>2020-06-03T15:33:37Z</time>
      </trkpt>
      <trkpt lat="46.60876" lon="-1.85354">
        <ele>11.3</ele>
        <time>2020-06-03T15:33:38Z</time>
      </trkpt>
      <trkpt lat="46.60881" lon="-1.85359">
        <ele>11.3</ele>
        <time>2020-06-03T15:33:39Z</time>
      </trkpt>
      <trkpt lat="46.60886" lon="-1.85362">
        <ele>11.4</ele>
        <time>2020-06-03T15:33:40Z</time>
      </trkpt>
      <trkpt lat="46.6089" lon="-1.85367">
        <ele>11.4</ele>
        <time>2020-06-03T15:33:41Z</time>
      </trkpt>
      <trkpt lat="46.60895" lon="-1.8537">
        <ele>11.5</ele>
        <time>2020-06-03T15:33:42Z</time>
      </trkpt>
      <trkpt lat="46.60901" lon="-1.85372">
        <ele>11.6</ele>
        <time>2020-06-03T15:33:43Z</time>
      </trkpt>
      <trkpt lat="46.60906" lon="-1.85374">
        <ele>11.6</ele>
        <time>2020-06-03T15:33:44Z</time>
      </trkpt>
      <trkpt lat="46.60911" lon="-1.85376">
        <ele>11.6</ele>
        <time>2020-06-03T15:33:45Z</time>
      </trkpt>
      <trkpt lat="46.60916" lon="-1.85378">
        <ele>11.7</ele>
        <time>2020-06-03T15:33:46Z</time>
      </trkpt>
      <trkpt lat="46.6092" lon="-1.8538">
        <ele>11.7</ele>
        <time>2020-06-03T15:33:47Z</time>
      </trkpt>
      <trkpt lat="46.60924" lon="-1.85383">
        <ele>11.7</ele>
        <time>2020-06-03T15:33:48Z</time>
      </trkpt>
      <trkpt lat="46.60929" lon="-1.85385">
        <ele>11.7</ele>
        <time>2020-06-03T15:33:49Z</time>
      </trkpt>
      <trkpt lat="46.60933" lon="-1.85387">
        <ele>11.6</ele>
        <time>2020-06-03T15:33:50Z</time>
      </trkpt>
      <trkpt lat="46.60938" lon="-1.85389">
        <ele>11.6</ele>
        <time>2020-06-03T15:33:51Z</time>
      </trkpt>
      <trkpt lat="46.60943" lon="-1.85391">
        <ele>11.6</ele>
        <time>2020-06-03T15:33:52Z</time>
      </trkpt>
      <trkpt lat="46.60948" lon="-1.85393">
        <ele>11.6</ele>
        <time>2020-06-03T15:33:53Z</time>
      </trkpt>
      <trkpt lat="46.60952" lon="-1.85395">
        <ele>11.6</ele>
        <time>2020-06-03T15:33:54Z</time>
      </trkpt>
      <trkpt lat="46.60956" lon="-1.85396">
        <ele>11.5</ele>
        <time>2020-06-03T15:33:55Z</time>
      </trkpt>
      <trkpt lat="46.60959" lon="-1.85399">
        <ele>11.5</ele>
        <time>2020-06-03T15:33:56Z</time>
      </trkpt>
      <trkpt lat="46.60963" lon="-1.85401">
        <ele>11.5</ele>
        <time>2020-06-03T15:33:57Z</time>
      </trkpt>
      <trkpt lat="46.60967" lon="-1.85403">
        <ele>11.5</ele>
        <time>2020-06-03T15:33:58Z</time>
      </trkpt>
      <trkpt lat="46.6097" lon="-1.85405">
        <ele>11.5</ele>
        <time>2020-06-03T15:33:59Z</time>
      </trkpt>
      <trkpt lat="46.60974" lon="-1.85407">
        <ele>11.5</ele>
        <time>2020-06-03T15:34:00Z</time>
      </trkpt>
      <trkpt lat="46.60979" lon="-1.85409">
        <ele>11.5</ele>
        <time>2020-06-03T15:34:01Z</time>
      </trkpt>
      <trkpt lat="46.60984" lon="-1.85411">
        <ele>11.5</ele>
        <time>2020-06-03T15:34:02Z</time>
      </trkpt>
      <trkpt lat="46.60988" lon="-1.85413">
        <ele>11.5</ele>
        <time>2020-06-03T15:34:03Z</time>
      </trkpt>
      <trkpt lat="46.60992" lon="-1.85415">
        <ele>11.5</ele>
        <time>2020-06-03T15:34:04Z</time>
      </trkpt>
      <trkpt lat="46.60996" lon="-1.85417">
        <ele>11.5</ele>
        <time>2020-06-03T15:34:05Z</time>
      </trkpt>
      <trkpt lat="46.61" lon="-1.85419">
        <ele>11.6</ele>
        <time>2020-06-03T15:34:06Z</time>
      </trkpt>
      <trkpt lat="46.61004" lon="-1.8542">
        <ele>11.6</ele>
        <time>2020-06-03T15:34:07Z</time>
      </trkpt>
      <trkpt lat="46.61007" lon="-1.85422">
        <ele>11.6</ele>
        <time>2020-06-03T15:34:08Z</time>
      </trkpt>
      <trkpt lat="46.61011" lon="-1.85423">
        <ele>11.6</ele>
        <time>2020-06-03T15:34:09Z</time>
      </trkpt>
      <trkpt lat="46.61015" lon="-1.85425">
        <ele>11.6</ele>
        <time>2020-06-03T15:34:10Z</time>
      </trkpt>
      <trkpt lat="46.61019" lon="-1.85426">
        <ele>11.6</ele>
        <time>2020-06-03T15:34:11Z</time>
      </trkpt>
      <trkpt lat="46.61022" lon="-1.85428">
        <ele>11.6</ele>
        <time>2020-06-03T15:34:12Z</time>
      </trkpt>
      <trkpt lat="46.61026" lon="-1.85429">
        <ele>11.7</ele>
        <time>2020-06-03T15:34:13Z</time>
      </trkpt>
      <trkpt lat="46.6103" lon="-1.85431">
        <ele>11.7</ele>
        <time>2020-06-03T15:34:14Z</time>
      </trkpt>
      <trkpt lat="46.61035" lon="-1.85433">
        <ele>11.7</ele>
        <time>2020-06-03T15:34:15Z</time>
      </trkpt>
      <trkpt lat="46.6104" lon="-1.85436">
        <ele>11.7</ele>
        <time>2020-06-03T15:34:16Z</time>
      </trkpt>
      <trkpt lat="46.61046" lon="-1.85439">
        <ele>11.8</ele>
        <time>2020-06-03T15:34:17Z</time>
      </trkpt>
      <trkpt lat="46.61051" lon="-1.85442">
        <ele>11.8</ele>
        <time>2020-06-03T15:34:18Z</time>
      </trkpt>
      <trkpt lat="46.61056" lon="-1.85445">
        <ele>11.8</ele>
        <time>2020-06-03T15:34:19Z</time>
      </trkpt>
      <trkpt lat="46.61061" lon="-1.85448">
        <ele>11.9</ele>
        <time>2020-06-03T15:34:20Z</time>
      </trkpt>
      <trkpt lat="46.61066" lon="-1.8545">
        <ele>11.9</ele>
        <time>2020-06-03T15:34:21Z</time>
      </trkpt>
      <trkpt lat="46.61071" lon="-1.85452">
        <ele>11.9</ele>
        <time>2020-06-03T15:34:22Z</time>
      </trkpt>
      <trkpt lat="46.61076" lon="-1.85455">
        <ele>12</ele>
        <time>2020-06-03T15:34:23Z</time>
      </trkpt>
      <trkpt lat="46.6108" lon="-1.85458">
        <ele>12</ele>
        <time>2020-06-03T15:34:24Z</time>
      </trkpt>
      <trkpt lat="46.61085" lon="-1.85462">
        <ele>12.1</ele>
        <time>2020-06-03T15:34:25Z</time>
      </trkpt>
      <trkpt lat="46.61089" lon="-1.85467">
        <ele>12.1</ele>
        <time>2020-06-03T15:34:26Z</time>
      </trkpt>
      <trkpt lat="46.61092" lon="-1.85473">
        <ele>12.1</ele>
        <time>2020-06-03T15:34:27Z</time>
      </trkpt>
      <trkpt lat="46.61095" lon="-1.85478">
        <ele>12.1</ele>
        <time>2020-06-03T15:34:28Z</time>
      </trkpt>
      <trkpt lat="46.61097" lon="-1.85483">
        <ele>12.2</ele>
        <time>2020-06-03T15:34:29Z</time>
      </trkpt>
      <trkpt lat="46.61099" lon="-1.85487">
        <ele>12.2</ele>
        <time>2020-06-03T15:34:30Z</time>
      </trkpt>
      <trkpt lat="46.61099" lon="-1.85488">
        <ele>12.2</ele>
        <time>2020-06-03T15:34:31Z</time>
      </trkpt>
      <trkpt lat="46.611" lon="-1.85491">
        <ele>12.2</ele>
        <time>2020-06-03T15:34:32Z</time>
      </trkpt>
      <trkpt lat="46.611" lon="-1.85492">
        <ele>12.2</ele>
        <time>2020-06-03T15:34:33Z</time>
      </trkpt>
      <trkpt lat="46.61102" lon="-1.85495">
        <ele>12.2</ele>
        <time>2020-06-03T15:34:34Z</time>
      </trkpt>
      <trkpt lat="46.61103" lon="-1.85497">
        <ele>12.2</ele>
        <time>2020-06-03T15:34:35Z</time>
      </trkpt>
      <trkpt lat="46.61107" lon="-1.85498">
        <ele>12.2</ele>
        <time>2020-06-03T15:34:36Z</time>
      </trkpt>
      <trkpt lat="46.61111" lon="-1.855">
        <ele>12.2</ele>
        <time>2020-06-03T15:34:37Z</time>
      </trkpt>
      <trkpt lat="46.61116" lon="-1.85501">
        <ele>12.1</ele>
        <time>2020-06-03T15:34:38Z</time>
      </trkpt>
      <trkpt lat="46.61121" lon="-1.85508">
        <ele>12.1</ele>
        <time>2020-06-03T15:34:39Z</time>
      </trkpt>
      <trkpt lat="46.61126" lon="-1.85515">
        <ele>12.1</ele>
        <time>2020-06-03T15:34:40Z</time>
      </trkpt>
      <trkpt lat="46.61129" lon="-1.85523">
        <ele>12</ele>
        <time>2020-06-03T15:34:41Z</time>
      </trkpt>
      <trkpt lat="46.61133" lon="-1.8553">
        <ele>12</ele>
        <time>2020-06-03T15:34:42Z</time>
      </trkpt>
      <trkpt lat="46.61138" lon="-1.85534">
        <ele>11.9</ele>
        <time>2020-06-03T15:34:43Z</time>
      </trkpt>
      <trkpt lat="46.61142" lon="-1.85537">
        <ele>11.9</ele>
        <time>2020-06-03T15:34:44Z</time>
      </trkpt>
      <trkpt lat="46.61147" lon="-1.85539">
        <ele>11.9</ele>
        <time>2020-06-03T15:34:45Z</time>
      </trkpt>
      <trkpt lat="46.61151" lon="-1.8554">
        <ele>11.9</ele>
        <time>2020-06-03T15:34:46Z</time>
      </trkpt>
      <trkpt lat="46.61155" lon="-1.85542">
        <ele>11.9</ele>
        <time>2020-06-03T15:34:47Z</time>
      </trkpt>
      <trkpt lat="46.61159" lon="-1.85544">
        <ele>11.9</ele>
        <time>2020-06-03T15:34:48Z</time>
      </trkpt>
      <trkpt lat="46.61163" lon="-1.85547">
        <ele>11.9</ele>
        <time>2020-06-03T15:34:49Z</time>
      </trkpt>
      <trkpt lat="46.61167" lon="-1.85552">
        <ele>11.8</ele>
        <time>2020-06-03T15:34:50Z</time>
      </trkpt>
      <trkpt lat="46.6117" lon="-1.85558">
        <ele>11.8</ele>
        <time>2020-06-03T15:34:51Z</time>
      </trkpt>
      <trkpt lat="46.61173" lon="-1.85563">
        <ele>11.7</ele>
        <time>2020-06-03T15:34:52Z</time>
      </trkpt>
      <trkpt lat="46.61176" lon="-1.85569">
        <ele>11.7</ele>
        <time>2020-06-03T15:34:53Z</time>
      </trkpt>
      <trkpt lat="46.61178" lon="-1.85574">
        <ele>11.7</ele>
        <time>2020-06-03T15:34:54Z</time>
      </trkpt>
      <trkpt lat="46.61181" lon="-1.85581">
        <ele>11.7</ele>
        <time>2020-06-03T15:34:55Z</time>
      </trkpt>
      <trkpt lat="46.61182" lon="-1.85589">
        <ele>11.6</ele>
        <time>2020-06-03T15:34:56Z</time>
      </trkpt>
      <trkpt lat="46.61183" lon="-1.85598">
        <ele>11.6</ele>
        <time>2020-06-03T15:34:57Z</time>
      </trkpt>
      <trkpt lat="46.61184" lon="-1.85607">
        <ele>11.5</ele>
        <time>2020-06-03T15:34:58Z</time>
      </trkpt>
      <trkpt lat="46.61185" lon="-1.85614">
        <ele>11.4</ele>
        <time>2020-06-03T15:34:59Z</time>
      </trkpt>
      <trkpt lat="46.61186" lon="-1.85623">
        <ele>11.4</ele>
        <time>2020-06-03T15:35:00Z</time>
      </trkpt>
      <trkpt lat="46.61187" lon="-1.85631">
        <ele>11.3</ele>
        <time>2020-06-03T15:35:01Z</time>
      </trkpt>
      <trkpt lat="46.61188" lon="-1.8564">
        <ele>11.2</ele>
        <time>2020-06-03T15:35:02Z</time>
      </trkpt>
      <trkpt lat="46.61189" lon="-1.85649">
        <ele>11.1</ele>
        <time>2020-06-03T15:35:03Z</time>
      </trkpt>
      <trkpt lat="46.61191" lon="-1.85657">
        <ele>11.1</ele>
        <time>2020-06-03T15:35:04Z</time>
      </trkpt>
      <trkpt lat="46.61193" lon="-1.85665">
        <ele>11.1</ele>
        <time>2020-06-03T15:35:05Z</time>
      </trkpt>
      <trkpt lat="46.61195" lon="-1.85672">
        <ele>11.1</ele>
        <time>2020-06-03T15:35:06Z</time>
      </trkpt>
      <trkpt lat="46.61198" lon="-1.85678">
        <ele>11.1</ele>
        <time>2020-06-03T15:35:07Z</time>
      </trkpt>
      <trkpt lat="46.61201" lon="-1.85683">
        <ele>11.1</ele>
        <time>2020-06-03T15:35:08Z</time>
      </trkpt>
      <trkpt lat="46.61203" lon="-1.85689">
        <ele>11.1</ele>
        <time>2020-06-03T15:35:09Z</time>
      </trkpt>
      <trkpt lat="46.61205" lon="-1.85694">
        <ele>11.1</ele>
        <time>2020-06-03T15:35:10Z</time>
      </trkpt>
      <trkpt lat="46.61207" lon="-1.857">
        <ele>11.1</ele>
        <time>2020-06-03T15:35:11Z</time>
      </trkpt>
      <trkpt lat="46.61209" lon="-1.85705">
        <ele>11.1</ele>
        <time>2020-06-03T15:35:12Z</time>
      </trkpt>
      <trkpt lat="46.61211" lon="-1.8571">
        <ele>11.1</ele>
        <time>2020-06-03T15:35:13Z</time>
      </trkpt>
      <trkpt lat="46.61212" lon="-1.85715">
        <ele>11.1</ele>
        <time>2020-06-03T15:35:14Z</time>
      </trkpt>
      <trkpt lat="46.61214" lon="-1.8572">
        <ele>11.1</ele>
        <time>2020-06-03T15:35:15Z</time>
      </trkpt>
      <trkpt lat="46.61215" lon="-1.85727">
        <ele>11.1</ele>
        <time>2020-06-03T15:35:16Z</time>
      </trkpt>
      <trkpt lat="46.61216" lon="-1.85733">
        <ele>11.1</ele>
        <time>2020-06-03T15:35:17Z</time>
      </trkpt>
      <trkpt lat="46.61217" lon="-1.8574">
        <ele>11.1</ele>
        <time>2020-06-03T15:35:18Z</time>
      </trkpt>
      <trkpt lat="46.61218" lon="-1.85747">
        <ele>11.1</ele>
        <time>2020-06-03T15:35:19Z</time>
      </trkpt>
      <trkpt lat="46.61218" lon="-1.85753">
        <ele>11</ele>
        <time>2020-06-03T15:35:20Z</time>
      </trkpt>
      <trkpt lat="46.61219" lon="-1.85759">
        <ele>11</ele>
        <time>2020-06-03T15:35:21Z</time>
      </trkpt>
      <trkpt lat="46.61219" lon="-1.85764">
        <ele>10.9</ele>
        <time>2020-06-03T15:35:22Z</time>
      </trkpt>
      <trkpt lat="46.6122" lon="-1.85769">
        <ele>10.8</ele>
        <time>2020-06-03T15:35:23Z</time>
      </trkpt>
      <trkpt lat="46.61221" lon="-1.85774">
        <ele>10.7</ele>
        <time>2020-06-03T15:35:24Z</time>
      </trkpt>
      <trkpt lat="46.61222" lon="-1.8578">
        <ele>10.6</ele>
        <time>2020-06-03T15:35:25Z</time>
      </trkpt>
      <trkpt lat="46.61223" lon="-1.85786">
        <ele>10.5</ele>
        <time>2020-06-03T15:35:26Z</time>
      </trkpt>
      <trkpt lat="46.61225" lon="-1.85793">
        <ele>10.3</ele>
        <time>2020-06-03T15:35:27Z</time>
      </trkpt>
      <trkpt lat="46.61226" lon="-1.858">
        <ele>10.2</ele>
        <time>2020-06-03T15:35:28Z</time>
      </trkpt>
      <trkpt lat="46.61227" lon="-1.8581">
        <ele>10</ele>
        <time>2020-06-03T15:35:29Z</time>
      </trkpt>
      <trkpt lat="46.6123" lon="-1.8582">
        <ele>9.8</ele>
        <time>2020-06-03T15:35:30Z</time>
      </trkpt>
      <trkpt lat="46.61231" lon="-1.85829">
        <ele>9.6</ele>
        <time>2020-06-03T15:35:31Z</time>
      </trkpt>
      <trkpt lat="46.61234" lon="-1.85838">
        <ele>9.5</ele>
        <time>2020-06-03T15:35:32Z</time>
      </trkpt>
      <trkpt lat="46.61237" lon="-1.85845">
        <ele>9.5</ele>
        <time>2020-06-03T15:35:33Z</time>
      </trkpt>
      <trkpt lat="46.61239" lon="-1.85854">
        <ele>9.4</ele>
        <time>2020-06-03T15:35:34Z</time>
      </trkpt>
      <trkpt lat="46.61242" lon="-1.85863">
        <ele>9.4</ele>
        <time>2020-06-03T15:35:35Z</time>
      </trkpt>
      <trkpt lat="46.61245" lon="-1.85872">
        <ele>9.4</ele>
        <time>2020-06-03T15:35:36Z</time>
      </trkpt>
      <trkpt lat="46.61248" lon="-1.85881">
        <ele>9.4</ele>
        <time>2020-06-03T15:35:37Z</time>
      </trkpt>
      <trkpt lat="46.6125" lon="-1.85888">
        <ele>9.4</ele>
        <time>2020-06-03T15:35:38Z</time>
      </trkpt>
      <trkpt lat="46.61253" lon="-1.85897">
        <ele>9.3</ele>
        <time>2020-06-03T15:35:39Z</time>
      </trkpt>
      <trkpt lat="46.61255" lon="-1.85902">
        <ele>9.3</ele>
        <time>2020-06-03T15:35:40Z</time>
      </trkpt>
      <trkpt lat="46.61255" lon="-1.85908">
        <ele>9.3</ele>
        <time>2020-06-03T15:35:41Z</time>
      </trkpt>
      <trkpt lat="46.61254" lon="-1.85914">
        <ele>9.2</ele>
        <time>2020-06-03T15:35:42Z</time>
      </trkpt>
      <trkpt lat="46.61254" lon="-1.8592">
        <ele>9.2</ele>
        <time>2020-06-03T15:35:43Z</time>
      </trkpt>
      <trkpt lat="46.61254" lon="-1.85926">
        <ele>9.2</ele>
        <time>2020-06-03T15:35:44Z</time>
      </trkpt>
      <trkpt lat="46.61254" lon="-1.85932">
        <ele>9.1</ele>
        <time>2020-06-03T15:35:45Z</time>
      </trkpt>
      <trkpt lat="46.61255" lon="-1.85937">
        <ele>9.1</ele>
        <time>2020-06-03T15:35:46Z</time>
      </trkpt>
      <trkpt lat="46.61256" lon="-1.85943">
        <ele>9.1</ele>
        <time>2020-06-03T15:35:47Z</time>
      </trkpt>
      <trkpt lat="46.61258" lon="-1.85948">
        <ele>9</ele>
        <time>2020-06-03T15:35:48Z</time>
      </trkpt>
      <trkpt lat="46.6126" lon="-1.85952">
        <ele>9</ele>
        <time>2020-06-03T15:35:49Z</time>
      </trkpt>
      <trkpt lat="46.61261" lon="-1.85957">
        <ele>9</ele>
        <time>2020-06-03T15:35:50Z</time>
      </trkpt>
      <trkpt lat="46.61263" lon="-1.85962">
        <ele>8.9</ele>
        <time>2020-06-03T15:35:51Z</time>
      </trkpt>
      <trkpt lat="46.61265" lon="-1.85968">
        <ele>8.8</ele>
        <time>2020-06-03T15:35:52Z</time>
      </trkpt>
      <trkpt lat="46.61267" lon="-1.85974">
        <ele>8.7</ele>
        <time>2020-06-03T15:35:53Z</time>
      </trkpt>
      <trkpt lat="46.61269" lon="-1.85982">
        <ele>8.5</ele>
        <time>2020-06-03T15:35:54Z</time>
      </trkpt>
      <trkpt lat="46.61271" lon="-1.85988">
        <ele>8.4</ele>
        <time>2020-06-03T15:35:55Z</time>
      </trkpt>
      <trkpt lat="46.61273" lon="-1.85995">
        <ele>8.1</ele>
        <time>2020-06-03T15:35:56Z</time>
      </trkpt>
      <trkpt lat="46.61275" lon="-1.86002">
        <ele>7.8</ele>
        <time>2020-06-03T15:35:57Z</time>
      </trkpt>
      <trkpt lat="46.61278" lon="-1.86008">
        <ele>7.6</ele>
        <time>2020-06-03T15:35:58Z</time>
      </trkpt>
      <trkpt lat="46.6128" lon="-1.86013">
        <ele>7.4</ele>
        <time>2020-06-03T15:35:59Z</time>
      </trkpt>
      <trkpt lat="46.61282" lon="-1.86019">
        <ele>7.2</ele>
        <time>2020-06-03T15:36:00Z</time>
      </trkpt>
      <trkpt lat="46.61285" lon="-1.86024">
        <ele>7</ele>
        <time>2020-06-03T15:36:01Z</time>
      </trkpt>
      <trkpt lat="46.61288" lon="-1.86029">
        <ele>6.8</ele>
        <time>2020-06-03T15:36:02Z</time>
      </trkpt>
      <trkpt lat="46.6129" lon="-1.86033">
        <ele>6.7</ele>
        <time>2020-06-03T15:36:03Z</time>
      </trkpt>
      <trkpt lat="46.61292" lon="-1.86035">
        <ele>6.7</ele>
        <time>2020-06-03T15:36:04Z</time>
      </trkpt>
      <trkpt lat="46.61293" lon="-1.86036">
        <ele>6.6</ele>
        <time>2020-06-03T15:36:05Z</time>
      </trkpt>
      <trkpt lat="46.61294" lon="-1.86037">
        <ele>6.6</ele>
        <time>2020-06-03T15:36:06Z</time>
      </trkpt>
      <trkpt lat="46.61295" lon="-1.86039">
        <ele>6.6</ele>
        <time>2020-06-03T15:36:07Z</time>
      </trkpt>
      <trkpt lat="46.61296" lon="-1.86041">
        <ele>6.5</ele>
        <time>2020-06-03T15:36:08Z</time>
      </trkpt>
      <trkpt lat="46.61298" lon="-1.86045">
        <ele>6.5</ele>
        <time>2020-06-03T15:36:09Z</time>
      </trkpt>
      <trkpt lat="46.61298" lon="-1.86046">
        <ele>6.4</ele>
        <time>2020-06-03T15:36:10Z</time>
      </trkpt>
      <trkpt lat="46.61299" lon="-1.86049">
        <ele>6.4</ele>
        <time>2020-06-03T15:36:11Z</time>
      </trkpt>
      <trkpt lat="46.61299" lon="-1.86049">
        <ele>6.4</ele>
        <time>2020-06-03T15:36:12Z</time>
      </trkpt>
      <trkpt lat="46.61299" lon="-1.86049">
        <ele>6.4</ele>
        <time>2020-06-03T15:36:13Z</time>
      </trkpt>
      <trkpt lat="46.61298" lon="-1.86049">
        <ele>6.4</ele>
        <time>2020-06-03T15:36:14Z</time>
      </trkpt>
      <trkpt lat="46.61298" lon="-1.86049">
        <ele>6.4</ele>
        <time>2020-06-03T15:36:15Z</time>
      </trkpt>
      <trkpt lat="46.61298" lon="-1.86049">
        <ele>6.4</ele>
        <time>2020-06-03T15:36:16Z</time>
      </trkpt>
      <trkpt lat="46.61298" lon="-1.86049">
        <ele>6.4</ele>
        <time>2020-06-03T15:36:17Z</time>
      </trkpt>
      <trkpt lat="46.61298" lon="-1.86049">
        <ele>6.4</ele>
        <time>2020-06-03T15:36:18Z</time>
      </trkpt>
      <trkpt lat="46.61298" lon="-1.86049">
        <ele>6.4</ele>
        <time>2020-06-03T15:36:19Z</time>
      </trkpt>
      <trkpt lat="46.61299" lon="-1.86049">
        <ele>6.4</ele>
        <time>2020-06-03T15:36:20Z</time>
      </trkpt>
      <trkpt lat="46.61299" lon="-1.8605">
        <ele>6.4</ele>
        <time>2020-06-03T15:36:21Z</time>
      </trkpt>
      <trkpt lat="46.613" lon="-1.86053">
        <ele>6.3</ele>
        <time>2020-06-03T15:36:22Z</time>
      </trkpt>
      <trkpt lat="46.61301" lon="-1.86054">
        <ele>6.3</ele>
        <time>2020-06-03T15:36:23Z</time>
      </trkpt>
      <trkpt lat="46.61301" lon="-1.86055">
        <ele>6.3</ele>
        <time>2020-06-03T15:36:24Z</time>
      </trkpt>
      <trkpt lat="46.61304" lon="-1.86058">
        <ele>6.3</ele>
        <time>2020-06-03T15:36:25Z</time>
      </trkpt>
      <trkpt lat="46.61305" lon="-1.8606">
        <ele>6.3</ele>
        <time>2020-06-03T15:36:26Z</time>
      </trkpt>
      <trkpt lat="46.61307" lon="-1.86063">
        <ele>6.3</ele>
        <time>2020-06-03T15:36:27Z</time>
      </trkpt>
      <trkpt lat="46.61307" lon="-1.86064">
        <ele>6.3</ele>
        <time>2020-06-03T15:36:28Z</time>
      </trkpt>
      <trkpt lat="46.6131" lon="-1.86066">
        <ele>6.3</ele>
        <time>2020-06-03T15:36:29Z</time>
      </trkpt>
      <trkpt lat="46.61312" lon="-1.86069">
        <ele>6.2</ele>
        <time>2020-06-03T15:36:30Z</time>
      </trkpt>
      <trkpt lat="46.61313" lon="-1.86069">
        <ele>6.2</ele>
        <time>2020-06-03T15:36:31Z</time>
      </trkpt>
      <trkpt lat="46.61316" lon="-1.86072">
        <ele>6.2</ele>
        <time>2020-06-03T15:36:32Z</time>
      </trkpt>
      <trkpt lat="46.61317" lon="-1.86073">
        <ele>6.2</ele>
        <time>2020-06-03T15:36:33Z</time>
      </trkpt>
      <trkpt lat="46.6132" lon="-1.86074">
        <ele>6.2</ele>
        <time>2020-06-03T15:36:34Z</time>
      </trkpt>
      <trkpt lat="46.61321" lon="-1.86075">
        <ele>6.2</ele>
        <time>2020-06-03T15:36:35Z</time>
      </trkpt>
      <trkpt lat="46.61325" lon="-1.86075">
        <ele>6.2</ele>
        <time>2020-06-03T15:36:36Z</time>
      </trkpt>
      <trkpt lat="46.61326" lon="-1.86074">
        <ele>6.2</ele>
        <time>2020-06-03T15:36:37Z</time>
      </trkpt>
      <trkpt lat="46.61329" lon="-1.86072">
        <ele>6.2</ele>
        <time>2020-06-03T15:36:38Z</time>
      </trkpt>
      <trkpt lat="46.6133" lon="-1.86071">
        <ele>6.1</ele>
        <time>2020-06-03T15:36:39Z</time>
      </trkpt>
      <trkpt lat="46.61332" lon="-1.86067">
        <ele>6.1</ele>
        <time>2020-06-03T15:36:40Z</time>
      </trkpt>
      <trkpt lat="46.61333" lon="-1.86066">
        <ele>6.1</ele>
        <time>2020-06-03T15:36:41Z</time>
      </trkpt>
      <trkpt lat="46.61336" lon="-1.86063">
        <ele>6.1</ele>
        <time>2020-06-03T15:36:42Z</time>
      </trkpt>
      <trkpt lat="46.61339" lon="-1.86059">
        <ele>6.1</ele>
        <time>2020-06-03T15:36:43Z</time>
      </trkpt>
      <trkpt lat="46.61341" lon="-1.86055">
        <ele>6.1</ele>
        <time>2020-06-03T15:36:44Z</time>
      </trkpt>
      <trkpt lat="46.61344" lon="-1.86052">
        <ele>6.2</ele>
        <time>2020-06-03T15:36:45Z</time>
      </trkpt>
      <trkpt lat="46.61346" lon="-1.86049">
        <ele>6.2</ele>
        <time>2020-06-03T15:36:46Z</time>
      </trkpt>
      <trkpt lat="46.6135" lon="-1.86044">
        <ele>6.2</ele>
        <time>2020-06-03T15:36:47Z</time>
      </trkpt>
      <trkpt lat="46.61352" lon="-1.86041">
        <ele>6.2</ele>
        <time>2020-06-03T15:36:48Z</time>
      </trkpt>
      <trkpt lat="46.61354" lon="-1.86037">
        <ele>6.3</ele>
        <time>2020-06-03T15:36:49Z</time>
      </trkpt>
      <trkpt lat="46.61357" lon="-1.86031">
        <ele>6.3</ele>
        <time>2020-06-03T15:36:50Z</time>
      </trkpt>
      <trkpt lat="46.61359" lon="-1.86026">
        <ele>6.4</ele>
        <time>2020-06-03T15:36:51Z</time>
      </trkpt>
      <trkpt lat="46.61362" lon="-1.86021">
        <ele>6.5</ele>
        <time>2020-06-03T15:36:52Z</time>
      </trkpt>
      <trkpt lat="46.61365" lon="-1.86017">
        <ele>6.5</ele>
        <time>2020-06-03T15:36:53Z</time>
      </trkpt>
      <trkpt lat="46.61367" lon="-1.86013">
        <ele>6.6</ele>
        <time>2020-06-03T15:36:54Z</time>
      </trkpt>
      <trkpt lat="46.61369" lon="-1.86007">
        <ele>6.7</ele>
        <time>2020-06-03T15:36:55Z</time>
      </trkpt>
      <trkpt lat="46.61371" lon="-1.86003">
        <ele>6.8</ele>
        <time>2020-06-03T15:36:56Z</time>
      </trkpt>
      <trkpt lat="46.61373" lon="-1.85998">
        <ele>6.9</ele>
        <time>2020-06-03T15:36:57Z</time>
      </trkpt>
      <trkpt lat="46.61375" lon="-1.85993">
        <ele>7</ele>
        <time>2020-06-03T15:36:58Z</time>
      </trkpt>
      <trkpt lat="46.61377" lon="-1.85989">
        <ele>7.1</ele>
        <time>2020-06-03T15:36:59Z</time>
      </trkpt>
      <trkpt lat="46.61379" lon="-1.85984">
        <ele>7.2</ele>
        <time>2020-06-03T15:37:00Z</time>
      </trkpt>
      <trkpt lat="46.61382" lon="-1.8598">
        <ele>7.3</ele>
        <time>2020-06-03T15:37:01Z</time>
      </trkpt>
      <trkpt lat="46.61384" lon="-1.85975">
        <ele>7.4</ele>
        <time>2020-06-03T15:37:02Z</time>
      </trkpt>
      <trkpt lat="46.61386" lon="-1.85969">
        <ele>7.5</ele>
        <time>2020-06-03T15:37:03Z</time>
      </trkpt>
      <trkpt lat="46.61388" lon="-1.85965">
        <ele>7.6</ele>
        <time>2020-06-03T15:37:04Z</time>
      </trkpt>
      <trkpt lat="46.6139" lon="-1.85959">
        <ele>7.6</ele>
        <time>2020-06-03T15:37:05Z</time>
      </trkpt>
      <trkpt lat="46.61391" lon="-1.85954">
        <ele>7.7</ele>
        <time>2020-06-03T15:37:06Z</time>
      </trkpt>
      <trkpt lat="46.61393" lon="-1.85948">
        <ele>7.7</ele>
        <time>2020-06-03T15:37:07Z</time>
      </trkpt>
      <trkpt lat="46.61395" lon="-1.85943">
        <ele>7.8</ele>
        <time>2020-06-03T15:37:08Z</time>
      </trkpt>
      <trkpt lat="46.61398" lon="-1.85937">
        <ele>7.8</ele>
        <time>2020-06-03T15:37:09Z</time>
      </trkpt>
      <trkpt lat="46.61401" lon="-1.85932">
        <ele>7.9</ele>
        <time>2020-06-03T15:37:10Z</time>
      </trkpt>
      <trkpt lat="46.61403" lon="-1.85927">
        <ele>7.9</ele>
        <time>2020-06-03T15:37:11Z</time>
      </trkpt>
      <trkpt lat="46.61406" lon="-1.85921">
        <ele>7.9</ele>
        <time>2020-06-03T15:37:12Z</time>
      </trkpt>
      <trkpt lat="46.61408" lon="-1.85915">
        <ele>7.9</ele>
        <time>2020-06-03T15:37:13Z</time>
      </trkpt>
      <trkpt lat="46.6141" lon="-1.85909">
        <ele>7.9</ele>
        <time>2020-06-03T15:37:14Z</time>
      </trkpt>
      <trkpt lat="46.61412" lon="-1.85903">
        <ele>7.9</ele>
        <time>2020-06-03T15:37:15Z</time>
      </trkpt>
      <trkpt lat="46.61414" lon="-1.85897">
        <ele>7.9</ele>
        <time>2020-06-03T15:37:16Z</time>
      </trkpt>
      <trkpt lat="46.61415" lon="-1.85891">
        <ele>7.8</ele>
        <time>2020-06-03T15:37:17Z</time>
      </trkpt>
      <trkpt lat="46.61416" lon="-1.85887">
        <ele>7.8</ele>
        <time>2020-06-03T15:37:18Z</time>
      </trkpt>
      <trkpt lat="46.61417" lon="-1.85882">
        <ele>7.8</ele>
        <time>2020-06-03T15:37:19Z</time>
      </trkpt>
      <trkpt lat="46.61419" lon="-1.85878">
        <ele>7.7</ele>
        <time>2020-06-03T15:37:20Z</time>
      </trkpt>
      <trkpt lat="46.6142" lon="-1.85874">
        <ele>7.8</ele>
        <time>2020-06-03T15:37:21Z</time>
      </trkpt>
      <trkpt lat="46.61422" lon="-1.8587">
        <ele>7.7</ele>
        <time>2020-06-03T15:37:22Z</time>
      </trkpt>
      <trkpt lat="46.61423" lon="-1.85869">
        <ele>7.7</ele>
        <time>2020-06-03T15:37:23Z</time>
      </trkpt>
      <trkpt lat="46.61424" lon="-1.8587">
        <ele>7.7</ele>
        <time>2020-06-03T15:37:24Z</time>
      </trkpt>
      <trkpt lat="46.61425" lon="-1.85871">
        <ele>7.7</ele>
        <time>2020-06-03T15:37:25Z</time>
      </trkpt>
      <trkpt lat="46.61426" lon="-1.85873">
        <ele>7.8</ele>
        <time>2020-06-03T15:37:26Z</time>
      </trkpt>
      <trkpt lat="46.61426" lon="-1.85874">
        <ele>7.8</ele>
        <time>2020-06-03T15:37:27Z</time>
      </trkpt>
      <trkpt lat="46.61428" lon="-1.8588">
        <ele>7.8</ele>
        <time>2020-06-03T15:37:28Z</time>
      </trkpt>
      <trkpt lat="46.61428" lon="-1.85887">
        <ele>7.8</ele>
        <time>2020-06-03T15:37:29Z</time>
      </trkpt>
      <trkpt lat="46.61427" lon="-1.85893">
        <ele>7.8</ele>
        <time>2020-06-03T15:37:30Z</time>
      </trkpt>
      <trkpt lat="46.61427" lon="-1.859">
        <ele>7.7</ele>
        <time>2020-06-03T15:37:31Z</time>
      </trkpt>
      <trkpt lat="46.61428" lon="-1.85906">
        <ele>7.7</ele>
        <time>2020-06-03T15:37:32Z</time>
      </trkpt>
      <trkpt lat="46.61428" lon="-1.85913">
        <ele>7.7</ele>
        <time>2020-06-03T15:37:33Z</time>
      </trkpt>
      <trkpt lat="46.61429" lon="-1.8592">
        <ele>7.7</ele>
        <time>2020-06-03T15:37:34Z</time>
      </trkpt>
      <trkpt lat="46.61429" lon="-1.85927">
        <ele>7.7</ele>
        <time>2020-06-03T15:37:35Z</time>
      </trkpt>
      <trkpt lat="46.61429" lon="-1.85935">
        <ele>7.7</ele>
        <time>2020-06-03T15:37:36Z</time>
      </trkpt>
      <trkpt lat="46.6143" lon="-1.85942">
        <ele>7.6</ele>
        <time>2020-06-03T15:37:37Z</time>
      </trkpt>
      <trkpt lat="46.61431" lon="-1.8595">
        <ele>7.6</ele>
        <time>2020-06-03T15:37:38Z</time>
      </trkpt>
      <trkpt lat="46.61432" lon="-1.85957">
        <ele>7.6</ele>
        <time>2020-06-03T15:37:39Z</time>
      </trkpt>
      <trkpt lat="46.61433" lon="-1.85963">
        <ele>7.6</ele>
        <time>2020-06-03T15:37:40Z</time>
      </trkpt>
      <trkpt lat="46.61434" lon="-1.85969">
        <ele>7.6</ele>
        <time>2020-06-03T15:37:41Z</time>
      </trkpt>
      <trkpt lat="46.61434" lon="-1.85974">
        <ele>7.5</ele>
        <time>2020-06-03T15:37:42Z</time>
      </trkpt>
      <trkpt lat="46.61435" lon="-1.8598">
        <ele>7.5</ele>
        <time>2020-06-03T15:37:43Z</time>
      </trkpt>
      <trkpt lat="46.61436" lon="-1.85984">
        <ele>7.5</ele>
        <time>2020-06-03T15:37:44Z</time>
      </trkpt>
      <trkpt lat="46.61436" lon="-1.85989">
        <ele>7.5</ele>
        <time>2020-06-03T15:37:45Z</time>
      </trkpt>
      <trkpt lat="46.61437" lon="-1.85993">
        <ele>7.5</ele>
        <time>2020-06-03T15:37:46Z</time>
      </trkpt>
      <trkpt lat="46.61437" lon="-1.85997">
        <ele>7.5</ele>
        <time>2020-06-03T15:37:47Z</time>
      </trkpt>
      <trkpt lat="46.61438" lon="-1.86002">
        <ele>7.5</ele>
        <time>2020-06-03T15:37:48Z</time>
      </trkpt>
      <trkpt lat="46.61438" lon="-1.86008">
        <ele>7.5</ele>
        <time>2020-06-03T15:37:49Z</time>
      </trkpt>
      <trkpt lat="46.61439" lon="-1.86013">
        <ele>7.5</ele>
        <time>2020-06-03T15:37:50Z</time>
      </trkpt>
      <trkpt lat="46.6144" lon="-1.86018">
        <ele>7.5</ele>
        <time>2020-06-03T15:37:51Z</time>
      </trkpt>
      <trkpt lat="46.6144" lon="-1.86024">
        <ele>7.4</ele>
        <time>2020-06-03T15:37:52Z</time>
      </trkpt>
      <trkpt lat="46.61441" lon="-1.8603">
        <ele>7.4</ele>
        <time>2020-06-03T15:37:53Z</time>
      </trkpt>
      <trkpt lat="46.61442" lon="-1.86036">
        <ele>7.4</ele>
        <time>2020-06-03T15:37:54Z</time>
      </trkpt>
      <trkpt lat="46.61442" lon="-1.86043">
        <ele>7.4</ele>
        <time>2020-06-03T15:37:55Z</time>
      </trkpt>
      <trkpt lat="46.61443" lon="-1.86049">
        <ele>7.4</ele>
        <time>2020-06-03T15:37:56Z</time>
      </trkpt>
      <trkpt lat="46.61444" lon="-1.86055">
        <ele>7.4</ele>
        <time>2020-06-03T15:37:57Z</time>
      </trkpt>
      <trkpt lat="46.61445" lon="-1.86062">
        <ele>7.4</ele>
        <time>2020-06-03T15:37:58Z</time>
      </trkpt>
      <trkpt lat="46.61446" lon="-1.86068">
        <ele>7.5</ele>
        <time>2020-06-03T15:37:59Z</time>
      </trkpt>
      <trkpt lat="46.61448" lon="-1.86074">
        <ele>7.5</ele>
        <time>2020-06-03T15:38:00Z</time>
      </trkpt>
      <trkpt lat="46.6145" lon="-1.86079">
        <ele>7.7</ele>
        <time>2020-06-03T15:38:01Z</time>
      </trkpt>
      <trkpt lat="46.61452" lon="-1.86086">
        <ele>7.8</ele>
        <time>2020-06-03T15:38:02Z</time>
      </trkpt>
      <trkpt lat="46.61453" lon="-1.86092">
        <ele>7.9</ele>
        <time>2020-06-03T15:38:03Z</time>
      </trkpt>
      <trkpt lat="46.61455" lon="-1.86098">
        <ele>8.1</ele>
        <time>2020-06-03T15:38:04Z</time>
      </trkpt>
      <trkpt lat="46.61457" lon="-1.86103">
        <ele>8.2</ele>
        <time>2020-06-03T15:38:05Z</time>
      </trkpt>
      <trkpt lat="46.61458" lon="-1.86109">
        <ele>8.3</ele>
        <time>2020-06-03T15:38:06Z</time>
      </trkpt>
      <trkpt lat="46.6146" lon="-1.86114">
        <ele>8.4</ele>
        <time>2020-06-03T15:38:07Z</time>
      </trkpt>
      <trkpt lat="46.61461" lon="-1.86119">
        <ele>8.5</ele>
        <time>2020-06-03T15:38:08Z</time>
      </trkpt>
      <trkpt lat="46.61463" lon="-1.86125">
        <ele>8.6</ele>
        <time>2020-06-03T15:38:09Z</time>
      </trkpt>
      <trkpt lat="46.61465" lon="-1.8613">
        <ele>8.7</ele>
        <time>2020-06-03T15:38:10Z</time>
      </trkpt>
      <trkpt lat="46.61467" lon="-1.86134">
        <ele>8.8</ele>
        <time>2020-06-03T15:38:11Z</time>
      </trkpt>
      <trkpt lat="46.61468" lon="-1.86139">
        <ele>8.8</ele>
        <time>2020-06-03T15:38:12Z</time>
      </trkpt>
      <trkpt lat="46.6147" lon="-1.86142">
        <ele>8.8</ele>
        <time>2020-06-03T15:38:13Z</time>
      </trkpt>
      <trkpt lat="46.61472" lon="-1.86146">
        <ele>8.8</ele>
        <time>2020-06-03T15:38:14Z</time>
      </trkpt>
      <trkpt lat="46.61473" lon="-1.86148">
        <ele>8.8</ele>
        <time>2020-06-03T15:38:15Z</time>
      </trkpt>
      <trkpt lat="46.61474" lon="-1.8615">
        <ele>8.8</ele>
        <time>2020-06-03T15:38:16Z</time>
      </trkpt>
      <trkpt lat="46.61475" lon="-1.86154">
        <ele>8.9</ele>
        <time>2020-06-03T15:38:17Z</time>
      </trkpt>
      <trkpt lat="46.61475" lon="-1.86156">
        <ele>8.9</ele>
        <time>2020-06-03T15:38:18Z</time>
      </trkpt>
      <trkpt lat="46.61476" lon="-1.86161">
        <ele>8.9</ele>
        <time>2020-06-03T15:38:19Z</time>
      </trkpt>
      <trkpt lat="46.61479" lon="-1.86167">
        <ele>8.9</ele>
        <time>2020-06-03T15:38:20Z</time>
      </trkpt>
      <trkpt lat="46.61483" lon="-1.8617">
        <ele>9</ele>
        <time>2020-06-03T15:38:21Z</time>
      </trkpt>
      <trkpt lat="46.61488" lon="-1.86172">
        <ele>9</ele>
        <time>2020-06-03T15:38:22Z</time>
      </trkpt>
      <trkpt lat="46.61492" lon="-1.86173">
        <ele>9</ele>
        <time>2020-06-03T15:38:23Z</time>
      </trkpt>
      <trkpt lat="46.61497" lon="-1.86172">
        <ele>9</ele>
        <time>2020-06-03T15:38:24Z</time>
      </trkpt>
      <trkpt lat="46.61501" lon="-1.8617">
        <ele>9</ele>
        <time>2020-06-03T15:38:25Z</time>
      </trkpt>
      <trkpt lat="46.61506" lon="-1.86167">
        <ele>9</ele>
        <time>2020-06-03T15:38:26Z</time>
      </trkpt>
      <trkpt lat="46.61511" lon="-1.86164">
        <ele>9</ele>
        <time>2020-06-03T15:38:27Z</time>
      </trkpt>
      <trkpt lat="46.61515" lon="-1.86162">
        <ele>9</ele>
        <time>2020-06-03T15:38:28Z</time>
      </trkpt>
      <trkpt lat="46.6152" lon="-1.8616">
        <ele>9</ele>
        <time>2020-06-03T15:38:29Z</time>
      </trkpt>
      <trkpt lat="46.61525" lon="-1.86159">
        <ele>9</ele>
        <time>2020-06-03T15:38:30Z</time>
      </trkpt>
      <trkpt lat="46.61531" lon="-1.8616">
        <ele>9</ele>
        <time>2020-06-03T15:38:31Z</time>
      </trkpt>
      <trkpt lat="46.61536" lon="-1.86163">
        <ele>9</ele>
        <time>2020-06-03T15:38:32Z</time>
      </trkpt>
      <trkpt lat="46.6154" lon="-1.86167">
        <ele>9</ele>
        <time>2020-06-03T15:38:33Z</time>
      </trkpt>
      <trkpt lat="46.61544" lon="-1.86174">
        <ele>9</ele>
        <time>2020-06-03T15:38:34Z</time>
      </trkpt>
      <trkpt lat="46.61547" lon="-1.86181">
        <ele>9</ele>
        <time>2020-06-03T15:38:35Z</time>
      </trkpt>
      <trkpt lat="46.6155" lon="-1.86188">
        <ele>9</ele>
        <time>2020-06-03T15:38:36Z</time>
      </trkpt>
      <trkpt lat="46.61553" lon="-1.86193">
        <ele>9</ele>
        <time>2020-06-03T15:38:37Z</time>
      </trkpt>
      <trkpt lat="46.61557" lon="-1.86197">
        <ele>9</ele>
        <time>2020-06-03T15:38:38Z</time>
      </trkpt>
      <trkpt lat="46.61561" lon="-1.86199">
        <ele>9</ele>
        <time>2020-06-03T15:38:39Z</time>
      </trkpt>
      <trkpt lat="46.61565" lon="-1.86199">
        <ele>9</ele>
        <time>2020-06-03T15:38:40Z</time>
      </trkpt>
      <trkpt lat="46.61569" lon="-1.86197">
        <ele>9</ele>
        <time>2020-06-03T15:38:41Z</time>
      </trkpt>
      <trkpt lat="46.61573" lon="-1.86194">
        <ele>9</ele>
        <time>2020-06-03T15:38:42Z</time>
      </trkpt>
      <trkpt lat="46.61577" lon="-1.86192">
        <ele>9</ele>
        <time>2020-06-03T15:38:43Z</time>
      </trkpt>
      <trkpt lat="46.61581" lon="-1.86189">
        <ele>8.9</ele>
        <time>2020-06-03T15:38:44Z</time>
      </trkpt>
      <trkpt lat="46.61585" lon="-1.86188">
        <ele>8.9</ele>
        <time>2020-06-03T15:38:45Z</time>
      </trkpt>
      <trkpt lat="46.61589" lon="-1.86189">
        <ele>8.9</ele>
        <time>2020-06-03T15:38:46Z</time>
      </trkpt>
      <trkpt lat="46.61593" lon="-1.86191">
        <ele>8.9</ele>
        <time>2020-06-03T15:38:47Z</time>
      </trkpt>
      <trkpt lat="46.61597" lon="-1.86195">
        <ele>8.9</ele>
        <time>2020-06-03T15:38:48Z</time>
      </trkpt>
      <trkpt lat="46.616" lon="-1.86199">
        <ele>8.8</ele>
        <time>2020-06-03T15:38:49Z</time>
      </trkpt>
      <trkpt lat="46.61603" lon="-1.86205">
        <ele>8.8</ele>
        <time>2020-06-03T15:38:50Z</time>
      </trkpt>
      <trkpt lat="46.61605" lon="-1.86212">
        <ele>8.8</ele>
        <time>2020-06-03T15:38:51Z</time>
      </trkpt>
      <trkpt lat="46.61607" lon="-1.86218">
        <ele>8.7</ele>
        <time>2020-06-03T15:38:52Z</time>
      </trkpt>
      <trkpt lat="46.61609" lon="-1.86224">
        <ele>8.7</ele>
        <time>2020-06-03T15:38:53Z</time>
      </trkpt>
      <trkpt lat="46.6161" lon="-1.86231">
        <ele>8.6</ele>
        <time>2020-06-03T15:38:54Z</time>
      </trkpt>
      <trkpt lat="46.61611" lon="-1.86239">
        <ele>8.6</ele>
        <time>2020-06-03T15:38:55Z</time>
      </trkpt>
      <trkpt lat="46.61612" lon="-1.86248">
        <ele>8.6</ele>
        <time>2020-06-03T15:38:56Z</time>
      </trkpt>
      <trkpt lat="46.61612" lon="-1.86255">
        <ele>8.5</ele>
        <time>2020-06-03T15:38:57Z</time>
      </trkpt>
      <trkpt lat="46.61613" lon="-1.86261">
        <ele>8.5</ele>
        <time>2020-06-03T15:38:58Z</time>
      </trkpt>
      <trkpt lat="46.61613" lon="-1.86268">
        <ele>8.5</ele>
        <time>2020-06-03T15:38:59Z</time>
      </trkpt>
      <trkpt lat="46.61613" lon="-1.86273">
        <ele>8.5</ele>
        <time>2020-06-03T15:39:00Z</time>
      </trkpt>
      <trkpt lat="46.61614" lon="-1.86278">
        <ele>8.4</ele>
        <time>2020-06-03T15:39:01Z</time>
      </trkpt>
      <trkpt lat="46.61615" lon="-1.86281">
        <ele>8.2</ele>
        <time>2020-06-03T15:39:02Z</time>
      </trkpt>
      <trkpt lat="46.61617" lon="-1.86286">
        <ele>8.1</ele>
        <time>2020-06-03T15:39:03Z</time>
      </trkpt>
      <trkpt lat="46.61618" lon="-1.86289">
        <ele>8.1</ele>
        <time>2020-06-03T15:39:04Z</time>
      </trkpt>
      <trkpt lat="46.61619" lon="-1.86295">
        <ele>8.1</ele>
        <time>2020-06-03T15:39:05Z</time>
      </trkpt>
      <trkpt lat="46.6162" lon="-1.86301">
        <ele>8.1</ele>
        <time>2020-06-03T15:39:06Z</time>
      </trkpt>
      <trkpt lat="46.61622" lon="-1.86307">
        <ele>8.1</ele>
        <time>2020-06-03T15:39:07Z</time>
      </trkpt>
      <trkpt lat="46.61624" lon="-1.86312">
        <ele>8.1</ele>
        <time>2020-06-03T15:39:08Z</time>
      </trkpt>
      <trkpt lat="46.61625" lon="-1.86316">
        <ele>8.1</ele>
        <time>2020-06-03T15:39:09Z</time>
      </trkpt>
      <trkpt lat="46.61627" lon="-1.86322">
        <ele>8.1</ele>
        <time>2020-06-03T15:39:10Z</time>
      </trkpt>
      <trkpt lat="46.6163" lon="-1.86326">
        <ele>8.1</ele>
        <time>2020-06-03T15:39:11Z</time>
      </trkpt>
      <trkpt lat="46.61632" lon="-1.86331">
        <ele>8.1</ele>
        <time>2020-06-03T15:39:12Z</time>
      </trkpt>
      <trkpt lat="46.61634" lon="-1.86335">
        <ele>8.1</ele>
        <time>2020-06-03T15:39:13Z</time>
      </trkpt>
      <trkpt lat="46.61636" lon="-1.86339">
        <ele>8.1</ele>
        <time>2020-06-03T15:39:14Z</time>
      </trkpt>
      <trkpt lat="46.61636" lon="-1.86344">
        <ele>8</ele>
        <time>2020-06-03T15:39:15Z</time>
      </trkpt>
      <trkpt lat="46.61634" lon="-1.86347">
        <ele>8</ele>
        <time>2020-06-03T15:39:16Z</time>
      </trkpt>
      <trkpt lat="46.61631" lon="-1.86349">
        <ele>7.9</ele>
        <time>2020-06-03T15:39:17Z</time>
      </trkpt>
      <trkpt lat="46.61628" lon="-1.86351">
        <ele>7.8</ele>
        <time>2020-06-03T15:39:18Z</time>
      </trkpt>
      <trkpt lat="46.61624" lon="-1.86353">
        <ele>7.8</ele>
        <time>2020-06-03T15:39:19Z</time>
      </trkpt>
      <trkpt lat="46.6162" lon="-1.86356">
        <ele>7.6</ele>
        <time>2020-06-03T15:39:20Z</time>
      </trkpt>
      <trkpt lat="46.61616" lon="-1.86358">
        <ele>7.5</ele>
        <time>2020-06-03T15:39:21Z</time>
      </trkpt>
      <trkpt lat="46.61612" lon="-1.86361">
        <ele>7.4</ele>
        <time>2020-06-03T15:39:22Z</time>
      </trkpt>
      <trkpt lat="46.61607" lon="-1.86364">
        <ele>7.2</ele>
        <time>2020-06-03T15:39:23Z</time>
      </trkpt>
      <trkpt lat="46.61603" lon="-1.86368">
        <ele>7.1</ele>
        <time>2020-06-03T15:39:24Z</time>
      </trkpt>
      <trkpt lat="46.61598" lon="-1.86371">
        <ele>6.9</ele>
        <time>2020-06-03T15:39:25Z</time>
      </trkpt>
      <trkpt lat="46.61594" lon="-1.86374">
        <ele>6.8</ele>
        <time>2020-06-03T15:39:26Z</time>
      </trkpt>
      <trkpt lat="46.6159" lon="-1.86377">
        <ele>6.7</ele>
        <time>2020-06-03T15:39:27Z</time>
      </trkpt>
      <trkpt lat="46.61587" lon="-1.8638">
        <ele>6.7</ele>
        <time>2020-06-03T15:39:28Z</time>
      </trkpt>
      <trkpt lat="46.61584" lon="-1.86383">
        <ele>6.6</ele>
        <time>2020-06-03T15:39:29Z</time>
      </trkpt>
      <trkpt lat="46.61584" lon="-1.86388">
        <ele>6.6</ele>
        <time>2020-06-03T15:39:30Z</time>
      </trkpt>
      <trkpt lat="46.61584" lon="-1.86393">
        <ele>6.7</ele>
        <time>2020-06-03T15:39:31Z</time>
      </trkpt>
      <trkpt lat="46.61586" lon="-1.86397">
        <ele>6.7</ele>
        <time>2020-06-03T15:39:32Z</time>
      </trkpt>
      <trkpt lat="46.61588" lon="-1.86403">
        <ele>6.8</ele>
        <time>2020-06-03T15:39:33Z</time>
      </trkpt>
      <trkpt lat="46.6159" lon="-1.86408">
        <ele>6.8</ele>
        <time>2020-06-03T15:39:34Z</time>
      </trkpt>
      <trkpt lat="46.61591" lon="-1.86414">
        <ele>6.8</ele>
        <time>2020-06-03T15:39:35Z</time>
      </trkpt>
      <trkpt lat="46.61593" lon="-1.86418">
        <ele>6.9</ele>
        <time>2020-06-03T15:39:36Z</time>
      </trkpt>
      <trkpt lat="46.61594" lon="-1.86423">
        <ele>6.9</ele>
        <time>2020-06-03T15:39:37Z</time>
      </trkpt>
      <trkpt lat="46.61595" lon="-1.86427">
        <ele>7</ele>
        <time>2020-06-03T15:39:38Z</time>
      </trkpt>
      <trkpt lat="46.61597" lon="-1.8643">
        <ele>7</ele>
        <time>2020-06-03T15:39:39Z</time>
      </trkpt>
      <trkpt lat="46.61599" lon="-1.86434">
        <ele>7</ele>
        <time>2020-06-03T15:39:40Z</time>
      </trkpt>
      <trkpt lat="46.61601" lon="-1.86438">
        <ele>7.1</ele>
        <time>2020-06-03T15:39:41Z</time>
      </trkpt>
      <trkpt lat="46.61602" lon="-1.8644">
        <ele>7.1</ele>
        <time>2020-06-03T15:39:42Z</time>
      </trkpt>
      <trkpt lat="46.61604" lon="-1.86444">
        <ele>7.2</ele>
        <time>2020-06-03T15:39:43Z</time>
      </trkpt>
      <trkpt lat="46.61607" lon="-1.86446">
        <ele>7.2</ele>
        <time>2020-06-03T15:39:44Z</time>
      </trkpt>
      <trkpt lat="46.61609" lon="-1.86448">
        <ele>7.2</ele>
        <time>2020-06-03T15:39:45Z</time>
      </trkpt>
      <trkpt lat="46.61612" lon="-1.86449">
        <ele>7.3</ele>
        <time>2020-06-03T15:39:46Z</time>
      </trkpt>
      <trkpt lat="46.61615" lon="-1.86452">
        <ele>7.3</ele>
        <time>2020-06-03T15:39:47Z</time>
      </trkpt>
      <trkpt lat="46.61618" lon="-1.86455">
        <ele>7.4</ele>
        <time>2020-06-03T15:39:48Z</time>
      </trkpt>
      <trkpt lat="46.6162" lon="-1.8646">
        <ele>7.3</ele>
        <time>2020-06-03T15:39:49Z</time>
      </trkpt>
      <trkpt lat="46.61622" lon="-1.86464">
        <ele>7.3</ele>
        <time>2020-06-03T15:39:50Z</time>
      </trkpt>
      <trkpt lat="46.61622" lon="-1.86468">
        <ele>7.3</ele>
        <time>2020-06-03T15:39:51Z</time>
      </trkpt>
      <trkpt lat="46.6162" lon="-1.86473">
        <ele>7.3</ele>
        <time>2020-06-03T15:39:52Z</time>
      </trkpt>
      <trkpt lat="46.61619" lon="-1.86475">
        <ele>7.3</ele>
        <time>2020-06-03T15:39:53Z</time>
      </trkpt>
      <trkpt lat="46.61617" lon="-1.86478">
        <ele>7.2</ele>
        <time>2020-06-03T15:39:54Z</time>
      </trkpt>
      <trkpt lat="46.61614" lon="-1.86481">
        <ele>7.1</ele>
        <time>2020-06-03T15:39:55Z</time>
      </trkpt>
      <trkpt lat="46.61612" lon="-1.86484">
        <ele>7</ele>
        <time>2020-06-03T15:39:56Z</time>
      </trkpt>
      <trkpt lat="46.61609" lon="-1.86488">
        <ele>6.8</ele>
        <time>2020-06-03T15:39:57Z</time>
      </trkpt>
      <trkpt lat="46.61608" lon="-1.8649">
        <ele>6.8</ele>
        <time>2020-06-03T15:39:58Z</time>
      </trkpt>
      <trkpt lat="46.61608" lon="-1.86495">
        <ele>6.7</ele>
        <time>2020-06-03T15:39:59Z</time>
      </trkpt>
      <trkpt lat="46.61608" lon="-1.865">
        <ele>6.7</ele>
        <time>2020-06-03T15:40:00Z</time>
      </trkpt>
      <trkpt lat="46.61608" lon="-1.86506">
        <ele>6.6</ele>
        <time>2020-06-03T15:40:01Z</time>
      </trkpt>
      <trkpt lat="46.61609" lon="-1.86511">
        <ele>6.5</ele>
        <time>2020-06-03T15:40:02Z</time>
      </trkpt>
      <trkpt lat="46.6161" lon="-1.86518">
        <ele>6.3</ele>
        <time>2020-06-03T15:40:03Z</time>
      </trkpt>
      <trkpt lat="46.61611" lon="-1.86524">
        <ele>6.2</ele>
        <time>2020-06-03T15:40:04Z</time>
      </trkpt>
      <trkpt lat="46.61613" lon="-1.8653">
        <ele>6.1</ele>
        <time>2020-06-03T15:40:05Z</time>
      </trkpt>
      <trkpt lat="46.61614" lon="-1.86536">
        <ele>6</ele>
        <time>2020-06-03T15:40:06Z</time>
      </trkpt>
      <trkpt lat="46.61614" lon="-1.86538">
        <ele>5.9</ele>
        <time>2020-06-03T15:40:07Z</time>
      </trkpt>
      <trkpt lat="46.61614" lon="-1.86543">
        <ele>5.9</ele>
        <time>2020-06-03T15:40:08Z</time>
      </trkpt>
      <trkpt lat="46.61614" lon="-1.86549">
        <ele>5.7</ele>
        <time>2020-06-03T15:40:09Z</time>
      </trkpt>
      <trkpt lat="46.61614" lon="-1.86556">
        <ele>5.7</ele>
        <time>2020-06-03T15:40:10Z</time>
      </trkpt>
      <trkpt lat="46.61614" lon="-1.86564">
        <ele>5.7</ele>
        <time>2020-06-03T15:40:11Z</time>
      </trkpt>
      <trkpt lat="46.61614" lon="-1.86571">
        <ele>5.7</ele>
        <time>2020-06-03T15:40:12Z</time>
      </trkpt>
      <trkpt lat="46.61615" lon="-1.86578">
        <ele>5.7</ele>
        <time>2020-06-03T15:40:13Z</time>
      </trkpt>
      <trkpt lat="46.61615" lon="-1.86586">
        <ele>5.7</ele>
        <time>2020-06-03T15:40:14Z</time>
      </trkpt>
      <trkpt lat="46.61614" lon="-1.86593">
        <ele>5.7</ele>
        <time>2020-06-03T15:40:15Z</time>
      </trkpt>
      <trkpt lat="46.61613" lon="-1.86599">
        <ele>5.7</ele>
        <time>2020-06-03T15:40:16Z</time>
      </trkpt>
      <trkpt lat="46.61613" lon="-1.86607">
        <ele>5.7</ele>
        <time>2020-06-03T15:40:17Z</time>
      </trkpt>
      <trkpt lat="46.61612" lon="-1.86614">
        <ele>5.7</ele>
        <time>2020-06-03T15:40:18Z</time>
      </trkpt>
      <trkpt lat="46.61611" lon="-1.86621">
        <ele>5.7</ele>
        <time>2020-06-03T15:40:19Z</time>
      </trkpt>
      <trkpt lat="46.61611" lon="-1.86627">
        <ele>5.8</ele>
        <time>2020-06-03T15:40:20Z</time>
      </trkpt>
      <trkpt lat="46.61611" lon="-1.86634">
        <ele>5.8</ele>
        <time>2020-06-03T15:40:21Z</time>
      </trkpt>
      <trkpt lat="46.6161" lon="-1.8664">
        <ele>5.9</ele>
        <time>2020-06-03T15:40:22Z</time>
      </trkpt>
      <trkpt lat="46.6161" lon="-1.86646">
        <ele>5.9</ele>
        <time>2020-06-03T15:40:23Z</time>
      </trkpt>
      <trkpt lat="46.6161" lon="-1.86653">
        <ele>6</ele>
        <time>2020-06-03T15:40:24Z</time>
      </trkpt>
      <trkpt lat="46.61611" lon="-1.86658">
        <ele>6</ele>
        <time>2020-06-03T15:40:25Z</time>
      </trkpt>
      <trkpt lat="46.61611" lon="-1.86664">
        <ele>6.1</ele>
        <time>2020-06-03T15:40:26Z</time>
      </trkpt>
      <trkpt lat="46.61612" lon="-1.8667">
        <ele>6.1</ele>
        <time>2020-06-03T15:40:27Z</time>
      </trkpt>
      <trkpt lat="46.61613" lon="-1.86675">
        <ele>6.2</ele>
        <time>2020-06-03T15:40:28Z</time>
      </trkpt>
      <trkpt lat="46.61615" lon="-1.86681">
        <ele>6.2</ele>
        <time>2020-06-03T15:40:29Z</time>
      </trkpt>
      <trkpt lat="46.61617" lon="-1.86686">
        <ele>6.2</ele>
        <time>2020-06-03T15:40:30Z</time>
      </trkpt>
      <trkpt lat="46.61619" lon="-1.86691">
        <ele>6.2</ele>
        <time>2020-06-03T15:40:31Z</time>
      </trkpt>
      <trkpt lat="46.61621" lon="-1.86695">
        <ele>6.2</ele>
        <time>2020-06-03T15:40:32Z</time>
      </trkpt>
      <trkpt lat="46.61623" lon="-1.867">
        <ele>6.2</ele>
        <time>2020-06-03T15:40:33Z</time>
      </trkpt>
      <trkpt lat="46.61625" lon="-1.86705">
        <ele>6.2</ele>
        <time>2020-06-03T15:40:34Z</time>
      </trkpt>
      <trkpt lat="46.61627" lon="-1.86711">
        <ele>6.2</ele>
        <time>2020-06-03T15:40:35Z</time>
      </trkpt>
      <trkpt lat="46.61629" lon="-1.86717">
        <ele>6.2</ele>
        <time>2020-06-03T15:40:36Z</time>
      </trkpt>
      <trkpt lat="46.6163" lon="-1.86723">
        <ele>6.2</ele>
        <time>2020-06-03T15:40:37Z</time>
      </trkpt>
      <trkpt lat="46.61631" lon="-1.8673">
        <ele>6.3</ele>
        <time>2020-06-03T15:40:38Z</time>
      </trkpt>
      <trkpt lat="46.61632" lon="-1.86737">
        <ele>6.3</ele>
        <time>2020-06-03T15:40:39Z</time>
      </trkpt>
      <trkpt lat="46.61633" lon="-1.86743">
        <ele>6.3</ele>
        <time>2020-06-03T15:40:40Z</time>
      </trkpt>
      <trkpt lat="46.61634" lon="-1.86749">
        <ele>6.4</ele>
        <time>2020-06-03T15:40:41Z</time>
      </trkpt>
      <trkpt lat="46.61635" lon="-1.86756">
        <ele>6.4</ele>
        <time>2020-06-03T15:40:42Z</time>
      </trkpt>
      <trkpt lat="46.61635" lon="-1.86762">
        <ele>6.4</ele>
        <time>2020-06-03T15:40:43Z</time>
      </trkpt>
      <trkpt lat="46.61636" lon="-1.86769">
        <ele>6.4</ele>
        <time>2020-06-03T15:40:44Z</time>
      </trkpt>
      <trkpt lat="46.61637" lon="-1.86776">
        <ele>6.5</ele>
        <time>2020-06-03T15:40:45Z</time>
      </trkpt>
      <trkpt lat="46.61639" lon="-1.86783">
        <ele>6.5</ele>
        <time>2020-06-03T15:40:46Z</time>
      </trkpt>
      <trkpt lat="46.6164" lon="-1.8679">
        <ele>6.5</ele>
        <time>2020-06-03T15:40:47Z</time>
      </trkpt>
      <trkpt lat="46.61641" lon="-1.86797">
        <ele>6.5</ele>
        <time>2020-06-03T15:40:48Z</time>
      </trkpt>
      <trkpt lat="46.61642" lon="-1.86803">
        <ele>6.6</ele>
        <time>2020-06-03T15:40:49Z</time>
      </trkpt>
      <trkpt lat="46.61644" lon="-1.8681">
        <ele>6.6</ele>
        <time>2020-06-03T15:40:50Z</time>
      </trkpt>
      <trkpt lat="46.61644" lon="-1.86815">
        <ele>6.6</ele>
        <time>2020-06-03T15:40:51Z</time>
      </trkpt>
      <trkpt lat="46.61646" lon="-1.86821">
        <ele>6.7</ele>
        <time>2020-06-03T15:40:52Z</time>
      </trkpt>
      <trkpt lat="46.61647" lon="-1.86827">
        <ele>6.7</ele>
        <time>2020-06-03T15:40:53Z</time>
      </trkpt>
      <trkpt lat="46.61649" lon="-1.86833">
        <ele>6.8</ele>
        <time>2020-06-03T15:40:54Z</time>
      </trkpt>
      <trkpt lat="46.6165" lon="-1.86839">
        <ele>6.8</ele>
        <time>2020-06-03T15:40:55Z</time>
      </trkpt>
      <trkpt lat="46.61653" lon="-1.86845">
        <ele>6.9</ele>
        <time>2020-06-03T15:40:56Z</time>
      </trkpt>
      <trkpt lat="46.61654" lon="-1.86853">
        <ele>6.9</ele>
        <time>2020-06-03T15:40:57Z</time>
      </trkpt>
      <trkpt lat="46.61656" lon="-1.8686">
        <ele>7</ele>
        <time>2020-06-03T15:40:58Z</time>
      </trkpt>
      <trkpt lat="46.61657" lon="-1.86866">
        <ele>7</ele>
        <time>2020-06-03T15:40:59Z</time>
      </trkpt>
      <trkpt lat="46.61658" lon="-1.86872">
        <ele>7</ele>
        <time>2020-06-03T15:41:00Z</time>
      </trkpt>
      <trkpt lat="46.61659" lon="-1.86879">
        <ele>7.1</ele>
        <time>2020-06-03T15:41:01Z</time>
      </trkpt>
      <trkpt lat="46.61661" lon="-1.86884">
        <ele>7.1</ele>
        <time>2020-06-03T15:41:02Z</time>
      </trkpt>
      <trkpt lat="46.61663" lon="-1.86889">
        <ele>7.1</ele>
        <time>2020-06-03T15:41:03Z</time>
      </trkpt>
      <trkpt lat="46.61665" lon="-1.86895">
        <ele>7.3</ele>
        <time>2020-06-03T15:41:04Z</time>
      </trkpt>
      <trkpt lat="46.61667" lon="-1.86899">
        <ele>7.3</ele>
        <time>2020-06-03T15:41:05Z</time>
      </trkpt>
      <trkpt lat="46.61669" lon="-1.86904">
        <ele>7.3</ele>
        <time>2020-06-03T15:41:06Z</time>
      </trkpt>
      <trkpt lat="46.61671" lon="-1.86909">
        <ele>7.3</ele>
        <time>2020-06-03T15:41:07Z</time>
      </trkpt>
      <trkpt lat="46.61673" lon="-1.86914">
        <ele>7.4</ele>
        <time>2020-06-03T15:41:08Z</time>
      </trkpt>
      <trkpt lat="46.61676" lon="-1.86919">
        <ele>7.4</ele>
        <time>2020-06-03T15:41:09Z</time>
      </trkpt>
      <trkpt lat="46.61678" lon="-1.86923">
        <ele>7.4</ele>
        <time>2020-06-03T15:41:10Z</time>
      </trkpt>
      <trkpt lat="46.61679" lon="-1.86929">
        <ele>7.4</ele>
        <time>2020-06-03T15:41:11Z</time>
      </trkpt>
      <trkpt lat="46.61681" lon="-1.86934">
        <ele>7.5</ele>
        <time>2020-06-03T15:41:12Z</time>
      </trkpt>
      <trkpt lat="46.61683" lon="-1.8694">
        <ele>7.6</ele>
        <time>2020-06-03T15:41:13Z</time>
      </trkpt>
      <trkpt lat="46.61685" lon="-1.86943">
        <ele>7.6</ele>
        <time>2020-06-03T15:41:14Z</time>
      </trkpt>
      <trkpt lat="46.61687" lon="-1.86947">
        <ele>7.6</ele>
        <time>2020-06-03T15:41:15Z</time>
      </trkpt>
      <trkpt lat="46.61689" lon="-1.86951">
        <ele>7.7</ele>
        <time>2020-06-03T15:41:16Z</time>
      </trkpt>
      <trkpt lat="46.61691" lon="-1.86956">
        <ele>7.7</ele>
        <time>2020-06-03T15:41:17Z</time>
      </trkpt>
      <trkpt lat="46.61693" lon="-1.8696">
        <ele>7.8</ele>
        <time>2020-06-03T15:41:18Z</time>
      </trkpt>
      <trkpt lat="46.61696" lon="-1.86964">
        <ele>7.8</ele>
        <time>2020-06-03T15:41:19Z</time>
      </trkpt>
      <trkpt lat="46.61699" lon="-1.86968">
        <ele>7.9</ele>
        <time>2020-06-03T15:41:20Z</time>
      </trkpt>
      <trkpt lat="46.61702" lon="-1.86972">
        <ele>7.9</ele>
        <time>2020-06-03T15:41:21Z</time>
      </trkpt>
      <trkpt lat="46.61706" lon="-1.86976">
        <ele>8</ele>
        <time>2020-06-03T15:41:22Z</time>
      </trkpt>
      <trkpt lat="46.61709" lon="-1.86979">
        <ele>8</ele>
        <time>2020-06-03T15:41:23Z</time>
      </trkpt>
      <trkpt lat="46.61712" lon="-1.86983">
        <ele>8</ele>
        <time>2020-06-03T15:41:24Z</time>
      </trkpt>
      <trkpt lat="46.61715" lon="-1.86986">
        <ele>8.1</ele>
        <time>2020-06-03T15:41:25Z</time>
      </trkpt>
      <trkpt lat="46.61718" lon="-1.8699">
        <ele>8.1</ele>
        <time>2020-06-03T15:41:26Z</time>
      </trkpt>
      <trkpt lat="46.61721" lon="-1.86993">
        <ele>8.1</ele>
        <time>2020-06-03T15:41:27Z</time>
      </trkpt>
      <trkpt lat="46.61724" lon="-1.86995">
        <ele>8.1</ele>
        <time>2020-06-03T15:41:28Z</time>
      </trkpt>
      <trkpt lat="46.61726" lon="-1.86997">
        <ele>8.1</ele>
        <time>2020-06-03T15:41:29Z</time>
      </trkpt>
      <trkpt lat="46.61729" lon="-1.87">
        <ele>8.1</ele>
        <time>2020-06-03T15:41:30Z</time>
      </trkpt>
      <trkpt lat="46.61732" lon="-1.87003">
        <ele>8.1</ele>
        <time>2020-06-03T15:41:31Z</time>
      </trkpt>
      <trkpt lat="46.61735" lon="-1.87006">
        <ele>8.1</ele>
        <time>2020-06-03T15:41:32Z</time>
      </trkpt>
      <trkpt lat="46.61738" lon="-1.87009">
        <ele>8</ele>
        <time>2020-06-03T15:41:33Z</time>
      </trkpt>
      <trkpt lat="46.6174" lon="-1.87013">
        <ele>8</ele>
        <time>2020-06-03T15:41:34Z</time>
      </trkpt>
      <trkpt lat="46.61742" lon="-1.87018">
        <ele>8</ele>
        <time>2020-06-03T15:41:35Z</time>
      </trkpt>
      <trkpt lat="46.61744" lon="-1.87025">
        <ele>7.9</ele>
        <time>2020-06-03T15:41:36Z</time>
      </trkpt>
      <trkpt lat="46.61746" lon="-1.87031">
        <ele>7.9</ele>
        <time>2020-06-03T15:41:37Z</time>
      </trkpt>
      <trkpt lat="46.61748" lon="-1.87036">
        <ele>7.8</ele>
        <time>2020-06-03T15:41:38Z</time>
      </trkpt>
      <trkpt lat="46.61752" lon="-1.8704">
        <ele>7.8</ele>
        <time>2020-06-03T15:41:39Z</time>
      </trkpt>
      <trkpt lat="46.61755" lon="-1.87045">
        <ele>7.7</ele>
        <time>2020-06-03T15:41:40Z</time>
      </trkpt>
      <trkpt lat="46.61759" lon="-1.87049">
        <ele>7.7</ele>
        <time>2020-06-03T15:41:41Z</time>
      </trkpt>
      <trkpt lat="46.61763" lon="-1.87053">
        <ele>7.7</ele>
        <time>2020-06-03T15:41:42Z</time>
      </trkpt>
      <trkpt lat="46.61767" lon="-1.87056">
        <ele>7.7</ele>
        <time>2020-06-03T15:41:43Z</time>
      </trkpt>
      <trkpt lat="46.6177" lon="-1.87059">
        <ele>7.7</ele>
        <time>2020-06-03T15:41:44Z</time>
      </trkpt>
      <trkpt lat="46.61774" lon="-1.87062">
        <ele>7.7</ele>
        <time>2020-06-03T15:41:45Z</time>
      </trkpt>
      <trkpt lat="46.61778" lon="-1.87065">
        <ele>7.7</ele>
        <time>2020-06-03T15:41:46Z</time>
      </trkpt>
      <trkpt lat="46.61782" lon="-1.87069">
        <ele>7.7</ele>
        <time>2020-06-03T15:41:47Z</time>
      </trkpt>
      <trkpt lat="46.61786" lon="-1.87073">
        <ele>7.7</ele>
        <time>2020-06-03T15:41:48Z</time>
      </trkpt>
      <trkpt lat="46.6179" lon="-1.87077">
        <ele>7.7</ele>
        <time>2020-06-03T15:41:49Z</time>
      </trkpt>
      <trkpt lat="46.61794" lon="-1.8708">
        <ele>7.7</ele>
        <time>2020-06-03T15:41:50Z</time>
      </trkpt>
      <trkpt lat="46.61798" lon="-1.87084">
        <ele>7.6</ele>
        <time>2020-06-03T15:41:51Z</time>
      </trkpt>
      <trkpt lat="46.61803" lon="-1.87087">
        <ele>7.6</ele>
        <time>2020-06-03T15:41:52Z</time>
      </trkpt>
      <trkpt lat="46.61806" lon="-1.8709">
        <ele>7.6</ele>
        <time>2020-06-03T15:41:53Z</time>
      </trkpt>
      <trkpt lat="46.6181" lon="-1.87093">
        <ele>7.5</ele>
        <time>2020-06-03T15:41:54Z</time>
      </trkpt>
      <trkpt lat="46.61815" lon="-1.87096">
        <ele>7.5</ele>
        <time>2020-06-03T15:41:55Z</time>
      </trkpt>
      <trkpt lat="46.6182" lon="-1.87096">
        <ele>7.4</ele>
        <time>2020-06-03T15:41:56Z</time>
      </trkpt>
      <trkpt lat="46.61824" lon="-1.87094">
        <ele>7.4</ele>
        <time>2020-06-03T15:41:57Z</time>
      </trkpt>
      <trkpt lat="46.61828" lon="-1.87093">
        <ele>7.4</ele>
        <time>2020-06-03T15:41:58Z</time>
      </trkpt>
      <trkpt lat="46.6183" lon="-1.87091">
        <ele>7.4</ele>
        <time>2020-06-03T15:41:59Z</time>
      </trkpt>
      <trkpt lat="46.61834" lon="-1.87091">
        <ele>7.4</ele>
        <time>2020-06-03T15:42:00Z</time>
      </trkpt>
      <trkpt lat="46.61835" lon="-1.87091">
        <ele>7.4</ele>
        <time>2020-06-03T15:42:01Z</time>
      </trkpt>
      <trkpt lat="46.61838" lon="-1.87093">
        <ele>7.4</ele>
        <time>2020-06-03T15:42:02Z</time>
      </trkpt>
      <trkpt lat="46.6184" lon="-1.87094">
        <ele>7.4</ele>
        <time>2020-06-03T15:42:03Z</time>
      </trkpt>
      <trkpt lat="46.61843" lon="-1.87096">
        <ele>7.4</ele>
        <time>2020-06-03T15:42:04Z</time>
      </trkpt>
      <trkpt lat="46.61845" lon="-1.87098">
        <ele>7.4</ele>
        <time>2020-06-03T15:42:05Z</time>
      </trkpt>
      <trkpt lat="46.61848" lon="-1.87101">
        <ele>7.5</ele>
        <time>2020-06-03T15:42:06Z</time>
      </trkpt>
      <trkpt lat="46.61851" lon="-1.87106">
        <ele>7.5</ele>
        <time>2020-06-03T15:42:07Z</time>
      </trkpt>
      <trkpt lat="46.61854" lon="-1.87112">
        <ele>7.6</ele>
        <time>2020-06-03T15:42:08Z</time>
      </trkpt>
      <trkpt lat="46.61856" lon="-1.87119">
        <ele>7.6</ele>
        <time>2020-06-03T15:42:09Z</time>
      </trkpt>
      <trkpt lat="46.61858" lon="-1.87125">
        <ele>7.7</ele>
        <time>2020-06-03T15:42:10Z</time>
      </trkpt>
      <trkpt lat="46.6186" lon="-1.87131">
        <ele>7.8</ele>
        <time>2020-06-03T15:42:11Z</time>
      </trkpt>
      <trkpt lat="46.61862" lon="-1.87135">
        <ele>7.8</ele>
        <time>2020-06-03T15:42:12Z</time>
      </trkpt>
      <trkpt lat="46.61864" lon="-1.8714">
        <ele>7.9</ele>
        <time>2020-06-03T15:42:13Z</time>
      </trkpt>
      <trkpt lat="46.61867" lon="-1.87144">
        <ele>8</ele>
        <time>2020-06-03T15:42:14Z</time>
      </trkpt>
      <trkpt lat="46.6187" lon="-1.87148">
        <ele>8.1</ele>
        <time>2020-06-03T15:42:15Z</time>
      </trkpt>
      <trkpt lat="46.61874" lon="-1.87152">
        <ele>8.2</ele>
        <time>2020-06-03T15:42:16Z</time>
      </trkpt>
      <trkpt lat="46.61877" lon="-1.87155">
        <ele>8.2</ele>
        <time>2020-06-03T15:42:17Z</time>
      </trkpt>
      <trkpt lat="46.61881" lon="-1.87156">
        <ele>8.3</ele>
        <time>2020-06-03T15:42:18Z</time>
      </trkpt>
      <trkpt lat="46.61885" lon="-1.87159">
        <ele>8.4</ele>
        <time>2020-06-03T15:42:19Z</time>
      </trkpt>
      <trkpt lat="46.61889" lon="-1.87162">
        <ele>8.4</ele>
        <time>2020-06-03T15:42:20Z</time>
      </trkpt>
      <trkpt lat="46.61893" lon="-1.87164">
        <ele>8.5</ele>
        <time>2020-06-03T15:42:21Z</time>
      </trkpt>
      <trkpt lat="46.61897" lon="-1.87166">
        <ele>8.5</ele>
        <time>2020-06-03T15:42:22Z</time>
      </trkpt>
      <trkpt lat="46.61901" lon="-1.87167">
        <ele>8.5</ele>
        <time>2020-06-03T15:42:23Z</time>
      </trkpt>
      <trkpt lat="46.61904" lon="-1.8717">
        <ele>8.5</ele>
        <time>2020-06-03T15:42:24Z</time>
      </trkpt>
      <trkpt lat="46.61909" lon="-1.87173">
        <ele>8.6</ele>
        <time>2020-06-03T15:42:25Z</time>
      </trkpt>
      <trkpt lat="46.61912" lon="-1.87175">
        <ele>8.6</ele>
        <time>2020-06-03T15:42:26Z</time>
      </trkpt>
      <trkpt lat="46.61916" lon="-1.87178">
        <ele>8.6</ele>
        <time>2020-06-03T15:42:27Z</time>
      </trkpt>
      <trkpt lat="46.6192" lon="-1.87181">
        <ele>8.6</ele>
        <time>2020-06-03T15:42:28Z</time>
      </trkpt>
      <trkpt lat="46.61924" lon="-1.87184">
        <ele>8.7</ele>
        <time>2020-06-03T15:42:29Z</time>
      </trkpt>
      <trkpt lat="46.61928" lon="-1.87186">
        <ele>8.7</ele>
        <time>2020-06-03T15:42:30Z</time>
      </trkpt>
      <trkpt lat="46.61932" lon="-1.87189">
        <ele>8.7</ele>
        <time>2020-06-03T15:42:31Z</time>
      </trkpt>
      <trkpt lat="46.61936" lon="-1.87191">
        <ele>8.7</ele>
        <time>2020-06-03T15:42:32Z</time>
      </trkpt>
      <trkpt lat="46.6194" lon="-1.87193">
        <ele>8.7</ele>
        <time>2020-06-03T15:42:33Z</time>
      </trkpt>
      <trkpt lat="46.61943" lon="-1.87196">
        <ele>8.7</ele>
        <time>2020-06-03T15:42:34Z</time>
      </trkpt>
      <trkpt lat="46.61948" lon="-1.87198">
        <ele>8.7</ele>
        <time>2020-06-03T15:42:35Z</time>
      </trkpt>
      <trkpt lat="46.61951" lon="-1.872">
        <ele>8.7</ele>
        <time>2020-06-03T15:42:36Z</time>
      </trkpt>
      <trkpt lat="46.61954" lon="-1.87202">
        <ele>8.7</ele>
        <time>2020-06-03T15:42:37Z</time>
      </trkpt>
      <trkpt lat="46.61958" lon="-1.87205">
        <ele>8.7</ele>
        <time>2020-06-03T15:42:38Z</time>
      </trkpt>
      <trkpt lat="46.61962" lon="-1.87207">
        <ele>8.7</ele>
        <time>2020-06-03T15:42:39Z</time>
      </trkpt>
      <trkpt lat="46.61966" lon="-1.87209">
        <ele>8.6</ele>
        <time>2020-06-03T15:42:40Z</time>
      </trkpt>
      <trkpt lat="46.61971" lon="-1.87212">
        <ele>8.6</ele>
        <time>2020-06-03T15:42:41Z</time>
      </trkpt>
      <trkpt lat="46.61975" lon="-1.87215">
        <ele>8.5</ele>
        <time>2020-06-03T15:42:42Z</time>
      </trkpt>
      <trkpt lat="46.61979" lon="-1.87219">
        <ele>8.4</ele>
        <time>2020-06-03T15:42:43Z</time>
      </trkpt>
      <trkpt lat="46.61984" lon="-1.87222">
        <ele>8.4</ele>
        <time>2020-06-03T15:42:44Z</time>
      </trkpt>
      <trkpt lat="46.61989" lon="-1.87225">
        <ele>8.3</ele>
        <time>2020-06-03T15:42:45Z</time>
      </trkpt>
      <trkpt lat="46.61994" lon="-1.87228">
        <ele>8.2</ele>
        <time>2020-06-03T15:42:46Z</time>
      </trkpt>
      <trkpt lat="46.61998" lon="-1.8723">
        <ele>8.1</ele>
        <time>2020-06-03T15:42:47Z</time>
      </trkpt>
      <trkpt lat="46.62003" lon="-1.87232">
        <ele>8.1</ele>
        <time>2020-06-03T15:42:48Z</time>
      </trkpt>
      <trkpt lat="46.62008" lon="-1.87234">
        <ele>8</ele>
        <time>2020-06-03T15:42:49Z</time>
      </trkpt>
      <trkpt lat="46.62013" lon="-1.87235">
        <ele>8</ele>
        <time>2020-06-03T15:42:50Z</time>
      </trkpt>
      <trkpt lat="46.62017" lon="-1.87237">
        <ele>7.9</ele>
        <time>2020-06-03T15:42:51Z</time>
      </trkpt>
      <trkpt lat="46.62021" lon="-1.87238">
        <ele>7.9</ele>
        <time>2020-06-03T15:42:52Z</time>
      </trkpt>
      <trkpt lat="46.62025" lon="-1.8724">
        <ele>7.8</ele>
        <time>2020-06-03T15:42:53Z</time>
      </trkpt>
      <trkpt lat="46.6203" lon="-1.87242">
        <ele>7.8</ele>
        <time>2020-06-03T15:42:54Z</time>
      </trkpt>
      <trkpt lat="46.62035" lon="-1.87244">
        <ele>7.7</ele>
        <time>2020-06-03T15:42:55Z</time>
      </trkpt>
      <trkpt lat="46.6204" lon="-1.87246">
        <ele>7.6</ele>
        <time>2020-06-03T15:42:56Z</time>
      </trkpt>
      <trkpt lat="46.62044" lon="-1.87248">
        <ele>7.6</ele>
        <time>2020-06-03T15:42:57Z</time>
      </trkpt>
      <trkpt lat="46.62048" lon="-1.8725">
        <ele>7.5</ele>
        <time>2020-06-03T15:42:58Z</time>
      </trkpt>
      <trkpt lat="46.62053" lon="-1.8725">
        <ele>7.5</ele>
        <time>2020-06-03T15:42:59Z</time>
      </trkpt>
      <trkpt lat="46.62058" lon="-1.8725">
        <ele>7.4</ele>
        <time>2020-06-03T15:43:00Z</time>
      </trkpt>
      <trkpt lat="46.62063" lon="-1.8725">
        <ele>7.3</ele>
        <time>2020-06-03T15:43:01Z</time>
      </trkpt>
      <trkpt lat="46.62068" lon="-1.87249">
        <ele>7.3</ele>
        <time>2020-06-03T15:43:02Z</time>
      </trkpt>
      <trkpt lat="46.62072" lon="-1.87247">
        <ele>7.2</ele>
        <time>2020-06-03T15:43:03Z</time>
      </trkpt>
      <trkpt lat="46.62077" lon="-1.87245">
        <ele>7.1</ele>
        <time>2020-06-03T15:43:04Z</time>
      </trkpt>
      <trkpt lat="46.62081" lon="-1.87243">
        <ele>7.1</ele>
        <time>2020-06-03T15:43:05Z</time>
      </trkpt>
      <trkpt lat="46.62085" lon="-1.87241">
        <ele>7</ele>
        <time>2020-06-03T15:43:06Z</time>
      </trkpt>
      <trkpt lat="46.62089" lon="-1.87239">
        <ele>7</ele>
        <time>2020-06-03T15:43:07Z</time>
      </trkpt>
      <trkpt lat="46.62094" lon="-1.87236">
        <ele>7</ele>
        <time>2020-06-03T15:43:08Z</time>
      </trkpt>
      <trkpt lat="46.62099" lon="-1.87234">
        <ele>7</ele>
        <time>2020-06-03T15:43:09Z</time>
      </trkpt>
      <trkpt lat="46.62104" lon="-1.87231">
        <ele>7</ele>
        <time>2020-06-03T15:43:10Z</time>
      </trkpt>
      <trkpt lat="46.6211" lon="-1.87229">
        <ele>7</ele>
        <time>2020-06-03T15:43:11Z</time>
      </trkpt>
      <trkpt lat="46.62115" lon="-1.87227">
        <ele>7.1</ele>
        <time>2020-06-03T15:43:12Z</time>
      </trkpt>
      <trkpt lat="46.62121" lon="-1.87226">
        <ele>7.2</ele>
        <time>2020-06-03T15:43:13Z</time>
      </trkpt>
      <trkpt lat="46.62126" lon="-1.87224">
        <ele>7.3</ele>
        <time>2020-06-03T15:43:14Z</time>
      </trkpt>
      <trkpt lat="46.62131" lon="-1.87223">
        <ele>7.3</ele>
        <time>2020-06-03T15:43:15Z</time>
      </trkpt>
      <trkpt lat="46.62135" lon="-1.87223">
        <ele>7.4</ele>
        <time>2020-06-03T15:43:16Z</time>
      </trkpt>
      <trkpt lat="46.6214" lon="-1.87222">
        <ele>7.4</ele>
        <time>2020-06-03T15:43:17Z</time>
      </trkpt>
      <trkpt lat="46.62144" lon="-1.87222">
        <ele>7.5</ele>
        <time>2020-06-03T15:43:18Z</time>
      </trkpt>
      <trkpt lat="46.62148" lon="-1.87223">
        <ele>7.5</ele>
        <time>2020-06-03T15:43:19Z</time>
      </trkpt>
      <trkpt lat="46.62152" lon="-1.87225">
        <ele>7.5</ele>
        <time>2020-06-03T15:43:20Z</time>
      </trkpt>
      <trkpt lat="46.62156" lon="-1.87228">
        <ele>7.5</ele>
        <time>2020-06-03T15:43:21Z</time>
      </trkpt>
      <trkpt lat="46.6216" lon="-1.87231">
        <ele>7.5</ele>
        <time>2020-06-03T15:43:22Z</time>
      </trkpt>
      <trkpt lat="46.62163" lon="-1.87233">
        <ele>7.5</ele>
        <time>2020-06-03T15:43:23Z</time>
      </trkpt>
      <trkpt lat="46.62167" lon="-1.87234">
        <ele>7.5</ele>
        <time>2020-06-03T15:43:24Z</time>
      </trkpt>
      <trkpt lat="46.62171" lon="-1.87235">
        <ele>7.5</ele>
        <time>2020-06-03T15:43:25Z</time>
      </trkpt>
      <trkpt lat="46.62175" lon="-1.87236">
        <ele>7.5</ele>
        <time>2020-06-03T15:43:26Z</time>
      </trkpt>
      <trkpt lat="46.62179" lon="-1.87238">
        <ele>7.8</ele>
        <time>2020-06-03T15:43:27Z</time>
      </trkpt>
      <trkpt lat="46.62183" lon="-1.87238">
        <ele>7.8</ele>
        <time>2020-06-03T15:43:28Z</time>
      </trkpt>
      <trkpt lat="46.62187" lon="-1.87238">
        <ele>7.8</ele>
        <time>2020-06-03T15:43:29Z</time>
      </trkpt>
      <trkpt lat="46.62191" lon="-1.8724">
        <ele>7.8</ele>
        <time>2020-06-03T15:43:30Z</time>
      </trkpt>
      <trkpt lat="46.62195" lon="-1.87243">
        <ele>7.8</ele>
        <time>2020-06-03T15:43:31Z</time>
      </trkpt>
      <trkpt lat="46.62199" lon="-1.87246">
        <ele>7.8</ele>
        <time>2020-06-03T15:43:32Z</time>
      </trkpt>
      <trkpt lat="46.62203" lon="-1.8725">
        <ele>7.8</ele>
        <time>2020-06-03T15:43:33Z</time>
      </trkpt>
      <trkpt lat="46.62207" lon="-1.87254">
        <ele>7.8</ele>
        <time>2020-06-03T15:43:34Z</time>
      </trkpt>
      <trkpt lat="46.62212" lon="-1.87257">
        <ele>7.9</ele>
        <time>2020-06-03T15:43:35Z</time>
      </trkpt>
      <trkpt lat="46.62216" lon="-1.8726">
        <ele>7.9</ele>
        <time>2020-06-03T15:43:36Z</time>
      </trkpt>
      <trkpt lat="46.6222" lon="-1.87263">
        <ele>8</ele>
        <time>2020-06-03T15:43:37Z</time>
      </trkpt>
      <trkpt lat="46.62224" lon="-1.87263">
        <ele>8.1</ele>
        <time>2020-06-03T15:43:38Z</time>
      </trkpt>
      <trkpt lat="46.62228" lon="-1.87266">
        <ele>8.1</ele>
        <time>2020-06-03T15:43:39Z</time>
      </trkpt>
      <trkpt lat="46.62231" lon="-1.87268">
        <ele>8.2</ele>
        <time>2020-06-03T15:43:40Z</time>
      </trkpt>
      <trkpt lat="46.62235" lon="-1.87271">
        <ele>8.3</ele>
        <time>2020-06-03T15:43:41Z</time>
      </trkpt>
      <trkpt lat="46.62239" lon="-1.87272">
        <ele>8.4</ele>
        <time>2020-06-03T15:43:42Z</time>
      </trkpt>
      <trkpt lat="46.62244" lon="-1.87276">
        <ele>8.5</ele>
        <time>2020-06-03T15:43:43Z</time>
      </trkpt>
      <trkpt lat="46.62248" lon="-1.87278">
        <ele>8.6</ele>
        <time>2020-06-03T15:43:44Z</time>
      </trkpt>
      <trkpt lat="46.62252" lon="-1.8728">
        <ele>8.6</ele>
        <time>2020-06-03T15:43:45Z</time>
      </trkpt>
      <trkpt lat="46.62256" lon="-1.87282">
        <ele>8.7</ele>
        <time>2020-06-03T15:43:46Z</time>
      </trkpt>
      <trkpt lat="46.62261" lon="-1.87285">
        <ele>8.7</ele>
        <time>2020-06-03T15:43:47Z</time>
      </trkpt>
      <trkpt lat="46.62264" lon="-1.87287">
        <ele>8.7</ele>
        <time>2020-06-03T15:43:48Z</time>
      </trkpt>
      <trkpt lat="46.62267" lon="-1.8729">
        <ele>8.8</ele>
        <time>2020-06-03T15:43:49Z</time>
      </trkpt>
      <trkpt lat="46.62272" lon="-1.87292">
        <ele>8.8</ele>
        <time>2020-06-03T15:43:50Z</time>
      </trkpt>
      <trkpt lat="46.62276" lon="-1.87296">
        <ele>8.8</ele>
        <time>2020-06-03T15:43:51Z</time>
      </trkpt>
      <trkpt lat="46.62281" lon="-1.87299">
        <ele>8.8</ele>
        <time>2020-06-03T15:43:52Z</time>
      </trkpt>
      <trkpt lat="46.62284" lon="-1.87302">
        <ele>8.7</ele>
        <time>2020-06-03T15:43:53Z</time>
      </trkpt>
      <trkpt lat="46.62288" lon="-1.87305">
        <ele>8.7</ele>
        <time>2020-06-03T15:43:54Z</time>
      </trkpt>
      <trkpt lat="46.62291" lon="-1.87308">
        <ele>8.7</ele>
        <time>2020-06-03T15:43:55Z</time>
      </trkpt>
      <trkpt lat="46.62295" lon="-1.87311">
        <ele>8.7</ele>
        <time>2020-06-03T15:43:56Z</time>
      </trkpt>
      <trkpt lat="46.62299" lon="-1.87313">
        <ele>8.7</ele>
        <time>2020-06-03T15:43:57Z</time>
      </trkpt>
      <trkpt lat="46.62303" lon="-1.87315">
        <ele>8.7</ele>
        <time>2020-06-03T15:43:58Z</time>
      </trkpt>
      <trkpt lat="46.62308" lon="-1.87317">
        <ele>8.7</ele>
        <time>2020-06-03T15:43:59Z</time>
      </trkpt>
      <trkpt lat="46.62312" lon="-1.87319">
        <ele>8.7</ele>
        <time>2020-06-03T15:44:00Z</time>
      </trkpt>
      <trkpt lat="46.62316" lon="-1.8732">
        <ele>8.7</ele>
        <time>2020-06-03T15:44:01Z</time>
      </trkpt>
      <trkpt lat="46.62319" lon="-1.87322">
        <ele>8.7</ele>
        <time>2020-06-03T15:44:02Z</time>
      </trkpt>
      <trkpt lat="46.62322" lon="-1.87324">
        <ele>8.6</ele>
        <time>2020-06-03T15:44:03Z</time>
      </trkpt>
      <trkpt lat="46.62326" lon="-1.87326">
        <ele>8.6</ele>
        <time>2020-06-03T15:44:04Z</time>
      </trkpt>
      <trkpt lat="46.6233" lon="-1.87327">
        <ele>8.6</ele>
        <time>2020-06-03T15:44:05Z</time>
      </trkpt>
      <trkpt lat="46.62335" lon="-1.87328">
        <ele>8.6</ele>
        <time>2020-06-03T15:44:06Z</time>
      </trkpt>
      <trkpt lat="46.62339" lon="-1.87329">
        <ele>8.6</ele>
        <time>2020-06-03T15:44:07Z</time>
      </trkpt>
      <trkpt lat="46.62342" lon="-1.87329">
        <ele>8.6</ele>
        <time>2020-06-03T15:44:08Z</time>
      </trkpt>
      <trkpt lat="46.62346" lon="-1.87331">
        <ele>8.6</ele>
        <time>2020-06-03T15:44:09Z</time>
      </trkpt>
      <trkpt lat="46.62351" lon="-1.87334">
        <ele>8.6</ele>
        <time>2020-06-03T15:44:10Z</time>
      </trkpt>
      <trkpt lat="46.62355" lon="-1.87335">
        <ele>8.6</ele>
        <time>2020-06-03T15:44:11Z</time>
      </trkpt>
      <trkpt lat="46.62361" lon="-1.87337">
        <ele>8.6</ele>
        <time>2020-06-03T15:44:12Z</time>
      </trkpt>
      <trkpt lat="46.62365" lon="-1.87339">
        <ele>8.6</ele>
        <time>2020-06-03T15:44:13Z</time>
      </trkpt>
      <trkpt lat="46.62369" lon="-1.87341">
        <ele>8.6</ele>
        <time>2020-06-03T15:44:14Z</time>
      </trkpt>
      <trkpt lat="46.62373" lon="-1.87343">
        <ele>8.6</ele>
        <time>2020-06-03T15:44:15Z</time>
      </trkpt>
      <trkpt lat="46.62377" lon="-1.87344">
        <ele>8.5</ele>
        <time>2020-06-03T15:44:16Z</time>
      </trkpt>
      <trkpt lat="46.62381" lon="-1.87346">
        <ele>8.5</ele>
        <time>2020-06-03T15:44:17Z</time>
      </trkpt>
      <trkpt lat="46.62384" lon="-1.87347">
        <ele>8.5</ele>
        <time>2020-06-03T15:44:18Z</time>
      </trkpt>
      <trkpt lat="46.62389" lon="-1.87348">
        <ele>8.5</ele>
        <time>2020-06-03T15:44:19Z</time>
      </trkpt>
      <trkpt lat="46.62393" lon="-1.8735">
        <ele>8.5</ele>
        <time>2020-06-03T15:44:20Z</time>
      </trkpt>
      <trkpt lat="46.62398" lon="-1.87352">
        <ele>8.5</ele>
        <time>2020-06-03T15:44:21Z</time>
      </trkpt>
      <trkpt lat="46.62403" lon="-1.87354">
        <ele>8.5</ele>
        <time>2020-06-03T15:44:22Z</time>
      </trkpt>
      <trkpt lat="46.62407" lon="-1.87356">
        <ele>8.5</ele>
        <time>2020-06-03T15:44:23Z</time>
      </trkpt>
      <trkpt lat="46.62411" lon="-1.87357">
        <ele>8.5</ele>
        <time>2020-06-03T15:44:24Z</time>
      </trkpt>
      <trkpt lat="46.62415" lon="-1.87358">
        <ele>8.4</ele>
        <time>2020-06-03T15:44:25Z</time>
      </trkpt>
      <trkpt lat="46.6242" lon="-1.87359">
        <ele>8.4</ele>
        <time>2020-06-03T15:44:26Z</time>
      </trkpt>
      <trkpt lat="46.62425" lon="-1.87361">
        <ele>8.4</ele>
        <time>2020-06-03T15:44:27Z</time>
      </trkpt>
      <trkpt lat="46.62429" lon="-1.87362">
        <ele>8.4</ele>
        <time>2020-06-03T15:44:28Z</time>
      </trkpt>
      <trkpt lat="46.62435" lon="-1.87362">
        <ele>8.4</ele>
        <time>2020-06-03T15:44:29Z</time>
      </trkpt>
      <trkpt lat="46.6244" lon="-1.87362">
        <ele>8.4</ele>
        <time>2020-06-03T15:44:30Z</time>
      </trkpt>
      <trkpt lat="46.62444" lon="-1.87362">
        <ele>8.3</ele>
        <time>2020-06-03T15:44:31Z</time>
      </trkpt>
      <trkpt lat="46.62449" lon="-1.87361">
        <ele>8.3</ele>
        <time>2020-06-03T15:44:32Z</time>
      </trkpt>
      <trkpt lat="46.62453" lon="-1.87361">
        <ele>8.2</ele>
        <time>2020-06-03T15:44:33Z</time>
      </trkpt>
      <trkpt lat="46.62458" lon="-1.87362">
        <ele>8.1</ele>
        <time>2020-06-03T15:44:34Z</time>
      </trkpt>
      <trkpt lat="46.62463" lon="-1.87364">
        <ele>8</ele>
        <time>2020-06-03T15:44:35Z</time>
      </trkpt>
      <trkpt lat="46.62469" lon="-1.87365">
        <ele>8</ele>
        <time>2020-06-03T15:44:36Z</time>
      </trkpt>
      <trkpt lat="46.62474" lon="-1.87366">
        <ele>7.9</ele>
        <time>2020-06-03T15:44:37Z</time>
      </trkpt>
      <trkpt lat="46.62479" lon="-1.87366">
        <ele>7.8</ele>
        <time>2020-06-03T15:44:38Z</time>
      </trkpt>
      <trkpt lat="46.62483" lon="-1.87365">
        <ele>7.7</ele>
        <time>2020-06-03T15:44:39Z</time>
      </trkpt>
      <trkpt lat="46.62487" lon="-1.87365">
        <ele>7.7</ele>
        <time>2020-06-03T15:44:40Z</time>
      </trkpt>
      <trkpt lat="46.62492" lon="-1.87365">
        <ele>7.6</ele>
        <time>2020-06-03T15:44:41Z</time>
      </trkpt>
      <trkpt lat="46.62496" lon="-1.87364">
        <ele>7.5</ele>
        <time>2020-06-03T15:44:42Z</time>
      </trkpt>
      <trkpt lat="46.62501" lon="-1.87363">
        <ele>7.5</ele>
        <time>2020-06-03T15:44:43Z</time>
      </trkpt>
      <trkpt lat="46.62506" lon="-1.87363">
        <ele>7.4</ele>
        <time>2020-06-03T15:44:44Z</time>
      </trkpt>
      <trkpt lat="46.62511" lon="-1.87364">
        <ele>7.3</ele>
        <time>2020-06-03T15:44:45Z</time>
      </trkpt>
      <trkpt lat="46.62516" lon="-1.87365">
        <ele>7.2</ele>
        <time>2020-06-03T15:44:46Z</time>
      </trkpt>
      <trkpt lat="46.62521" lon="-1.87366">
        <ele>7.2</ele>
        <time>2020-06-03T15:44:47Z</time>
      </trkpt>
      <trkpt lat="46.62526" lon="-1.87367">
        <ele>7.1</ele>
        <time>2020-06-03T15:44:48Z</time>
      </trkpt>
      <trkpt lat="46.6253" lon="-1.87368">
        <ele>7.1</ele>
        <time>2020-06-03T15:44:49Z</time>
      </trkpt>
      <trkpt lat="46.62534" lon="-1.87369">
        <ele>7</ele>
        <time>2020-06-03T15:44:50Z</time>
      </trkpt>
      <trkpt lat="46.62538" lon="-1.87368">
        <ele>7</ele>
        <time>2020-06-03T15:44:51Z</time>
      </trkpt>
      <trkpt lat="46.62542" lon="-1.87368">
        <ele>6.9</ele>
        <time>2020-06-03T15:44:52Z</time>
      </trkpt>
      <trkpt lat="46.62546" lon="-1.87369">
        <ele>6.9</ele>
        <time>2020-06-03T15:44:53Z</time>
      </trkpt>
      <trkpt lat="46.6255" lon="-1.8737">
        <ele>6.8</ele>
        <time>2020-06-03T15:44:54Z</time>
      </trkpt>
      <trkpt lat="46.62554" lon="-1.87371">
        <ele>6.8</ele>
        <time>2020-06-03T15:44:55Z</time>
      </trkpt>
      <trkpt lat="46.62558" lon="-1.87371">
        <ele>6.8</ele>
        <time>2020-06-03T15:44:56Z</time>
      </trkpt>
      <trkpt lat="46.62562" lon="-1.8737">
        <ele>6.8</ele>
        <time>2020-06-03T15:44:57Z</time>
      </trkpt>
      <trkpt lat="46.62565" lon="-1.8737">
        <ele>6.7</ele>
        <time>2020-06-03T15:44:58Z</time>
      </trkpt>
      <trkpt lat="46.62568" lon="-1.87369">
        <ele>6.7</ele>
        <time>2020-06-03T15:44:59Z</time>
      </trkpt>
      <trkpt lat="46.62571" lon="-1.87368">
        <ele>6.7</ele>
        <time>2020-06-03T15:45:00Z</time>
      </trkpt>
      <trkpt lat="46.62574" lon="-1.87367">
        <ele>6.6</ele>
        <time>2020-06-03T15:45:01Z</time>
      </trkpt>
      <trkpt lat="46.62577" lon="-1.87365">
        <ele>6.6</ele>
        <time>2020-06-03T15:45:02Z</time>
      </trkpt>
      <trkpt lat="46.6258" lon="-1.87362">
        <ele>6.6</ele>
        <time>2020-06-03T15:45:03Z</time>
      </trkpt>
      <trkpt lat="46.62583" lon="-1.87361">
        <ele>6.5</ele>
        <time>2020-06-03T15:45:04Z</time>
      </trkpt>
      <trkpt lat="46.62586" lon="-1.8736">
        <ele>6.5</ele>
        <time>2020-06-03T15:45:05Z</time>
      </trkpt>
      <trkpt lat="46.62589" lon="-1.87359">
        <ele>6.5</ele>
        <time>2020-06-03T15:45:06Z</time>
      </trkpt>
      <trkpt lat="46.62593" lon="-1.87356">
        <ele>6.5</ele>
        <time>2020-06-03T15:45:07Z</time>
      </trkpt>
      <trkpt lat="46.62596" lon="-1.87354">
        <ele>6.4</ele>
        <time>2020-06-03T15:45:08Z</time>
      </trkpt>
      <trkpt lat="46.626" lon="-1.87352">
        <ele>6.4</ele>
        <time>2020-06-03T15:45:09Z</time>
      </trkpt>
      <trkpt lat="46.62604" lon="-1.8735">
        <ele>6.4</ele>
        <time>2020-06-03T15:45:10Z</time>
      </trkpt>
      <trkpt lat="46.62609" lon="-1.87347">
        <ele>6.3</ele>
        <time>2020-06-03T15:45:11Z</time>
      </trkpt>
      <trkpt lat="46.62613" lon="-1.87345">
        <ele>6.3</ele>
        <time>2020-06-03T15:45:12Z</time>
      </trkpt>
      <trkpt lat="46.62617" lon="-1.87343">
        <ele>6.3</ele>
        <time>2020-06-03T15:45:13Z</time>
      </trkpt>
      <trkpt lat="46.62622" lon="-1.87343">
        <ele>6.4</ele>
        <time>2020-06-03T15:45:14Z</time>
      </trkpt>
      <trkpt lat="46.62627" lon="-1.87343">
        <ele>6.4</ele>
        <time>2020-06-03T15:45:15Z</time>
      </trkpt>
      <trkpt lat="46.62631" lon="-1.87346">
        <ele>6.5</ele>
        <time>2020-06-03T15:45:16Z</time>
      </trkpt>
      <trkpt lat="46.62634" lon="-1.87347">
        <ele>6.6</ele>
        <time>2020-06-03T15:45:17Z</time>
      </trkpt>
      <trkpt lat="46.62639" lon="-1.8735">
        <ele>6.7</ele>
        <time>2020-06-03T15:45:18Z</time>
      </trkpt>
      <trkpt lat="46.62644" lon="-1.87354">
        <ele>6.9</ele>
        <time>2020-06-03T15:45:19Z</time>
      </trkpt>
      <trkpt lat="46.62649" lon="-1.87356">
        <ele>7.1</ele>
        <time>2020-06-03T15:45:20Z</time>
      </trkpt>
      <trkpt lat="46.62655" lon="-1.87358">
        <ele>7.2</ele>
        <time>2020-06-03T15:45:21Z</time>
      </trkpt>
      <trkpt lat="46.62661" lon="-1.87359">
        <ele>7.3</ele>
        <time>2020-06-03T15:45:22Z</time>
      </trkpt>
      <trkpt lat="46.62666" lon="-1.8736">
        <ele>7.3</ele>
        <time>2020-06-03T15:45:23Z</time>
      </trkpt>
      <trkpt lat="46.62671" lon="-1.87362">
        <ele>7.4</ele>
        <time>2020-06-03T15:45:24Z</time>
      </trkpt>
      <trkpt lat="46.62676" lon="-1.87366">
        <ele>7.5</ele>
        <time>2020-06-03T15:45:25Z</time>
      </trkpt>
      <trkpt lat="46.6268" lon="-1.87369">
        <ele>7.7</ele>
        <time>2020-06-03T15:45:26Z</time>
      </trkpt>
      <trkpt lat="46.62684" lon="-1.87375">
        <ele>7.8</ele>
        <time>2020-06-03T15:45:27Z</time>
      </trkpt>
      <trkpt lat="46.62688" lon="-1.87383">
        <ele>8</ele>
        <time>2020-06-03T15:45:28Z</time>
      </trkpt>
      <trkpt lat="46.62691" lon="-1.8739">
        <ele>8</ele>
        <time>2020-06-03T15:45:29Z</time>
      </trkpt>
      <trkpt lat="46.62693" lon="-1.87396">
        <ele>8.1</ele>
        <time>2020-06-03T15:45:30Z</time>
      </trkpt>
      <trkpt lat="46.62696" lon="-1.87402">
        <ele>8.1</ele>
        <time>2020-06-03T15:45:31Z</time>
      </trkpt>
      <trkpt lat="46.62699" lon="-1.87406">
        <ele>8.1</ele>
        <time>2020-06-03T15:45:32Z</time>
      </trkpt>
      <trkpt lat="46.62702" lon="-1.87411">
        <ele>8.1</ele>
        <time>2020-06-03T15:45:33Z</time>
      </trkpt>
      <trkpt lat="46.62706" lon="-1.87415">
        <ele>8.2</ele>
        <time>2020-06-03T15:45:34Z</time>
      </trkpt>
      <trkpt lat="46.62709" lon="-1.87418">
        <ele>8.2</ele>
        <time>2020-06-03T15:45:35Z</time>
      </trkpt>
      <trkpt lat="46.62713" lon="-1.87422">
        <ele>8.3</ele>
        <time>2020-06-03T15:45:36Z</time>
      </trkpt>
      <trkpt lat="46.62717" lon="-1.87426">
        <ele>8.4</ele>
        <time>2020-06-03T15:45:37Z</time>
      </trkpt>
      <trkpt lat="46.62722" lon="-1.87428">
        <ele>8.4</ele>
        <time>2020-06-03T15:45:38Z</time>
      </trkpt>
      <trkpt lat="46.62726" lon="-1.87431">
        <ele>8.5</ele>
        <time>2020-06-03T15:45:39Z</time>
      </trkpt>
      <trkpt lat="46.62731" lon="-1.87434">
        <ele>8.5</ele>
        <time>2020-06-03T15:45:40Z</time>
      </trkpt>
      <trkpt lat="46.62736" lon="-1.87437">
        <ele>8.6</ele>
        <time>2020-06-03T15:45:41Z</time>
      </trkpt>
      <trkpt lat="46.62741" lon="-1.8744">
        <ele>8.6</ele>
        <time>2020-06-03T15:45:42Z</time>
      </trkpt>
      <trkpt lat="46.62745" lon="-1.87443">
        <ele>8.6</ele>
        <time>2020-06-03T15:45:43Z</time>
      </trkpt>
      <trkpt lat="46.6275" lon="-1.87444">
        <ele>8.7</ele>
        <time>2020-06-03T15:45:44Z</time>
      </trkpt>
      <trkpt lat="46.62754" lon="-1.87446">
        <ele>8.7</ele>
        <time>2020-06-03T15:45:45Z</time>
      </trkpt>
      <trkpt lat="46.62759" lon="-1.87449">
        <ele>8.7</ele>
        <time>2020-06-03T15:45:46Z</time>
      </trkpt>
      <trkpt lat="46.62764" lon="-1.87451">
        <ele>8.7</ele>
        <time>2020-06-03T15:45:47Z</time>
      </trkpt>
      <trkpt lat="46.62769" lon="-1.87454">
        <ele>8.7</ele>
        <time>2020-06-03T15:45:48Z</time>
      </trkpt>
      <trkpt lat="46.62773" lon="-1.87456">
        <ele>8.7</ele>
        <time>2020-06-03T15:45:49Z</time>
      </trkpt>
      <trkpt lat="46.62777" lon="-1.87459">
        <ele>8.7</ele>
        <time>2020-06-03T15:45:50Z</time>
      </trkpt>
      <trkpt lat="46.62782" lon="-1.87461">
        <ele>8.7</ele>
        <time>2020-06-03T15:45:51Z</time>
      </trkpt>
      <trkpt lat="46.62786" lon="-1.87463">
        <ele>8.7</ele>
        <time>2020-06-03T15:45:52Z</time>
      </trkpt>
      <trkpt lat="46.62791" lon="-1.87465">
        <ele>8.7</ele>
        <time>2020-06-03T15:45:53Z</time>
      </trkpt>
      <trkpt lat="46.62794" lon="-1.87468">
        <ele>8.7</ele>
        <time>2020-06-03T15:45:54Z</time>
      </trkpt>
      <trkpt lat="46.62798" lon="-1.8747">
        <ele>8.7</ele>
        <time>2020-06-03T15:45:55Z</time>
      </trkpt>
      <trkpt lat="46.62802" lon="-1.87472">
        <ele>8.7</ele>
        <time>2020-06-03T15:45:56Z</time>
      </trkpt>
      <trkpt lat="46.62806" lon="-1.87475">
        <ele>8.8</ele>
        <time>2020-06-03T15:45:57Z</time>
      </trkpt>
      <trkpt lat="46.62811" lon="-1.87477">
        <ele>8.8</ele>
        <time>2020-06-03T15:45:58Z</time>
      </trkpt>
      <trkpt lat="46.62815" lon="-1.8748">
        <ele>8.8</ele>
        <time>2020-06-03T15:45:59Z</time>
      </trkpt>
      <trkpt lat="46.6282" lon="-1.87483">
        <ele>8.9</ele>
        <time>2020-06-03T15:46:00Z</time>
      </trkpt>
      <trkpt lat="46.62825" lon="-1.87486">
        <ele>8.9</ele>
        <time>2020-06-03T15:46:01Z</time>
      </trkpt>
      <trkpt lat="46.62829" lon="-1.87489">
        <ele>9</ele>
        <time>2020-06-03T15:46:02Z</time>
      </trkpt>
      <trkpt lat="46.62834" lon="-1.87493">
        <ele>9</ele>
        <time>2020-06-03T15:46:03Z</time>
      </trkpt>
      <trkpt lat="46.62838" lon="-1.87496">
        <ele>9.1</ele>
        <time>2020-06-03T15:46:04Z</time>
      </trkpt>
      <trkpt lat="46.62841" lon="-1.875">
        <ele>9.1</ele>
        <time>2020-06-03T15:46:05Z</time>
      </trkpt>
      <trkpt lat="46.62845" lon="-1.87504">
        <ele>9.1</ele>
        <time>2020-06-03T15:46:06Z</time>
      </trkpt>
      <trkpt lat="46.62849" lon="-1.87508">
        <ele>9.2</ele>
        <time>2020-06-03T15:46:07Z</time>
      </trkpt>
      <trkpt lat="46.62853" lon="-1.87512">
        <ele>9.2</ele>
        <time>2020-06-03T15:46:08Z</time>
      </trkpt>
      <trkpt lat="46.62856" lon="-1.87518">
        <ele>9.3</ele>
        <time>2020-06-03T15:46:09Z</time>
      </trkpt>
      <trkpt lat="46.6286" lon="-1.87523">
        <ele>9.3</ele>
        <time>2020-06-03T15:46:10Z</time>
      </trkpt>
      <trkpt lat="46.62863" lon="-1.87529">
        <ele>9.4</ele>
        <time>2020-06-03T15:46:11Z</time>
      </trkpt>
      <trkpt lat="46.62865" lon="-1.87535">
        <ele>9.4</ele>
        <time>2020-06-03T15:46:12Z</time>
      </trkpt>
      <trkpt lat="46.62868" lon="-1.87541">
        <ele>9.5</ele>
        <time>2020-06-03T15:46:13Z</time>
      </trkpt>
      <trkpt lat="46.62871" lon="-1.87547">
        <ele>9.5</ele>
        <time>2020-06-03T15:46:14Z</time>
      </trkpt>
      <trkpt lat="46.62873" lon="-1.87554">
        <ele>9.6</ele>
        <time>2020-06-03T15:46:15Z</time>
      </trkpt>
      <trkpt lat="46.62875" lon="-1.87558">
        <ele>9.6</ele>
        <time>2020-06-03T15:46:16Z</time>
      </trkpt>
      <trkpt lat="46.62878" lon="-1.87562">
        <ele>9.6</ele>
        <time>2020-06-03T15:46:17Z</time>
      </trkpt>
      <trkpt lat="46.6288" lon="-1.87567">
        <ele>9.7</ele>
        <time>2020-06-03T15:46:18Z</time>
      </trkpt>
      <trkpt lat="46.62883" lon="-1.87572">
        <ele>9.7</ele>
        <time>2020-06-03T15:46:19Z</time>
      </trkpt>
      <trkpt lat="46.62884" lon="-1.87577">
        <ele>9.8</ele>
        <time>2020-06-03T15:46:20Z</time>
      </trkpt>
      <trkpt lat="46.62887" lon="-1.87582">
        <ele>9.8</ele>
        <time>2020-06-03T15:46:21Z</time>
      </trkpt>
      <trkpt lat="46.62889" lon="-1.87588">
        <ele>9.9</ele>
        <time>2020-06-03T15:46:22Z</time>
      </trkpt>
      <trkpt lat="46.62892" lon="-1.87592">
        <ele>9.9</ele>
        <time>2020-06-03T15:46:23Z</time>
      </trkpt>
      <trkpt lat="46.62894" lon="-1.87595">
        <ele>9.9</ele>
        <time>2020-06-03T15:46:24Z</time>
      </trkpt>
      <trkpt lat="46.62896" lon="-1.876">
        <ele>10</ele>
        <time>2020-06-03T15:46:25Z</time>
      </trkpt>
      <trkpt lat="46.62896" lon="-1.87602">
        <ele>10</ele>
        <time>2020-06-03T15:46:26Z</time>
      </trkpt>
      <trkpt lat="46.62895" lon="-1.87607">
        <ele>9.6</ele>
        <time>2020-06-03T15:46:27Z</time>
      </trkpt>
      <trkpt lat="46.62893" lon="-1.87611">
        <ele>9.6</ele>
        <time>2020-06-03T15:46:28Z</time>
      </trkpt>
      <trkpt lat="46.6289" lon="-1.87616">
        <ele>9.7</ele>
        <time>2020-06-03T15:46:29Z</time>
      </trkpt>
      <trkpt lat="46.62888" lon="-1.87621">
        <ele>9.7</ele>
        <time>2020-06-03T15:46:30Z</time>
      </trkpt>
      <trkpt lat="46.62887" lon="-1.87625">
        <ele>9.8</ele>
        <time>2020-06-03T15:46:31Z</time>
      </trkpt>
      <trkpt lat="46.62887" lon="-1.8763">
        <ele>9.8</ele>
        <time>2020-06-03T15:46:32Z</time>
      </trkpt>
      <trkpt lat="46.62888" lon="-1.87635">
        <ele>9.9</ele>
        <time>2020-06-03T15:46:33Z</time>
      </trkpt>
      <trkpt lat="46.6289" lon="-1.8764">
        <ele>10</ele>
        <time>2020-06-03T15:46:34Z</time>
      </trkpt>
      <trkpt lat="46.62892" lon="-1.87646">
        <ele>10.1</ele>
        <time>2020-06-03T15:46:35Z</time>
      </trkpt>
      <trkpt lat="46.62895" lon="-1.87651">
        <ele>10.2</ele>
        <time>2020-06-03T15:46:36Z</time>
      </trkpt>
      <trkpt lat="46.62897" lon="-1.87658">
        <ele>10.2</ele>
        <time>2020-06-03T15:46:37Z</time>
      </trkpt>
      <trkpt lat="46.62899" lon="-1.87663">
        <ele>10.3</ele>
        <time>2020-06-03T15:46:38Z</time>
      </trkpt>
      <trkpt lat="46.62902" lon="-1.87668">
        <ele>10.3</ele>
        <time>2020-06-03T15:46:39Z</time>
      </trkpt>
      <trkpt lat="46.62905" lon="-1.87673">
        <ele>10.3</ele>
        <time>2020-06-03T15:46:40Z</time>
      </trkpt>
      <trkpt lat="46.62907" lon="-1.87677">
        <ele>10.4</ele>
        <time>2020-06-03T15:46:41Z</time>
      </trkpt>
      <trkpt lat="46.6291" lon="-1.87682">
        <ele>10.4</ele>
        <time>2020-06-03T15:46:42Z</time>
      </trkpt>
      <trkpt lat="46.62914" lon="-1.87686">
        <ele>10.5</ele>
        <time>2020-06-03T15:46:43Z</time>
      </trkpt>
      <trkpt lat="46.62917" lon="-1.8769">
        <ele>10.6</ele>
        <time>2020-06-03T15:46:44Z</time>
      </trkpt>
      <trkpt lat="46.62921" lon="-1.87694">
        <ele>10.6</ele>
        <time>2020-06-03T15:46:45Z</time>
      </trkpt>
      <trkpt lat="46.62924" lon="-1.87699">
        <ele>10.7</ele>
        <time>2020-06-03T15:46:46Z</time>
      </trkpt>
      <trkpt lat="46.62927" lon="-1.87703">
        <ele>10.7</ele>
        <time>2020-06-03T15:46:47Z</time>
      </trkpt>
      <trkpt lat="46.6293" lon="-1.87706">
        <ele>10.8</ele>
        <time>2020-06-03T15:46:48Z</time>
      </trkpt>
      <trkpt lat="46.62933" lon="-1.87709">
        <ele>10.8</ele>
        <time>2020-06-03T15:46:49Z</time>
      </trkpt>
      <trkpt lat="46.62936" lon="-1.87711">
        <ele>10.9</ele>
        <time>2020-06-03T15:46:50Z</time>
      </trkpt>
      <trkpt lat="46.6294" lon="-1.8771">
        <ele>11.1</ele>
        <time>2020-06-03T15:46:51Z</time>
      </trkpt>
      <trkpt lat="46.62944" lon="-1.8771">
        <ele>11.2</ele>
        <time>2020-06-03T15:46:52Z</time>
      </trkpt>
      <trkpt lat="46.62947" lon="-1.8771">
        <ele>11.3</ele>
        <time>2020-06-03T15:46:53Z</time>
      </trkpt>
      <trkpt lat="46.6295" lon="-1.87711">
        <ele>11.4</ele>
        <time>2020-06-03T15:46:54Z</time>
      </trkpt>
      <trkpt lat="46.62954" lon="-1.87713">
        <ele>11.5</ele>
        <time>2020-06-03T15:46:55Z</time>
      </trkpt>
      <trkpt lat="46.62957" lon="-1.87717">
        <ele>11.7</ele>
        <time>2020-06-03T15:46:56Z</time>
      </trkpt>
      <trkpt lat="46.6296" lon="-1.87721">
        <ele>11.8</ele>
        <time>2020-06-03T15:46:57Z</time>
      </trkpt>
      <trkpt lat="46.62962" lon="-1.87726">
        <ele>11.9</ele>
        <time>2020-06-03T15:46:58Z</time>
      </trkpt>
      <trkpt lat="46.62964" lon="-1.87731">
        <ele>12</ele>
        <time>2020-06-03T15:46:59Z</time>
      </trkpt>
      <trkpt lat="46.62967" lon="-1.87736">
        <ele>12.1</ele>
        <time>2020-06-03T15:47:00Z</time>
      </trkpt>
      <trkpt lat="46.6297" lon="-1.8774">
        <ele>12.2</ele>
        <time>2020-06-03T15:47:01Z</time>
      </trkpt>
      <trkpt lat="46.62972" lon="-1.87746">
        <ele>12.3</ele>
        <time>2020-06-03T15:47:02Z</time>
      </trkpt>
      <trkpt lat="46.62975" lon="-1.87752">
        <ele>12.4</ele>
        <time>2020-06-03T15:47:03Z</time>
      </trkpt>
      <trkpt lat="46.62978" lon="-1.87759">
        <ele>12.6</ele>
        <time>2020-06-03T15:47:04Z</time>
      </trkpt>
      <trkpt lat="46.62981" lon="-1.87764">
        <ele>12.5</ele>
        <time>2020-06-03T15:47:05Z</time>
      </trkpt>
      <trkpt lat="46.62983" lon="-1.8777">
        <ele>12.5</ele>
        <time>2020-06-03T15:47:06Z</time>
      </trkpt>
      <trkpt lat="46.62986" lon="-1.87776">
        <ele>12.6</ele>
        <time>2020-06-03T15:47:07Z</time>
      </trkpt>
      <trkpt lat="46.62988" lon="-1.87782">
        <ele>12.6</ele>
        <time>2020-06-03T15:47:08Z</time>
      </trkpt>
      <trkpt lat="46.6299" lon="-1.87787">
        <ele>12.6</ele>
        <time>2020-06-03T15:47:09Z</time>
      </trkpt>
      <trkpt lat="46.62993" lon="-1.87793">
        <ele>12.6</ele>
        <time>2020-06-03T15:47:10Z</time>
      </trkpt>
      <trkpt lat="46.62996" lon="-1.87798">
        <ele>12.6</ele>
        <time>2020-06-03T15:47:11Z</time>
      </trkpt>
      <trkpt lat="46.62998" lon="-1.87804">
        <ele>12.7</ele>
        <time>2020-06-03T15:47:12Z</time>
      </trkpt>
      <trkpt lat="46.63" lon="-1.87809">
        <ele>12.7</ele>
        <time>2020-06-03T15:47:13Z</time>
      </trkpt>
      <trkpt lat="46.63001" lon="-1.87815">
        <ele>12.7</ele>
        <time>2020-06-03T15:47:14Z</time>
      </trkpt>
      <trkpt lat="46.63003" lon="-1.87821">
        <ele>12.7</ele>
        <time>2020-06-03T15:47:15Z</time>
      </trkpt>
      <trkpt lat="46.63005" lon="-1.87826">
        <ele>12.7</ele>
        <time>2020-06-03T15:47:16Z</time>
      </trkpt>
      <trkpt lat="46.63008" lon="-1.87831">
        <ele>12.8</ele>
        <time>2020-06-03T15:47:17Z</time>
      </trkpt>
      <trkpt lat="46.63009" lon="-1.87837">
        <ele>12.8</ele>
        <time>2020-06-03T15:47:18Z</time>
      </trkpt>
      <trkpt lat="46.6301" lon="-1.87843">
        <ele>12.8</ele>
        <time>2020-06-03T15:47:19Z</time>
      </trkpt>
      <trkpt lat="46.63011" lon="-1.8785">
        <ele>12.9</ele>
        <time>2020-06-03T15:47:20Z</time>
      </trkpt>
      <trkpt lat="46.63012" lon="-1.87857">
        <ele>13</ele>
        <time>2020-06-03T15:47:21Z</time>
      </trkpt>
      <trkpt lat="46.63013" lon="-1.87866">
        <ele>13.1</ele>
        <time>2020-06-03T15:47:22Z</time>
      </trkpt>
      <trkpt lat="46.63015" lon="-1.87874">
        <ele>13.3</ele>
        <time>2020-06-03T15:47:23Z</time>
      </trkpt>
      <trkpt lat="46.63017" lon="-1.87881">
        <ele>13.4</ele>
        <time>2020-06-03T15:47:24Z</time>
      </trkpt>
      <trkpt lat="46.6302" lon="-1.87888">
        <ele>13.6</ele>
        <time>2020-06-03T15:47:25Z</time>
      </trkpt>
      <trkpt lat="46.63022" lon="-1.87895">
        <ele>13.7</ele>
        <time>2020-06-03T15:47:26Z</time>
      </trkpt>
      <trkpt lat="46.63023" lon="-1.87901">
        <ele>13.8</ele>
        <time>2020-06-03T15:47:27Z</time>
      </trkpt>
      <trkpt lat="46.63026" lon="-1.87908">
        <ele>13.9</ele>
        <time>2020-06-03T15:47:28Z</time>
      </trkpt>
      <trkpt lat="46.63027" lon="-1.87914">
        <ele>14</ele>
        <time>2020-06-03T15:47:29Z</time>
      </trkpt>
      <trkpt lat="46.63029" lon="-1.87921">
        <ele>14.1</ele>
        <time>2020-06-03T15:47:30Z</time>
      </trkpt>
      <trkpt lat="46.63031" lon="-1.87927">
        <ele>14.2</ele>
        <time>2020-06-03T15:47:31Z</time>
      </trkpt>
      <trkpt lat="46.63033" lon="-1.87933">
        <ele>14.2</ele>
        <time>2020-06-03T15:47:32Z</time>
      </trkpt>
      <trkpt lat="46.63035" lon="-1.87939">
        <ele>14.3</ele>
        <time>2020-06-03T15:47:33Z</time>
      </trkpt>
      <trkpt lat="46.63037" lon="-1.87946">
        <ele>14.3</ele>
        <time>2020-06-03T15:47:34Z</time>
      </trkpt>
      <trkpt lat="46.63039" lon="-1.87951">
        <ele>14.3</ele>
        <time>2020-06-03T15:47:35Z</time>
      </trkpt>
      <trkpt lat="46.63041" lon="-1.87957">
        <ele>14.3</ele>
        <time>2020-06-03T15:47:36Z</time>
      </trkpt>
      <trkpt lat="46.63043" lon="-1.87963">
        <ele>14.2</ele>
        <time>2020-06-03T15:47:37Z</time>
      </trkpt>
      <trkpt lat="46.63045" lon="-1.87968">
        <ele>14.2</ele>
        <time>2020-06-03T15:47:38Z</time>
      </trkpt>
      <trkpt lat="46.63047" lon="-1.87972">
        <ele>14.1</ele>
        <time>2020-06-03T15:47:39Z</time>
      </trkpt>
      <trkpt lat="46.6305" lon="-1.87978">
        <ele>14</ele>
        <time>2020-06-03T15:47:40Z</time>
      </trkpt>
      <trkpt lat="46.63052" lon="-1.87983">
        <ele>14</ele>
        <time>2020-06-03T15:47:41Z</time>
      </trkpt>
      <trkpt lat="46.63053" lon="-1.87988">
        <ele>13.9</ele>
        <time>2020-06-03T15:47:42Z</time>
      </trkpt>
      <trkpt lat="46.63055" lon="-1.87995">
        <ele>13.9</ele>
        <time>2020-06-03T15:47:43Z</time>
      </trkpt>
      <trkpt lat="46.63057" lon="-1.88001">
        <ele>13.9</ele>
        <time>2020-06-03T15:47:44Z</time>
      </trkpt>
      <trkpt lat="46.6306" lon="-1.88006">
        <ele>13.8</ele>
        <time>2020-06-03T15:47:45Z</time>
      </trkpt>
      <trkpt lat="46.63062" lon="-1.88012">
        <ele>13.7</ele>
        <time>2020-06-03T15:47:46Z</time>
      </trkpt>
      <trkpt lat="46.63066" lon="-1.88017">
        <ele>13.6</ele>
        <time>2020-06-03T15:47:47Z</time>
      </trkpt>
      <trkpt lat="46.6307" lon="-1.88022">
        <ele>13.4</ele>
        <time>2020-06-03T15:47:48Z</time>
      </trkpt>
      <trkpt lat="46.63073" lon="-1.88027">
        <ele>13.3</ele>
        <time>2020-06-03T15:47:49Z</time>
      </trkpt>
      <trkpt lat="46.63078" lon="-1.88032">
        <ele>13.2</ele>
        <time>2020-06-03T15:47:50Z</time>
      </trkpt>
      <trkpt lat="46.63082" lon="-1.88037">
        <ele>13</ele>
        <time>2020-06-03T15:47:51Z</time>
      </trkpt>
      <trkpt lat="46.63087" lon="-1.88043">
        <ele>12.9</ele>
        <time>2020-06-03T15:47:52Z</time>
      </trkpt>
      <trkpt lat="46.63092" lon="-1.88049">
        <ele>12.7</ele>
        <time>2020-06-03T15:47:53Z</time>
      </trkpt>
      <trkpt lat="46.63097" lon="-1.88054">
        <ele>12.5</ele>
        <time>2020-06-03T15:47:54Z</time>
      </trkpt>
      <trkpt lat="46.63101" lon="-1.88058">
        <ele>12.3</ele>
        <time>2020-06-03T15:47:55Z</time>
      </trkpt>
      <trkpt lat="46.63106" lon="-1.88063">
        <ele>12.2</ele>
        <time>2020-06-03T15:47:56Z</time>
      </trkpt>
      <trkpt lat="46.6311" lon="-1.88067">
        <ele>12</ele>
        <time>2020-06-03T15:47:57Z</time>
      </trkpt>
      <trkpt lat="46.63114" lon="-1.88073">
        <ele>11.8</ele>
        <time>2020-06-03T15:47:58Z</time>
      </trkpt>
      <trkpt lat="46.63117" lon="-1.88078">
        <ele>11.7</ele>
        <time>2020-06-03T15:47:59Z</time>
      </trkpt>
      <trkpt lat="46.6312" lon="-1.88084">
        <ele>11.6</ele>
        <time>2020-06-03T15:48:00Z</time>
      </trkpt>
      <trkpt lat="46.63123" lon="-1.88089">
        <ele>11.4</ele>
        <time>2020-06-03T15:48:01Z</time>
      </trkpt>
      <trkpt lat="46.63126" lon="-1.88096">
        <ele>11.3</ele>
        <time>2020-06-03T15:48:02Z</time>
      </trkpt>
      <trkpt lat="46.63129" lon="-1.88103">
        <ele>11.1</ele>
        <time>2020-06-03T15:48:03Z</time>
      </trkpt>
      <trkpt lat="46.6313" lon="-1.88112">
        <ele>10.9</ele>
        <time>2020-06-03T15:48:04Z</time>
      </trkpt>
      <trkpt lat="46.6313" lon="-1.88121">
        <ele>10.7</ele>
        <time>2020-06-03T15:48:05Z</time>
      </trkpt>
      <trkpt lat="46.6313" lon="-1.8813">
        <ele>10.5</ele>
        <time>2020-06-03T15:48:06Z</time>
      </trkpt>
      <trkpt lat="46.63131" lon="-1.88137">
        <ele>10.4</ele>
        <time>2020-06-03T15:48:07Z</time>
      </trkpt>
      <trkpt lat="46.63132" lon="-1.88144">
        <ele>10.2</ele>
        <time>2020-06-03T15:48:08Z</time>
      </trkpt>
      <trkpt lat="46.63133" lon="-1.88151">
        <ele>10.1</ele>
        <time>2020-06-03T15:48:09Z</time>
      </trkpt>
      <trkpt lat="46.63134" lon="-1.88158">
        <ele>9.9</ele>
        <time>2020-06-03T15:48:10Z</time>
      </trkpt>
      <trkpt lat="46.63136" lon="-1.88167">
        <ele>9.8</ele>
        <time>2020-06-03T15:48:11Z</time>
      </trkpt>
      <trkpt lat="46.63136" lon="-1.88175">
        <ele>9.6</ele>
        <time>2020-06-03T15:48:12Z</time>
      </trkpt>
      <trkpt lat="46.63136" lon="-1.88183">
        <ele>9.4</ele>
        <time>2020-06-03T15:48:13Z</time>
      </trkpt>
      <trkpt lat="46.63136" lon="-1.88191">
        <ele>9.3</ele>
        <time>2020-06-03T15:48:14Z</time>
      </trkpt>
      <trkpt lat="46.63137" lon="-1.88199">
        <ele>9.2</ele>
        <time>2020-06-03T15:48:15Z</time>
      </trkpt>
      <trkpt lat="46.63139" lon="-1.88207">
        <ele>9.2</ele>
        <time>2020-06-03T15:48:16Z</time>
      </trkpt>
      <trkpt lat="46.63141" lon="-1.88214">
        <ele>9.1</ele>
        <time>2020-06-03T15:48:17Z</time>
      </trkpt>
      <trkpt lat="46.63143" lon="-1.8822">
        <ele>9.1</ele>
        <time>2020-06-03T15:48:18Z</time>
      </trkpt>
      <trkpt lat="46.63146" lon="-1.88225">
        <ele>9.1</ele>
        <time>2020-06-03T15:48:19Z</time>
      </trkpt>
      <trkpt lat="46.63149" lon="-1.88229">
        <ele>9.1</ele>
        <time>2020-06-03T15:48:20Z</time>
      </trkpt>
      <trkpt lat="46.63152" lon="-1.88232">
        <ele>9</ele>
        <time>2020-06-03T15:48:21Z</time>
      </trkpt>
      <trkpt lat="46.63155" lon="-1.88236">
        <ele>9</ele>
        <time>2020-06-03T15:48:22Z</time>
      </trkpt>
      <trkpt lat="46.63157" lon="-1.88241">
        <ele>9</ele>
        <time>2020-06-03T15:48:23Z</time>
      </trkpt>
      <trkpt lat="46.6316" lon="-1.88248">
        <ele>9</ele>
        <time>2020-06-03T15:48:24Z</time>
      </trkpt>
      <trkpt lat="46.63162" lon="-1.88253">
        <ele>9</ele>
        <time>2020-06-03T15:48:25Z</time>
      </trkpt>
      <trkpt lat="46.63163" lon="-1.88259">
        <ele>8.9</ele>
        <time>2020-06-03T15:48:26Z</time>
      </trkpt>
      <trkpt lat="46.63164" lon="-1.88265">
        <ele>8.9</ele>
        <time>2020-06-03T15:48:27Z</time>
      </trkpt>
      <trkpt lat="46.63166" lon="-1.88272">
        <ele>8.9</ele>
        <time>2020-06-03T15:48:28Z</time>
      </trkpt>
      <trkpt lat="46.63167" lon="-1.88279">
        <ele>8.9</ele>
        <time>2020-06-03T15:48:29Z</time>
      </trkpt>
      <trkpt lat="46.63169" lon="-1.88286">
        <ele>8.9</ele>
        <time>2020-06-03T15:48:30Z</time>
      </trkpt>
      <trkpt lat="46.6317" lon="-1.88293">
        <ele>8.9</ele>
        <time>2020-06-03T15:48:31Z</time>
      </trkpt>
      <trkpt lat="46.6317" lon="-1.88299">
        <ele>8.9</ele>
        <time>2020-06-03T15:48:32Z</time>
      </trkpt>
      <trkpt lat="46.6317" lon="-1.88305">
        <ele>8.9</ele>
        <time>2020-06-03T15:48:33Z</time>
      </trkpt>
      <trkpt lat="46.6317" lon="-1.88312">
        <ele>9</ele>
        <time>2020-06-03T15:48:34Z</time>
      </trkpt>
      <trkpt lat="46.63171" lon="-1.88319">
        <ele>9</ele>
        <time>2020-06-03T15:48:35Z</time>
      </trkpt>
      <trkpt lat="46.63172" lon="-1.88325">
        <ele>9</ele>
        <time>2020-06-03T15:48:36Z</time>
      </trkpt>
      <trkpt lat="46.63172" lon="-1.88333">
        <ele>9.1</ele>
        <time>2020-06-03T15:48:37Z</time>
      </trkpt>
      <trkpt lat="46.63173" lon="-1.8834">
        <ele>9.1</ele>
        <time>2020-06-03T15:48:38Z</time>
      </trkpt>
      <trkpt lat="46.63173" lon="-1.88348">
        <ele>9.1</ele>
        <time>2020-06-03T15:48:39Z</time>
      </trkpt>
      <trkpt lat="46.63174" lon="-1.88355">
        <ele>9.1</ele>
        <time>2020-06-03T15:48:40Z</time>
      </trkpt>
      <trkpt lat="46.63173" lon="-1.88361">
        <ele>9.1</ele>
        <time>2020-06-03T15:48:41Z</time>
      </trkpt>
      <trkpt lat="46.63172" lon="-1.88368">
        <ele>9.1</ele>
        <time>2020-06-03T15:48:42Z</time>
      </trkpt>
      <trkpt lat="46.63172" lon="-1.88374">
        <ele>9.1</ele>
        <time>2020-06-03T15:48:43Z</time>
      </trkpt>
      <trkpt lat="46.63171" lon="-1.88382">
        <ele>9</ele>
        <time>2020-06-03T15:48:44Z</time>
      </trkpt>
      <trkpt lat="46.63171" lon="-1.88388">
        <ele>8.9</ele>
        <time>2020-06-03T15:48:45Z</time>
      </trkpt>
      <trkpt lat="46.6317" lon="-1.88394">
        <ele>8.8</ele>
        <time>2020-06-03T15:48:46Z</time>
      </trkpt>
      <trkpt lat="46.6317" lon="-1.88401">
        <ele>8.8</ele>
        <time>2020-06-03T15:48:47Z</time>
      </trkpt>
      <trkpt lat="46.63169" lon="-1.88408">
        <ele>8.7</ele>
        <time>2020-06-03T15:48:48Z</time>
      </trkpt>
      <trkpt lat="46.63169" lon="-1.88415">
        <ele>8.6</ele>
        <time>2020-06-03T15:48:49Z</time>
      </trkpt>
      <trkpt lat="46.63171" lon="-1.88422">
        <ele>8.5</ele>
        <time>2020-06-03T15:48:50Z</time>
      </trkpt>
      <trkpt lat="46.63172" lon="-1.88429">
        <ele>8.4</ele>
        <time>2020-06-03T15:48:51Z</time>
      </trkpt>
      <trkpt lat="46.63175" lon="-1.88435">
        <ele>8.3</ele>
        <time>2020-06-03T15:48:52Z</time>
      </trkpt>
      <trkpt lat="46.63178" lon="-1.88442">
        <ele>8.3</ele>
        <time>2020-06-03T15:48:53Z</time>
      </trkpt>
      <trkpt lat="46.63181" lon="-1.88448">
        <ele>8.2</ele>
        <time>2020-06-03T15:48:54Z</time>
      </trkpt>
      <trkpt lat="46.63185" lon="-1.88454">
        <ele>8.2</ele>
        <time>2020-06-03T15:48:55Z</time>
      </trkpt>
      <trkpt lat="46.63188" lon="-1.88461">
        <ele>8.2</ele>
        <time>2020-06-03T15:48:56Z</time>
      </trkpt>
      <trkpt lat="46.63192" lon="-1.88468">
        <ele>8.2</ele>
        <time>2020-06-03T15:48:57Z</time>
      </trkpt>
      <trkpt lat="46.63196" lon="-1.88474">
        <ele>8.2</ele>
        <time>2020-06-03T15:48:58Z</time>
      </trkpt>
      <trkpt lat="46.632" lon="-1.88479">
        <ele>8.2</ele>
        <time>2020-06-03T15:48:59Z</time>
      </trkpt>
      <trkpt lat="46.63204" lon="-1.88484">
        <ele>8.2</ele>
        <time>2020-06-03T15:49:00Z</time>
      </trkpt>
      <trkpt lat="46.63207" lon="-1.88489">
        <ele>8.1</ele>
        <time>2020-06-03T15:49:01Z</time>
      </trkpt>
      <trkpt lat="46.6321" lon="-1.88494">
        <ele>8.1</ele>
        <time>2020-06-03T15:49:02Z</time>
      </trkpt>
      <trkpt lat="46.63214" lon="-1.885">
        <ele>8</ele>
        <time>2020-06-03T15:49:03Z</time>
      </trkpt>
      <trkpt lat="46.63217" lon="-1.88507">
        <ele>7.9</ele>
        <time>2020-06-03T15:49:04Z</time>
      </trkpt>
      <trkpt lat="46.63219" lon="-1.88513">
        <ele>7.8</ele>
        <time>2020-06-03T15:49:05Z</time>
      </trkpt>
      <trkpt lat="46.63221" lon="-1.88518">
        <ele>7.8</ele>
        <time>2020-06-03T15:49:06Z</time>
      </trkpt>
      <trkpt lat="46.63224" lon="-1.88524">
        <ele>7.8</ele>
        <time>2020-06-03T15:49:07Z</time>
      </trkpt>
      <trkpt lat="46.63227" lon="-1.8853">
        <ele>7.7</ele>
        <time>2020-06-03T15:49:08Z</time>
      </trkpt>
      <trkpt lat="46.6323" lon="-1.88536">
        <ele>7.7</ele>
        <time>2020-06-03T15:49:09Z</time>
      </trkpt>
      <trkpt lat="46.63234" lon="-1.8854">
        <ele>7.7</ele>
        <time>2020-06-03T15:49:10Z</time>
      </trkpt>
      <trkpt lat="46.63238" lon="-1.88546">
        <ele>7.7</ele>
        <time>2020-06-03T15:49:11Z</time>
      </trkpt>
      <trkpt lat="46.63242" lon="-1.88551">
        <ele>7.7</ele>
        <time>2020-06-03T15:49:12Z</time>
      </trkpt>
      <trkpt lat="46.63247" lon="-1.88554">
        <ele>7.7</ele>
        <time>2020-06-03T15:49:13Z</time>
      </trkpt>
      <trkpt lat="46.63251" lon="-1.88558">
        <ele>7.7</ele>
        <time>2020-06-03T15:49:14Z</time>
      </trkpt>
      <trkpt lat="46.63255" lon="-1.88563">
        <ele>7.7</ele>
        <time>2020-06-03T15:49:15Z</time>
      </trkpt>
      <trkpt lat="46.63258" lon="-1.88568">
        <ele>7.7</ele>
        <time>2020-06-03T15:49:16Z</time>
      </trkpt>
      <trkpt lat="46.63262" lon="-1.88574">
        <ele>7.7</ele>
        <time>2020-06-03T15:49:17Z</time>
      </trkpt>
      <trkpt lat="46.63265" lon="-1.88581">
        <ele>7.7</ele>
        <time>2020-06-03T15:49:18Z</time>
      </trkpt>
      <trkpt lat="46.63269" lon="-1.88587">
        <ele>7.7</ele>
        <time>2020-06-03T15:49:19Z</time>
      </trkpt>
      <trkpt lat="46.63272" lon="-1.88592">
        <ele>7.7</ele>
        <time>2020-06-03T15:49:20Z</time>
      </trkpt>
      <trkpt lat="46.63274" lon="-1.88598">
        <ele>7.7</ele>
        <time>2020-06-03T15:49:21Z</time>
      </trkpt>
      <trkpt lat="46.63278" lon="-1.88604">
        <ele>7.7</ele>
        <time>2020-06-03T15:49:22Z</time>
      </trkpt>
      <trkpt lat="46.6328" lon="-1.88609">
        <ele>7.7</ele>
        <time>2020-06-03T15:49:23Z</time>
      </trkpt>
      <trkpt lat="46.63283" lon="-1.88615">
        <ele>7.7</ele>
        <time>2020-06-03T15:49:24Z</time>
      </trkpt>
      <trkpt lat="46.63286" lon="-1.88621">
        <ele>7.8</ele>
        <time>2020-06-03T15:49:25Z</time>
      </trkpt>
      <trkpt lat="46.63289" lon="-1.88627">
        <ele>7.8</ele>
        <time>2020-06-03T15:49:26Z</time>
      </trkpt>
      <trkpt lat="46.63291" lon="-1.88633">
        <ele>7.9</ele>
        <time>2020-06-03T15:49:27Z</time>
      </trkpt>
      <trkpt lat="46.63295" lon="-1.88639">
        <ele>7.9</ele>
        <time>2020-06-03T15:49:28Z</time>
      </trkpt>
      <trkpt lat="46.63298" lon="-1.88645">
        <ele>8</ele>
        <time>2020-06-03T15:49:29Z</time>
      </trkpt>
      <trkpt lat="46.63301" lon="-1.88651">
        <ele>8.1</ele>
        <time>2020-06-03T15:49:30Z</time>
      </trkpt>
      <trkpt lat="46.63305" lon="-1.88657">
        <ele>8.1</ele>
        <time>2020-06-03T15:49:31Z</time>
      </trkpt>
      <trkpt lat="46.63307" lon="-1.88663">
        <ele>8.2</ele>
        <time>2020-06-03T15:49:32Z</time>
      </trkpt>
      <trkpt lat="46.6331" lon="-1.88668">
        <ele>8.3</ele>
        <time>2020-06-03T15:49:33Z</time>
      </trkpt>
      <trkpt lat="46.63314" lon="-1.88673">
        <ele>8.4</ele>
        <time>2020-06-03T15:49:34Z</time>
      </trkpt>
      <trkpt lat="46.63317" lon="-1.88677">
        <ele>8.4</ele>
        <time>2020-06-03T15:49:35Z</time>
      </trkpt>
      <trkpt lat="46.63321" lon="-1.88682">
        <ele>8.5</ele>
        <time>2020-06-03T15:49:36Z</time>
      </trkpt>
      <trkpt lat="46.63325" lon="-1.88687">
        <ele>8.6</ele>
        <time>2020-06-03T15:49:37Z</time>
      </trkpt>
      <trkpt lat="46.63329" lon="-1.88691">
        <ele>8.6</ele>
        <time>2020-06-03T15:49:38Z</time>
      </trkpt>
      <trkpt lat="46.63333" lon="-1.88696">
        <ele>8.7</ele>
        <time>2020-06-03T15:49:39Z</time>
      </trkpt>
      <trkpt lat="46.63337" lon="-1.887">
        <ele>8.7</ele>
        <time>2020-06-03T15:49:40Z</time>
      </trkpt>
      <trkpt lat="46.6334" lon="-1.88705">
        <ele>8.8</ele>
        <time>2020-06-03T15:49:41Z</time>
      </trkpt>
      <trkpt lat="46.63344" lon="-1.88708">
        <ele>8.8</ele>
        <time>2020-06-03T15:49:42Z</time>
      </trkpt>
      <trkpt lat="46.63349" lon="-1.88712">
        <ele>8.9</ele>
        <time>2020-06-03T15:49:43Z</time>
      </trkpt>
      <trkpt lat="46.63354" lon="-1.88716">
        <ele>8.9</ele>
        <time>2020-06-03T15:49:44Z</time>
      </trkpt>
      <trkpt lat="46.63358" lon="-1.8872">
        <ele>9</ele>
        <time>2020-06-03T15:49:45Z</time>
      </trkpt>
      <trkpt lat="46.63363" lon="-1.88723">
        <ele>9.1</ele>
        <time>2020-06-03T15:49:46Z</time>
      </trkpt>
      <trkpt lat="46.63368" lon="-1.88727">
        <ele>9.1</ele>
        <time>2020-06-03T15:49:47Z</time>
      </trkpt>
      <trkpt lat="46.63372" lon="-1.88731">
        <ele>9.2</ele>
        <time>2020-06-03T15:49:48Z</time>
      </trkpt>
      <trkpt lat="46.63376" lon="-1.88734">
        <ele>9.2</ele>
        <time>2020-06-03T15:49:49Z</time>
      </trkpt>
      <trkpt lat="46.6338" lon="-1.88737">
        <ele>9.3</ele>
        <time>2020-06-03T15:49:50Z</time>
      </trkpt>
      <trkpt lat="46.63385" lon="-1.8874">
        <ele>9.3</ele>
        <time>2020-06-03T15:49:51Z</time>
      </trkpt>
      <trkpt lat="46.63389" lon="-1.88744">
        <ele>9.4</ele>
        <time>2020-06-03T15:49:52Z</time>
      </trkpt>
      <trkpt lat="46.63394" lon="-1.88748">
        <ele>9.4</ele>
        <time>2020-06-03T15:49:53Z</time>
      </trkpt>
      <trkpt lat="46.63398" lon="-1.88751">
        <ele>9.4</ele>
        <time>2020-06-03T15:49:54Z</time>
      </trkpt>
      <trkpt lat="46.63402" lon="-1.88755">
        <ele>9.5</ele>
        <time>2020-06-03T15:49:55Z</time>
      </trkpt>
      <trkpt lat="46.63405" lon="-1.88761">
        <ele>9.5</ele>
        <time>2020-06-03T15:49:56Z</time>
      </trkpt>
      <trkpt lat="46.63409" lon="-1.88766">
        <ele>9.5</ele>
        <time>2020-06-03T15:49:57Z</time>
      </trkpt>
      <trkpt lat="46.63412" lon="-1.88771">
        <ele>9.5</ele>
        <time>2020-06-03T15:49:58Z</time>
      </trkpt>
      <trkpt lat="46.63415" lon="-1.88777">
        <ele>9.5</ele>
        <time>2020-06-03T15:49:59Z</time>
      </trkpt>
      <trkpt lat="46.63418" lon="-1.88782">
        <ele>9.5</ele>
        <time>2020-06-03T15:50:00Z</time>
      </trkpt>
      <trkpt lat="46.6342" lon="-1.88788">
        <ele>9.6</ele>
        <time>2020-06-03T15:50:01Z</time>
      </trkpt>
      <trkpt lat="46.63424" lon="-1.88794">
        <ele>9.6</ele>
        <time>2020-06-03T15:50:02Z</time>
      </trkpt>
      <trkpt lat="46.63426" lon="-1.88799">
        <ele>9.6</ele>
        <time>2020-06-03T15:50:03Z</time>
      </trkpt>
      <trkpt lat="46.63429" lon="-1.88804">
        <ele>9.6</ele>
        <time>2020-06-03T15:50:04Z</time>
      </trkpt>
      <trkpt lat="46.63432" lon="-1.8881">
        <ele>9.6</ele>
        <time>2020-06-03T15:50:05Z</time>
      </trkpt>
      <trkpt lat="46.63435" lon="-1.88816">
        <ele>9.6</ele>
        <time>2020-06-03T15:50:06Z</time>
      </trkpt>
      <trkpt lat="46.63438" lon="-1.88823">
        <ele>9.6</ele>
        <time>2020-06-03T15:50:07Z</time>
      </trkpt>
      <trkpt lat="46.63441" lon="-1.88829">
        <ele>9.6</ele>
        <time>2020-06-03T15:50:08Z</time>
      </trkpt>
      <trkpt lat="46.63443" lon="-1.88836">
        <ele>9.5</ele>
        <time>2020-06-03T15:50:09Z</time>
      </trkpt>
      <trkpt lat="46.63445" lon="-1.88842">
        <ele>9.5</ele>
        <time>2020-06-03T15:50:10Z</time>
      </trkpt>
      <trkpt lat="46.63448" lon="-1.88848">
        <ele>9.4</ele>
        <time>2020-06-03T15:50:11Z</time>
      </trkpt>
      <trkpt lat="46.6345" lon="-1.88854">
        <ele>9.4</ele>
        <time>2020-06-03T15:50:12Z</time>
      </trkpt>
      <trkpt lat="46.63452" lon="-1.8886">
        <ele>9.3</ele>
        <time>2020-06-03T15:50:13Z</time>
      </trkpt>
      <trkpt lat="46.63455" lon="-1.88866">
        <ele>9.3</ele>
        <time>2020-06-03T15:50:14Z</time>
      </trkpt>
      <trkpt lat="46.63456" lon="-1.88872">
        <ele>9.2</ele>
        <time>2020-06-03T15:50:15Z</time>
      </trkpt>
      <trkpt lat="46.63457" lon="-1.88878">
        <ele>9.2</ele>
        <time>2020-06-03T15:50:16Z</time>
      </trkpt>
      <trkpt lat="46.63458" lon="-1.88885">
        <ele>9.1</ele>
        <time>2020-06-03T15:50:17Z</time>
      </trkpt>
      <trkpt lat="46.6346" lon="-1.88891">
        <ele>9.1</ele>
        <time>2020-06-03T15:50:18Z</time>
      </trkpt>
      <trkpt lat="46.63462" lon="-1.88898">
        <ele>9.1</ele>
        <time>2020-06-03T15:50:19Z</time>
      </trkpt>
      <trkpt lat="46.63465" lon="-1.88903">
        <ele>9</ele>
        <time>2020-06-03T15:50:20Z</time>
      </trkpt>
      <trkpt lat="46.63467" lon="-1.88909">
        <ele>9</ele>
        <time>2020-06-03T15:50:21Z</time>
      </trkpt>
      <trkpt lat="46.6347" lon="-1.88914">
        <ele>8.9</ele>
        <time>2020-06-03T15:50:22Z</time>
      </trkpt>
      <trkpt lat="46.63472" lon="-1.8892">
        <ele>8.9</ele>
        <time>2020-06-03T15:50:23Z</time>
      </trkpt>
      <trkpt lat="46.63474" lon="-1.88924">
        <ele>8.9</ele>
        <time>2020-06-03T15:50:24Z</time>
      </trkpt>
      <trkpt lat="46.63476" lon="-1.88928">
        <ele>8.8</ele>
        <time>2020-06-03T15:50:25Z</time>
      </trkpt>
      <trkpt lat="46.63479" lon="-1.88932">
        <ele>8.8</ele>
        <time>2020-06-03T15:50:26Z</time>
      </trkpt>
      <trkpt lat="46.6348" lon="-1.88935">
        <ele>8.8</ele>
        <time>2020-06-03T15:50:27Z</time>
      </trkpt>
      <trkpt lat="46.63482" lon="-1.8894">
        <ele>8.8</ele>
        <time>2020-06-03T15:50:28Z</time>
      </trkpt>
      <trkpt lat="46.63484" lon="-1.88944">
        <ele>8.8</ele>
        <time>2020-06-03T15:50:29Z</time>
      </trkpt>
      <trkpt lat="46.63487" lon="-1.88949">
        <ele>8.8</ele>
        <time>2020-06-03T15:50:30Z</time>
      </trkpt>
      <trkpt lat="46.63489" lon="-1.88954">
        <ele>8.9</ele>
        <time>2020-06-03T15:50:31Z</time>
      </trkpt>
      <trkpt lat="46.6349" lon="-1.88958">
        <ele>8.9</ele>
        <time>2020-06-03T15:50:32Z</time>
      </trkpt>
      <trkpt lat="46.63492" lon="-1.88963">
        <ele>8.9</ele>
        <time>2020-06-03T15:50:33Z</time>
      </trkpt>
      <trkpt lat="46.63493" lon="-1.88967">
        <ele>8.9</ele>
        <time>2020-06-03T15:50:34Z</time>
      </trkpt>
      <trkpt lat="46.63495" lon="-1.88972">
        <ele>9</ele>
        <time>2020-06-03T15:50:35Z</time>
      </trkpt>
      <trkpt lat="46.63497" lon="-1.88977">
        <ele>9</ele>
        <time>2020-06-03T15:50:36Z</time>
      </trkpt>
      <trkpt lat="46.63499" lon="-1.88982">
        <ele>9</ele>
        <time>2020-06-03T15:50:37Z</time>
      </trkpt>
      <trkpt lat="46.63502" lon="-1.88988">
        <ele>9.1</ele>
        <time>2020-06-03T15:50:38Z</time>
      </trkpt>
      <trkpt lat="46.63503" lon="-1.88993">
        <ele>9.1</ele>
        <time>2020-06-03T15:50:39Z</time>
      </trkpt>
      <trkpt lat="46.63505" lon="-1.88999">
        <ele>9</ele>
        <time>2020-06-03T15:50:40Z</time>
      </trkpt>
      <trkpt lat="46.63508" lon="-1.89005">
        <ele>9</ele>
        <time>2020-06-03T15:50:41Z</time>
      </trkpt>
      <trkpt lat="46.6351" lon="-1.89012">
        <ele>9</ele>
        <time>2020-06-03T15:50:42Z</time>
      </trkpt>
      <trkpt lat="46.63512" lon="-1.89018">
        <ele>9</ele>
        <time>2020-06-03T15:50:43Z</time>
      </trkpt>
      <trkpt lat="46.63514" lon="-1.89024">
        <ele>8.9</ele>
        <time>2020-06-03T15:50:44Z</time>
      </trkpt>
      <trkpt lat="46.63517" lon="-1.89031">
        <ele>8.9</ele>
        <time>2020-06-03T15:50:45Z</time>
      </trkpt>
      <trkpt lat="46.6352" lon="-1.89037">
        <ele>8.9</ele>
        <time>2020-06-03T15:50:46Z</time>
      </trkpt>
      <trkpt lat="46.63524" lon="-1.89043">
        <ele>8.9</ele>
        <time>2020-06-03T15:50:47Z</time>
      </trkpt>
      <trkpt lat="46.63527" lon="-1.89049">
        <ele>8.8</ele>
        <time>2020-06-03T15:50:48Z</time>
      </trkpt>
      <trkpt lat="46.63531" lon="-1.89055">
        <ele>8.8</ele>
        <time>2020-06-03T15:50:49Z</time>
      </trkpt>
      <trkpt lat="46.63535" lon="-1.89061">
        <ele>8.8</ele>
        <time>2020-06-03T15:50:50Z</time>
      </trkpt>
      <trkpt lat="46.6354" lon="-1.89067">
        <ele>8.8</ele>
        <time>2020-06-03T15:50:51Z</time>
      </trkpt>
      <trkpt lat="46.63544" lon="-1.89072">
        <ele>8.8</ele>
        <time>2020-06-03T15:50:52Z</time>
      </trkpt>
      <trkpt lat="46.63548" lon="-1.89077">
        <ele>8.8</ele>
        <time>2020-06-03T15:50:53Z</time>
      </trkpt>
      <trkpt lat="46.63552" lon="-1.89081">
        <ele>8.8</ele>
        <time>2020-06-03T15:50:54Z</time>
      </trkpt>
      <trkpt lat="46.63557" lon="-1.89085">
        <ele>8.9</ele>
        <time>2020-06-03T15:50:55Z</time>
      </trkpt>
      <trkpt lat="46.63561" lon="-1.89089">
        <ele>8.9</ele>
        <time>2020-06-03T15:50:56Z</time>
      </trkpt>
      <trkpt lat="46.63566" lon="-1.89092">
        <ele>9</ele>
        <time>2020-06-03T15:50:57Z</time>
      </trkpt>
      <trkpt lat="46.63571" lon="-1.89097">
        <ele>9</ele>
        <time>2020-06-03T15:50:58Z</time>
      </trkpt>
      <trkpt lat="46.63575" lon="-1.89101">
        <ele>9.1</ele>
        <time>2020-06-03T15:50:59Z</time>
      </trkpt>
      <trkpt lat="46.63579" lon="-1.89105">
        <ele>9.2</ele>
        <time>2020-06-03T15:51:00Z</time>
      </trkpt>
      <trkpt lat="46.63583" lon="-1.89109">
        <ele>9.2</ele>
        <time>2020-06-03T15:51:01Z</time>
      </trkpt>
      <trkpt lat="46.63586" lon="-1.89113">
        <ele>9.3</ele>
        <time>2020-06-03T15:51:02Z</time>
      </trkpt>
      <trkpt lat="46.63589" lon="-1.89115">
        <ele>9.3</ele>
        <time>2020-06-03T15:51:03Z</time>
      </trkpt>
      <trkpt lat="46.63592" lon="-1.89118">
        <ele>9.3</ele>
        <time>2020-06-03T15:51:04Z</time>
      </trkpt>
      <trkpt lat="46.63594" lon="-1.8912">
        <ele>9.3</ele>
        <time>2020-06-03T15:51:05Z</time>
      </trkpt>
      <trkpt lat="46.63597" lon="-1.89123">
        <ele>9.4</ele>
        <time>2020-06-03T15:51:06Z</time>
      </trkpt>
      <trkpt lat="46.63598" lon="-1.89124">
        <ele>9.4</ele>
        <time>2020-06-03T15:51:07Z</time>
      </trkpt>
      <trkpt lat="46.63599" lon="-1.89126">
        <ele>9.4</ele>
        <time>2020-06-03T15:51:08Z</time>
      </trkpt>
      <trkpt lat="46.63598" lon="-1.89128">
        <ele>9.4</ele>
        <time>2020-06-03T15:51:09Z</time>
      </trkpt>
      <trkpt lat="46.63599" lon="-1.89128">
        <ele>9.4</ele>
        <time>2020-06-03T15:51:10Z</time>
      </trkpt>
      <trkpt lat="46.63598" lon="-1.8913">
        <ele>9.4</ele>
        <time>2020-06-03T15:51:11Z</time>
      </trkpt>
      <trkpt lat="46.63598" lon="-1.89131">
        <ele>9.4</ele>
        <time>2020-06-03T15:51:12Z</time>
      </trkpt>
      <trkpt lat="46.63598" lon="-1.8913">
        <ele>9.4</ele>
        <time>2020-06-03T15:51:13Z</time>
      </trkpt>
      <trkpt lat="46.63598" lon="-1.89131">
        <ele>9.4</ele>
        <time>2020-06-03T15:51:14Z</time>
      </trkpt>
      <trkpt lat="46.63597" lon="-1.89131">
        <ele>9.4</ele>
        <time>2020-06-03T15:51:15Z</time>
      </trkpt>
      <trkpt lat="46.63597" lon="-1.89131">
        <ele>9.4</ele>
        <time>2020-06-03T15:51:16Z</time>
      </trkpt>
      <trkpt lat="46.63597" lon="-1.89131">
        <ele>9.4</ele>
        <time>2020-06-03T15:51:17Z</time>
      </trkpt>
      <trkpt lat="46.63597" lon="-1.89131">
        <ele>9.4</ele>
        <time>2020-06-03T15:51:18Z</time>
      </trkpt>
      <trkpt lat="46.63598" lon="-1.89131">
        <ele>9.4</ele>
        <time>2020-06-03T15:51:19Z</time>
      </trkpt>
      <trkpt lat="46.63598" lon="-1.89131">
        <ele>9.4</ele>
        <time>2020-06-03T15:51:20Z</time>
      </trkpt>
      <trkpt lat="46.63598" lon="-1.89131">
        <ele>9.4</ele>
        <time>2020-06-03T15:51:21Z</time>
      </trkpt>
      <trkpt lat="46.63599" lon="-1.89131">
        <ele>9.4</ele>
        <time>2020-06-03T15:51:22Z</time>
      </trkpt>
      <trkpt lat="46.63599" lon="-1.89131">
        <ele>9.4</ele>
        <time>2020-06-03T15:51:23Z</time>
      </trkpt>
      <trkpt lat="46.636" lon="-1.89131">
        <ele>9.4</ele>
        <time>2020-06-03T15:51:24Z</time>
      </trkpt>
      <trkpt lat="46.636" lon="-1.89131">
        <ele>9.4</ele>
        <time>2020-06-03T15:51:25Z</time>
      </trkpt>
      <trkpt lat="46.636" lon="-1.89131">
        <ele>9.4</ele>
        <time>2020-06-03T15:51:26Z</time>
      </trkpt>
      <trkpt lat="46.63601" lon="-1.89131">
        <ele>9.4</ele>
        <time>2020-06-03T15:51:27Z</time>
      </trkpt>
      <trkpt lat="46.63601" lon="-1.89131">
        <ele>9.4</ele>
        <time>2020-06-03T15:51:28Z</time>
      </trkpt>
      <trkpt lat="46.63602" lon="-1.89131">
        <ele>9.4</ele>
        <time>2020-06-03T15:51:29Z</time>
      </trkpt>
      <trkpt lat="46.63602" lon="-1.89132">
        <ele>9.4</ele>
        <time>2020-06-03T15:51:30Z</time>
      </trkpt>
      <trkpt lat="46.63602" lon="-1.89132">
        <ele>9.4</ele>
        <time>2020-06-03T15:51:31Z</time>
      </trkpt>
      <trkpt lat="46.63603" lon="-1.89132">
        <ele>9.4</ele>
        <time>2020-06-03T15:51:32Z</time>
      </trkpt>
      <trkpt lat="46.63603" lon="-1.89132">
        <ele>9.4</ele>
        <time>2020-06-03T15:52:56Z</time>
      </trkpt>
      <trkpt lat="46.63604" lon="-1.89132">
        <ele>9.4</ele>
        <time>2020-06-03T15:52:57Z</time>
      </trkpt>
      <trkpt lat="46.63605" lon="-1.89133">
        <ele>9.4</ele>
        <time>2020-06-03T15:52:58Z</time>
      </trkpt>
      <trkpt lat="46.63606" lon="-1.89134">
        <ele>9.4</ele>
        <time>2020-06-03T15:52:59Z</time>
      </trkpt>
      <trkpt lat="46.63609" lon="-1.89135">
        <ele>9.4</ele>
        <time>2020-06-03T15:53:00Z</time>
      </trkpt>
      <trkpt lat="46.6361" lon="-1.89136">
        <ele>9.4</ele>
        <time>2020-06-03T15:53:01Z</time>
      </trkpt>
      <trkpt lat="46.63614" lon="-1.89137">
        <ele>9.4</ele>
        <time>2020-06-03T15:53:02Z</time>
      </trkpt>
      <trkpt lat="46.63616" lon="-1.89139">
        <ele>9.4</ele>
        <time>2020-06-03T15:53:03Z</time>
      </trkpt>
      <trkpt lat="46.6362" lon="-1.8914">
        <ele>9.4</ele>
        <time>2020-06-03T15:53:04Z</time>
      </trkpt>
      <trkpt lat="46.63623" lon="-1.89141">
        <ele>9.4</ele>
        <time>2020-06-03T15:53:05Z</time>
      </trkpt>
      <trkpt lat="46.63625" lon="-1.89142">
        <ele>9.4</ele>
        <time>2020-06-03T15:53:06Z</time>
      </trkpt>
      <trkpt lat="46.63629" lon="-1.89144">
        <ele>9.4</ele>
        <time>2020-06-03T15:53:07Z</time>
      </trkpt>
      <trkpt lat="46.63632" lon="-1.89146">
        <ele>9.3</ele>
        <time>2020-06-03T15:53:08Z</time>
      </trkpt>
      <trkpt lat="46.63634" lon="-1.89147">
        <ele>9.3</ele>
        <time>2020-06-03T15:53:09Z</time>
      </trkpt>
      <trkpt lat="46.63638" lon="-1.89149">
        <ele>9.3</ele>
        <time>2020-06-03T15:53:10Z</time>
      </trkpt>
      <trkpt lat="46.6364" lon="-1.89151">
        <ele>9.2</ele>
        <time>2020-06-03T15:53:11Z</time>
      </trkpt>
      <trkpt lat="46.63644" lon="-1.89152">
        <ele>9.2</ele>
        <time>2020-06-03T15:53:12Z</time>
      </trkpt>
      <trkpt lat="46.63645" lon="-1.89153">
        <ele>9.2</ele>
        <time>2020-06-03T15:53:13Z</time>
      </trkpt>
      <trkpt lat="46.63648" lon="-1.89155">
        <ele>9.1</ele>
        <time>2020-06-03T15:53:14Z</time>
      </trkpt>
      <trkpt lat="46.63651" lon="-1.89157">
        <ele>9.1</ele>
        <time>2020-06-03T15:53:15Z</time>
      </trkpt>
      <trkpt lat="46.63655" lon="-1.89159">
        <ele>9</ele>
        <time>2020-06-03T15:53:16Z</time>
      </trkpt>
      <trkpt lat="46.63657" lon="-1.8916">
        <ele>9</ele>
        <time>2020-06-03T15:53:17Z</time>
      </trkpt>
      <trkpt lat="46.63661" lon="-1.8916">
        <ele>8.9</ele>
        <time>2020-06-03T15:53:18Z</time>
      </trkpt>
      <trkpt lat="46.63664" lon="-1.89161">
        <ele>8.8</ele>
        <time>2020-06-03T15:53:19Z</time>
      </trkpt>
      <trkpt lat="46.63667" lon="-1.89162">
        <ele>8.8</ele>
        <time>2020-06-03T15:53:20Z</time>
      </trkpt>
      <trkpt lat="46.63671" lon="-1.89164">
        <ele>8.7</ele>
        <time>2020-06-03T15:53:21Z</time>
      </trkpt>
      <trkpt lat="46.63675" lon="-1.89166">
        <ele>8.6</ele>
        <time>2020-06-03T15:53:22Z</time>
      </trkpt>
      <trkpt lat="46.63679" lon="-1.89169">
        <ele>8.5</ele>
        <time>2020-06-03T15:53:23Z</time>
      </trkpt>
      <trkpt lat="46.63682" lon="-1.89171">
        <ele>8.5</ele>
        <time>2020-06-03T15:53:24Z</time>
      </trkpt>
      <trkpt lat="46.63686" lon="-1.89173">
        <ele>8.4</ele>
        <time>2020-06-03T15:53:25Z</time>
      </trkpt>
      <trkpt lat="46.63689" lon="-1.89176">
        <ele>8.3</ele>
        <time>2020-06-03T15:53:26Z</time>
      </trkpt>
      <trkpt lat="46.63693" lon="-1.89177">
        <ele>8.3</ele>
        <time>2020-06-03T15:53:27Z</time>
      </trkpt>
      <trkpt lat="46.63697" lon="-1.89181">
        <ele>8.2</ele>
        <time>2020-06-03T15:53:28Z</time>
      </trkpt>
      <trkpt lat="46.63701" lon="-1.89183">
        <ele>8.2</ele>
        <time>2020-06-03T15:53:29Z</time>
      </trkpt>
      <trkpt lat="46.63704" lon="-1.89186">
        <ele>8.1</ele>
        <time>2020-06-03T15:53:30Z</time>
      </trkpt>
      <trkpt lat="46.63708" lon="-1.89188">
        <ele>8.1</ele>
        <time>2020-06-03T15:53:31Z</time>
      </trkpt>
      <trkpt lat="46.63711" lon="-1.89189">
        <ele>8</ele>
        <time>2020-06-03T15:53:32Z</time>
      </trkpt>
      <trkpt lat="46.63714" lon="-1.89191">
        <ele>8</ele>
        <time>2020-06-03T15:53:33Z</time>
      </trkpt>
      <trkpt lat="46.63718" lon="-1.89195">
        <ele>7.9</ele>
        <time>2020-06-03T15:53:34Z</time>
      </trkpt>
      <trkpt lat="46.63722" lon="-1.89198">
        <ele>7.9</ele>
        <time>2020-06-03T15:53:35Z</time>
      </trkpt>
      <trkpt lat="46.63726" lon="-1.89201">
        <ele>7.8</ele>
        <time>2020-06-03T15:53:36Z</time>
      </trkpt>
      <trkpt lat="46.63731" lon="-1.89204">
        <ele>7.8</ele>
        <time>2020-06-03T15:53:37Z</time>
      </trkpt>
      <trkpt lat="46.63734" lon="-1.89206">
        <ele>7.7</ele>
        <time>2020-06-03T15:53:38Z</time>
      </trkpt>
      <trkpt lat="46.63739" lon="-1.89208">
        <ele>7.7</ele>
        <time>2020-06-03T15:53:39Z</time>
      </trkpt>
      <trkpt lat="46.63744" lon="-1.89212">
        <ele>7.7</ele>
        <time>2020-06-03T15:53:40Z</time>
      </trkpt>
      <trkpt lat="46.63748" lon="-1.89215">
        <ele>7.7</ele>
        <time>2020-06-03T15:53:41Z</time>
      </trkpt>
      <trkpt lat="46.63753" lon="-1.89218">
        <ele>7.7</ele>
        <time>2020-06-03T15:53:42Z</time>
      </trkpt>
      <trkpt lat="46.63758" lon="-1.89222">
        <ele>7.6</ele>
        <time>2020-06-03T15:53:43Z</time>
      </trkpt>
      <trkpt lat="46.63762" lon="-1.89224">
        <ele>7.6</ele>
        <time>2020-06-03T15:53:44Z</time>
      </trkpt>
      <trkpt lat="46.63767" lon="-1.89228">
        <ele>7.6</ele>
        <time>2020-06-03T15:53:45Z</time>
      </trkpt>
      <trkpt lat="46.63771" lon="-1.89231">
        <ele>7.6</ele>
        <time>2020-06-03T15:53:46Z</time>
      </trkpt>
      <trkpt lat="46.63775" lon="-1.89234">
        <ele>7.6</ele>
        <time>2020-06-03T15:53:47Z</time>
      </trkpt>
      <trkpt lat="46.63779" lon="-1.89237">
        <ele>7.6</ele>
        <time>2020-06-03T15:53:48Z</time>
      </trkpt>
      <trkpt lat="46.63784" lon="-1.8924">
        <ele>7.7</ele>
        <time>2020-06-03T15:53:49Z</time>
      </trkpt>
      <trkpt lat="46.63788" lon="-1.89244">
        <ele>7.7</ele>
        <time>2020-06-03T15:53:50Z</time>
      </trkpt>
      <trkpt lat="46.63792" lon="-1.89248">
        <ele>7.7</ele>
        <time>2020-06-03T15:53:51Z</time>
      </trkpt>
      <trkpt lat="46.63795" lon="-1.89254">
        <ele>7.8</ele>
        <time>2020-06-03T15:53:52Z</time>
      </trkpt>
      <trkpt lat="46.63798" lon="-1.89259">
        <ele>7.8</ele>
        <time>2020-06-03T15:53:53Z</time>
      </trkpt>
      <trkpt lat="46.638" lon="-1.89265">
        <ele>7.9</ele>
        <time>2020-06-03T15:53:54Z</time>
      </trkpt>
      <trkpt lat="46.63802" lon="-1.89273">
        <ele>7.9</ele>
        <time>2020-06-03T15:53:55Z</time>
      </trkpt>
      <trkpt lat="46.63804" lon="-1.89278">
        <ele>8</ele>
        <time>2020-06-03T15:53:56Z</time>
      </trkpt>
      <trkpt lat="46.63808" lon="-1.89283">
        <ele>8</ele>
        <time>2020-06-03T15:53:57Z</time>
      </trkpt>
      <trkpt lat="46.63812" lon="-1.89289">
        <ele>8</ele>
        <time>2020-06-03T15:53:58Z</time>
      </trkpt>
      <trkpt lat="46.63814" lon="-1.89296">
        <ele>8.1</ele>
        <time>2020-06-03T15:53:59Z</time>
      </trkpt>
      <trkpt lat="46.63817" lon="-1.89302">
        <ele>8.1</ele>
        <time>2020-06-03T15:54:00Z</time>
      </trkpt>
      <trkpt lat="46.6382" lon="-1.89307">
        <ele>8.1</ele>
        <time>2020-06-03T15:54:01Z</time>
      </trkpt>
      <trkpt lat="46.63823" lon="-1.89312">
        <ele>8.1</ele>
        <time>2020-06-03T15:54:02Z</time>
      </trkpt>
      <trkpt lat="46.63826" lon="-1.89316">
        <ele>8.1</ele>
        <time>2020-06-03T15:54:03Z</time>
      </trkpt>
      <trkpt lat="46.6383" lon="-1.89321">
        <ele>8.2</ele>
        <time>2020-06-03T15:54:04Z</time>
      </trkpt>
      <trkpt lat="46.63833" lon="-1.89325">
        <ele>8.2</ele>
        <time>2020-06-03T15:54:05Z</time>
      </trkpt>
      <trkpt lat="46.63836" lon="-1.89329">
        <ele>8.2</ele>
        <time>2020-06-03T15:54:06Z</time>
      </trkpt>
      <trkpt lat="46.63839" lon="-1.89334">
        <ele>8.2</ele>
        <time>2020-06-03T15:54:07Z</time>
      </trkpt>
      <trkpt lat="46.63842" lon="-1.8934">
        <ele>8.2</ele>
        <time>2020-06-03T15:54:08Z</time>
      </trkpt>
      <trkpt lat="46.63845" lon="-1.89345">
        <ele>8.2</ele>
        <time>2020-06-03T15:54:09Z</time>
      </trkpt>
      <trkpt lat="46.63849" lon="-1.89351">
        <ele>8.1</ele>
        <time>2020-06-03T15:54:10Z</time>
      </trkpt>
      <trkpt lat="46.63852" lon="-1.89356">
        <ele>8.1</ele>
        <time>2020-06-03T15:54:11Z</time>
      </trkpt>
      <trkpt lat="46.63856" lon="-1.89362">
        <ele>8.1</ele>
        <time>2020-06-03T15:54:12Z</time>
      </trkpt>
      <trkpt lat="46.63859" lon="-1.89367">
        <ele>8</ele>
        <time>2020-06-03T15:54:13Z</time>
      </trkpt>
      <trkpt lat="46.63863" lon="-1.89373">
        <ele>8</ele>
        <time>2020-06-03T15:54:14Z</time>
      </trkpt>
      <trkpt lat="46.63866" lon="-1.89377">
        <ele>8</ele>
        <time>2020-06-03T15:54:15Z</time>
      </trkpt>
      <trkpt lat="46.6387" lon="-1.89381">
        <ele>7.9</ele>
        <time>2020-06-03T15:54:16Z</time>
      </trkpt>
      <trkpt lat="46.63874" lon="-1.89386">
        <ele>7.9</ele>
        <time>2020-06-03T15:54:17Z</time>
      </trkpt>
      <trkpt lat="46.63877" lon="-1.89391">
        <ele>7.9</ele>
        <time>2020-06-03T15:54:18Z</time>
      </trkpt>
      <trkpt lat="46.63881" lon="-1.89396">
        <ele>7.8</ele>
        <time>2020-06-03T15:54:19Z</time>
      </trkpt>
      <trkpt lat="46.63884" lon="-1.89402">
        <ele>7.8</ele>
        <time>2020-06-03T15:54:20Z</time>
      </trkpt>
      <trkpt lat="46.63888" lon="-1.89407">
        <ele>7.8</ele>
        <time>2020-06-03T15:54:21Z</time>
      </trkpt>
      <trkpt lat="46.63892" lon="-1.89412">
        <ele>7.7</ele>
        <time>2020-06-03T15:54:22Z</time>
      </trkpt>
      <trkpt lat="46.63895" lon="-1.89416">
        <ele>7.7</ele>
        <time>2020-06-03T15:54:23Z</time>
      </trkpt>
      <trkpt lat="46.63899" lon="-1.8942">
        <ele>7.6</ele>
        <time>2020-06-03T15:54:24Z</time>
      </trkpt>
      <trkpt lat="46.63902" lon="-1.89424">
        <ele>7.5</ele>
        <time>2020-06-03T15:54:25Z</time>
      </trkpt>
      <trkpt lat="46.63906" lon="-1.89428">
        <ele>7.4</ele>
        <time>2020-06-03T15:54:26Z</time>
      </trkpt>
      <trkpt lat="46.63909" lon="-1.8943">
        <ele>7.3</ele>
        <time>2020-06-03T15:54:27Z</time>
      </trkpt>
      <trkpt lat="46.63913" lon="-1.89433">
        <ele>7.3</ele>
        <time>2020-06-03T15:54:28Z</time>
      </trkpt>
      <trkpt lat="46.63917" lon="-1.89435">
        <ele>7.2</ele>
        <time>2020-06-03T15:54:29Z</time>
      </trkpt>
      <trkpt lat="46.63922" lon="-1.89438">
        <ele>7.1</ele>
        <time>2020-06-03T15:54:30Z</time>
      </trkpt>
      <trkpt lat="46.63926" lon="-1.89441">
        <ele>7</ele>
        <time>2020-06-03T15:54:31Z</time>
      </trkpt>
      <trkpt lat="46.6393" lon="-1.89442">
        <ele>6.9</ele>
        <time>2020-06-03T15:54:32Z</time>
      </trkpt>
      <trkpt lat="46.63934" lon="-1.89443">
        <ele>6.9</ele>
        <time>2020-06-03T15:54:33Z</time>
      </trkpt>
      <trkpt lat="46.63938" lon="-1.89443">
        <ele>6.9</ele>
        <time>2020-06-03T15:54:34Z</time>
      </trkpt>
      <trkpt lat="46.63943" lon="-1.89443">
        <ele>6.9</ele>
        <time>2020-06-03T15:54:35Z</time>
      </trkpt>
      <trkpt lat="46.63947" lon="-1.89444">
        <ele>7</ele>
        <time>2020-06-03T15:54:36Z</time>
      </trkpt>
      <trkpt lat="46.63951" lon="-1.89446">
        <ele>7</ele>
        <time>2020-06-03T15:54:37Z</time>
      </trkpt>
      <trkpt lat="46.63955" lon="-1.89447">
        <ele>7</ele>
        <time>2020-06-03T15:54:38Z</time>
      </trkpt>
      <trkpt lat="46.63957" lon="-1.89448">
        <ele>7</ele>
        <time>2020-06-03T15:54:39Z</time>
      </trkpt>
      <trkpt lat="46.63961" lon="-1.89446">
        <ele>7</ele>
        <time>2020-06-03T15:54:40Z</time>
      </trkpt>
      <trkpt lat="46.63962" lon="-1.89445">
        <ele>7</ele>
        <time>2020-06-03T15:54:41Z</time>
      </trkpt>
      <trkpt lat="46.63966" lon="-1.89444">
        <ele>7</ele>
        <time>2020-06-03T15:54:42Z</time>
      </trkpt>
      <trkpt lat="46.63968" lon="-1.89443">
        <ele>7</ele>
        <time>2020-06-03T15:54:43Z</time>
      </trkpt>
      <trkpt lat="46.63971" lon="-1.89443">
        <ele>7</ele>
        <time>2020-06-03T15:54:44Z</time>
      </trkpt>
      <trkpt lat="46.63975" lon="-1.89441">
        <ele>7</ele>
        <time>2020-06-03T15:54:45Z</time>
      </trkpt>
      <trkpt lat="46.63979" lon="-1.8944">
        <ele>7</ele>
        <time>2020-06-03T15:54:46Z</time>
      </trkpt>
      <trkpt lat="46.63983" lon="-1.8944">
        <ele>7</ele>
        <time>2020-06-03T15:54:47Z</time>
      </trkpt>
      <trkpt lat="46.63988" lon="-1.89439">
        <ele>7.1</ele>
        <time>2020-06-03T15:54:48Z</time>
      </trkpt>
      <trkpt lat="46.63993" lon="-1.89439">
        <ele>7.2</ele>
        <time>2020-06-03T15:54:49Z</time>
      </trkpt>
      <trkpt lat="46.63996" lon="-1.89439">
        <ele>7.3</ele>
        <time>2020-06-03T15:54:50Z</time>
      </trkpt>
      <trkpt lat="46.64" lon="-1.89439">
        <ele>7.4</ele>
        <time>2020-06-03T15:54:51Z</time>
      </trkpt>
      <trkpt lat="46.64003" lon="-1.89437">
        <ele>7.6</ele>
        <time>2020-06-03T15:54:52Z</time>
      </trkpt>
      <trkpt lat="46.64005" lon="-1.89436">
        <ele>7.6</ele>
        <time>2020-06-03T15:54:53Z</time>
      </trkpt>
      <trkpt lat="46.64008" lon="-1.89434">
        <ele>7.8</ele>
        <time>2020-06-03T15:54:54Z</time>
      </trkpt>
      <trkpt lat="46.64012" lon="-1.89431">
        <ele>8</ele>
        <time>2020-06-03T15:54:55Z</time>
      </trkpt>
      <trkpt lat="46.64015" lon="-1.8943">
        <ele>8.1</ele>
        <time>2020-06-03T15:54:56Z</time>
      </trkpt>
      <trkpt lat="46.6402" lon="-1.89428">
        <ele>8.3</ele>
        <time>2020-06-03T15:54:57Z</time>
      </trkpt>
      <trkpt lat="46.64025" lon="-1.89428">
        <ele>8.5</ele>
        <time>2020-06-03T15:54:58Z</time>
      </trkpt>
      <trkpt lat="46.64029" lon="-1.89427">
        <ele>8.7</ele>
        <time>2020-06-03T15:54:59Z</time>
      </trkpt>
      <trkpt lat="46.64034" lon="-1.89426">
        <ele>8.9</ele>
        <time>2020-06-03T15:55:00Z</time>
      </trkpt>
      <trkpt lat="46.6404" lon="-1.89426">
        <ele>9.1</ele>
        <time>2020-06-03T15:55:01Z</time>
      </trkpt>
      <trkpt lat="46.64045" lon="-1.89425">
        <ele>9.3</ele>
        <time>2020-06-03T15:55:02Z</time>
      </trkpt>
      <trkpt lat="46.6405" lon="-1.89424">
        <ele>9.5</ele>
        <time>2020-06-03T15:55:03Z</time>
      </trkpt>
      <trkpt lat="46.64056" lon="-1.89423">
        <ele>9.7</ele>
        <time>2020-06-03T15:55:04Z</time>
      </trkpt>
      <trkpt lat="46.64062" lon="-1.89423">
        <ele>9.9</ele>
        <time>2020-06-03T15:55:05Z</time>
      </trkpt>
      <trkpt lat="46.64069" lon="-1.89423">
        <ele>10.1</ele>
        <time>2020-06-03T15:55:06Z</time>
      </trkpt>
      <trkpt lat="46.64075" lon="-1.89424">
        <ele>10.3</ele>
        <time>2020-06-03T15:55:07Z</time>
      </trkpt>
      <trkpt lat="46.64081" lon="-1.89424">
        <ele>10.5</ele>
        <time>2020-06-03T15:55:08Z</time>
      </trkpt>
      <trkpt lat="46.64088" lon="-1.89426">
        <ele>10.8</ele>
        <time>2020-06-03T15:55:09Z</time>
      </trkpt>
      <trkpt lat="46.64095" lon="-1.89428">
        <ele>11</ele>
        <time>2020-06-03T15:55:10Z</time>
      </trkpt>
      <trkpt lat="46.64101" lon="-1.89429">
        <ele>11.2</ele>
        <time>2020-06-03T15:55:11Z</time>
      </trkpt>
      <trkpt lat="46.64107" lon="-1.8943">
        <ele>11.3</ele>
        <time>2020-06-03T15:55:12Z</time>
      </trkpt>
      <trkpt lat="46.64112" lon="-1.89431">
        <ele>11.4</ele>
        <time>2020-06-03T15:55:13Z</time>
      </trkpt>
      <trkpt lat="46.64117" lon="-1.89432">
        <ele>11.5</ele>
        <time>2020-06-03T15:55:14Z</time>
      </trkpt>
      <trkpt lat="46.64122" lon="-1.89433">
        <ele>11.6</ele>
        <time>2020-06-03T15:55:15Z</time>
      </trkpt>
      <trkpt lat="46.64127" lon="-1.89434">
        <ele>11.6</ele>
        <time>2020-06-03T15:55:16Z</time>
      </trkpt>
      <trkpt lat="46.64132" lon="-1.89434">
        <ele>11.7</ele>
        <time>2020-06-03T15:55:17Z</time>
      </trkpt>
      <trkpt lat="46.64137" lon="-1.89436">
        <ele>11.8</ele>
        <time>2020-06-03T15:55:18Z</time>
      </trkpt>
      <trkpt lat="46.64142" lon="-1.89437">
        <ele>11.9</ele>
        <time>2020-06-03T15:55:19Z</time>
      </trkpt>
      <trkpt lat="46.64146" lon="-1.89439">
        <ele>12</ele>
        <time>2020-06-03T15:55:20Z</time>
      </trkpt>
      <trkpt lat="46.64151" lon="-1.89439">
        <ele>12.1</ele>
        <time>2020-06-03T15:55:21Z</time>
      </trkpt>
      <trkpt lat="46.64156" lon="-1.8944">
        <ele>12.1</ele>
        <time>2020-06-03T15:55:22Z</time>
      </trkpt>
      <trkpt lat="46.6416" lon="-1.89441">
        <ele>12.2</ele>
        <time>2020-06-03T15:55:23Z</time>
      </trkpt>
      <trkpt lat="46.64166" lon="-1.89444">
        <ele>12.3</ele>
        <time>2020-06-03T15:55:24Z</time>
      </trkpt>
      <trkpt lat="46.6417" lon="-1.89446">
        <ele>12.3</ele>
        <time>2020-06-03T15:55:25Z</time>
      </trkpt>
      <trkpt lat="46.64174" lon="-1.89447">
        <ele>12.4</ele>
        <time>2020-06-03T15:55:26Z</time>
      </trkpt>
      <trkpt lat="46.64178" lon="-1.89448">
        <ele>12.4</ele>
        <time>2020-06-03T15:55:27Z</time>
      </trkpt>
      <trkpt lat="46.64183" lon="-1.89448">
        <ele>12.5</ele>
        <time>2020-06-03T15:55:28Z</time>
      </trkpt>
      <trkpt lat="46.64187" lon="-1.89449">
        <ele>12.5</ele>
        <time>2020-06-03T15:55:29Z</time>
      </trkpt>
      <trkpt lat="46.64191" lon="-1.89451">
        <ele>12.6</ele>
        <time>2020-06-03T15:55:30Z</time>
      </trkpt>
      <trkpt lat="46.64196" lon="-1.89452">
        <ele>12.6</ele>
        <time>2020-06-03T15:55:31Z</time>
      </trkpt>
      <trkpt lat="46.64201" lon="-1.89454">
        <ele>12.7</ele>
        <time>2020-06-03T15:55:32Z</time>
      </trkpt>
      <trkpt lat="46.64204" lon="-1.89455">
        <ele>12.7</ele>
        <time>2020-06-03T15:55:33Z</time>
      </trkpt>
      <trkpt lat="46.6421" lon="-1.89456">
        <ele>12.7</ele>
        <time>2020-06-03T15:55:34Z</time>
      </trkpt>
      <trkpt lat="46.64215" lon="-1.89457">
        <ele>12.8</ele>
        <time>2020-06-03T15:55:35Z</time>
      </trkpt>
      <trkpt lat="46.6422" lon="-1.89459">
        <ele>12.9</ele>
        <time>2020-06-03T15:55:36Z</time>
      </trkpt>
      <trkpt lat="46.64226" lon="-1.89461">
        <ele>13</ele>
        <time>2020-06-03T15:55:37Z</time>
      </trkpt>
      <trkpt lat="46.64231" lon="-1.89463">
        <ele>13.2</ele>
        <time>2020-06-03T15:55:38Z</time>
      </trkpt>
      <trkpt lat="46.64236" lon="-1.89464">
        <ele>13.3</ele>
        <time>2020-06-03T15:55:39Z</time>
      </trkpt>
      <trkpt lat="46.6424" lon="-1.89466">
        <ele>13.4</ele>
        <time>2020-06-03T15:55:40Z</time>
      </trkpt>
      <trkpt lat="46.64244" lon="-1.89467">
        <ele>13.5</ele>
        <time>2020-06-03T15:55:41Z</time>
      </trkpt>
      <trkpt lat="46.64249" lon="-1.89468">
        <ele>13.7</ele>
        <time>2020-06-03T15:55:42Z</time>
      </trkpt>
      <trkpt lat="46.64253" lon="-1.89469">
        <ele>13.8</ele>
        <time>2020-06-03T15:55:43Z</time>
      </trkpt>
      <trkpt lat="46.64257" lon="-1.89471">
        <ele>13.9</ele>
        <time>2020-06-03T15:55:44Z</time>
      </trkpt>
      <trkpt lat="46.64261" lon="-1.89472">
        <ele>13.9</ele>
        <time>2020-06-03T15:55:45Z</time>
      </trkpt>
      <trkpt lat="46.64265" lon="-1.89474">
        <ele>14</ele>
        <time>2020-06-03T15:55:46Z</time>
      </trkpt>
      <trkpt lat="46.64268" lon="-1.89476">
        <ele>14</ele>
        <time>2020-06-03T15:55:47Z</time>
      </trkpt>
      <trkpt lat="46.64272" lon="-1.89477">
        <ele>14.2</ele>
        <time>2020-06-03T15:55:48Z</time>
      </trkpt>
      <trkpt lat="46.64274" lon="-1.89478">
        <ele>14.2</ele>
        <time>2020-06-03T15:55:49Z</time>
      </trkpt>
      <trkpt lat="46.64277" lon="-1.89478">
        <ele>14.2</ele>
        <time>2020-06-03T15:55:50Z</time>
      </trkpt>
      <trkpt lat="46.64278" lon="-1.89477">
        <ele>14.2</ele>
        <time>2020-06-03T15:55:51Z</time>
      </trkpt>
      <trkpt lat="46.6428" lon="-1.89472">
        <ele>14.3</ele>
        <time>2020-06-03T15:55:52Z</time>
      </trkpt>
      <trkpt lat="46.64281" lon="-1.89471">
        <ele>14.3</ele>
        <time>2020-06-03T15:55:53Z</time>
      </trkpt>
      <trkpt lat="46.64282" lon="-1.89467">
        <ele>14.4</ele>
        <time>2020-06-03T15:55:54Z</time>
      </trkpt>
      <trkpt lat="46.64282" lon="-1.89465">
        <ele>14.4</ele>
        <time>2020-06-03T15:55:55Z</time>
      </trkpt>
      <trkpt lat="46.64282" lon="-1.89463">
        <ele>14.4</ele>
        <time>2020-06-03T15:55:56Z</time>
      </trkpt>
      <trkpt lat="46.64282" lon="-1.8946">
        <ele>14.4</ele>
        <time>2020-06-03T15:55:57Z</time>
      </trkpt>
      <trkpt lat="46.64283" lon="-1.89456">
        <ele>14.5</ele>
        <time>2020-06-03T15:55:58Z</time>
      </trkpt>
      <trkpt lat="46.64282" lon="-1.89455">
        <ele>14.5</ele>
        <time>2020-06-03T15:55:59Z</time>
      </trkpt>
      <trkpt lat="46.64282" lon="-1.89451">
        <ele>14.5</ele>
        <time>2020-06-03T15:56:00Z</time>
      </trkpt>
      <trkpt lat="46.64282" lon="-1.89449">
        <ele>14.5</ele>
        <time>2020-06-03T15:56:01Z</time>
      </trkpt>
      <trkpt lat="46.64283" lon="-1.89446">
        <ele>14.6</ele>
        <time>2020-06-03T15:56:02Z</time>
      </trkpt>
      <trkpt lat="46.64283" lon="-1.89444">
        <ele>14.6</ele>
        <time>2020-06-03T15:56:03Z</time>
      </trkpt>
      <trkpt lat="46.64282" lon="-1.89442">
        <ele>14.6</ele>
        <time>2020-06-03T15:56:04Z</time>
      </trkpt>
      <trkpt lat="46.64282" lon="-1.8944">
        <ele>14.6</ele>
        <time>2020-06-03T15:56:05Z</time>
      </trkpt>
      <trkpt lat="46.64282" lon="-1.89438">
        <ele>14.6</ele>
        <time>2020-06-03T15:56:06Z</time>
      </trkpt>
      <trkpt lat="46.64282" lon="-1.89436">
        <ele>14.7</ele>
        <time>2020-06-03T15:56:07Z</time>
      </trkpt>
      <trkpt lat="46.64282" lon="-1.89434">
        <ele>14.7</ele>
        <time>2020-06-03T15:56:08Z</time>
      </trkpt>
      <trkpt lat="46.64282" lon="-1.89434">
        <ele>14.7</ele>
        <time>2020-06-03T15:56:09Z</time>
      </trkpt>
      <trkpt lat="46.64282" lon="-1.89433">
        <ele>14.7</ele>
        <time>2020-06-03T15:56:10Z</time>
      </trkpt>
      <trkpt lat="46.64282" lon="-1.89432">
        <ele>14.7</ele>
        <time>2020-06-03T15:56:11Z</time>
      </trkpt>
      <trkpt lat="46.64283" lon="-1.89431">
        <ele>14.7</ele>
        <time>2020-06-03T15:56:12Z</time>
      </trkpt>
      <trkpt lat="46.64283" lon="-1.89431">
        <ele>14.7</ele>
        <time>2020-06-03T15:56:13Z</time>
      </trkpt>
      <trkpt lat="46.64283" lon="-1.8943">
        <ele>14.7</ele>
        <time>2020-06-03T15:56:14Z</time>
      </trkpt>
      <trkpt lat="46.64283" lon="-1.89429">
        <ele>14.7</ele>
        <time>2020-06-03T15:56:15Z</time>
      </trkpt>
      <trkpt lat="46.64283" lon="-1.89429">
        <ele>14.7</ele>
        <time>2020-06-03T15:56:16Z</time>
      </trkpt>
      <trkpt lat="46.64283" lon="-1.89428">
        <ele>14.7</ele>
        <time>2020-06-03T15:56:17Z</time>
      </trkpt>
      <trkpt lat="46.64284" lon="-1.89427">
        <ele>14.7</ele>
        <time>2020-06-03T15:56:18Z</time>
      </trkpt>
      <trkpt lat="46.64284" lon="-1.89427">
        <ele>14.7</ele>
        <time>2020-06-03T15:56:19Z</time>
      </trkpt>
      <trkpt lat="46.64284" lon="-1.89426">
        <ele>14.7</ele>
        <time>2020-06-03T15:56:20Z</time>
      </trkpt>
      <trkpt lat="46.64284" lon="-1.89425">
        <ele>14.7</ele>
        <time>2020-06-03T15:56:45Z</time>
      </trkpt>
      <trkpt lat="46.64284" lon="-1.89424">
        <ele>14.8</ele>
        <time>2020-06-03T15:56:46Z</time>
      </trkpt>
      <trkpt lat="46.64286" lon="-1.89419">
        <ele>14.8</ele>
        <time>2020-06-03T15:56:47Z</time>
      </trkpt>
      <trkpt lat="46.64286" lon="-1.89416">
        <ele>14.8</ele>
        <time>2020-06-03T15:56:48Z</time>
      </trkpt>
      <trkpt lat="46.64289" lon="-1.89411">
        <ele>14.9</ele>
        <time>2020-06-03T15:56:49Z</time>
      </trkpt>
      <trkpt lat="46.64292" lon="-1.89405">
        <ele>14.9</ele>
        <time>2020-06-03T15:56:50Z</time>
      </trkpt>
      <trkpt lat="46.64295" lon="-1.89398">
        <ele>15</ele>
        <time>2020-06-03T15:56:51Z</time>
      </trkpt>
      <trkpt lat="46.64298" lon="-1.8939">
        <ele>15</ele>
        <time>2020-06-03T15:56:52Z</time>
      </trkpt>
      <trkpt lat="46.64302" lon="-1.89383">
        <ele>15</ele>
        <time>2020-06-03T15:56:53Z</time>
      </trkpt>
      <trkpt lat="46.64305" lon="-1.89376">
        <ele>15.1</ele>
        <time>2020-06-03T15:56:54Z</time>
      </trkpt>
      <trkpt lat="46.64308" lon="-1.89371">
        <ele>15.1</ele>
        <time>2020-06-03T15:56:55Z</time>
      </trkpt>
      <trkpt lat="46.64313" lon="-1.89367">
        <ele>15.1</ele>
        <time>2020-06-03T15:56:56Z</time>
      </trkpt>
      <trkpt lat="46.64318" lon="-1.89364">
        <ele>15.1</ele>
        <time>2020-06-03T15:56:57Z</time>
      </trkpt>
      <trkpt lat="46.64323" lon="-1.89361">
        <ele>15</ele>
        <time>2020-06-03T15:56:58Z</time>
      </trkpt>
      <trkpt lat="46.64329" lon="-1.8936">
        <ele>15</ele>
        <time>2020-06-03T15:56:59Z</time>
      </trkpt>
      <trkpt lat="46.64335" lon="-1.89358">
        <ele>15</ele>
        <time>2020-06-03T15:57:00Z</time>
      </trkpt>
      <trkpt lat="46.6434" lon="-1.89356">
        <ele>15</ele>
        <time>2020-06-03T15:57:01Z</time>
      </trkpt>
      <trkpt lat="46.64345" lon="-1.89353">
        <ele>15</ele>
        <time>2020-06-03T15:57:02Z</time>
      </trkpt>
      <trkpt lat="46.6435" lon="-1.8935">
        <ele>15</ele>
        <time>2020-06-03T15:57:03Z</time>
      </trkpt>
      <trkpt lat="46.64355" lon="-1.89347">
        <ele>15</ele>
        <time>2020-06-03T15:57:04Z</time>
      </trkpt>
      <trkpt lat="46.6436" lon="-1.89345">
        <ele>15</ele>
        <time>2020-06-03T15:57:05Z</time>
      </trkpt>
      <trkpt lat="46.64364" lon="-1.89344">
        <ele>15</ele>
        <time>2020-06-03T15:57:06Z</time>
      </trkpt>
      <trkpt lat="46.64367" lon="-1.89344">
        <ele>15</ele>
        <time>2020-06-03T15:57:07Z</time>
      </trkpt>
      <trkpt lat="46.6437" lon="-1.89345">
        <ele>15</ele>
        <time>2020-06-03T15:57:08Z</time>
      </trkpt>
      <trkpt lat="46.64372" lon="-1.89346">
        <ele>14.9</ele>
        <time>2020-06-03T15:57:09Z</time>
      </trkpt>
      <trkpt lat="46.64376" lon="-1.89347">
        <ele>14.9</ele>
        <time>2020-06-03T15:57:10Z</time>
      </trkpt>
      <trkpt lat="46.64378" lon="-1.89347">
        <ele>14.9</ele>
        <time>2020-06-03T15:57:11Z</time>
      </trkpt>
      <trkpt lat="46.64381" lon="-1.89347">
        <ele>14.9</ele>
        <time>2020-06-03T15:57:12Z</time>
      </trkpt>
      <trkpt lat="46.64384" lon="-1.89347">
        <ele>14.9</ele>
        <time>2020-06-03T15:57:13Z</time>
      </trkpt>
      <trkpt lat="46.64389" lon="-1.89349">
        <ele>15</ele>
        <time>2020-06-03T15:57:14Z</time>
      </trkpt>
      <trkpt lat="46.64393" lon="-1.89353">
        <ele>15</ele>
        <time>2020-06-03T15:57:15Z</time>
      </trkpt>
      <trkpt lat="46.64396" lon="-1.89357">
        <ele>15</ele>
        <time>2020-06-03T15:57:16Z</time>
      </trkpt>
      <trkpt lat="46.644" lon="-1.89359">
        <ele>15</ele>
        <time>2020-06-03T15:57:17Z</time>
      </trkpt>
      <trkpt lat="46.64403" lon="-1.8936">
        <ele>15.1</ele>
        <time>2020-06-03T15:57:18Z</time>
      </trkpt>
      <trkpt lat="46.64406" lon="-1.89362">
        <ele>15.1</ele>
        <time>2020-06-03T15:57:19Z</time>
      </trkpt>
      <trkpt lat="46.64411" lon="-1.89365">
        <ele>15.1</ele>
        <time>2020-06-03T15:57:20Z</time>
      </trkpt>
      <trkpt lat="46.64416" lon="-1.89367">
        <ele>15.1</ele>
        <time>2020-06-03T15:57:21Z</time>
      </trkpt>
      <trkpt lat="46.6442" lon="-1.8937">
        <ele>15.2</ele>
        <time>2020-06-03T15:57:22Z</time>
      </trkpt>
      <trkpt lat="46.64424" lon="-1.89372">
        <ele>15.2</ele>
        <time>2020-06-03T15:57:23Z</time>
      </trkpt>
      <trkpt lat="46.64428" lon="-1.89373">
        <ele>15.2</ele>
        <time>2020-06-03T15:57:24Z</time>
      </trkpt>
      <trkpt lat="46.64432" lon="-1.89373">
        <ele>15.3</ele>
        <time>2020-06-03T15:57:25Z</time>
      </trkpt>
      <trkpt lat="46.64436" lon="-1.89372">
        <ele>15.3</ele>
        <time>2020-06-03T15:57:26Z</time>
      </trkpt>
      <trkpt lat="46.6444" lon="-1.89371">
        <ele>15.3</ele>
        <time>2020-06-03T15:57:27Z</time>
      </trkpt>
      <trkpt lat="46.64444" lon="-1.89371">
        <ele>15.4</ele>
        <time>2020-06-03T15:57:28Z</time>
      </trkpt>
      <trkpt lat="46.64447" lon="-1.8937">
        <ele>15.5</ele>
        <time>2020-06-03T15:57:29Z</time>
      </trkpt>
      <trkpt lat="46.64451" lon="-1.8937">
        <ele>15.5</ele>
        <time>2020-06-03T15:57:30Z</time>
      </trkpt>
      <trkpt lat="46.64457" lon="-1.8937">
        <ele>15.6</ele>
        <time>2020-06-03T15:57:31Z</time>
      </trkpt>
      <trkpt lat="46.64462" lon="-1.89371">
        <ele>15.7</ele>
        <time>2020-06-03T15:57:32Z</time>
      </trkpt>
      <trkpt lat="46.64467" lon="-1.89371">
        <ele>15.8</ele>
        <time>2020-06-03T15:57:33Z</time>
      </trkpt>
      <trkpt lat="46.64474" lon="-1.89373">
        <ele>15.8</ele>
        <time>2020-06-03T15:57:34Z</time>
      </trkpt>
      <trkpt lat="46.64478" lon="-1.89374">
        <ele>15.8</ele>
        <time>2020-06-03T15:57:35Z</time>
      </trkpt>
      <trkpt lat="46.64483" lon="-1.89374">
        <ele>15.9</ele>
        <time>2020-06-03T15:57:36Z</time>
      </trkpt>
      <trkpt lat="46.64487" lon="-1.89374">
        <ele>15.9</ele>
        <time>2020-06-03T15:57:37Z</time>
      </trkpt>
      <trkpt lat="46.64491" lon="-1.89372">
        <ele>15.9</ele>
        <time>2020-06-03T15:57:38Z</time>
      </trkpt>
      <trkpt lat="46.64494" lon="-1.89371">
        <ele>15.9</ele>
        <time>2020-06-03T15:57:39Z</time>
      </trkpt>
      <trkpt lat="46.64498" lon="-1.89368">
        <ele>16</ele>
        <time>2020-06-03T15:57:40Z</time>
      </trkpt>
      <trkpt lat="46.645" lon="-1.89365">
        <ele>16</ele>
        <time>2020-06-03T15:57:41Z</time>
      </trkpt>
      <trkpt lat="46.64504" lon="-1.89361">
        <ele>16</ele>
        <time>2020-06-03T15:57:42Z</time>
      </trkpt>
      <trkpt lat="46.64509" lon="-1.89359">
        <ele>16.1</ele>
        <time>2020-06-03T15:57:43Z</time>
      </trkpt>
      <trkpt lat="46.64514" lon="-1.89358">
        <ele>16.2</ele>
        <time>2020-06-03T15:57:44Z</time>
      </trkpt>
      <trkpt lat="46.64518" lon="-1.89354">
        <ele>16.3</ele>
        <time>2020-06-03T15:57:45Z</time>
      </trkpt>
      <trkpt lat="46.64522" lon="-1.89351">
        <ele>16.3</ele>
        <time>2020-06-03T15:57:46Z</time>
      </trkpt>
      <trkpt lat="46.64526" lon="-1.89348">
        <ele>16.4</ele>
        <time>2020-06-03T15:57:47Z</time>
      </trkpt>
      <trkpt lat="46.6453" lon="-1.89344">
        <ele>16.6</ele>
        <time>2020-06-03T15:57:48Z</time>
      </trkpt>
      <trkpt lat="46.64535" lon="-1.89341">
        <ele>16.7</ele>
        <time>2020-06-03T15:57:49Z</time>
      </trkpt>
      <trkpt lat="46.64539" lon="-1.8934">
        <ele>16.8</ele>
        <time>2020-06-03T15:57:50Z</time>
      </trkpt>
      <trkpt lat="46.64543" lon="-1.89338">
        <ele>16.9</ele>
        <time>2020-06-03T15:57:51Z</time>
      </trkpt>
      <trkpt lat="46.64547" lon="-1.89338">
        <ele>17</ele>
        <time>2020-06-03T15:57:52Z</time>
      </trkpt>
      <trkpt lat="46.64553" lon="-1.89339">
        <ele>17</ele>
        <time>2020-06-03T15:57:53Z</time>
      </trkpt>
      <trkpt lat="46.64558" lon="-1.89342">
        <ele>17.1</ele>
        <time>2020-06-03T15:57:54Z</time>
      </trkpt>
      <trkpt lat="46.64562" lon="-1.89346">
        <ele>17.1</ele>
        <time>2020-06-03T15:57:55Z</time>
      </trkpt>
      <trkpt lat="46.64567" lon="-1.89349">
        <ele>17.2</ele>
        <time>2020-06-03T15:57:56Z</time>
      </trkpt>
      <trkpt lat="46.64572" lon="-1.89349">
        <ele>17.2</ele>
        <time>2020-06-03T15:57:57Z</time>
      </trkpt>
      <trkpt lat="46.64576" lon="-1.89351">
        <ele>17.2</ele>
        <time>2020-06-03T15:57:58Z</time>
      </trkpt>
      <trkpt lat="46.64581" lon="-1.89352">
        <ele>17.1</ele>
        <time>2020-06-03T15:57:59Z</time>
      </trkpt>
      <trkpt lat="46.64586" lon="-1.89353">
        <ele>17.1</ele>
        <time>2020-06-03T15:58:00Z</time>
      </trkpt>
      <trkpt lat="46.64593" lon="-1.89354">
        <ele>17.1</ele>
        <time>2020-06-03T15:58:01Z</time>
      </trkpt>
      <trkpt lat="46.64601" lon="-1.89355">
        <ele>17.1</ele>
        <time>2020-06-03T15:58:02Z</time>
      </trkpt>
      <trkpt lat="46.64608" lon="-1.89357">
        <ele>17</ele>
        <time>2020-06-03T15:58:03Z</time>
      </trkpt>
      <trkpt lat="46.64615" lon="-1.89359">
        <ele>17.1</ele>
        <time>2020-06-03T15:58:04Z</time>
      </trkpt>
      <trkpt lat="46.64621" lon="-1.89362">
        <ele>17.1</ele>
        <time>2020-06-03T15:58:05Z</time>
      </trkpt>
      <trkpt lat="46.64626" lon="-1.89367">
        <ele>17.2</ele>
        <time>2020-06-03T15:58:06Z</time>
      </trkpt>
      <trkpt lat="46.6463" lon="-1.89371">
        <ele>17.3</ele>
        <time>2020-06-03T15:58:07Z</time>
      </trkpt>
      <trkpt lat="46.64633" lon="-1.89377">
        <ele>17.4</ele>
        <time>2020-06-03T15:58:08Z</time>
      </trkpt>
      <trkpt lat="46.64636" lon="-1.89383">
        <ele>17.5</ele>
        <time>2020-06-03T15:58:09Z</time>
      </trkpt>
      <trkpt lat="46.6464" lon="-1.8939">
        <ele>17.7</ele>
        <time>2020-06-03T15:58:10Z</time>
      </trkpt>
      <trkpt lat="46.64643" lon="-1.89394">
        <ele>17.8</ele>
        <time>2020-06-03T15:58:11Z</time>
      </trkpt>
      <trkpt lat="46.64646" lon="-1.89398">
        <ele>17.8</ele>
        <time>2020-06-03T15:58:12Z</time>
      </trkpt>
      <trkpt lat="46.64649" lon="-1.89402">
        <ele>17.9</ele>
        <time>2020-06-03T15:58:13Z</time>
      </trkpt>
      <trkpt lat="46.64653" lon="-1.89406">
        <ele>17.9</ele>
        <time>2020-06-03T15:58:14Z</time>
      </trkpt>
      <trkpt lat="46.64658" lon="-1.89409">
        <ele>17.9</ele>
        <time>2020-06-03T15:58:15Z</time>
      </trkpt>
      <trkpt lat="46.64664" lon="-1.89412">
        <ele>17.9</ele>
        <time>2020-06-03T15:58:16Z</time>
      </trkpt>
      <trkpt lat="46.64669" lon="-1.89415">
        <ele>17.8</ele>
        <time>2020-06-03T15:58:17Z</time>
      </trkpt>
      <trkpt lat="46.64674" lon="-1.89419">
        <ele>17.8</ele>
        <time>2020-06-03T15:58:18Z</time>
      </trkpt>
      <trkpt lat="46.64679" lon="-1.89423">
        <ele>17.7</ele>
        <time>2020-06-03T15:58:19Z</time>
      </trkpt>
      <trkpt lat="46.64685" lon="-1.89426">
        <ele>17.5</ele>
        <time>2020-06-03T15:58:20Z</time>
      </trkpt>
      <trkpt lat="46.64691" lon="-1.89429">
        <ele>17.4</ele>
        <time>2020-06-03T15:58:21Z</time>
      </trkpt>
      <trkpt lat="46.64697" lon="-1.89431">
        <ele>17.2</ele>
        <time>2020-06-03T15:58:22Z</time>
      </trkpt>
      <trkpt lat="46.64702" lon="-1.89433">
        <ele>17</ele>
        <time>2020-06-03T15:58:23Z</time>
      </trkpt>
      <trkpt lat="46.64708" lon="-1.89435">
        <ele>16.8</ele>
        <time>2020-06-03T15:58:24Z</time>
      </trkpt>
      <trkpt lat="46.64715" lon="-1.89438">
        <ele>16.5</ele>
        <time>2020-06-03T15:58:25Z</time>
      </trkpt>
      <trkpt lat="46.64722" lon="-1.89439">
        <ele>16.3</ele>
        <time>2020-06-03T15:58:26Z</time>
      </trkpt>
      <trkpt lat="46.64729" lon="-1.89439">
        <ele>16.2</ele>
        <time>2020-06-03T15:58:27Z</time>
      </trkpt>
      <trkpt lat="46.64735" lon="-1.89441">
        <ele>16.1</ele>
        <time>2020-06-03T15:58:28Z</time>
      </trkpt>
      <trkpt lat="46.64741" lon="-1.89443">
        <ele>16</ele>
        <time>2020-06-03T15:58:29Z</time>
      </trkpt>
      <trkpt lat="46.64746" lon="-1.89444">
        <ele>15.9</ele>
        <time>2020-06-03T15:58:30Z</time>
      </trkpt>
      <trkpt lat="46.64751" lon="-1.89445">
        <ele>15.8</ele>
        <time>2020-06-03T15:58:31Z</time>
      </trkpt>
      <trkpt lat="46.64757" lon="-1.89447">
        <ele>15.8</ele>
        <time>2020-06-03T15:58:32Z</time>
      </trkpt>
      <trkpt lat="46.64762" lon="-1.89447">
        <ele>15.8</ele>
        <time>2020-06-03T15:58:33Z</time>
      </trkpt>
      <trkpt lat="46.64766" lon="-1.89446">
        <ele>15.7</ele>
        <time>2020-06-03T15:58:34Z</time>
      </trkpt>
      <trkpt lat="46.6477" lon="-1.89444">
        <ele>15.7</ele>
        <time>2020-06-03T15:58:35Z</time>
      </trkpt>
      <trkpt lat="46.64774" lon="-1.89439">
        <ele>15.7</ele>
        <time>2020-06-03T15:58:36Z</time>
      </trkpt>
      <trkpt lat="46.64777" lon="-1.89431">
        <ele>15.8</ele>
        <time>2020-06-03T15:58:37Z</time>
      </trkpt>
      <trkpt lat="46.6478" lon="-1.89426">
        <ele>15.8</ele>
        <time>2020-06-03T15:58:38Z</time>
      </trkpt>
      <trkpt lat="46.64782" lon="-1.89422">
        <ele>15.8</ele>
        <time>2020-06-03T15:58:39Z</time>
      </trkpt>
      <trkpt lat="46.64785" lon="-1.89416">
        <ele>15.9</ele>
        <time>2020-06-03T15:58:40Z</time>
      </trkpt>
      <trkpt lat="46.64788" lon="-1.89411">
        <ele>16</ele>
        <time>2020-06-03T15:58:41Z</time>
      </trkpt>
      <trkpt lat="46.64792" lon="-1.89407">
        <ele>16</ele>
        <time>2020-06-03T15:58:42Z</time>
      </trkpt>
      <trkpt lat="46.64797" lon="-1.89406">
        <ele>16.1</ele>
        <time>2020-06-03T15:58:43Z</time>
      </trkpt>
      <trkpt lat="46.64801" lon="-1.89403">
        <ele>16.2</ele>
        <time>2020-06-03T15:58:44Z</time>
      </trkpt>
      <trkpt lat="46.64804" lon="-1.894">
        <ele>16.2</ele>
        <time>2020-06-03T15:58:45Z</time>
      </trkpt>
      <trkpt lat="46.64806" lon="-1.89394">
        <ele>16.3</ele>
        <time>2020-06-03T15:58:46Z</time>
      </trkpt>
      <trkpt lat="46.64806" lon="-1.89388">
        <ele>16.3</ele>
        <time>2020-06-03T15:58:47Z</time>
      </trkpt>
      <trkpt lat="46.64808" lon="-1.89383">
        <ele>16.4</ele>
        <time>2020-06-03T15:58:48Z</time>
      </trkpt>
      <trkpt lat="46.64811" lon="-1.89377">
        <ele>16.4</ele>
        <time>2020-06-03T15:58:49Z</time>
      </trkpt>
      <trkpt lat="46.64814" lon="-1.8937">
        <ele>16.4</ele>
        <time>2020-06-03T15:58:50Z</time>
      </trkpt>
      <trkpt lat="46.64818" lon="-1.89365">
        <ele>16.3</ele>
        <time>2020-06-03T15:58:51Z</time>
      </trkpt>
      <trkpt lat="46.64822" lon="-1.89362">
        <ele>16.3</ele>
        <time>2020-06-03T15:58:52Z</time>
      </trkpt>
      <trkpt lat="46.64826" lon="-1.89359">
        <ele>16.2</ele>
        <time>2020-06-03T15:58:53Z</time>
      </trkpt>
      <trkpt lat="46.64831" lon="-1.89354">
        <ele>16.1</ele>
        <time>2020-06-03T15:58:54Z</time>
      </trkpt>
      <trkpt lat="46.64836" lon="-1.89349">
        <ele>16</ele>
        <time>2020-06-03T15:58:55Z</time>
      </trkpt>
      <trkpt lat="46.64841" lon="-1.89345">
        <ele>15.9</ele>
        <time>2020-06-03T15:58:56Z</time>
      </trkpt>
      <trkpt lat="46.64846" lon="-1.89341">
        <ele>15.8</ele>
        <time>2020-06-03T15:58:57Z</time>
      </trkpt>
      <trkpt lat="46.6485" lon="-1.89338">
        <ele>15.7</ele>
        <time>2020-06-03T15:58:58Z</time>
      </trkpt>
      <trkpt lat="46.64854" lon="-1.89337">
        <ele>15.7</ele>
        <time>2020-06-03T15:58:59Z</time>
      </trkpt>
      <trkpt lat="46.64856" lon="-1.89336">
        <ele>15.7</ele>
        <time>2020-06-03T15:59:00Z</time>
      </trkpt>
      <trkpt lat="46.64859" lon="-1.89335">
        <ele>15.7</ele>
        <time>2020-06-03T15:59:01Z</time>
      </trkpt>
      <trkpt lat="46.64862" lon="-1.89334">
        <ele>15.7</ele>
        <time>2020-06-03T15:59:02Z</time>
      </trkpt>
      <trkpt lat="46.64865" lon="-1.89331">
        <ele>15.7</ele>
        <time>2020-06-03T15:59:03Z</time>
      </trkpt>
      <trkpt lat="46.64868" lon="-1.89328">
        <ele>15.7</ele>
        <time>2020-06-03T15:59:04Z</time>
      </trkpt>
      <trkpt lat="46.64871" lon="-1.89327">
        <ele>15.7</ele>
        <time>2020-06-03T15:59:05Z</time>
      </trkpt>
      <trkpt lat="46.64875" lon="-1.89324">
        <ele>15.7</ele>
        <time>2020-06-03T15:59:06Z</time>
      </trkpt>
      <trkpt lat="46.64876" lon="-1.89323">
        <ele>15.7</ele>
        <time>2020-06-03T15:59:07Z</time>
      </trkpt>
      <trkpt lat="46.6488" lon="-1.8932">
        <ele>15.7</ele>
        <time>2020-06-03T15:59:08Z</time>
      </trkpt>
      <trkpt lat="46.64884" lon="-1.89317">
        <ele>15.6</ele>
        <time>2020-06-03T15:59:09Z</time>
      </trkpt>
      <trkpt lat="46.64888" lon="-1.89316">
        <ele>15.6</ele>
        <time>2020-06-03T15:59:10Z</time>
      </trkpt>
      <trkpt lat="46.64892" lon="-1.89316">
        <ele>15.6</ele>
        <time>2020-06-03T15:59:11Z</time>
      </trkpt>
      <trkpt lat="46.64896" lon="-1.89319">
        <ele>15.5</ele>
        <time>2020-06-03T15:59:12Z</time>
      </trkpt>
      <trkpt lat="46.64899" lon="-1.89323">
        <ele>15.3</ele>
        <time>2020-06-03T15:59:13Z</time>
      </trkpt>
      <trkpt lat="46.64902" lon="-1.89327">
        <ele>15.3</ele>
        <time>2020-06-03T15:59:14Z</time>
      </trkpt>
      <trkpt lat="46.64905" lon="-1.89331">
        <ele>15.2</ele>
        <time>2020-06-03T15:59:15Z</time>
      </trkpt>
      <trkpt lat="46.64909" lon="-1.89336">
        <ele>15.2</ele>
        <time>2020-06-03T15:59:16Z</time>
      </trkpt>
      <trkpt lat="46.64913" lon="-1.89339">
        <ele>15.1</ele>
        <time>2020-06-03T15:59:17Z</time>
      </trkpt>
      <trkpt lat="46.64916" lon="-1.89344">
        <ele>15.1</ele>
        <time>2020-06-03T15:59:18Z</time>
      </trkpt>
      <trkpt lat="46.64919" lon="-1.89348">
        <ele>15.1</ele>
        <time>2020-06-03T15:59:19Z</time>
      </trkpt>
      <trkpt lat="46.64921" lon="-1.89351">
        <ele>15</ele>
        <time>2020-06-03T15:59:20Z</time>
      </trkpt>
      <trkpt lat="46.64923" lon="-1.89354">
        <ele>15</ele>
        <time>2020-06-03T15:59:21Z</time>
      </trkpt>
      <trkpt lat="46.64924" lon="-1.89358">
        <ele>15</ele>
        <time>2020-06-03T15:59:22Z</time>
      </trkpt>
      <trkpt lat="46.64925" lon="-1.89362">
        <ele>14.9</ele>
        <time>2020-06-03T15:59:23Z</time>
      </trkpt>
      <trkpt lat="46.64926" lon="-1.8937">
        <ele>14.9</ele>
        <time>2020-06-03T15:59:24Z</time>
      </trkpt>
      <trkpt lat="46.64928" lon="-1.89378">
        <ele>14.8</ele>
        <time>2020-06-03T15:59:25Z</time>
      </trkpt>
      <trkpt lat="46.6493" lon="-1.89387">
        <ele>14.7</ele>
        <time>2020-06-03T15:59:26Z</time>
      </trkpt>
      <trkpt lat="46.64933" lon="-1.89396">
        <ele>14.6</ele>
        <time>2020-06-03T15:59:27Z</time>
      </trkpt>
      <trkpt lat="46.64935" lon="-1.89404">
        <ele>14.6</ele>
        <time>2020-06-03T15:59:28Z</time>
      </trkpt>
      <trkpt lat="46.64938" lon="-1.89411">
        <ele>14.5</ele>
        <time>2020-06-03T15:59:29Z</time>
      </trkpt>
      <trkpt lat="46.64941" lon="-1.89419">
        <ele>14.4</ele>
        <time>2020-06-03T15:59:30Z</time>
      </trkpt>
      <trkpt lat="46.64945" lon="-1.89429">
        <ele>14.4</ele>
        <time>2020-06-03T15:59:31Z</time>
      </trkpt>
      <trkpt lat="46.64948" lon="-1.89437">
        <ele>14.3</ele>
        <time>2020-06-03T15:59:32Z</time>
      </trkpt>
      <trkpt lat="46.64952" lon="-1.89443">
        <ele>14.3</ele>
        <time>2020-06-03T15:59:33Z</time>
      </trkpt>
      <trkpt lat="46.64956" lon="-1.89449">
        <ele>14.2</ele>
        <time>2020-06-03T15:59:34Z</time>
      </trkpt>
      <trkpt lat="46.6496" lon="-1.89456">
        <ele>14.2</ele>
        <time>2020-06-03T15:59:35Z</time>
      </trkpt>
      <trkpt lat="46.64963" lon="-1.89463">
        <ele>14.1</ele>
        <time>2020-06-03T15:59:36Z</time>
      </trkpt>
      <trkpt lat="46.64967" lon="-1.89469">
        <ele>14.1</ele>
        <time>2020-06-03T15:59:37Z</time>
      </trkpt>
      <trkpt lat="46.64971" lon="-1.89476">
        <ele>14.1</ele>
        <time>2020-06-03T15:59:38Z</time>
      </trkpt>
      <trkpt lat="46.64974" lon="-1.89482">
        <ele>14.1</ele>
        <time>2020-06-03T15:59:39Z</time>
      </trkpt>
      <trkpt lat="46.64977" lon="-1.89489">
        <ele>14.1</ele>
        <time>2020-06-03T15:59:40Z</time>
      </trkpt>
      <trkpt lat="46.6498" lon="-1.89497">
        <ele>14.2</ele>
        <time>2020-06-03T15:59:41Z</time>
      </trkpt>
      <trkpt lat="46.64983" lon="-1.89506">
        <ele>14.1</ele>
        <time>2020-06-03T15:59:42Z</time>
      </trkpt>
      <trkpt lat="46.64984" lon="-1.89516">
        <ele>14.1</ele>
        <time>2020-06-03T15:59:43Z</time>
      </trkpt>
      <trkpt lat="46.64986" lon="-1.89524">
        <ele>14.1</ele>
        <time>2020-06-03T15:59:44Z</time>
      </trkpt>
      <trkpt lat="46.64989" lon="-1.89531">
        <ele>14.1</ele>
        <time>2020-06-03T15:59:45Z</time>
      </trkpt>
      <trkpt lat="46.64992" lon="-1.89539">
        <ele>14.1</ele>
        <time>2020-06-03T15:59:46Z</time>
      </trkpt>
      <trkpt lat="46.64995" lon="-1.89547">
        <ele>14</ele>
        <time>2020-06-03T15:59:47Z</time>
      </trkpt>
      <trkpt lat="46.64998" lon="-1.89555">
        <ele>14</ele>
        <time>2020-06-03T15:59:48Z</time>
      </trkpt>
      <trkpt lat="46.65" lon="-1.89563">
        <ele>14</ele>
        <time>2020-06-03T15:59:49Z</time>
      </trkpt>
      <trkpt lat="46.65002" lon="-1.89572">
        <ele>13.9</ele>
        <time>2020-06-03T15:59:50Z</time>
      </trkpt>
      <trkpt lat="46.65005" lon="-1.89579">
        <ele>13.8</ele>
        <time>2020-06-03T15:59:51Z</time>
      </trkpt>
      <trkpt lat="46.65008" lon="-1.89587">
        <ele>13.7</ele>
        <time>2020-06-03T15:59:52Z</time>
      </trkpt>
      <trkpt lat="46.65011" lon="-1.89595">
        <ele>13.6</ele>
        <time>2020-06-03T15:59:53Z</time>
      </trkpt>
      <trkpt lat="46.65014" lon="-1.89601">
        <ele>13.5</ele>
        <time>2020-06-03T15:59:54Z</time>
      </trkpt>
      <trkpt lat="46.65018" lon="-1.89608">
        <ele>13.5</ele>
        <time>2020-06-03T15:59:55Z</time>
      </trkpt>
      <trkpt lat="46.65022" lon="-1.89616">
        <ele>13.4</ele>
        <time>2020-06-03T15:59:56Z</time>
      </trkpt>
      <trkpt lat="46.65026" lon="-1.89622">
        <ele>13.3</ele>
        <time>2020-06-03T15:59:57Z</time>
      </trkpt>
      <trkpt lat="46.65031" lon="-1.89628">
        <ele>13.3</ele>
        <time>2020-06-03T15:59:58Z</time>
      </trkpt>
      <trkpt lat="46.65035" lon="-1.89633">
        <ele>13.3</ele>
        <time>2020-06-03T15:59:59Z</time>
      </trkpt>
      <trkpt lat="46.6504" lon="-1.8964">
        <ele>13.3</ele>
        <time>2020-06-03T16:00:00Z</time>
      </trkpt>
      <trkpt lat="46.65044" lon="-1.89647">
        <ele>13.3</ele>
        <time>2020-06-03T16:00:01Z</time>
      </trkpt>
      <trkpt lat="46.65047" lon="-1.89652">
        <ele>13.3</ele>
        <time>2020-06-03T16:00:02Z</time>
      </trkpt>
      <trkpt lat="46.6505" lon="-1.89657">
        <ele>13.3</ele>
        <time>2020-06-03T16:00:03Z</time>
      </trkpt>
      <trkpt lat="46.65052" lon="-1.89664">
        <ele>13.3</ele>
        <time>2020-06-03T16:00:04Z</time>
      </trkpt>
      <trkpt lat="46.65055" lon="-1.8967">
        <ele>13.3</ele>
        <time>2020-06-03T16:00:05Z</time>
      </trkpt>
      <trkpt lat="46.65057" lon="-1.89675">
        <ele>13.3</ele>
        <time>2020-06-03T16:00:06Z</time>
      </trkpt>
      <trkpt lat="46.65059" lon="-1.89678">
        <ele>13.3</ele>
        <time>2020-06-03T16:00:07Z</time>
      </trkpt>
      <trkpt lat="46.65059" lon="-1.89678">
        <ele>13.3</ele>
        <time>2020-06-03T16:00:08Z</time>
      </trkpt>
      <trkpt lat="46.65062" lon="-1.89682">
        <ele>13.3</ele>
        <time>2020-06-03T16:00:09Z</time>
      </trkpt>
      <trkpt lat="46.65063" lon="-1.89683">
        <ele>13.3</ele>
        <time>2020-06-03T16:00:10Z</time>
      </trkpt>
      <trkpt lat="46.65065" lon="-1.89688">
        <ele>13.3</ele>
        <time>2020-06-03T16:00:11Z</time>
      </trkpt>
      <trkpt lat="46.65065" lon="-1.8969">
        <ele>13.3</ele>
        <time>2020-06-03T16:00:12Z</time>
      </trkpt>
      <trkpt lat="46.65066" lon="-1.89694">
        <ele>13.3</ele>
        <time>2020-06-03T16:00:13Z</time>
      </trkpt>
      <trkpt lat="46.65066" lon="-1.89696">
        <ele>13.3</ele>
        <time>2020-06-03T16:00:14Z</time>
      </trkpt>
      <trkpt lat="46.65066" lon="-1.89697">
        <ele>13.3</ele>
        <time>2020-06-03T16:00:15Z</time>
      </trkpt>
      <trkpt lat="46.65067" lon="-1.89698">
        <ele>13.3</ele>
        <time>2020-06-03T16:00:16Z</time>
      </trkpt>
      <trkpt lat="46.65068" lon="-1.89699">
        <ele>13.1</ele>
        <time>2020-06-03T16:00:17Z</time>
      </trkpt>
      <trkpt lat="46.65069" lon="-1.89699">
        <ele>13.1</ele>
        <time>2020-06-03T16:00:18Z</time>
      </trkpt>
      <trkpt lat="46.65071" lon="-1.897">
        <ele>13</ele>
        <time>2020-06-03T16:00:19Z</time>
      </trkpt>
      <trkpt lat="46.65074" lon="-1.897">
        <ele>12.9</ele>
        <time>2020-06-03T16:00:20Z</time>
      </trkpt>
      <trkpt lat="46.65075" lon="-1.89701">
        <ele>12.9</ele>
        <time>2020-06-03T16:00:21Z</time>
      </trkpt>
      <trkpt lat="46.65079" lon="-1.89704">
        <ele>12.7</ele>
        <time>2020-06-03T16:00:22Z</time>
      </trkpt>
      <trkpt lat="46.6508" lon="-1.89705">
        <ele>12.6</ele>
        <time>2020-06-03T16:00:23Z</time>
      </trkpt>
      <trkpt lat="46.65084" lon="-1.89708">
        <ele>12.5</ele>
        <time>2020-06-03T16:00:24Z</time>
      </trkpt>
      <trkpt lat="46.65086" lon="-1.89714">
        <ele>12.3</ele>
        <time>2020-06-03T16:00:25Z</time>
      </trkpt>
      <trkpt lat="46.65088" lon="-1.89719">
        <ele>12.1</ele>
        <time>2020-06-03T16:00:26Z</time>
      </trkpt>
      <trkpt lat="46.65091" lon="-1.89725">
        <ele>12</ele>
        <time>2020-06-03T16:00:27Z</time>
      </trkpt>
      <trkpt lat="46.65094" lon="-1.8973">
        <ele>11.8</ele>
        <time>2020-06-03T16:00:28Z</time>
      </trkpt>
      <trkpt lat="46.65097" lon="-1.89734">
        <ele>11.7</ele>
        <time>2020-06-03T16:00:29Z</time>
      </trkpt>
      <trkpt lat="46.651" lon="-1.89738">
        <ele>11.6</ele>
        <time>2020-06-03T16:00:30Z</time>
      </trkpt>
      <trkpt lat="46.65105" lon="-1.89741">
        <ele>11.4</ele>
        <time>2020-06-03T16:00:31Z</time>
      </trkpt>
      <trkpt lat="46.6511" lon="-1.89744">
        <ele>11.3</ele>
        <time>2020-06-03T16:00:32Z</time>
      </trkpt>
      <trkpt lat="46.65115" lon="-1.89748">
        <ele>11.1</ele>
        <time>2020-06-03T16:00:33Z</time>
      </trkpt>
      <trkpt lat="46.65121" lon="-1.89752">
        <ele>11</ele>
        <time>2020-06-03T16:00:34Z</time>
      </trkpt>
      <trkpt lat="46.65127" lon="-1.89754">
        <ele>10.9</ele>
        <time>2020-06-03T16:00:35Z</time>
      </trkpt>
      <trkpt lat="46.65135" lon="-1.89756">
        <ele>10.7</ele>
        <time>2020-06-03T16:00:36Z</time>
      </trkpt>
      <trkpt lat="46.65142" lon="-1.89756">
        <ele>10.6</ele>
        <time>2020-06-03T16:00:37Z</time>
      </trkpt>
      <trkpt lat="46.65149" lon="-1.89753">
        <ele>10.5</ele>
        <time>2020-06-03T16:00:38Z</time>
      </trkpt>
      <trkpt lat="46.65155" lon="-1.89751">
        <ele>10.4</ele>
        <time>2020-06-03T16:00:39Z</time>
      </trkpt>
      <trkpt lat="46.65161" lon="-1.89746">
        <ele>10.3</ele>
        <time>2020-06-03T16:00:40Z</time>
      </trkpt>
      <trkpt lat="46.65166" lon="-1.89741">
        <ele>10.2</ele>
        <time>2020-06-03T16:00:41Z</time>
      </trkpt>
      <trkpt lat="46.65172" lon="-1.89736">
        <ele>10</ele>
        <time>2020-06-03T16:00:42Z</time>
      </trkpt>
      <trkpt lat="46.65176" lon="-1.89731">
        <ele>9.9</ele>
        <time>2020-06-03T16:00:43Z</time>
      </trkpt>
      <trkpt lat="46.65181" lon="-1.89725">
        <ele>9.7</ele>
        <time>2020-06-03T16:00:44Z</time>
      </trkpt>
      <trkpt lat="46.65186" lon="-1.8972">
        <ele>9.6</ele>
        <time>2020-06-03T16:00:45Z</time>
      </trkpt>
      <trkpt lat="46.65191" lon="-1.89714">
        <ele>9.5</ele>
        <time>2020-06-03T16:00:46Z</time>
      </trkpt>
      <trkpt lat="46.65197" lon="-1.8971">
        <ele>9.3</ele>
        <time>2020-06-03T16:00:47Z</time>
      </trkpt>
      <trkpt lat="46.65204" lon="-1.89707">
        <ele>9.2</ele>
        <time>2020-06-03T16:00:48Z</time>
      </trkpt>
      <trkpt lat="46.6521" lon="-1.89705">
        <ele>9.1</ele>
        <time>2020-06-03T16:00:49Z</time>
      </trkpt>
      <trkpt lat="46.65217" lon="-1.89704">
        <ele>9.1</ele>
        <time>2020-06-03T16:00:50Z</time>
      </trkpt>
      <trkpt lat="46.65224" lon="-1.89704">
        <ele>9.1</ele>
        <time>2020-06-03T16:00:51Z</time>
      </trkpt>
      <trkpt lat="46.65229" lon="-1.89706">
        <ele>9.1</ele>
        <time>2020-06-03T16:00:52Z</time>
      </trkpt>
      <trkpt lat="46.65235" lon="-1.89707">
        <ele>9.1</ele>
        <time>2020-06-03T16:00:53Z</time>
      </trkpt>
      <trkpt lat="46.6524" lon="-1.89708">
        <ele>9.1</ele>
        <time>2020-06-03T16:00:54Z</time>
      </trkpt>
      <trkpt lat="46.65246" lon="-1.8971">
        <ele>9.1</ele>
        <time>2020-06-03T16:00:55Z</time>
      </trkpt>
      <trkpt lat="46.65252" lon="-1.89713">
        <ele>9.2</ele>
        <time>2020-06-03T16:00:56Z</time>
      </trkpt>
      <trkpt lat="46.65257" lon="-1.89716">
        <ele>9.2</ele>
        <time>2020-06-03T16:00:57Z</time>
      </trkpt>
      <trkpt lat="46.65263" lon="-1.8972">
        <ele>9.2</ele>
        <time>2020-06-03T16:00:58Z</time>
      </trkpt>
      <trkpt lat="46.65269" lon="-1.89725">
        <ele>9.2</ele>
        <time>2020-06-03T16:00:59Z</time>
      </trkpt>
      <trkpt lat="46.65273" lon="-1.8973">
        <ele>9.2</ele>
        <time>2020-06-03T16:01:00Z</time>
      </trkpt>
      <trkpt lat="46.65279" lon="-1.89736">
        <ele>9.2</ele>
        <time>2020-06-03T16:01:01Z</time>
      </trkpt>
      <trkpt lat="46.65284" lon="-1.89741">
        <ele>9.1</ele>
        <time>2020-06-03T16:01:02Z</time>
      </trkpt>
      <trkpt lat="46.65288" lon="-1.89746">
        <ele>9.1</ele>
        <time>2020-06-03T16:01:03Z</time>
      </trkpt>
      <trkpt lat="46.65293" lon="-1.89751">
        <ele>9.1</ele>
        <time>2020-06-03T16:01:04Z</time>
      </trkpt>
      <trkpt lat="46.65297" lon="-1.89757">
        <ele>9.1</ele>
        <time>2020-06-03T16:01:05Z</time>
      </trkpt>
      <trkpt lat="46.65301" lon="-1.89762">
        <ele>9.1</ele>
        <time>2020-06-03T16:01:06Z</time>
      </trkpt>
      <trkpt lat="46.65305" lon="-1.89767">
        <ele>9.1</ele>
        <time>2020-06-03T16:01:07Z</time>
      </trkpt>
      <trkpt lat="46.6531" lon="-1.89767">
        <ele>9.1</ele>
        <time>2020-06-03T16:01:08Z</time>
      </trkpt>
      <trkpt lat="46.65314" lon="-1.89767">
        <ele>9</ele>
        <time>2020-06-03T16:01:09Z</time>
      </trkpt>
      <trkpt lat="46.65317" lon="-1.89766">
        <ele>9</ele>
        <time>2020-06-03T16:01:10Z</time>
      </trkpt>
      <trkpt lat="46.65321" lon="-1.89762">
        <ele>9</ele>
        <time>2020-06-03T16:01:11Z</time>
      </trkpt>
      <trkpt lat="46.65325" lon="-1.89758">
        <ele>8.9</ele>
        <time>2020-06-03T16:01:12Z</time>
      </trkpt>
      <trkpt lat="46.6533" lon="-1.89754">
        <ele>8.8</ele>
        <time>2020-06-03T16:01:13Z</time>
      </trkpt>
      <trkpt lat="46.65334" lon="-1.8975">
        <ele>8.7</ele>
        <time>2020-06-03T16:01:14Z</time>
      </trkpt>
      <trkpt lat="46.65338" lon="-1.89746">
        <ele>8.6</ele>
        <time>2020-06-03T16:01:15Z</time>
      </trkpt>
      <trkpt lat="46.65344" lon="-1.89741">
        <ele>8.4</ele>
        <time>2020-06-03T16:01:16Z</time>
      </trkpt>
      <trkpt lat="46.65349" lon="-1.89736">
        <ele>8.3</ele>
        <time>2020-06-03T16:01:17Z</time>
      </trkpt>
      <trkpt lat="46.65354" lon="-1.89732">
        <ele>8.1</ele>
        <time>2020-06-03T16:01:18Z</time>
      </trkpt>
      <trkpt lat="46.65359" lon="-1.89727">
        <ele>8</ele>
        <time>2020-06-03T16:01:19Z</time>
      </trkpt>
      <trkpt lat="46.65363" lon="-1.89723">
        <ele>7.8</ele>
        <time>2020-06-03T16:01:20Z</time>
      </trkpt>
      <trkpt lat="46.65368" lon="-1.89718">
        <ele>7.7</ele>
        <time>2020-06-03T16:01:21Z</time>
      </trkpt>
      <trkpt lat="46.65372" lon="-1.89713">
        <ele>7.6</ele>
        <time>2020-06-03T16:01:22Z</time>
      </trkpt>
      <trkpt lat="46.65377" lon="-1.89708">
        <ele>7.5</ele>
        <time>2020-06-03T16:01:23Z</time>
      </trkpt>
      <trkpt lat="46.65382" lon="-1.897">
        <ele>7.3</ele>
        <time>2020-06-03T16:01:24Z</time>
      </trkpt>
      <trkpt lat="46.65386" lon="-1.89693">
        <ele>7.2</ele>
        <time>2020-06-03T16:01:25Z</time>
      </trkpt>
      <trkpt lat="46.65389" lon="-1.89685">
        <ele>7.1</ele>
        <time>2020-06-03T16:01:26Z</time>
      </trkpt>
      <trkpt lat="46.65393" lon="-1.89678">
        <ele>6.9</ele>
        <time>2020-06-03T16:01:27Z</time>
      </trkpt>
      <trkpt lat="46.65397" lon="-1.89671">
        <ele>6.8</ele>
        <time>2020-06-03T16:01:28Z</time>
      </trkpt>
      <trkpt lat="46.65401" lon="-1.89663">
        <ele>6.7</ele>
        <time>2020-06-03T16:01:29Z</time>
      </trkpt>
      <trkpt lat="46.65404" lon="-1.89656">
        <ele>6.6</ele>
        <time>2020-06-03T16:01:30Z</time>
      </trkpt>
      <trkpt lat="46.65408" lon="-1.8965">
        <ele>6.6</ele>
        <time>2020-06-03T16:01:31Z</time>
      </trkpt>
      <trkpt lat="46.65412" lon="-1.89644">
        <ele>6.5</ele>
        <time>2020-06-03T16:01:32Z</time>
      </trkpt>
      <trkpt lat="46.65416" lon="-1.89638">
        <ele>6.5</ele>
        <time>2020-06-03T16:01:33Z</time>
      </trkpt>
      <trkpt lat="46.6542" lon="-1.89634">
        <ele>6.4</ele>
        <time>2020-06-03T16:01:34Z</time>
      </trkpt>
      <trkpt lat="46.65424" lon="-1.89628">
        <ele>6.3</ele>
        <time>2020-06-03T16:01:35Z</time>
      </trkpt>
      <trkpt lat="46.65427" lon="-1.89624">
        <ele>6.2</ele>
        <time>2020-06-03T16:01:36Z</time>
      </trkpt>
      <trkpt lat="46.6543" lon="-1.8962">
        <ele>6.2</ele>
        <time>2020-06-03T16:01:37Z</time>
      </trkpt>
      <trkpt lat="46.65434" lon="-1.89617">
        <ele>6.1</ele>
        <time>2020-06-03T16:01:38Z</time>
      </trkpt>
      <trkpt lat="46.65438" lon="-1.89614">
        <ele>6</ele>
        <time>2020-06-03T16:01:39Z</time>
      </trkpt>
      <trkpt lat="46.65442" lon="-1.89611">
        <ele>5.9</ele>
        <time>2020-06-03T16:01:40Z</time>
      </trkpt>
      <trkpt lat="46.65448" lon="-1.89609">
        <ele>5.8</ele>
        <time>2020-06-03T16:01:41Z</time>
      </trkpt>
      <trkpt lat="46.65453" lon="-1.89608">
        <ele>5.8</ele>
        <time>2020-06-03T16:01:42Z</time>
      </trkpt>
      <trkpt lat="46.65459" lon="-1.89609">
        <ele>5.8</ele>
        <time>2020-06-03T16:01:43Z</time>
      </trkpt>
      <trkpt lat="46.65465" lon="-1.89611">
        <ele>5.8</ele>
        <time>2020-06-03T16:01:44Z</time>
      </trkpt>
      <trkpt lat="46.65471" lon="-1.89613">
        <ele>5.7</ele>
        <time>2020-06-03T16:01:45Z</time>
      </trkpt>
      <trkpt lat="46.65477" lon="-1.89616">
        <ele>5.7</ele>
        <time>2020-06-03T16:01:46Z</time>
      </trkpt>
      <trkpt lat="46.65482" lon="-1.89618">
        <ele>5.7</ele>
        <time>2020-06-03T16:01:47Z</time>
      </trkpt>
      <trkpt lat="46.65487" lon="-1.89621">
        <ele>5.7</ele>
        <time>2020-06-03T16:01:48Z</time>
      </trkpt>
      <trkpt lat="46.65493" lon="-1.89624">
        <ele>5.7</ele>
        <time>2020-06-03T16:01:49Z</time>
      </trkpt>
      <trkpt lat="46.65499" lon="-1.89627">
        <ele>5.7</ele>
        <time>2020-06-03T16:01:50Z</time>
      </trkpt>
      <trkpt lat="46.65505" lon="-1.8963">
        <ele>5.7</ele>
        <time>2020-06-03T16:01:51Z</time>
      </trkpt>
      <trkpt lat="46.65511" lon="-1.89635">
        <ele>5.7</ele>
        <time>2020-06-03T16:01:52Z</time>
      </trkpt>
      <trkpt lat="46.65517" lon="-1.8964">
        <ele>5.7</ele>
        <time>2020-06-03T16:01:53Z</time>
      </trkpt>
      <trkpt lat="46.65523" lon="-1.89645">
        <ele>5.6</ele>
        <time>2020-06-03T16:01:54Z</time>
      </trkpt>
      <trkpt lat="46.65528" lon="-1.8965">
        <ele>5.6</ele>
        <time>2020-06-03T16:01:55Z</time>
      </trkpt>
      <trkpt lat="46.65533" lon="-1.89655">
        <ele>5.5</ele>
        <time>2020-06-03T16:01:56Z</time>
      </trkpt>
      <trkpt lat="46.65538" lon="-1.8966">
        <ele>5.5</ele>
        <time>2020-06-03T16:01:57Z</time>
      </trkpt>
      <trkpt lat="46.65544" lon="-1.89665">
        <ele>5.5</ele>
        <time>2020-06-03T16:01:58Z</time>
      </trkpt>
      <trkpt lat="46.65549" lon="-1.89668">
        <ele>5.5</ele>
        <time>2020-06-03T16:01:59Z</time>
      </trkpt>
      <trkpt lat="46.65555" lon="-1.89673">
        <ele>5.5</ele>
        <time>2020-06-03T16:02:00Z</time>
      </trkpt>
      <trkpt lat="46.65561" lon="-1.89677">
        <ele>5.5</ele>
        <time>2020-06-03T16:02:01Z</time>
      </trkpt>
      <trkpt lat="46.65566" lon="-1.8968">
        <ele>5.5</ele>
        <time>2020-06-03T16:02:02Z</time>
      </trkpt>
      <trkpt lat="46.65571" lon="-1.89685">
        <ele>5.5</ele>
        <time>2020-06-03T16:02:03Z</time>
      </trkpt>
      <trkpt lat="46.65577" lon="-1.89689">
        <ele>5.5</ele>
        <time>2020-06-03T16:02:04Z</time>
      </trkpt>
      <trkpt lat="46.65582" lon="-1.89692">
        <ele>5.4</ele>
        <time>2020-06-03T16:02:05Z</time>
      </trkpt>
      <trkpt lat="46.65587" lon="-1.89696">
        <ele>5.4</ele>
        <time>2020-06-03T16:02:06Z</time>
      </trkpt>
      <trkpt lat="46.65592" lon="-1.89699">
        <ele>5.3</ele>
        <time>2020-06-03T16:02:07Z</time>
      </trkpt>
      <trkpt lat="46.65596" lon="-1.89702">
        <ele>5.2</ele>
        <time>2020-06-03T16:02:08Z</time>
      </trkpt>
      <trkpt lat="46.65602" lon="-1.89705">
        <ele>5.2</ele>
        <time>2020-06-03T16:02:09Z</time>
      </trkpt>
      <trkpt lat="46.65606" lon="-1.89708">
        <ele>5.1</ele>
        <time>2020-06-03T16:02:10Z</time>
      </trkpt>
      <trkpt lat="46.65611" lon="-1.89711">
        <ele>5</ele>
        <time>2020-06-03T16:02:11Z</time>
      </trkpt>
      <trkpt lat="46.65615" lon="-1.89714">
        <ele>5</ele>
        <time>2020-06-03T16:02:12Z</time>
      </trkpt>
      <trkpt lat="46.65619" lon="-1.89716">
        <ele>4.9</ele>
        <time>2020-06-03T16:02:13Z</time>
      </trkpt>
      <trkpt lat="46.65622" lon="-1.89718">
        <ele>4.9</ele>
        <time>2020-06-03T16:02:14Z</time>
      </trkpt>
      <trkpt lat="46.65625" lon="-1.89719">
        <ele>4.9</ele>
        <time>2020-06-03T16:02:15Z</time>
      </trkpt>
      <trkpt lat="46.65626" lon="-1.8972">
        <ele>4.9</ele>
        <time>2020-06-03T16:02:16Z</time>
      </trkpt>
      <trkpt lat="46.6563" lon="-1.89721">
        <ele>4.9</ele>
        <time>2020-06-03T16:02:17Z</time>
      </trkpt>
      <trkpt lat="46.65634" lon="-1.89725">
        <ele>4.8</ele>
        <time>2020-06-03T16:02:18Z</time>
      </trkpt>
      <trkpt lat="46.65639" lon="-1.89729">
        <ele>4.8</ele>
        <time>2020-06-03T16:02:19Z</time>
      </trkpt>
      <trkpt lat="46.65646" lon="-1.89734">
        <ele>4.8</ele>
        <time>2020-06-03T16:02:20Z</time>
      </trkpt>
      <trkpt lat="46.65652" lon="-1.89739">
        <ele>4.8</ele>
        <time>2020-06-03T16:02:21Z</time>
      </trkpt>
      <trkpt lat="46.65659" lon="-1.89744">
        <ele>4.8</ele>
        <time>2020-06-03T16:02:22Z</time>
      </trkpt>
      <trkpt lat="46.65664" lon="-1.89748">
        <ele>4.8</ele>
        <time>2020-06-03T16:02:23Z</time>
      </trkpt>
      <trkpt lat="46.65669" lon="-1.8975">
        <ele>4.8</ele>
        <time>2020-06-03T16:02:24Z</time>
      </trkpt>
      <trkpt lat="46.65673" lon="-1.89753">
        <ele>4.8</ele>
        <time>2020-06-03T16:02:25Z</time>
      </trkpt>
      <trkpt lat="46.65678" lon="-1.89756">
        <ele>4.8</ele>
        <time>2020-06-03T16:02:26Z</time>
      </trkpt>
      <trkpt lat="46.65682" lon="-1.89758">
        <ele>4.7</ele>
        <time>2020-06-03T16:02:27Z</time>
      </trkpt>
      <trkpt lat="46.65686" lon="-1.89761">
        <ele>4.7</ele>
        <time>2020-06-03T16:02:28Z</time>
      </trkpt>
      <trkpt lat="46.6569" lon="-1.89764">
        <ele>4.7</ele>
        <time>2020-06-03T16:02:29Z</time>
      </trkpt>
      <trkpt lat="46.65694" lon="-1.89767">
        <ele>4.6</ele>
        <time>2020-06-03T16:02:30Z</time>
      </trkpt>
      <trkpt lat="46.65698" lon="-1.8977">
        <ele>4.6</ele>
        <time>2020-06-03T16:02:31Z</time>
      </trkpt>
      <trkpt lat="46.65702" lon="-1.89776">
        <ele>4.5</ele>
        <time>2020-06-03T16:02:32Z</time>
      </trkpt>
      <trkpt lat="46.65706" lon="-1.89781">
        <ele>4.5</ele>
        <time>2020-06-03T16:02:33Z</time>
      </trkpt>
      <trkpt lat="46.65711" lon="-1.89785">
        <ele>4.4</ele>
        <time>2020-06-03T16:02:34Z</time>
      </trkpt>
      <trkpt lat="46.65716" lon="-1.89789">
        <ele>4.4</ele>
        <time>2020-06-03T16:02:35Z</time>
      </trkpt>
      <trkpt lat="46.65722" lon="-1.89792">
        <ele>4.4</ele>
        <time>2020-06-03T16:02:36Z</time>
      </trkpt>
      <trkpt lat="46.65728" lon="-1.89796">
        <ele>4.3</ele>
        <time>2020-06-03T16:02:37Z</time>
      </trkpt>
      <trkpt lat="46.65735" lon="-1.898">
        <ele>4.3</ele>
        <time>2020-06-03T16:02:38Z</time>
      </trkpt>
      <trkpt lat="46.6574" lon="-1.89804">
        <ele>4.3</ele>
        <time>2020-06-03T16:02:39Z</time>
      </trkpt>
      <trkpt lat="46.65746" lon="-1.89807">
        <ele>4.3</ele>
        <time>2020-06-03T16:02:40Z</time>
      </trkpt>
      <trkpt lat="46.65752" lon="-1.8981">
        <ele>4.3</ele>
        <time>2020-06-03T16:02:41Z</time>
      </trkpt>
      <trkpt lat="46.65758" lon="-1.89813">
        <ele>4.2</ele>
        <time>2020-06-03T16:02:42Z</time>
      </trkpt>
      <trkpt lat="46.65763" lon="-1.89816">
        <ele>4.2</ele>
        <time>2020-06-03T16:02:43Z</time>
      </trkpt>
      <trkpt lat="46.65768" lon="-1.89818">
        <ele>4.2</ele>
        <time>2020-06-03T16:02:44Z</time>
      </trkpt>
      <trkpt lat="46.65773" lon="-1.8982">
        <ele>4.1</ele>
        <time>2020-06-03T16:02:45Z</time>
      </trkpt>
      <trkpt lat="46.65779" lon="-1.89823">
        <ele>4.1</ele>
        <time>2020-06-03T16:02:46Z</time>
      </trkpt>
      <trkpt lat="46.65785" lon="-1.89826">
        <ele>4</ele>
        <time>2020-06-03T16:02:47Z</time>
      </trkpt>
      <trkpt lat="46.65791" lon="-1.89828">
        <ele>4</ele>
        <time>2020-06-03T16:02:48Z</time>
      </trkpt>
      <trkpt lat="46.65796" lon="-1.89832">
        <ele>3.9</ele>
        <time>2020-06-03T16:02:49Z</time>
      </trkpt>
      <trkpt lat="46.65802" lon="-1.89836">
        <ele>3.9</ele>
        <time>2020-06-03T16:02:50Z</time>
      </trkpt>
      <trkpt lat="46.65808" lon="-1.8984">
        <ele>3.8</ele>
        <time>2020-06-03T16:02:51Z</time>
      </trkpt>
      <trkpt lat="46.65814" lon="-1.89844">
        <ele>3.8</ele>
        <time>2020-06-03T16:02:52Z</time>
      </trkpt>
      <trkpt lat="46.65819" lon="-1.89849">
        <ele>3.8</ele>
        <time>2020-06-03T16:02:53Z</time>
      </trkpt>
      <trkpt lat="46.65824" lon="-1.89853">
        <ele>3.8</ele>
        <time>2020-06-03T16:02:54Z</time>
      </trkpt>
      <trkpt lat="46.6583" lon="-1.89858">
        <ele>3.8</ele>
        <time>2020-06-03T16:02:55Z</time>
      </trkpt>
      <trkpt lat="46.65835" lon="-1.89864">
        <ele>3.8</ele>
        <time>2020-06-03T16:02:56Z</time>
      </trkpt>
      <trkpt lat="46.6584" lon="-1.89869">
        <ele>3.8</ele>
        <time>2020-06-03T16:02:57Z</time>
      </trkpt>
      <trkpt lat="46.65845" lon="-1.89873">
        <ele>3.8</ele>
        <time>2020-06-03T16:02:58Z</time>
      </trkpt>
      <trkpt lat="46.65851" lon="-1.89877">
        <ele>3.8</ele>
        <time>2020-06-03T16:02:59Z</time>
      </trkpt>
      <trkpt lat="46.65857" lon="-1.89881">
        <ele>3.8</ele>
        <time>2020-06-03T16:03:00Z</time>
      </trkpt>
      <trkpt lat="46.65863" lon="-1.89885">
        <ele>3.8</ele>
        <time>2020-06-03T16:03:01Z</time>
      </trkpt>
      <trkpt lat="46.65868" lon="-1.89889">
        <ele>3.8</ele>
        <time>2020-06-03T16:03:02Z</time>
      </trkpt>
      <trkpt lat="46.65873" lon="-1.89893">
        <ele>3.8</ele>
        <time>2020-06-03T16:03:03Z</time>
      </trkpt>
      <trkpt lat="46.65877" lon="-1.89894">
        <ele>3.8</ele>
        <time>2020-06-03T16:03:04Z</time>
      </trkpt>
      <trkpt lat="46.65882" lon="-1.89896">
        <ele>3.8</ele>
        <time>2020-06-03T16:03:05Z</time>
      </trkpt>
      <trkpt lat="46.65886" lon="-1.89898">
        <ele>3.8</ele>
        <time>2020-06-03T16:03:06Z</time>
      </trkpt>
      <trkpt lat="46.65892" lon="-1.899">
        <ele>3.7</ele>
        <time>2020-06-03T16:03:07Z</time>
      </trkpt>
      <trkpt lat="46.65897" lon="-1.89903">
        <ele>3.8</ele>
        <time>2020-06-03T16:03:08Z</time>
      </trkpt>
      <trkpt lat="46.65902" lon="-1.89907">
        <ele>3.8</ele>
        <time>2020-06-03T16:03:09Z</time>
      </trkpt>
      <trkpt lat="46.65908" lon="-1.89911">
        <ele>3.8</ele>
        <time>2020-06-03T16:03:10Z</time>
      </trkpt>
      <trkpt lat="46.65913" lon="-1.89914">
        <ele>3.9</ele>
        <time>2020-06-03T16:03:11Z</time>
      </trkpt>
      <trkpt lat="46.6592" lon="-1.89917">
        <ele>4.1</ele>
        <time>2020-06-03T16:03:12Z</time>
      </trkpt>
      <trkpt lat="46.65927" lon="-1.8992">
        <ele>4.4</ele>
        <time>2020-06-03T16:03:13Z</time>
      </trkpt>
      <trkpt lat="46.65933" lon="-1.89924">
        <ele>4.7</ele>
        <time>2020-06-03T16:03:14Z</time>
      </trkpt>
      <trkpt lat="46.65937" lon="-1.89928">
        <ele>4.9</ele>
        <time>2020-06-03T16:03:15Z</time>
      </trkpt>
      <trkpt lat="46.65941" lon="-1.89931">
        <ele>5.1</ele>
        <time>2020-06-03T16:03:16Z</time>
      </trkpt>
      <trkpt lat="46.65946" lon="-1.89934">
        <ele>5.3</ele>
        <time>2020-06-03T16:03:17Z</time>
      </trkpt>
      <trkpt lat="46.65951" lon="-1.89937">
        <ele>5.5</ele>
        <time>2020-06-03T16:03:18Z</time>
      </trkpt>
      <trkpt lat="46.65956" lon="-1.8994">
        <ele>5.6</ele>
        <time>2020-06-03T16:03:19Z</time>
      </trkpt>
      <trkpt lat="46.65961" lon="-1.89942">
        <ele>5.7</ele>
        <time>2020-06-03T16:03:20Z</time>
      </trkpt>
      <trkpt lat="46.65966" lon="-1.89943">
        <ele>5.7</ele>
        <time>2020-06-03T16:03:21Z</time>
      </trkpt>
      <trkpt lat="46.65971" lon="-1.89944">
        <ele>5.6</ele>
        <time>2020-06-03T16:03:22Z</time>
      </trkpt>
      <trkpt lat="46.65979" lon="-1.89947">
        <ele>5.5</ele>
        <time>2020-06-03T16:03:23Z</time>
      </trkpt>
      <trkpt lat="46.65987" lon="-1.8995">
        <ele>5.3</ele>
        <time>2020-06-03T16:03:24Z</time>
      </trkpt>
      <trkpt lat="46.65993" lon="-1.89955">
        <ele>5.1</ele>
        <time>2020-06-03T16:03:25Z</time>
      </trkpt>
      <trkpt lat="46.65998" lon="-1.89961">
        <ele>5</ele>
        <time>2020-06-03T16:03:26Z</time>
      </trkpt>
      <trkpt lat="46.66004" lon="-1.89967">
        <ele>4.9</ele>
        <time>2020-06-03T16:03:27Z</time>
      </trkpt>
      <trkpt lat="46.6601" lon="-1.89972">
        <ele>4.8</ele>
        <time>2020-06-03T16:03:28Z</time>
      </trkpt>
      <trkpt lat="46.66016" lon="-1.89977">
        <ele>4.8</ele>
        <time>2020-06-03T16:03:29Z</time>
      </trkpt>
      <trkpt lat="46.66021" lon="-1.8998">
        <ele>4.7</ele>
        <time>2020-06-03T16:03:30Z</time>
      </trkpt>
      <trkpt lat="46.66026" lon="-1.89982">
        <ele>4.7</ele>
        <time>2020-06-03T16:03:31Z</time>
      </trkpt>
      <trkpt lat="46.66031" lon="-1.89982">
        <ele>4.7</ele>
        <time>2020-06-03T16:03:32Z</time>
      </trkpt>
      <trkpt lat="46.66035" lon="-1.89983">
        <ele>4.6</ele>
        <time>2020-06-03T16:03:33Z</time>
      </trkpt>
      <trkpt lat="46.66039" lon="-1.89985">
        <ele>4.6</ele>
        <time>2020-06-03T16:03:34Z</time>
      </trkpt>
      <trkpt lat="46.66043" lon="-1.89988">
        <ele>4.5</ele>
        <time>2020-06-03T16:03:35Z</time>
      </trkpt>
      <trkpt lat="46.66046" lon="-1.89992">
        <ele>4.4</ele>
        <time>2020-06-03T16:03:36Z</time>
      </trkpt>
      <trkpt lat="46.6605" lon="-1.89996">
        <ele>4.4</ele>
        <time>2020-06-03T16:03:37Z</time>
      </trkpt>
      <trkpt lat="46.66054" lon="-1.90001">
        <ele>4.3</ele>
        <time>2020-06-03T16:03:38Z</time>
      </trkpt>
      <trkpt lat="46.66058" lon="-1.90009">
        <ele>4.2</ele>
        <time>2020-06-03T16:03:39Z</time>
      </trkpt>
      <trkpt lat="46.66062" lon="-1.90017">
        <ele>4.1</ele>
        <time>2020-06-03T16:03:40Z</time>
      </trkpt>
      <trkpt lat="46.66065" lon="-1.90024">
        <ele>4</ele>
        <time>2020-06-03T16:03:41Z</time>
      </trkpt>
      <trkpt lat="46.66068" lon="-1.9003">
        <ele>4</ele>
        <time>2020-06-03T16:03:42Z</time>
      </trkpt>
      <trkpt lat="46.66071" lon="-1.90035">
        <ele>4</ele>
        <time>2020-06-03T16:03:43Z</time>
      </trkpt>
      <trkpt lat="46.66074" lon="-1.90041">
        <ele>4</ele>
        <time>2020-06-03T16:03:44Z</time>
      </trkpt>
      <trkpt lat="46.66078" lon="-1.90046">
        <ele>4</ele>
        <time>2020-06-03T16:03:45Z</time>
      </trkpt>
      <trkpt lat="46.6608" lon="-1.9005">
        <ele>4</ele>
        <time>2020-06-03T16:03:46Z</time>
      </trkpt>
      <trkpt lat="46.66084" lon="-1.90055">
        <ele>4</ele>
        <time>2020-06-03T16:03:47Z</time>
      </trkpt>
      <trkpt lat="46.66088" lon="-1.90061">
        <ele>4</ele>
        <time>2020-06-03T16:03:48Z</time>
      </trkpt>
      <trkpt lat="46.66092" lon="-1.90066">
        <ele>4</ele>
        <time>2020-06-03T16:03:49Z</time>
      </trkpt>
      <trkpt lat="46.66095" lon="-1.9007">
        <ele>4</ele>
        <time>2020-06-03T16:03:50Z</time>
      </trkpt>
      <trkpt lat="46.66098" lon="-1.90075">
        <ele>4</ele>
        <time>2020-06-03T16:03:51Z</time>
      </trkpt>
      <trkpt lat="46.661" lon="-1.90084">
        <ele>4</ele>
        <time>2020-06-03T16:03:52Z</time>
      </trkpt>
      <trkpt lat="46.66102" lon="-1.90093">
        <ele>4</ele>
        <time>2020-06-03T16:03:53Z</time>
      </trkpt>
      <trkpt lat="46.66104" lon="-1.90101">
        <ele>4.1</ele>
        <time>2020-06-03T16:03:54Z</time>
      </trkpt>
      <trkpt lat="46.66105" lon="-1.90108">
        <ele>4.2</ele>
        <time>2020-06-03T16:03:55Z</time>
      </trkpt>
      <trkpt lat="46.66105" lon="-1.90114">
        <ele>4.2</ele>
        <time>2020-06-03T16:03:56Z</time>
      </trkpt>
      <trkpt lat="46.66107" lon="-1.9012">
        <ele>4.3</ele>
        <time>2020-06-03T16:03:57Z</time>
      </trkpt>
      <trkpt lat="46.6611" lon="-1.90126">
        <ele>4.4</ele>
        <time>2020-06-03T16:03:58Z</time>
      </trkpt>
      <trkpt lat="46.66111" lon="-1.90132">
        <ele>4.5</ele>
        <time>2020-06-03T16:03:59Z</time>
      </trkpt>
      <trkpt lat="46.66113" lon="-1.90139">
        <ele>4.6</ele>
        <time>2020-06-03T16:04:00Z</time>
      </trkpt>
      <trkpt lat="46.66114" lon="-1.90145">
        <ele>4.7</ele>
        <time>2020-06-03T16:04:01Z</time>
      </trkpt>
      <trkpt lat="46.66114" lon="-1.90151">
        <ele>4.7</ele>
        <time>2020-06-03T16:04:02Z</time>
      </trkpt>
      <trkpt lat="46.66114" lon="-1.90156">
        <ele>4.8</ele>
        <time>2020-06-03T16:04:03Z</time>
      </trkpt>
      <trkpt lat="46.66115" lon="-1.90161">
        <ele>4.8</ele>
        <time>2020-06-03T16:04:04Z</time>
      </trkpt>
      <trkpt lat="46.66116" lon="-1.90167">
        <ele>4.8</ele>
        <time>2020-06-03T16:04:05Z</time>
      </trkpt>
      <trkpt lat="46.66117" lon="-1.90173">
        <ele>4.9</ele>
        <time>2020-06-03T16:04:06Z</time>
      </trkpt>
      <trkpt lat="46.66116" lon="-1.90178">
        <ele>4.9</ele>
        <time>2020-06-03T16:04:07Z</time>
      </trkpt>
      <trkpt lat="46.66114" lon="-1.90184">
        <ele>4.9</ele>
        <time>2020-06-03T16:04:08Z</time>
      </trkpt>
      <trkpt lat="46.66112" lon="-1.9019">
        <ele>4.9</ele>
        <time>2020-06-03T16:04:09Z</time>
      </trkpt>
      <trkpt lat="46.6611" lon="-1.90197">
        <ele>4.9</ele>
        <time>2020-06-03T16:04:10Z</time>
      </trkpt>
      <trkpt lat="46.6611" lon="-1.90204">
        <ele>5</ele>
        <time>2020-06-03T16:04:11Z</time>
      </trkpt>
      <trkpt lat="46.66109" lon="-1.90209">
        <ele>5</ele>
        <time>2020-06-03T16:04:12Z</time>
      </trkpt>
      <trkpt lat="46.66109" lon="-1.90214">
        <ele>5</ele>
        <time>2020-06-03T16:04:13Z</time>
      </trkpt>
      <trkpt lat="46.66108" lon="-1.9022">
        <ele>5</ele>
        <time>2020-06-03T16:04:14Z</time>
      </trkpt>
      <trkpt lat="46.66106" lon="-1.90227">
        <ele>5.1</ele>
        <time>2020-06-03T16:04:15Z</time>
      </trkpt>
      <trkpt lat="46.66105" lon="-1.90234">
        <ele>5.1</ele>
        <time>2020-06-03T16:04:16Z</time>
      </trkpt>
      <trkpt lat="46.66101" lon="-1.90242">
        <ele>5.2</ele>
        <time>2020-06-03T16:04:17Z</time>
      </trkpt>
      <trkpt lat="46.66098" lon="-1.90251">
        <ele>5.2</ele>
        <time>2020-06-03T16:04:18Z</time>
      </trkpt>
      <trkpt lat="46.66095" lon="-1.90258">
        <ele>5.3</ele>
        <time>2020-06-03T16:04:19Z</time>
      </trkpt>
      <trkpt lat="46.66093" lon="-1.90265">
        <ele>5.3</ele>
        <time>2020-06-03T16:04:20Z</time>
      </trkpt>
      <trkpt lat="46.66091" lon="-1.90272">
        <ele>5.4</ele>
        <time>2020-06-03T16:04:21Z</time>
      </trkpt>
      <trkpt lat="46.6609" lon="-1.90279">
        <ele>5.4</ele>
        <time>2020-06-03T16:04:22Z</time>
      </trkpt>
      <trkpt lat="46.66091" lon="-1.9029">
        <ele>5.4</ele>
        <time>2020-06-03T16:04:23Z</time>
      </trkpt>
      <trkpt lat="46.66092" lon="-1.90298">
        <ele>5.4</ele>
        <time>2020-06-03T16:04:24Z</time>
      </trkpt>
      <trkpt lat="46.66093" lon="-1.90305">
        <ele>5.4</ele>
        <time>2020-06-03T16:04:25Z</time>
      </trkpt>
      <trkpt lat="46.66093" lon="-1.90313">
        <ele>5.3</ele>
        <time>2020-06-03T16:04:26Z</time>
      </trkpt>
      <trkpt lat="46.66093" lon="-1.9032">
        <ele>5.2</ele>
        <time>2020-06-03T16:04:27Z</time>
      </trkpt>
      <trkpt lat="46.66093" lon="-1.90328">
        <ele>5.1</ele>
        <time>2020-06-03T16:04:28Z</time>
      </trkpt>
      <trkpt lat="46.66091" lon="-1.90337">
        <ele>4.9</ele>
        <time>2020-06-03T16:04:29Z</time>
      </trkpt>
      <trkpt lat="46.66092" lon="-1.90345">
        <ele>4.8</ele>
        <time>2020-06-03T16:04:30Z</time>
      </trkpt>
      <trkpt lat="46.66093" lon="-1.90354">
        <ele>4.6</ele>
        <time>2020-06-03T16:04:31Z</time>
      </trkpt>
      <trkpt lat="46.66093" lon="-1.90362">
        <ele>4.5</ele>
        <time>2020-06-03T16:04:32Z</time>
      </trkpt>
      <trkpt lat="46.66094" lon="-1.90373">
        <ele>4.3</ele>
        <time>2020-06-03T16:04:33Z</time>
      </trkpt>
      <trkpt lat="46.66095" lon="-1.90383">
        <ele>4.1</ele>
        <time>2020-06-03T16:04:34Z</time>
      </trkpt>
      <trkpt lat="46.66096" lon="-1.90393">
        <ele>4</ele>
        <time>2020-06-03T16:04:35Z</time>
      </trkpt>
      <trkpt lat="46.66096" lon="-1.90402">
        <ele>4</ele>
        <time>2020-06-03T16:04:36Z</time>
      </trkpt>
      <trkpt lat="46.66096" lon="-1.90413">
        <ele>4</ele>
        <time>2020-06-03T16:04:37Z</time>
      </trkpt>
      <trkpt lat="46.66096" lon="-1.90426">
        <ele>3.9</ele>
        <time>2020-06-03T16:04:38Z</time>
      </trkpt>
      <trkpt lat="46.66096" lon="-1.90438">
        <ele>3.9</ele>
        <time>2020-06-03T16:04:39Z</time>
      </trkpt>
      <trkpt lat="46.66098" lon="-1.90447">
        <ele>3.9</ele>
        <time>2020-06-03T16:04:40Z</time>
      </trkpt>
      <trkpt lat="46.661" lon="-1.90456">
        <ele>3.9</ele>
        <time>2020-06-03T16:04:41Z</time>
      </trkpt>
      <trkpt lat="46.66102" lon="-1.90464">
        <ele>3.8</ele>
        <time>2020-06-03T16:04:42Z</time>
      </trkpt>
      <trkpt lat="46.66105" lon="-1.90475">
        <ele>3.8</ele>
        <time>2020-06-03T16:04:43Z</time>
      </trkpt>
      <trkpt lat="46.66107" lon="-1.90486">
        <ele>3.7</ele>
        <time>2020-06-03T16:04:44Z</time>
      </trkpt>
      <trkpt lat="46.66109" lon="-1.90496">
        <ele>3.7</ele>
        <time>2020-06-03T16:04:45Z</time>
      </trkpt>
      <trkpt lat="46.66111" lon="-1.90507">
        <ele>3.6</ele>
        <time>2020-06-03T16:04:46Z</time>
      </trkpt>
      <trkpt lat="46.66112" lon="-1.90518">
        <ele>3.6</ele>
        <time>2020-06-03T16:04:47Z</time>
      </trkpt>
      <trkpt lat="46.66113" lon="-1.90526">
        <ele>3.6</ele>
        <time>2020-06-03T16:04:48Z</time>
      </trkpt>
      <trkpt lat="46.66116" lon="-1.90532">
        <ele>3.5</ele>
        <time>2020-06-03T16:04:49Z</time>
      </trkpt>
      <trkpt lat="46.6612" lon="-1.90538">
        <ele>3.5</ele>
        <time>2020-06-03T16:04:50Z</time>
      </trkpt>
      <trkpt lat="46.66123" lon="-1.90543">
        <ele>3.5</ele>
        <time>2020-06-03T16:04:51Z</time>
      </trkpt>
      <trkpt lat="46.66127" lon="-1.90553">
        <ele>3.5</ele>
        <time>2020-06-03T16:04:52Z</time>
      </trkpt>
      <trkpt lat="46.6613" lon="-1.90562">
        <ele>3.5</ele>
        <time>2020-06-03T16:04:53Z</time>
      </trkpt>
      <trkpt lat="46.66133" lon="-1.9057">
        <ele>3.5</ele>
        <time>2020-06-03T16:04:54Z</time>
      </trkpt>
      <trkpt lat="46.66138" lon="-1.90577">
        <ele>3.4</ele>
        <time>2020-06-03T16:04:55Z</time>
      </trkpt>
      <trkpt lat="46.66142" lon="-1.90583">
        <ele>3.4</ele>
        <time>2020-06-03T16:04:56Z</time>
      </trkpt>
      <trkpt lat="46.66146" lon="-1.90588">
        <ele>3.4</ele>
        <time>2020-06-03T16:04:57Z</time>
      </trkpt>
      <trkpt lat="46.66149" lon="-1.90594">
        <ele>3.4</ele>
        <time>2020-06-03T16:04:58Z</time>
      </trkpt>
      <trkpt lat="46.66152" lon="-1.90598">
        <ele>3.4</ele>
        <time>2020-06-03T16:04:59Z</time>
      </trkpt>
      <trkpt lat="46.66156" lon="-1.906">
        <ele>3.4</ele>
        <time>2020-06-03T16:05:00Z</time>
      </trkpt>
      <trkpt lat="46.6616" lon="-1.90602">
        <ele>3.4</ele>
        <time>2020-06-03T16:05:01Z</time>
      </trkpt>
      <trkpt lat="46.66165" lon="-1.90603">
        <ele>3.4</ele>
        <time>2020-06-03T16:05:02Z</time>
      </trkpt>
      <trkpt lat="46.66169" lon="-1.90603">
        <ele>3.3</ele>
        <time>2020-06-03T16:05:03Z</time>
      </trkpt>
      <trkpt lat="46.66175" lon="-1.90603">
        <ele>3.3</ele>
        <time>2020-06-03T16:05:04Z</time>
      </trkpt>
      <trkpt lat="46.66181" lon="-1.90602">
        <ele>3.3</ele>
        <time>2020-06-03T16:05:05Z</time>
      </trkpt>
      <trkpt lat="46.66188" lon="-1.90602">
        <ele>3.3</ele>
        <time>2020-06-03T16:05:06Z</time>
      </trkpt>
      <trkpt lat="46.66196" lon="-1.90604">
        <ele>3.3</ele>
        <time>2020-06-03T16:05:07Z</time>
      </trkpt>
      <trkpt lat="46.66202" lon="-1.90605">
        <ele>3.3</ele>
        <time>2020-06-03T16:05:08Z</time>
      </trkpt>
      <trkpt lat="46.66209" lon="-1.90606">
        <ele>3.3</ele>
        <time>2020-06-03T16:05:09Z</time>
      </trkpt>
      <trkpt lat="46.66216" lon="-1.90608">
        <ele>3.2</ele>
        <time>2020-06-03T16:05:10Z</time>
      </trkpt>
      <trkpt lat="46.66222" lon="-1.90611">
        <ele>3.2</ele>
        <time>2020-06-03T16:05:11Z</time>
      </trkpt>
      <trkpt lat="46.66229" lon="-1.90612">
        <ele>3.2</ele>
        <time>2020-06-03T16:05:12Z</time>
      </trkpt>
      <trkpt lat="46.66235" lon="-1.90615">
        <ele>3.2</ele>
        <time>2020-06-03T16:05:13Z</time>
      </trkpt>
      <trkpt lat="46.6624" lon="-1.90617">
        <ele>3.2</ele>
        <time>2020-06-03T16:05:14Z</time>
      </trkpt>
      <trkpt lat="46.66245" lon="-1.90618">
        <ele>3.1</ele>
        <time>2020-06-03T16:05:15Z</time>
      </trkpt>
      <trkpt lat="46.66251" lon="-1.9062">
        <ele>3.1</ele>
        <time>2020-06-03T16:05:16Z</time>
      </trkpt>
      <trkpt lat="46.66255" lon="-1.90621">
        <ele>3.1</ele>
        <time>2020-06-03T16:05:17Z</time>
      </trkpt>
      <trkpt lat="46.6626" lon="-1.90621">
        <ele>3.1</ele>
        <time>2020-06-03T16:05:18Z</time>
      </trkpt>
      <trkpt lat="46.66264" lon="-1.90622">
        <ele>3</ele>
        <time>2020-06-03T16:05:19Z</time>
      </trkpt>
      <trkpt lat="46.66268" lon="-1.90622">
        <ele>3</ele>
        <time>2020-06-03T16:05:20Z</time>
      </trkpt>
      <trkpt lat="46.66272" lon="-1.90622">
        <ele>3</ele>
        <time>2020-06-03T16:05:21Z</time>
      </trkpt>
      <trkpt lat="46.66276" lon="-1.90623">
        <ele>3</ele>
        <time>2020-06-03T16:05:22Z</time>
      </trkpt>
      <trkpt lat="46.6628" lon="-1.90623">
        <ele>2.9</ele>
        <time>2020-06-03T16:05:23Z</time>
      </trkpt>
      <trkpt lat="46.66285" lon="-1.90622">
        <ele>2.9</ele>
        <time>2020-06-03T16:05:24Z</time>
      </trkpt>
      <trkpt lat="46.6629" lon="-1.90623">
        <ele>2.9</ele>
        <time>2020-06-03T16:05:25Z</time>
      </trkpt>
      <trkpt lat="46.66296" lon="-1.90625">
        <ele>2.8</ele>
        <time>2020-06-03T16:05:26Z</time>
      </trkpt>
      <trkpt lat="46.66302" lon="-1.90627">
        <ele>2.8</ele>
        <time>2020-06-03T16:05:27Z</time>
      </trkpt>
      <trkpt lat="46.66309" lon="-1.90629">
        <ele>2.8</ele>
        <time>2020-06-03T16:05:28Z</time>
      </trkpt>
      <trkpt lat="46.66315" lon="-1.90632">
        <ele>2.8</ele>
        <time>2020-06-03T16:05:29Z</time>
      </trkpt>
      <trkpt lat="46.66321" lon="-1.90633">
        <ele>2.8</ele>
        <time>2020-06-03T16:05:30Z</time>
      </trkpt>
      <trkpt lat="46.66326" lon="-1.90635">
        <ele>2.8</ele>
        <time>2020-06-03T16:05:31Z</time>
      </trkpt>
      <trkpt lat="46.66332" lon="-1.90637">
        <ele>2.8</ele>
        <time>2020-06-03T16:05:32Z</time>
      </trkpt>
      <trkpt lat="46.66338" lon="-1.90638">
        <ele>2.8</ele>
        <time>2020-06-03T16:05:33Z</time>
      </trkpt>
      <trkpt lat="46.66344" lon="-1.90638">
        <ele>2.9</ele>
        <time>2020-06-03T16:05:34Z</time>
      </trkpt>
      <trkpt lat="46.6635" lon="-1.90638">
        <ele>2.9</ele>
        <time>2020-06-03T16:05:35Z</time>
      </trkpt>
      <trkpt lat="46.66356" lon="-1.90638">
        <ele>3</ele>
        <time>2020-06-03T16:05:36Z</time>
      </trkpt>
      <trkpt lat="46.6636" lon="-1.90638">
        <ele>3</ele>
        <time>2020-06-03T16:05:37Z</time>
      </trkpt>
      <trkpt lat="46.66365" lon="-1.90638">
        <ele>3</ele>
        <time>2020-06-03T16:05:38Z</time>
      </trkpt>
      <trkpt lat="46.66368" lon="-1.90635">
        <ele>3.1</ele>
        <time>2020-06-03T16:05:39Z</time>
      </trkpt>
      <trkpt lat="46.66373" lon="-1.90631">
        <ele>3.1</ele>
        <time>2020-06-03T16:05:40Z</time>
      </trkpt>
      <trkpt lat="46.66376" lon="-1.90626">
        <ele>3.1</ele>
        <time>2020-06-03T16:05:41Z</time>
      </trkpt>
      <trkpt lat="46.66381" lon="-1.9062">
        <ele>3.2</ele>
        <time>2020-06-03T16:05:42Z</time>
      </trkpt>
      <trkpt lat="46.66385" lon="-1.90615">
        <ele>3.2</ele>
        <time>2020-06-03T16:05:43Z</time>
      </trkpt>
      <trkpt lat="46.6639" lon="-1.9061">
        <ele>3.2</ele>
        <time>2020-06-03T16:05:44Z</time>
      </trkpt>
      <trkpt lat="46.66395" lon="-1.90606">
        <ele>3.3</ele>
        <time>2020-06-03T16:05:45Z</time>
      </trkpt>
      <trkpt lat="46.664" lon="-1.90607">
        <ele>3.3</ele>
        <time>2020-06-03T16:05:46Z</time>
      </trkpt>
      <trkpt lat="46.66404" lon="-1.90607">
        <ele>3.3</ele>
        <time>2020-06-03T16:05:47Z</time>
      </trkpt>
      <trkpt lat="46.66409" lon="-1.90606">
        <ele>3.3</ele>
        <time>2020-06-03T16:05:48Z</time>
      </trkpt>
      <trkpt lat="46.66414" lon="-1.90603">
        <ele>3.3</ele>
        <time>2020-06-03T16:05:49Z</time>
      </trkpt>
      <trkpt lat="46.66419" lon="-1.906">
        <ele>3.3</ele>
        <time>2020-06-03T16:05:50Z</time>
      </trkpt>
      <trkpt lat="46.66425" lon="-1.90598">
        <ele>3.3</ele>
        <time>2020-06-03T16:05:51Z</time>
      </trkpt>
      <trkpt lat="46.6643" lon="-1.90594">
        <ele>3.3</ele>
        <time>2020-06-03T16:05:52Z</time>
      </trkpt>
      <trkpt lat="46.66437" lon="-1.90591">
        <ele>3.2</ele>
        <time>2020-06-03T16:05:53Z</time>
      </trkpt>
      <trkpt lat="46.66443" lon="-1.90588">
        <ele>3.2</ele>
        <time>2020-06-03T16:05:54Z</time>
      </trkpt>
      <trkpt lat="46.66449" lon="-1.90587">
        <ele>3.2</ele>
        <time>2020-06-03T16:05:55Z</time>
      </trkpt>
      <trkpt lat="46.66455" lon="-1.90587">
        <ele>3.1</ele>
        <time>2020-06-03T16:05:56Z</time>
      </trkpt>
      <trkpt lat="46.66462" lon="-1.90587">
        <ele>3</ele>
        <time>2020-06-03T16:05:57Z</time>
      </trkpt>
      <trkpt lat="46.66468" lon="-1.90588">
        <ele>2.9</ele>
        <time>2020-06-03T16:05:58Z</time>
      </trkpt>
      <trkpt lat="46.66475" lon="-1.9059">
        <ele>2.8</ele>
        <time>2020-06-03T16:05:59Z</time>
      </trkpt>
      <trkpt lat="46.6648" lon="-1.90593">
        <ele>2.7</ele>
        <time>2020-06-03T16:06:00Z</time>
      </trkpt>
      <trkpt lat="46.66485" lon="-1.90595">
        <ele>2.6</ele>
        <time>2020-06-03T16:06:01Z</time>
      </trkpt>
      <trkpt lat="46.6649" lon="-1.90597">
        <ele>2.5</ele>
        <time>2020-06-03T16:06:02Z</time>
      </trkpt>
      <trkpt lat="46.66494" lon="-1.90599">
        <ele>2.5</ele>
        <time>2020-06-03T16:06:03Z</time>
      </trkpt>
      <trkpt lat="46.66497" lon="-1.906">
        <ele>2.5</ele>
        <time>2020-06-03T16:06:04Z</time>
      </trkpt>
      <trkpt lat="46.66502" lon="-1.90602">
        <ele>2.4</ele>
        <time>2020-06-03T16:06:05Z</time>
      </trkpt>
      <trkpt lat="46.66506" lon="-1.90603">
        <ele>2.4</ele>
        <time>2020-06-03T16:06:06Z</time>
      </trkpt>
      <trkpt lat="46.66512" lon="-1.90605">
        <ele>2.5</ele>
        <time>2020-06-03T16:06:07Z</time>
      </trkpt>
      <trkpt lat="46.66516" lon="-1.90606">
        <ele>2.5</ele>
        <time>2020-06-03T16:06:08Z</time>
      </trkpt>
      <trkpt lat="46.6652" lon="-1.90607">
        <ele>2.5</ele>
        <time>2020-06-03T16:06:09Z</time>
      </trkpt>
      <trkpt lat="46.66526" lon="-1.90609">
        <ele>2.6</ele>
        <time>2020-06-03T16:06:10Z</time>
      </trkpt>
      <trkpt lat="46.66532" lon="-1.90609">
        <ele>2.7</ele>
        <time>2020-06-03T16:06:11Z</time>
      </trkpt>
      <trkpt lat="46.66537" lon="-1.9061">
        <ele>2.7</ele>
        <time>2020-06-03T16:06:12Z</time>
      </trkpt>
      <trkpt lat="46.66543" lon="-1.90611">
        <ele>2.8</ele>
        <time>2020-06-03T16:06:13Z</time>
      </trkpt>
      <trkpt lat="46.66548" lon="-1.90611">
        <ele>2.9</ele>
        <time>2020-06-03T16:06:14Z</time>
      </trkpt>
      <trkpt lat="46.66554" lon="-1.9061">
        <ele>2.9</ele>
        <time>2020-06-03T16:06:15Z</time>
      </trkpt>
      <trkpt lat="46.6656" lon="-1.90608">
        <ele>3</ele>
        <time>2020-06-03T16:06:16Z</time>
      </trkpt>
      <trkpt lat="46.66566" lon="-1.90607">
        <ele>3</ele>
        <time>2020-06-03T16:06:17Z</time>
      </trkpt>
      <trkpt lat="46.6657" lon="-1.90606">
        <ele>3</ele>
        <time>2020-06-03T16:06:18Z</time>
      </trkpt>
      <trkpt lat="46.66576" lon="-1.90605">
        <ele>3.1</ele>
        <time>2020-06-03T16:06:19Z</time>
      </trkpt>
      <trkpt lat="46.66582" lon="-1.90605">
        <ele>3.2</ele>
        <time>2020-06-03T16:06:20Z</time>
      </trkpt>
      <trkpt lat="46.66587" lon="-1.90608">
        <ele>3.3</ele>
        <time>2020-06-03T16:06:21Z</time>
      </trkpt>
      <trkpt lat="46.66591" lon="-1.90611">
        <ele>3.4</ele>
        <time>2020-06-03T16:06:22Z</time>
      </trkpt>
      <trkpt lat="46.66595" lon="-1.90613">
        <ele>3.4</ele>
        <time>2020-06-03T16:06:23Z</time>
      </trkpt>
      <trkpt lat="46.66599" lon="-1.90614">
        <ele>3.5</ele>
        <time>2020-06-03T16:06:24Z</time>
      </trkpt>
      <trkpt lat="46.66604" lon="-1.90613">
        <ele>3.6</ele>
        <time>2020-06-03T16:06:25Z</time>
      </trkpt>
      <trkpt lat="46.66609" lon="-1.90613">
        <ele>3.6</ele>
        <time>2020-06-03T16:06:26Z</time>
      </trkpt>
      <trkpt lat="46.66615" lon="-1.90612">
        <ele>3.6</ele>
        <time>2020-06-03T16:06:27Z</time>
      </trkpt>
      <trkpt lat="46.6662" lon="-1.90611">
        <ele>3.6</ele>
        <time>2020-06-03T16:06:28Z</time>
      </trkpt>
      <trkpt lat="46.66625" lon="-1.9061">
        <ele>3.6</ele>
        <time>2020-06-03T16:06:29Z</time>
      </trkpt>
      <trkpt lat="46.66629" lon="-1.9061">
        <ele>3.5</ele>
        <time>2020-06-03T16:06:30Z</time>
      </trkpt>
      <trkpt lat="46.66635" lon="-1.90609">
        <ele>3.4</ele>
        <time>2020-06-03T16:06:31Z</time>
      </trkpt>
      <trkpt lat="46.66641" lon="-1.90611">
        <ele>3.2</ele>
        <time>2020-06-03T16:06:32Z</time>
      </trkpt>
      <trkpt lat="46.66648" lon="-1.90612">
        <ele>3</ele>
        <time>2020-06-03T16:06:33Z</time>
      </trkpt>
      <trkpt lat="46.66654" lon="-1.90616">
        <ele>2.9</ele>
        <time>2020-06-03T16:06:34Z</time>
      </trkpt>
      <trkpt lat="46.66659" lon="-1.9062">
        <ele>2.7</ele>
        <time>2020-06-03T16:06:35Z</time>
      </trkpt>
      <trkpt lat="46.66664" lon="-1.90627">
        <ele>2.5</ele>
        <time>2020-06-03T16:06:36Z</time>
      </trkpt>
      <trkpt lat="46.66668" lon="-1.90635">
        <ele>2.4</ele>
        <time>2020-06-03T16:06:37Z</time>
      </trkpt>
      <trkpt lat="46.66671" lon="-1.90643">
        <ele>2.4</ele>
        <time>2020-06-03T16:06:38Z</time>
      </trkpt>
      <trkpt lat="46.66675" lon="-1.90652">
        <ele>2.3</ele>
        <time>2020-06-03T16:06:39Z</time>
      </trkpt>
      <trkpt lat="46.66679" lon="-1.90662">
        <ele>2.3</ele>
        <time>2020-06-03T16:06:40Z</time>
      </trkpt>
      <trkpt lat="46.66681" lon="-1.9067">
        <ele>2.3</ele>
        <time>2020-06-03T16:06:41Z</time>
      </trkpt>
      <trkpt lat="46.66684" lon="-1.90678">
        <ele>2.3</ele>
        <time>2020-06-03T16:06:42Z</time>
      </trkpt>
      <trkpt lat="46.66686" lon="-1.90685">
        <ele>2.3</ele>
        <time>2020-06-03T16:06:43Z</time>
      </trkpt>
      <trkpt lat="46.66688" lon="-1.90693">
        <ele>2.3</ele>
        <time>2020-06-03T16:06:44Z</time>
      </trkpt>
      <trkpt lat="46.6669" lon="-1.90701">
        <ele>2.3</ele>
        <time>2020-06-03T16:06:45Z</time>
      </trkpt>
      <trkpt lat="46.66691" lon="-1.90708">
        <ele>2.2</ele>
        <time>2020-06-03T16:06:46Z</time>
      </trkpt>
      <trkpt lat="46.66693" lon="-1.90717">
        <ele>2.2</ele>
        <time>2020-06-03T16:06:47Z</time>
      </trkpt>
      <trkpt lat="46.66695" lon="-1.90725">
        <ele>2.2</ele>
        <time>2020-06-03T16:06:48Z</time>
      </trkpt>
      <trkpt lat="46.66696" lon="-1.90733">
        <ele>2.2</ele>
        <time>2020-06-03T16:06:49Z</time>
      </trkpt>
      <trkpt lat="46.66697" lon="-1.90742">
        <ele>2.2</ele>
        <time>2020-06-03T16:06:50Z</time>
      </trkpt>
      <trkpt lat="46.66696" lon="-1.90752">
        <ele>2.2</ele>
        <time>2020-06-03T16:06:51Z</time>
      </trkpt>
      <trkpt lat="46.66696" lon="-1.90761">
        <ele>2.2</ele>
        <time>2020-06-03T16:06:52Z</time>
      </trkpt>
      <trkpt lat="46.66695" lon="-1.90771">
        <ele>2.2</ele>
        <time>2020-06-03T16:06:53Z</time>
      </trkpt>
      <trkpt lat="46.66695" lon="-1.90781">
        <ele>2.2</ele>
        <time>2020-06-03T16:06:54Z</time>
      </trkpt>
      <trkpt lat="46.66695" lon="-1.90792">
        <ele>2.2</ele>
        <time>2020-06-03T16:06:55Z</time>
      </trkpt>
      <trkpt lat="46.66695" lon="-1.90802">
        <ele>2.1</ele>
        <time>2020-06-03T16:06:56Z</time>
      </trkpt>
      <trkpt lat="46.66695" lon="-1.90813">
        <ele>2.1</ele>
        <time>2020-06-03T16:06:57Z</time>
      </trkpt>
      <trkpt lat="46.66695" lon="-1.90823">
        <ele>2.2</ele>
        <time>2020-06-03T16:06:58Z</time>
      </trkpt>
      <trkpt lat="46.66695" lon="-1.90833">
        <ele>2.2</ele>
        <time>2020-06-03T16:06:59Z</time>
      </trkpt>
      <trkpt lat="46.66696" lon="-1.90842">
        <ele>2.2</ele>
        <time>2020-06-03T16:07:00Z</time>
      </trkpt>
      <trkpt lat="46.66697" lon="-1.90854">
        <ele>2.3</ele>
        <time>2020-06-03T16:07:01Z</time>
      </trkpt>
      <trkpt lat="46.66697" lon="-1.90864">
        <ele>2.3</ele>
        <time>2020-06-03T16:07:02Z</time>
      </trkpt>
      <trkpt lat="46.66696" lon="-1.90874">
        <ele>2.4</ele>
        <time>2020-06-03T16:07:03Z</time>
      </trkpt>
      <trkpt lat="46.66695" lon="-1.90884">
        <ele>2.4</ele>
        <time>2020-06-03T16:07:04Z</time>
      </trkpt>
      <trkpt lat="46.66694" lon="-1.90893">
        <ele>2.5</ele>
        <time>2020-06-03T16:07:05Z</time>
      </trkpt>
      <trkpt lat="46.66692" lon="-1.90901">
        <ele>2.5</ele>
        <time>2020-06-03T16:07:06Z</time>
      </trkpt>
      <trkpt lat="46.6669" lon="-1.90909">
        <ele>2.6</ele>
        <time>2020-06-03T16:07:07Z</time>
      </trkpt>
      <trkpt lat="46.66688" lon="-1.90916">
        <ele>2.6</ele>
        <time>2020-06-03T16:07:08Z</time>
      </trkpt>
      <trkpt lat="46.66687" lon="-1.90923">
        <ele>2.7</ele>
        <time>2020-06-03T16:07:09Z</time>
      </trkpt>
      <trkpt lat="46.66687" lon="-1.90929">
        <ele>2.7</ele>
        <time>2020-06-03T16:07:10Z</time>
      </trkpt>
      <trkpt lat="46.66688" lon="-1.90936">
        <ele>2.7</ele>
        <time>2020-06-03T16:07:11Z</time>
      </trkpt>
      <trkpt lat="46.66689" lon="-1.90944">
        <ele>2.8</ele>
        <time>2020-06-03T16:07:12Z</time>
      </trkpt>
      <trkpt lat="46.66689" lon="-1.90953">
        <ele>2.8</ele>
        <time>2020-06-03T16:07:13Z</time>
      </trkpt>
      <trkpt lat="46.6669" lon="-1.90961">
        <ele>2.9</ele>
        <time>2020-06-03T16:07:14Z</time>
      </trkpt>
      <trkpt lat="46.6669" lon="-1.9097">
        <ele>2.9</ele>
        <time>2020-06-03T16:07:15Z</time>
      </trkpt>
      <trkpt lat="46.66689" lon="-1.90979">
        <ele>3</ele>
        <time>2020-06-03T16:07:16Z</time>
      </trkpt>
      <trkpt lat="46.66687" lon="-1.90987">
        <ele>3</ele>
        <time>2020-06-03T16:07:17Z</time>
      </trkpt>
      <trkpt lat="46.66684" lon="-1.90994">
        <ele>3</ele>
        <time>2020-06-03T16:07:18Z</time>
      </trkpt>
      <trkpt lat="46.66682" lon="-1.91">
        <ele>3</ele>
        <time>2020-06-03T16:07:19Z</time>
      </trkpt>
      <trkpt lat="46.6668" lon="-1.91005">
        <ele>3.1</ele>
        <time>2020-06-03T16:07:20Z</time>
      </trkpt>
      <trkpt lat="46.66678" lon="-1.9101">
        <ele>3.1</ele>
        <time>2020-06-03T16:07:21Z</time>
      </trkpt>
      <trkpt lat="46.66678" lon="-1.91012">
        <ele>3.1</ele>
        <time>2020-06-03T16:07:22Z</time>
      </trkpt>
      <trkpt lat="46.66677" lon="-1.91017">
        <ele>3.1</ele>
        <time>2020-06-03T16:07:23Z</time>
      </trkpt>
      <trkpt lat="46.66678" lon="-1.91021">
        <ele>3.1</ele>
        <time>2020-06-03T16:07:24Z</time>
      </trkpt>
      <trkpt lat="46.66678" lon="-1.91028">
        <ele>3.1</ele>
        <time>2020-06-03T16:07:25Z</time>
      </trkpt>
      <trkpt lat="46.6668" lon="-1.91036">
        <ele>3.1</ele>
        <time>2020-06-03T16:07:26Z</time>
      </trkpt>
      <trkpt lat="46.6668" lon="-1.91043">
        <ele>3.1</ele>
        <time>2020-06-03T16:07:27Z</time>
      </trkpt>
      <trkpt lat="46.6668" lon="-1.9105">
        <ele>3.1</ele>
        <time>2020-06-03T16:07:28Z</time>
      </trkpt>
      <trkpt lat="46.66681" lon="-1.91057">
        <ele>3.1</ele>
        <time>2020-06-03T16:07:29Z</time>
      </trkpt>
      <trkpt lat="46.66682" lon="-1.91064">
        <ele>3.1</ele>
        <time>2020-06-03T16:07:30Z</time>
      </trkpt>
      <trkpt lat="46.66684" lon="-1.91071">
        <ele>3.1</ele>
        <time>2020-06-03T16:07:31Z</time>
      </trkpt>
      <trkpt lat="46.66685" lon="-1.91077">
        <ele>3</ele>
        <time>2020-06-03T16:07:32Z</time>
      </trkpt>
      <trkpt lat="46.66686" lon="-1.91084">
        <ele>3</ele>
        <time>2020-06-03T16:07:33Z</time>
      </trkpt>
      <trkpt lat="46.66689" lon="-1.91089">
        <ele>3</ele>
        <time>2020-06-03T16:07:34Z</time>
      </trkpt>
      <trkpt lat="46.66691" lon="-1.91094">
        <ele>3</ele>
        <time>2020-06-03T16:07:35Z</time>
      </trkpt>
      <trkpt lat="46.66694" lon="-1.91097">
        <ele>3</ele>
        <time>2020-06-03T16:07:36Z</time>
      </trkpt>
      <trkpt lat="46.66697" lon="-1.911">
        <ele>3</ele>
        <time>2020-06-03T16:07:37Z</time>
      </trkpt>
      <trkpt lat="46.667" lon="-1.91101">
        <ele>3</ele>
        <time>2020-06-03T16:07:38Z</time>
      </trkpt>
      <trkpt lat="46.66702" lon="-1.911">
        <ele>3</ele>
        <time>2020-06-03T16:07:39Z</time>
      </trkpt>
      <trkpt lat="46.66706" lon="-1.91097">
        <ele>3</ele>
        <time>2020-06-03T16:07:40Z</time>
      </trkpt>
      <trkpt lat="46.66708" lon="-1.91096">
        <ele>3</ele>
        <time>2020-06-03T16:07:41Z</time>
      </trkpt>
      <trkpt lat="46.66711" lon="-1.91093">
        <ele>2.9</ele>
        <time>2020-06-03T16:07:42Z</time>
      </trkpt>
      <trkpt lat="46.66714" lon="-1.91089">
        <ele>2.9</ele>
        <time>2020-06-03T16:07:43Z</time>
      </trkpt>
      <trkpt lat="46.66717" lon="-1.91085">
        <ele>2.9</ele>
        <time>2020-06-03T16:07:44Z</time>
      </trkpt>
      <trkpt lat="46.66721" lon="-1.9108">
        <ele>2.9</ele>
        <time>2020-06-03T16:07:45Z</time>
      </trkpt>
      <trkpt lat="46.66725" lon="-1.91076">
        <ele>2.9</ele>
        <time>2020-06-03T16:07:46Z</time>
      </trkpt>
      <trkpt lat="46.66728" lon="-1.91071">
        <ele>2.8</ele>
        <time>2020-06-03T16:07:47Z</time>
      </trkpt>
      <trkpt lat="46.66732" lon="-1.91066">
        <ele>2.8</ele>
        <time>2020-06-03T16:07:48Z</time>
      </trkpt>
      <trkpt lat="46.66734" lon="-1.91061">
        <ele>2.8</ele>
        <time>2020-06-03T16:07:49Z</time>
      </trkpt>
      <trkpt lat="46.66737" lon="-1.91056">
        <ele>2.8</ele>
        <time>2020-06-03T16:07:50Z</time>
      </trkpt>
      <trkpt lat="46.6674" lon="-1.91052">
        <ele>2.8</ele>
        <time>2020-06-03T16:07:51Z</time>
      </trkpt>
      <trkpt lat="46.66742" lon="-1.91048">
        <ele>2.8</ele>
        <time>2020-06-03T16:07:52Z</time>
      </trkpt>
      <trkpt lat="46.66742" lon="-1.91047">
        <ele>2.8</ele>
        <time>2020-06-03T16:07:53Z</time>
      </trkpt>
      <trkpt lat="46.66742" lon="-1.91042">
        <ele>2.8</ele>
        <time>2020-06-03T16:07:54Z</time>
      </trkpt>
      <trkpt lat="46.66742" lon="-1.9104">
        <ele>2.8</ele>
        <time>2020-06-03T16:07:55Z</time>
      </trkpt>
      <trkpt lat="46.66742" lon="-1.91034">
        <ele>2.8</ele>
        <time>2020-06-03T16:07:56Z</time>
      </trkpt>
      <trkpt lat="46.66743" lon="-1.91029">
        <ele>2.8</ele>
        <time>2020-06-03T16:07:57Z</time>
      </trkpt>
      <trkpt lat="46.66745" lon="-1.91024">
        <ele>2.8</ele>
        <time>2020-06-03T16:07:58Z</time>
      </trkpt>
      <trkpt lat="46.66748" lon="-1.91018">
        <ele>2.8</ele>
        <time>2020-06-03T16:07:59Z</time>
      </trkpt>
      <trkpt lat="46.6675" lon="-1.91013">
        <ele>2.7</ele>
        <time>2020-06-03T16:08:00Z</time>
      </trkpt>
      <trkpt lat="46.66752" lon="-1.91008">
        <ele>2.7</ele>
        <time>2020-06-03T16:08:01Z</time>
      </trkpt>
      <trkpt lat="46.66755" lon="-1.91002">
        <ele>2.7</ele>
        <time>2020-06-03T16:08:02Z</time>
      </trkpt>
      <trkpt lat="46.66757" lon="-1.90996">
        <ele>2.7</ele>
        <time>2020-06-03T16:08:03Z</time>
      </trkpt>
      <trkpt lat="46.66759" lon="-1.90991">
        <ele>2.7</ele>
        <time>2020-06-03T16:08:04Z</time>
      </trkpt>
      <trkpt lat="46.6676" lon="-1.90986">
        <ele>2.7</ele>
        <time>2020-06-03T16:08:05Z</time>
      </trkpt>
      <trkpt lat="46.66761" lon="-1.90979">
        <ele>2.7</ele>
        <time>2020-06-03T16:08:06Z</time>
      </trkpt>
      <trkpt lat="46.66762" lon="-1.90974">
        <ele>2.7</ele>
        <time>2020-06-03T16:08:07Z</time>
      </trkpt>
      <trkpt lat="46.66763" lon="-1.9097">
        <ele>2.7</ele>
        <time>2020-06-03T16:08:08Z</time>
      </trkpt>
      <trkpt lat="46.66766" lon="-1.90965">
        <ele>2.6</ele>
        <time>2020-06-03T16:08:09Z</time>
      </trkpt>
      <trkpt lat="46.66767" lon="-1.90962">
        <ele>2.6</ele>
        <time>2020-06-03T16:08:10Z</time>
      </trkpt>
      <trkpt lat="46.6677" lon="-1.90956">
        <ele>2.6</ele>
        <time>2020-06-03T16:08:11Z</time>
      </trkpt>
      <trkpt lat="46.66774" lon="-1.9095">
        <ele>2.6</ele>
        <time>2020-06-03T16:08:12Z</time>
      </trkpt>
      <trkpt lat="46.66778" lon="-1.90947">
        <ele>2.6</ele>
        <time>2020-06-03T16:08:13Z</time>
      </trkpt>
      <trkpt lat="46.66782" lon="-1.90943">
        <ele>2.6</ele>
        <time>2020-06-03T16:08:14Z</time>
      </trkpt>
      <trkpt lat="46.66785" lon="-1.9094">
        <ele>2.6</ele>
        <time>2020-06-03T16:08:15Z</time>
      </trkpt>
      <trkpt lat="46.66789" lon="-1.90938">
        <ele>2.6</ele>
        <time>2020-06-03T16:08:16Z</time>
      </trkpt>
      <trkpt lat="46.66792" lon="-1.90935">
        <ele>2.6</ele>
        <time>2020-06-03T16:08:17Z</time>
      </trkpt>
      <trkpt lat="46.66796" lon="-1.90931">
        <ele>2.7</ele>
        <time>2020-06-03T16:08:18Z</time>
      </trkpt>
      <trkpt lat="46.668" lon="-1.90928">
        <ele>2.7</ele>
        <time>2020-06-03T16:08:19Z</time>
      </trkpt>
      <trkpt lat="46.66804" lon="-1.90926">
        <ele>2.7</ele>
        <time>2020-06-03T16:08:20Z</time>
      </trkpt>
      <trkpt lat="46.66808" lon="-1.90923">
        <ele>2.7</ele>
        <time>2020-06-03T16:08:21Z</time>
      </trkpt>
      <trkpt lat="46.66812" lon="-1.9092">
        <ele>2.7</ele>
        <time>2020-06-03T16:08:22Z</time>
      </trkpt>
      <trkpt lat="46.66816" lon="-1.90917">
        <ele>2.8</ele>
        <time>2020-06-03T16:08:23Z</time>
      </trkpt>
      <trkpt lat="46.6682" lon="-1.90913">
        <ele>2.8</ele>
        <time>2020-06-03T16:08:24Z</time>
      </trkpt>
      <trkpt lat="46.66824" lon="-1.9091">
        <ele>2.8</ele>
        <time>2020-06-03T16:08:25Z</time>
      </trkpt>
      <trkpt lat="46.66829" lon="-1.90906">
        <ele>2.9</ele>
        <time>2020-06-03T16:08:26Z</time>
      </trkpt>
      <trkpt lat="46.66833" lon="-1.90901">
        <ele>2.9</ele>
        <time>2020-06-03T16:08:27Z</time>
      </trkpt>
      <trkpt lat="46.66836" lon="-1.90898">
        <ele>2.9</ele>
        <time>2020-06-03T16:08:28Z</time>
      </trkpt>
      <trkpt lat="46.66839" lon="-1.90895">
        <ele>2.9</ele>
        <time>2020-06-03T16:08:29Z</time>
      </trkpt>
      <trkpt lat="46.66842" lon="-1.90891">
        <ele>3</ele>
        <time>2020-06-03T16:08:30Z</time>
      </trkpt>
      <trkpt lat="46.66845" lon="-1.90887">
        <ele>3</ele>
        <time>2020-06-03T16:08:31Z</time>
      </trkpt>
      <trkpt lat="46.6685" lon="-1.9088">
        <ele>3</ele>
        <time>2020-06-03T16:08:32Z</time>
      </trkpt>
      <trkpt lat="46.66856" lon="-1.90873">
        <ele>3</ele>
        <time>2020-06-03T16:08:33Z</time>
      </trkpt>
      <trkpt lat="46.66862" lon="-1.90867">
        <ele>3.1</ele>
        <time>2020-06-03T16:08:34Z</time>
      </trkpt>
      <trkpt lat="46.66869" lon="-1.90861">
        <ele>3.1</ele>
        <time>2020-06-03T16:08:35Z</time>
      </trkpt>
      <trkpt lat="46.66874" lon="-1.90857">
        <ele>3.1</ele>
        <time>2020-06-03T16:08:36Z</time>
      </trkpt>
      <trkpt lat="46.6688" lon="-1.90852">
        <ele>3.1</ele>
        <time>2020-06-03T16:08:37Z</time>
      </trkpt>
      <trkpt lat="46.66886" lon="-1.90849">
        <ele>3.2</ele>
        <time>2020-06-03T16:08:38Z</time>
      </trkpt>
      <trkpt lat="46.66891" lon="-1.90845">
        <ele>3.2</ele>
        <time>2020-06-03T16:08:39Z</time>
      </trkpt>
      <trkpt lat="46.66896" lon="-1.90843">
        <ele>3.2</ele>
        <time>2020-06-03T16:08:40Z</time>
      </trkpt>
      <trkpt lat="46.669" lon="-1.9084">
        <ele>3.2</ele>
        <time>2020-06-03T16:08:41Z</time>
      </trkpt>
      <trkpt lat="46.66905" lon="-1.90838">
        <ele>3.3</ele>
        <time>2020-06-03T16:08:42Z</time>
      </trkpt>
      <trkpt lat="46.6691" lon="-1.90835">
        <ele>3.3</ele>
        <time>2020-06-03T16:08:43Z</time>
      </trkpt>
      <trkpt lat="46.66916" lon="-1.90832">
        <ele>3.3</ele>
        <time>2020-06-03T16:08:44Z</time>
      </trkpt>
      <trkpt lat="46.66922" lon="-1.90829">
        <ele>3.3</ele>
        <time>2020-06-03T16:08:45Z</time>
      </trkpt>
      <trkpt lat="46.66928" lon="-1.90825">
        <ele>3.3</ele>
        <time>2020-06-03T16:08:46Z</time>
      </trkpt>
      <trkpt lat="46.66934" lon="-1.90822">
        <ele>3.3</ele>
        <time>2020-06-03T16:08:47Z</time>
      </trkpt>
      <trkpt lat="46.6694" lon="-1.9082">
        <ele>3.3</ele>
        <time>2020-06-03T16:08:48Z</time>
      </trkpt>
      <trkpt lat="46.66945" lon="-1.90821">
        <ele>3.3</ele>
        <time>2020-06-03T16:08:49Z</time>
      </trkpt>
      <trkpt lat="46.66951" lon="-1.90822">
        <ele>3.3</ele>
        <time>2020-06-03T16:08:50Z</time>
      </trkpt>
      <trkpt lat="46.66957" lon="-1.90824">
        <ele>3.3</ele>
        <time>2020-06-03T16:08:51Z</time>
      </trkpt>
      <trkpt lat="46.66963" lon="-1.90826">
        <ele>3.3</ele>
        <time>2020-06-03T16:08:52Z</time>
      </trkpt>
      <trkpt lat="46.66969" lon="-1.90825">
        <ele>3.3</ele>
        <time>2020-06-03T16:08:53Z</time>
      </trkpt>
      <trkpt lat="46.66973" lon="-1.90825">
        <ele>3.3</ele>
        <time>2020-06-03T16:08:54Z</time>
      </trkpt>
      <trkpt lat="46.66979" lon="-1.90824">
        <ele>3.3</ele>
        <time>2020-06-03T16:08:55Z</time>
      </trkpt>
      <trkpt lat="46.66985" lon="-1.90826">
        <ele>3.3</ele>
        <time>2020-06-03T16:08:56Z</time>
      </trkpt>
      <trkpt lat="46.66991" lon="-1.90826">
        <ele>3.3</ele>
        <time>2020-06-03T16:08:57Z</time>
      </trkpt>
      <trkpt lat="46.66998" lon="-1.90828">
        <ele>3.3</ele>
        <time>2020-06-03T16:08:58Z</time>
      </trkpt>
      <trkpt lat="46.67003" lon="-1.90829">
        <ele>3.3</ele>
        <time>2020-06-03T16:08:59Z</time>
      </trkpt>
      <trkpt lat="46.67008" lon="-1.90831">
        <ele>3.3</ele>
        <time>2020-06-03T16:09:00Z</time>
      </trkpt>
      <trkpt lat="46.67013" lon="-1.90832">
        <ele>3.3</ele>
        <time>2020-06-03T16:09:01Z</time>
      </trkpt>
      <trkpt lat="46.67018" lon="-1.90834">
        <ele>3.3</ele>
        <time>2020-06-03T16:09:02Z</time>
      </trkpt>
      <trkpt lat="46.67023" lon="-1.90835">
        <ele>3.3</ele>
        <time>2020-06-03T16:09:03Z</time>
      </trkpt>
      <trkpt lat="46.6703" lon="-1.90837">
        <ele>3.2</ele>
        <time>2020-06-03T16:09:04Z</time>
      </trkpt>
      <trkpt lat="46.67038" lon="-1.90838">
        <ele>3.2</ele>
        <time>2020-06-03T16:09:05Z</time>
      </trkpt>
      <trkpt lat="46.67045" lon="-1.9084">
        <ele>3.2</ele>
        <time>2020-06-03T16:09:06Z</time>
      </trkpt>
      <trkpt lat="46.67052" lon="-1.90842">
        <ele>3.2</ele>
        <time>2020-06-03T16:09:07Z</time>
      </trkpt>
      <trkpt lat="46.67059" lon="-1.90845">
        <ele>3.2</ele>
        <time>2020-06-03T16:09:08Z</time>
      </trkpt>
      <trkpt lat="46.67066" lon="-1.90846">
        <ele>3.2</ele>
        <time>2020-06-03T16:09:09Z</time>
      </trkpt>
      <trkpt lat="46.67073" lon="-1.90848">
        <ele>3.2</ele>
        <time>2020-06-03T16:09:10Z</time>
      </trkpt>
      <trkpt lat="46.67078" lon="-1.90852">
        <ele>3.2</ele>
        <time>2020-06-03T16:09:11Z</time>
      </trkpt>
      <trkpt lat="46.67083" lon="-1.90857">
        <ele>3.2</ele>
        <time>2020-06-03T16:09:12Z</time>
      </trkpt>
      <trkpt lat="46.67088" lon="-1.90859">
        <ele>3.2</ele>
        <time>2020-06-03T16:09:13Z</time>
      </trkpt>
      <trkpt lat="46.67091" lon="-1.9086">
        <ele>3.2</ele>
        <time>2020-06-03T16:09:14Z</time>
      </trkpt>
      <trkpt lat="46.67095" lon="-1.90861">
        <ele>3.2</ele>
        <time>2020-06-03T16:09:15Z</time>
      </trkpt>
      <trkpt lat="46.67099" lon="-1.90858">
        <ele>3.2</ele>
        <time>2020-06-03T16:09:16Z</time>
      </trkpt>
      <trkpt lat="46.67103" lon="-1.90853">
        <ele>3.2</ele>
        <time>2020-06-03T16:09:17Z</time>
      </trkpt>
      <trkpt lat="46.67106" lon="-1.90849">
        <ele>3.2</ele>
        <time>2020-06-03T16:09:18Z</time>
      </trkpt>
      <trkpt lat="46.6711" lon="-1.90845">
        <ele>3.2</ele>
        <time>2020-06-03T16:09:19Z</time>
      </trkpt>
      <trkpt lat="46.67113" lon="-1.9084">
        <ele>3.2</ele>
        <time>2020-06-03T16:09:20Z</time>
      </trkpt>
      <trkpt lat="46.67117" lon="-1.90835">
        <ele>3.2</ele>
        <time>2020-06-03T16:09:21Z</time>
      </trkpt>
      <trkpt lat="46.6712" lon="-1.90831">
        <ele>3.2</ele>
        <time>2020-06-03T16:09:22Z</time>
      </trkpt>
      <trkpt lat="46.67123" lon="-1.90826">
        <ele>3.2</ele>
        <time>2020-06-03T16:09:23Z</time>
      </trkpt>
      <trkpt lat="46.67127" lon="-1.90822">
        <ele>3.2</ele>
        <time>2020-06-03T16:09:24Z</time>
      </trkpt>
      <trkpt lat="46.6713" lon="-1.90819">
        <ele>3.2</ele>
        <time>2020-06-03T16:09:25Z</time>
      </trkpt>
      <trkpt lat="46.67134" lon="-1.90814">
        <ele>3.2</ele>
        <time>2020-06-03T16:09:26Z</time>
      </trkpt>
      <trkpt lat="46.67138" lon="-1.90809">
        <ele>3.2</ele>
        <time>2020-06-03T16:09:27Z</time>
      </trkpt>
      <trkpt lat="46.67141" lon="-1.90805">
        <ele>3.2</ele>
        <time>2020-06-03T16:09:28Z</time>
      </trkpt>
      <trkpt lat="46.67144" lon="-1.90801">
        <ele>3.2</ele>
        <time>2020-06-03T16:09:29Z</time>
      </trkpt>
      <trkpt lat="46.67147" lon="-1.90798">
        <ele>3.2</ele>
        <time>2020-06-03T16:09:30Z</time>
      </trkpt>
      <trkpt lat="46.67149" lon="-1.90797">
        <ele>3.2</ele>
        <time>2020-06-03T16:09:31Z</time>
      </trkpt>
      <trkpt lat="46.6715" lon="-1.90797">
        <ele>3.2</ele>
        <time>2020-06-03T16:09:32Z</time>
      </trkpt>
      <trkpt lat="46.67152" lon="-1.90801">
        <ele>3.2</ele>
        <time>2020-06-03T16:09:33Z</time>
      </trkpt>
      <trkpt lat="46.67152" lon="-1.90803">
        <ele>3.2</ele>
        <time>2020-06-03T16:09:34Z</time>
      </trkpt>
      <trkpt lat="46.67154" lon="-1.90808">
        <ele>3.2</ele>
        <time>2020-06-03T16:09:35Z</time>
      </trkpt>
      <trkpt lat="46.67156" lon="-1.90812">
        <ele>3.2</ele>
        <time>2020-06-03T16:09:36Z</time>
      </trkpt>
      <trkpt lat="46.67158" lon="-1.90815">
        <ele>3.2</ele>
        <time>2020-06-03T16:09:37Z</time>
      </trkpt>
      <trkpt lat="46.6716" lon="-1.90819">
        <ele>3.2</ele>
        <time>2020-06-03T16:09:38Z</time>
      </trkpt>
      <trkpt lat="46.67163" lon="-1.90824">
        <ele>3.2</ele>
        <time>2020-06-03T16:09:39Z</time>
      </trkpt>
      <trkpt lat="46.67165" lon="-1.90829">
        <ele>3.2</ele>
        <time>2020-06-03T16:09:40Z</time>
      </trkpt>
      <trkpt lat="46.67168" lon="-1.90834">
        <ele>3.2</ele>
        <time>2020-06-03T16:09:41Z</time>
      </trkpt>
      <trkpt lat="46.6717" lon="-1.90839">
        <ele>3.3</ele>
        <time>2020-06-03T16:09:42Z</time>
      </trkpt>
      <trkpt lat="46.67173" lon="-1.90845">
        <ele>3.3</ele>
        <time>2020-06-03T16:09:43Z</time>
      </trkpt>
      <trkpt lat="46.67176" lon="-1.9085">
        <ele>3.3</ele>
        <time>2020-06-03T16:09:44Z</time>
      </trkpt>
      <trkpt lat="46.67179" lon="-1.90857">
        <ele>3.3</ele>
        <time>2020-06-03T16:09:45Z</time>
      </trkpt>
      <trkpt lat="46.67183" lon="-1.90864">
        <ele>3.3</ele>
        <time>2020-06-03T16:09:46Z</time>
      </trkpt>
      <trkpt lat="46.67185" lon="-1.90871">
        <ele>3.2</ele>
        <time>2020-06-03T16:09:47Z</time>
      </trkpt>
      <trkpt lat="46.67188" lon="-1.90878">
        <ele>3.2</ele>
        <time>2020-06-03T16:09:48Z</time>
      </trkpt>
      <trkpt lat="46.67192" lon="-1.90886">
        <ele>3.2</ele>
        <time>2020-06-03T16:09:49Z</time>
      </trkpt>
      <trkpt lat="46.67195" lon="-1.90892">
        <ele>3.2</ele>
        <time>2020-06-03T16:09:50Z</time>
      </trkpt>
      <trkpt lat="46.67199" lon="-1.90898">
        <ele>3.1</ele>
        <time>2020-06-03T16:09:51Z</time>
      </trkpt>
      <trkpt lat="46.67203" lon="-1.90903">
        <ele>3.1</ele>
        <time>2020-06-03T16:09:52Z</time>
      </trkpt>
      <trkpt lat="46.67207" lon="-1.90909">
        <ele>3.1</ele>
        <time>2020-06-03T16:09:53Z</time>
      </trkpt>
      <trkpt lat="46.67211" lon="-1.90915">
        <ele>3</ele>
        <time>2020-06-03T16:09:54Z</time>
      </trkpt>
      <trkpt lat="46.67215" lon="-1.90921">
        <ele>2.9</ele>
        <time>2020-06-03T16:09:55Z</time>
      </trkpt>
      <trkpt lat="46.67219" lon="-1.90927">
        <ele>2.8</ele>
        <time>2020-06-03T16:09:56Z</time>
      </trkpt>
      <trkpt lat="46.67223" lon="-1.90933">
        <ele>2.8</ele>
        <time>2020-06-03T16:09:57Z</time>
      </trkpt>
      <trkpt lat="46.67227" lon="-1.90939">
        <ele>2.7</ele>
        <time>2020-06-03T16:09:58Z</time>
      </trkpt>
      <trkpt lat="46.67232" lon="-1.90945">
        <ele>2.6</ele>
        <time>2020-06-03T16:09:59Z</time>
      </trkpt>
      <trkpt lat="46.67236" lon="-1.90952">
        <ele>2.6</ele>
        <time>2020-06-03T16:10:00Z</time>
      </trkpt>
      <trkpt lat="46.67241" lon="-1.90958">
        <ele>2.5</ele>
        <time>2020-06-03T16:10:01Z</time>
      </trkpt>
      <trkpt lat="46.67246" lon="-1.90965">
        <ele>2.4</ele>
        <time>2020-06-03T16:10:02Z</time>
      </trkpt>
      <trkpt lat="46.67251" lon="-1.90971">
        <ele>2.4</ele>
        <time>2020-06-03T16:10:03Z</time>
      </trkpt>
      <trkpt lat="46.67256" lon="-1.90977">
        <ele>2.4</ele>
        <time>2020-06-03T16:10:04Z</time>
      </trkpt>
      <trkpt lat="46.6726" lon="-1.90983">
        <ele>2.3</ele>
        <time>2020-06-03T16:10:05Z</time>
      </trkpt>
      <trkpt lat="46.67264" lon="-1.90989">
        <ele>2.3</ele>
        <time>2020-06-03T16:10:06Z</time>
      </trkpt>
      <trkpt lat="46.67268" lon="-1.90995">
        <ele>2.3</ele>
        <time>2020-06-03T16:10:07Z</time>
      </trkpt>
      <trkpt lat="46.67272" lon="-1.91001">
        <ele>2.3</ele>
        <time>2020-06-03T16:10:08Z</time>
      </trkpt>
      <trkpt lat="46.67276" lon="-1.91008">
        <ele>2.3</ele>
        <time>2020-06-03T16:10:09Z</time>
      </trkpt>
      <trkpt lat="46.6728" lon="-1.91016">
        <ele>2.2</ele>
        <time>2020-06-03T16:10:10Z</time>
      </trkpt>
      <trkpt lat="46.67283" lon="-1.91023">
        <ele>2.2</ele>
        <time>2020-06-03T16:10:11Z</time>
      </trkpt>
      <trkpt lat="46.67287" lon="-1.91029">
        <ele>2.2</ele>
        <time>2020-06-03T16:10:12Z</time>
      </trkpt>
      <trkpt lat="46.67291" lon="-1.91035">
        <ele>2.2</ele>
        <time>2020-06-03T16:10:13Z</time>
      </trkpt>
      <trkpt lat="46.67295" lon="-1.91042">
        <ele>2.2</ele>
        <time>2020-06-03T16:10:14Z</time>
      </trkpt>
      <trkpt lat="46.67298" lon="-1.9105">
        <ele>2.2</ele>
        <time>2020-06-03T16:10:15Z</time>
      </trkpt>
      <trkpt lat="46.67301" lon="-1.91057">
        <ele>2.2</ele>
        <time>2020-06-03T16:10:16Z</time>
      </trkpt>
      <trkpt lat="46.67303" lon="-1.91064">
        <ele>2.2</ele>
        <time>2020-06-03T16:10:17Z</time>
      </trkpt>
      <trkpt lat="46.67306" lon="-1.9107">
        <ele>2.2</ele>
        <time>2020-06-03T16:10:18Z</time>
      </trkpt>
      <trkpt lat="46.67307" lon="-1.91077">
        <ele>2.2</ele>
        <time>2020-06-03T16:10:19Z</time>
      </trkpt>
      <trkpt lat="46.67311" lon="-1.91082">
        <ele>2.2</ele>
        <time>2020-06-03T16:10:20Z</time>
      </trkpt>
      <trkpt lat="46.67314" lon="-1.91088">
        <ele>2.2</ele>
        <time>2020-06-03T16:10:21Z</time>
      </trkpt>
      <trkpt lat="46.67318" lon="-1.91094">
        <ele>2.2</ele>
        <time>2020-06-03T16:10:22Z</time>
      </trkpt>
      <trkpt lat="46.67321" lon="-1.911">
        <ele>2.2</ele>
        <time>2020-06-03T16:10:23Z</time>
      </trkpt>
      <trkpt lat="46.67325" lon="-1.91107">
        <ele>2.2</ele>
        <time>2020-06-03T16:10:24Z</time>
      </trkpt>
      <trkpt lat="46.67329" lon="-1.91114">
        <ele>2.2</ele>
        <time>2020-06-03T16:10:25Z</time>
      </trkpt>
      <trkpt lat="46.67332" lon="-1.9112">
        <ele>2.2</ele>
        <time>2020-06-03T16:10:26Z</time>
      </trkpt>
      <trkpt lat="46.67335" lon="-1.91126">
        <ele>2.2</ele>
        <time>2020-06-03T16:10:27Z</time>
      </trkpt>
      <trkpt lat="46.67339" lon="-1.91133">
        <ele>2.2</ele>
        <time>2020-06-03T16:10:28Z</time>
      </trkpt>
      <trkpt lat="46.67342" lon="-1.91139">
        <ele>2.2</ele>
        <time>2020-06-03T16:10:29Z</time>
      </trkpt>
      <trkpt lat="46.67344" lon="-1.91145">
        <ele>2.2</ele>
        <time>2020-06-03T16:10:30Z</time>
      </trkpt>
      <trkpt lat="46.67347" lon="-1.91152">
        <ele>2.2</ele>
        <time>2020-06-03T16:10:31Z</time>
      </trkpt>
      <trkpt lat="46.67349" lon="-1.91159">
        <ele>2.2</ele>
        <time>2020-06-03T16:10:32Z</time>
      </trkpt>
      <trkpt lat="46.67352" lon="-1.91165">
        <ele>2.2</ele>
        <time>2020-06-03T16:10:33Z</time>
      </trkpt>
      <trkpt lat="46.67355" lon="-1.91172">
        <ele>2.2</ele>
        <time>2020-06-03T16:10:34Z</time>
      </trkpt>
      <trkpt lat="46.67357" lon="-1.91178">
        <ele>2.2</ele>
        <time>2020-06-03T16:10:35Z</time>
      </trkpt>
      <trkpt lat="46.67358" lon="-1.91183">
        <ele>2.2</ele>
        <time>2020-06-03T16:10:36Z</time>
      </trkpt>
      <trkpt lat="46.6736" lon="-1.91189">
        <ele>2.2</ele>
        <time>2020-06-03T16:10:37Z</time>
      </trkpt>
      <trkpt lat="46.67362" lon="-1.91194">
        <ele>2.2</ele>
        <time>2020-06-03T16:10:38Z</time>
      </trkpt>
      <trkpt lat="46.67365" lon="-1.91202">
        <ele>2.2</ele>
        <time>2020-06-03T16:10:39Z</time>
      </trkpt>
      <trkpt lat="46.67368" lon="-1.91209">
        <ele>2.2</ele>
        <time>2020-06-03T16:10:40Z</time>
      </trkpt>
      <trkpt lat="46.6737" lon="-1.91216">
        <ele>2.2</ele>
        <time>2020-06-03T16:10:41Z</time>
      </trkpt>
      <trkpt lat="46.67372" lon="-1.91223">
        <ele>2.2</ele>
        <time>2020-06-03T16:10:42Z</time>
      </trkpt>
      <trkpt lat="46.67374" lon="-1.91229">
        <ele>2.2</ele>
        <time>2020-06-03T16:10:43Z</time>
      </trkpt>
      <trkpt lat="46.67376" lon="-1.91235">
        <ele>2.3</ele>
        <time>2020-06-03T16:10:44Z</time>
      </trkpt>
      <trkpt lat="46.67378" lon="-1.9124">
        <ele>2.3</ele>
        <time>2020-06-03T16:10:45Z</time>
      </trkpt>
      <trkpt lat="46.67381" lon="-1.91244">
        <ele>2.4</ele>
        <time>2020-06-03T16:10:46Z</time>
      </trkpt>
      <trkpt lat="46.67384" lon="-1.91249">
        <ele>2.4</ele>
        <time>2020-06-03T16:10:47Z</time>
      </trkpt>
      <trkpt lat="46.67386" lon="-1.91255">
        <ele>2.4</ele>
        <time>2020-06-03T16:10:48Z</time>
      </trkpt>
      <trkpt lat="46.67389" lon="-1.91259">
        <ele>2.5</ele>
        <time>2020-06-03T16:10:49Z</time>
      </trkpt>
      <trkpt lat="46.67391" lon="-1.91265">
        <ele>2.5</ele>
        <time>2020-06-03T16:10:50Z</time>
      </trkpt>
      <trkpt lat="46.67394" lon="-1.91271">
        <ele>2.6</ele>
        <time>2020-06-03T16:10:51Z</time>
      </trkpt>
      <trkpt lat="46.67396" lon="-1.91277">
        <ele>2.6</ele>
        <time>2020-06-03T16:10:52Z</time>
      </trkpt>
      <trkpt lat="46.67398" lon="-1.91283">
        <ele>2.7</ele>
        <time>2020-06-03T16:10:53Z</time>
      </trkpt>
      <trkpt lat="46.67401" lon="-1.91289">
        <ele>2.7</ele>
        <time>2020-06-03T16:10:54Z</time>
      </trkpt>
      <trkpt lat="46.67405" lon="-1.91295">
        <ele>2.8</ele>
        <time>2020-06-03T16:10:55Z</time>
      </trkpt>
      <trkpt lat="46.67408" lon="-1.913">
        <ele>2.9</ele>
        <time>2020-06-03T16:10:56Z</time>
      </trkpt>
      <trkpt lat="46.67411" lon="-1.91305">
        <ele>2.9</ele>
        <time>2020-06-03T16:10:57Z</time>
      </trkpt>
      <trkpt lat="46.67415" lon="-1.91311">
        <ele>3</ele>
        <time>2020-06-03T16:10:58Z</time>
      </trkpt>
      <trkpt lat="46.67419" lon="-1.91317">
        <ele>3.1</ele>
        <time>2020-06-03T16:10:59Z</time>
      </trkpt>
      <trkpt lat="46.67422" lon="-1.91324">
        <ele>3.2</ele>
        <time>2020-06-03T16:11:00Z</time>
      </trkpt>
      <trkpt lat="46.67426" lon="-1.91331">
        <ele>3.3</ele>
        <time>2020-06-03T16:11:01Z</time>
      </trkpt>
      <trkpt lat="46.67429" lon="-1.91337">
        <ele>3.4</ele>
        <time>2020-06-03T16:11:02Z</time>
      </trkpt>
      <trkpt lat="46.67432" lon="-1.91342">
        <ele>3.5</ele>
        <time>2020-06-03T16:11:03Z</time>
      </trkpt>
      <trkpt lat="46.67436" lon="-1.91348">
        <ele>3.6</ele>
        <time>2020-06-03T16:11:04Z</time>
      </trkpt>
      <trkpt lat="46.6744" lon="-1.91353">
        <ele>3.7</ele>
        <time>2020-06-03T16:11:05Z</time>
      </trkpt>
      <trkpt lat="46.67443" lon="-1.91357">
        <ele>3.8</ele>
        <time>2020-06-03T16:11:06Z</time>
      </trkpt>
      <trkpt lat="46.67445" lon="-1.91362">
        <ele>3.9</ele>
        <time>2020-06-03T16:11:07Z</time>
      </trkpt>
      <trkpt lat="46.67447" lon="-1.91367">
        <ele>3.9</ele>
        <time>2020-06-03T16:11:08Z</time>
      </trkpt>
      <trkpt lat="46.6745" lon="-1.9137">
        <ele>4</ele>
        <time>2020-06-03T16:11:09Z</time>
      </trkpt>
      <trkpt lat="46.67453" lon="-1.91373">
        <ele>4</ele>
        <time>2020-06-03T16:11:10Z</time>
      </trkpt>
      <trkpt lat="46.67455" lon="-1.91377">
        <ele>4.1</ele>
        <time>2020-06-03T16:11:11Z</time>
      </trkpt>
      <trkpt lat="46.67456" lon="-1.91379">
        <ele>4.1</ele>
        <time>2020-06-03T16:11:12Z</time>
      </trkpt>
      <trkpt lat="46.67458" lon="-1.9138">
        <ele>4.1</ele>
        <time>2020-06-03T16:11:13Z</time>
      </trkpt>
      <trkpt lat="46.67461" lon="-1.91381">
        <ele>4.1</ele>
        <time>2020-06-03T16:11:14Z</time>
      </trkpt>
      <trkpt lat="46.67463" lon="-1.91382">
        <ele>4.1</ele>
        <time>2020-06-03T16:11:15Z</time>
      </trkpt>
      <trkpt lat="46.67465" lon="-1.91383">
        <ele>4.1</ele>
        <time>2020-06-03T16:11:16Z</time>
      </trkpt>
      <trkpt lat="46.67466" lon="-1.91384">
        <ele>4.2</ele>
        <time>2020-06-03T16:11:17Z</time>
      </trkpt>
      <trkpt lat="46.67469" lon="-1.91387">
        <ele>4.1</ele>
        <time>2020-06-03T16:11:18Z</time>
      </trkpt>
      <trkpt lat="46.67469" lon="-1.91388">
        <ele>4.1</ele>
        <time>2020-06-03T16:11:19Z</time>
      </trkpt>
      <trkpt lat="46.67471" lon="-1.91393">
        <ele>4.1</ele>
        <time>2020-06-03T16:11:20Z</time>
      </trkpt>
      <trkpt lat="46.67472" lon="-1.91394">
        <ele>4.1</ele>
        <time>2020-06-03T16:11:21Z</time>
      </trkpt>
      <trkpt lat="46.67473" lon="-1.91397">
        <ele>4.1</ele>
        <time>2020-06-03T16:11:22Z</time>
      </trkpt>
      <trkpt lat="46.67474" lon="-1.91398">
        <ele>4.1</ele>
        <time>2020-06-03T16:11:23Z</time>
      </trkpt>
      <trkpt lat="46.67477" lon="-1.914">
        <ele>4.1</ele>
        <time>2020-06-03T16:11:24Z</time>
      </trkpt>
      <trkpt lat="46.6748" lon="-1.91404">
        <ele>4.1</ele>
        <time>2020-06-03T16:11:25Z</time>
      </trkpt>
      <trkpt lat="46.67481" lon="-1.91406">
        <ele>4.1</ele>
        <time>2020-06-03T16:11:26Z</time>
      </trkpt>
      <trkpt lat="46.67482" lon="-1.91411">
        <ele>4.1</ele>
        <time>2020-06-03T16:11:27Z</time>
      </trkpt>
      <trkpt lat="46.67483" lon="-1.91416">
        <ele>4.1</ele>
        <time>2020-06-03T16:11:28Z</time>
      </trkpt>
      <trkpt lat="46.67484" lon="-1.91421">
        <ele>4.1</ele>
        <time>2020-06-03T16:11:29Z</time>
      </trkpt>
      <trkpt lat="46.67486" lon="-1.91426">
        <ele>4.1</ele>
        <time>2020-06-03T16:11:30Z</time>
      </trkpt>
      <trkpt lat="46.67487" lon="-1.9143">
        <ele>4.1</ele>
        <time>2020-06-03T16:11:31Z</time>
      </trkpt>
      <trkpt lat="46.67489" lon="-1.91434">
        <ele>4.1</ele>
        <time>2020-06-03T16:11:32Z</time>
      </trkpt>
      <trkpt lat="46.6749" lon="-1.91439">
        <ele>4.1</ele>
        <time>2020-06-03T16:11:33Z</time>
      </trkpt>
      <trkpt lat="46.67492" lon="-1.91444">
        <ele>4.1</ele>
        <time>2020-06-03T16:11:34Z</time>
      </trkpt>
      <trkpt lat="46.67496" lon="-1.91449">
        <ele>4</ele>
        <time>2020-06-03T16:11:35Z</time>
      </trkpt>
      <trkpt lat="46.675" lon="-1.91455">
        <ele>4</ele>
        <time>2020-06-03T16:11:36Z</time>
      </trkpt>
      <trkpt lat="46.67503" lon="-1.91462">
        <ele>4</ele>
        <time>2020-06-03T16:11:37Z</time>
      </trkpt>
      <trkpt lat="46.67506" lon="-1.91469">
        <ele>4</ele>
        <time>2020-06-03T16:11:38Z</time>
      </trkpt>
      <trkpt lat="46.67509" lon="-1.91474">
        <ele>4</ele>
        <time>2020-06-03T16:11:39Z</time>
      </trkpt>
      <trkpt lat="46.67513" lon="-1.91479">
        <ele>4</ele>
        <time>2020-06-03T16:11:40Z</time>
      </trkpt>
      <trkpt lat="46.67516" lon="-1.91485">
        <ele>4</ele>
        <time>2020-06-03T16:11:41Z</time>
      </trkpt>
      <trkpt lat="46.6752" lon="-1.91491">
        <ele>3.9</ele>
        <time>2020-06-03T16:11:42Z</time>
      </trkpt>
      <trkpt lat="46.67523" lon="-1.91497">
        <ele>3.9</ele>
        <time>2020-06-03T16:11:43Z</time>
      </trkpt>
      <trkpt lat="46.67527" lon="-1.91503">
        <ele>3.9</ele>
        <time>2020-06-03T16:11:44Z</time>
      </trkpt>
      <trkpt lat="46.6753" lon="-1.91509">
        <ele>3.9</ele>
        <time>2020-06-03T16:11:45Z</time>
      </trkpt>
      <trkpt lat="46.67532" lon="-1.91514">
        <ele>3.9</ele>
        <time>2020-06-03T16:11:46Z</time>
      </trkpt>
      <trkpt lat="46.67535" lon="-1.9152">
        <ele>3.9</ele>
        <time>2020-06-03T16:11:47Z</time>
      </trkpt>
      <trkpt lat="46.67538" lon="-1.91526">
        <ele>3.9</ele>
        <time>2020-06-03T16:11:48Z</time>
      </trkpt>
      <trkpt lat="46.67542" lon="-1.91532">
        <ele>4</ele>
        <time>2020-06-03T16:11:49Z</time>
      </trkpt>
      <trkpt lat="46.67544" lon="-1.91538">
        <ele>4</ele>
        <time>2020-06-03T16:11:50Z</time>
      </trkpt>
      <trkpt lat="46.67547" lon="-1.91544">
        <ele>4</ele>
        <time>2020-06-03T16:11:51Z</time>
      </trkpt>
      <trkpt lat="46.6755" lon="-1.91549">
        <ele>4</ele>
        <time>2020-06-03T16:11:52Z</time>
      </trkpt>
      <trkpt lat="46.67552" lon="-1.91553">
        <ele>4</ele>
        <time>2020-06-03T16:11:53Z</time>
      </trkpt>
      <trkpt lat="46.67555" lon="-1.91558">
        <ele>4.1</ele>
        <time>2020-06-03T16:11:54Z</time>
      </trkpt>
      <trkpt lat="46.67558" lon="-1.91563">
        <ele>4.1</ele>
        <time>2020-06-03T16:11:55Z</time>
      </trkpt>
      <trkpt lat="46.67561" lon="-1.9157">
        <ele>4.1</ele>
        <time>2020-06-03T16:11:56Z</time>
      </trkpt>
      <trkpt lat="46.67565" lon="-1.91575">
        <ele>4.1</ele>
        <time>2020-06-03T16:11:57Z</time>
      </trkpt>
      <trkpt lat="46.67567" lon="-1.9158">
        <ele>4.2</ele>
        <time>2020-06-03T16:11:58Z</time>
      </trkpt>
      <trkpt lat="46.6757" lon="-1.91586">
        <ele>4.2</ele>
        <time>2020-06-03T16:11:59Z</time>
      </trkpt>
      <trkpt lat="46.67572" lon="-1.91592">
        <ele>4.2</ele>
        <time>2020-06-03T16:12:00Z</time>
      </trkpt>
      <trkpt lat="46.67575" lon="-1.91598">
        <ele>4.2</ele>
        <time>2020-06-03T16:12:01Z</time>
      </trkpt>
      <trkpt lat="46.67578" lon="-1.91605">
        <ele>4.3</ele>
        <time>2020-06-03T16:12:02Z</time>
      </trkpt>
      <trkpt lat="46.67581" lon="-1.91612">
        <ele>4.3</ele>
        <time>2020-06-03T16:12:03Z</time>
      </trkpt>
      <trkpt lat="46.67583" lon="-1.9162">
        <ele>4.3</ele>
        <time>2020-06-03T16:12:04Z</time>
      </trkpt>
      <trkpt lat="46.67586" lon="-1.91627">
        <ele>4.4</ele>
        <time>2020-06-03T16:12:05Z</time>
      </trkpt>
      <trkpt lat="46.67589" lon="-1.91636">
        <ele>4.4</ele>
        <time>2020-06-03T16:12:06Z</time>
      </trkpt>
      <trkpt lat="46.67592" lon="-1.91643">
        <ele>4.4</ele>
        <time>2020-06-03T16:12:07Z</time>
      </trkpt>
      <trkpt lat="46.67595" lon="-1.91649">
        <ele>4.4</ele>
        <time>2020-06-03T16:12:08Z</time>
      </trkpt>
      <trkpt lat="46.67598" lon="-1.91656">
        <ele>4.5</ele>
        <time>2020-06-03T16:12:09Z</time>
      </trkpt>
      <trkpt lat="46.67601" lon="-1.91663">
        <ele>4.5</ele>
        <time>2020-06-03T16:12:10Z</time>
      </trkpt>
      <trkpt lat="46.67605" lon="-1.9167">
        <ele>4.5</ele>
        <time>2020-06-03T16:12:11Z</time>
      </trkpt>
      <trkpt lat="46.67608" lon="-1.91677">
        <ele>4.4</ele>
        <time>2020-06-03T16:12:12Z</time>
      </trkpt>
      <trkpt lat="46.67612" lon="-1.91685">
        <ele>4.4</ele>
        <time>2020-06-03T16:12:13Z</time>
      </trkpt>
      <trkpt lat="46.67616" lon="-1.91692">
        <ele>4.4</ele>
        <time>2020-06-03T16:12:14Z</time>
      </trkpt>
      <trkpt lat="46.6762" lon="-1.91698">
        <ele>4.3</ele>
        <time>2020-06-03T16:12:15Z</time>
      </trkpt>
      <trkpt lat="46.67623" lon="-1.91705">
        <ele>4.3</ele>
        <time>2020-06-03T16:12:16Z</time>
      </trkpt>
      <trkpt lat="46.67627" lon="-1.91711">
        <ele>4.2</ele>
        <time>2020-06-03T16:12:17Z</time>
      </trkpt>
      <trkpt lat="46.67631" lon="-1.91718">
        <ele>4.1</ele>
        <time>2020-06-03T16:12:18Z</time>
      </trkpt>
      <trkpt lat="46.67635" lon="-1.91725">
        <ele>4.1</ele>
        <time>2020-06-03T16:12:19Z</time>
      </trkpt>
      <trkpt lat="46.67639" lon="-1.91733">
        <ele>4</ele>
        <time>2020-06-03T16:12:20Z</time>
      </trkpt>
      <trkpt lat="46.67643" lon="-1.91741">
        <ele>3.9</ele>
        <time>2020-06-03T16:12:21Z</time>
      </trkpt>
      <trkpt lat="46.67646" lon="-1.91748">
        <ele>3.8</ele>
        <time>2020-06-03T16:12:22Z</time>
      </trkpt>
      <trkpt lat="46.6765" lon="-1.91755">
        <ele>3.8</ele>
        <time>2020-06-03T16:12:23Z</time>
      </trkpt>
      <trkpt lat="46.67654" lon="-1.91762">
        <ele>3.7</ele>
        <time>2020-06-03T16:12:24Z</time>
      </trkpt>
      <trkpt lat="46.67658" lon="-1.91769">
        <ele>3.7</ele>
        <time>2020-06-03T16:12:25Z</time>
      </trkpt>
      <trkpt lat="46.67663" lon="-1.91777">
        <ele>3.6</ele>
        <time>2020-06-03T16:12:26Z</time>
      </trkpt>
      <trkpt lat="46.67666" lon="-1.91785">
        <ele>3.6</ele>
        <time>2020-06-03T16:12:27Z</time>
      </trkpt>
      <trkpt lat="46.67671" lon="-1.91792">
        <ele>3.6</ele>
        <time>2020-06-03T16:12:28Z</time>
      </trkpt>
      <trkpt lat="46.67675" lon="-1.91799">
        <ele>3.6</ele>
        <time>2020-06-03T16:12:29Z</time>
      </trkpt>
      <trkpt lat="46.67679" lon="-1.91806">
        <ele>3.6</ele>
        <time>2020-06-03T16:12:30Z</time>
      </trkpt>
      <trkpt lat="46.67683" lon="-1.91813">
        <ele>3.7</ele>
        <time>2020-06-03T16:12:31Z</time>
      </trkpt>
      <trkpt lat="46.67687" lon="-1.91821">
        <ele>3.7</ele>
        <time>2020-06-03T16:12:32Z</time>
      </trkpt>
      <trkpt lat="46.6769" lon="-1.91829">
        <ele>3.7</ele>
        <time>2020-06-03T16:12:33Z</time>
      </trkpt>
      <trkpt lat="46.67693" lon="-1.91835">
        <ele>3.7</ele>
        <time>2020-06-03T16:12:34Z</time>
      </trkpt>
      <trkpt lat="46.67695" lon="-1.9184">
        <ele>3.7</ele>
        <time>2020-06-03T16:12:35Z</time>
      </trkpt>
      <trkpt lat="46.67697" lon="-1.91847">
        <ele>3.7</ele>
        <time>2020-06-03T16:12:36Z</time>
      </trkpt>
      <trkpt lat="46.677" lon="-1.91854">
        <ele>3.7</ele>
        <time>2020-06-03T16:12:37Z</time>
      </trkpt>
      <trkpt lat="46.67703" lon="-1.9186">
        <ele>3.7</ele>
        <time>2020-06-03T16:12:38Z</time>
      </trkpt>
      <trkpt lat="46.67707" lon="-1.91865">
        <ele>3.7</ele>
        <time>2020-06-03T16:12:39Z</time>
      </trkpt>
      <trkpt lat="46.67711" lon="-1.91871">
        <ele>3.7</ele>
        <time>2020-06-03T16:12:40Z</time>
      </trkpt>
      <trkpt lat="46.67713" lon="-1.91876">
        <ele>3.7</ele>
        <time>2020-06-03T16:12:41Z</time>
      </trkpt>
      <trkpt lat="46.67716" lon="-1.91882">
        <ele>3.7</ele>
        <time>2020-06-03T16:12:42Z</time>
      </trkpt>
      <trkpt lat="46.67719" lon="-1.91887">
        <ele>3.7</ele>
        <time>2020-06-03T16:12:43Z</time>
      </trkpt>
      <trkpt lat="46.67722" lon="-1.91892">
        <ele>3.7</ele>
        <time>2020-06-03T16:12:44Z</time>
      </trkpt>
      <trkpt lat="46.67725" lon="-1.91896">
        <ele>3.6</ele>
        <time>2020-06-03T16:12:45Z</time>
      </trkpt>
      <trkpt lat="46.67728" lon="-1.91901">
        <ele>3.6</ele>
        <time>2020-06-03T16:12:46Z</time>
      </trkpt>
      <trkpt lat="46.6773" lon="-1.91906">
        <ele>3.6</ele>
        <time>2020-06-03T16:12:47Z</time>
      </trkpt>
      <trkpt lat="46.67732" lon="-1.91911">
        <ele>3.5</ele>
        <time>2020-06-03T16:12:48Z</time>
      </trkpt>
      <trkpt lat="46.67735" lon="-1.91915">
        <ele>3.5</ele>
        <time>2020-06-03T16:12:49Z</time>
      </trkpt>
      <trkpt lat="46.67737" lon="-1.91919">
        <ele>3.5</ele>
        <time>2020-06-03T16:12:50Z</time>
      </trkpt>
      <trkpt lat="46.67739" lon="-1.91924">
        <ele>3.4</ele>
        <time>2020-06-03T16:12:51Z</time>
      </trkpt>
      <trkpt lat="46.67742" lon="-1.91926">
        <ele>3.4</ele>
        <time>2020-06-03T16:12:52Z</time>
      </trkpt>
      <trkpt lat="46.67745" lon="-1.91929">
        <ele>3.4</ele>
        <time>2020-06-03T16:12:53Z</time>
      </trkpt>
      <trkpt lat="46.67747" lon="-1.91933">
        <ele>3.4</ele>
        <time>2020-06-03T16:12:54Z</time>
      </trkpt>
      <trkpt lat="46.6775" lon="-1.91938">
        <ele>3.4</ele>
        <time>2020-06-03T16:12:55Z</time>
      </trkpt>
      <trkpt lat="46.67752" lon="-1.91941">
        <ele>3.4</ele>
        <time>2020-06-03T16:12:56Z</time>
      </trkpt>
      <trkpt lat="46.67755" lon="-1.91945">
        <ele>3.4</ele>
        <time>2020-06-03T16:12:57Z</time>
      </trkpt>
      <trkpt lat="46.67757" lon="-1.91948">
        <ele>3.4</ele>
        <time>2020-06-03T16:12:58Z</time>
      </trkpt>
      <trkpt lat="46.67759" lon="-1.91951">
        <ele>3.4</ele>
        <time>2020-06-03T16:12:59Z</time>
      </trkpt>
      <trkpt lat="46.67761" lon="-1.91955">
        <ele>3.4</ele>
        <time>2020-06-03T16:13:00Z</time>
      </trkpt>
      <trkpt lat="46.67762" lon="-1.91957">
        <ele>3.4</ele>
        <time>2020-06-03T16:13:01Z</time>
      </trkpt>
      <trkpt lat="46.67764" lon="-1.91959">
        <ele>3.4</ele>
        <time>2020-06-03T16:13:02Z</time>
      </trkpt>
      <trkpt lat="46.67766" lon="-1.91962">
        <ele>3.4</ele>
        <time>2020-06-03T16:13:03Z</time>
      </trkpt>
      <trkpt lat="46.67769" lon="-1.91966">
        <ele>3.4</ele>
        <time>2020-06-03T16:13:04Z</time>
      </trkpt>
      <trkpt lat="46.6777" lon="-1.91967">
        <ele>3.4</ele>
        <time>2020-06-03T16:13:05Z</time>
      </trkpt>
      <trkpt lat="46.67773" lon="-1.91971">
        <ele>3.4</ele>
        <time>2020-06-03T16:13:06Z</time>
      </trkpt>
      <trkpt lat="46.67775" lon="-1.91975">
        <ele>3.4</ele>
        <time>2020-06-03T16:13:07Z</time>
      </trkpt>
      <trkpt lat="46.67777" lon="-1.91978">
        <ele>3.4</ele>
        <time>2020-06-03T16:13:08Z</time>
      </trkpt>
      <trkpt lat="46.6778" lon="-1.91982">
        <ele>3.4</ele>
        <time>2020-06-03T16:13:09Z</time>
      </trkpt>
      <trkpt lat="46.67783" lon="-1.91986">
        <ele>3.4</ele>
        <time>2020-06-03T16:13:10Z</time>
      </trkpt>
      <trkpt lat="46.67785" lon="-1.91989">
        <ele>3.5</ele>
        <time>2020-06-03T16:13:11Z</time>
      </trkpt>
      <trkpt lat="46.67788" lon="-1.91993">
        <ele>3.5</ele>
        <time>2020-06-03T16:13:12Z</time>
      </trkpt>
      <trkpt lat="46.67789" lon="-1.91996">
        <ele>3.5</ele>
        <time>2020-06-03T16:13:13Z</time>
      </trkpt>
      <trkpt lat="46.67791" lon="-1.92">
        <ele>3.5</ele>
        <time>2020-06-03T16:13:14Z</time>
      </trkpt>
      <trkpt lat="46.67794" lon="-1.92004">
        <ele>3.5</ele>
        <time>2020-06-03T16:13:15Z</time>
      </trkpt>
      <trkpt lat="46.67796" lon="-1.92007">
        <ele>3.5</ele>
        <time>2020-06-03T16:13:16Z</time>
      </trkpt>
      <trkpt lat="46.67799" lon="-1.92012">
        <ele>3.5</ele>
        <time>2020-06-03T16:13:17Z</time>
      </trkpt>
      <trkpt lat="46.678" lon="-1.92013">
        <ele>3.5</ele>
        <time>2020-06-03T16:13:18Z</time>
      </trkpt>
      <trkpt lat="46.67803" lon="-1.92018">
        <ele>3.5</ele>
        <time>2020-06-03T16:13:19Z</time>
      </trkpt>
      <trkpt lat="46.67808" lon="-1.92023">
        <ele>3.5</ele>
        <time>2020-06-03T16:13:20Z</time>
      </trkpt>
      <trkpt lat="46.67812" lon="-1.92028">
        <ele>3.5</ele>
        <time>2020-06-03T16:13:21Z</time>
      </trkpt>
      <trkpt lat="46.67816" lon="-1.92034">
        <ele>3.5</ele>
        <time>2020-06-03T16:13:22Z</time>
      </trkpt>
      <trkpt lat="46.67818" lon="-1.9204">
        <ele>3.5</ele>
        <time>2020-06-03T16:13:23Z</time>
      </trkpt>
      <trkpt lat="46.6782" lon="-1.92046">
        <ele>3.5</ele>
        <time>2020-06-03T16:13:24Z</time>
      </trkpt>
      <trkpt lat="46.67823" lon="-1.92051">
        <ele>3.5</ele>
        <time>2020-06-03T16:13:25Z</time>
      </trkpt>
      <trkpt lat="46.67825" lon="-1.92056">
        <ele>3.5</ele>
        <time>2020-06-03T16:13:26Z</time>
      </trkpt>
      <trkpt lat="46.67826" lon="-1.92063">
        <ele>3.5</ele>
        <time>2020-06-03T16:13:27Z</time>
      </trkpt>
      <trkpt lat="46.67828" lon="-1.9207">
        <ele>3.5</ele>
        <time>2020-06-03T16:13:28Z</time>
      </trkpt>
      <trkpt lat="46.6783" lon="-1.92076">
        <ele>3.6</ele>
        <time>2020-06-03T16:13:29Z</time>
      </trkpt>
      <trkpt lat="46.67831" lon="-1.92082">
        <ele>3.6</ele>
        <time>2020-06-03T16:13:30Z</time>
      </trkpt>
      <trkpt lat="46.67832" lon="-1.92088">
        <ele>3.6</ele>
        <time>2020-06-03T16:13:31Z</time>
      </trkpt>
      <trkpt lat="46.67833" lon="-1.92094">
        <ele>3.6</ele>
        <time>2020-06-03T16:13:32Z</time>
      </trkpt>
      <trkpt lat="46.67835" lon="-1.92102">
        <ele>3.6</ele>
        <time>2020-06-03T16:13:33Z</time>
      </trkpt>
      <trkpt lat="46.67835" lon="-1.92109">
        <ele>3.6</ele>
        <time>2020-06-03T16:13:34Z</time>
      </trkpt>
      <trkpt lat="46.67836" lon="-1.92116">
        <ele>3.6</ele>
        <time>2020-06-03T16:13:35Z</time>
      </trkpt>
      <trkpt lat="46.67837" lon="-1.92124">
        <ele>3.6</ele>
        <time>2020-06-03T16:13:36Z</time>
      </trkpt>
      <trkpt lat="46.67839" lon="-1.92131">
        <ele>3.6</ele>
        <time>2020-06-03T16:13:37Z</time>
      </trkpt>
      <trkpt lat="46.6784" lon="-1.92139">
        <ele>3.7</ele>
        <time>2020-06-03T16:13:38Z</time>
      </trkpt>
      <trkpt lat="46.67841" lon="-1.92146">
        <ele>3.7</ele>
        <time>2020-06-03T16:13:39Z</time>
      </trkpt>
      <trkpt lat="46.67843" lon="-1.92151">
        <ele>3.7</ele>
        <time>2020-06-03T16:13:40Z</time>
      </trkpt>
      <trkpt lat="46.67846" lon="-1.92157">
        <ele>3.7</ele>
        <time>2020-06-03T16:13:41Z</time>
      </trkpt>
      <trkpt lat="46.67849" lon="-1.92162">
        <ele>3.7</ele>
        <time>2020-06-03T16:13:42Z</time>
      </trkpt>
      <trkpt lat="46.67852" lon="-1.92168">
        <ele>3.7</ele>
        <time>2020-06-03T16:13:43Z</time>
      </trkpt>
      <trkpt lat="46.67855" lon="-1.92173">
        <ele>3.7</ele>
        <time>2020-06-03T16:13:44Z</time>
      </trkpt>
      <trkpt lat="46.67858" lon="-1.92179">
        <ele>3.7</ele>
        <time>2020-06-03T16:13:45Z</time>
      </trkpt>
      <trkpt lat="46.67863" lon="-1.92184">
        <ele>3.7</ele>
        <time>2020-06-03T16:13:46Z</time>
      </trkpt>
      <trkpt lat="46.67867" lon="-1.92187">
        <ele>3.7</ele>
        <time>2020-06-03T16:13:47Z</time>
      </trkpt>
      <trkpt lat="46.6787" lon="-1.92191">
        <ele>3.7</ele>
        <time>2020-06-03T16:13:48Z</time>
      </trkpt>
      <trkpt lat="46.67874" lon="-1.92195">
        <ele>3.8</ele>
        <time>2020-06-03T16:13:49Z</time>
      </trkpt>
      <trkpt lat="46.67878" lon="-1.92198">
        <ele>3.8</ele>
        <time>2020-06-03T16:13:50Z</time>
      </trkpt>
      <trkpt lat="46.67882" lon="-1.92201">
        <ele>3.8</ele>
        <time>2020-06-03T16:13:51Z</time>
      </trkpt>
      <trkpt lat="46.67886" lon="-1.92203">
        <ele>3.8</ele>
        <time>2020-06-03T16:13:52Z</time>
      </trkpt>
      <trkpt lat="46.6789" lon="-1.92206">
        <ele>3.8</ele>
        <time>2020-06-03T16:13:53Z</time>
      </trkpt>
      <trkpt lat="46.67893" lon="-1.92209">
        <ele>3.8</ele>
        <time>2020-06-03T16:13:54Z</time>
      </trkpt>
      <trkpt lat="46.67896" lon="-1.92211">
        <ele>3.8</ele>
        <time>2020-06-03T16:13:55Z</time>
      </trkpt>
      <trkpt lat="46.67898" lon="-1.92213">
        <ele>3.8</ele>
        <time>2020-06-03T16:13:56Z</time>
      </trkpt>
      <trkpt lat="46.67902" lon="-1.92216">
        <ele>3.9</ele>
        <time>2020-06-03T16:13:57Z</time>
      </trkpt>
      <trkpt lat="46.67906" lon="-1.92217">
        <ele>3.9</ele>
        <time>2020-06-03T16:13:58Z</time>
      </trkpt>
      <trkpt lat="46.6791" lon="-1.92219">
        <ele>3.9</ele>
        <time>2020-06-03T16:13:59Z</time>
      </trkpt>
      <trkpt lat="46.67913" lon="-1.92222">
        <ele>3.9</ele>
        <time>2020-06-03T16:14:00Z</time>
      </trkpt>
      <trkpt lat="46.67917" lon="-1.92225">
        <ele>3.9</ele>
        <time>2020-06-03T16:14:01Z</time>
      </trkpt>
      <trkpt lat="46.67921" lon="-1.92228">
        <ele>3.9</ele>
        <time>2020-06-03T16:14:02Z</time>
      </trkpt>
      <trkpt lat="46.67924" lon="-1.92231">
        <ele>3.9</ele>
        <time>2020-06-03T16:14:03Z</time>
      </trkpt>
      <trkpt lat="46.67928" lon="-1.92235">
        <ele>4</ele>
        <time>2020-06-03T16:14:04Z</time>
      </trkpt>
      <trkpt lat="46.67932" lon="-1.92239">
        <ele>4</ele>
        <time>2020-06-03T16:14:05Z</time>
      </trkpt>
      <trkpt lat="46.67936" lon="-1.92241">
        <ele>4</ele>
        <time>2020-06-03T16:14:06Z</time>
      </trkpt>
      <trkpt lat="46.67939" lon="-1.92244">
        <ele>4</ele>
        <time>2020-06-03T16:14:07Z</time>
      </trkpt>
      <trkpt lat="46.67942" lon="-1.92247">
        <ele>4</ele>
        <time>2020-06-03T16:14:08Z</time>
      </trkpt>
      <trkpt lat="46.67945" lon="-1.92251">
        <ele>4</ele>
        <time>2020-06-03T16:14:09Z</time>
      </trkpt>
      <trkpt lat="46.67949" lon="-1.92255">
        <ele>4.1</ele>
        <time>2020-06-03T16:14:10Z</time>
      </trkpt>
      <trkpt lat="46.67953" lon="-1.92259">
        <ele>4.1</ele>
        <time>2020-06-03T16:14:11Z</time>
      </trkpt>
      <trkpt lat="46.67957" lon="-1.92263">
        <ele>4.2</ele>
        <time>2020-06-03T16:14:12Z</time>
      </trkpt>
      <trkpt lat="46.67961" lon="-1.92267">
        <ele>4.3</ele>
        <time>2020-06-03T16:14:13Z</time>
      </trkpt>
      <trkpt lat="46.67965" lon="-1.92273">
        <ele>4.3</ele>
        <time>2020-06-03T16:14:14Z</time>
      </trkpt>
      <trkpt lat="46.67969" lon="-1.92278">
        <ele>4.4</ele>
        <time>2020-06-03T16:14:15Z</time>
      </trkpt>
      <trkpt lat="46.67972" lon="-1.92281">
        <ele>4.4</ele>
        <time>2020-06-03T16:14:16Z</time>
      </trkpt>
      <trkpt lat="46.67976" lon="-1.92284">
        <ele>4.5</ele>
        <time>2020-06-03T16:14:17Z</time>
      </trkpt>
      <trkpt lat="46.6798" lon="-1.92288">
        <ele>4.6</ele>
        <time>2020-06-03T16:14:18Z</time>
      </trkpt>
      <trkpt lat="46.67984" lon="-1.92292">
        <ele>4.6</ele>
        <time>2020-06-03T16:14:19Z</time>
      </trkpt>
      <trkpt lat="46.67988" lon="-1.92298">
        <ele>4.7</ele>
        <time>2020-06-03T16:14:20Z</time>
      </trkpt>
      <trkpt lat="46.67991" lon="-1.92303">
        <ele>4.8</ele>
        <time>2020-06-03T16:14:21Z</time>
      </trkpt>
      <trkpt lat="46.67994" lon="-1.92307">
        <ele>4.9</ele>
        <time>2020-06-03T16:14:22Z</time>
      </trkpt>
      <trkpt lat="46.67997" lon="-1.92312">
        <ele>4.9</ele>
        <time>2020-06-03T16:14:23Z</time>
      </trkpt>
      <trkpt lat="46.68001" lon="-1.92317">
        <ele>5</ele>
        <time>2020-06-03T16:14:24Z</time>
      </trkpt>
      <trkpt lat="46.68005" lon="-1.92322">
        <ele>5.1</ele>
        <time>2020-06-03T16:14:25Z</time>
      </trkpt>
      <trkpt lat="46.68008" lon="-1.92326">
        <ele>5.2</ele>
        <time>2020-06-03T16:14:26Z</time>
      </trkpt>
      <trkpt lat="46.68012" lon="-1.92331">
        <ele>5.2</ele>
        <time>2020-06-03T16:14:27Z</time>
      </trkpt>
      <trkpt lat="46.68016" lon="-1.92335">
        <ele>5.3</ele>
        <time>2020-06-03T16:14:28Z</time>
      </trkpt>
      <trkpt lat="46.6802" lon="-1.92339">
        <ele>5.4</ele>
        <time>2020-06-03T16:14:29Z</time>
      </trkpt>
      <trkpt lat="46.68023" lon="-1.92344">
        <ele>5.5</ele>
        <time>2020-06-03T16:14:30Z</time>
      </trkpt>
      <trkpt lat="46.68026" lon="-1.92348">
        <ele>5.6</ele>
        <time>2020-06-03T16:14:31Z</time>
      </trkpt>
      <trkpt lat="46.6803" lon="-1.92352">
        <ele>5.8</ele>
        <time>2020-06-03T16:14:32Z</time>
      </trkpt>
      <trkpt lat="46.68033" lon="-1.92356">
        <ele>5.9</ele>
        <time>2020-06-03T16:14:33Z</time>
      </trkpt>
      <trkpt lat="46.68037" lon="-1.9236">
        <ele>6</ele>
        <time>2020-06-03T16:14:34Z</time>
      </trkpt>
      <trkpt lat="46.6804" lon="-1.92364">
        <ele>6.2</ele>
        <time>2020-06-03T16:14:35Z</time>
      </trkpt>
      <trkpt lat="46.68044" lon="-1.92368">
        <ele>6.3</ele>
        <time>2020-06-03T16:14:36Z</time>
      </trkpt>
      <trkpt lat="46.68047" lon="-1.92372">
        <ele>6.4</ele>
        <time>2020-06-03T16:14:37Z</time>
      </trkpt>
      <trkpt lat="46.68052" lon="-1.92372">
        <ele>6.5</ele>
        <time>2020-06-03T16:14:38Z</time>
      </trkpt>
      <trkpt lat="46.68055" lon="-1.92374">
        <ele>6.5</ele>
        <time>2020-06-03T16:14:39Z</time>
      </trkpt>
      <trkpt lat="46.68059" lon="-1.92378">
        <ele>6.6</ele>
        <time>2020-06-03T16:14:40Z</time>
      </trkpt>
      <trkpt lat="46.68061" lon="-1.92381">
        <ele>6.6</ele>
        <time>2020-06-03T16:14:41Z</time>
      </trkpt>
      <trkpt lat="46.68062" lon="-1.92386">
        <ele>6.5</ele>
        <time>2020-06-03T16:14:42Z</time>
      </trkpt>
      <trkpt lat="46.68064" lon="-1.92391">
        <ele>6.5</ele>
        <time>2020-06-03T16:14:43Z</time>
      </trkpt>
      <trkpt lat="46.68067" lon="-1.92397">
        <ele>6.5</ele>
        <time>2020-06-03T16:14:44Z</time>
      </trkpt>
      <trkpt lat="46.68069" lon="-1.92403">
        <ele>6.5</ele>
        <time>2020-06-03T16:14:45Z</time>
      </trkpt>
      <trkpt lat="46.68071" lon="-1.92408">
        <ele>6.4</ele>
        <time>2020-06-03T16:14:46Z</time>
      </trkpt>
      <trkpt lat="46.68073" lon="-1.92412">
        <ele>6.4</ele>
        <time>2020-06-03T16:14:47Z</time>
      </trkpt>
      <trkpt lat="46.68075" lon="-1.92417">
        <ele>6.4</ele>
        <time>2020-06-03T16:14:48Z</time>
      </trkpt>
      <trkpt lat="46.68078" lon="-1.92422">
        <ele>6.4</ele>
        <time>2020-06-03T16:14:49Z</time>
      </trkpt>
      <trkpt lat="46.6808" lon="-1.92427">
        <ele>6.4</ele>
        <time>2020-06-03T16:14:50Z</time>
      </trkpt>
      <trkpt lat="46.68082" lon="-1.92432">
        <ele>6.3</ele>
        <time>2020-06-03T16:14:51Z</time>
      </trkpt>
      <trkpt lat="46.68084" lon="-1.92438">
        <ele>6.3</ele>
        <time>2020-06-03T16:14:52Z</time>
      </trkpt>
      <trkpt lat="46.68087" lon="-1.92443">
        <ele>6.3</ele>
        <time>2020-06-03T16:14:53Z</time>
      </trkpt>
      <trkpt lat="46.68089" lon="-1.92449">
        <ele>6.3</ele>
        <time>2020-06-03T16:14:54Z</time>
      </trkpt>
      <trkpt lat="46.68092" lon="-1.92454">
        <ele>6.3</ele>
        <time>2020-06-03T16:14:55Z</time>
      </trkpt>
      <trkpt lat="46.68095" lon="-1.92458">
        <ele>6.3</ele>
        <time>2020-06-03T16:14:56Z</time>
      </trkpt>
      <trkpt lat="46.68098" lon="-1.92463">
        <ele>6.2</ele>
        <time>2020-06-03T16:14:57Z</time>
      </trkpt>
      <trkpt lat="46.68101" lon="-1.92468">
        <ele>6.2</ele>
        <time>2020-06-03T16:14:58Z</time>
      </trkpt>
      <trkpt lat="46.68104" lon="-1.92474">
        <ele>6.2</ele>
        <time>2020-06-03T16:14:59Z</time>
      </trkpt>
      <trkpt lat="46.68107" lon="-1.9248">
        <ele>6.2</ele>
        <time>2020-06-03T16:15:00Z</time>
      </trkpt>
      <trkpt lat="46.68109" lon="-1.92485">
        <ele>6.2</ele>
        <time>2020-06-03T16:15:01Z</time>
      </trkpt>
      <trkpt lat="46.68112" lon="-1.9249">
        <ele>6.2</ele>
        <time>2020-06-03T16:15:02Z</time>
      </trkpt>
      <trkpt lat="46.68114" lon="-1.92495">
        <ele>6.1</ele>
        <time>2020-06-03T16:15:03Z</time>
      </trkpt>
      <trkpt lat="46.68116" lon="-1.925">
        <ele>6.1</ele>
        <time>2020-06-03T16:15:04Z</time>
      </trkpt>
      <trkpt lat="46.68118" lon="-1.92506">
        <ele>6.1</ele>
        <time>2020-06-03T16:15:05Z</time>
      </trkpt>
      <trkpt lat="46.68121" lon="-1.92513">
        <ele>6.1</ele>
        <time>2020-06-03T16:15:06Z</time>
      </trkpt>
      <trkpt lat="46.68124" lon="-1.92519">
        <ele>6.1</ele>
        <time>2020-06-03T16:15:07Z</time>
      </trkpt>
      <trkpt lat="46.68126" lon="-1.92525">
        <ele>6.1</ele>
        <time>2020-06-03T16:15:08Z</time>
      </trkpt>
      <trkpt lat="46.68129" lon="-1.9253">
        <ele>6</ele>
        <time>2020-06-03T16:15:09Z</time>
      </trkpt>
      <trkpt lat="46.68131" lon="-1.92535">
        <ele>6</ele>
        <time>2020-06-03T16:15:10Z</time>
      </trkpt>
      <trkpt lat="46.68135" lon="-1.9254">
        <ele>5.9</ele>
        <time>2020-06-03T16:15:11Z</time>
      </trkpt>
      <trkpt lat="46.68137" lon="-1.92544">
        <ele>5.8</ele>
        <time>2020-06-03T16:15:12Z</time>
      </trkpt>
      <trkpt lat="46.6814" lon="-1.9255">
        <ele>5.7</ele>
        <time>2020-06-03T16:15:13Z</time>
      </trkpt>
      <trkpt lat="46.68143" lon="-1.92554">
        <ele>5.7</ele>
        <time>2020-06-03T16:15:14Z</time>
      </trkpt>
      <trkpt lat="46.68146" lon="-1.92559">
        <ele>5.6</ele>
        <time>2020-06-03T16:15:15Z</time>
      </trkpt>
      <trkpt lat="46.68148" lon="-1.92563">
        <ele>5.5</ele>
        <time>2020-06-03T16:15:16Z</time>
      </trkpt>
      <trkpt lat="46.6815" lon="-1.92567">
        <ele>5.4</ele>
        <time>2020-06-03T16:15:17Z</time>
      </trkpt>
      <trkpt lat="46.68152" lon="-1.92571">
        <ele>5.4</ele>
        <time>2020-06-03T16:15:18Z</time>
      </trkpt>
      <trkpt lat="46.68154" lon="-1.92574">
        <ele>5.3</ele>
        <time>2020-06-03T16:15:19Z</time>
      </trkpt>
      <trkpt lat="46.68157" lon="-1.92578">
        <ele>5.2</ele>
        <time>2020-06-03T16:15:20Z</time>
      </trkpt>
      <trkpt lat="46.68159" lon="-1.92581">
        <ele>5.2</ele>
        <time>2020-06-03T16:15:21Z</time>
      </trkpt>
      <trkpt lat="46.68161" lon="-1.92584">
        <ele>5.1</ele>
        <time>2020-06-03T16:15:22Z</time>
      </trkpt>
      <trkpt lat="46.68164" lon="-1.92587">
        <ele>5.1</ele>
        <time>2020-06-03T16:15:23Z</time>
      </trkpt>
      <trkpt lat="46.68166" lon="-1.92591">
        <ele>5</ele>
        <time>2020-06-03T16:15:24Z</time>
      </trkpt>
      <trkpt lat="46.68167" lon="-1.92592">
        <ele>5</ele>
        <time>2020-06-03T16:15:25Z</time>
      </trkpt>
      <trkpt lat="46.68169" lon="-1.92597">
        <ele>4.9</ele>
        <time>2020-06-03T16:15:26Z</time>
      </trkpt>
      <trkpt lat="46.68169" lon="-1.92598">
        <ele>4.9</ele>
        <time>2020-06-03T16:15:27Z</time>
      </trkpt>
      <trkpt lat="46.68171" lon="-1.92602">
        <ele>4.9</ele>
        <time>2020-06-03T16:15:28Z</time>
      </trkpt>
      <trkpt lat="46.68173" lon="-1.92607">
        <ele>4.8</ele>
        <time>2020-06-03T16:15:29Z</time>
      </trkpt>
      <trkpt lat="46.68173" lon="-1.92609">
        <ele>4.8</ele>
        <time>2020-06-03T16:15:30Z</time>
      </trkpt>
      <trkpt lat="46.68174" lon="-1.92614">
        <ele>4.7</ele>
        <time>2020-06-03T16:15:31Z</time>
      </trkpt>
      <trkpt lat="46.68174" lon="-1.92616">
        <ele>4.7</ele>
        <time>2020-06-03T16:15:32Z</time>
      </trkpt>
      <trkpt lat="46.68176" lon="-1.92621">
        <ele>4.7</ele>
        <time>2020-06-03T16:15:33Z</time>
      </trkpt>
      <trkpt lat="46.68176" lon="-1.92623">
        <ele>4.8</ele>
        <time>2020-06-03T16:15:34Z</time>
      </trkpt>
      <trkpt lat="46.68178" lon="-1.92626">
        <ele>4.8</ele>
        <time>2020-06-03T16:15:35Z</time>
      </trkpt>
      <trkpt lat="46.6818" lon="-1.92631">
        <ele>4.8</ele>
        <time>2020-06-03T16:15:36Z</time>
      </trkpt>
      <trkpt lat="46.68182" lon="-1.92633">
        <ele>4.8</ele>
        <time>2020-06-03T16:15:37Z</time>
      </trkpt>
      <trkpt lat="46.68185" lon="-1.92637">
        <ele>4.8</ele>
        <time>2020-06-03T16:15:38Z</time>
      </trkpt>
      <trkpt lat="46.68187" lon="-1.92641">
        <ele>4.8</ele>
        <time>2020-06-03T16:15:39Z</time>
      </trkpt>
      <trkpt lat="46.68189" lon="-1.92646">
        <ele>4.9</ele>
        <time>2020-06-03T16:15:40Z</time>
      </trkpt>
      <trkpt lat="46.68191" lon="-1.92651">
        <ele>4.9</ele>
        <time>2020-06-03T16:15:41Z</time>
      </trkpt>
      <trkpt lat="46.68193" lon="-1.92656">
        <ele>4.9</ele>
        <time>2020-06-03T16:15:42Z</time>
      </trkpt>
      <trkpt lat="46.68196" lon="-1.92661">
        <ele>4.9</ele>
        <time>2020-06-03T16:15:43Z</time>
      </trkpt>
      <trkpt lat="46.68198" lon="-1.92665">
        <ele>5</ele>
        <time>2020-06-03T16:15:44Z</time>
      </trkpt>
      <trkpt lat="46.68202" lon="-1.9267">
        <ele>5</ele>
        <time>2020-06-03T16:15:45Z</time>
      </trkpt>
      <trkpt lat="46.68205" lon="-1.92675">
        <ele>5</ele>
        <time>2020-06-03T16:15:46Z</time>
      </trkpt>
      <trkpt lat="46.68208" lon="-1.9268">
        <ele>5.1</ele>
        <time>2020-06-03T16:15:47Z</time>
      </trkpt>
      <trkpt lat="46.68212" lon="-1.92684">
        <ele>5.1</ele>
        <time>2020-06-03T16:15:48Z</time>
      </trkpt>
      <trkpt lat="46.68215" lon="-1.92689">
        <ele>5.2</ele>
        <time>2020-06-03T16:15:49Z</time>
      </trkpt>
      <trkpt lat="46.68218" lon="-1.92692">
        <ele>5.2</ele>
        <time>2020-06-03T16:15:50Z</time>
      </trkpt>
      <trkpt lat="46.68221" lon="-1.92696">
        <ele>5.2</ele>
        <time>2020-06-03T16:15:51Z</time>
      </trkpt>
      <trkpt lat="46.68224" lon="-1.927">
        <ele>5.3</ele>
        <time>2020-06-03T16:15:52Z</time>
      </trkpt>
      <trkpt lat="46.68228" lon="-1.92704">
        <ele>5.3</ele>
        <time>2020-06-03T16:15:53Z</time>
      </trkpt>
      <trkpt lat="46.68232" lon="-1.92707">
        <ele>5.3</ele>
        <time>2020-06-03T16:15:54Z</time>
      </trkpt>
      <trkpt lat="46.68236" lon="-1.9271">
        <ele>5.4</ele>
        <time>2020-06-03T16:15:55Z</time>
      </trkpt>
      <trkpt lat="46.6824" lon="-1.92713">
        <ele>5.4</ele>
        <time>2020-06-03T16:15:56Z</time>
      </trkpt>
      <trkpt lat="46.68244" lon="-1.92717">
        <ele>5.4</ele>
        <time>2020-06-03T16:15:57Z</time>
      </trkpt>
      <trkpt lat="46.68247" lon="-1.92721">
        <ele>5.4</ele>
        <time>2020-06-03T16:15:58Z</time>
      </trkpt>
      <trkpt lat="46.68251" lon="-1.92724">
        <ele>5.5</ele>
        <time>2020-06-03T16:15:59Z</time>
      </trkpt>
      <trkpt lat="46.68254" lon="-1.92727">
        <ele>5.5</ele>
        <time>2020-06-03T16:16:00Z</time>
      </trkpt>
      <trkpt lat="46.68258" lon="-1.92731">
        <ele>5.5</ele>
        <time>2020-06-03T16:16:01Z</time>
      </trkpt>
      <trkpt lat="46.68262" lon="-1.92735">
        <ele>5.5</ele>
        <time>2020-06-03T16:16:02Z</time>
      </trkpt>
      <trkpt lat="46.68266" lon="-1.92739">
        <ele>5.6</ele>
        <time>2020-06-03T16:16:03Z</time>
      </trkpt>
      <trkpt lat="46.6827" lon="-1.92743">
        <ele>5.5</ele>
        <time>2020-06-03T16:16:04Z</time>
      </trkpt>
      <trkpt lat="46.68273" lon="-1.92747">
        <ele>5.5</ele>
        <time>2020-06-03T16:16:05Z</time>
      </trkpt>
      <trkpt lat="46.68277" lon="-1.92752">
        <ele>5.5</ele>
        <time>2020-06-03T16:16:06Z</time>
      </trkpt>
      <trkpt lat="46.68281" lon="-1.92756">
        <ele>5.5</ele>
        <time>2020-06-03T16:16:07Z</time>
      </trkpt>
      <trkpt lat="46.68284" lon="-1.92761">
        <ele>5.5</ele>
        <time>2020-06-03T16:16:08Z</time>
      </trkpt>
      <trkpt lat="46.68286" lon="-1.92766">
        <ele>5.5</ele>
        <time>2020-06-03T16:16:09Z</time>
      </trkpt>
      <trkpt lat="46.68289" lon="-1.9277">
        <ele>5.5</ele>
        <time>2020-06-03T16:16:10Z</time>
      </trkpt>
      <trkpt lat="46.68292" lon="-1.92775">
        <ele>5.5</ele>
        <time>2020-06-03T16:16:11Z</time>
      </trkpt>
      <trkpt lat="46.68295" lon="-1.9278">
        <ele>5.5</ele>
        <time>2020-06-03T16:16:12Z</time>
      </trkpt>
      <trkpt lat="46.68298" lon="-1.92785">
        <ele>5.4</ele>
        <time>2020-06-03T16:16:13Z</time>
      </trkpt>
      <trkpt lat="46.683" lon="-1.92789">
        <ele>5.4</ele>
        <time>2020-06-03T16:16:14Z</time>
      </trkpt>
      <trkpt lat="46.68302" lon="-1.92793">
        <ele>5.4</ele>
        <time>2020-06-03T16:16:15Z</time>
      </trkpt>
      <trkpt lat="46.68304" lon="-1.92797">
        <ele>5.4</ele>
        <time>2020-06-03T16:16:16Z</time>
      </trkpt>
      <trkpt lat="46.68306" lon="-1.92802">
        <ele>5.4</ele>
        <time>2020-06-03T16:16:17Z</time>
      </trkpt>
      <trkpt lat="46.68308" lon="-1.92807">
        <ele>5.4</ele>
        <time>2020-06-03T16:16:18Z</time>
      </trkpt>
      <trkpt lat="46.6831" lon="-1.92812">
        <ele>5.3</ele>
        <time>2020-06-03T16:16:19Z</time>
      </trkpt>
      <trkpt lat="46.68312" lon="-1.92815">
        <ele>5.3</ele>
        <time>2020-06-03T16:16:20Z</time>
      </trkpt>
      <trkpt lat="46.68314" lon="-1.9282">
        <ele>5.3</ele>
        <time>2020-06-03T16:16:21Z</time>
      </trkpt>
      <trkpt lat="46.68316" lon="-1.92824">
        <ele>5.3</ele>
        <time>2020-06-03T16:16:22Z</time>
      </trkpt>
      <trkpt lat="46.68319" lon="-1.92829">
        <ele>5.2</ele>
        <time>2020-06-03T16:16:23Z</time>
      </trkpt>
      <trkpt lat="46.68322" lon="-1.92834">
        <ele>5.2</ele>
        <time>2020-06-03T16:16:24Z</time>
      </trkpt>
      <trkpt lat="46.68325" lon="-1.92838">
        <ele>5.2</ele>
        <time>2020-06-03T16:16:25Z</time>
      </trkpt>
      <trkpt lat="46.68326" lon="-1.92843">
        <ele>5.1</ele>
        <time>2020-06-03T16:16:26Z</time>
      </trkpt>
      <trkpt lat="46.68329" lon="-1.92848">
        <ele>5.1</ele>
        <time>2020-06-03T16:16:27Z</time>
      </trkpt>
      <trkpt lat="46.68333" lon="-1.92852">
        <ele>5</ele>
        <time>2020-06-03T16:16:28Z</time>
      </trkpt>
      <trkpt lat="46.68336" lon="-1.92857">
        <ele>5</ele>
        <time>2020-06-03T16:16:29Z</time>
      </trkpt>
      <trkpt lat="46.68339" lon="-1.92861">
        <ele>4.9</ele>
        <time>2020-06-03T16:16:30Z</time>
      </trkpt>
      <trkpt lat="46.68342" lon="-1.92865">
        <ele>4.9</ele>
        <time>2020-06-03T16:16:31Z</time>
      </trkpt>
      <trkpt lat="46.68345" lon="-1.9287">
        <ele>4.8</ele>
        <time>2020-06-03T16:16:32Z</time>
      </trkpt>
      <trkpt lat="46.68348" lon="-1.92875">
        <ele>4.7</ele>
        <time>2020-06-03T16:16:33Z</time>
      </trkpt>
      <trkpt lat="46.68351" lon="-1.9288">
        <ele>4.7</ele>
        <time>2020-06-03T16:16:34Z</time>
      </trkpt>
      <trkpt lat="46.68354" lon="-1.92884">
        <ele>4.6</ele>
        <time>2020-06-03T16:16:35Z</time>
      </trkpt>
      <trkpt lat="46.68358" lon="-1.92888">
        <ele>4.6</ele>
        <time>2020-06-03T16:16:36Z</time>
      </trkpt>
      <trkpt lat="46.6836" lon="-1.92892">
        <ele>4.5</ele>
        <time>2020-06-03T16:16:37Z</time>
      </trkpt>
      <trkpt lat="46.68364" lon="-1.92895">
        <ele>4.4</ele>
        <time>2020-06-03T16:16:38Z</time>
      </trkpt>
      <trkpt lat="46.68367" lon="-1.92899">
        <ele>4.4</ele>
        <time>2020-06-03T16:16:39Z</time>
      </trkpt>
      <trkpt lat="46.68371" lon="-1.92903">
        <ele>4.3</ele>
        <time>2020-06-03T16:16:40Z</time>
      </trkpt>
      <trkpt lat="46.68374" lon="-1.92907">
        <ele>4.2</ele>
        <time>2020-06-03T16:16:41Z</time>
      </trkpt>
      <trkpt lat="46.68378" lon="-1.92912">
        <ele>4.2</ele>
        <time>2020-06-03T16:16:42Z</time>
      </trkpt>
      <trkpt lat="46.68381" lon="-1.92916">
        <ele>4.1</ele>
        <time>2020-06-03T16:16:43Z</time>
      </trkpt>
      <trkpt lat="46.68385" lon="-1.92921">
        <ele>4.1</ele>
        <time>2020-06-03T16:16:44Z</time>
      </trkpt>
      <trkpt lat="46.68389" lon="-1.92924">
        <ele>4</ele>
        <time>2020-06-03T16:16:45Z</time>
      </trkpt>
      <trkpt lat="46.68391" lon="-1.92929">
        <ele>4</ele>
        <time>2020-06-03T16:16:46Z</time>
      </trkpt>
      <trkpt lat="46.68394" lon="-1.92933">
        <ele>4</ele>
        <time>2020-06-03T16:16:47Z</time>
      </trkpt>
      <trkpt lat="46.68396" lon="-1.92936">
        <ele>4</ele>
        <time>2020-06-03T16:16:48Z</time>
      </trkpt>
      <trkpt lat="46.68399" lon="-1.9294">
        <ele>3.9</ele>
        <time>2020-06-03T16:16:49Z</time>
      </trkpt>
      <trkpt lat="46.68402" lon="-1.92944">
        <ele>3.9</ele>
        <time>2020-06-03T16:16:50Z</time>
      </trkpt>
      <trkpt lat="46.68405" lon="-1.92948">
        <ele>3.9</ele>
        <time>2020-06-03T16:16:51Z</time>
      </trkpt>
      <trkpt lat="46.68408" lon="-1.92952">
        <ele>3.9</ele>
        <time>2020-06-03T16:16:52Z</time>
      </trkpt>
      <trkpt lat="46.68411" lon="-1.92956">
        <ele>3.8</ele>
        <time>2020-06-03T16:16:53Z</time>
      </trkpt>
      <trkpt lat="46.68413" lon="-1.9296">
        <ele>3.8</ele>
        <time>2020-06-03T16:16:54Z</time>
      </trkpt>
      <trkpt lat="46.68417" lon="-1.92964">
        <ele>3.8</ele>
        <time>2020-06-03T16:16:55Z</time>
      </trkpt>
      <trkpt lat="46.68419" lon="-1.92968">
        <ele>3.8</ele>
        <time>2020-06-03T16:16:56Z</time>
      </trkpt>
      <trkpt lat="46.68422" lon="-1.92973">
        <ele>3.8</ele>
        <time>2020-06-03T16:16:57Z</time>
      </trkpt>
      <trkpt lat="46.68425" lon="-1.92977">
        <ele>3.7</ele>
        <time>2020-06-03T16:16:58Z</time>
      </trkpt>
      <trkpt lat="46.68428" lon="-1.92981">
        <ele>3.7</ele>
        <time>2020-06-03T16:16:59Z</time>
      </trkpt>
      <trkpt lat="46.6843" lon="-1.92984">
        <ele>3.7</ele>
        <time>2020-06-03T16:17:00Z</time>
      </trkpt>
      <trkpt lat="46.68433" lon="-1.92988">
        <ele>3.7</ele>
        <time>2020-06-03T16:17:01Z</time>
      </trkpt>
      <trkpt lat="46.68436" lon="-1.92992">
        <ele>3.7</ele>
        <time>2020-06-03T16:17:02Z</time>
      </trkpt>
      <trkpt lat="46.68438" lon="-1.92996">
        <ele>3.7</ele>
        <time>2020-06-03T16:17:03Z</time>
      </trkpt>
      <trkpt lat="46.68441" lon="-1.93">
        <ele>3.7</ele>
        <time>2020-06-03T16:17:04Z</time>
      </trkpt>
      <trkpt lat="46.68444" lon="-1.93005">
        <ele>3.7</ele>
        <time>2020-06-03T16:17:05Z</time>
      </trkpt>
      <trkpt lat="46.68447" lon="-1.93009">
        <ele>3.7</ele>
        <time>2020-06-03T16:17:06Z</time>
      </trkpt>
      <trkpt lat="46.6845" lon="-1.93013">
        <ele>3.7</ele>
        <time>2020-06-03T16:17:07Z</time>
      </trkpt>
      <trkpt lat="46.68454" lon="-1.93018">
        <ele>3.7</ele>
        <time>2020-06-03T16:17:08Z</time>
      </trkpt>
      <trkpt lat="46.68458" lon="-1.93022">
        <ele>3.7</ele>
        <time>2020-06-03T16:17:09Z</time>
      </trkpt>
      <trkpt lat="46.68462" lon="-1.93027">
        <ele>3.7</ele>
        <time>2020-06-03T16:17:10Z</time>
      </trkpt>
      <trkpt lat="46.68466" lon="-1.93032">
        <ele>3.7</ele>
        <time>2020-06-03T16:17:11Z</time>
      </trkpt>
      <trkpt lat="46.6847" lon="-1.93035">
        <ele>3.7</ele>
        <time>2020-06-03T16:17:12Z</time>
      </trkpt>
      <trkpt lat="46.68474" lon="-1.93039">
        <ele>3.7</ele>
        <time>2020-06-03T16:17:13Z</time>
      </trkpt>
      <trkpt lat="46.68478" lon="-1.93043">
        <ele>3.8</ele>
        <time>2020-06-03T16:17:14Z</time>
      </trkpt>
      <trkpt lat="46.68482" lon="-1.93047">
        <ele>3.8</ele>
        <time>2020-06-03T16:17:15Z</time>
      </trkpt>
      <trkpt lat="46.68486" lon="-1.93051">
        <ele>3.8</ele>
        <time>2020-06-03T16:17:16Z</time>
      </trkpt>
      <trkpt lat="46.6849" lon="-1.93055">
        <ele>3.8</ele>
        <time>2020-06-03T16:17:17Z</time>
      </trkpt>
      <trkpt lat="46.68495" lon="-1.93059">
        <ele>3.8</ele>
        <time>2020-06-03T16:17:18Z</time>
      </trkpt>
      <trkpt lat="46.68499" lon="-1.93063">
        <ele>3.8</ele>
        <time>2020-06-03T16:17:19Z</time>
      </trkpt>
      <trkpt lat="46.68503" lon="-1.93068">
        <ele>3.8</ele>
        <time>2020-06-03T16:17:20Z</time>
      </trkpt>
      <trkpt lat="46.68507" lon="-1.93072">
        <ele>3.9</ele>
        <time>2020-06-03T16:17:21Z</time>
      </trkpt>
      <trkpt lat="46.68512" lon="-1.93076">
        <ele>3.9</ele>
        <time>2020-06-03T16:17:22Z</time>
      </trkpt>
      <trkpt lat="46.68516" lon="-1.9308">
        <ele>3.9</ele>
        <time>2020-06-03T16:17:23Z</time>
      </trkpt>
      <trkpt lat="46.6852" lon="-1.93083">
        <ele>3.9</ele>
        <time>2020-06-03T16:17:24Z</time>
      </trkpt>
      <trkpt lat="46.68525" lon="-1.93087">
        <ele>4</ele>
        <time>2020-06-03T16:17:25Z</time>
      </trkpt>
      <trkpt lat="46.68528" lon="-1.9309">
        <ele>4</ele>
        <time>2020-06-03T16:17:26Z</time>
      </trkpt>
      <trkpt lat="46.68532" lon="-1.93093">
        <ele>4</ele>
        <time>2020-06-03T16:17:27Z</time>
      </trkpt>
      <trkpt lat="46.68536" lon="-1.93097">
        <ele>4.1</ele>
        <time>2020-06-03T16:17:28Z</time>
      </trkpt>
      <trkpt lat="46.6854" lon="-1.93101">
        <ele>4.1</ele>
        <time>2020-06-03T16:17:29Z</time>
      </trkpt>
      <trkpt lat="46.68544" lon="-1.93105">
        <ele>4.1</ele>
        <time>2020-06-03T16:17:30Z</time>
      </trkpt>
      <trkpt lat="46.68548" lon="-1.93109">
        <ele>4.2</ele>
        <time>2020-06-03T16:17:31Z</time>
      </trkpt>
      <trkpt lat="46.68553" lon="-1.93113">
        <ele>4.2</ele>
        <time>2020-06-03T16:17:32Z</time>
      </trkpt>
      <trkpt lat="46.68557" lon="-1.93117">
        <ele>4.2</ele>
        <time>2020-06-03T16:17:33Z</time>
      </trkpt>
      <trkpt lat="46.68561" lon="-1.93121">
        <ele>4.3</ele>
        <time>2020-06-03T16:17:34Z</time>
      </trkpt>
      <trkpt lat="46.68566" lon="-1.93125">
        <ele>4.3</ele>
        <time>2020-06-03T16:17:35Z</time>
      </trkpt>
      <trkpt lat="46.6857" lon="-1.93129">
        <ele>4.3</ele>
        <time>2020-06-03T16:17:36Z</time>
      </trkpt>
      <trkpt lat="46.68575" lon="-1.93133">
        <ele>4.3</ele>
        <time>2020-06-03T16:17:37Z</time>
      </trkpt>
      <trkpt lat="46.68579" lon="-1.93136">
        <ele>4.3</ele>
        <time>2020-06-03T16:17:38Z</time>
      </trkpt>
      <trkpt lat="46.68583" lon="-1.9314">
        <ele>4.3</ele>
        <time>2020-06-03T16:17:39Z</time>
      </trkpt>
      <trkpt lat="46.68587" lon="-1.93144">
        <ele>4.3</ele>
        <time>2020-06-03T16:17:40Z</time>
      </trkpt>
      <trkpt lat="46.68591" lon="-1.93147">
        <ele>4.3</ele>
        <time>2020-06-03T16:17:41Z</time>
      </trkpt>
      <trkpt lat="46.68595" lon="-1.93151">
        <ele>4.3</ele>
        <time>2020-06-03T16:17:42Z</time>
      </trkpt>
      <trkpt lat="46.68598" lon="-1.93154">
        <ele>4.3</ele>
        <time>2020-06-03T16:17:43Z</time>
      </trkpt>
      <trkpt lat="46.68602" lon="-1.93158">
        <ele>4.3</ele>
        <time>2020-06-03T16:17:44Z</time>
      </trkpt>
      <trkpt lat="46.68605" lon="-1.93161">
        <ele>4.3</ele>
        <time>2020-06-03T16:17:45Z</time>
      </trkpt>
      <trkpt lat="46.68608" lon="-1.93163">
        <ele>4.3</ele>
        <time>2020-06-03T16:17:46Z</time>
      </trkpt>
      <trkpt lat="46.68612" lon="-1.93166">
        <ele>4.3</ele>
        <time>2020-06-03T16:17:47Z</time>
      </trkpt>
      <trkpt lat="46.68616" lon="-1.9317">
        <ele>4.3</ele>
        <time>2020-06-03T16:17:48Z</time>
      </trkpt>
      <trkpt lat="46.6862" lon="-1.93173">
        <ele>4.3</ele>
        <time>2020-06-03T16:17:49Z</time>
      </trkpt>
      <trkpt lat="46.68623" lon="-1.93176">
        <ele>4.3</ele>
        <time>2020-06-03T16:17:50Z</time>
      </trkpt>
      <trkpt lat="46.68626" lon="-1.93179">
        <ele>4.3</ele>
        <time>2020-06-03T16:17:51Z</time>
      </trkpt>
      <trkpt lat="46.68629" lon="-1.93181">
        <ele>4.3</ele>
        <time>2020-06-03T16:17:52Z</time>
      </trkpt>
      <trkpt lat="46.68632" lon="-1.93185">
        <ele>4.3</ele>
        <time>2020-06-03T16:17:53Z</time>
      </trkpt>
      <trkpt lat="46.68634" lon="-1.93187">
        <ele>4.3</ele>
        <time>2020-06-03T16:17:54Z</time>
      </trkpt>
      <trkpt lat="46.68637" lon="-1.93188">
        <ele>4.3</ele>
        <time>2020-06-03T16:17:55Z</time>
      </trkpt>
      <trkpt lat="46.68641" lon="-1.93189">
        <ele>4.3</ele>
        <time>2020-06-03T16:17:56Z</time>
      </trkpt>
      <trkpt lat="46.68642" lon="-1.93189">
        <ele>4.3</ele>
        <time>2020-06-03T16:17:57Z</time>
      </trkpt>
      <trkpt lat="46.68644" lon="-1.9319">
        <ele>4.3</ele>
        <time>2020-06-03T16:17:58Z</time>
      </trkpt>
      <trkpt lat="46.68645" lon="-1.93191">
        <ele>4.3</ele>
        <time>2020-06-03T16:17:59Z</time>
      </trkpt>
      <trkpt lat="46.68649" lon="-1.93192">
        <ele>4.2</ele>
        <time>2020-06-03T16:18:00Z</time>
      </trkpt>
      <trkpt lat="46.6865" lon="-1.93193">
        <ele>4.2</ele>
        <time>2020-06-03T16:18:01Z</time>
      </trkpt>
      <trkpt lat="46.68654" lon="-1.93195">
        <ele>4.2</ele>
        <time>2020-06-03T16:18:02Z</time>
      </trkpt>
      <trkpt lat="46.68656" lon="-1.93197">
        <ele>4.2</ele>
        <time>2020-06-03T16:18:03Z</time>
      </trkpt>
      <trkpt lat="46.6866" lon="-1.932">
        <ele>4.2</ele>
        <time>2020-06-03T16:18:04Z</time>
      </trkpt>
      <trkpt lat="46.68664" lon="-1.93202">
        <ele>4.1</ele>
        <time>2020-06-03T16:18:05Z</time>
      </trkpt>
      <trkpt lat="46.68668" lon="-1.93205">
        <ele>4.1</ele>
        <time>2020-06-03T16:18:06Z</time>
      </trkpt>
      <trkpt lat="46.68671" lon="-1.93207">
        <ele>4</ele>
        <time>2020-06-03T16:18:07Z</time>
      </trkpt>
      <trkpt lat="46.68676" lon="-1.9321">
        <ele>4</ele>
        <time>2020-06-03T16:18:08Z</time>
      </trkpt>
      <trkpt lat="46.68681" lon="-1.93213">
        <ele>3.9</ele>
        <time>2020-06-03T16:18:09Z</time>
      </trkpt>
      <trkpt lat="46.68686" lon="-1.93215">
        <ele>3.9</ele>
        <time>2020-06-03T16:18:10Z</time>
      </trkpt>
      <trkpt lat="46.68691" lon="-1.93218">
        <ele>3.8</ele>
        <time>2020-06-03T16:18:11Z</time>
      </trkpt>
      <trkpt lat="46.68697" lon="-1.9322">
        <ele>3.8</ele>
        <time>2020-06-03T16:18:12Z</time>
      </trkpt>
      <trkpt lat="46.68702" lon="-1.93222">
        <ele>3.8</ele>
        <time>2020-06-03T16:18:13Z</time>
      </trkpt>
      <trkpt lat="46.68707" lon="-1.93223">
        <ele>3.7</ele>
        <time>2020-06-03T16:18:14Z</time>
      </trkpt>
      <trkpt lat="46.68712" lon="-1.93224">
        <ele>3.7</ele>
        <time>2020-06-03T16:18:15Z</time>
      </trkpt>
      <trkpt lat="46.68717" lon="-1.93226">
        <ele>3.7</ele>
        <time>2020-06-03T16:18:16Z</time>
      </trkpt>
      <trkpt lat="46.68722" lon="-1.93228">
        <ele>3.7</ele>
        <time>2020-06-03T16:18:17Z</time>
      </trkpt>
      <trkpt lat="46.68727" lon="-1.93229">
        <ele>3.7</ele>
        <time>2020-06-03T16:18:18Z</time>
      </trkpt>
      <trkpt lat="46.68732" lon="-1.9323">
        <ele>3.6</ele>
        <time>2020-06-03T16:18:19Z</time>
      </trkpt>
      <trkpt lat="46.68738" lon="-1.93232">
        <ele>3.6</ele>
        <time>2020-06-03T16:18:20Z</time>
      </trkpt>
      <trkpt lat="46.68743" lon="-1.93233">
        <ele>3.6</ele>
        <time>2020-06-03T16:18:21Z</time>
      </trkpt>
      <trkpt lat="46.6875" lon="-1.93235">
        <ele>3.6</ele>
        <time>2020-06-03T16:18:22Z</time>
      </trkpt>
      <trkpt lat="46.68755" lon="-1.93236">
        <ele>3.6</ele>
        <time>2020-06-03T16:18:23Z</time>
      </trkpt>
      <trkpt lat="46.68762" lon="-1.93238">
        <ele>3.6</ele>
        <time>2020-06-03T16:18:24Z</time>
      </trkpt>
      <trkpt lat="46.68768" lon="-1.93239">
        <ele>3.5</ele>
        <time>2020-06-03T16:18:25Z</time>
      </trkpt>
      <trkpt lat="46.68773" lon="-1.9324">
        <ele>3.5</ele>
        <time>2020-06-03T16:18:26Z</time>
      </trkpt>
      <trkpt lat="46.68779" lon="-1.93243">
        <ele>3.5</ele>
        <time>2020-06-03T16:18:27Z</time>
      </trkpt>
      <trkpt lat="46.68785" lon="-1.93243">
        <ele>3.5</ele>
        <time>2020-06-03T16:18:28Z</time>
      </trkpt>
      <trkpt lat="46.68791" lon="-1.93243">
        <ele>3.5</ele>
        <time>2020-06-03T16:18:29Z</time>
      </trkpt>
      <trkpt lat="46.68797" lon="-1.93243">
        <ele>3.5</ele>
        <time>2020-06-03T16:18:30Z</time>
      </trkpt>
      <trkpt lat="46.68803" lon="-1.93242">
        <ele>3.5</ele>
        <time>2020-06-03T16:18:31Z</time>
      </trkpt>
      <trkpt lat="46.68808" lon="-1.93241">
        <ele>3.4</ele>
        <time>2020-06-03T16:18:32Z</time>
      </trkpt>
      <trkpt lat="46.68814" lon="-1.93239">
        <ele>3.4</ele>
        <time>2020-06-03T16:18:33Z</time>
      </trkpt>
      <trkpt lat="46.6882" lon="-1.93237">
        <ele>3.4</ele>
        <time>2020-06-03T16:18:34Z</time>
      </trkpt>
      <trkpt lat="46.68825" lon="-1.93234">
        <ele>3.4</ele>
        <time>2020-06-03T16:18:35Z</time>
      </trkpt>
      <trkpt lat="46.6883" lon="-1.93232">
        <ele>3.5</ele>
        <time>2020-06-03T16:18:36Z</time>
      </trkpt>
      <trkpt lat="46.68835" lon="-1.93229">
        <ele>3.5</ele>
        <time>2020-06-03T16:18:37Z</time>
      </trkpt>
      <trkpt lat="46.6884" lon="-1.93225">
        <ele>3.5</ele>
        <time>2020-06-03T16:18:38Z</time>
      </trkpt>
      <trkpt lat="46.68846" lon="-1.93222">
        <ele>3.4</ele>
        <time>2020-06-03T16:18:39Z</time>
      </trkpt>
      <trkpt lat="46.68851" lon="-1.93219">
        <ele>3.3</ele>
        <time>2020-06-03T16:18:40Z</time>
      </trkpt>
      <trkpt lat="46.68855" lon="-1.93216">
        <ele>3.3</ele>
        <time>2020-06-03T16:18:41Z</time>
      </trkpt>
      <trkpt lat="46.68861" lon="-1.93213">
        <ele>3.2</ele>
        <time>2020-06-03T16:18:42Z</time>
      </trkpt>
      <trkpt lat="46.68867" lon="-1.93208">
        <ele>3.1</ele>
        <time>2020-06-03T16:18:43Z</time>
      </trkpt>
      <trkpt lat="46.68873" lon="-1.93205">
        <ele>3</ele>
        <time>2020-06-03T16:18:44Z</time>
      </trkpt>
      <trkpt lat="46.68878" lon="-1.93201">
        <ele>2.9</ele>
        <time>2020-06-03T16:18:45Z</time>
      </trkpt>
      <trkpt lat="46.68884" lon="-1.93197">
        <ele>2.7</ele>
        <time>2020-06-03T16:18:46Z</time>
      </trkpt>
      <trkpt lat="46.68889" lon="-1.93193">
        <ele>2.7</ele>
        <time>2020-06-03T16:18:47Z</time>
      </trkpt>
      <trkpt lat="46.68895" lon="-1.93189">
        <ele>2.7</ele>
        <time>2020-06-03T16:18:48Z</time>
      </trkpt>
      <trkpt lat="46.689" lon="-1.93184">
        <ele>2.6</ele>
        <time>2020-06-03T16:18:49Z</time>
      </trkpt>
      <trkpt lat="46.68906" lon="-1.9318">
        <ele>2.5</ele>
        <time>2020-06-03T16:18:50Z</time>
      </trkpt>
      <trkpt lat="46.68911" lon="-1.93177">
        <ele>2.5</ele>
        <time>2020-06-03T16:18:51Z</time>
      </trkpt>
      <trkpt lat="46.68917" lon="-1.93174">
        <ele>2.5</ele>
        <time>2020-06-03T16:18:52Z</time>
      </trkpt>
      <trkpt lat="46.68922" lon="-1.93172">
        <ele>2.4</ele>
        <time>2020-06-03T16:18:53Z</time>
      </trkpt>
      <trkpt lat="46.68928" lon="-1.93171">
        <ele>2.4</ele>
        <time>2020-06-03T16:18:54Z</time>
      </trkpt>
      <trkpt lat="46.68933" lon="-1.9317">
        <ele>2.4</ele>
        <time>2020-06-03T16:18:55Z</time>
      </trkpt>
      <trkpt lat="46.68939" lon="-1.93168">
        <ele>2.4</ele>
        <time>2020-06-03T16:18:56Z</time>
      </trkpt>
      <trkpt lat="46.68944" lon="-1.93166">
        <ele>2.4</ele>
        <time>2020-06-03T16:18:57Z</time>
      </trkpt>
      <trkpt lat="46.68949" lon="-1.93165">
        <ele>2.3</ele>
        <time>2020-06-03T16:18:58Z</time>
      </trkpt>
      <trkpt lat="46.68955" lon="-1.93164">
        <ele>2.3</ele>
        <time>2020-06-03T16:18:59Z</time>
      </trkpt>
      <trkpt lat="46.68961" lon="-1.93163">
        <ele>2.3</ele>
        <time>2020-06-03T16:19:00Z</time>
      </trkpt>
      <trkpt lat="46.68967" lon="-1.93162">
        <ele>2.3</ele>
        <time>2020-06-03T16:19:01Z</time>
      </trkpt>
      <trkpt lat="46.68972" lon="-1.93161">
        <ele>2.3</ele>
        <time>2020-06-03T16:19:02Z</time>
      </trkpt>
      <trkpt lat="46.68978" lon="-1.93161">
        <ele>2.2</ele>
        <time>2020-06-03T16:19:03Z</time>
      </trkpt>
      <trkpt lat="46.68984" lon="-1.9316">
        <ele>2.2</ele>
        <time>2020-06-03T16:19:04Z</time>
      </trkpt>
      <trkpt lat="46.68989" lon="-1.93158">
        <ele>2.2</ele>
        <time>2020-06-03T16:19:05Z</time>
      </trkpt>
      <trkpt lat="46.68994" lon="-1.93158">
        <ele>2.2</ele>
        <time>2020-06-03T16:19:06Z</time>
      </trkpt>
      <trkpt lat="46.69" lon="-1.93158">
        <ele>2.1</ele>
        <time>2020-06-03T16:19:07Z</time>
      </trkpt>
      <trkpt lat="46.69006" lon="-1.93158">
        <ele>2.2</ele>
        <time>2020-06-03T16:19:08Z</time>
      </trkpt>
      <trkpt lat="46.6901" lon="-1.93157">
        <ele>2.2</ele>
        <time>2020-06-03T16:19:09Z</time>
      </trkpt>
      <trkpt lat="46.69015" lon="-1.93158">
        <ele>2.2</ele>
        <time>2020-06-03T16:19:10Z</time>
      </trkpt>
      <trkpt lat="46.6902" lon="-1.93157">
        <ele>2.2</ele>
        <time>2020-06-03T16:19:11Z</time>
      </trkpt>
      <trkpt lat="46.69025" lon="-1.93156">
        <ele>2.2</ele>
        <time>2020-06-03T16:19:12Z</time>
      </trkpt>
      <trkpt lat="46.6903" lon="-1.93156">
        <ele>2.3</ele>
        <time>2020-06-03T16:19:13Z</time>
      </trkpt>
      <trkpt lat="46.69036" lon="-1.93155">
        <ele>2.3</ele>
        <time>2020-06-03T16:19:14Z</time>
      </trkpt>
      <trkpt lat="46.69042" lon="-1.93155">
        <ele>2.3</ele>
        <time>2020-06-03T16:19:15Z</time>
      </trkpt>
      <trkpt lat="46.69048" lon="-1.93155">
        <ele>2.4</ele>
        <time>2020-06-03T16:19:16Z</time>
      </trkpt>
      <trkpt lat="46.69053" lon="-1.93155">
        <ele>2.4</ele>
        <time>2020-06-03T16:19:17Z</time>
      </trkpt>
      <trkpt lat="46.69058" lon="-1.93155">
        <ele>2.5</ele>
        <time>2020-06-03T16:19:18Z</time>
      </trkpt>
      <trkpt lat="46.69064" lon="-1.93155">
        <ele>2.5</ele>
        <time>2020-06-03T16:19:19Z</time>
      </trkpt>
      <trkpt lat="46.69068" lon="-1.93156">
        <ele>2.5</ele>
        <time>2020-06-03T16:19:20Z</time>
      </trkpt>
      <trkpt lat="46.69074" lon="-1.93159">
        <ele>2.6</ele>
        <time>2020-06-03T16:19:21Z</time>
      </trkpt>
      <trkpt lat="46.69079" lon="-1.93164">
        <ele>2.6</ele>
        <time>2020-06-03T16:19:22Z</time>
      </trkpt>
      <trkpt lat="46.69084" lon="-1.93168">
        <ele>2.7</ele>
        <time>2020-06-03T16:19:23Z</time>
      </trkpt>
      <trkpt lat="46.6909" lon="-1.93173">
        <ele>2.7</ele>
        <time>2020-06-03T16:19:24Z</time>
      </trkpt>
      <trkpt lat="46.69094" lon="-1.93177">
        <ele>2.7</ele>
        <time>2020-06-03T16:19:25Z</time>
      </trkpt>
      <trkpt lat="46.69099" lon="-1.93183">
        <ele>2.8</ele>
        <time>2020-06-03T16:19:26Z</time>
      </trkpt>
      <trkpt lat="46.69103" lon="-1.93189">
        <ele>2.8</ele>
        <time>2020-06-03T16:19:27Z</time>
      </trkpt>
      <trkpt lat="46.69108" lon="-1.93194">
        <ele>2.8</ele>
        <time>2020-06-03T16:19:28Z</time>
      </trkpt>
      <trkpt lat="46.69111" lon="-1.932">
        <ele>2.8</ele>
        <time>2020-06-03T16:19:29Z</time>
      </trkpt>
      <trkpt lat="46.69115" lon="-1.93205">
        <ele>2.8</ele>
        <time>2020-06-03T16:19:30Z</time>
      </trkpt>
      <trkpt lat="46.69118" lon="-1.93212">
        <ele>2.9</ele>
        <time>2020-06-03T16:19:31Z</time>
      </trkpt>
      <trkpt lat="46.69122" lon="-1.93218">
        <ele>2.9</ele>
        <time>2020-06-03T16:19:32Z</time>
      </trkpt>
      <trkpt lat="46.69125" lon="-1.93224">
        <ele>2.9</ele>
        <time>2020-06-03T16:19:33Z</time>
      </trkpt>
      <trkpt lat="46.69128" lon="-1.9323">
        <ele>3</ele>
        <time>2020-06-03T16:19:34Z</time>
      </trkpt>
      <trkpt lat="46.69131" lon="-1.93236">
        <ele>3</ele>
        <time>2020-06-03T16:19:35Z</time>
      </trkpt>
      <trkpt lat="46.69133" lon="-1.93241">
        <ele>3.1</ele>
        <time>2020-06-03T16:19:36Z</time>
      </trkpt>
      <trkpt lat="46.69135" lon="-1.93247">
        <ele>3.1</ele>
        <time>2020-06-03T16:19:37Z</time>
      </trkpt>
      <trkpt lat="46.69139" lon="-1.93252">
        <ele>3.2</ele>
        <time>2020-06-03T16:19:38Z</time>
      </trkpt>
      <trkpt lat="46.69141" lon="-1.93258">
        <ele>3.2</ele>
        <time>2020-06-03T16:19:39Z</time>
      </trkpt>
      <trkpt lat="46.69144" lon="-1.93262">
        <ele>3.3</ele>
        <time>2020-06-03T16:19:40Z</time>
      </trkpt>
      <trkpt lat="46.69147" lon="-1.93266">
        <ele>3.3</ele>
        <time>2020-06-03T16:19:41Z</time>
      </trkpt>
      <trkpt lat="46.6915" lon="-1.9327">
        <ele>3.3</ele>
        <time>2020-06-03T16:19:42Z</time>
      </trkpt>
      <trkpt lat="46.69152" lon="-1.93274">
        <ele>3.3</ele>
        <time>2020-06-03T16:19:43Z</time>
      </trkpt>
      <trkpt lat="46.69154" lon="-1.93278">
        <ele>3.3</ele>
        <time>2020-06-03T16:19:44Z</time>
      </trkpt>
      <trkpt lat="46.69156" lon="-1.93282">
        <ele>3.3</ele>
        <time>2020-06-03T16:19:45Z</time>
      </trkpt>
      <trkpt lat="46.69158" lon="-1.93285">
        <ele>3.3</ele>
        <time>2020-06-03T16:19:46Z</time>
      </trkpt>
      <trkpt lat="46.6916" lon="-1.93289">
        <ele>3.3</ele>
        <time>2020-06-03T16:19:47Z</time>
      </trkpt>
      <trkpt lat="46.69162" lon="-1.93292">
        <ele>3.3</ele>
        <time>2020-06-03T16:19:48Z</time>
      </trkpt>
      <trkpt lat="46.69164" lon="-1.93296">
        <ele>3.3</ele>
        <time>2020-06-03T16:19:49Z</time>
      </trkpt>
      <trkpt lat="46.69165" lon="-1.93301">
        <ele>3.3</ele>
        <time>2020-06-03T16:19:50Z</time>
      </trkpt>
      <trkpt lat="46.69166" lon="-1.93303">
        <ele>3.3</ele>
        <time>2020-06-03T16:19:51Z</time>
      </trkpt>
      <trkpt lat="46.69166" lon="-1.93307">
        <ele>3.3</ele>
        <time>2020-06-03T16:19:52Z</time>
      </trkpt>
      <trkpt lat="46.69167" lon="-1.9331">
        <ele>3.3</ele>
        <time>2020-06-03T16:19:53Z</time>
      </trkpt>
      <trkpt lat="46.69167" lon="-1.93311">
        <ele>3.3</ele>
        <time>2020-06-03T16:19:54Z</time>
      </trkpt>
      <trkpt lat="46.69167" lon="-1.93312">
        <ele>3.3</ele>
        <time>2020-06-03T16:19:55Z</time>
      </trkpt>
      <trkpt lat="46.69168" lon="-1.93312">
        <ele>3.3</ele>
        <time>2020-06-03T16:19:56Z</time>
      </trkpt>
      <trkpt lat="46.69168" lon="-1.93312">
        <ele>3.3</ele>
        <time>2020-06-03T16:19:57Z</time>
      </trkpt>
      <trkpt lat="46.69169" lon="-1.93312">
        <ele>3.3</ele>
        <time>2020-06-03T16:19:58Z</time>
      </trkpt>
      <trkpt lat="46.69169" lon="-1.93313">
        <ele>3.3</ele>
        <time>2020-06-03T16:19:59Z</time>
      </trkpt>
      <trkpt lat="46.69169" lon="-1.93312">
        <ele>3.3</ele>
        <time>2020-06-03T16:20:00Z</time>
      </trkpt>
      <trkpt lat="46.69169" lon="-1.93312">
        <ele>3.3</ele>
        <time>2020-06-03T16:20:01Z</time>
      </trkpt>
      <trkpt lat="46.69168" lon="-1.93312">
        <ele>3.3</ele>
        <time>2020-06-03T16:20:02Z</time>
      </trkpt>
      <trkpt lat="46.69168" lon="-1.93313">
        <ele>3.3</ele>
        <time>2020-06-03T16:20:03Z</time>
      </trkpt>
      <trkpt lat="46.69168" lon="-1.93314">
        <ele>3.3</ele>
        <time>2020-06-03T16:20:04Z</time>
      </trkpt>
      <trkpt lat="46.69167" lon="-1.93314">
        <ele>3.3</ele>
        <time>2020-06-03T16:20:05Z</time>
      </trkpt>
      <trkpt lat="46.69169" lon="-1.93312">
        <ele>3.3</ele>
        <time>2020-06-03T16:27:20Z</time>
      </trkpt>
      <trkpt lat="46.6917" lon="-1.9331">
        <ele>3.3</ele>
        <time>2020-06-03T16:27:21Z</time>
      </trkpt>
      <trkpt lat="46.69169" lon="-1.93305">
        <ele>3.3</ele>
        <time>2020-06-03T16:27:22Z</time>
      </trkpt>
      <trkpt lat="46.69169" lon="-1.93303">
        <ele>3.3</ele>
        <time>2020-06-03T16:27:23Z</time>
      </trkpt>
      <trkpt lat="46.69169" lon="-1.93299">
        <ele>3.3</ele>
        <time>2020-06-03T16:27:24Z</time>
      </trkpt>
      <trkpt lat="46.69169" lon="-1.93295">
        <ele>3.4</ele>
        <time>2020-06-03T16:27:25Z</time>
      </trkpt>
      <trkpt lat="46.69168" lon="-1.93291">
        <ele>3.4</ele>
        <time>2020-06-03T16:27:26Z</time>
      </trkpt>
      <trkpt lat="46.69168" lon="-1.93287">
        <ele>3.4</ele>
        <time>2020-06-03T16:27:27Z</time>
      </trkpt>
      <trkpt lat="46.69167" lon="-1.9328">
        <ele>3.5</ele>
        <time>2020-06-03T16:27:28Z</time>
      </trkpt>
      <trkpt lat="46.69167" lon="-1.93273">
        <ele>3.5</ele>
        <time>2020-06-03T16:27:29Z</time>
      </trkpt>
      <trkpt lat="46.69167" lon="-1.93264">
        <ele>3.6</ele>
        <time>2020-06-03T16:27:30Z</time>
      </trkpt>
      <trkpt lat="46.69167" lon="-1.93257">
        <ele>3.6</ele>
        <time>2020-06-03T16:27:31Z</time>
      </trkpt>
      <trkpt lat="46.69168" lon="-1.9325">
        <ele>3.6</ele>
        <time>2020-06-03T16:27:32Z</time>
      </trkpt>
      <trkpt lat="46.69169" lon="-1.93243">
        <ele>3.6</ele>
        <time>2020-06-03T16:27:33Z</time>
      </trkpt>
      <trkpt lat="46.6917" lon="-1.93237">
        <ele>3.7</ele>
        <time>2020-06-03T16:27:34Z</time>
      </trkpt>
      <trkpt lat="46.69171" lon="-1.93231">
        <ele>3.7</ele>
        <time>2020-06-03T16:27:35Z</time>
      </trkpt>
      <trkpt lat="46.69172" lon="-1.93224">
        <ele>3.7</ele>
        <time>2020-06-03T16:27:36Z</time>
      </trkpt>
      <trkpt lat="46.69173" lon="-1.93217">
        <ele>3.8</ele>
        <time>2020-06-03T16:27:37Z</time>
      </trkpt>
      <trkpt lat="46.69175" lon="-1.93211">
        <ele>3.8</ele>
        <time>2020-06-03T16:27:38Z</time>
      </trkpt>
      <trkpt lat="46.69176" lon="-1.93204">
        <ele>3.9</ele>
        <time>2020-06-03T16:27:39Z</time>
      </trkpt>
      <trkpt lat="46.69177" lon="-1.93198">
        <ele>3.9</ele>
        <time>2020-06-03T16:27:40Z</time>
      </trkpt>
      <trkpt lat="46.69178" lon="-1.93191">
        <ele>3.9</ele>
        <time>2020-06-03T16:27:41Z</time>
      </trkpt>
      <trkpt lat="46.6918" lon="-1.93184">
        <ele>4</ele>
        <time>2020-06-03T16:27:42Z</time>
      </trkpt>
      <trkpt lat="46.6918" lon="-1.93178">
        <ele>4</ele>
        <time>2020-06-03T16:27:43Z</time>
      </trkpt>
      <trkpt lat="46.69181" lon="-1.93171">
        <ele>4</ele>
        <time>2020-06-03T16:27:44Z</time>
      </trkpt>
      <trkpt lat="46.69183" lon="-1.93164">
        <ele>4</ele>
        <time>2020-06-03T16:27:45Z</time>
      </trkpt>
      <trkpt lat="46.69183" lon="-1.93156">
        <ele>4</ele>
        <time>2020-06-03T16:27:46Z</time>
      </trkpt>
      <trkpt lat="46.69185" lon="-1.93149">
        <ele>4</ele>
        <time>2020-06-03T16:27:47Z</time>
      </trkpt>
      <trkpt lat="46.69187" lon="-1.93142">
        <ele>4</ele>
        <time>2020-06-03T16:27:48Z</time>
      </trkpt>
      <trkpt lat="46.69188" lon="-1.93135">
        <ele>4</ele>
        <time>2020-06-03T16:27:49Z</time>
      </trkpt>
      <trkpt lat="46.6919" lon="-1.93128">
        <ele>3.9</ele>
        <time>2020-06-03T16:27:50Z</time>
      </trkpt>
      <trkpt lat="46.69193" lon="-1.93121">
        <ele>3.9</ele>
        <time>2020-06-03T16:27:51Z</time>
      </trkpt>
      <trkpt lat="46.69196" lon="-1.93115">
        <ele>3.9</ele>
        <time>2020-06-03T16:27:52Z</time>
      </trkpt>
      <trkpt lat="46.69199" lon="-1.93108">
        <ele>3.9</ele>
        <time>2020-06-03T16:27:53Z</time>
      </trkpt>
      <trkpt lat="46.69203" lon="-1.93102">
        <ele>3.9</ele>
        <time>2020-06-03T16:27:54Z</time>
      </trkpt>
      <trkpt lat="46.69206" lon="-1.93096">
        <ele>3.9</ele>
        <time>2020-06-03T16:27:55Z</time>
      </trkpt>
      <trkpt lat="46.69208" lon="-1.9309">
        <ele>3.8</ele>
        <time>2020-06-03T16:27:56Z</time>
      </trkpt>
      <trkpt lat="46.69211" lon="-1.93085">
        <ele>3.8</ele>
        <time>2020-06-03T16:27:57Z</time>
      </trkpt>
      <trkpt lat="46.69214" lon="-1.9308">
        <ele>3.8</ele>
        <time>2020-06-03T16:27:58Z</time>
      </trkpt>
      <trkpt lat="46.69216" lon="-1.93076">
        <ele>3.8</ele>
        <time>2020-06-03T16:27:59Z</time>
      </trkpt>
      <trkpt lat="46.69218" lon="-1.9307">
        <ele>3.8</ele>
        <time>2020-06-03T16:28:00Z</time>
      </trkpt>
      <trkpt lat="46.69219" lon="-1.93064">
        <ele>3.8</ele>
        <time>2020-06-03T16:28:01Z</time>
      </trkpt>
      <trkpt lat="46.69218" lon="-1.93059">
        <ele>3.8</ele>
        <time>2020-06-03T16:28:02Z</time>
      </trkpt>
      <trkpt lat="46.69216" lon="-1.93054">
        <ele>3.8</ele>
        <time>2020-06-03T16:28:03Z</time>
      </trkpt>
      <trkpt lat="46.69214" lon="-1.93049">
        <ele>3.8</ele>
        <time>2020-06-03T16:28:04Z</time>
      </trkpt>
      <trkpt lat="46.6921" lon="-1.93044">
        <ele>3.8</ele>
        <time>2020-06-03T16:28:05Z</time>
      </trkpt>
      <trkpt lat="46.69205" lon="-1.93039">
        <ele>3.8</ele>
        <time>2020-06-03T16:28:06Z</time>
      </trkpt>
      <trkpt lat="46.69201" lon="-1.93035">
        <ele>3.8</ele>
        <time>2020-06-03T16:28:07Z</time>
      </trkpt>
      <trkpt lat="46.69196" lon="-1.9303">
        <ele>3.8</ele>
        <time>2020-06-03T16:28:08Z</time>
      </trkpt>
      <trkpt lat="46.69192" lon="-1.93026">
        <ele>3.8</ele>
        <time>2020-06-03T16:28:09Z</time>
      </trkpt>
      <trkpt lat="46.69187" lon="-1.93023">
        <ele>3.9</ele>
        <time>2020-06-03T16:28:10Z</time>
      </trkpt>
      <trkpt lat="46.69183" lon="-1.93019">
        <ele>3.9</ele>
        <time>2020-06-03T16:28:11Z</time>
      </trkpt>
      <trkpt lat="46.69179" lon="-1.93015">
        <ele>3.9</ele>
        <time>2020-06-03T16:28:12Z</time>
      </trkpt>
      <trkpt lat="46.69175" lon="-1.93011">
        <ele>3.9</ele>
        <time>2020-06-03T16:28:13Z</time>
      </trkpt>
      <trkpt lat="46.69171" lon="-1.93007">
        <ele>3.9</ele>
        <time>2020-06-03T16:28:14Z</time>
      </trkpt>
      <trkpt lat="46.69169" lon="-1.93002">
        <ele>4</ele>
        <time>2020-06-03T16:28:15Z</time>
      </trkpt>
      <trkpt lat="46.69168" lon="-1.92997">
        <ele>4</ele>
        <time>2020-06-03T16:28:16Z</time>
      </trkpt>
      <trkpt lat="46.69169" lon="-1.92991">
        <ele>4.1</ele>
        <time>2020-06-03T16:28:17Z</time>
      </trkpt>
      <trkpt lat="46.69171" lon="-1.92986">
        <ele>4.2</ele>
        <time>2020-06-03T16:28:18Z</time>
      </trkpt>
      <trkpt lat="46.69173" lon="-1.9298">
        <ele>4.2</ele>
        <time>2020-06-03T16:28:19Z</time>
      </trkpt>
      <trkpt lat="46.69174" lon="-1.92973">
        <ele>4.3</ele>
        <time>2020-06-03T16:28:20Z</time>
      </trkpt>
      <trkpt lat="46.69176" lon="-1.92967">
        <ele>4.4</ele>
        <time>2020-06-03T16:28:21Z</time>
      </trkpt>
      <trkpt lat="46.69178" lon="-1.92959">
        <ele>4.5</ele>
        <time>2020-06-03T16:28:22Z</time>
      </trkpt>
      <trkpt lat="46.69179" lon="-1.92952">
        <ele>4.6</ele>
        <time>2020-06-03T16:28:23Z</time>
      </trkpt>
      <trkpt lat="46.6918" lon="-1.92945">
        <ele>4.7</ele>
        <time>2020-06-03T16:28:24Z</time>
      </trkpt>
      <trkpt lat="46.69181" lon="-1.92938">
        <ele>4.8</ele>
        <time>2020-06-03T16:28:25Z</time>
      </trkpt>
      <trkpt lat="46.69182" lon="-1.9293">
        <ele>4.8</ele>
        <time>2020-06-03T16:28:26Z</time>
      </trkpt>
      <trkpt lat="46.69183" lon="-1.92923">
        <ele>4.9</ele>
        <time>2020-06-03T16:28:27Z</time>
      </trkpt>
      <trkpt lat="46.69184" lon="-1.92916">
        <ele>5</ele>
        <time>2020-06-03T16:28:28Z</time>
      </trkpt>
      <trkpt lat="46.69184" lon="-1.92909">
        <ele>5</ele>
        <time>2020-06-03T16:28:29Z</time>
      </trkpt>
      <trkpt lat="46.69185" lon="-1.92903">
        <ele>5.1</ele>
        <time>2020-06-03T16:28:30Z</time>
      </trkpt>
      <trkpt lat="46.69186" lon="-1.92896">
        <ele>5.2</ele>
        <time>2020-06-03T16:28:31Z</time>
      </trkpt>
      <trkpt lat="46.69187" lon="-1.92889">
        <ele>5.2</ele>
        <time>2020-06-03T16:28:32Z</time>
      </trkpt>
      <trkpt lat="46.69187" lon="-1.92881">
        <ele>5.3</ele>
        <time>2020-06-03T16:28:33Z</time>
      </trkpt>
      <trkpt lat="46.69188" lon="-1.92874">
        <ele>5.4</ele>
        <time>2020-06-03T16:28:34Z</time>
      </trkpt>
      <trkpt lat="46.69188" lon="-1.92867">
        <ele>5.5</ele>
        <time>2020-06-03T16:28:35Z</time>
      </trkpt>
      <trkpt lat="46.69189" lon="-1.9286">
        <ele>5.5</ele>
        <time>2020-06-03T16:28:36Z</time>
      </trkpt>
      <trkpt lat="46.6919" lon="-1.92852">
        <ele>5.6</ele>
        <time>2020-06-03T16:28:37Z</time>
      </trkpt>
      <trkpt lat="46.6919" lon="-1.92846">
        <ele>5.6</ele>
        <time>2020-06-03T16:28:38Z</time>
      </trkpt>
      <trkpt lat="46.69191" lon="-1.92839">
        <ele>5.8</ele>
        <time>2020-06-03T16:28:39Z</time>
      </trkpt>
      <trkpt lat="46.69192" lon="-1.92832">
        <ele>5.9</ele>
        <time>2020-06-03T16:28:40Z</time>
      </trkpt>
      <trkpt lat="46.69193" lon="-1.92825">
        <ele>6</ele>
        <time>2020-06-03T16:28:41Z</time>
      </trkpt>
      <trkpt lat="46.69194" lon="-1.92819">
        <ele>6.1</ele>
        <time>2020-06-03T16:28:42Z</time>
      </trkpt>
      <trkpt lat="46.69195" lon="-1.92812">
        <ele>6.2</ele>
        <time>2020-06-03T16:28:43Z</time>
      </trkpt>
      <trkpt lat="46.69196" lon="-1.92805">
        <ele>6.4</ele>
        <time>2020-06-03T16:28:44Z</time>
      </trkpt>
      <trkpt lat="46.69197" lon="-1.92798">
        <ele>6.5</ele>
        <time>2020-06-03T16:28:45Z</time>
      </trkpt>
      <trkpt lat="46.69198" lon="-1.92792">
        <ele>6.6</ele>
        <time>2020-06-03T16:28:46Z</time>
      </trkpt>
      <trkpt lat="46.69199" lon="-1.92787">
        <ele>6.8</ele>
        <time>2020-06-03T16:28:47Z</time>
      </trkpt>
      <trkpt lat="46.692" lon="-1.92781">
        <ele>6.9</ele>
        <time>2020-06-03T16:28:48Z</time>
      </trkpt>
      <trkpt lat="46.69201" lon="-1.92775">
        <ele>7</ele>
        <time>2020-06-03T16:28:49Z</time>
      </trkpt>
      <trkpt lat="46.69201" lon="-1.92768">
        <ele>7.2</ele>
        <time>2020-06-03T16:28:50Z</time>
      </trkpt>
      <trkpt lat="46.69202" lon="-1.9276">
        <ele>7.3</ele>
        <time>2020-06-03T16:28:51Z</time>
      </trkpt>
      <trkpt lat="46.69202" lon="-1.92753">
        <ele>7.4</ele>
        <time>2020-06-03T16:28:52Z</time>
      </trkpt>
      <trkpt lat="46.69202" lon="-1.92745">
        <ele>7.5</ele>
        <time>2020-06-03T16:28:53Z</time>
      </trkpt>
      <trkpt lat="46.69203" lon="-1.92738">
        <ele>7.6</ele>
        <time>2020-06-03T16:28:54Z</time>
      </trkpt>
      <trkpt lat="46.69204" lon="-1.9273">
        <ele>7.7</ele>
        <time>2020-06-03T16:28:55Z</time>
      </trkpt>
      <trkpt lat="46.69204" lon="-1.92722">
        <ele>7.8</ele>
        <time>2020-06-03T16:28:56Z</time>
      </trkpt>
      <trkpt lat="46.69205" lon="-1.92716">
        <ele>7.9</ele>
        <time>2020-06-03T16:28:57Z</time>
      </trkpt>
      <trkpt lat="46.69207" lon="-1.9271">
        <ele>8</ele>
        <time>2020-06-03T16:28:58Z</time>
      </trkpt>
      <trkpt lat="46.69208" lon="-1.92703">
        <ele>8.1</ele>
        <time>2020-06-03T16:28:59Z</time>
      </trkpt>
      <trkpt lat="46.6921" lon="-1.92697">
        <ele>8.1</ele>
        <time>2020-06-03T16:29:00Z</time>
      </trkpt>
      <trkpt lat="46.69212" lon="-1.9269">
        <ele>8.2</ele>
        <time>2020-06-03T16:29:01Z</time>
      </trkpt>
      <trkpt lat="46.69215" lon="-1.92684">
        <ele>8.3</ele>
        <time>2020-06-03T16:29:02Z</time>
      </trkpt>
      <trkpt lat="46.69216" lon="-1.92679">
        <ele>8.4</ele>
        <time>2020-06-03T16:29:03Z</time>
      </trkpt>
      <trkpt lat="46.69218" lon="-1.92673">
        <ele>8.5</ele>
        <time>2020-06-03T16:29:04Z</time>
      </trkpt>
      <trkpt lat="46.69219" lon="-1.92666">
        <ele>8.6</ele>
        <time>2020-06-03T16:29:05Z</time>
      </trkpt>
      <trkpt lat="46.6922" lon="-1.9266">
        <ele>8.7</ele>
        <time>2020-06-03T16:29:06Z</time>
      </trkpt>
      <trkpt lat="46.69222" lon="-1.92654">
        <ele>8.8</ele>
        <time>2020-06-03T16:29:07Z</time>
      </trkpt>
      <trkpt lat="46.69224" lon="-1.92648">
        <ele>8.9</ele>
        <time>2020-06-03T16:29:08Z</time>
      </trkpt>
      <trkpt lat="46.69226" lon="-1.92642">
        <ele>9</ele>
        <time>2020-06-03T16:29:09Z</time>
      </trkpt>
      <trkpt lat="46.69226" lon="-1.92635">
        <ele>9.1</ele>
        <time>2020-06-03T16:29:10Z</time>
      </trkpt>
      <trkpt lat="46.69227" lon="-1.92629">
        <ele>9.2</ele>
        <time>2020-06-03T16:29:11Z</time>
      </trkpt>
      <trkpt lat="46.69228" lon="-1.92623">
        <ele>9.3</ele>
        <time>2020-06-03T16:29:12Z</time>
      </trkpt>
      <trkpt lat="46.69229" lon="-1.92618">
        <ele>9.3</ele>
        <time>2020-06-03T16:29:13Z</time>
      </trkpt>
      <trkpt lat="46.6923" lon="-1.92612">
        <ele>9.4</ele>
        <time>2020-06-03T16:29:14Z</time>
      </trkpt>
      <trkpt lat="46.69232" lon="-1.92607">
        <ele>9.4</ele>
        <time>2020-06-03T16:29:15Z</time>
      </trkpt>
      <trkpt lat="46.69234" lon="-1.92601">
        <ele>9.5</ele>
        <time>2020-06-03T16:29:16Z</time>
      </trkpt>
      <trkpt lat="46.69234" lon="-1.92596">
        <ele>9.5</ele>
        <time>2020-06-03T16:29:17Z</time>
      </trkpt>
      <trkpt lat="46.69234" lon="-1.9259">
        <ele>9.5</ele>
        <time>2020-06-03T16:29:18Z</time>
      </trkpt>
      <trkpt lat="46.69234" lon="-1.92584">
        <ele>9.6</ele>
        <time>2020-06-03T16:29:19Z</time>
      </trkpt>
      <trkpt lat="46.69233" lon="-1.92577">
        <ele>9.8</ele>
        <time>2020-06-03T16:29:20Z</time>
      </trkpt>
      <trkpt lat="46.69233" lon="-1.9257">
        <ele>9.9</ele>
        <time>2020-06-03T16:29:21Z</time>
      </trkpt>
      <trkpt lat="46.69232" lon="-1.92563">
        <ele>10</ele>
        <time>2020-06-03T16:29:22Z</time>
      </trkpt>
      <trkpt lat="46.69231" lon="-1.92557">
        <ele>10.1</ele>
        <time>2020-06-03T16:29:23Z</time>
      </trkpt>
      <trkpt lat="46.69231" lon="-1.92549">
        <ele>10.2</ele>
        <time>2020-06-03T16:29:24Z</time>
      </trkpt>
      <trkpt lat="46.69232" lon="-1.92543">
        <ele>10.3</ele>
        <time>2020-06-03T16:29:25Z</time>
      </trkpt>
      <trkpt lat="46.69231" lon="-1.92538">
        <ele>10.4</ele>
        <time>2020-06-03T16:29:26Z</time>
      </trkpt>
      <trkpt lat="46.6923" lon="-1.92532">
        <ele>10.5</ele>
        <time>2020-06-03T16:29:27Z</time>
      </trkpt>
      <trkpt lat="46.6923" lon="-1.92528">
        <ele>10.5</ele>
        <time>2020-06-03T16:29:28Z</time>
      </trkpt>
      <trkpt lat="46.69229" lon="-1.92522">
        <ele>10.6</ele>
        <time>2020-06-03T16:29:29Z</time>
      </trkpt>
      <trkpt lat="46.69226" lon="-1.92516">
        <ele>10.7</ele>
        <time>2020-06-03T16:29:30Z</time>
      </trkpt>
      <trkpt lat="46.69224" lon="-1.9251">
        <ele>10.9</ele>
        <time>2020-06-03T16:29:31Z</time>
      </trkpt>
      <trkpt lat="46.69223" lon="-1.92504">
        <ele>11</ele>
        <time>2020-06-03T16:29:32Z</time>
      </trkpt>
      <trkpt lat="46.69221" lon="-1.92498">
        <ele>11.1</ele>
        <time>2020-06-03T16:29:33Z</time>
      </trkpt>
      <trkpt lat="46.6922" lon="-1.92491">
        <ele>11.2</ele>
        <time>2020-06-03T16:29:34Z</time>
      </trkpt>
      <trkpt lat="46.69219" lon="-1.92484">
        <ele>11.3</ele>
        <time>2020-06-03T16:29:35Z</time>
      </trkpt>
      <trkpt lat="46.69218" lon="-1.92477">
        <ele>11.4</ele>
        <time>2020-06-03T16:29:36Z</time>
      </trkpt>
      <trkpt lat="46.69216" lon="-1.92471">
        <ele>11.4</ele>
        <time>2020-06-03T16:29:37Z</time>
      </trkpt>
      <trkpt lat="46.69216" lon="-1.92465">
        <ele>11.5</ele>
        <time>2020-06-03T16:29:38Z</time>
      </trkpt>
      <trkpt lat="46.69214" lon="-1.9246">
        <ele>11.5</ele>
        <time>2020-06-03T16:29:39Z</time>
      </trkpt>
      <trkpt lat="46.69212" lon="-1.92454">
        <ele>11.5</ele>
        <time>2020-06-03T16:29:40Z</time>
      </trkpt>
      <trkpt lat="46.6921" lon="-1.92448">
        <ele>11.6</ele>
        <time>2020-06-03T16:29:41Z</time>
      </trkpt>
      <trkpt lat="46.69209" lon="-1.92442">
        <ele>11.7</ele>
        <time>2020-06-03T16:29:42Z</time>
      </trkpt>
      <trkpt lat="46.69208" lon="-1.92435">
        <ele>11.8</ele>
        <time>2020-06-03T16:29:43Z</time>
      </trkpt>
      <trkpt lat="46.69206" lon="-1.92429">
        <ele>11.9</ele>
        <time>2020-06-03T16:29:44Z</time>
      </trkpt>
      <trkpt lat="46.69205" lon="-1.92422">
        <ele>12</ele>
        <time>2020-06-03T16:29:45Z</time>
      </trkpt>
      <trkpt lat="46.69204" lon="-1.92415">
        <ele>12.1</ele>
        <time>2020-06-03T16:29:46Z</time>
      </trkpt>
      <trkpt lat="46.69203" lon="-1.92409">
        <ele>12.2</ele>
        <time>2020-06-03T16:29:47Z</time>
      </trkpt>
      <trkpt lat="46.69202" lon="-1.92403">
        <ele>12.3</ele>
        <time>2020-06-03T16:29:48Z</time>
      </trkpt>
      <trkpt lat="46.69201" lon="-1.92397">
        <ele>12.4</ele>
        <time>2020-06-03T16:29:49Z</time>
      </trkpt>
      <trkpt lat="46.69201" lon="-1.9239">
        <ele>12.4</ele>
        <time>2020-06-03T16:29:50Z</time>
      </trkpt>
      <trkpt lat="46.692" lon="-1.92384">
        <ele>12.4</ele>
        <time>2020-06-03T16:29:51Z</time>
      </trkpt>
      <trkpt lat="46.69199" lon="-1.92378">
        <ele>12.5</ele>
        <time>2020-06-03T16:29:52Z</time>
      </trkpt>
      <trkpt lat="46.69198" lon="-1.92371">
        <ele>12.6</ele>
        <time>2020-06-03T16:29:53Z</time>
      </trkpt>
      <trkpt lat="46.69197" lon="-1.92365">
        <ele>12.6</ele>
        <time>2020-06-03T16:29:54Z</time>
      </trkpt>
      <trkpt lat="46.69198" lon="-1.92357">
        <ele>12.7</ele>
        <time>2020-06-03T16:29:55Z</time>
      </trkpt>
      <trkpt lat="46.69197" lon="-1.92351">
        <ele>12.8</ele>
        <time>2020-06-03T16:29:56Z</time>
      </trkpt>
      <trkpt lat="46.69196" lon="-1.92344">
        <ele>12.8</ele>
        <time>2020-06-03T16:29:57Z</time>
      </trkpt>
      <trkpt lat="46.69195" lon="-1.92337">
        <ele>12.9</ele>
        <time>2020-06-03T16:29:58Z</time>
      </trkpt>
      <trkpt lat="46.69194" lon="-1.9233">
        <ele>13</ele>
        <time>2020-06-03T16:29:59Z</time>
      </trkpt>
      <trkpt lat="46.69193" lon="-1.92323">
        <ele>13.1</ele>
        <time>2020-06-03T16:30:00Z</time>
      </trkpt>
      <trkpt lat="46.69192" lon="-1.92316">
        <ele>13.2</ele>
        <time>2020-06-03T16:30:01Z</time>
      </trkpt>
      <trkpt lat="46.69191" lon="-1.9231">
        <ele>13.3</ele>
        <time>2020-06-03T16:30:02Z</time>
      </trkpt>
      <trkpt lat="46.6919" lon="-1.92303">
        <ele>13.4</ele>
        <time>2020-06-03T16:30:03Z</time>
      </trkpt>
      <trkpt lat="46.69191" lon="-1.92296">
        <ele>13.5</ele>
        <time>2020-06-03T16:30:04Z</time>
      </trkpt>
      <trkpt lat="46.69191" lon="-1.9229">
        <ele>13.6</ele>
        <time>2020-06-03T16:30:05Z</time>
      </trkpt>
      <trkpt lat="46.69191" lon="-1.92283">
        <ele>13.7</ele>
        <time>2020-06-03T16:30:06Z</time>
      </trkpt>
      <trkpt lat="46.69191" lon="-1.92277">
        <ele>13.8</ele>
        <time>2020-06-03T16:30:07Z</time>
      </trkpt>
      <trkpt lat="46.6919" lon="-1.9227">
        <ele>13.9</ele>
        <time>2020-06-03T16:30:08Z</time>
      </trkpt>
      <trkpt lat="46.69189" lon="-1.92263">
        <ele>14</ele>
        <time>2020-06-03T16:30:09Z</time>
      </trkpt>
      <trkpt lat="46.69189" lon="-1.92256">
        <ele>14.2</ele>
        <time>2020-06-03T16:30:10Z</time>
      </trkpt>
      <trkpt lat="46.69189" lon="-1.9225">
        <ele>14.3</ele>
        <time>2020-06-03T16:30:11Z</time>
      </trkpt>
      <trkpt lat="46.69188" lon="-1.92244">
        <ele>14.4</ele>
        <time>2020-06-03T16:30:12Z</time>
      </trkpt>
      <trkpt lat="46.69187" lon="-1.92238">
        <ele>14.6</ele>
        <time>2020-06-03T16:30:13Z</time>
      </trkpt>
      <trkpt lat="46.69187" lon="-1.92232">
        <ele>14.7</ele>
        <time>2020-06-03T16:30:14Z</time>
      </trkpt>
      <trkpt lat="46.69187" lon="-1.92226">
        <ele>14.8</ele>
        <time>2020-06-03T16:30:15Z</time>
      </trkpt>
      <trkpt lat="46.69186" lon="-1.9222">
        <ele>14.9</ele>
        <time>2020-06-03T16:30:16Z</time>
      </trkpt>
      <trkpt lat="46.69187" lon="-1.92214">
        <ele>14.9</ele>
        <time>2020-06-03T16:30:17Z</time>
      </trkpt>
      <trkpt lat="46.69187" lon="-1.92208">
        <ele>15</ele>
        <time>2020-06-03T16:30:18Z</time>
      </trkpt>
      <trkpt lat="46.69186" lon="-1.92202">
        <ele>15.1</ele>
        <time>2020-06-03T16:30:19Z</time>
      </trkpt>
      <trkpt lat="46.69186" lon="-1.92195">
        <ele>15.2</ele>
        <time>2020-06-03T16:30:20Z</time>
      </trkpt>
      <trkpt lat="46.69186" lon="-1.92188">
        <ele>15.3</ele>
        <time>2020-06-03T16:30:21Z</time>
      </trkpt>
      <trkpt lat="46.69185" lon="-1.92182">
        <ele>15.4</ele>
        <time>2020-06-03T16:30:22Z</time>
      </trkpt>
      <trkpt lat="46.69185" lon="-1.92176">
        <ele>15.5</ele>
        <time>2020-06-03T16:30:23Z</time>
      </trkpt>
      <trkpt lat="46.69185" lon="-1.92169">
        <ele>15.6</ele>
        <time>2020-06-03T16:30:24Z</time>
      </trkpt>
      <trkpt lat="46.69185" lon="-1.92163">
        <ele>15.7</ele>
        <time>2020-06-03T16:30:25Z</time>
      </trkpt>
      <trkpt lat="46.69186" lon="-1.92157">
        <ele>15.8</ele>
        <time>2020-06-03T16:30:26Z</time>
      </trkpt>
      <trkpt lat="46.69186" lon="-1.92151">
        <ele>15.9</ele>
        <time>2020-06-03T16:30:27Z</time>
      </trkpt>
      <trkpt lat="46.69186" lon="-1.92145">
        <ele>16</ele>
        <time>2020-06-03T16:30:28Z</time>
      </trkpt>
      <trkpt lat="46.69187" lon="-1.92139">
        <ele>16</ele>
        <time>2020-06-03T16:30:29Z</time>
      </trkpt>
      <trkpt lat="46.69187" lon="-1.92132">
        <ele>16.1</ele>
        <time>2020-06-03T16:30:30Z</time>
      </trkpt>
      <trkpt lat="46.69187" lon="-1.92124">
        <ele>16.2</ele>
        <time>2020-06-03T16:30:31Z</time>
      </trkpt>
      <trkpt lat="46.69186" lon="-1.92118">
        <ele>16.3</ele>
        <time>2020-06-03T16:30:32Z</time>
      </trkpt>
      <trkpt lat="46.69186" lon="-1.9211">
        <ele>16.3</ele>
        <time>2020-06-03T16:30:33Z</time>
      </trkpt>
      <trkpt lat="46.69187" lon="-1.92104">
        <ele>16.4</ele>
        <time>2020-06-03T16:30:34Z</time>
      </trkpt>
      <trkpt lat="46.69188" lon="-1.92098">
        <ele>16.4</ele>
        <time>2020-06-03T16:30:35Z</time>
      </trkpt>
      <trkpt lat="46.69189" lon="-1.92091">
        <ele>16.5</ele>
        <time>2020-06-03T16:30:36Z</time>
      </trkpt>
      <trkpt lat="46.6919" lon="-1.92085">
        <ele>16.5</ele>
        <time>2020-06-03T16:30:37Z</time>
      </trkpt>
      <trkpt lat="46.6919" lon="-1.92079">
        <ele>16.6</ele>
        <time>2020-06-03T16:30:38Z</time>
      </trkpt>
      <trkpt lat="46.69191" lon="-1.92072">
        <ele>16.6</ele>
        <time>2020-06-03T16:30:39Z</time>
      </trkpt>
      <trkpt lat="46.69193" lon="-1.92066">
        <ele>16.6</ele>
        <time>2020-06-03T16:30:40Z</time>
      </trkpt>
      <trkpt lat="46.69194" lon="-1.9206">
        <ele>16.7</ele>
        <time>2020-06-03T16:30:41Z</time>
      </trkpt>
      <trkpt lat="46.69195" lon="-1.92054">
        <ele>16.8</ele>
        <time>2020-06-03T16:30:42Z</time>
      </trkpt>
      <trkpt lat="46.69197" lon="-1.92047">
        <ele>16.9</ele>
        <time>2020-06-03T16:30:43Z</time>
      </trkpt>
      <trkpt lat="46.69198" lon="-1.92041">
        <ele>17.1</ele>
        <time>2020-06-03T16:30:44Z</time>
      </trkpt>
      <trkpt lat="46.69201" lon="-1.92035">
        <ele>17.2</ele>
        <time>2020-06-03T16:30:45Z</time>
      </trkpt>
      <trkpt lat="46.69202" lon="-1.9203">
        <ele>17.2</ele>
        <time>2020-06-03T16:30:46Z</time>
      </trkpt>
      <trkpt lat="46.69203" lon="-1.92023">
        <ele>17.3</ele>
        <time>2020-06-03T16:30:47Z</time>
      </trkpt>
      <trkpt lat="46.69204" lon="-1.92017">
        <ele>17.3</ele>
        <time>2020-06-03T16:30:48Z</time>
      </trkpt>
      <trkpt lat="46.69204" lon="-1.9201">
        <ele>17.3</ele>
        <time>2020-06-03T16:30:49Z</time>
      </trkpt>
      <trkpt lat="46.69204" lon="-1.92004">
        <ele>17.4</ele>
        <time>2020-06-03T16:30:50Z</time>
      </trkpt>
      <trkpt lat="46.69204" lon="-1.91997">
        <ele>17.5</ele>
        <time>2020-06-03T16:30:51Z</time>
      </trkpt>
      <trkpt lat="46.69202" lon="-1.91991">
        <ele>17.6</ele>
        <time>2020-06-03T16:30:52Z</time>
      </trkpt>
      <trkpt lat="46.69201" lon="-1.91984">
        <ele>17.7</ele>
        <time>2020-06-03T16:30:53Z</time>
      </trkpt>
      <trkpt lat="46.69201" lon="-1.91977">
        <ele>17.8</ele>
        <time>2020-06-03T16:30:54Z</time>
      </trkpt>
      <trkpt lat="46.692" lon="-1.91972">
        <ele>17.9</ele>
        <time>2020-06-03T16:30:55Z</time>
      </trkpt>
      <trkpt lat="46.69199" lon="-1.91965">
        <ele>17.9</ele>
        <time>2020-06-03T16:30:56Z</time>
      </trkpt>
      <trkpt lat="46.692" lon="-1.91958">
        <ele>18</ele>
        <time>2020-06-03T16:30:57Z</time>
      </trkpt>
      <trkpt lat="46.69199" lon="-1.91952">
        <ele>18.1</ele>
        <time>2020-06-03T16:30:58Z</time>
      </trkpt>
      <trkpt lat="46.69199" lon="-1.91946">
        <ele>18.2</ele>
        <time>2020-06-03T16:30:59Z</time>
      </trkpt>
      <trkpt lat="46.69199" lon="-1.91938">
        <ele>18.3</ele>
        <time>2020-06-03T16:31:00Z</time>
      </trkpt>
      <trkpt lat="46.69199" lon="-1.91931">
        <ele>18.4</ele>
        <time>2020-06-03T16:31:01Z</time>
      </trkpt>
      <trkpt lat="46.69199" lon="-1.91924">
        <ele>18.4</ele>
        <time>2020-06-03T16:31:02Z</time>
      </trkpt>
      <trkpt lat="46.69199" lon="-1.91917">
        <ele>18.5</ele>
        <time>2020-06-03T16:31:03Z</time>
      </trkpt>
      <trkpt lat="46.69199" lon="-1.9191">
        <ele>18.6</ele>
        <time>2020-06-03T16:31:04Z</time>
      </trkpt>
      <trkpt lat="46.69199" lon="-1.91903">
        <ele>18.7</ele>
        <time>2020-06-03T16:31:05Z</time>
      </trkpt>
      <trkpt lat="46.69199" lon="-1.91896">
        <ele>18.8</ele>
        <time>2020-06-03T16:31:06Z</time>
      </trkpt>
      <trkpt lat="46.69198" lon="-1.9189">
        <ele>18.9</ele>
        <time>2020-06-03T16:31:07Z</time>
      </trkpt>
      <trkpt lat="46.69198" lon="-1.91881">
        <ele>18.9</ele>
        <time>2020-06-03T16:31:08Z</time>
      </trkpt>
      <trkpt lat="46.69199" lon="-1.91874">
        <ele>18.9</ele>
        <time>2020-06-03T16:31:09Z</time>
      </trkpt>
      <trkpt lat="46.69198" lon="-1.91868">
        <ele>19</ele>
        <time>2020-06-03T16:31:10Z</time>
      </trkpt>
      <trkpt lat="46.69198" lon="-1.9186">
        <ele>19</ele>
        <time>2020-06-03T16:31:11Z</time>
      </trkpt>
      <trkpt lat="46.69198" lon="-1.91853">
        <ele>19.1</ele>
        <time>2020-06-03T16:31:12Z</time>
      </trkpt>
      <trkpt lat="46.69199" lon="-1.91847">
        <ele>19.1</ele>
        <time>2020-06-03T16:31:13Z</time>
      </trkpt>
      <trkpt lat="46.69199" lon="-1.9184">
        <ele>19.2</ele>
        <time>2020-06-03T16:31:14Z</time>
      </trkpt>
      <trkpt lat="46.69198" lon="-1.91832">
        <ele>19.2</ele>
        <time>2020-06-03T16:31:15Z</time>
      </trkpt>
      <trkpt lat="46.69199" lon="-1.91824">
        <ele>19.2</ele>
        <time>2020-06-03T16:31:16Z</time>
      </trkpt>
      <trkpt lat="46.69199" lon="-1.91817">
        <ele>19.3</ele>
        <time>2020-06-03T16:31:17Z</time>
      </trkpt>
      <trkpt lat="46.69198" lon="-1.91811">
        <ele>19.3</ele>
        <time>2020-06-03T16:31:18Z</time>
      </trkpt>
      <trkpt lat="46.69198" lon="-1.91804">
        <ele>19.3</ele>
        <time>2020-06-03T16:31:19Z</time>
      </trkpt>
      <trkpt lat="46.69198" lon="-1.91796">
        <ele>19.3</ele>
        <time>2020-06-03T16:31:20Z</time>
      </trkpt>
      <trkpt lat="46.69198" lon="-1.91789">
        <ele>19.3</ele>
        <time>2020-06-03T16:31:21Z</time>
      </trkpt>
      <trkpt lat="46.69198" lon="-1.91782">
        <ele>19.3</ele>
        <time>2020-06-03T16:31:22Z</time>
      </trkpt>
      <trkpt lat="46.69198" lon="-1.91776">
        <ele>19.3</ele>
        <time>2020-06-03T16:31:23Z</time>
      </trkpt>
      <trkpt lat="46.69198" lon="-1.9177">
        <ele>19.3</ele>
        <time>2020-06-03T16:31:24Z</time>
      </trkpt>
      <trkpt lat="46.69197" lon="-1.91762">
        <ele>19.4</ele>
        <time>2020-06-03T16:31:25Z</time>
      </trkpt>
      <trkpt lat="46.69197" lon="-1.91755">
        <ele>19.4</ele>
        <time>2020-06-03T16:31:26Z</time>
      </trkpt>
      <trkpt lat="46.69196" lon="-1.91746">
        <ele>19.4</ele>
        <time>2020-06-03T16:31:27Z</time>
      </trkpt>
      <trkpt lat="46.69195" lon="-1.91738">
        <ele>19.4</ele>
        <time>2020-06-03T16:31:28Z</time>
      </trkpt>
      <trkpt lat="46.69194" lon="-1.9173">
        <ele>19.4</ele>
        <time>2020-06-03T16:31:29Z</time>
      </trkpt>
      <trkpt lat="46.69193" lon="-1.91723">
        <ele>19.4</ele>
        <time>2020-06-03T16:31:30Z</time>
      </trkpt>
      <trkpt lat="46.69192" lon="-1.91716">
        <ele>19.4</ele>
        <time>2020-06-03T16:31:31Z</time>
      </trkpt>
      <trkpt lat="46.6919" lon="-1.91709">
        <ele>19.4</ele>
        <time>2020-06-03T16:31:32Z</time>
      </trkpt>
      <trkpt lat="46.69189" lon="-1.91702">
        <ele>19.4</ele>
        <time>2020-06-03T16:31:33Z</time>
      </trkpt>
      <trkpt lat="46.69188" lon="-1.91694">
        <ele>19.4</ele>
        <time>2020-06-03T16:31:34Z</time>
      </trkpt>
      <trkpt lat="46.69186" lon="-1.91688">
        <ele>19.3</ele>
        <time>2020-06-03T16:31:35Z</time>
      </trkpt>
      <trkpt lat="46.69186" lon="-1.91681">
        <ele>19.3</ele>
        <time>2020-06-03T16:31:36Z</time>
      </trkpt>
      <trkpt lat="46.69184" lon="-1.91674">
        <ele>19.3</ele>
        <time>2020-06-03T16:31:37Z</time>
      </trkpt>
      <trkpt lat="46.69182" lon="-1.91668">
        <ele>19.2</ele>
        <time>2020-06-03T16:31:38Z</time>
      </trkpt>
      <trkpt lat="46.6918" lon="-1.91661">
        <ele>19.2</ele>
        <time>2020-06-03T16:31:39Z</time>
      </trkpt>
      <trkpt lat="46.69177" lon="-1.91654">
        <ele>19.2</ele>
        <time>2020-06-03T16:31:40Z</time>
      </trkpt>
      <trkpt lat="46.69176" lon="-1.91646">
        <ele>19.1</ele>
        <time>2020-06-03T16:31:41Z</time>
      </trkpt>
      <trkpt lat="46.69174" lon="-1.91639">
        <ele>19.1</ele>
        <time>2020-06-03T16:31:42Z</time>
      </trkpt>
      <trkpt lat="46.69171" lon="-1.91632">
        <ele>19.1</ele>
        <time>2020-06-03T16:31:43Z</time>
      </trkpt>
      <trkpt lat="46.6917" lon="-1.91626">
        <ele>19.1</ele>
        <time>2020-06-03T16:31:44Z</time>
      </trkpt>
      <trkpt lat="46.69168" lon="-1.91619">
        <ele>19.1</ele>
        <time>2020-06-03T16:31:45Z</time>
      </trkpt>
      <trkpt lat="46.69166" lon="-1.91612">
        <ele>19.1</ele>
        <time>2020-06-03T16:31:46Z</time>
      </trkpt>
      <trkpt lat="46.69163" lon="-1.91604">
        <ele>19</ele>
        <time>2020-06-03T16:31:47Z</time>
      </trkpt>
      <trkpt lat="46.69161" lon="-1.91596">
        <ele>18.9</ele>
        <time>2020-06-03T16:31:48Z</time>
      </trkpt>
      <trkpt lat="46.69159" lon="-1.91588">
        <ele>18.8</ele>
        <time>2020-06-03T16:31:49Z</time>
      </trkpt>
      <trkpt lat="46.69157" lon="-1.9158">
        <ele>18.7</ele>
        <time>2020-06-03T16:31:50Z</time>
      </trkpt>
      <trkpt lat="46.69155" lon="-1.91572">
        <ele>18.6</ele>
        <time>2020-06-03T16:31:51Z</time>
      </trkpt>
      <trkpt lat="46.69153" lon="-1.91565">
        <ele>18.5</ele>
        <time>2020-06-03T16:31:52Z</time>
      </trkpt>
      <trkpt lat="46.69151" lon="-1.91557">
        <ele>18.5</ele>
        <time>2020-06-03T16:31:53Z</time>
      </trkpt>
      <trkpt lat="46.6915" lon="-1.91549">
        <ele>18.4</ele>
        <time>2020-06-03T16:31:54Z</time>
      </trkpt>
      <trkpt lat="46.69148" lon="-1.91541">
        <ele>18.3</ele>
        <time>2020-06-03T16:31:55Z</time>
      </trkpt>
      <trkpt lat="46.69147" lon="-1.91533">
        <ele>18.3</ele>
        <time>2020-06-03T16:31:56Z</time>
      </trkpt>
      <trkpt lat="46.69146" lon="-1.91526">
        <ele>18.2</ele>
        <time>2020-06-03T16:31:57Z</time>
      </trkpt>
      <trkpt lat="46.69144" lon="-1.91519">
        <ele>18.2</ele>
        <time>2020-06-03T16:31:58Z</time>
      </trkpt>
      <trkpt lat="46.69143" lon="-1.91512">
        <ele>18.1</ele>
        <time>2020-06-03T16:31:59Z</time>
      </trkpt>
      <trkpt lat="46.69141" lon="-1.91505">
        <ele>18.1</ele>
        <time>2020-06-03T16:32:00Z</time>
      </trkpt>
      <trkpt lat="46.6914" lon="-1.91498">
        <ele>18</ele>
        <time>2020-06-03T16:32:01Z</time>
      </trkpt>
      <trkpt lat="46.69139" lon="-1.91492">
        <ele>18</ele>
        <time>2020-06-03T16:32:02Z</time>
      </trkpt>
      <trkpt lat="46.69139" lon="-1.91487">
        <ele>18</ele>
        <time>2020-06-03T16:32:03Z</time>
      </trkpt>
      <trkpt lat="46.69137" lon="-1.91484">
        <ele>17.9</ele>
        <time>2020-06-03T16:32:04Z</time>
      </trkpt>
      <trkpt lat="46.69136" lon="-1.91479">
        <ele>17.9</ele>
        <time>2020-06-03T16:32:05Z</time>
      </trkpt>
      <trkpt lat="46.69136" lon="-1.91478">
        <ele>17.9</ele>
        <time>2020-06-03T16:32:06Z</time>
      </trkpt>
      <trkpt lat="46.69135" lon="-1.91476">
        <ele>17.9</ele>
        <time>2020-06-03T16:32:07Z</time>
      </trkpt>
      <trkpt lat="46.69136" lon="-1.91475">
        <ele>17.9</ele>
        <time>2020-06-03T16:32:08Z</time>
      </trkpt>
      <trkpt lat="46.69136" lon="-1.91474">
        <ele>17.9</ele>
        <time>2020-06-03T16:32:09Z</time>
      </trkpt>
      <trkpt lat="46.69136" lon="-1.91473">
        <ele>17.9</ele>
        <time>2020-06-03T16:32:10Z</time>
      </trkpt>
      <trkpt lat="46.69136" lon="-1.91472">
        <ele>17.9</ele>
        <time>2020-06-03T16:32:11Z</time>
      </trkpt>
      <trkpt lat="46.6914" lon="-1.9147">
        <ele>17.8</ele>
        <time>2020-06-03T16:32:12Z</time>
      </trkpt>
      <trkpt lat="46.69141" lon="-1.9147">
        <ele>17.8</ele>
        <time>2020-06-03T16:32:13Z</time>
      </trkpt>
      <trkpt lat="46.69144" lon="-1.91468">
        <ele>17.7</ele>
        <time>2020-06-03T16:32:14Z</time>
      </trkpt>
      <trkpt lat="46.69147" lon="-1.91467">
        <ele>17.7</ele>
        <time>2020-06-03T16:32:15Z</time>
      </trkpt>
      <trkpt lat="46.6915" lon="-1.91464">
        <ele>17.6</ele>
        <time>2020-06-03T16:32:16Z</time>
      </trkpt>
      <trkpt lat="46.69154" lon="-1.91462">
        <ele>17.5</ele>
        <time>2020-06-03T16:32:17Z</time>
      </trkpt>
      <trkpt lat="46.69158" lon="-1.91459">
        <ele>17.5</ele>
        <time>2020-06-03T16:32:18Z</time>
      </trkpt>
      <trkpt lat="46.69161" lon="-1.91455">
        <ele>17.4</ele>
        <time>2020-06-03T16:32:19Z</time>
      </trkpt>
      <trkpt lat="46.69165" lon="-1.91453">
        <ele>17.3</ele>
        <time>2020-06-03T16:32:20Z</time>
      </trkpt>
      <trkpt lat="46.69171" lon="-1.91451">
        <ele>17.2</ele>
        <time>2020-06-03T16:32:21Z</time>
      </trkpt>
      <trkpt lat="46.69175" lon="-1.91448">
        <ele>17.1</ele>
        <time>2020-06-03T16:32:22Z</time>
      </trkpt>
      <trkpt lat="46.6918" lon="-1.91445">
        <ele>17</ele>
        <time>2020-06-03T16:32:23Z</time>
      </trkpt>
      <trkpt lat="46.69185" lon="-1.91442">
        <ele>16.9</ele>
        <time>2020-06-03T16:32:24Z</time>
      </trkpt>
      <trkpt lat="46.6919" lon="-1.9144">
        <ele>16.8</ele>
        <time>2020-06-03T16:32:25Z</time>
      </trkpt>
      <trkpt lat="46.69196" lon="-1.91437">
        <ele>16.7</ele>
        <time>2020-06-03T16:32:26Z</time>
      </trkpt>
      <trkpt lat="46.69202" lon="-1.91434">
        <ele>16.6</ele>
        <time>2020-06-03T16:32:27Z</time>
      </trkpt>
      <trkpt lat="46.69207" lon="-1.91431">
        <ele>16.5</ele>
        <time>2020-06-03T16:32:28Z</time>
      </trkpt>
      <trkpt lat="46.69213" lon="-1.91428">
        <ele>16.5</ele>
        <time>2020-06-03T16:32:29Z</time>
      </trkpt>
      <trkpt lat="46.69218" lon="-1.91426">
        <ele>16.4</ele>
        <time>2020-06-03T16:32:30Z</time>
      </trkpt>
      <trkpt lat="46.69224" lon="-1.91425">
        <ele>16.4</ele>
        <time>2020-06-03T16:32:31Z</time>
      </trkpt>
      <trkpt lat="46.69229" lon="-1.91421">
        <ele>16.4</ele>
        <time>2020-06-03T16:32:32Z</time>
      </trkpt>
      <trkpt lat="46.69235" lon="-1.91418">
        <ele>16.4</ele>
        <time>2020-06-03T16:32:33Z</time>
      </trkpt>
      <trkpt lat="46.6924" lon="-1.91415">
        <ele>16.3</ele>
        <time>2020-06-03T16:32:34Z</time>
      </trkpt>
      <trkpt lat="46.69246" lon="-1.91413">
        <ele>16.3</ele>
        <time>2020-06-03T16:32:35Z</time>
      </trkpt>
      <trkpt lat="46.6925" lon="-1.9141">
        <ele>16.2</ele>
        <time>2020-06-03T16:32:36Z</time>
      </trkpt>
      <trkpt lat="46.69255" lon="-1.91406">
        <ele>16.2</ele>
        <time>2020-06-03T16:32:37Z</time>
      </trkpt>
      <trkpt lat="46.69258" lon="-1.91403">
        <ele>16.2</ele>
        <time>2020-06-03T16:32:38Z</time>
      </trkpt>
      <trkpt lat="46.69261" lon="-1.91399">
        <ele>16.2</ele>
        <time>2020-06-03T16:32:39Z</time>
      </trkpt>
      <trkpt lat="46.69263" lon="-1.91397">
        <ele>16.2</ele>
        <time>2020-06-03T16:32:40Z</time>
      </trkpt>
      <trkpt lat="46.69262" lon="-1.91396">
        <ele>16.2</ele>
        <time>2020-06-03T16:32:41Z</time>
      </trkpt>
      <trkpt lat="46.69262" lon="-1.91395">
        <ele>16.2</ele>
        <time>2020-06-03T16:32:42Z</time>
      </trkpt>
      <trkpt lat="46.69261" lon="-1.91393">
        <ele>16.2</ele>
        <time>2020-06-03T16:32:43Z</time>
      </trkpt>
      <trkpt lat="46.69262" lon="-1.91392">
        <ele>16.2</ele>
        <time>2020-06-03T16:32:44Z</time>
      </trkpt>
      <trkpt lat="46.69262" lon="-1.9139">
        <ele>16.2</ele>
        <time>2020-06-03T16:32:45Z</time>
      </trkpt>
      <trkpt lat="46.69262" lon="-1.91389">
        <ele>16.2</ele>
        <time>2020-06-03T16:32:46Z</time>
      </trkpt>
      <trkpt lat="46.69263" lon="-1.91385">
        <ele>16.2</ele>
        <time>2020-06-03T16:32:47Z</time>
      </trkpt>
      <trkpt lat="46.69264" lon="-1.91381">
        <ele>16.2</ele>
        <time>2020-06-03T16:32:48Z</time>
      </trkpt>
      <trkpt lat="46.69266" lon="-1.91375">
        <ele>16.5</ele>
        <time>2020-06-03T16:32:49Z</time>
      </trkpt>
      <trkpt lat="46.69268" lon="-1.9137">
        <ele>16.5</ele>
        <time>2020-06-03T16:32:50Z</time>
      </trkpt>
      <trkpt lat="46.69271" lon="-1.91367">
        <ele>16.4</ele>
        <time>2020-06-03T16:32:51Z</time>
      </trkpt>
      <trkpt lat="46.69275" lon="-1.91365">
        <ele>16.5</ele>
        <time>2020-06-03T16:32:52Z</time>
      </trkpt>
      <trkpt lat="46.6928" lon="-1.91365">
        <ele>16.5</ele>
        <time>2020-06-03T16:32:53Z</time>
      </trkpt>
      <trkpt lat="46.69286" lon="-1.91368">
        <ele>16.5</ele>
        <time>2020-06-03T16:32:54Z</time>
      </trkpt>
      <trkpt lat="46.69291" lon="-1.91371">
        <ele>16.6</ele>
        <time>2020-06-03T16:32:55Z</time>
      </trkpt>
      <trkpt lat="46.69296" lon="-1.91372">
        <ele>16.6</ele>
        <time>2020-06-03T16:32:56Z</time>
      </trkpt>
      <trkpt lat="46.69301" lon="-1.91374">
        <ele>16.6</ele>
        <time>2020-06-03T16:32:57Z</time>
      </trkpt>
      <trkpt lat="46.69306" lon="-1.91375">
        <ele>16.6</ele>
        <time>2020-06-03T16:32:58Z</time>
      </trkpt>
      <trkpt lat="46.69311" lon="-1.91376">
        <ele>16.6</ele>
        <time>2020-06-03T16:32:59Z</time>
      </trkpt>
      <trkpt lat="46.69316" lon="-1.91377">
        <ele>16.6</ele>
        <time>2020-06-03T16:33:00Z</time>
      </trkpt>
      <trkpt lat="46.69321" lon="-1.91378">
        <ele>16.7</ele>
        <time>2020-06-03T16:33:01Z</time>
      </trkpt>
      <trkpt lat="46.69326" lon="-1.91379">
        <ele>16.7</ele>
        <time>2020-06-03T16:33:02Z</time>
      </trkpt>
      <trkpt lat="46.69331" lon="-1.9138">
        <ele>16.7</ele>
        <time>2020-06-03T16:33:03Z</time>
      </trkpt>
      <trkpt lat="46.69336" lon="-1.91381">
        <ele>16.7</ele>
        <time>2020-06-03T16:33:04Z</time>
      </trkpt>
      <trkpt lat="46.69341" lon="-1.91382">
        <ele>16.8</ele>
        <time>2020-06-03T16:33:05Z</time>
      </trkpt>
      <trkpt lat="46.69346" lon="-1.91382">
        <ele>16.8</ele>
        <time>2020-06-03T16:33:06Z</time>
      </trkpt>
      <trkpt lat="46.69351" lon="-1.91385">
        <ele>16.8</ele>
        <time>2020-06-03T16:33:07Z</time>
      </trkpt>
      <trkpt lat="46.69355" lon="-1.91386">
        <ele>16.8</ele>
        <time>2020-06-03T16:33:08Z</time>
      </trkpt>
      <trkpt lat="46.69359" lon="-1.91387">
        <ele>16.7</ele>
        <time>2020-06-03T16:33:09Z</time>
      </trkpt>
      <trkpt lat="46.69364" lon="-1.91387">
        <ele>16.6</ele>
        <time>2020-06-03T16:33:10Z</time>
      </trkpt>
      <trkpt lat="46.69368" lon="-1.91388">
        <ele>16.6</ele>
        <time>2020-06-03T16:33:11Z</time>
      </trkpt>
      <trkpt lat="46.69373" lon="-1.91389">
        <ele>16.5</ele>
        <time>2020-06-03T16:33:12Z</time>
      </trkpt>
      <trkpt lat="46.69378" lon="-1.9139">
        <ele>16.4</ele>
        <time>2020-06-03T16:33:13Z</time>
      </trkpt>
      <trkpt lat="46.69383" lon="-1.91391">
        <ele>16.3</ele>
        <time>2020-06-03T16:33:14Z</time>
      </trkpt>
      <trkpt lat="46.69389" lon="-1.91391">
        <ele>16.2</ele>
        <time>2020-06-03T16:33:15Z</time>
      </trkpt>
      <trkpt lat="46.69393" lon="-1.91393">
        <ele>16.1</ele>
        <time>2020-06-03T16:33:16Z</time>
      </trkpt>
      <trkpt lat="46.69398" lon="-1.91394">
        <ele>16</ele>
        <time>2020-06-03T16:33:17Z</time>
      </trkpt>
      <trkpt lat="46.69403" lon="-1.91396">
        <ele>15.9</ele>
        <time>2020-06-03T16:33:18Z</time>
      </trkpt>
      <trkpt lat="46.69407" lon="-1.91397">
        <ele>15.8</ele>
        <time>2020-06-03T16:33:19Z</time>
      </trkpt>
      <trkpt lat="46.69412" lon="-1.91398">
        <ele>15.7</ele>
        <time>2020-06-03T16:33:20Z</time>
      </trkpt>
      <trkpt lat="46.69416" lon="-1.914">
        <ele>15.6</ele>
        <time>2020-06-03T16:33:21Z</time>
      </trkpt>
      <trkpt lat="46.69421" lon="-1.91402">
        <ele>15.5</ele>
        <time>2020-06-03T16:33:22Z</time>
      </trkpt>
      <trkpt lat="46.69425" lon="-1.91403">
        <ele>15.4</ele>
        <time>2020-06-03T16:33:23Z</time>
      </trkpt>
      <trkpt lat="46.6943" lon="-1.91404">
        <ele>15.3</ele>
        <time>2020-06-03T16:33:24Z</time>
      </trkpt>
      <trkpt lat="46.69434" lon="-1.91404">
        <ele>15.1</ele>
        <time>2020-06-03T16:33:25Z</time>
      </trkpt>
      <trkpt lat="46.69437" lon="-1.914">
        <ele>15</ele>
        <time>2020-06-03T16:33:26Z</time>
      </trkpt>
      <trkpt lat="46.69441" lon="-1.91396">
        <ele>14.9</ele>
        <time>2020-06-03T16:33:27Z</time>
      </trkpt>
      <trkpt lat="46.69444" lon="-1.91391">
        <ele>14.8</ele>
        <time>2020-06-03T16:33:28Z</time>
      </trkpt>
      <trkpt lat="46.69447" lon="-1.91386">
        <ele>14.7</ele>
        <time>2020-06-03T16:33:29Z</time>
      </trkpt>
      <trkpt lat="46.69451" lon="-1.91381">
        <ele>14.6</ele>
        <time>2020-06-03T16:33:30Z</time>
      </trkpt>
      <trkpt lat="46.69455" lon="-1.91378">
        <ele>14.4</ele>
        <time>2020-06-03T16:33:31Z</time>
      </trkpt>
      <trkpt lat="46.6946" lon="-1.91375">
        <ele>14.1</ele>
        <time>2020-06-03T16:33:32Z</time>
      </trkpt>
      <trkpt lat="46.69464" lon="-1.91373">
        <ele>13.8</ele>
        <time>2020-06-03T16:33:33Z</time>
      </trkpt>
      <trkpt lat="46.69469" lon="-1.91372">
        <ele>13.7</ele>
        <time>2020-06-03T16:33:34Z</time>
      </trkpt>
      <trkpt lat="46.69475" lon="-1.91372">
        <ele>13.7</ele>
        <time>2020-06-03T16:33:35Z</time>
      </trkpt>
      <trkpt lat="46.6948" lon="-1.91374">
        <ele>13.6</ele>
        <time>2020-06-03T16:33:36Z</time>
      </trkpt>
      <trkpt lat="46.69486" lon="-1.91376">
        <ele>13.5</ele>
        <time>2020-06-03T16:33:37Z</time>
      </trkpt>
      <trkpt lat="46.6949" lon="-1.91379">
        <ele>13.4</ele>
        <time>2020-06-03T16:33:38Z</time>
      </trkpt>
      <trkpt lat="46.69496" lon="-1.91381">
        <ele>13.2</ele>
        <time>2020-06-03T16:33:39Z</time>
      </trkpt>
      <trkpt lat="46.69502" lon="-1.91382">
        <ele>13.1</ele>
        <time>2020-06-03T16:33:40Z</time>
      </trkpt>
      <trkpt lat="46.69506" lon="-1.91383">
        <ele>12.9</ele>
        <time>2020-06-03T16:33:41Z</time>
      </trkpt>
      <trkpt lat="46.69511" lon="-1.91384">
        <ele>12.7</ele>
        <time>2020-06-03T16:33:42Z</time>
      </trkpt>
      <trkpt lat="46.69516" lon="-1.91385">
        <ele>12.6</ele>
        <time>2020-06-03T16:33:43Z</time>
      </trkpt>
      <trkpt lat="46.69521" lon="-1.91386">
        <ele>12.5</ele>
        <time>2020-06-03T16:33:44Z</time>
      </trkpt>
      <trkpt lat="46.69525" lon="-1.91386">
        <ele>12.4</ele>
        <time>2020-06-03T16:33:45Z</time>
      </trkpt>
      <trkpt lat="46.6953" lon="-1.91386">
        <ele>12.4</ele>
        <time>2020-06-03T16:33:46Z</time>
      </trkpt>
      <trkpt lat="46.69535" lon="-1.91385">
        <ele>12.3</ele>
        <time>2020-06-03T16:33:47Z</time>
      </trkpt>
      <trkpt lat="46.6954" lon="-1.91385">
        <ele>12.2</ele>
        <time>2020-06-03T16:33:48Z</time>
      </trkpt>
      <trkpt lat="46.69544" lon="-1.91384">
        <ele>12.2</ele>
        <time>2020-06-03T16:33:49Z</time>
      </trkpt>
      <trkpt lat="46.69549" lon="-1.91384">
        <ele>12.1</ele>
        <time>2020-06-03T16:33:50Z</time>
      </trkpt>
      <trkpt lat="46.69553" lon="-1.91384">
        <ele>12</ele>
        <time>2020-06-03T16:33:51Z</time>
      </trkpt>
      <trkpt lat="46.69557" lon="-1.91384">
        <ele>11.8</ele>
        <time>2020-06-03T16:33:52Z</time>
      </trkpt>
      <trkpt lat="46.69561" lon="-1.91382">
        <ele>11.6</ele>
        <time>2020-06-03T16:33:53Z</time>
      </trkpt>
      <trkpt lat="46.69565" lon="-1.91378">
        <ele>11.4</ele>
        <time>2020-06-03T16:33:54Z</time>
      </trkpt>
      <trkpt lat="46.6957" lon="-1.91375">
        <ele>11.2</ele>
        <time>2020-06-03T16:33:55Z</time>
      </trkpt>
      <trkpt lat="46.69575" lon="-1.91372">
        <ele>11</ele>
        <time>2020-06-03T16:33:56Z</time>
      </trkpt>
      <trkpt lat="46.6958" lon="-1.91371">
        <ele>10.9</ele>
        <time>2020-06-03T16:33:57Z</time>
      </trkpt>
      <trkpt lat="46.69584" lon="-1.91369">
        <ele>10.8</ele>
        <time>2020-06-03T16:33:58Z</time>
      </trkpt>
      <trkpt lat="46.69588" lon="-1.91367">
        <ele>10.4</ele>
        <time>2020-06-03T16:33:59Z</time>
      </trkpt>
      <trkpt lat="46.69592" lon="-1.91362">
        <ele>10.3</ele>
        <time>2020-06-03T16:34:00Z</time>
      </trkpt>
      <trkpt lat="46.69595" lon="-1.91358">
        <ele>10.1</ele>
        <time>2020-06-03T16:34:01Z</time>
      </trkpt>
      <trkpt lat="46.69598" lon="-1.91354">
        <ele>9.8</ele>
        <time>2020-06-03T16:34:02Z</time>
      </trkpt>
      <trkpt lat="46.69602" lon="-1.91351">
        <ele>9.7</ele>
        <time>2020-06-03T16:34:03Z</time>
      </trkpt>
      <trkpt lat="46.69606" lon="-1.91349">
        <ele>9.6</ele>
        <time>2020-06-03T16:34:04Z</time>
      </trkpt>
      <trkpt lat="46.6961" lon="-1.91349">
        <ele>9.4</ele>
        <time>2020-06-03T16:34:05Z</time>
      </trkpt>
      <trkpt lat="46.69614" lon="-1.91348">
        <ele>9.3</ele>
        <time>2020-06-03T16:34:06Z</time>
      </trkpt>
      <trkpt lat="46.69618" lon="-1.91348">
        <ele>9.2</ele>
        <time>2020-06-03T16:34:07Z</time>
      </trkpt>
      <trkpt lat="46.69623" lon="-1.91348">
        <ele>9</ele>
        <time>2020-06-03T16:34:08Z</time>
      </trkpt>
      <trkpt lat="46.69628" lon="-1.91348">
        <ele>8.9</ele>
        <time>2020-06-03T16:34:09Z</time>
      </trkpt>
      <trkpt lat="46.69632" lon="-1.91348">
        <ele>8.8</ele>
        <time>2020-06-03T16:34:10Z</time>
      </trkpt>
      <trkpt lat="46.69637" lon="-1.91347">
        <ele>8.7</ele>
        <time>2020-06-03T16:34:11Z</time>
      </trkpt>
      <trkpt lat="46.69642" lon="-1.91347">
        <ele>8.5</ele>
        <time>2020-06-03T16:34:12Z</time>
      </trkpt>
      <trkpt lat="46.69647" lon="-1.91346">
        <ele>8.4</ele>
        <time>2020-06-03T16:34:13Z</time>
      </trkpt>
      <trkpt lat="46.69651" lon="-1.91345">
        <ele>8.3</ele>
        <time>2020-06-03T16:34:14Z</time>
      </trkpt>
      <trkpt lat="46.69656" lon="-1.91345">
        <ele>8.2</ele>
        <time>2020-06-03T16:34:15Z</time>
      </trkpt>
      <trkpt lat="46.6966" lon="-1.91344">
        <ele>8.2</ele>
        <time>2020-06-03T16:34:16Z</time>
      </trkpt>
      <trkpt lat="46.69665" lon="-1.91344">
        <ele>8.1</ele>
        <time>2020-06-03T16:34:17Z</time>
      </trkpt>
      <trkpt lat="46.6967" lon="-1.91344">
        <ele>8</ele>
        <time>2020-06-03T16:34:18Z</time>
      </trkpt>
      <trkpt lat="46.69675" lon="-1.91343">
        <ele>8</ele>
        <time>2020-06-03T16:34:19Z</time>
      </trkpt>
      <trkpt lat="46.6968" lon="-1.91343">
        <ele>7.9</ele>
        <time>2020-06-03T16:34:20Z</time>
      </trkpt>
      <trkpt lat="46.69685" lon="-1.91343">
        <ele>7.9</ele>
        <time>2020-06-03T16:34:21Z</time>
      </trkpt>
      <trkpt lat="46.6969" lon="-1.91344">
        <ele>7.9</ele>
        <time>2020-06-03T16:34:22Z</time>
      </trkpt>
      <trkpt lat="46.69695" lon="-1.91345">
        <ele>7.9</ele>
        <time>2020-06-03T16:34:23Z</time>
      </trkpt>
      <trkpt lat="46.69699" lon="-1.91345">
        <ele>7.9</ele>
        <time>2020-06-03T16:34:24Z</time>
      </trkpt>
      <trkpt lat="46.69703" lon="-1.91345">
        <ele>7.9</ele>
        <time>2020-06-03T16:34:25Z</time>
      </trkpt>
      <trkpt lat="46.69706" lon="-1.91346">
        <ele>7.9</ele>
        <time>2020-06-03T16:34:26Z</time>
      </trkpt>
      <trkpt lat="46.69709" lon="-1.91346">
        <ele>7.9</ele>
        <time>2020-06-03T16:34:27Z</time>
      </trkpt>
      <trkpt lat="46.69713" lon="-1.91346">
        <ele>7.9</ele>
        <time>2020-06-03T16:34:28Z</time>
      </trkpt>
      <trkpt lat="46.69716" lon="-1.91347">
        <ele>8.1</ele>
        <time>2020-06-03T16:34:29Z</time>
      </trkpt>
      <trkpt lat="46.6972" lon="-1.91348">
        <ele>8.2</ele>
        <time>2020-06-03T16:34:30Z</time>
      </trkpt>
      <trkpt lat="46.69722" lon="-1.91348">
        <ele>8.2</ele>
        <time>2020-06-03T16:34:31Z</time>
      </trkpt>
      <trkpt lat="46.69724" lon="-1.91345">
        <ele>8.2</ele>
        <time>2020-06-03T16:34:32Z</time>
      </trkpt>
      <trkpt lat="46.69726" lon="-1.9134">
        <ele>8.2</ele>
        <time>2020-06-03T16:34:33Z</time>
      </trkpt>
      <trkpt lat="46.69727" lon="-1.91338">
        <ele>8.2</ele>
        <time>2020-06-03T16:34:34Z</time>
      </trkpt>
      <trkpt lat="46.69728" lon="-1.91333">
        <ele>8.3</ele>
        <time>2020-06-03T16:34:35Z</time>
      </trkpt>
      <trkpt lat="46.6973" lon="-1.9133">
        <ele>8.3</ele>
        <time>2020-06-03T16:34:36Z</time>
      </trkpt>
      <trkpt lat="46.69732" lon="-1.91326">
        <ele>8.4</ele>
        <time>2020-06-03T16:34:37Z</time>
      </trkpt>
      <trkpt lat="46.69734" lon="-1.91323">
        <ele>8.4</ele>
        <time>2020-06-03T16:34:38Z</time>
      </trkpt>
      <trkpt lat="46.69736" lon="-1.91319">
        <ele>8.5</ele>
        <time>2020-06-03T16:34:39Z</time>
      </trkpt>
      <trkpt lat="46.69737" lon="-1.91314">
        <ele>8.5</ele>
        <time>2020-06-03T16:34:40Z</time>
      </trkpt>
      <trkpt lat="46.69738" lon="-1.91312">
        <ele>8.6</ele>
        <time>2020-06-03T16:34:41Z</time>
      </trkpt>
      <trkpt lat="46.69738" lon="-1.91308">
        <ele>8.6</ele>
        <time>2020-06-03T16:34:42Z</time>
      </trkpt>
      <trkpt lat="46.69739" lon="-1.91304">
        <ele>8.7</ele>
        <time>2020-06-03T16:34:43Z</time>
      </trkpt>
      <trkpt lat="46.6974" lon="-1.91299">
        <ele>8.7</ele>
        <time>2020-06-03T16:34:44Z</time>
      </trkpt>
      <trkpt lat="46.6974" lon="-1.91295">
        <ele>8.8</ele>
        <time>2020-06-03T16:34:45Z</time>
      </trkpt>
      <trkpt lat="46.69742" lon="-1.9129">
        <ele>8.9</ele>
        <time>2020-06-03T16:34:46Z</time>
      </trkpt>
      <trkpt lat="46.69742" lon="-1.91289">
        <ele>8.9</ele>
        <time>2020-06-03T16:34:47Z</time>
      </trkpt>
      <trkpt lat="46.69743" lon="-1.91287">
        <ele>8.9</ele>
        <time>2020-06-03T16:34:48Z</time>
      </trkpt>
      <trkpt lat="46.69744" lon="-1.91285">
        <ele>9.1</ele>
        <time>2020-06-03T16:34:49Z</time>
      </trkpt>
      <trkpt lat="46.69745" lon="-1.91283">
        <ele>9.1</ele>
        <time>2020-06-03T16:34:50Z</time>
      </trkpt>
      <trkpt lat="46.69746" lon="-1.91282">
        <ele>9.1</ele>
        <time>2020-06-03T16:34:51Z</time>
      </trkpt>
      <trkpt lat="46.69747" lon="-1.91282">
        <ele>9.3</ele>
        <time>2020-06-03T16:34:52Z</time>
      </trkpt>
      <trkpt lat="46.69749" lon="-1.91282">
        <ele>9.3</ele>
        <time>2020-06-03T16:34:53Z</time>
      </trkpt>
      <trkpt lat="46.69751" lon="-1.91282">
        <ele>9.4</ele>
        <time>2020-06-03T16:34:54Z</time>
      </trkpt>
      <trkpt lat="46.69752" lon="-1.91282">
        <ele>9.4</ele>
        <time>2020-06-03T16:34:55Z</time>
      </trkpt>
      <trkpt lat="46.69756" lon="-1.91283">
        <ele>9.4</ele>
        <time>2020-06-03T16:34:56Z</time>
      </trkpt>
      <trkpt lat="46.69756" lon="-1.91283">
        <ele>9.4</ele>
        <time>2020-06-03T16:34:57Z</time>
      </trkpt>
      <trkpt lat="46.69759" lon="-1.91285">
        <ele>9.5</ele>
        <time>2020-06-03T16:34:58Z</time>
      </trkpt>
      <trkpt lat="46.6976" lon="-1.91286">
        <ele>9.5</ele>
        <time>2020-06-03T16:34:59Z</time>
      </trkpt>
      <trkpt lat="46.69762" lon="-1.91289">
        <ele>9.4</ele>
        <time>2020-06-03T16:35:00Z</time>
      </trkpt>
      <trkpt lat="46.69765" lon="-1.91294">
        <ele>9.4</ele>
        <time>2020-06-03T16:35:01Z</time>
      </trkpt>
      <trkpt lat="46.69766" lon="-1.91295">
        <ele>9.4</ele>
        <time>2020-06-03T16:35:02Z</time>
      </trkpt>
      <trkpt lat="46.69767" lon="-1.91297">
        <ele>9.2</ele>
        <time>2020-06-03T16:35:03Z</time>
      </trkpt>
      <trkpt lat="46.69767" lon="-1.91298">
        <ele>9.3</ele>
        <time>2020-06-03T16:35:04Z</time>
      </trkpt>
      <trkpt lat="46.69768" lon="-1.91299">
        <ele>9.3</ele>
        <time>2020-06-03T16:35:05Z</time>
      </trkpt>
      <trkpt lat="46.69768" lon="-1.91299">
        <ele>9.3</ele>
        <time>2020-06-03T16:35:06Z</time>
      </trkpt>
      <trkpt lat="46.69767" lon="-1.91299">
        <ele>9.2</ele>
        <time>2020-06-03T16:35:07Z</time>
      </trkpt>
      <trkpt lat="46.69766" lon="-1.913">
        <ele>9.1</ele>
        <time>2020-06-03T16:35:08Z</time>
      </trkpt>
      <trkpt lat="46.69766" lon="-1.91299">
        <ele>9.3</ele>
        <time>2020-06-03T16:35:09Z</time>
      </trkpt>
      <trkpt lat="46.69766" lon="-1.913">
        <ele>9.1</ele>
        <time>2020-06-03T16:35:10Z</time>
      </trkpt>
      <trkpt lat="46.69765" lon="-1.91301">
        <ele>9.1</ele>
        <time>2020-06-03T16:35:11Z</time>
      </trkpt>
      <trkpt lat="46.69766" lon="-1.91306">
        <ele>9</ele>
        <time>2020-06-03T16:35:12Z</time>
      </trkpt>
      <trkpt lat="46.69767" lon="-1.91306">
        <ele>9</ele>
        <time>2020-06-03T16:35:13Z</time>
      </trkpt>
      <trkpt lat="46.69766" lon="-1.91307">
        <ele>9</ele>
        <time>2020-06-03T16:35:14Z</time>
      </trkpt>
      <trkpt lat="46.69766" lon="-1.91305">
        <ele>9</ele>
        <time>2020-06-03T16:35:15Z</time>
      </trkpt>
      <trkpt lat="46.69766" lon="-1.91304">
        <ele>9</ele>
        <time>2020-06-03T16:35:16Z</time>
      </trkpt>
      <trkpt lat="46.69768" lon="-1.91305">
        <ele>9</ele>
        <time>2020-06-03T16:35:17Z</time>
      </trkpt>
      <trkpt lat="46.69769" lon="-1.91307">
        <ele>9</ele>
        <time>2020-06-03T16:35:18Z</time>
      </trkpt>
      <trkpt lat="46.69769" lon="-1.91307">
        <ele>9</ele>
        <time>2020-06-03T16:35:19Z</time>
      </trkpt>
      <trkpt lat="46.69767" lon="-1.91306">
        <ele>9</ele>
        <time>2020-06-03T16:35:20Z</time>
      </trkpt>
      <trkpt lat="46.69767" lon="-1.91307">
        <ele>9.1</ele>
        <time>2020-06-03T16:35:21Z</time>
      </trkpt>
      <trkpt lat="46.69766" lon="-1.91308">
        <ele>9</ele>
        <time>2020-06-03T16:35:22Z</time>
      </trkpt>
      <trkpt lat="46.69766" lon="-1.91309">
        <ele>8.9</ele>
        <time>2020-06-03T16:35:23Z</time>
      </trkpt>
      <trkpt lat="46.69765" lon="-1.9131">
        <ele>8.9</ele>
        <time>2020-06-03T16:35:24Z</time>
      </trkpt>
      <trkpt lat="46.69765" lon="-1.9131">
        <ele>8.9</ele>
        <time>2020-06-03T16:35:25Z</time>
      </trkpt>
      <trkpt lat="46.69779" lon="-1.91303">
        <ele>9.4</ele>
        <time>2020-06-03T16:37:15Z</time>
      </trkpt>
      <trkpt lat="46.69779" lon="-1.91303">
        <ele>9.5</ele>
        <time>2020-06-03T16:37:16Z</time>
      </trkpt>
      <trkpt lat="46.69779" lon="-1.91303">
        <ele>9.5</ele>
        <time>2020-06-03T16:37:17Z</time>
      </trkpt>
      <trkpt lat="46.69779" lon="-1.91303">
        <ele>9.5</ele>
        <time>2020-06-03T16:37:18Z</time>
      </trkpt>
      <trkpt lat="46.69779" lon="-1.91303">
        <ele>9.5</ele>
        <time>2020-06-03T16:37:19Z</time>
      </trkpt>
      <trkpt lat="46.69779" lon="-1.91303">
        <ele>9.5</ele>
        <time>2020-06-03T16:37:20Z</time>
      </trkpt>
      <trkpt lat="46.69779" lon="-1.91303">
        <ele>9.5</ele>
        <time>2020-06-03T16:37:21Z</time>
      </trkpt>
      <trkpt lat="46.69779" lon="-1.91303">
        <ele>9.5</ele>
        <time>2020-06-03T16:37:22Z</time>
      </trkpt>
      <trkpt lat="46.69779" lon="-1.91303">
        <ele>9.5</ele>
        <time>2020-06-03T16:37:23Z</time>
      </trkpt>
      <trkpt lat="46.69779" lon="-1.91303">
        <ele>9.5</ele>
        <time>2020-06-03T16:37:24Z</time>
      </trkpt>
      <trkpt lat="46.6978" lon="-1.91302">
        <ele>9.5</ele>
        <time>2020-06-03T16:37:25Z</time>
      </trkpt>
      <trkpt lat="46.6978" lon="-1.91304">
        <ele>9.3</ele>
        <time>2020-06-03T16:37:26Z</time>
      </trkpt>
      <trkpt lat="46.6978" lon="-1.91305">
        <ele>9.3</ele>
        <time>2020-06-03T16:37:27Z</time>
      </trkpt>
      <trkpt lat="46.6978" lon="-1.91305">
        <ele>9.3</ele>
        <time>2020-06-03T16:37:28Z</time>
      </trkpt>
      <trkpt lat="46.69781" lon="-1.91306">
        <ele>9.3</ele>
        <time>2020-06-03T16:37:29Z</time>
      </trkpt>
      <trkpt lat="46.69782" lon="-1.91306">
        <ele>9.4</ele>
        <time>2020-06-03T16:37:30Z</time>
      </trkpt>
      <trkpt lat="46.69782" lon="-1.91305">
        <ele>9.4</ele>
        <time>2020-06-03T16:37:31Z</time>
      </trkpt>
      <trkpt lat="46.69782" lon="-1.91303">
        <ele>9.6</ele>
        <time>2020-06-03T16:37:32Z</time>
      </trkpt>
      <trkpt lat="46.69782" lon="-1.91302">
        <ele>9.6</ele>
        <time>2020-06-03T16:37:33Z</time>
      </trkpt>
      <trkpt lat="46.69783" lon="-1.91302">
        <ele>9.6</ele>
        <time>2020-06-03T16:37:34Z</time>
      </trkpt>
      <trkpt lat="46.69783" lon="-1.91302">
        <ele>9.6</ele>
        <time>2020-06-03T16:37:35Z</time>
      </trkpt>
      <trkpt lat="46.69783" lon="-1.91302">
        <ele>9.6</ele>
        <time>2020-06-03T16:37:36Z</time>
      </trkpt>
      <trkpt lat="46.69783" lon="-1.91302">
        <ele>9.6</ele>
        <time>2020-06-03T16:37:37Z</time>
      </trkpt>
      <trkpt lat="46.69783" lon="-1.91302">
        <ele>9.6</ele>
        <time>2020-06-03T16:37:38Z</time>
      </trkpt>
      <trkpt lat="46.69783" lon="-1.91302">
        <ele>9.6</ele>
        <time>2020-06-03T16:37:39Z</time>
      </trkpt>
      <trkpt lat="46.69783" lon="-1.91302">
        <ele>9.6</ele>
        <time>2020-06-03T16:37:40Z</time>
      </trkpt>
      <trkpt lat="46.69783" lon="-1.91302">
        <ele>9.6</ele>
        <time>2020-06-03T16:37:41Z</time>
      </trkpt>
      <trkpt lat="46.69756" lon="-1.91302">
        <ele>9.1</ele>
        <time>2020-06-03T17:08:47Z</time>
      </trkpt>
      <trkpt lat="46.69756" lon="-1.91301">
        <ele>9.1</ele>
        <time>2020-06-03T17:08:48Z</time>
      </trkpt>
      <trkpt lat="46.69757" lon="-1.91302">
        <ele>9.2</ele>
        <time>2020-06-03T17:08:49Z</time>
      </trkpt>
      <trkpt lat="46.69758" lon="-1.91301">
        <ele>9.2</ele>
        <time>2020-06-03T17:08:50Z</time>
      </trkpt>
      <trkpt lat="46.69759" lon="-1.913">
        <ele>9.2</ele>
        <time>2020-06-03T17:08:51Z</time>
      </trkpt>
      <trkpt lat="46.69759" lon="-1.91299">
        <ele>9.4</ele>
        <time>2020-06-03T17:08:52Z</time>
      </trkpt>
      <trkpt lat="46.69759" lon="-1.91299">
        <ele>9.4</ele>
        <time>2020-06-03T17:08:53Z</time>
      </trkpt>
      <trkpt lat="46.6976" lon="-1.91299">
        <ele>9.4</ele>
        <time>2020-06-03T17:08:54Z</time>
      </trkpt>
      <trkpt lat="46.6976" lon="-1.91298">
        <ele>9.4</ele>
        <time>2020-06-03T17:08:55Z</time>
      </trkpt>
      <trkpt lat="46.6976" lon="-1.91298">
        <ele>9.4</ele>
        <time>2020-06-03T17:08:56Z</time>
      </trkpt>
      <trkpt lat="46.69759" lon="-1.91299">
        <ele>9.4</ele>
        <time>2020-06-03T17:08:57Z</time>
      </trkpt>
      <trkpt lat="46.69752" lon="-1.91275">
        <ele>9.9</ele>
        <time>2020-06-03T17:09:09Z</time>
      </trkpt>
      <trkpt lat="46.69751" lon="-1.91275">
        <ele>9.9</ele>
        <time>2020-06-03T17:09:10Z</time>
      </trkpt>
      <trkpt lat="46.69749" lon="-1.91274">
        <ele>10</ele>
        <time>2020-06-03T17:09:11Z</time>
      </trkpt>
      <trkpt lat="46.69748" lon="-1.91272">
        <ele>9.9</ele>
        <time>2020-06-03T17:09:12Z</time>
      </trkpt>
      <trkpt lat="46.69747" lon="-1.91271">
        <ele>9.9</ele>
        <time>2020-06-03T17:09:13Z</time>
      </trkpt>
      <trkpt lat="46.69746" lon="-1.9127">
        <ele>9.8</ele>
        <time>2020-06-03T17:09:14Z</time>
      </trkpt>
      <trkpt lat="46.69744" lon="-1.91267">
        <ele>10</ele>
        <time>2020-06-03T17:09:15Z</time>
      </trkpt>
      <trkpt lat="46.69743" lon="-1.91266">
        <ele>9.9</ele>
        <time>2020-06-03T17:09:16Z</time>
      </trkpt>
      <trkpt lat="46.69741" lon="-1.91263">
        <ele>10</ele>
        <time>2020-06-03T17:09:17Z</time>
      </trkpt>
      <trkpt lat="46.69739" lon="-1.9126">
        <ele>10.1</ele>
        <time>2020-06-03T17:09:18Z</time>
      </trkpt>
      <trkpt lat="46.69738" lon="-1.91259">
        <ele>10.1</ele>
        <time>2020-06-03T17:09:19Z</time>
      </trkpt>
      <trkpt lat="46.69737" lon="-1.91255">
        <ele>10.1</ele>
        <time>2020-06-03T17:09:20Z</time>
      </trkpt>
      <trkpt lat="46.69736" lon="-1.91254">
        <ele>10.1</ele>
        <time>2020-06-03T17:09:21Z</time>
      </trkpt>
      <trkpt lat="46.69736" lon="-1.91249">
        <ele>10.3</ele>
        <time>2020-06-03T17:09:22Z</time>
      </trkpt>
      <trkpt lat="46.69736" lon="-1.91248">
        <ele>10.3</ele>
        <time>2020-06-03T17:09:23Z</time>
      </trkpt>
      <trkpt lat="46.69735" lon="-1.91246">
        <ele>10.4</ele>
        <time>2020-06-03T17:09:24Z</time>
      </trkpt>
      <trkpt lat="46.69734" lon="-1.91244">
        <ele>10.3</ele>
        <time>2020-06-03T17:09:25Z</time>
      </trkpt>
      <trkpt lat="46.69734" lon="-1.9124">
        <ele>10.4</ele>
        <time>2020-06-03T17:09:26Z</time>
      </trkpt>
      <trkpt lat="46.69733" lon="-1.91239">
        <ele>10.5</ele>
        <time>2020-06-03T17:09:27Z</time>
      </trkpt>
      <trkpt lat="46.69733" lon="-1.91236">
        <ele>10.6</ele>
        <time>2020-06-03T17:09:28Z</time>
      </trkpt>
      <trkpt lat="46.69733" lon="-1.91234">
        <ele>10.7</ele>
        <time>2020-06-03T17:09:29Z</time>
      </trkpt>
      <trkpt lat="46.69732" lon="-1.91232">
        <ele>10.7</ele>
        <time>2020-06-03T17:09:30Z</time>
      </trkpt>
      <trkpt lat="46.69732" lon="-1.91228">
        <ele>10.8</ele>
        <time>2020-06-03T17:09:31Z</time>
      </trkpt>
      <trkpt lat="46.69732" lon="-1.91226">
        <ele>10.9</ele>
        <time>2020-06-03T17:09:32Z</time>
      </trkpt>
      <trkpt lat="46.69732" lon="-1.91221">
        <ele>11</ele>
        <time>2020-06-03T17:09:33Z</time>
      </trkpt>
      <trkpt lat="46.69732" lon="-1.91219">
        <ele>11</ele>
        <time>2020-06-03T17:09:34Z</time>
      </trkpt>
      <trkpt lat="46.69731" lon="-1.91215">
        <ele>11</ele>
        <time>2020-06-03T17:09:35Z</time>
      </trkpt>
      <trkpt lat="46.6973" lon="-1.9121">
        <ele>11.1</ele>
        <time>2020-06-03T17:09:36Z</time>
      </trkpt>
      <trkpt lat="46.69729" lon="-1.91206">
        <ele>11.2</ele>
        <time>2020-06-03T17:09:37Z</time>
      </trkpt>
      <trkpt lat="46.6973" lon="-1.91202">
        <ele>11.3</ele>
        <time>2020-06-03T17:09:38Z</time>
      </trkpt>
      <trkpt lat="46.69732" lon="-1.91196">
        <ele>11.6</ele>
        <time>2020-06-03T17:09:39Z</time>
      </trkpt>
      <trkpt lat="46.69733" lon="-1.91192">
        <ele>11.7</ele>
        <time>2020-06-03T17:09:40Z</time>
      </trkpt>
      <trkpt lat="46.69734" lon="-1.91186">
        <ele>11.8</ele>
        <time>2020-06-03T17:09:41Z</time>
      </trkpt>
      <trkpt lat="46.69736" lon="-1.91181">
        <ele>11.9</ele>
        <time>2020-06-03T17:09:42Z</time>
      </trkpt>
      <trkpt lat="46.69737" lon="-1.91179">
        <ele>12</ele>
        <time>2020-06-03T17:09:43Z</time>
      </trkpt>
      <trkpt lat="46.69739" lon="-1.91176">
        <ele>12.1</ele>
        <time>2020-06-03T17:09:44Z</time>
      </trkpt>
      <trkpt lat="46.69742" lon="-1.91173">
        <ele>12.3</ele>
        <time>2020-06-03T17:09:45Z</time>
      </trkpt>
      <trkpt lat="46.69745" lon="-1.91169">
        <ele>12.4</ele>
        <time>2020-06-03T17:09:46Z</time>
      </trkpt>
      <trkpt lat="46.69749" lon="-1.91167">
        <ele>12.6</ele>
        <time>2020-06-03T17:09:47Z</time>
      </trkpt>
      <trkpt lat="46.69752" lon="-1.91164">
        <ele>12.8</ele>
        <time>2020-06-03T17:09:48Z</time>
      </trkpt>
      <trkpt lat="46.69756" lon="-1.91161">
        <ele>12.9</ele>
        <time>2020-06-03T17:09:49Z</time>
      </trkpt>
      <trkpt lat="46.69759" lon="-1.91158">
        <ele>13.1</ele>
        <time>2020-06-03T17:09:50Z</time>
      </trkpt>
      <trkpt lat="46.69763" lon="-1.91155">
        <ele>13.2</ele>
        <time>2020-06-03T17:09:51Z</time>
      </trkpt>
      <trkpt lat="46.69766" lon="-1.91152">
        <ele>13.3</ele>
        <time>2020-06-03T17:09:52Z</time>
      </trkpt>
      <trkpt lat="46.6977" lon="-1.91149">
        <ele>13.5</ele>
        <time>2020-06-03T17:09:53Z</time>
      </trkpt>
      <trkpt lat="46.69774" lon="-1.91146">
        <ele>13.6</ele>
        <time>2020-06-03T17:09:54Z</time>
      </trkpt>
      <trkpt lat="46.69777" lon="-1.91143">
        <ele>13.7</ele>
        <time>2020-06-03T17:09:55Z</time>
      </trkpt>
      <trkpt lat="46.69781" lon="-1.9114">
        <ele>13.8</ele>
        <time>2020-06-03T17:09:56Z</time>
      </trkpt>
      <trkpt lat="46.69785" lon="-1.91137">
        <ele>13.9</ele>
        <time>2020-06-03T17:09:57Z</time>
      </trkpt>
      <trkpt lat="46.69789" lon="-1.91134">
        <ele>14</ele>
        <time>2020-06-03T17:09:58Z</time>
      </trkpt>
      <trkpt lat="46.69792" lon="-1.9113">
        <ele>14.1</ele>
        <time>2020-06-03T17:09:59Z</time>
      </trkpt>
      <trkpt lat="46.69796" lon="-1.91127">
        <ele>14.1</ele>
        <time>2020-06-03T17:10:00Z</time>
      </trkpt>
      <trkpt lat="46.69801" lon="-1.91124">
        <ele>14.2</ele>
        <time>2020-06-03T17:10:01Z</time>
      </trkpt>
      <trkpt lat="46.69805" lon="-1.91118">
        <ele>14.3</ele>
        <time>2020-06-03T17:10:02Z</time>
      </trkpt>
      <trkpt lat="46.6981" lon="-1.91114">
        <ele>14.4</ele>
        <time>2020-06-03T17:10:03Z</time>
      </trkpt>
      <trkpt lat="46.69814" lon="-1.9111">
        <ele>14.4</ele>
        <time>2020-06-03T17:10:04Z</time>
      </trkpt>
      <trkpt lat="46.69819" lon="-1.91105">
        <ele>14.5</ele>
        <time>2020-06-03T17:10:05Z</time>
      </trkpt>
      <trkpt lat="46.69822" lon="-1.91101">
        <ele>14.5</ele>
        <time>2020-06-03T17:10:06Z</time>
      </trkpt>
      <trkpt lat="46.69826" lon="-1.91097">
        <ele>14.6</ele>
        <time>2020-06-03T17:10:07Z</time>
      </trkpt>
      <trkpt lat="46.6983" lon="-1.91092">
        <ele>14.6</ele>
        <time>2020-06-03T17:10:08Z</time>
      </trkpt>
      <trkpt lat="46.69832" lon="-1.91089">
        <ele>14.7</ele>
        <time>2020-06-03T17:10:09Z</time>
      </trkpt>
      <trkpt lat="46.69835" lon="-1.91083">
        <ele>14.7</ele>
        <time>2020-06-03T17:10:10Z</time>
      </trkpt>
      <trkpt lat="46.6984" lon="-1.91075">
        <ele>14.8</ele>
        <time>2020-06-03T17:10:11Z</time>
      </trkpt>
      <trkpt lat="46.69843" lon="-1.91069">
        <ele>14.8</ele>
        <time>2020-06-03T17:10:12Z</time>
      </trkpt>
      <trkpt lat="46.69845" lon="-1.91063">
        <ele>14.9</ele>
        <time>2020-06-03T17:10:13Z</time>
      </trkpt>
      <trkpt lat="46.69848" lon="-1.91056">
        <ele>15</ele>
        <time>2020-06-03T17:10:14Z</time>
      </trkpt>
      <trkpt lat="46.69851" lon="-1.91049">
        <ele>15.1</ele>
        <time>2020-06-03T17:10:15Z</time>
      </trkpt>
      <trkpt lat="46.69854" lon="-1.91043">
        <ele>15.2</ele>
        <time>2020-06-03T17:10:16Z</time>
      </trkpt>
      <trkpt lat="46.69857" lon="-1.91038">
        <ele>15.3</ele>
        <time>2020-06-03T17:10:17Z</time>
      </trkpt>
      <trkpt lat="46.6986" lon="-1.91032">
        <ele>15.3</ele>
        <time>2020-06-03T17:10:18Z</time>
      </trkpt>
      <trkpt lat="46.69864" lon="-1.91026">
        <ele>15.4</ele>
        <time>2020-06-03T17:10:19Z</time>
      </trkpt>
      <trkpt lat="46.69868" lon="-1.9102">
        <ele>15.5</ele>
        <time>2020-06-03T17:10:20Z</time>
      </trkpt>
      <trkpt lat="46.69872" lon="-1.91013">
        <ele>15.6</ele>
        <time>2020-06-03T17:10:21Z</time>
      </trkpt>
      <trkpt lat="46.69876" lon="-1.91006">
        <ele>15.8</ele>
        <time>2020-06-03T17:10:22Z</time>
      </trkpt>
      <trkpt lat="46.6988" lon="-1.91">
        <ele>15.9</ele>
        <time>2020-06-03T17:10:23Z</time>
      </trkpt>
      <trkpt lat="46.69884" lon="-1.90993">
        <ele>16</ele>
        <time>2020-06-03T17:10:24Z</time>
      </trkpt>
      <trkpt lat="46.69888" lon="-1.90986">
        <ele>16.1</ele>
        <time>2020-06-03T17:10:25Z</time>
      </trkpt>
      <trkpt lat="46.69892" lon="-1.90979">
        <ele>16.2</ele>
        <time>2020-06-03T17:10:26Z</time>
      </trkpt>
      <trkpt lat="46.69896" lon="-1.90973">
        <ele>16.3</ele>
        <time>2020-06-03T17:10:27Z</time>
      </trkpt>
      <trkpt lat="46.699" lon="-1.90967">
        <ele>16.4</ele>
        <time>2020-06-03T17:10:28Z</time>
      </trkpt>
      <trkpt lat="46.69905" lon="-1.90961">
        <ele>16.4</ele>
        <time>2020-06-03T17:10:29Z</time>
      </trkpt>
      <trkpt lat="46.69909" lon="-1.90954">
        <ele>16.4</ele>
        <time>2020-06-03T17:10:30Z</time>
      </trkpt>
      <trkpt lat="46.69913" lon="-1.90948">
        <ele>16.5</ele>
        <time>2020-06-03T17:10:31Z</time>
      </trkpt>
      <trkpt lat="46.69917" lon="-1.9094">
        <ele>16.5</ele>
        <time>2020-06-03T17:10:32Z</time>
      </trkpt>
      <trkpt lat="46.6992" lon="-1.90934">
        <ele>16.5</ele>
        <time>2020-06-03T17:10:33Z</time>
      </trkpt>
      <trkpt lat="46.69923" lon="-1.90928">
        <ele>16.5</ele>
        <time>2020-06-03T17:10:34Z</time>
      </trkpt>
      <trkpt lat="46.69926" lon="-1.90921">
        <ele>16.5</ele>
        <time>2020-06-03T17:10:35Z</time>
      </trkpt>
      <trkpt lat="46.69928" lon="-1.90914">
        <ele>16.6</ele>
        <time>2020-06-03T17:10:36Z</time>
      </trkpt>
      <trkpt lat="46.69931" lon="-1.90908">
        <ele>16.6</ele>
        <time>2020-06-03T17:10:37Z</time>
      </trkpt>
      <trkpt lat="46.69933" lon="-1.90902">
        <ele>16.6</ele>
        <time>2020-06-03T17:10:38Z</time>
      </trkpt>
      <trkpt lat="46.69936" lon="-1.90895">
        <ele>16.7</ele>
        <time>2020-06-03T17:10:39Z</time>
      </trkpt>
      <trkpt lat="46.69938" lon="-1.90888">
        <ele>16.7</ele>
        <time>2020-06-03T17:10:40Z</time>
      </trkpt>
      <trkpt lat="46.69941" lon="-1.90881">
        <ele>16.7</ele>
        <time>2020-06-03T17:10:41Z</time>
      </trkpt>
      <trkpt lat="46.69944" lon="-1.90874">
        <ele>16.8</ele>
        <time>2020-06-03T17:10:42Z</time>
      </trkpt>
      <trkpt lat="46.69946" lon="-1.90866">
        <ele>16.8</ele>
        <time>2020-06-03T17:10:43Z</time>
      </trkpt>
      <trkpt lat="46.69947" lon="-1.90859">
        <ele>16.9</ele>
        <time>2020-06-03T17:10:44Z</time>
      </trkpt>
      <trkpt lat="46.69947" lon="-1.9085">
        <ele>16.9</ele>
        <time>2020-06-03T17:10:45Z</time>
      </trkpt>
      <trkpt lat="46.69947" lon="-1.90841">
        <ele>17</ele>
        <time>2020-06-03T17:10:46Z</time>
      </trkpt>
      <trkpt lat="46.69945" lon="-1.90834">
        <ele>17</ele>
        <time>2020-06-03T17:10:47Z</time>
      </trkpt>
      <trkpt lat="46.69944" lon="-1.90827">
        <ele>17</ele>
        <time>2020-06-03T17:10:48Z</time>
      </trkpt>
      <trkpt lat="46.69943" lon="-1.90819">
        <ele>17.1</ele>
        <time>2020-06-03T17:10:49Z</time>
      </trkpt>
      <trkpt lat="46.69942" lon="-1.90812">
        <ele>17.1</ele>
        <time>2020-06-03T17:10:50Z</time>
      </trkpt>
      <trkpt lat="46.69941" lon="-1.90805">
        <ele>17.2</ele>
        <time>2020-06-03T17:10:51Z</time>
      </trkpt>
      <trkpt lat="46.69941" lon="-1.90797">
        <ele>17.2</ele>
        <time>2020-06-03T17:10:52Z</time>
      </trkpt>
      <trkpt lat="46.6994" lon="-1.90789">
        <ele>17.2</ele>
        <time>2020-06-03T17:10:53Z</time>
      </trkpt>
      <trkpt lat="46.69941" lon="-1.90781">
        <ele>17.2</ele>
        <time>2020-06-03T17:10:54Z</time>
      </trkpt>
      <trkpt lat="46.69942" lon="-1.90773">
        <ele>17.2</ele>
        <time>2020-06-03T17:10:55Z</time>
      </trkpt>
      <trkpt lat="46.69943" lon="-1.90765">
        <ele>17.2</ele>
        <time>2020-06-03T17:10:56Z</time>
      </trkpt>
      <trkpt lat="46.69944" lon="-1.90756">
        <ele>17.2</ele>
        <time>2020-06-03T17:10:57Z</time>
      </trkpt>
      <trkpt lat="46.69944" lon="-1.90747">
        <ele>17.2</ele>
        <time>2020-06-03T17:10:58Z</time>
      </trkpt>
      <trkpt lat="46.69946" lon="-1.90738">
        <ele>17.1</ele>
        <time>2020-06-03T17:10:59Z</time>
      </trkpt>
      <trkpt lat="46.69947" lon="-1.90729">
        <ele>17.1</ele>
        <time>2020-06-03T17:11:00Z</time>
      </trkpt>
      <trkpt lat="46.69948" lon="-1.90721">
        <ele>17</ele>
        <time>2020-06-03T17:11:01Z</time>
      </trkpt>
      <trkpt lat="46.69949" lon="-1.90713">
        <ele>16.9</ele>
        <time>2020-06-03T17:11:02Z</time>
      </trkpt>
      <trkpt lat="46.6995" lon="-1.90704">
        <ele>16.8</ele>
        <time>2020-06-03T17:11:03Z</time>
      </trkpt>
      <trkpt lat="46.69951" lon="-1.90695">
        <ele>16.6</ele>
        <time>2020-06-03T17:11:04Z</time>
      </trkpt>
      <trkpt lat="46.69953" lon="-1.90686">
        <ele>16.5</ele>
        <time>2020-06-03T17:11:05Z</time>
      </trkpt>
      <trkpt lat="46.69955" lon="-1.90677">
        <ele>16.3</ele>
        <time>2020-06-03T17:11:06Z</time>
      </trkpt>
      <trkpt lat="46.69956" lon="-1.90667">
        <ele>16.1</ele>
        <time>2020-06-03T17:11:07Z</time>
      </trkpt>
      <trkpt lat="46.69959" lon="-1.90657">
        <ele>16</ele>
        <time>2020-06-03T17:11:08Z</time>
      </trkpt>
      <trkpt lat="46.69962" lon="-1.90647">
        <ele>15.9</ele>
        <time>2020-06-03T17:11:09Z</time>
      </trkpt>
      <trkpt lat="46.69965" lon="-1.90637">
        <ele>15.9</ele>
        <time>2020-06-03T17:11:10Z</time>
      </trkpt>
      <trkpt lat="46.6997" lon="-1.90628">
        <ele>15.8</ele>
        <time>2020-06-03T17:11:11Z</time>
      </trkpt>
      <trkpt lat="46.69974" lon="-1.90619">
        <ele>15.7</ele>
        <time>2020-06-03T17:11:12Z</time>
      </trkpt>
      <trkpt lat="46.6998" lon="-1.9061">
        <ele>15.5</ele>
        <time>2020-06-03T17:11:13Z</time>
      </trkpt>
      <trkpt lat="46.69984" lon="-1.90604">
        <ele>15.4</ele>
        <time>2020-06-03T17:11:14Z</time>
      </trkpt>
      <trkpt lat="46.69989" lon="-1.90599">
        <ele>15.2</ele>
        <time>2020-06-03T17:11:15Z</time>
      </trkpt>
      <trkpt lat="46.69995" lon="-1.90594">
        <ele>15</ele>
        <time>2020-06-03T17:11:16Z</time>
      </trkpt>
      <trkpt lat="46.7" lon="-1.90588">
        <ele>14.8</ele>
        <time>2020-06-03T17:11:17Z</time>
      </trkpt>
      <trkpt lat="46.70008" lon="-1.90584">
        <ele>14.5</ele>
        <time>2020-06-03T17:11:18Z</time>
      </trkpt>
      <trkpt lat="46.70016" lon="-1.90579">
        <ele>14.1</ele>
        <time>2020-06-03T17:11:19Z</time>
      </trkpt>
      <trkpt lat="46.70026" lon="-1.90576">
        <ele>13.7</ele>
        <time>2020-06-03T17:11:20Z</time>
      </trkpt>
      <trkpt lat="46.70036" lon="-1.90573">
        <ele>13.5</ele>
        <time>2020-06-03T17:11:21Z</time>
      </trkpt>
      <trkpt lat="46.70048" lon="-1.90572">
        <ele>13.2</ele>
        <time>2020-06-03T17:11:22Z</time>
      </trkpt>
      <trkpt lat="46.70058" lon="-1.90571">
        <ele>13</ele>
        <time>2020-06-03T17:11:23Z</time>
      </trkpt>
      <trkpt lat="46.70067" lon="-1.9057">
        <ele>13</ele>
        <time>2020-06-03T17:11:24Z</time>
      </trkpt>
      <trkpt lat="46.70077" lon="-1.90566">
        <ele>13.2</ele>
        <time>2020-06-03T17:11:25Z</time>
      </trkpt>
      <trkpt lat="46.70087" lon="-1.90562">
        <ele>13.3</ele>
        <time>2020-06-03T17:11:26Z</time>
      </trkpt>
      <trkpt lat="46.70099" lon="-1.90556">
        <ele>13.4</ele>
        <time>2020-06-03T17:11:27Z</time>
      </trkpt>
      <trkpt lat="46.70111" lon="-1.90548">
        <ele>13.7</ele>
        <time>2020-06-03T17:11:28Z</time>
      </trkpt>
      <trkpt lat="46.70118" lon="-1.90541">
        <ele>14</ele>
        <time>2020-06-03T17:11:29Z</time>
      </trkpt>
      <trkpt lat="46.70126" lon="-1.90535">
        <ele>14.3</ele>
        <time>2020-06-03T17:11:30Z</time>
      </trkpt>
      <trkpt lat="46.70132" lon="-1.90529">
        <ele>14.6</ele>
        <time>2020-06-03T17:11:31Z</time>
      </trkpt>
      <trkpt lat="46.70138" lon="-1.90525">
        <ele>14.9</ele>
        <time>2020-06-03T17:11:32Z</time>
      </trkpt>
      <trkpt lat="46.70145" lon="-1.9052">
        <ele>15.1</ele>
        <time>2020-06-03T17:11:33Z</time>
      </trkpt>
      <trkpt lat="46.70151" lon="-1.90515">
        <ele>15.4</ele>
        <time>2020-06-03T17:11:34Z</time>
      </trkpt>
      <trkpt lat="46.70157" lon="-1.9051">
        <ele>15.9</ele>
        <time>2020-06-03T17:11:35Z</time>
      </trkpt>
      <trkpt lat="46.70163" lon="-1.90506">
        <ele>16</ele>
        <time>2020-06-03T17:11:36Z</time>
      </trkpt>
      <trkpt lat="46.7017" lon="-1.90501">
        <ele>16.2</ele>
        <time>2020-06-03T17:11:37Z</time>
      </trkpt>
      <trkpt lat="46.70175" lon="-1.90497">
        <ele>16.4</ele>
        <time>2020-06-03T17:11:38Z</time>
      </trkpt>
      <trkpt lat="46.70181" lon="-1.90492">
        <ele>16.6</ele>
        <time>2020-06-03T17:11:39Z</time>
      </trkpt>
      <trkpt lat="46.70187" lon="-1.90487">
        <ele>16.8</ele>
        <time>2020-06-03T17:11:40Z</time>
      </trkpt>
      <trkpt lat="46.70192" lon="-1.90482">
        <ele>17</ele>
        <time>2020-06-03T17:11:41Z</time>
      </trkpt>
      <trkpt lat="46.70197" lon="-1.90477">
        <ele>17.2</ele>
        <time>2020-06-03T17:11:42Z</time>
      </trkpt>
      <trkpt lat="46.70201" lon="-1.90473">
        <ele>17.4</ele>
        <time>2020-06-03T17:11:43Z</time>
      </trkpt>
      <trkpt lat="46.70206" lon="-1.90469">
        <ele>17.5</ele>
        <time>2020-06-03T17:11:44Z</time>
      </trkpt>
      <trkpt lat="46.7021" lon="-1.90465">
        <ele>17.7</ele>
        <time>2020-06-03T17:11:45Z</time>
      </trkpt>
      <trkpt lat="46.70213" lon="-1.90461">
        <ele>17.8</ele>
        <time>2020-06-03T17:11:46Z</time>
      </trkpt>
      <trkpt lat="46.70218" lon="-1.90457">
        <ele>17.9</ele>
        <time>2020-06-03T17:11:47Z</time>
      </trkpt>
      <trkpt lat="46.70221" lon="-1.90453">
        <ele>18</ele>
        <time>2020-06-03T17:11:48Z</time>
      </trkpt>
      <trkpt lat="46.70224" lon="-1.9045">
        <ele>18.1</ele>
        <time>2020-06-03T17:11:49Z</time>
      </trkpt>
      <trkpt lat="46.70227" lon="-1.90447">
        <ele>18.2</ele>
        <time>2020-06-03T17:11:50Z</time>
      </trkpt>
      <trkpt lat="46.7023" lon="-1.90444">
        <ele>18.3</ele>
        <time>2020-06-03T17:11:51Z</time>
      </trkpt>
      <trkpt lat="46.70233" lon="-1.9044">
        <ele>18.3</ele>
        <time>2020-06-03T17:11:52Z</time>
      </trkpt>
      <trkpt lat="46.70236" lon="-1.90436">
        <ele>18.4</ele>
        <time>2020-06-03T17:11:53Z</time>
      </trkpt>
      <trkpt lat="46.70238" lon="-1.90433">
        <ele>18.5</ele>
        <time>2020-06-03T17:11:54Z</time>
      </trkpt>
      <trkpt lat="46.70241" lon="-1.90429">
        <ele>18.5</ele>
        <time>2020-06-03T17:11:55Z</time>
      </trkpt>
      <trkpt lat="46.70244" lon="-1.90424">
        <ele>18.6</ele>
        <time>2020-06-03T17:11:56Z</time>
      </trkpt>
      <trkpt lat="46.70247" lon="-1.90421">
        <ele>18.7</ele>
        <time>2020-06-03T17:11:57Z</time>
      </trkpt>
      <trkpt lat="46.7025" lon="-1.90416">
        <ele>18.7</ele>
        <time>2020-06-03T17:11:58Z</time>
      </trkpt>
      <trkpt lat="46.70252" lon="-1.90412">
        <ele>18.8</ele>
        <time>2020-06-03T17:11:59Z</time>
      </trkpt>
      <trkpt lat="46.70255" lon="-1.9041">
        <ele>18.8</ele>
        <time>2020-06-03T17:12:00Z</time>
      </trkpt>
      <trkpt lat="46.70257" lon="-1.90406">
        <ele>18.8</ele>
        <time>2020-06-03T17:12:01Z</time>
      </trkpt>
      <trkpt lat="46.70259" lon="-1.90402">
        <ele>18.8</ele>
        <time>2020-06-03T17:12:02Z</time>
      </trkpt>
      <trkpt lat="46.70262" lon="-1.90398">
        <ele>18.8</ele>
        <time>2020-06-03T17:12:03Z</time>
      </trkpt>
      <trkpt lat="46.70264" lon="-1.90394">
        <ele>18.9</ele>
        <time>2020-06-03T17:12:04Z</time>
      </trkpt>
      <trkpt lat="46.70267" lon="-1.9039">
        <ele>18.9</ele>
        <time>2020-06-03T17:12:05Z</time>
      </trkpt>
      <trkpt lat="46.7027" lon="-1.90386">
        <ele>18.9</ele>
        <time>2020-06-03T17:12:06Z</time>
      </trkpt>
      <trkpt lat="46.70273" lon="-1.90381">
        <ele>18.9</ele>
        <time>2020-06-03T17:12:07Z</time>
      </trkpt>
      <trkpt lat="46.70275" lon="-1.90377">
        <ele>18.9</ele>
        <time>2020-06-03T17:12:08Z</time>
      </trkpt>
      <trkpt lat="46.70278" lon="-1.90372">
        <ele>18.9</ele>
        <time>2020-06-03T17:12:09Z</time>
      </trkpt>
      <trkpt lat="46.70281" lon="-1.90367">
        <ele>19</ele>
        <time>2020-06-03T17:12:10Z</time>
      </trkpt>
      <trkpt lat="46.70284" lon="-1.90362">
        <ele>19</ele>
        <time>2020-06-03T17:12:11Z</time>
      </trkpt>
      <trkpt lat="46.70287" lon="-1.90358">
        <ele>19</ele>
        <time>2020-06-03T17:12:12Z</time>
      </trkpt>
      <trkpt lat="46.7029" lon="-1.90354">
        <ele>19.1</ele>
        <time>2020-06-03T17:12:13Z</time>
      </trkpt>
      <trkpt lat="46.70293" lon="-1.9035">
        <ele>19.1</ele>
        <time>2020-06-03T17:12:14Z</time>
      </trkpt>
      <trkpt lat="46.70297" lon="-1.90346">
        <ele>19.2</ele>
        <time>2020-06-03T17:12:15Z</time>
      </trkpt>
      <trkpt lat="46.703" lon="-1.90342">
        <ele>19.2</ele>
        <time>2020-06-03T17:12:16Z</time>
      </trkpt>
      <trkpt lat="46.70303" lon="-1.90338">
        <ele>19.3</ele>
        <time>2020-06-03T17:12:17Z</time>
      </trkpt>
      <trkpt lat="46.70307" lon="-1.90334">
        <ele>19.3</ele>
        <time>2020-06-03T17:12:18Z</time>
      </trkpt>
      <trkpt lat="46.7031" lon="-1.9033">
        <ele>19.3</ele>
        <time>2020-06-03T17:12:19Z</time>
      </trkpt>
      <trkpt lat="46.70313" lon="-1.90327">
        <ele>19.3</ele>
        <time>2020-06-03T17:12:20Z</time>
      </trkpt>
      <trkpt lat="46.70316" lon="-1.90324">
        <ele>19.3</ele>
        <time>2020-06-03T17:12:21Z</time>
      </trkpt>
      <trkpt lat="46.7032" lon="-1.90322">
        <ele>19.3</ele>
        <time>2020-06-03T17:12:22Z</time>
      </trkpt>
      <trkpt lat="46.70323" lon="-1.90319">
        <ele>19.3</ele>
        <time>2020-06-03T17:12:23Z</time>
      </trkpt>
      <trkpt lat="46.70326" lon="-1.90317">
        <ele>19.3</ele>
        <time>2020-06-03T17:12:24Z</time>
      </trkpt>
      <trkpt lat="46.70329" lon="-1.90313">
        <ele>19.3</ele>
        <time>2020-06-03T17:12:25Z</time>
      </trkpt>
      <trkpt lat="46.70332" lon="-1.9031">
        <ele>19.3</ele>
        <time>2020-06-03T17:12:26Z</time>
      </trkpt>
      <trkpt lat="46.70335" lon="-1.90306">
        <ele>19.2</ele>
        <time>2020-06-03T17:12:27Z</time>
      </trkpt>
      <trkpt lat="46.70336" lon="-1.90303">
        <ele>19.2</ele>
        <time>2020-06-03T17:12:28Z</time>
      </trkpt>
      <trkpt lat="46.70339" lon="-1.90298">
        <ele>19.3</ele>
        <time>2020-06-03T17:12:29Z</time>
      </trkpt>
      <trkpt lat="46.7034" lon="-1.90295">
        <ele>19.3</ele>
        <time>2020-06-03T17:12:30Z</time>
      </trkpt>
      <trkpt lat="46.70342" lon="-1.90291">
        <ele>19.3</ele>
        <time>2020-06-03T17:12:31Z</time>
      </trkpt>
      <trkpt lat="46.70345" lon="-1.90287">
        <ele>19.3</ele>
        <time>2020-06-03T17:12:32Z</time>
      </trkpt>
      <trkpt lat="46.70349" lon="-1.90284">
        <ele>19.4</ele>
        <time>2020-06-03T17:12:33Z</time>
      </trkpt>
      <trkpt lat="46.70353" lon="-1.90281">
        <ele>19.4</ele>
        <time>2020-06-03T17:12:34Z</time>
      </trkpt>
      <trkpt lat="46.70356" lon="-1.90277">
        <ele>19.4</ele>
        <time>2020-06-03T17:12:35Z</time>
      </trkpt>
      <trkpt lat="46.70358" lon="-1.90274">
        <ele>19.5</ele>
        <time>2020-06-03T17:12:36Z</time>
      </trkpt>
      <trkpt lat="46.70361" lon="-1.90271">
        <ele>19.5</ele>
        <time>2020-06-03T17:12:37Z</time>
      </trkpt>
      <trkpt lat="46.70364" lon="-1.90267">
        <ele>19.5</ele>
        <time>2020-06-03T17:12:38Z</time>
      </trkpt>
      <trkpt lat="46.70367" lon="-1.90264">
        <ele>19.6</ele>
        <time>2020-06-03T17:12:39Z</time>
      </trkpt>
      <trkpt lat="46.7037" lon="-1.90261">
        <ele>19.6</ele>
        <time>2020-06-03T17:12:40Z</time>
      </trkpt>
      <trkpt lat="46.70372" lon="-1.90259">
        <ele>19.6</ele>
        <time>2020-06-03T17:12:41Z</time>
      </trkpt>
      <trkpt lat="46.70375" lon="-1.90255">
        <ele>19.6</ele>
        <time>2020-06-03T17:12:42Z</time>
      </trkpt>
      <trkpt lat="46.70377" lon="-1.90252">
        <ele>19.6</ele>
        <time>2020-06-03T17:12:43Z</time>
      </trkpt>
      <trkpt lat="46.70379" lon="-1.90249">
        <ele>19.7</ele>
        <time>2020-06-03T17:12:44Z</time>
      </trkpt>
      <trkpt lat="46.7038" lon="-1.90246">
        <ele>19.7</ele>
        <time>2020-06-03T17:12:45Z</time>
      </trkpt>
      <trkpt lat="46.70382" lon="-1.90241">
        <ele>19.7</ele>
        <time>2020-06-03T17:12:46Z</time>
      </trkpt>
      <trkpt lat="46.70383" lon="-1.9024">
        <ele>19.7</ele>
        <time>2020-06-03T17:12:47Z</time>
      </trkpt>
      <trkpt lat="46.70384" lon="-1.90236">
        <ele>19.7</ele>
        <time>2020-06-03T17:12:48Z</time>
      </trkpt>
      <trkpt lat="46.70384" lon="-1.90235">
        <ele>19.7</ele>
        <time>2020-06-03T17:12:49Z</time>
      </trkpt>
      <trkpt lat="46.70385" lon="-1.90233">
        <ele>19.7</ele>
        <time>2020-06-03T17:12:50Z</time>
      </trkpt>
      <trkpt lat="46.70385" lon="-1.90231">
        <ele>19.8</ele>
        <time>2020-06-03T17:12:51Z</time>
      </trkpt>
      <trkpt lat="46.70386" lon="-1.90225">
        <ele>19.8</ele>
        <time>2020-06-03T17:12:52Z</time>
      </trkpt>
      <trkpt lat="46.70386" lon="-1.90223">
        <ele>19.8</ele>
        <time>2020-06-03T17:12:53Z</time>
      </trkpt>
      <trkpt lat="46.70388" lon="-1.90218">
        <ele>19.8</ele>
        <time>2020-06-03T17:12:54Z</time>
      </trkpt>
      <trkpt lat="46.7039" lon="-1.90215">
        <ele>19.8</ele>
        <time>2020-06-03T17:12:55Z</time>
      </trkpt>
      <trkpt lat="46.70391" lon="-1.90211">
        <ele>19.8</ele>
        <time>2020-06-03T17:12:56Z</time>
      </trkpt>
      <trkpt lat="46.70392" lon="-1.9021">
        <ele>19.8</ele>
        <time>2020-06-03T17:12:57Z</time>
      </trkpt>
      <trkpt lat="46.70393" lon="-1.9021">
        <ele>19.8</ele>
        <time>2020-06-03T17:12:58Z</time>
      </trkpt>
      <trkpt lat="46.70394" lon="-1.90211">
        <ele>19.8</ele>
        <time>2020-06-03T17:12:59Z</time>
      </trkpt>
      <trkpt lat="46.70394" lon="-1.90211">
        <ele>19.8</ele>
        <time>2020-06-03T17:13:00Z</time>
      </trkpt>
      <trkpt lat="46.70394" lon="-1.90213">
        <ele>19.8</ele>
        <time>2020-06-03T17:13:01Z</time>
      </trkpt>
      <trkpt lat="46.70393" lon="-1.90215">
        <ele>19.8</ele>
        <time>2020-06-03T17:13:02Z</time>
      </trkpt>
      <trkpt lat="46.70392" lon="-1.9022">
        <ele>19.8</ele>
        <time>2020-06-03T17:13:03Z</time>
      </trkpt>
      <trkpt lat="46.70392" lon="-1.90221">
        <ele>19.8</ele>
        <time>2020-06-03T17:13:04Z</time>
      </trkpt>
      <trkpt lat="46.70391" lon="-1.90226">
        <ele>19.7</ele>
        <time>2020-06-03T17:13:05Z</time>
      </trkpt>
      <trkpt lat="46.7039" lon="-1.90227">
        <ele>19.7</ele>
        <time>2020-06-03T17:13:06Z</time>
      </trkpt>
      <trkpt lat="46.7039" lon="-1.90232">
        <ele>19.7</ele>
        <time>2020-06-03T17:13:07Z</time>
      </trkpt>
      <trkpt lat="46.70389" lon="-1.90234">
        <ele>19.7</ele>
        <time>2020-06-03T17:13:08Z</time>
      </trkpt>
      <trkpt lat="46.70389" lon="-1.90238">
        <ele>19.7</ele>
        <time>2020-06-03T17:13:09Z</time>
      </trkpt>
      <trkpt lat="46.70388" lon="-1.90242">
        <ele>19.6</ele>
        <time>2020-06-03T17:13:10Z</time>
      </trkpt>
      <trkpt lat="46.70387" lon="-1.90247">
        <ele>19.6</ele>
        <time>2020-06-03T17:13:11Z</time>
      </trkpt>
      <trkpt lat="46.70385" lon="-1.90251">
        <ele>19.6</ele>
        <time>2020-06-03T17:13:12Z</time>
      </trkpt>
      <trkpt lat="46.70384" lon="-1.90256">
        <ele>19.5</ele>
        <time>2020-06-03T17:13:13Z</time>
      </trkpt>
      <trkpt lat="46.70383" lon="-1.9026">
        <ele>19.4</ele>
        <time>2020-06-03T17:13:14Z</time>
      </trkpt>
      <trkpt lat="46.70382" lon="-1.90265">
        <ele>19.3</ele>
        <time>2020-06-03T17:13:15Z</time>
      </trkpt>
      <trkpt lat="46.7038" lon="-1.9027">
        <ele>19.3</ele>
        <time>2020-06-03T17:13:16Z</time>
      </trkpt>
      <trkpt lat="46.70379" lon="-1.90275">
        <ele>19.2</ele>
        <time>2020-06-03T17:13:17Z</time>
      </trkpt>
      <trkpt lat="46.70377" lon="-1.9028">
        <ele>19.1</ele>
        <time>2020-06-03T17:13:18Z</time>
      </trkpt>
      <trkpt lat="46.70376" lon="-1.90285">
        <ele>19</ele>
        <time>2020-06-03T17:13:19Z</time>
      </trkpt>
      <trkpt lat="46.70375" lon="-1.9029">
        <ele>18.9</ele>
        <time>2020-06-03T17:13:20Z</time>
      </trkpt>
      <trkpt lat="46.70374" lon="-1.90295">
        <ele>18.9</ele>
        <time>2020-06-03T17:13:21Z</time>
      </trkpt>
      <trkpt lat="46.70373" lon="-1.90299">
        <ele>18.8</ele>
        <time>2020-06-03T17:13:22Z</time>
      </trkpt>
      <trkpt lat="46.70372" lon="-1.90304">
        <ele>18.8</ele>
        <time>2020-06-03T17:13:23Z</time>
      </trkpt>
      <trkpt lat="46.70371" lon="-1.90308">
        <ele>18.8</ele>
        <time>2020-06-03T17:13:24Z</time>
      </trkpt>
      <trkpt lat="46.7037" lon="-1.90313">
        <ele>18.7</ele>
        <time>2020-06-03T17:13:25Z</time>
      </trkpt>
      <trkpt lat="46.7037" lon="-1.90315">
        <ele>18.7</ele>
        <time>2020-06-03T17:13:26Z</time>
      </trkpt>
      <trkpt lat="46.70371" lon="-1.90317">
        <ele>18.7</ele>
        <time>2020-06-03T17:13:27Z</time>
      </trkpt>
      <trkpt lat="46.70372" lon="-1.90319">
        <ele>18.7</ele>
        <time>2020-06-03T17:13:28Z</time>
      </trkpt>
      <trkpt lat="46.70373" lon="-1.90321">
        <ele>18.7</ele>
        <time>2020-06-03T17:13:29Z</time>
      </trkpt>
      <trkpt lat="46.70374" lon="-1.90322">
        <ele>18.7</ele>
        <time>2020-06-03T17:13:30Z</time>
      </trkpt>
      <trkpt lat="46.70375" lon="-1.90323">
        <ele>18.7</ele>
        <time>2020-06-03T17:13:31Z</time>
      </trkpt>
      <trkpt lat="46.70376" lon="-1.90328">
        <ele>18.7</ele>
        <time>2020-06-03T17:13:32Z</time>
      </trkpt>
      <trkpt lat="46.70377" lon="-1.9033">
        <ele>18.7</ele>
        <time>2020-06-03T17:13:33Z</time>
      </trkpt>
      <trkpt lat="46.70379" lon="-1.90334">
        <ele>18.6</ele>
        <time>2020-06-03T17:13:34Z</time>
      </trkpt>
      <trkpt lat="46.70382" lon="-1.90337">
        <ele>18.6</ele>
        <time>2020-06-03T17:13:35Z</time>
      </trkpt>
      <trkpt lat="46.70386" lon="-1.90341">
        <ele>18.6</ele>
        <time>2020-06-03T17:13:36Z</time>
      </trkpt>
      <trkpt lat="46.70391" lon="-1.90344">
        <ele>18.6</ele>
        <time>2020-06-03T17:13:37Z</time>
      </trkpt>
      <trkpt lat="46.70395" lon="-1.90346">
        <ele>18.6</ele>
        <time>2020-06-03T17:13:38Z</time>
      </trkpt>
      <trkpt lat="46.70399" lon="-1.90349">
        <ele>18.6</ele>
        <time>2020-06-03T17:13:39Z</time>
      </trkpt>
      <trkpt lat="46.70403" lon="-1.90351">
        <ele>18.6</ele>
        <time>2020-06-03T17:13:40Z</time>
      </trkpt>
      <trkpt lat="46.70405" lon="-1.90354">
        <ele>18.6</ele>
        <time>2020-06-03T17:13:41Z</time>
      </trkpt>
      <trkpt lat="46.70408" lon="-1.90358">
        <ele>18.6</ele>
        <time>2020-06-03T17:13:42Z</time>
      </trkpt>
      <trkpt lat="46.7041" lon="-1.90364">
        <ele>18.6</ele>
        <time>2020-06-03T17:13:43Z</time>
      </trkpt>
      <trkpt lat="46.70412" lon="-1.90371">
        <ele>18.6</ele>
        <time>2020-06-03T17:13:44Z</time>
      </trkpt>
      <trkpt lat="46.70414" lon="-1.9038">
        <ele>18.5</ele>
        <time>2020-06-03T17:13:45Z</time>
      </trkpt>
      <trkpt lat="46.70414" lon="-1.90388">
        <ele>18.3</ele>
        <time>2020-06-03T17:13:46Z</time>
      </trkpt>
      <trkpt lat="46.70415" lon="-1.90395">
        <ele>18.2</ele>
        <time>2020-06-03T17:13:47Z</time>
      </trkpt>
      <trkpt lat="46.70417" lon="-1.90404">
        <ele>17.9</ele>
        <time>2020-06-03T17:13:48Z</time>
      </trkpt>
      <trkpt lat="46.70418" lon="-1.90412">
        <ele>17.6</ele>
        <time>2020-06-03T17:13:49Z</time>
      </trkpt>
      <trkpt lat="46.70418" lon="-1.90421">
        <ele>17.3</ele>
        <time>2020-06-03T17:13:50Z</time>
      </trkpt>
      <trkpt lat="46.70418" lon="-1.9043">
        <ele>17</ele>
        <time>2020-06-03T17:13:51Z</time>
      </trkpt>
      <trkpt lat="46.70418" lon="-1.9044">
        <ele>16.6</ele>
        <time>2020-06-03T17:13:52Z</time>
      </trkpt>
      <trkpt lat="46.70418" lon="-1.9045">
        <ele>16.3</ele>
        <time>2020-06-03T17:13:53Z</time>
      </trkpt>
      <trkpt lat="46.70418" lon="-1.90461">
        <ele>16</ele>
        <time>2020-06-03T17:13:54Z</time>
      </trkpt>
      <trkpt lat="46.70418" lon="-1.90471">
        <ele>15.7</ele>
        <time>2020-06-03T17:13:55Z</time>
      </trkpt>
      <trkpt lat="46.70417" lon="-1.90483">
        <ele>15.3</ele>
        <time>2020-06-03T17:13:56Z</time>
      </trkpt>
      <trkpt lat="46.70415" lon="-1.90495">
        <ele>15</ele>
        <time>2020-06-03T17:13:57Z</time>
      </trkpt>
      <trkpt lat="46.70416" lon="-1.90507">
        <ele>14.7</ele>
        <time>2020-06-03T17:13:58Z</time>
      </trkpt>
      <trkpt lat="46.70414" lon="-1.90519">
        <ele>14.4</ele>
        <time>2020-06-03T17:13:59Z</time>
      </trkpt>
      <trkpt lat="46.70414" lon="-1.9053">
        <ele>14.2</ele>
        <time>2020-06-03T17:14:00Z</time>
      </trkpt>
      <trkpt lat="46.70413" lon="-1.90541">
        <ele>14.1</ele>
        <time>2020-06-03T17:14:01Z</time>
      </trkpt>
      <trkpt lat="46.70412" lon="-1.90553">
        <ele>14</ele>
        <time>2020-06-03T17:14:02Z</time>
      </trkpt>
      <trkpt lat="46.70412" lon="-1.90565">
        <ele>14</ele>
        <time>2020-06-03T17:14:03Z</time>
      </trkpt>
      <trkpt lat="46.70412" lon="-1.90576">
        <ele>14</ele>
        <time>2020-06-03T17:14:04Z</time>
      </trkpt>
      <trkpt lat="46.70413" lon="-1.90587">
        <ele>14</ele>
        <time>2020-06-03T17:14:05Z</time>
      </trkpt>
      <trkpt lat="46.70413" lon="-1.90597">
        <ele>14</ele>
        <time>2020-06-03T17:14:06Z</time>
      </trkpt>
      <trkpt lat="46.70413" lon="-1.90606">
        <ele>14.2</ele>
        <time>2020-06-03T17:14:07Z</time>
      </trkpt>
      <trkpt lat="46.70414" lon="-1.90616">
        <ele>14.5</ele>
        <time>2020-06-03T17:14:08Z</time>
      </trkpt>
      <trkpt lat="46.70415" lon="-1.90626">
        <ele>14.7</ele>
        <time>2020-06-03T17:14:09Z</time>
      </trkpt>
      <trkpt lat="46.70415" lon="-1.90636">
        <ele>15</ele>
        <time>2020-06-03T17:14:10Z</time>
      </trkpt>
      <trkpt lat="46.70417" lon="-1.90644">
        <ele>15.3</ele>
        <time>2020-06-03T17:14:11Z</time>
      </trkpt>
      <trkpt lat="46.70418" lon="-1.90652">
        <ele>15.5</ele>
        <time>2020-06-03T17:14:12Z</time>
      </trkpt>
      <trkpt lat="46.70419" lon="-1.90659">
        <ele>15.7</ele>
        <time>2020-06-03T17:14:13Z</time>
      </trkpt>
      <trkpt lat="46.7042" lon="-1.90667">
        <ele>16</ele>
        <time>2020-06-03T17:14:14Z</time>
      </trkpt>
      <trkpt lat="46.70422" lon="-1.90674">
        <ele>16.2</ele>
        <time>2020-06-03T17:14:15Z</time>
      </trkpt>
      <trkpt lat="46.70424" lon="-1.9068">
        <ele>16.4</ele>
        <time>2020-06-03T17:14:16Z</time>
      </trkpt>
      <trkpt lat="46.70427" lon="-1.90686">
        <ele>16.6</ele>
        <time>2020-06-03T17:14:17Z</time>
      </trkpt>
      <trkpt lat="46.70429" lon="-1.90692">
        <ele>16.8</ele>
        <time>2020-06-03T17:14:18Z</time>
      </trkpt>
      <trkpt lat="46.70431" lon="-1.90699">
        <ele>16.9</ele>
        <time>2020-06-03T17:14:19Z</time>
      </trkpt>
      <trkpt lat="46.70433" lon="-1.90705">
        <ele>17.1</ele>
        <time>2020-06-03T17:14:20Z</time>
      </trkpt>
      <trkpt lat="46.70435" lon="-1.90711">
        <ele>17.2</ele>
        <time>2020-06-03T17:14:21Z</time>
      </trkpt>
      <trkpt lat="46.70438" lon="-1.90718">
        <ele>17.3</ele>
        <time>2020-06-03T17:14:22Z</time>
      </trkpt>
      <trkpt lat="46.7044" lon="-1.90723">
        <ele>17.4</ele>
        <time>2020-06-03T17:14:23Z</time>
      </trkpt>
      <trkpt lat="46.70441" lon="-1.90729">
        <ele>17.5</ele>
        <time>2020-06-03T17:14:24Z</time>
      </trkpt>
      <trkpt lat="46.70443" lon="-1.90733">
        <ele>17.6</ele>
        <time>2020-06-03T17:14:25Z</time>
      </trkpt>
      <trkpt lat="46.70444" lon="-1.90738">
        <ele>17.7</ele>
        <time>2020-06-03T17:14:26Z</time>
      </trkpt>
      <trkpt lat="46.70446" lon="-1.90743">
        <ele>17.7</ele>
        <time>2020-06-03T17:14:27Z</time>
      </trkpt>
      <trkpt lat="46.70447" lon="-1.90748">
        <ele>17.8</ele>
        <time>2020-06-03T17:14:28Z</time>
      </trkpt>
      <trkpt lat="46.70449" lon="-1.90753">
        <ele>17.9</ele>
        <time>2020-06-03T17:14:29Z</time>
      </trkpt>
      <trkpt lat="46.70451" lon="-1.90758">
        <ele>17.9</ele>
        <time>2020-06-03T17:14:30Z</time>
      </trkpt>
      <trkpt lat="46.70453" lon="-1.90764">
        <ele>18</ele>
        <time>2020-06-03T17:14:31Z</time>
      </trkpt>
      <trkpt lat="46.70455" lon="-1.9077">
        <ele>18.1</ele>
        <time>2020-06-03T17:14:32Z</time>
      </trkpt>
      <trkpt lat="46.70457" lon="-1.90775">
        <ele>18.2</ele>
        <time>2020-06-03T17:14:33Z</time>
      </trkpt>
      <trkpt lat="46.70459" lon="-1.9078">
        <ele>18.3</ele>
        <time>2020-06-03T17:14:34Z</time>
      </trkpt>
      <trkpt lat="46.70462" lon="-1.90786">
        <ele>18.4</ele>
        <time>2020-06-03T17:14:35Z</time>
      </trkpt>
      <trkpt lat="46.70464" lon="-1.90792">
        <ele>18.4</ele>
        <time>2020-06-03T17:14:36Z</time>
      </trkpt>
      <trkpt lat="46.70466" lon="-1.90797">
        <ele>18.5</ele>
        <time>2020-06-03T17:14:37Z</time>
      </trkpt>
      <trkpt lat="46.70468" lon="-1.90804">
        <ele>18.6</ele>
        <time>2020-06-03T17:14:38Z</time>
      </trkpt>
      <trkpt lat="46.70471" lon="-1.9081">
        <ele>18.7</ele>
        <time>2020-06-03T17:14:39Z</time>
      </trkpt>
      <trkpt lat="46.70473" lon="-1.90816">
        <ele>18.8</ele>
        <time>2020-06-03T17:14:40Z</time>
      </trkpt>
      <trkpt lat="46.70475" lon="-1.90822">
        <ele>18.9</ele>
        <time>2020-06-03T17:14:41Z</time>
      </trkpt>
      <trkpt lat="46.70477" lon="-1.90828">
        <ele>18.9</ele>
        <time>2020-06-03T17:14:42Z</time>
      </trkpt>
      <trkpt lat="46.70479" lon="-1.90834">
        <ele>19</ele>
        <time>2020-06-03T17:14:43Z</time>
      </trkpt>
      <trkpt lat="46.70481" lon="-1.90841">
        <ele>19.1</ele>
        <time>2020-06-03T17:14:44Z</time>
      </trkpt>
      <trkpt lat="46.70483" lon="-1.90847">
        <ele>19.2</ele>
        <time>2020-06-03T17:14:45Z</time>
      </trkpt>
      <trkpt lat="46.70485" lon="-1.90854">
        <ele>19.3</ele>
        <time>2020-06-03T17:14:46Z</time>
      </trkpt>
      <trkpt lat="46.70487" lon="-1.90861">
        <ele>19.4</ele>
        <time>2020-06-03T17:14:47Z</time>
      </trkpt>
      <trkpt lat="46.70489" lon="-1.90868">
        <ele>19.5</ele>
        <time>2020-06-03T17:14:48Z</time>
      </trkpt>
      <trkpt lat="46.7049" lon="-1.90874">
        <ele>19.6</ele>
        <time>2020-06-03T17:14:49Z</time>
      </trkpt>
      <trkpt lat="46.70492" lon="-1.9088">
        <ele>19.7</ele>
        <time>2020-06-03T17:14:50Z</time>
      </trkpt>
      <trkpt lat="46.70493" lon="-1.90885">
        <ele>19.8</ele>
        <time>2020-06-03T17:14:51Z</time>
      </trkpt>
      <trkpt lat="46.70495" lon="-1.90891">
        <ele>19.9</ele>
        <time>2020-06-03T17:14:52Z</time>
      </trkpt>
      <trkpt lat="46.70496" lon="-1.90896">
        <ele>20</ele>
        <time>2020-06-03T17:14:53Z</time>
      </trkpt>
      <trkpt lat="46.70498" lon="-1.90901">
        <ele>20.1</ele>
        <time>2020-06-03T17:14:54Z</time>
      </trkpt>
      <trkpt lat="46.70499" lon="-1.90906">
        <ele>20.1</ele>
        <time>2020-06-03T17:14:55Z</time>
      </trkpt>
      <trkpt lat="46.705" lon="-1.90911">
        <ele>20.2</ele>
        <time>2020-06-03T17:14:56Z</time>
      </trkpt>
      <trkpt lat="46.70502" lon="-1.90916">
        <ele>20.3</ele>
        <time>2020-06-03T17:14:57Z</time>
      </trkpt>
      <trkpt lat="46.70503" lon="-1.90921">
        <ele>20.4</ele>
        <time>2020-06-03T17:14:58Z</time>
      </trkpt>
      <trkpt lat="46.70505" lon="-1.90925">
        <ele>20.4</ele>
        <time>2020-06-03T17:14:59Z</time>
      </trkpt>
      <trkpt lat="46.70507" lon="-1.90932">
        <ele>20.5</ele>
        <time>2020-06-03T17:15:00Z</time>
      </trkpt>
      <trkpt lat="46.70509" lon="-1.90939">
        <ele>20.6</ele>
        <time>2020-06-03T17:15:01Z</time>
      </trkpt>
      <trkpt lat="46.70511" lon="-1.90946">
        <ele>20.7</ele>
        <time>2020-06-03T17:15:02Z</time>
      </trkpt>
      <trkpt lat="46.70513" lon="-1.90952">
        <ele>20.7</ele>
        <time>2020-06-03T17:15:03Z</time>
      </trkpt>
      <trkpt lat="46.70515" lon="-1.9096">
        <ele>20.8</ele>
        <time>2020-06-03T17:15:04Z</time>
      </trkpt>
      <trkpt lat="46.70517" lon="-1.90967">
        <ele>20.9</ele>
        <time>2020-06-03T17:15:05Z</time>
      </trkpt>
      <trkpt lat="46.70518" lon="-1.90976">
        <ele>21</ele>
        <time>2020-06-03T17:15:06Z</time>
      </trkpt>
      <trkpt lat="46.7052" lon="-1.90983">
        <ele>21.1</ele>
        <time>2020-06-03T17:15:07Z</time>
      </trkpt>
      <trkpt lat="46.70521" lon="-1.90992">
        <ele>21.2</ele>
        <time>2020-06-03T17:15:08Z</time>
      </trkpt>
      <trkpt lat="46.70523" lon="-1.90999">
        <ele>21.2</ele>
        <time>2020-06-03T17:15:09Z</time>
      </trkpt>
      <trkpt lat="46.70525" lon="-1.91006">
        <ele>21.3</ele>
        <time>2020-06-03T17:15:10Z</time>
      </trkpt>
      <trkpt lat="46.70526" lon="-1.91012">
        <ele>21.4</ele>
        <time>2020-06-03T17:15:11Z</time>
      </trkpt>
      <trkpt lat="46.70527" lon="-1.91019">
        <ele>21.4</ele>
        <time>2020-06-03T17:15:12Z</time>
      </trkpt>
      <trkpt lat="46.70528" lon="-1.91025">
        <ele>21.5</ele>
        <time>2020-06-03T17:15:13Z</time>
      </trkpt>
      <trkpt lat="46.7053" lon="-1.91031">
        <ele>21.5</ele>
        <time>2020-06-03T17:15:14Z</time>
      </trkpt>
      <trkpt lat="46.70532" lon="-1.91038">
        <ele>21.6</ele>
        <time>2020-06-03T17:15:15Z</time>
      </trkpt>
      <trkpt lat="46.70533" lon="-1.91045">
        <ele>21.6</ele>
        <time>2020-06-03T17:15:16Z</time>
      </trkpt>
      <trkpt lat="46.70534" lon="-1.91052">
        <ele>21.7</ele>
        <time>2020-06-03T17:15:17Z</time>
      </trkpt>
      <trkpt lat="46.70536" lon="-1.91059">
        <ele>21.8</ele>
        <time>2020-06-03T17:15:18Z</time>
      </trkpt>
      <trkpt lat="46.70537" lon="-1.91065">
        <ele>21.8</ele>
        <time>2020-06-03T17:15:19Z</time>
      </trkpt>
      <trkpt lat="46.70539" lon="-1.91072">
        <ele>21.9</ele>
        <time>2020-06-03T17:15:20Z</time>
      </trkpt>
      <trkpt lat="46.70541" lon="-1.91079">
        <ele>21.9</ele>
        <time>2020-06-03T17:15:21Z</time>
      </trkpt>
      <trkpt lat="46.70543" lon="-1.91086">
        <ele>21.9</ele>
        <time>2020-06-03T17:15:22Z</time>
      </trkpt>
      <trkpt lat="46.70545" lon="-1.91093">
        <ele>21.9</ele>
        <time>2020-06-03T17:15:23Z</time>
      </trkpt>
      <trkpt lat="46.70547" lon="-1.91099">
        <ele>22</ele>
        <time>2020-06-03T17:15:24Z</time>
      </trkpt>
      <trkpt lat="46.70549" lon="-1.91105">
        <ele>22</ele>
        <time>2020-06-03T17:15:25Z</time>
      </trkpt>
      <trkpt lat="46.70552" lon="-1.91111">
        <ele>22</ele>
        <time>2020-06-03T17:15:26Z</time>
      </trkpt>
      <trkpt lat="46.70554" lon="-1.91116">
        <ele>22</ele>
        <time>2020-06-03T17:15:27Z</time>
      </trkpt>
      <trkpt lat="46.70556" lon="-1.91121">
        <ele>22</ele>
        <time>2020-06-03T17:15:28Z</time>
      </trkpt>
      <trkpt lat="46.70557" lon="-1.91127">
        <ele>22</ele>
        <time>2020-06-03T17:15:29Z</time>
      </trkpt>
      <trkpt lat="46.70559" lon="-1.91132">
        <ele>22.1</ele>
        <time>2020-06-03T17:15:30Z</time>
      </trkpt>
      <trkpt lat="46.70561" lon="-1.91137">
        <ele>22.1</ele>
        <time>2020-06-03T17:15:31Z</time>
      </trkpt>
      <trkpt lat="46.70563" lon="-1.91142">
        <ele>22.1</ele>
        <time>2020-06-03T17:15:32Z</time>
      </trkpt>
      <trkpt lat="46.70566" lon="-1.91147">
        <ele>22.1</ele>
        <time>2020-06-03T17:15:33Z</time>
      </trkpt>
      <trkpt lat="46.7057" lon="-1.91149">
        <ele>22.1</ele>
        <time>2020-06-03T17:15:34Z</time>
      </trkpt>
      <trkpt lat="46.70574" lon="-1.91147">
        <ele>22.1</ele>
        <time>2020-06-03T17:15:35Z</time>
      </trkpt>
      <trkpt lat="46.70577" lon="-1.91142">
        <ele>22.1</ele>
        <time>2020-06-03T17:15:36Z</time>
      </trkpt>
      <trkpt lat="46.70579" lon="-1.91138">
        <ele>22.1</ele>
        <time>2020-06-03T17:15:37Z</time>
      </trkpt>
      <trkpt lat="46.70581" lon="-1.91133">
        <ele>22.1</ele>
        <time>2020-06-03T17:15:38Z</time>
      </trkpt>
      <trkpt lat="46.70582" lon="-1.91126">
        <ele>22.1</ele>
        <time>2020-06-03T17:15:39Z</time>
      </trkpt>
      <trkpt lat="46.70584" lon="-1.91121">
        <ele>22.1</ele>
        <time>2020-06-03T17:15:40Z</time>
      </trkpt>
      <trkpt lat="46.70586" lon="-1.91114">
        <ele>22</ele>
        <time>2020-06-03T17:15:41Z</time>
      </trkpt>
      <trkpt lat="46.70588" lon="-1.91108">
        <ele>22</ele>
        <time>2020-06-03T17:15:42Z</time>
      </trkpt>
      <trkpt lat="46.7059" lon="-1.911">
        <ele>22</ele>
        <time>2020-06-03T17:15:43Z</time>
      </trkpt>
      <trkpt lat="46.70592" lon="-1.91092">
        <ele>22</ele>
        <time>2020-06-03T17:15:44Z</time>
      </trkpt>
      <trkpt lat="46.70593" lon="-1.91086">
        <ele>22</ele>
        <time>2020-06-03T17:15:45Z</time>
      </trkpt>
      <trkpt lat="46.70596" lon="-1.9108">
        <ele>22</ele>
        <time>2020-06-03T17:15:46Z</time>
      </trkpt>
      <trkpt lat="46.70598" lon="-1.91074">
        <ele>22</ele>
        <time>2020-06-03T17:15:47Z</time>
      </trkpt>
      <trkpt lat="46.70601" lon="-1.91069">
        <ele>21.9</ele>
        <time>2020-06-03T17:15:48Z</time>
      </trkpt>
      <trkpt lat="46.70604" lon="-1.91065">
        <ele>21.9</ele>
        <time>2020-06-03T17:15:49Z</time>
      </trkpt>
      <trkpt lat="46.70608" lon="-1.9106">
        <ele>21.9</ele>
        <time>2020-06-03T17:15:50Z</time>
      </trkpt>
      <trkpt lat="46.70611" lon="-1.91055">
        <ele>21.9</ele>
        <time>2020-06-03T17:15:51Z</time>
      </trkpt>
      <trkpt lat="46.70614" lon="-1.9105">
        <ele>21.9</ele>
        <time>2020-06-03T17:15:52Z</time>
      </trkpt>
      <trkpt lat="46.70617" lon="-1.91044">
        <ele>21.8</ele>
        <time>2020-06-03T17:15:53Z</time>
      </trkpt>
      <trkpt lat="46.70621" lon="-1.91037">
        <ele>21.8</ele>
        <time>2020-06-03T17:15:54Z</time>
      </trkpt>
      <trkpt lat="46.70623" lon="-1.91033">
        <ele>21.8</ele>
        <time>2020-06-03T17:15:55Z</time>
      </trkpt>
      <trkpt lat="46.70627" lon="-1.91029">
        <ele>21.8</ele>
        <time>2020-06-03T17:15:56Z</time>
      </trkpt>
      <trkpt lat="46.70631" lon="-1.91024">
        <ele>21.8</ele>
        <time>2020-06-03T17:15:57Z</time>
      </trkpt>
      <trkpt lat="46.70635" lon="-1.9102">
        <ele>21.8</ele>
        <time>2020-06-03T17:15:58Z</time>
      </trkpt>
      <trkpt lat="46.70638" lon="-1.91015">
        <ele>21.8</ele>
        <time>2020-06-03T17:15:59Z</time>
      </trkpt>
      <trkpt lat="46.7064" lon="-1.91012">
        <ele>21.8</ele>
        <time>2020-06-03T17:16:00Z</time>
      </trkpt>
      <trkpt lat="46.70643" lon="-1.9101">
        <ele>21.8</ele>
        <time>2020-06-03T17:16:01Z</time>
      </trkpt>
      <trkpt lat="46.70643" lon="-1.91009">
        <ele>21.8</ele>
        <time>2020-06-03T17:16:02Z</time>
      </trkpt>
      <trkpt lat="46.70644" lon="-1.9101">
        <ele>21.8</ele>
        <time>2020-06-03T17:16:03Z</time>
      </trkpt>
      <trkpt lat="46.70645" lon="-1.9101">
        <ele>21.8</ele>
        <time>2020-06-03T17:16:04Z</time>
      </trkpt>
      <trkpt lat="46.70645" lon="-1.91012">
        <ele>21.7</ele>
        <time>2020-06-03T17:16:05Z</time>
      </trkpt>
      <trkpt lat="46.70644" lon="-1.91012">
        <ele>21.7</ele>
        <time>2020-06-03T17:16:06Z</time>
      </trkpt>
      <trkpt lat="46.70643" lon="-1.91014">
        <ele>21.7</ele>
        <time>2020-06-03T17:16:07Z</time>
      </trkpt>
      <trkpt lat="46.7064" lon="-1.91018">
        <ele>21.7</ele>
        <time>2020-06-03T17:16:08Z</time>
      </trkpt>
      <trkpt lat="46.70639" lon="-1.9102">
        <ele>21.7</ele>
        <time>2020-06-03T17:16:09Z</time>
      </trkpt>
      <trkpt lat="46.70636" lon="-1.91023">
        <ele>21.7</ele>
        <time>2020-06-03T17:16:10Z</time>
      </trkpt>
      <trkpt lat="46.70633" lon="-1.91027">
        <ele>21.7</ele>
        <time>2020-06-03T17:16:11Z</time>
      </trkpt>
      <trkpt lat="46.70629" lon="-1.9103">
        <ele>21.7</ele>
        <time>2020-06-03T17:16:12Z</time>
      </trkpt>
      <trkpt lat="46.70626" lon="-1.91034">
        <ele>21.7</ele>
        <time>2020-06-03T17:16:13Z</time>
      </trkpt>
      <trkpt lat="46.70622" lon="-1.91038">
        <ele>21.7</ele>
        <time>2020-06-03T17:16:14Z</time>
      </trkpt>
      <trkpt lat="46.70618" lon="-1.91042">
        <ele>21.6</ele>
        <time>2020-06-03T17:16:15Z</time>
      </trkpt>
      <trkpt lat="46.70614" lon="-1.91046">
        <ele>21.6</ele>
        <time>2020-06-03T17:16:16Z</time>
      </trkpt>
      <trkpt lat="46.7061" lon="-1.91049">
        <ele>21.6</ele>
        <time>2020-06-03T17:16:17Z</time>
      </trkpt>
      <trkpt lat="46.70607" lon="-1.91054">
        <ele>21.5</ele>
        <time>2020-06-03T17:16:18Z</time>
      </trkpt>
      <trkpt lat="46.70605" lon="-1.9106">
        <ele>21.5</ele>
        <time>2020-06-03T17:16:19Z</time>
      </trkpt>
      <trkpt lat="46.70603" lon="-1.91064">
        <ele>21.5</ele>
        <time>2020-06-03T17:16:20Z</time>
      </trkpt>
      <trkpt lat="46.70601" lon="-1.91067">
        <ele>21.5</ele>
        <time>2020-06-03T17:16:21Z</time>
      </trkpt>
      <trkpt lat="46.70601" lon="-1.91068">
        <ele>21.5</ele>
        <time>2020-06-03T17:16:22Z</time>
      </trkpt>
      <trkpt lat="46.70601" lon="-1.91067">
        <ele>21.5</ele>
        <time>2020-06-03T17:16:23Z</time>
      </trkpt>
      <trkpt lat="46.70602" lon="-1.91066">
        <ele>21.5</ele>
        <time>2020-06-03T17:16:24Z</time>
      </trkpt>
      <trkpt lat="46.70602" lon="-1.91065">
        <ele>21.4</ele>
        <time>2020-06-03T17:16:25Z</time>
      </trkpt>
      <trkpt lat="46.70603" lon="-1.91065">
        <ele>21.4</ele>
        <time>2020-06-03T17:16:26Z</time>
      </trkpt>
      <trkpt lat="46.70603" lon="-1.91064">
        <ele>21.4</ele>
        <time>2020-06-03T17:16:27Z</time>
      </trkpt>
      <trkpt lat="46.70603" lon="-1.91063">
        <ele>21.4</ele>
        <time>2020-06-03T17:16:28Z</time>
      </trkpt>
      <trkpt lat="46.70604" lon="-1.91062">
        <ele>21.4</ele>
        <time>2020-06-03T17:16:29Z</time>
      </trkpt>
      <trkpt lat="46.70604" lon="-1.91062">
        <ele>21.4</ele>
        <time>2020-06-03T17:16:30Z</time>
      </trkpt>
      <trkpt lat="46.70607" lon="-1.91056">
        <ele>21.4</ele>
        <time>2020-06-03T17:16:31Z</time>
      </trkpt>
      <trkpt lat="46.7061" lon="-1.91052">
        <ele>21.4</ele>
        <time>2020-06-03T17:16:32Z</time>
      </trkpt>
      <trkpt lat="46.70613" lon="-1.91049">
        <ele>21.3</ele>
        <time>2020-06-03T17:16:33Z</time>
      </trkpt>
      <trkpt lat="46.70616" lon="-1.91044">
        <ele>21.3</ele>
        <time>2020-06-03T17:16:34Z</time>
      </trkpt>
      <trkpt lat="46.70619" lon="-1.9104">
        <ele>21.3</ele>
        <time>2020-06-03T17:16:35Z</time>
      </trkpt>
      <trkpt lat="46.70623" lon="-1.91035">
        <ele>21.3</ele>
        <time>2020-06-03T17:16:36Z</time>
      </trkpt>
      <trkpt lat="46.70626" lon="-1.91031">
        <ele>21.3</ele>
        <time>2020-06-03T17:16:37Z</time>
      </trkpt>
      <trkpt lat="46.7063" lon="-1.91028">
        <ele>21.2</ele>
        <time>2020-06-03T17:16:38Z</time>
      </trkpt>
      <trkpt lat="46.70632" lon="-1.91024">
        <ele>21.2</ele>
        <time>2020-06-03T17:16:39Z</time>
      </trkpt>
      <trkpt lat="46.70636" lon="-1.9102">
        <ele>21.2</ele>
        <time>2020-06-03T17:16:40Z</time>
      </trkpt>
      <trkpt lat="46.70639" lon="-1.91016">
        <ele>21.2</ele>
        <time>2020-06-03T17:16:41Z</time>
      </trkpt>
      <trkpt lat="46.70641" lon="-1.91013">
        <ele>21.2</ele>
        <time>2020-06-03T17:16:42Z</time>
      </trkpt>
      <trkpt lat="46.70643" lon="-1.9101">
        <ele>21.1</ele>
        <time>2020-06-03T17:16:43Z</time>
      </trkpt>
      <trkpt lat="46.70645" lon="-1.91007">
        <ele>21.1</ele>
        <time>2020-06-03T17:16:44Z</time>
      </trkpt>
      <trkpt lat="46.70648" lon="-1.91003">
        <ele>21.1</ele>
        <time>2020-06-03T17:16:45Z</time>
      </trkpt>
      <trkpt lat="46.70649" lon="-1.91001">
        <ele>21.1</ele>
        <time>2020-06-03T17:16:46Z</time>
      </trkpt>
      <trkpt lat="46.70652" lon="-1.90998">
        <ele>21.1</ele>
        <time>2020-06-03T17:16:47Z</time>
      </trkpt>
      <trkpt lat="46.70656" lon="-1.90993">
        <ele>21</ele>
        <time>2020-06-03T17:16:48Z</time>
      </trkpt>
      <trkpt lat="46.70659" lon="-1.9099">
        <ele>21</ele>
        <time>2020-06-03T17:16:49Z</time>
      </trkpt>
      <trkpt lat="46.70662" lon="-1.90987">
        <ele>21</ele>
        <time>2020-06-03T17:16:50Z</time>
      </trkpt>
      <trkpt lat="46.70665" lon="-1.90984">
        <ele>21</ele>
        <time>2020-06-03T17:16:51Z</time>
      </trkpt>
      <trkpt lat="46.70669" lon="-1.9098">
        <ele>20.9</ele>
        <time>2020-06-03T17:16:52Z</time>
      </trkpt>
      <trkpt lat="46.70672" lon="-1.90977">
        <ele>20.9</ele>
        <time>2020-06-03T17:16:53Z</time>
      </trkpt>
      <trkpt lat="46.70675" lon="-1.90974">
        <ele>20.9</ele>
        <time>2020-06-03T17:16:54Z</time>
      </trkpt>
      <trkpt lat="46.70679" lon="-1.9097">
        <ele>20.9</ele>
        <time>2020-06-03T17:16:55Z</time>
      </trkpt>
      <trkpt lat="46.70683" lon="-1.90966">
        <ele>20.9</ele>
        <time>2020-06-03T17:16:56Z</time>
      </trkpt>
      <trkpt lat="46.70687" lon="-1.90961">
        <ele>20.9</ele>
        <time>2020-06-03T17:16:57Z</time>
      </trkpt>
      <trkpt lat="46.70691" lon="-1.90956">
        <ele>20.9</ele>
        <time>2020-06-03T17:16:58Z</time>
      </trkpt>
      <trkpt lat="46.70695" lon="-1.90951">
        <ele>20.8</ele>
        <time>2020-06-03T17:16:59Z</time>
      </trkpt>
      <trkpt lat="46.707" lon="-1.90947">
        <ele>20.8</ele>
        <time>2020-06-03T17:17:00Z</time>
      </trkpt>
      <trkpt lat="46.70705" lon="-1.90942">
        <ele>20.8</ele>
        <time>2020-06-03T17:17:01Z</time>
      </trkpt>
      <trkpt lat="46.70709" lon="-1.90937">
        <ele>20.8</ele>
        <time>2020-06-03T17:17:02Z</time>
      </trkpt>
      <trkpt lat="46.70714" lon="-1.90933">
        <ele>20.7</ele>
        <time>2020-06-03T17:17:03Z</time>
      </trkpt>
      <trkpt lat="46.70718" lon="-1.90929">
        <ele>20.7</ele>
        <time>2020-06-03T17:17:04Z</time>
      </trkpt>
      <trkpt lat="46.70723" lon="-1.90924">
        <ele>20.6</ele>
        <time>2020-06-03T17:17:05Z</time>
      </trkpt>
      <trkpt lat="46.70728" lon="-1.9092">
        <ele>20.5</ele>
        <time>2020-06-03T17:17:06Z</time>
      </trkpt>
      <trkpt lat="46.70733" lon="-1.90917">
        <ele>20.5</ele>
        <time>2020-06-03T17:17:07Z</time>
      </trkpt>
      <trkpt lat="46.70738" lon="-1.90913">
        <ele>20.4</ele>
        <time>2020-06-03T17:17:08Z</time>
      </trkpt>
      <trkpt lat="46.70743" lon="-1.9091">
        <ele>20.4</ele>
        <time>2020-06-03T17:17:09Z</time>
      </trkpt>
      <trkpt lat="46.70747" lon="-1.90905">
        <ele>20.3</ele>
        <time>2020-06-03T17:17:10Z</time>
      </trkpt>
      <trkpt lat="46.70751" lon="-1.909">
        <ele>20.2</ele>
        <time>2020-06-03T17:17:11Z</time>
      </trkpt>
      <trkpt lat="46.70756" lon="-1.90896">
        <ele>20.2</ele>
        <time>2020-06-03T17:17:12Z</time>
      </trkpt>
      <trkpt lat="46.7076" lon="-1.90892">
        <ele>20.1</ele>
        <time>2020-06-03T17:17:13Z</time>
      </trkpt>
      <trkpt lat="46.70763" lon="-1.90888">
        <ele>20.1</ele>
        <time>2020-06-03T17:17:14Z</time>
      </trkpt>
      <trkpt lat="46.70767" lon="-1.90885">
        <ele>20.1</ele>
        <time>2020-06-03T17:17:15Z</time>
      </trkpt>
      <trkpt lat="46.70771" lon="-1.90881">
        <ele>20</ele>
        <time>2020-06-03T17:17:16Z</time>
      </trkpt>
      <trkpt lat="46.70775" lon="-1.90877">
        <ele>20</ele>
        <time>2020-06-03T17:17:17Z</time>
      </trkpt>
      <trkpt lat="46.70779" lon="-1.90873">
        <ele>19.9</ele>
        <time>2020-06-03T17:17:18Z</time>
      </trkpt>
      <trkpt lat="46.70784" lon="-1.90868">
        <ele>19.9</ele>
        <time>2020-06-03T17:17:19Z</time>
      </trkpt>
      <trkpt lat="46.70789" lon="-1.90864">
        <ele>19.8</ele>
        <time>2020-06-03T17:17:20Z</time>
      </trkpt>
      <trkpt lat="46.70794" lon="-1.9086">
        <ele>19.8</ele>
        <time>2020-06-03T17:17:21Z</time>
      </trkpt>
      <trkpt lat="46.70799" lon="-1.90857">
        <ele>19.7</ele>
        <time>2020-06-03T17:17:22Z</time>
      </trkpt>
      <trkpt lat="46.70804" lon="-1.90854">
        <ele>19.7</ele>
        <time>2020-06-03T17:17:23Z</time>
      </trkpt>
      <trkpt lat="46.7081" lon="-1.90851">
        <ele>19.6</ele>
        <time>2020-06-03T17:17:24Z</time>
      </trkpt>
      <trkpt lat="46.70815" lon="-1.90847">
        <ele>19.5</ele>
        <time>2020-06-03T17:17:25Z</time>
      </trkpt>
      <trkpt lat="46.7082" lon="-1.90844">
        <ele>19.5</ele>
        <time>2020-06-03T17:17:26Z</time>
      </trkpt>
      <trkpt lat="46.70825" lon="-1.90841">
        <ele>19.4</ele>
        <time>2020-06-03T17:17:27Z</time>
      </trkpt>
      <trkpt lat="46.70829" lon="-1.90838">
        <ele>19.3</ele>
        <time>2020-06-03T17:17:28Z</time>
      </trkpt>
      <trkpt lat="46.70834" lon="-1.90836">
        <ele>19.3</ele>
        <time>2020-06-03T17:17:29Z</time>
      </trkpt>
      <trkpt lat="46.70839" lon="-1.90833">
        <ele>19.2</ele>
        <time>2020-06-03T17:17:30Z</time>
      </trkpt>
      <trkpt lat="46.70844" lon="-1.90829">
        <ele>19.2</ele>
        <time>2020-06-03T17:17:31Z</time>
      </trkpt>
      <trkpt lat="46.70848" lon="-1.90825">
        <ele>19.1</ele>
        <time>2020-06-03T17:17:32Z</time>
      </trkpt>
      <trkpt lat="46.70853" lon="-1.90822">
        <ele>19.1</ele>
        <time>2020-06-03T17:17:33Z</time>
      </trkpt>
      <trkpt lat="46.70858" lon="-1.90819">
        <ele>19.1</ele>
        <time>2020-06-03T17:17:34Z</time>
      </trkpt>
      <trkpt lat="46.70864" lon="-1.90816">
        <ele>19.1</ele>
        <time>2020-06-03T17:17:35Z</time>
      </trkpt>
      <trkpt lat="46.70869" lon="-1.90812">
        <ele>19.2</ele>
        <time>2020-06-03T17:17:36Z</time>
      </trkpt>
      <trkpt lat="46.70874" lon="-1.9081">
        <ele>19.2</ele>
        <time>2020-06-03T17:17:37Z</time>
      </trkpt>
      <trkpt lat="46.70879" lon="-1.90806">
        <ele>19.2</ele>
        <time>2020-06-03T17:17:38Z</time>
      </trkpt>
      <trkpt lat="46.70884" lon="-1.90803">
        <ele>19.2</ele>
        <time>2020-06-03T17:17:39Z</time>
      </trkpt>
      <trkpt lat="46.70889" lon="-1.908">
        <ele>19.2</ele>
        <time>2020-06-03T17:17:40Z</time>
      </trkpt>
      <trkpt lat="46.70893" lon="-1.90797">
        <ele>19.2</ele>
        <time>2020-06-03T17:17:41Z</time>
      </trkpt>
      <trkpt lat="46.70897" lon="-1.90795">
        <ele>19.1</ele>
        <time>2020-06-03T17:17:42Z</time>
      </trkpt>
      <trkpt lat="46.70902" lon="-1.90792">
        <ele>19.1</ele>
        <time>2020-06-03T17:17:43Z</time>
      </trkpt>
      <trkpt lat="46.70906" lon="-1.9079">
        <ele>19.1</ele>
        <time>2020-06-03T17:17:44Z</time>
      </trkpt>
      <trkpt lat="46.70909" lon="-1.90786">
        <ele>19.1</ele>
        <time>2020-06-03T17:17:45Z</time>
      </trkpt>
      <trkpt lat="46.70913" lon="-1.90783">
        <ele>19</ele>
        <time>2020-06-03T17:17:46Z</time>
      </trkpt>
      <trkpt lat="46.70917" lon="-1.9078">
        <ele>19</ele>
        <time>2020-06-03T17:17:47Z</time>
      </trkpt>
      <trkpt lat="46.7092" lon="-1.90777">
        <ele>19</ele>
        <time>2020-06-03T17:17:48Z</time>
      </trkpt>
      <trkpt lat="46.70925" lon="-1.90773">
        <ele>19</ele>
        <time>2020-06-03T17:17:49Z</time>
      </trkpt>
      <trkpt lat="46.70929" lon="-1.90769">
        <ele>19.1</ele>
        <time>2020-06-03T17:17:50Z</time>
      </trkpt>
      <trkpt lat="46.70934" lon="-1.90765">
        <ele>19.1</ele>
        <time>2020-06-03T17:17:51Z</time>
      </trkpt>
      <trkpt lat="46.70938" lon="-1.90759">
        <ele>19.1</ele>
        <time>2020-06-03T17:17:52Z</time>
      </trkpt>
      <trkpt lat="46.70942" lon="-1.90755">
        <ele>19.2</ele>
        <time>2020-06-03T17:17:53Z</time>
      </trkpt>
      <trkpt lat="46.70946" lon="-1.90751">
        <ele>19.2</ele>
        <time>2020-06-03T17:17:54Z</time>
      </trkpt>
      <trkpt lat="46.7095" lon="-1.90748">
        <ele>19.2</ele>
        <time>2020-06-03T17:17:55Z</time>
      </trkpt>
      <trkpt lat="46.70954" lon="-1.90744">
        <ele>19.2</ele>
        <time>2020-06-03T17:17:56Z</time>
      </trkpt>
      <trkpt lat="46.70958" lon="-1.9074">
        <ele>19.2</ele>
        <time>2020-06-03T17:17:57Z</time>
      </trkpt>
      <trkpt lat="46.70962" lon="-1.90735">
        <ele>19.1</ele>
        <time>2020-06-03T17:17:58Z</time>
      </trkpt>
      <trkpt lat="46.70966" lon="-1.9073">
        <ele>19.1</ele>
        <time>2020-06-03T17:17:59Z</time>
      </trkpt>
      <trkpt lat="46.7097" lon="-1.90726">
        <ele>19.1</ele>
        <time>2020-06-03T17:18:00Z</time>
      </trkpt>
      <trkpt lat="46.70974" lon="-1.90722">
        <ele>19.1</ele>
        <time>2020-06-03T17:18:01Z</time>
      </trkpt>
      <trkpt lat="46.70978" lon="-1.90718">
        <ele>19.1</ele>
        <time>2020-06-03T17:18:02Z</time>
      </trkpt>
      <trkpt lat="46.70982" lon="-1.90713">
        <ele>19.1</ele>
        <time>2020-06-03T17:18:03Z</time>
      </trkpt>
      <trkpt lat="46.70986" lon="-1.90709">
        <ele>19.1</ele>
        <time>2020-06-03T17:18:04Z</time>
      </trkpt>
      <trkpt lat="46.7099" lon="-1.90704">
        <ele>19.1</ele>
        <time>2020-06-03T17:18:05Z</time>
      </trkpt>
      <trkpt lat="46.70994" lon="-1.907">
        <ele>19.1</ele>
        <time>2020-06-03T17:18:06Z</time>
      </trkpt>
      <trkpt lat="46.70998" lon="-1.90695">
        <ele>19.1</ele>
        <time>2020-06-03T17:18:07Z</time>
      </trkpt>
      <trkpt lat="46.71003" lon="-1.9069">
        <ele>19</ele>
        <time>2020-06-03T17:18:08Z</time>
      </trkpt>
      <trkpt lat="46.71007" lon="-1.90686">
        <ele>19</ele>
        <time>2020-06-03T17:18:09Z</time>
      </trkpt>
      <trkpt lat="46.71011" lon="-1.90682">
        <ele>19</ele>
        <time>2020-06-03T17:18:10Z</time>
      </trkpt>
      <trkpt lat="46.71016" lon="-1.90677">
        <ele>19</ele>
        <time>2020-06-03T17:18:11Z</time>
      </trkpt>
      <trkpt lat="46.7102" lon="-1.90674">
        <ele>19</ele>
        <time>2020-06-03T17:18:12Z</time>
      </trkpt>
      <trkpt lat="46.71024" lon="-1.9067">
        <ele>18.9</ele>
        <time>2020-06-03T17:18:13Z</time>
      </trkpt>
      <trkpt lat="46.71028" lon="-1.90667">
        <ele>18.9</ele>
        <time>2020-06-03T17:18:14Z</time>
      </trkpt>
      <trkpt lat="46.71033" lon="-1.90663">
        <ele>18.9</ele>
        <time>2020-06-03T17:18:15Z</time>
      </trkpt>
      <trkpt lat="46.71037" lon="-1.9066">
        <ele>18.9</ele>
        <time>2020-06-03T17:18:16Z</time>
      </trkpt>
      <trkpt lat="46.71041" lon="-1.90657">
        <ele>18.8</ele>
        <time>2020-06-03T17:18:17Z</time>
      </trkpt>
      <trkpt lat="46.71045" lon="-1.90654">
        <ele>18.8</ele>
        <time>2020-06-03T17:18:18Z</time>
      </trkpt>
      <trkpt lat="46.7105" lon="-1.90651">
        <ele>18.7</ele>
        <time>2020-06-03T17:18:19Z</time>
      </trkpt>
      <trkpt lat="46.71055" lon="-1.90649">
        <ele>18.7</ele>
        <time>2020-06-03T17:18:20Z</time>
      </trkpt>
      <trkpt lat="46.71061" lon="-1.90648">
        <ele>18.6</ele>
        <time>2020-06-03T17:18:21Z</time>
      </trkpt>
      <trkpt lat="46.71067" lon="-1.90647">
        <ele>18.5</ele>
        <time>2020-06-03T17:18:22Z</time>
      </trkpt>
      <trkpt lat="46.71072" lon="-1.90646">
        <ele>18.4</ele>
        <time>2020-06-03T17:18:23Z</time>
      </trkpt>
      <trkpt lat="46.71079" lon="-1.90645">
        <ele>18.3</ele>
        <time>2020-06-03T17:18:24Z</time>
      </trkpt>
      <trkpt lat="46.71085" lon="-1.90644">
        <ele>18.2</ele>
        <time>2020-06-03T17:18:25Z</time>
      </trkpt>
      <trkpt lat="46.71091" lon="-1.90644">
        <ele>18.1</ele>
        <time>2020-06-03T17:18:26Z</time>
      </trkpt>
      <trkpt lat="46.71097" lon="-1.90643">
        <ele>18</ele>
        <time>2020-06-03T17:18:27Z</time>
      </trkpt>
      <trkpt lat="46.71102" lon="-1.90641">
        <ele>17.9</ele>
        <time>2020-06-03T17:18:28Z</time>
      </trkpt>
      <trkpt lat="46.71109" lon="-1.9064">
        <ele>17.8</ele>
        <time>2020-06-03T17:18:29Z</time>
      </trkpt>
      <trkpt lat="46.71115" lon="-1.90639">
        <ele>17.7</ele>
        <time>2020-06-03T17:18:30Z</time>
      </trkpt>
      <trkpt lat="46.7112" lon="-1.90637">
        <ele>17.6</ele>
        <time>2020-06-03T17:18:31Z</time>
      </trkpt>
      <trkpt lat="46.71126" lon="-1.90636">
        <ele>17.6</ele>
        <time>2020-06-03T17:18:32Z</time>
      </trkpt>
      <trkpt lat="46.71133" lon="-1.90634">
        <ele>17.5</ele>
        <time>2020-06-03T17:18:33Z</time>
      </trkpt>
      <trkpt lat="46.7114" lon="-1.90631">
        <ele>17.4</ele>
        <time>2020-06-03T17:18:34Z</time>
      </trkpt>
      <trkpt lat="46.71145" lon="-1.90629">
        <ele>17.3</ele>
        <time>2020-06-03T17:18:35Z</time>
      </trkpt>
      <trkpt lat="46.7115" lon="-1.90626">
        <ele>17.3</ele>
        <time>2020-06-03T17:18:36Z</time>
      </trkpt>
      <trkpt lat="46.71155" lon="-1.90625">
        <ele>17.2</ele>
        <time>2020-06-03T17:18:37Z</time>
      </trkpt>
      <trkpt lat="46.71161" lon="-1.90623">
        <ele>17.1</ele>
        <time>2020-06-03T17:18:38Z</time>
      </trkpt>
      <trkpt lat="46.71167" lon="-1.90621">
        <ele>17.1</ele>
        <time>2020-06-03T17:18:39Z</time>
      </trkpt>
      <trkpt lat="46.71173" lon="-1.9062">
        <ele>17</ele>
        <time>2020-06-03T17:18:40Z</time>
      </trkpt>
      <trkpt lat="46.71178" lon="-1.90619">
        <ele>16.9</ele>
        <time>2020-06-03T17:18:41Z</time>
      </trkpt>
      <trkpt lat="46.71184" lon="-1.90618">
        <ele>16.9</ele>
        <time>2020-06-03T17:18:42Z</time>
      </trkpt>
      <trkpt lat="46.71189" lon="-1.90618">
        <ele>16.8</ele>
        <time>2020-06-03T17:18:43Z</time>
      </trkpt>
      <trkpt lat="46.71196" lon="-1.90617">
        <ele>16.8</ele>
        <time>2020-06-03T17:18:44Z</time>
      </trkpt>
      <trkpt lat="46.71204" lon="-1.90618">
        <ele>16.7</ele>
        <time>2020-06-03T17:18:45Z</time>
      </trkpt>
      <trkpt lat="46.7121" lon="-1.90618">
        <ele>16.6</ele>
        <time>2020-06-03T17:18:46Z</time>
      </trkpt>
      <trkpt lat="46.71215" lon="-1.90619">
        <ele>16.6</ele>
        <time>2020-06-03T17:18:47Z</time>
      </trkpt>
      <trkpt lat="46.7122" lon="-1.90619">
        <ele>16.5</ele>
        <time>2020-06-03T17:18:48Z</time>
      </trkpt>
      <trkpt lat="46.71226" lon="-1.90618">
        <ele>16.5</ele>
        <time>2020-06-03T17:18:49Z</time>
      </trkpt>
      <trkpt lat="46.71232" lon="-1.90617">
        <ele>16.4</ele>
        <time>2020-06-03T17:18:50Z</time>
      </trkpt>
      <trkpt lat="46.71239" lon="-1.90617">
        <ele>16.3</ele>
        <time>2020-06-03T17:18:51Z</time>
      </trkpt>
      <trkpt lat="46.71245" lon="-1.90617">
        <ele>16.2</ele>
        <time>2020-06-03T17:18:52Z</time>
      </trkpt>
      <trkpt lat="46.71251" lon="-1.90616">
        <ele>16.1</ele>
        <time>2020-06-03T17:18:53Z</time>
      </trkpt>
      <trkpt lat="46.71257" lon="-1.90616">
        <ele>16</ele>
        <time>2020-06-03T17:18:54Z</time>
      </trkpt>
      <trkpt lat="46.71262" lon="-1.90614">
        <ele>15.9</ele>
        <time>2020-06-03T17:18:55Z</time>
      </trkpt>
      <trkpt lat="46.71266" lon="-1.90613">
        <ele>15.8</ele>
        <time>2020-06-03T17:18:56Z</time>
      </trkpt>
      <trkpt lat="46.71271" lon="-1.90613">
        <ele>15.8</ele>
        <time>2020-06-03T17:18:57Z</time>
      </trkpt>
      <trkpt lat="46.71276" lon="-1.90613">
        <ele>15.7</ele>
        <time>2020-06-03T17:18:58Z</time>
      </trkpt>
      <trkpt lat="46.71282" lon="-1.90613">
        <ele>15.6</ele>
        <time>2020-06-03T17:18:59Z</time>
      </trkpt>
      <trkpt lat="46.71287" lon="-1.90614">
        <ele>15.6</ele>
        <time>2020-06-03T17:19:00Z</time>
      </trkpt>
      <trkpt lat="46.71291" lon="-1.90614">
        <ele>15.5</ele>
        <time>2020-06-03T17:19:01Z</time>
      </trkpt>
      <trkpt lat="46.71295" lon="-1.90613">
        <ele>15.5</ele>
        <time>2020-06-03T17:19:02Z</time>
      </trkpt>
      <trkpt lat="46.71299" lon="-1.90613">
        <ele>15.4</ele>
        <time>2020-06-03T17:19:03Z</time>
      </trkpt>
      <trkpt lat="46.71304" lon="-1.90613">
        <ele>15.3</ele>
        <time>2020-06-03T17:19:04Z</time>
      </trkpt>
      <trkpt lat="46.71308" lon="-1.90613">
        <ele>15.3</ele>
        <time>2020-06-03T17:19:05Z</time>
      </trkpt>
      <trkpt lat="46.71312" lon="-1.90613">
        <ele>15.2</ele>
        <time>2020-06-03T17:19:06Z</time>
      </trkpt>
      <trkpt lat="46.71317" lon="-1.90613">
        <ele>15.1</ele>
        <time>2020-06-03T17:19:07Z</time>
      </trkpt>
      <trkpt lat="46.71322" lon="-1.90614">
        <ele>15.1</ele>
        <time>2020-06-03T17:19:08Z</time>
      </trkpt>
      <trkpt lat="46.71325" lon="-1.90613">
        <ele>15.1</ele>
        <time>2020-06-03T17:19:09Z</time>
      </trkpt>
      <trkpt lat="46.7133" lon="-1.90613">
        <ele>15.1</ele>
        <time>2020-06-03T17:19:10Z</time>
      </trkpt>
      <trkpt lat="46.71334" lon="-1.90613">
        <ele>15</ele>
        <time>2020-06-03T17:19:11Z</time>
      </trkpt>
      <trkpt lat="46.71339" lon="-1.90612">
        <ele>15</ele>
        <time>2020-06-03T17:19:12Z</time>
      </trkpt>
      <trkpt lat="46.71343" lon="-1.90612">
        <ele>14.9</ele>
        <time>2020-06-03T17:19:13Z</time>
      </trkpt>
      <trkpt lat="46.71347" lon="-1.90611">
        <ele>14.9</ele>
        <time>2020-06-03T17:19:14Z</time>
      </trkpt>
      <trkpt lat="46.71351" lon="-1.9061">
        <ele>14.8</ele>
        <time>2020-06-03T17:19:15Z</time>
      </trkpt>
      <trkpt lat="46.71356" lon="-1.9061">
        <ele>14.7</ele>
        <time>2020-06-03T17:19:16Z</time>
      </trkpt>
      <trkpt lat="46.7136" lon="-1.9061">
        <ele>14.6</ele>
        <time>2020-06-03T17:19:17Z</time>
      </trkpt>
      <trkpt lat="46.71364" lon="-1.90611">
        <ele>14.5</ele>
        <time>2020-06-03T17:19:18Z</time>
      </trkpt>
      <trkpt lat="46.71369" lon="-1.90611">
        <ele>14.4</ele>
        <time>2020-06-03T17:19:19Z</time>
      </trkpt>
      <trkpt lat="46.71373" lon="-1.9061">
        <ele>14.3</ele>
        <time>2020-06-03T17:19:20Z</time>
      </trkpt>
      <trkpt lat="46.71377" lon="-1.90609">
        <ele>14.2</ele>
        <time>2020-06-03T17:19:21Z</time>
      </trkpt>
      <trkpt lat="46.71381" lon="-1.90609">
        <ele>14.1</ele>
        <time>2020-06-03T17:19:22Z</time>
      </trkpt>
      <trkpt lat="46.71385" lon="-1.90608">
        <ele>14</ele>
        <time>2020-06-03T17:19:23Z</time>
      </trkpt>
      <trkpt lat="46.71388" lon="-1.90608">
        <ele>13.9</ele>
        <time>2020-06-03T17:19:24Z</time>
      </trkpt>
      <trkpt lat="46.71393" lon="-1.90607">
        <ele>13.8</ele>
        <time>2020-06-03T17:19:25Z</time>
      </trkpt>
      <trkpt lat="46.71397" lon="-1.90607">
        <ele>13.7</ele>
        <time>2020-06-03T17:19:26Z</time>
      </trkpt>
      <trkpt lat="46.71401" lon="-1.90607">
        <ele>13.6</ele>
        <time>2020-06-03T17:19:27Z</time>
      </trkpt>
      <trkpt lat="46.71405" lon="-1.90607">
        <ele>13.5</ele>
        <time>2020-06-03T17:19:28Z</time>
      </trkpt>
      <trkpt lat="46.71409" lon="-1.90607">
        <ele>13.4</ele>
        <time>2020-06-03T17:19:29Z</time>
      </trkpt>
      <trkpt lat="46.71413" lon="-1.90607">
        <ele>13.3</ele>
        <time>2020-06-03T17:19:30Z</time>
      </trkpt>
      <trkpt lat="46.71417" lon="-1.90607">
        <ele>13.2</ele>
        <time>2020-06-03T17:19:31Z</time>
      </trkpt>
      <trkpt lat="46.71422" lon="-1.90607">
        <ele>13.1</ele>
        <time>2020-06-03T17:19:32Z</time>
      </trkpt>
      <trkpt lat="46.71426" lon="-1.90607">
        <ele>13</ele>
        <time>2020-06-03T17:19:33Z</time>
      </trkpt>
      <trkpt lat="46.71431" lon="-1.90607">
        <ele>12.9</ele>
        <time>2020-06-03T17:19:34Z</time>
      </trkpt>
      <trkpt lat="46.71435" lon="-1.90608">
        <ele>12.8</ele>
        <time>2020-06-03T17:19:35Z</time>
      </trkpt>
      <trkpt lat="46.71439" lon="-1.90609">
        <ele>12.7</ele>
        <time>2020-06-03T17:19:36Z</time>
      </trkpt>
      <trkpt lat="46.71443" lon="-1.9061">
        <ele>12.6</ele>
        <time>2020-06-03T17:19:37Z</time>
      </trkpt>
      <trkpt lat="46.71447" lon="-1.90611">
        <ele>12.6</ele>
        <time>2020-06-03T17:19:38Z</time>
      </trkpt>
      <trkpt lat="46.71451" lon="-1.90613">
        <ele>12.5</ele>
        <time>2020-06-03T17:19:39Z</time>
      </trkpt>
      <trkpt lat="46.71455" lon="-1.90616">
        <ele>12.4</ele>
        <time>2020-06-03T17:19:40Z</time>
      </trkpt>
      <trkpt lat="46.7146" lon="-1.90619">
        <ele>12.3</ele>
        <time>2020-06-03T17:19:41Z</time>
      </trkpt>
      <trkpt lat="46.71465" lon="-1.90624">
        <ele>12.1</ele>
        <time>2020-06-03T17:19:42Z</time>
      </trkpt>
      <trkpt lat="46.71469" lon="-1.90626">
        <ele>12.1</ele>
        <time>2020-06-03T17:19:43Z</time>
      </trkpt>
      <trkpt lat="46.71473" lon="-1.90628">
        <ele>12</ele>
        <time>2020-06-03T17:19:44Z</time>
      </trkpt>
      <trkpt lat="46.71476" lon="-1.90631">
        <ele>11.9</ele>
        <time>2020-06-03T17:19:45Z</time>
      </trkpt>
      <trkpt lat="46.7148" lon="-1.90635">
        <ele>11.8</ele>
        <time>2020-06-03T17:19:46Z</time>
      </trkpt>
      <trkpt lat="46.71484" lon="-1.90637">
        <ele>11.7</ele>
        <time>2020-06-03T17:19:47Z</time>
      </trkpt>
      <trkpt lat="46.71487" lon="-1.90643">
        <ele>11.6</ele>
        <time>2020-06-03T17:19:48Z</time>
      </trkpt>
      <trkpt lat="46.7149" lon="-1.90647">
        <ele>11.6</ele>
        <time>2020-06-03T17:19:49Z</time>
      </trkpt>
      <trkpt lat="46.71492" lon="-1.9065">
        <ele>11.5</ele>
        <time>2020-06-03T17:19:50Z</time>
      </trkpt>
      <trkpt lat="46.71495" lon="-1.90654">
        <ele>11.4</ele>
        <time>2020-06-03T17:19:51Z</time>
      </trkpt>
      <trkpt lat="46.71501" lon="-1.90658">
        <ele>11.3</ele>
        <time>2020-06-03T17:19:52Z</time>
      </trkpt>
      <trkpt lat="46.71505" lon="-1.90662">
        <ele>11.2</ele>
        <time>2020-06-03T17:19:53Z</time>
      </trkpt>
      <trkpt lat="46.71509" lon="-1.90666">
        <ele>11.1</ele>
        <time>2020-06-03T17:19:54Z</time>
      </trkpt>
      <trkpt lat="46.71513" lon="-1.90671">
        <ele>11</ele>
        <time>2020-06-03T17:19:55Z</time>
      </trkpt>
      <trkpt lat="46.71517" lon="-1.90675">
        <ele>10.9</ele>
        <time>2020-06-03T17:19:56Z</time>
      </trkpt>
      <trkpt lat="46.7152" lon="-1.90679">
        <ele>10.8</ele>
        <time>2020-06-03T17:19:57Z</time>
      </trkpt>
      <trkpt lat="46.71523" lon="-1.90682">
        <ele>10.7</ele>
        <time>2020-06-03T17:19:58Z</time>
      </trkpt>
      <trkpt lat="46.71527" lon="-1.90686">
        <ele>10.6</ele>
        <time>2020-06-03T17:19:59Z</time>
      </trkpt>
      <trkpt lat="46.71529" lon="-1.90689">
        <ele>10.6</ele>
        <time>2020-06-03T17:20:00Z</time>
      </trkpt>
      <trkpt lat="46.71533" lon="-1.90693">
        <ele>10.5</ele>
        <time>2020-06-03T17:20:01Z</time>
      </trkpt>
      <trkpt lat="46.71536" lon="-1.90697">
        <ele>10.3</ele>
        <time>2020-06-03T17:20:02Z</time>
      </trkpt>
      <trkpt lat="46.71539" lon="-1.90701">
        <ele>10.3</ele>
        <time>2020-06-03T17:20:03Z</time>
      </trkpt>
      <trkpt lat="46.71542" lon="-1.90704">
        <ele>10.3</ele>
        <time>2020-06-03T17:20:04Z</time>
      </trkpt>
      <trkpt lat="46.71545" lon="-1.90704">
        <ele>10.3</ele>
        <time>2020-06-03T17:20:05Z</time>
      </trkpt>
      <trkpt lat="46.71548" lon="-1.90704">
        <ele>10.2</ele>
        <time>2020-06-03T17:20:06Z</time>
      </trkpt>
      <trkpt lat="46.71551" lon="-1.90703">
        <ele>10.2</ele>
        <time>2020-06-03T17:20:07Z</time>
      </trkpt>
      <trkpt lat="46.71554" lon="-1.907">
        <ele>10.2</ele>
        <time>2020-06-03T17:20:08Z</time>
      </trkpt>
      <trkpt lat="46.71558" lon="-1.90695">
        <ele>10.2</ele>
        <time>2020-06-03T17:20:09Z</time>
      </trkpt>
      <trkpt lat="46.71561" lon="-1.9069">
        <ele>10.1</ele>
        <time>2020-06-03T17:20:10Z</time>
      </trkpt>
      <trkpt lat="46.71565" lon="-1.90684">
        <ele>10.1</ele>
        <time>2020-06-03T17:20:11Z</time>
      </trkpt>
      <trkpt lat="46.7157" lon="-1.90678">
        <ele>10.1</ele>
        <time>2020-06-03T17:20:12Z</time>
      </trkpt>
      <trkpt lat="46.71574" lon="-1.90672">
        <ele>10.1</ele>
        <time>2020-06-03T17:20:13Z</time>
      </trkpt>
      <trkpt lat="46.71577" lon="-1.90667">
        <ele>10</ele>
        <time>2020-06-03T17:20:14Z</time>
      </trkpt>
      <trkpt lat="46.71581" lon="-1.90662">
        <ele>10</ele>
        <time>2020-06-03T17:20:15Z</time>
      </trkpt>
      <trkpt lat="46.71585" lon="-1.90656">
        <ele>10</ele>
        <time>2020-06-03T17:20:16Z</time>
      </trkpt>
      <trkpt lat="46.71589" lon="-1.90649">
        <ele>10</ele>
        <time>2020-06-03T17:20:17Z</time>
      </trkpt>
      <trkpt lat="46.71593" lon="-1.90642">
        <ele>9.9</ele>
        <time>2020-06-03T17:20:18Z</time>
      </trkpt>
      <trkpt lat="46.71598" lon="-1.90636">
        <ele>9.9</ele>
        <time>2020-06-03T17:20:19Z</time>
      </trkpt>
      <trkpt lat="46.71602" lon="-1.9063">
        <ele>9.9</ele>
        <time>2020-06-03T17:20:20Z</time>
      </trkpt>
      <trkpt lat="46.71608" lon="-1.90624">
        <ele>9.8</ele>
        <time>2020-06-03T17:20:21Z</time>
      </trkpt>
      <trkpt lat="46.71613" lon="-1.90618">
        <ele>9.8</ele>
        <time>2020-06-03T17:20:22Z</time>
      </trkpt>
      <trkpt lat="46.71617" lon="-1.90612">
        <ele>9.7</ele>
        <time>2020-06-03T17:20:23Z</time>
      </trkpt>
      <trkpt lat="46.71622" lon="-1.90606">
        <ele>9.6</ele>
        <time>2020-06-03T17:20:24Z</time>
      </trkpt>
      <trkpt lat="46.71627" lon="-1.906">
        <ele>9.5</ele>
        <time>2020-06-03T17:20:25Z</time>
      </trkpt>
      <trkpt lat="46.71633" lon="-1.90593">
        <ele>9.3</ele>
        <time>2020-06-03T17:20:26Z</time>
      </trkpt>
      <trkpt lat="46.71638" lon="-1.90586">
        <ele>9.2</ele>
        <time>2020-06-03T17:20:27Z</time>
      </trkpt>
      <trkpt lat="46.71643" lon="-1.90579">
        <ele>9.1</ele>
        <time>2020-06-03T17:20:28Z</time>
      </trkpt>
      <trkpt lat="46.71649" lon="-1.90573">
        <ele>9</ele>
        <time>2020-06-03T17:20:29Z</time>
      </trkpt>
      <trkpt lat="46.71654" lon="-1.90567">
        <ele>8.9</ele>
        <time>2020-06-03T17:20:30Z</time>
      </trkpt>
      <trkpt lat="46.71659" lon="-1.9056">
        <ele>8.8</ele>
        <time>2020-06-03T17:20:31Z</time>
      </trkpt>
      <trkpt lat="46.71665" lon="-1.90554">
        <ele>8.7</ele>
        <time>2020-06-03T17:20:32Z</time>
      </trkpt>
      <trkpt lat="46.71671" lon="-1.90547">
        <ele>8.6</ele>
        <time>2020-06-03T17:20:33Z</time>
      </trkpt>
      <trkpt lat="46.71676" lon="-1.90541">
        <ele>8.5</ele>
        <time>2020-06-03T17:20:34Z</time>
      </trkpt>
      <trkpt lat="46.7168" lon="-1.90534">
        <ele>8.5</ele>
        <time>2020-06-03T17:20:35Z</time>
      </trkpt>
      <trkpt lat="46.71685" lon="-1.90528">
        <ele>8.4</ele>
        <time>2020-06-03T17:20:36Z</time>
      </trkpt>
      <trkpt lat="46.71689" lon="-1.90522">
        <ele>8.4</ele>
        <time>2020-06-03T17:20:37Z</time>
      </trkpt>
      <trkpt lat="46.71694" lon="-1.90517">
        <ele>8.3</ele>
        <time>2020-06-03T17:20:38Z</time>
      </trkpt>
      <trkpt lat="46.71699" lon="-1.90511">
        <ele>8.1</ele>
        <time>2020-06-03T17:20:39Z</time>
      </trkpt>
      <trkpt lat="46.71705" lon="-1.90505">
        <ele>8</ele>
        <time>2020-06-03T17:20:40Z</time>
      </trkpt>
      <trkpt lat="46.71709" lon="-1.90499">
        <ele>7.9</ele>
        <time>2020-06-03T17:20:41Z</time>
      </trkpt>
      <trkpt lat="46.71714" lon="-1.90493">
        <ele>7.7</ele>
        <time>2020-06-03T17:20:42Z</time>
      </trkpt>
      <trkpt lat="46.71719" lon="-1.90487">
        <ele>7.6</ele>
        <time>2020-06-03T17:20:43Z</time>
      </trkpt>
      <trkpt lat="46.71724" lon="-1.90481">
        <ele>7.4</ele>
        <time>2020-06-03T17:20:44Z</time>
      </trkpt>
      <trkpt lat="46.71729" lon="-1.90475">
        <ele>7.3</ele>
        <time>2020-06-03T17:20:45Z</time>
      </trkpt>
      <trkpt lat="46.71735" lon="-1.90468">
        <ele>7.1</ele>
        <time>2020-06-03T17:20:46Z</time>
      </trkpt>
      <trkpt lat="46.7174" lon="-1.90462">
        <ele>7</ele>
        <time>2020-06-03T17:20:47Z</time>
      </trkpt>
      <trkpt lat="46.71745" lon="-1.90456">
        <ele>6.9</ele>
        <time>2020-06-03T17:20:48Z</time>
      </trkpt>
      <trkpt lat="46.7175" lon="-1.9045">
        <ele>6.9</ele>
        <time>2020-06-03T17:20:49Z</time>
      </trkpt>
      <trkpt lat="46.71755" lon="-1.90443">
        <ele>6.8</ele>
        <time>2020-06-03T17:20:50Z</time>
      </trkpt>
      <trkpt lat="46.7176" lon="-1.90436">
        <ele>6.8</ele>
        <time>2020-06-03T17:20:51Z</time>
      </trkpt>
      <trkpt lat="46.71765" lon="-1.9043">
        <ele>6.7</ele>
        <time>2020-06-03T17:20:52Z</time>
      </trkpt>
      <trkpt lat="46.7177" lon="-1.90424">
        <ele>6.6</ele>
        <time>2020-06-03T17:20:53Z</time>
      </trkpt>
      <trkpt lat="46.71776" lon="-1.90418">
        <ele>6.5</ele>
        <time>2020-06-03T17:20:54Z</time>
      </trkpt>
      <trkpt lat="46.71782" lon="-1.90411">
        <ele>6.4</ele>
        <time>2020-06-03T17:20:55Z</time>
      </trkpt>
      <trkpt lat="46.71787" lon="-1.90405">
        <ele>6.3</ele>
        <time>2020-06-03T17:20:56Z</time>
      </trkpt>
      <trkpt lat="46.71792" lon="-1.904">
        <ele>6.1</ele>
        <time>2020-06-03T17:20:57Z</time>
      </trkpt>
      <trkpt lat="46.71797" lon="-1.90395">
        <ele>6</ele>
        <time>2020-06-03T17:20:58Z</time>
      </trkpt>
      <trkpt lat="46.71802" lon="-1.90389">
        <ele>5.9</ele>
        <time>2020-06-03T17:20:59Z</time>
      </trkpt>
      <trkpt lat="46.71806" lon="-1.90384">
        <ele>5.8</ele>
        <time>2020-06-03T17:21:00Z</time>
      </trkpt>
      <trkpt lat="46.71811" lon="-1.90378">
        <ele>5.7</ele>
        <time>2020-06-03T17:21:01Z</time>
      </trkpt>
      <trkpt lat="46.71816" lon="-1.90373">
        <ele>5.6</ele>
        <time>2020-06-03T17:21:02Z</time>
      </trkpt>
      <trkpt lat="46.7182" lon="-1.90368">
        <ele>5.6</ele>
        <time>2020-06-03T17:21:03Z</time>
      </trkpt>
      <trkpt lat="46.71825" lon="-1.90362">
        <ele>5.5</ele>
        <time>2020-06-03T17:21:04Z</time>
      </trkpt>
      <trkpt lat="46.71829" lon="-1.90357">
        <ele>5.5</ele>
        <time>2020-06-03T17:21:05Z</time>
      </trkpt>
      <trkpt lat="46.71833" lon="-1.90352">
        <ele>5.5</ele>
        <time>2020-06-03T17:21:06Z</time>
      </trkpt>
      <trkpt lat="46.71838" lon="-1.90349">
        <ele>5.4</ele>
        <time>2020-06-03T17:21:07Z</time>
      </trkpt>
      <trkpt lat="46.71841" lon="-1.90348">
        <ele>5.4</ele>
        <time>2020-06-03T17:21:08Z</time>
      </trkpt>
      <trkpt lat="46.71845" lon="-1.90349">
        <ele>5.4</ele>
        <time>2020-06-03T17:21:09Z</time>
      </trkpt>
      <trkpt lat="46.71849" lon="-1.90353">
        <ele>5.2</ele>
        <time>2020-06-03T17:21:10Z</time>
      </trkpt>
      <trkpt lat="46.71854" lon="-1.9036">
        <ele>5.2</ele>
        <time>2020-06-03T17:21:11Z</time>
      </trkpt>
      <trkpt lat="46.71857" lon="-1.90369">
        <ele>5.1</ele>
        <time>2020-06-03T17:21:12Z</time>
      </trkpt>
      <trkpt lat="46.71859" lon="-1.90376">
        <ele>5.1</ele>
        <time>2020-06-03T17:21:13Z</time>
      </trkpt>
      <trkpt lat="46.7186" lon="-1.90384">
        <ele>5.1</ele>
        <time>2020-06-03T17:21:14Z</time>
      </trkpt>
      <trkpt lat="46.71861" lon="-1.90392">
        <ele>5</ele>
        <time>2020-06-03T17:21:15Z</time>
      </trkpt>
      <trkpt lat="46.71862" lon="-1.90399">
        <ele>5</ele>
        <time>2020-06-03T17:21:16Z</time>
      </trkpt>
      <trkpt lat="46.71861" lon="-1.90405">
        <ele>5</ele>
        <time>2020-06-03T17:21:17Z</time>
      </trkpt>
      <trkpt lat="46.71859" lon="-1.90413">
        <ele>5</ele>
        <time>2020-06-03T17:21:18Z</time>
      </trkpt>
      <trkpt lat="46.71857" lon="-1.90421">
        <ele>4.9</ele>
        <time>2020-06-03T17:21:19Z</time>
      </trkpt>
      <trkpt lat="46.71855" lon="-1.9043">
        <ele>5</ele>
        <time>2020-06-03T17:21:20Z</time>
      </trkpt>
      <trkpt lat="46.71853" lon="-1.90435">
        <ele>5</ele>
        <time>2020-06-03T17:21:21Z</time>
      </trkpt>
      <trkpt lat="46.71852" lon="-1.90441">
        <ele>5</ele>
        <time>2020-06-03T17:21:22Z</time>
      </trkpt>
      <trkpt lat="46.71851" lon="-1.90446">
        <ele>5.1</ele>
        <time>2020-06-03T17:21:23Z</time>
      </trkpt>
      <trkpt lat="46.71852" lon="-1.90451">
        <ele>5.1</ele>
        <time>2020-06-03T17:21:24Z</time>
      </trkpt>
      <trkpt lat="46.71854" lon="-1.90456">
        <ele>5.2</ele>
        <time>2020-06-03T17:21:25Z</time>
      </trkpt>
      <trkpt lat="46.71855" lon="-1.9046">
        <ele>5.2</ele>
        <time>2020-06-03T17:21:26Z</time>
      </trkpt>
      <trkpt lat="46.71858" lon="-1.90465">
        <ele>5.3</ele>
        <time>2020-06-03T17:21:27Z</time>
      </trkpt>
      <trkpt lat="46.7186" lon="-1.90469">
        <ele>5.3</ele>
        <time>2020-06-03T17:21:28Z</time>
      </trkpt>
      <trkpt lat="46.71862" lon="-1.90472">
        <ele>5.3</ele>
        <time>2020-06-03T17:21:29Z</time>
      </trkpt>
      <trkpt lat="46.71865" lon="-1.90477">
        <ele>5.4</ele>
        <time>2020-06-03T17:21:30Z</time>
      </trkpt>
      <trkpt lat="46.71867" lon="-1.90482">
        <ele>5.5</ele>
        <time>2020-06-03T17:21:31Z</time>
      </trkpt>
      <trkpt lat="46.71869" lon="-1.90486">
        <ele>5.5</ele>
        <time>2020-06-03T17:21:32Z</time>
      </trkpt>
      <trkpt lat="46.71871" lon="-1.90492">
        <ele>5.6</ele>
        <time>2020-06-03T17:21:33Z</time>
      </trkpt>
      <trkpt lat="46.71874" lon="-1.90496">
        <ele>5.7</ele>
        <time>2020-06-03T17:21:34Z</time>
      </trkpt>
      <trkpt lat="46.71875" lon="-1.90501">
        <ele>5.8</ele>
        <time>2020-06-03T17:21:35Z</time>
      </trkpt>
      <trkpt lat="46.71877" lon="-1.90507">
        <ele>5.9</ele>
        <time>2020-06-03T17:21:36Z</time>
      </trkpt>
      <trkpt lat="46.7188" lon="-1.90512">
        <ele>5.9</ele>
        <time>2020-06-03T17:21:37Z</time>
      </trkpt>
      <trkpt lat="46.71882" lon="-1.90516">
        <ele>6</ele>
        <time>2020-06-03T17:21:38Z</time>
      </trkpt>
      <trkpt lat="46.71884" lon="-1.90521">
        <ele>6.1</ele>
        <time>2020-06-03T17:21:39Z</time>
      </trkpt>
      <trkpt lat="46.71886" lon="-1.90526">
        <ele>6.2</ele>
        <time>2020-06-03T17:21:40Z</time>
      </trkpt>
      <trkpt lat="46.71888" lon="-1.9053">
        <ele>6.2</ele>
        <time>2020-06-03T17:21:41Z</time>
      </trkpt>
      <trkpt lat="46.7189" lon="-1.90534">
        <ele>6.3</ele>
        <time>2020-06-03T17:21:42Z</time>
      </trkpt>
      <trkpt lat="46.71892" lon="-1.90538">
        <ele>6.3</ele>
        <time>2020-06-03T17:21:43Z</time>
      </trkpt>
      <trkpt lat="46.71894" lon="-1.90542">
        <ele>6.4</ele>
        <time>2020-06-03T17:21:44Z</time>
      </trkpt>
      <trkpt lat="46.71897" lon="-1.90547">
        <ele>6.4</ele>
        <time>2020-06-03T17:21:45Z</time>
      </trkpt>
      <trkpt lat="46.71898" lon="-1.90548">
        <ele>6.5</ele>
        <time>2020-06-03T17:21:46Z</time>
      </trkpt>
      <trkpt lat="46.71901" lon="-1.90551">
        <ele>6.5</ele>
        <time>2020-06-03T17:21:47Z</time>
      </trkpt>
      <trkpt lat="46.71903" lon="-1.90555">
        <ele>6.5</ele>
        <time>2020-06-03T17:21:48Z</time>
      </trkpt>
      <trkpt lat="46.71905" lon="-1.90559">
        <ele>6.6</ele>
        <time>2020-06-03T17:21:49Z</time>
      </trkpt>
      <trkpt lat="46.71907" lon="-1.90563">
        <ele>6.6</ele>
        <time>2020-06-03T17:21:50Z</time>
      </trkpt>
      <trkpt lat="46.71908" lon="-1.90567">
        <ele>6.6</ele>
        <time>2020-06-03T17:21:51Z</time>
      </trkpt>
      <trkpt lat="46.7191" lon="-1.90572">
        <ele>6.6</ele>
        <time>2020-06-03T17:21:52Z</time>
      </trkpt>
      <trkpt lat="46.71912" lon="-1.90575">
        <ele>6.7</ele>
        <time>2020-06-03T17:21:53Z</time>
      </trkpt>
      <trkpt lat="46.71915" lon="-1.9058">
        <ele>6.7</ele>
        <time>2020-06-03T17:21:54Z</time>
      </trkpt>
      <trkpt lat="46.71917" lon="-1.90584">
        <ele>6.7</ele>
        <time>2020-06-03T17:21:55Z</time>
      </trkpt>
      <trkpt lat="46.71918" lon="-1.90589">
        <ele>6.7</ele>
        <time>2020-06-03T17:21:56Z</time>
      </trkpt>
      <trkpt lat="46.71919" lon="-1.90594">
        <ele>6.7</ele>
        <time>2020-06-03T17:21:57Z</time>
      </trkpt>
      <trkpt lat="46.7192" lon="-1.90598">
        <ele>6.7</ele>
        <time>2020-06-03T17:21:58Z</time>
      </trkpt>
      <trkpt lat="46.71922" lon="-1.90601">
        <ele>6.8</ele>
        <time>2020-06-03T17:21:59Z</time>
      </trkpt>
      <trkpt lat="46.71923" lon="-1.90606">
        <ele>6.8</ele>
        <time>2020-06-03T17:22:00Z</time>
      </trkpt>
      <trkpt lat="46.71925" lon="-1.90612">
        <ele>6.8</ele>
        <time>2020-06-03T17:22:01Z</time>
      </trkpt>
      <trkpt lat="46.71927" lon="-1.90617">
        <ele>6.8</ele>
        <time>2020-06-03T17:22:02Z</time>
      </trkpt>
      <trkpt lat="46.71929" lon="-1.90623">
        <ele>6.8</ele>
        <time>2020-06-03T17:22:03Z</time>
      </trkpt>
      <trkpt lat="46.71932" lon="-1.90628">
        <ele>6.8</ele>
        <time>2020-06-03T17:22:04Z</time>
      </trkpt>
      <trkpt lat="46.71934" lon="-1.90634">
        <ele>6.8</ele>
        <time>2020-06-03T17:22:05Z</time>
      </trkpt>
      <trkpt lat="46.71937" lon="-1.90639">
        <ele>6.8</ele>
        <time>2020-06-03T17:22:06Z</time>
      </trkpt>
      <trkpt lat="46.7194" lon="-1.90643">
        <ele>6.8</ele>
        <time>2020-06-03T17:22:07Z</time>
      </trkpt>
      <trkpt lat="46.71943" lon="-1.90648">
        <ele>6.8</ele>
        <time>2020-06-03T17:22:08Z</time>
      </trkpt>
      <trkpt lat="46.71945" lon="-1.90652">
        <ele>6.8</ele>
        <time>2020-06-03T17:22:09Z</time>
      </trkpt>
      <trkpt lat="46.71948" lon="-1.90657">
        <ele>6.8</ele>
        <time>2020-06-03T17:22:10Z</time>
      </trkpt>
      <trkpt lat="46.71949" lon="-1.90662">
        <ele>6.8</ele>
        <time>2020-06-03T17:22:11Z</time>
      </trkpt>
      <trkpt lat="46.71952" lon="-1.90667">
        <ele>6.8</ele>
        <time>2020-06-03T17:22:12Z</time>
      </trkpt>
      <trkpt lat="46.71955" lon="-1.90672">
        <ele>6.8</ele>
        <time>2020-06-03T17:22:13Z</time>
      </trkpt>
      <trkpt lat="46.71957" lon="-1.90677">
        <ele>6.8</ele>
        <time>2020-06-03T17:22:14Z</time>
      </trkpt>
      <trkpt lat="46.71959" lon="-1.90682">
        <ele>6.8</ele>
        <time>2020-06-03T17:22:15Z</time>
      </trkpt>
      <trkpt lat="46.71961" lon="-1.90688">
        <ele>6.7</ele>
        <time>2020-06-03T17:22:16Z</time>
      </trkpt>
      <trkpt lat="46.71964" lon="-1.90693">
        <ele>6.7</ele>
        <time>2020-06-03T17:22:17Z</time>
      </trkpt>
      <trkpt lat="46.71966" lon="-1.907">
        <ele>6.6</ele>
        <time>2020-06-03T17:22:18Z</time>
      </trkpt>
      <trkpt lat="46.71968" lon="-1.90706">
        <ele>6.6</ele>
        <time>2020-06-03T17:22:19Z</time>
      </trkpt>
      <trkpt lat="46.7197" lon="-1.90712">
        <ele>6.5</ele>
        <time>2020-06-03T17:22:20Z</time>
      </trkpt>
      <trkpt lat="46.71972" lon="-1.90716">
        <ele>6.5</ele>
        <time>2020-06-03T17:22:21Z</time>
      </trkpt>
      <trkpt lat="46.71974" lon="-1.90721">
        <ele>6.5</ele>
        <time>2020-06-03T17:22:22Z</time>
      </trkpt>
      <trkpt lat="46.71976" lon="-1.90726">
        <ele>6.4</ele>
        <time>2020-06-03T17:22:23Z</time>
      </trkpt>
      <trkpt lat="46.7198" lon="-1.90731">
        <ele>6.4</ele>
        <time>2020-06-03T17:22:24Z</time>
      </trkpt>
      <trkpt lat="46.71983" lon="-1.90737">
        <ele>6.3</ele>
        <time>2020-06-03T17:22:25Z</time>
      </trkpt>
      <trkpt lat="46.71986" lon="-1.90742">
        <ele>6.3</ele>
        <time>2020-06-03T17:22:26Z</time>
      </trkpt>
      <trkpt lat="46.71989" lon="-1.90747">
        <ele>6.2</ele>
        <time>2020-06-03T17:22:27Z</time>
      </trkpt>
      <trkpt lat="46.71991" lon="-1.90751">
        <ele>6.2</ele>
        <time>2020-06-03T17:22:28Z</time>
      </trkpt>
      <trkpt lat="46.71994" lon="-1.90757">
        <ele>6.2</ele>
        <time>2020-06-03T17:22:29Z</time>
      </trkpt>
      <trkpt lat="46.71997" lon="-1.90762">
        <ele>6.1</ele>
        <time>2020-06-03T17:22:30Z</time>
      </trkpt>
      <trkpt lat="46.71999" lon="-1.90768">
        <ele>6.1</ele>
        <time>2020-06-03T17:22:31Z</time>
      </trkpt>
      <trkpt lat="46.72001" lon="-1.90773">
        <ele>6.1</ele>
        <time>2020-06-03T17:22:32Z</time>
      </trkpt>
      <trkpt lat="46.72004" lon="-1.90778">
        <ele>6</ele>
        <time>2020-06-03T17:22:33Z</time>
      </trkpt>
      <trkpt lat="46.72007" lon="-1.90783">
        <ele>6</ele>
        <time>2020-06-03T17:22:34Z</time>
      </trkpt>
      <trkpt lat="46.72009" lon="-1.90788">
        <ele>5.9</ele>
        <time>2020-06-03T17:22:35Z</time>
      </trkpt>
      <trkpt lat="46.72012" lon="-1.90793">
        <ele>5.9</ele>
        <time>2020-06-03T17:22:36Z</time>
      </trkpt>
      <trkpt lat="46.72015" lon="-1.90799">
        <ele>5.8</ele>
        <time>2020-06-03T17:22:37Z</time>
      </trkpt>
      <trkpt lat="46.72018" lon="-1.90805">
        <ele>5.8</ele>
        <time>2020-06-03T17:22:38Z</time>
      </trkpt>
      <trkpt lat="46.72021" lon="-1.90811">
        <ele>5.7</ele>
        <time>2020-06-03T17:22:39Z</time>
      </trkpt>
      <trkpt lat="46.72023" lon="-1.90817">
        <ele>5.7</ele>
        <time>2020-06-03T17:22:40Z</time>
      </trkpt>
      <trkpt lat="46.72025" lon="-1.90823">
        <ele>5.6</ele>
        <time>2020-06-03T17:22:41Z</time>
      </trkpt>
      <trkpt lat="46.72027" lon="-1.90829">
        <ele>5.6</ele>
        <time>2020-06-03T17:22:42Z</time>
      </trkpt>
      <trkpt lat="46.72029" lon="-1.90835">
        <ele>5.5</ele>
        <time>2020-06-03T17:22:43Z</time>
      </trkpt>
      <trkpt lat="46.72031" lon="-1.9084">
        <ele>5.4</ele>
        <time>2020-06-03T17:22:44Z</time>
      </trkpt>
      <trkpt lat="46.72033" lon="-1.90847">
        <ele>5.4</ele>
        <time>2020-06-03T17:22:45Z</time>
      </trkpt>
      <trkpt lat="46.72036" lon="-1.90853">
        <ele>5.3</ele>
        <time>2020-06-03T17:22:46Z</time>
      </trkpt>
      <trkpt lat="46.72038" lon="-1.9086">
        <ele>5.2</ele>
        <time>2020-06-03T17:22:47Z</time>
      </trkpt>
      <trkpt lat="46.7204" lon="-1.90867">
        <ele>5.1</ele>
        <time>2020-06-03T17:22:48Z</time>
      </trkpt>
      <trkpt lat="46.72042" lon="-1.90874">
        <ele>5</ele>
        <time>2020-06-03T17:22:49Z</time>
      </trkpt>
      <trkpt lat="46.72045" lon="-1.9088">
        <ele>4.9</ele>
        <time>2020-06-03T17:22:50Z</time>
      </trkpt>
      <trkpt lat="46.72048" lon="-1.90886">
        <ele>4.8</ele>
        <time>2020-06-03T17:22:51Z</time>
      </trkpt>
      <trkpt lat="46.7205" lon="-1.90891">
        <ele>4.6</ele>
        <time>2020-06-03T17:22:52Z</time>
      </trkpt>
      <trkpt lat="46.72053" lon="-1.90896">
        <ele>4.5</ele>
        <time>2020-06-03T17:22:53Z</time>
      </trkpt>
      <trkpt lat="46.72057" lon="-1.90902">
        <ele>4.3</ele>
        <time>2020-06-03T17:22:54Z</time>
      </trkpt>
      <trkpt lat="46.7206" lon="-1.90908">
        <ele>4.2</ele>
        <time>2020-06-03T17:22:55Z</time>
      </trkpt>
      <trkpt lat="46.72064" lon="-1.90914">
        <ele>4</ele>
        <time>2020-06-03T17:22:56Z</time>
      </trkpt>
      <trkpt lat="46.72068" lon="-1.90921">
        <ele>3.8</ele>
        <time>2020-06-03T17:22:57Z</time>
      </trkpt>
      <trkpt lat="46.72071" lon="-1.90927">
        <ele>3.6</ele>
        <time>2020-06-03T17:22:58Z</time>
      </trkpt>
      <trkpt lat="46.72075" lon="-1.90933">
        <ele>3.5</ele>
        <time>2020-06-03T17:22:59Z</time>
      </trkpt>
      <trkpt lat="46.72079" lon="-1.90939">
        <ele>3.3</ele>
        <time>2020-06-03T17:23:00Z</time>
      </trkpt>
      <trkpt lat="46.72082" lon="-1.90945">
        <ele>3.2</ele>
        <time>2020-06-03T17:23:01Z</time>
      </trkpt>
      <trkpt lat="46.72086" lon="-1.90952">
        <ele>3</ele>
        <time>2020-06-03T17:23:02Z</time>
      </trkpt>
      <trkpt lat="46.72089" lon="-1.90959">
        <ele>2.8</ele>
        <time>2020-06-03T17:23:03Z</time>
      </trkpt>
      <trkpt lat="46.72093" lon="-1.90966">
        <ele>2.7</ele>
        <time>2020-06-03T17:23:04Z</time>
      </trkpt>
      <trkpt lat="46.72096" lon="-1.90973">
        <ele>2.6</ele>
        <time>2020-06-03T17:23:05Z</time>
      </trkpt>
      <trkpt lat="46.721" lon="-1.9098">
        <ele>2.5</ele>
        <time>2020-06-03T17:23:06Z</time>
      </trkpt>
      <trkpt lat="46.72103" lon="-1.90986">
        <ele>2.4</ele>
        <time>2020-06-03T17:23:07Z</time>
      </trkpt>
      <trkpt lat="46.72107" lon="-1.90992">
        <ele>2.4</ele>
        <time>2020-06-03T17:23:08Z</time>
      </trkpt>
      <trkpt lat="46.7211" lon="-1.90998">
        <ele>2.3</ele>
        <time>2020-06-03T17:23:09Z</time>
      </trkpt>
      <trkpt lat="46.72113" lon="-1.91004">
        <ele>2.3</ele>
        <time>2020-06-03T17:23:10Z</time>
      </trkpt>
      <trkpt lat="46.72116" lon="-1.9101">
        <ele>2.2</ele>
        <time>2020-06-03T17:23:11Z</time>
      </trkpt>
      <trkpt lat="46.72119" lon="-1.91017">
        <ele>2.2</ele>
        <time>2020-06-03T17:23:12Z</time>
      </trkpt>
      <trkpt lat="46.72122" lon="-1.91023">
        <ele>2.2</ele>
        <time>2020-06-03T17:23:13Z</time>
      </trkpt>
      <trkpt lat="46.72125" lon="-1.91029">
        <ele>2.2</ele>
        <time>2020-06-03T17:23:14Z</time>
      </trkpt>
      <trkpt lat="46.72128" lon="-1.91034">
        <ele>2.1</ele>
        <time>2020-06-03T17:23:15Z</time>
      </trkpt>
      <trkpt lat="46.72132" lon="-1.91039">
        <ele>2.1</ele>
        <time>2020-06-03T17:23:16Z</time>
      </trkpt>
      <trkpt lat="46.72136" lon="-1.91044">
        <ele>2</ele>
        <time>2020-06-03T17:23:17Z</time>
      </trkpt>
      <trkpt lat="46.7214" lon="-1.91047">
        <ele>2</ele>
        <time>2020-06-03T17:23:18Z</time>
      </trkpt>
      <trkpt lat="46.72143" lon="-1.91051">
        <ele>1.9</ele>
        <time>2020-06-03T17:23:19Z</time>
      </trkpt>
      <trkpt lat="46.72146" lon="-1.91055">
        <ele>1.8</ele>
        <time>2020-06-03T17:23:20Z</time>
      </trkpt>
      <trkpt lat="46.72149" lon="-1.91059">
        <ele>1.8</ele>
        <time>2020-06-03T17:23:21Z</time>
      </trkpt>
      <trkpt lat="46.72152" lon="-1.91062">
        <ele>1.7</ele>
        <time>2020-06-03T17:23:22Z</time>
      </trkpt>
      <trkpt lat="46.72156" lon="-1.91065">
        <ele>1.7</ele>
        <time>2020-06-03T17:23:23Z</time>
      </trkpt>
      <trkpt lat="46.72159" lon="-1.91067">
        <ele>1.6</ele>
        <time>2020-06-03T17:23:24Z</time>
      </trkpt>
      <trkpt lat="46.72163" lon="-1.9107">
        <ele>1.6</ele>
        <time>2020-06-03T17:23:25Z</time>
      </trkpt>
      <trkpt lat="46.72166" lon="-1.91073">
        <ele>1.5</ele>
        <time>2020-06-03T17:23:26Z</time>
      </trkpt>
      <trkpt lat="46.72169" lon="-1.91075">
        <ele>1.5</ele>
        <time>2020-06-03T17:23:27Z</time>
      </trkpt>
      <trkpt lat="46.72173" lon="-1.91078">
        <ele>1.4</ele>
        <time>2020-06-03T17:23:28Z</time>
      </trkpt>
      <trkpt lat="46.72176" lon="-1.91081">
        <ele>1.4</ele>
        <time>2020-06-03T17:23:29Z</time>
      </trkpt>
      <trkpt lat="46.7218" lon="-1.91085">
        <ele>1.3</ele>
        <time>2020-06-03T17:23:30Z</time>
      </trkpt>
      <trkpt lat="46.72183" lon="-1.91087">
        <ele>1.3</ele>
        <time>2020-06-03T17:23:31Z</time>
      </trkpt>
      <trkpt lat="46.72186" lon="-1.91091">
        <ele>1.3</ele>
        <time>2020-06-03T17:23:32Z</time>
      </trkpt>
      <trkpt lat="46.72189" lon="-1.91093">
        <ele>1.2</ele>
        <time>2020-06-03T17:23:33Z</time>
      </trkpt>
      <trkpt lat="46.72193" lon="-1.91096">
        <ele>1.2</ele>
        <time>2020-06-03T17:23:34Z</time>
      </trkpt>
      <trkpt lat="46.72196" lon="-1.91099">
        <ele>1.2</ele>
        <time>2020-06-03T17:23:35Z</time>
      </trkpt>
      <trkpt lat="46.722" lon="-1.91102">
        <ele>1.1</ele>
        <time>2020-06-03T17:23:36Z</time>
      </trkpt>
      <trkpt lat="46.72204" lon="-1.91105">
        <ele>1.1</ele>
        <time>2020-06-03T17:23:37Z</time>
      </trkpt>
      <trkpt lat="46.72207" lon="-1.91109">
        <ele>1.1</ele>
        <time>2020-06-03T17:23:38Z</time>
      </trkpt>
      <trkpt lat="46.7221" lon="-1.91112">
        <ele>1</ele>
        <time>2020-06-03T17:23:39Z</time>
      </trkpt>
      <trkpt lat="46.72213" lon="-1.91116">
        <ele>1</ele>
        <time>2020-06-03T17:23:40Z</time>
      </trkpt>
      <trkpt lat="46.72217" lon="-1.9112">
        <ele>1</ele>
        <time>2020-06-03T17:23:41Z</time>
      </trkpt>
      <trkpt lat="46.72221" lon="-1.91123">
        <ele>0.9</ele>
        <time>2020-06-03T17:23:42Z</time>
      </trkpt>
      <trkpt lat="46.72225" lon="-1.91127">
        <ele>0.9</ele>
        <time>2020-06-03T17:23:43Z</time>
      </trkpt>
      <trkpt lat="46.72229" lon="-1.91129">
        <ele>0.8</ele>
        <time>2020-06-03T17:23:44Z</time>
      </trkpt>
      <trkpt lat="46.72232" lon="-1.91132">
        <ele>0.8</ele>
        <time>2020-06-03T17:23:45Z</time>
      </trkpt>
      <trkpt lat="46.72235" lon="-1.91135">
        <ele>0.8</ele>
        <time>2020-06-03T17:23:46Z</time>
      </trkpt>
      <trkpt lat="46.72238" lon="-1.91137">
        <ele>0.8</ele>
        <time>2020-06-03T17:23:47Z</time>
      </trkpt>
      <trkpt lat="46.72241" lon="-1.9114">
        <ele>0.8</ele>
        <time>2020-06-03T17:23:48Z</time>
      </trkpt>
      <trkpt lat="46.72245" lon="-1.91143">
        <ele>0.8</ele>
        <time>2020-06-03T17:23:49Z</time>
      </trkpt>
      <trkpt lat="46.72249" lon="-1.91146">
        <ele>0.7</ele>
        <time>2020-06-03T17:23:50Z</time>
      </trkpt>
      <trkpt lat="46.72252" lon="-1.91149">
        <ele>0.7</ele>
        <time>2020-06-03T17:23:51Z</time>
      </trkpt>
      <trkpt lat="46.72256" lon="-1.91152">
        <ele>0.7</ele>
        <time>2020-06-03T17:23:52Z</time>
      </trkpt>
      <trkpt lat="46.72259" lon="-1.91155">
        <ele>0.7</ele>
        <time>2020-06-03T17:23:53Z</time>
      </trkpt>
      <trkpt lat="46.72263" lon="-1.91159">
        <ele>0.6</ele>
        <time>2020-06-03T17:23:54Z</time>
      </trkpt>
      <trkpt lat="46.72266" lon="-1.91162">
        <ele>0.6</ele>
        <time>2020-06-03T17:23:55Z</time>
      </trkpt>
      <trkpt lat="46.72269" lon="-1.91166">
        <ele>0.5</ele>
        <time>2020-06-03T17:23:56Z</time>
      </trkpt>
      <trkpt lat="46.72273" lon="-1.9117">
        <ele>0.5</ele>
        <time>2020-06-03T17:23:57Z</time>
      </trkpt>
      <trkpt lat="46.72277" lon="-1.91173">
        <ele>0.5</ele>
        <time>2020-06-03T17:23:58Z</time>
      </trkpt>
      <trkpt lat="46.72281" lon="-1.91176">
        <ele>0.4</ele>
        <time>2020-06-03T17:23:59Z</time>
      </trkpt>
      <trkpt lat="46.72285" lon="-1.91179">
        <ele>0.4</ele>
        <time>2020-06-03T17:24:00Z</time>
      </trkpt>
      <trkpt lat="46.72289" lon="-1.91182">
        <ele>0.4</ele>
        <time>2020-06-03T17:24:01Z</time>
      </trkpt>
      <trkpt lat="46.72293" lon="-1.91185">
        <ele>0.4</ele>
        <time>2020-06-03T17:24:02Z</time>
      </trkpt>
      <trkpt lat="46.72296" lon="-1.91187">
        <ele>0.3</ele>
        <time>2020-06-03T17:24:03Z</time>
      </trkpt>
      <trkpt lat="46.723" lon="-1.9119">
        <ele>0.3</ele>
        <time>2020-06-03T17:24:04Z</time>
      </trkpt>
      <trkpt lat="46.72304" lon="-1.91194">
        <ele>0.3</ele>
        <time>2020-06-03T17:24:05Z</time>
      </trkpt>
      <trkpt lat="46.72308" lon="-1.91197">
        <ele>0.3</ele>
        <time>2020-06-03T17:24:06Z</time>
      </trkpt>
      <trkpt lat="46.72311" lon="-1.91201">
        <ele>0.3</ele>
        <time>2020-06-03T17:24:07Z</time>
      </trkpt>
      <trkpt lat="46.72315" lon="-1.91205">
        <ele>0.2</ele>
        <time>2020-06-03T17:24:08Z</time>
      </trkpt>
      <trkpt lat="46.72319" lon="-1.91209">
        <ele>0.2</ele>
        <time>2020-06-03T17:24:09Z</time>
      </trkpt>
      <trkpt lat="46.72322" lon="-1.91213">
        <ele>0.2</ele>
        <time>2020-06-03T17:24:10Z</time>
      </trkpt>
      <trkpt lat="46.72327" lon="-1.91216">
        <ele>0.1</ele>
        <time>2020-06-03T17:24:11Z</time>
      </trkpt>
      <trkpt lat="46.72331" lon="-1.91219">
        <ele>0.1</ele>
        <time>2020-06-03T17:24:12Z</time>
      </trkpt>
      <trkpt lat="46.72335" lon="-1.91223">
        <ele>1</ele>
        <time>2020-06-03T17:24:13Z</time>
      </trkpt>
      <trkpt lat="46.7234" lon="-1.91224">
        <ele>1</ele>
        <time>2020-06-03T17:24:14Z</time>
      </trkpt>
      <trkpt lat="46.72343" lon="-1.91224">
        <ele>1</ele>
        <time>2020-06-03T17:24:15Z</time>
      </trkpt>
      <trkpt lat="46.72347" lon="-1.91223">
        <ele>-0.1</ele>
        <time>2020-06-03T17:24:16Z</time>
      </trkpt>
      <trkpt lat="46.72352" lon="-1.91221">
        <ele>-0.1</ele>
        <time>2020-06-03T17:24:17Z</time>
      </trkpt>
      <trkpt lat="46.72356" lon="-1.91218">
        <ele>-0.1</ele>
        <time>2020-06-03T17:24:18Z</time>
      </trkpt>
      <trkpt lat="46.7236" lon="-1.91213">
        <ele>-0.2</ele>
        <time>2020-06-03T17:24:19Z</time>
      </trkpt>
      <trkpt lat="46.72364" lon="-1.91208">
        <ele>-0.2</ele>
        <time>2020-06-03T17:24:20Z</time>
      </trkpt>
      <trkpt lat="46.72366" lon="-1.91203">
        <ele>-0.2</ele>
        <time>2020-06-03T17:24:21Z</time>
      </trkpt>
      <trkpt lat="46.72368" lon="-1.91197">
        <ele>-0.2</ele>
        <time>2020-06-03T17:24:22Z</time>
      </trkpt>
      <trkpt lat="46.72371" lon="-1.91191">
        <ele>-0.2</ele>
        <time>2020-06-03T17:24:23Z</time>
      </trkpt>
      <trkpt lat="46.72374" lon="-1.91185">
        <ele>-0.1</ele>
        <time>2020-06-03T17:24:24Z</time>
      </trkpt>
      <trkpt lat="46.72376" lon="-1.91179">
        <ele>-0.1</ele>
        <time>2020-06-03T17:24:25Z</time>
      </trkpt>
      <trkpt lat="46.72378" lon="-1.91174">
        <ele>-0.1</ele>
        <time>2020-06-03T17:24:26Z</time>
      </trkpt>
      <trkpt lat="46.7238" lon="-1.9117">
        <ele>-0.1</ele>
        <time>2020-06-03T17:24:27Z</time>
      </trkpt>
      <trkpt lat="46.72383" lon="-1.91164">
        <ele>-0.1</ele>
        <time>2020-06-03T17:24:28Z</time>
      </trkpt>
      <trkpt lat="46.72385" lon="-1.91159">
        <ele>1</ele>
        <time>2020-06-03T17:24:29Z</time>
      </trkpt>
      <trkpt lat="46.72388" lon="-1.91155">
        <ele>1</ele>
        <time>2020-06-03T17:24:30Z</time>
      </trkpt>
      <trkpt lat="46.72392" lon="-1.91151">
        <ele>1</ele>
        <time>2020-06-03T17:24:31Z</time>
      </trkpt>
      <trkpt lat="46.72396" lon="-1.91149">
        <ele>0.1</ele>
        <time>2020-06-03T17:24:32Z</time>
      </trkpt>
      <trkpt lat="46.72397" lon="-1.91149">
        <ele>0.1</ele>
        <time>2020-06-03T17:24:33Z</time>
      </trkpt>
      <trkpt lat="46.72401" lon="-1.91147">
        <ele>0.1</ele>
        <time>2020-06-03T17:24:34Z</time>
      </trkpt>
      <trkpt lat="46.72402" lon="-1.91146">
        <ele>0.1</ele>
        <time>2020-06-03T17:24:35Z</time>
      </trkpt>
      <trkpt lat="46.72404" lon="-1.91145">
        <ele>0.1</ele>
        <time>2020-06-03T17:24:36Z</time>
      </trkpt>
      <trkpt lat="46.72405" lon="-1.91145">
        <ele>0.1</ele>
        <time>2020-06-03T17:24:37Z</time>
      </trkpt>
      <trkpt lat="46.72405" lon="-1.91144">
        <ele>0.1</ele>
        <time>2020-06-03T17:24:38Z</time>
      </trkpt>
      <trkpt lat="46.72405" lon="-1.91144">
        <ele>0.1</ele>
        <time>2020-06-03T17:24:39Z</time>
      </trkpt>
      <trkpt lat="46.72405" lon="-1.91144">
        <ele>0.1</ele>
        <time>2020-06-03T17:24:40Z</time>
      </trkpt>
      <trkpt lat="46.72404" lon="-1.91144">
        <ele>0.1</ele>
        <time>2020-06-03T17:24:41Z</time>
      </trkpt>
      <trkpt lat="46.72404" lon="-1.91144">
        <ele>0.1</ele>
        <time>2020-06-03T17:24:42Z</time>
      </trkpt>
      <trkpt lat="46.72404" lon="-1.91144">
        <ele>0.1</ele>
        <time>2020-06-03T17:24:43Z</time>
      </trkpt>
      <trkpt lat="46.72404" lon="-1.91144">
        <ele>0.1</ele>
        <time>2020-06-03T17:24:44Z</time>
      </trkpt>
      <trkpt lat="46.72404" lon="-1.91144">
        <ele>0.1</ele>
        <time>2020-06-03T17:24:45Z</time>
      </trkpt>
      <trkpt lat="46.72404" lon="-1.91144">
        <ele>0.1</ele>
        <time>2020-06-03T17:24:46Z</time>
      </trkpt>
      <trkpt lat="46.72404" lon="-1.91144">
        <ele>0.1</ele>
        <time>2020-06-03T17:24:47Z</time>
      </trkpt>
      <trkpt lat="46.72405" lon="-1.91143">
        <ele>0.1</ele>
        <time>2020-06-03T17:24:48Z</time>
      </trkpt>
      <trkpt lat="46.72404" lon="-1.91142">
        <ele>0.1</ele>
        <time>2020-06-03T17:24:49Z</time>
      </trkpt>
      <trkpt lat="46.72405" lon="-1.91142">
        <ele>0.2</ele>
        <time>2020-06-03T17:24:50Z</time>
      </trkpt>
    </trkseg>
  </trk>
</gpx>